<?xml version="1.0" encoding="UTF-8" standalone="no" ?>
<gpx xmlns="http://www.topografix.com/GPX/1/1" xmlns:xsi="http://www.w3.org/2001/XMLSchema-instance" xsi:schemaLocation="http://www.topografix.com/GPX/1/1 http://www.topografix.com/GPX/1/1/gpx.xsd" version="1.1" creator="VisuGPX - https://www.visugpx.com">
  <metadata>
    <name>Dolomites jour 12 (fin)</name>
    <desc><![CDATA[D\'Annecy à Ruffieux, par un raccourci qui rallonge !]]></desc>
  </metadata>
  <trk>
    <name><![CDATA[Jour 12 - 07/08/2012]]></name>
    <trkseg>
      <trkpt lat="45.90741" lon="6.10768">
        <ele>430.33</ele>
        <time>2012-08-07T07:06:32Z</time>
      </trkpt>
      <trkpt lat="45.90743" lon="6.1077">
        <ele>430.81</ele>
        <time>2012-08-07T07:06:51Z</time>
      </trkpt>
      <trkpt lat="45.90745" lon="6.1076">
        <ele>430.81</ele>
        <time>2012-08-07T07:07:13Z</time>
      </trkpt>
      <trkpt lat="45.90745" lon="6.1076">
        <ele>429.37</ele>
        <time>2012-08-07T07:07:35Z</time>
      </trkpt>
      <trkpt lat="45.90747" lon="6.1076">
        <ele>430.33</ele>
        <time>2012-08-07T07:07:56Z</time>
      </trkpt>
      <trkpt lat="45.90749" lon="6.10757">
        <ele>430.33</ele>
        <time>2012-08-07T07:08:21Z</time>
      </trkpt>
      <trkpt lat="45.9074" lon="6.10754">
        <ele>430.33</ele>
        <time>2012-08-07T07:08:54Z</time>
      </trkpt>
      <trkpt lat="45.90733" lon="6.10752">
        <ele>430.81</ele>
        <time>2012-08-07T07:09:13Z</time>
      </trkpt>
      <trkpt lat="45.9072" lon="6.10743">
        <ele>430.81</ele>
        <time>2012-08-07T07:09:50Z</time>
      </trkpt>
      <trkpt lat="45.90753" lon="6.1075">
        <ele>431.29</ele>
        <time>2012-08-07T07:31:31Z</time>
      </trkpt>
      <trkpt lat="45.90751" lon="6.10757">
        <ele>431.29</ele>
        <time>2012-08-07T07:31:50Z</time>
      </trkpt>
      <trkpt lat="45.90745" lon="6.10763">
        <ele>435.61</ele>
        <time>2012-08-07T07:32:13Z</time>
      </trkpt>
      <trkpt lat="45.90745" lon="6.10764">
        <ele>428.4</ele>
        <time>2012-08-07T07:32:14Z</time>
      </trkpt>
      <trkpt lat="45.90745" lon="6.10764">
        <ele>434.65</ele>
        <time>2012-08-07T07:32:15Z</time>
      </trkpt>
      <trkpt lat="45.90745" lon="6.10764">
        <ele>430.33</ele>
        <time>2012-08-07T07:32:16Z</time>
      </trkpt>
      <trkpt lat="45.90744" lon="6.10765">
        <ele>435.13</ele>
        <time>2012-08-07T07:32:18Z</time>
      </trkpt>
      <trkpt lat="45.90744" lon="6.10766">
        <ele>432.25</ele>
        <time>2012-08-07T07:32:19Z</time>
      </trkpt>
      <trkpt lat="45.90748" lon="6.10772">
        <ele>431.77</ele>
        <time>2012-08-07T07:32:33Z</time>
      </trkpt>
      <trkpt lat="45.90766" lon="6.10788">
        <ele>430.81</ele>
        <time>2012-08-07T07:32:57Z</time>
      </trkpt>
      <trkpt lat="45.90774" lon="6.10794">
        <ele>431.77</ele>
        <time>2012-08-07T07:33:12Z</time>
      </trkpt>
      <trkpt lat="45.9078" lon="6.10797">
        <ele>432.25</ele>
        <time>2012-08-07T07:33:42Z</time>
      </trkpt>
      <trkpt lat="45.90775" lon="6.10791">
        <ele>433.21</ele>
        <time>2012-08-07T07:34:15Z</time>
      </trkpt>
      <trkpt lat="45.90775" lon="6.10788">
        <ele>434.65</ele>
        <time>2012-08-07T07:34:48Z</time>
      </trkpt>
      <trkpt lat="45.90772" lon="6.10785">
        <ele>435.61</ele>
        <time>2012-08-07T07:35:24Z</time>
      </trkpt>
      <trkpt lat="45.90772" lon="6.10784">
        <ele>436.58</ele>
        <time>2012-08-07T07:35:41Z</time>
      </trkpt>
      <trkpt lat="45.9076" lon="6.10782">
        <ele>436.58</ele>
        <time>2012-08-07T07:35:47Z</time>
      </trkpt>
      <trkpt lat="45.90761" lon="6.10772">
        <ele>437.54</ele>
        <time>2012-08-07T07:35:50Z</time>
      </trkpt>
      <trkpt lat="45.90763" lon="6.10766">
        <ele>438.02</ele>
        <time>2012-08-07T07:35:51Z</time>
      </trkpt>
      <trkpt lat="45.90766" lon="6.10757">
        <ele>438.02</ele>
        <time>2012-08-07T07:35:52Z</time>
      </trkpt>
      <trkpt lat="45.90772" lon="6.10736">
        <ele>438.02</ele>
        <time>2012-08-07T07:35:54Z</time>
      </trkpt>
      <trkpt lat="45.90778" lon="6.1067">
        <ele>437.54</ele>
        <time>2012-08-07T07:36:02Z</time>
      </trkpt>
      <trkpt lat="45.90791" lon="6.10588">
        <ele>436.58</ele>
        <time>2012-08-07T07:36:12Z</time>
      </trkpt>
      <trkpt lat="45.90794" lon="6.10581">
        <ele>436.58</ele>
        <time>2012-08-07T07:36:13Z</time>
      </trkpt>
      <trkpt lat="45.90798" lon="6.10574">
        <ele>436.58</ele>
        <time>2012-08-07T07:36:14Z</time>
      </trkpt>
      <trkpt lat="45.90802" lon="6.10566">
        <ele>436.1</ele>
        <time>2012-08-07T07:36:15Z</time>
      </trkpt>
      <trkpt lat="45.90805" lon="6.10559">
        <ele>436.58</ele>
        <time>2012-08-07T07:36:16Z</time>
      </trkpt>
      <trkpt lat="45.90806" lon="6.10552">
        <ele>436.1</ele>
        <time>2012-08-07T07:36:17Z</time>
      </trkpt>
      <trkpt lat="45.90806" lon="6.10545">
        <ele>435.61</ele>
        <time>2012-08-07T07:36:18Z</time>
      </trkpt>
      <trkpt lat="45.90803" lon="6.10539">
        <ele>435.13</ele>
        <time>2012-08-07T07:36:19Z</time>
      </trkpt>
      <trkpt lat="45.90797" lon="6.10535">
        <ele>435.13</ele>
        <time>2012-08-07T07:36:20Z</time>
      </trkpt>
      <trkpt lat="45.90791" lon="6.10534">
        <ele>435.13</ele>
        <time>2012-08-07T07:36:21Z</time>
      </trkpt>
      <trkpt lat="45.90781" lon="6.10536">
        <ele>435.13</ele>
        <time>2012-08-07T07:36:22Z</time>
      </trkpt>
      <trkpt lat="45.90772" lon="6.1054">
        <ele>435.61</ele>
        <time>2012-08-07T07:36:23Z</time>
      </trkpt>
      <trkpt lat="45.90763" lon="6.10541">
        <ele>435.61</ele>
        <time>2012-08-07T07:36:24Z</time>
      </trkpt>
      <trkpt lat="45.90754" lon="6.1054">
        <ele>435.61</ele>
        <time>2012-08-07T07:36:25Z</time>
      </trkpt>
      <trkpt lat="45.90747" lon="6.1054">
        <ele>436.1</ele>
        <time>2012-08-07T07:36:26Z</time>
      </trkpt>
      <trkpt lat="45.9074" lon="6.1054">
        <ele>436.58</ele>
        <time>2012-08-07T07:36:27Z</time>
      </trkpt>
      <trkpt lat="45.90734" lon="6.10541">
        <ele>436.58</ele>
        <time>2012-08-07T07:36:28Z</time>
      </trkpt>
      <trkpt lat="45.90727" lon="6.10544">
        <ele>437.06</ele>
        <time>2012-08-07T07:36:29Z</time>
      </trkpt>
      <trkpt lat="45.9072" lon="6.10547">
        <ele>437.06</ele>
        <time>2012-08-07T07:36:30Z</time>
      </trkpt>
      <trkpt lat="45.90703" lon="6.10557">
        <ele>436.58</ele>
        <time>2012-08-07T07:36:32Z</time>
      </trkpt>
      <trkpt lat="45.90694" lon="6.10562">
        <ele>436.1</ele>
        <time>2012-08-07T07:36:33Z</time>
      </trkpt>
      <trkpt lat="45.90688" lon="6.10568">
        <ele>436.1</ele>
        <time>2012-08-07T07:36:34Z</time>
      </trkpt>
      <trkpt lat="45.90682" lon="6.10576">
        <ele>435.61</ele>
        <time>2012-08-07T07:36:35Z</time>
      </trkpt>
      <trkpt lat="45.90679" lon="6.10587">
        <ele>435.61</ele>
        <time>2012-08-07T07:36:36Z</time>
      </trkpt>
      <trkpt lat="45.90676" lon="6.10598">
        <ele>436.1</ele>
        <time>2012-08-07T07:36:37Z</time>
      </trkpt>
      <trkpt lat="45.90674" lon="6.10609">
        <ele>436.1</ele>
        <time>2012-08-07T07:36:38Z</time>
      </trkpt>
      <trkpt lat="45.90671" lon="6.10632">
        <ele>436.58</ele>
        <time>2012-08-07T07:36:40Z</time>
      </trkpt>
      <trkpt lat="45.90669" lon="6.10644">
        <ele>437.06</ele>
        <time>2012-08-07T07:36:41Z</time>
      </trkpt>
      <trkpt lat="45.90665" lon="6.10656">
        <ele>437.06</ele>
        <time>2012-08-07T07:36:42Z</time>
      </trkpt>
      <trkpt lat="45.90628" lon="6.107">
        <ele>436.58</ele>
        <time>2012-08-07T07:36:48Z</time>
      </trkpt>
      <trkpt lat="45.90622" lon="6.10704">
        <ele>437.06</ele>
        <time>2012-08-07T07:36:49Z</time>
      </trkpt>
      <trkpt lat="45.90616" lon="6.10706">
        <ele>437.06</ele>
        <time>2012-08-07T07:36:50Z</time>
      </trkpt>
      <trkpt lat="45.906" lon="6.10708">
        <ele>439.94</ele>
        <time>2012-08-07T07:36:52Z</time>
      </trkpt>
      <trkpt lat="45.9059" lon="6.10708">
        <ele>439.94</ele>
        <time>2012-08-07T07:36:53Z</time>
      </trkpt>
      <trkpt lat="45.90541" lon="6.10708">
        <ele>441.86</ele>
        <time>2012-08-07T07:36:58Z</time>
      </trkpt>
      <trkpt lat="45.90533" lon="6.10711">
        <ele>441.86</ele>
        <time>2012-08-07T07:36:59Z</time>
      </trkpt>
      <trkpt lat="45.90527" lon="6.10718">
        <ele>441.86</ele>
        <time>2012-08-07T07:37:00Z</time>
      </trkpt>
      <trkpt lat="45.90521" lon="6.10726">
        <ele>442.34</ele>
        <time>2012-08-07T07:37:01Z</time>
      </trkpt>
      <trkpt lat="45.90518" lon="6.10737">
        <ele>442.82</ele>
        <time>2012-08-07T07:37:02Z</time>
      </trkpt>
      <trkpt lat="45.90516" lon="6.10744">
        <ele>442.82</ele>
        <time>2012-08-07T07:37:03Z</time>
      </trkpt>
      <trkpt lat="45.90512" lon="6.1075">
        <ele>442.82</ele>
        <time>2012-08-07T07:37:04Z</time>
      </trkpt>
      <trkpt lat="45.90505" lon="6.10755">
        <ele>442.82</ele>
        <time>2012-08-07T07:37:05Z</time>
      </trkpt>
      <trkpt lat="45.90499" lon="6.10763">
        <ele>443.79</ele>
        <time>2012-08-07T07:37:06Z</time>
      </trkpt>
      <trkpt lat="45.90493" lon="6.10774">
        <ele>444.75</ele>
        <time>2012-08-07T07:37:07Z</time>
      </trkpt>
      <trkpt lat="45.90487" lon="6.10787">
        <ele>444.75</ele>
        <time>2012-08-07T07:37:08Z</time>
      </trkpt>
      <trkpt lat="45.90481" lon="6.108">
        <ele>445.71</ele>
        <time>2012-08-07T07:37:09Z</time>
      </trkpt>
      <trkpt lat="45.90473" lon="6.10814">
        <ele>445.71</ele>
        <time>2012-08-07T07:37:10Z</time>
      </trkpt>
      <trkpt lat="45.90466" lon="6.1083">
        <ele>446.19</ele>
        <time>2012-08-07T07:37:11Z</time>
      </trkpt>
      <trkpt lat="45.9046" lon="6.10847">
        <ele>446.19</ele>
        <time>2012-08-07T07:37:12Z</time>
      </trkpt>
      <trkpt lat="45.90424" lon="6.10958">
        <ele>445.71</ele>
        <time>2012-08-07T07:37:19Z</time>
      </trkpt>
      <trkpt lat="45.90416" lon="6.10971">
        <ele>445.71</ele>
        <time>2012-08-07T07:37:20Z</time>
      </trkpt>
      <trkpt lat="45.90391" lon="6.1101">
        <ele>444.27</ele>
        <time>2012-08-07T07:37:24Z</time>
      </trkpt>
      <trkpt lat="45.90386" lon="6.11016">
        <ele>444.27</ele>
        <time>2012-08-07T07:37:25Z</time>
      </trkpt>
      <trkpt lat="45.9038" lon="6.1102">
        <ele>444.27</ele>
        <time>2012-08-07T07:37:26Z</time>
      </trkpt>
      <trkpt lat="45.90374" lon="6.11025">
        <ele>443.79</ele>
        <time>2012-08-07T07:37:27Z</time>
      </trkpt>
      <trkpt lat="45.90367" lon="6.1103">
        <ele>443.79</ele>
        <time>2012-08-07T07:37:28Z</time>
      </trkpt>
      <trkpt lat="45.90359" lon="6.11037">
        <ele>444.27</ele>
        <time>2012-08-07T07:37:29Z</time>
      </trkpt>
      <trkpt lat="45.9035" lon="6.11041">
        <ele>443.79</ele>
        <time>2012-08-07T07:37:30Z</time>
      </trkpt>
      <trkpt lat="45.9034" lon="6.11046">
        <ele>443.79</ele>
        <time>2012-08-07T07:37:31Z</time>
      </trkpt>
      <trkpt lat="45.9033" lon="6.11053">
        <ele>444.27</ele>
        <time>2012-08-07T07:37:32Z</time>
      </trkpt>
      <trkpt lat="45.9032" lon="6.11062">
        <ele>444.27</ele>
        <time>2012-08-07T07:37:33Z</time>
      </trkpt>
      <trkpt lat="45.90311" lon="6.11074">
        <ele>445.23</ele>
        <time>2012-08-07T07:37:34Z</time>
      </trkpt>
      <trkpt lat="45.90303" lon="6.11087">
        <ele>445.23</ele>
        <time>2012-08-07T07:37:35Z</time>
      </trkpt>
      <trkpt lat="45.90295" lon="6.11102">
        <ele>445.71</ele>
        <time>2012-08-07T07:37:36Z</time>
      </trkpt>
      <trkpt lat="45.90285" lon="6.11116">
        <ele>446.19</ele>
        <time>2012-08-07T07:37:37Z</time>
      </trkpt>
      <trkpt lat="45.90254" lon="6.1116">
        <ele>449.07</ele>
        <time>2012-08-07T07:37:40Z</time>
      </trkpt>
      <trkpt lat="45.90225" lon="6.11208">
        <ele>452.92</ele>
        <time>2012-08-07T07:37:43Z</time>
      </trkpt>
      <trkpt lat="45.90192" lon="6.11256">
        <ele>454.84</ele>
        <time>2012-08-07T07:37:46Z</time>
      </trkpt>
      <trkpt lat="45.90112" lon="6.11398">
        <ele>451.48</ele>
        <time>2012-08-07T07:37:56Z</time>
      </trkpt>
      <trkpt lat="45.90074" lon="6.11481">
        <ele>448.11</ele>
        <time>2012-08-07T07:38:04Z</time>
      </trkpt>
      <trkpt lat="45.9007" lon="6.1149">
        <ele>448.11</ele>
        <time>2012-08-07T07:38:05Z</time>
      </trkpt>
      <trkpt lat="45.90058" lon="6.1152">
        <ele>444.75</ele>
        <time>2012-08-07T07:38:09Z</time>
      </trkpt>
      <trkpt lat="45.90043" lon="6.11564">
        <ele>442.82</ele>
        <time>2012-08-07T07:38:20Z</time>
      </trkpt>
      <trkpt lat="45.90038" lon="6.11587">
        <ele>441.86</ele>
        <time>2012-08-07T07:38:30Z</time>
      </trkpt>
      <trkpt lat="45.90038" lon="6.1159">
        <ele>441.86</ele>
        <time>2012-08-07T07:38:31Z</time>
      </trkpt>
      <trkpt lat="45.9004" lon="6.11593">
        <ele>442.34</ele>
        <time>2012-08-07T07:38:37Z</time>
      </trkpt>
      <trkpt lat="45.90041" lon="6.11595">
        <ele>442.34</ele>
        <time>2012-08-07T07:38:38Z</time>
      </trkpt>
      <trkpt lat="45.90043" lon="6.11597">
        <ele>441.86</ele>
        <time>2012-08-07T07:38:39Z</time>
      </trkpt>
      <trkpt lat="45.90062" lon="6.11619">
        <ele>441.86</ele>
        <time>2012-08-07T07:38:52Z</time>
      </trkpt>
      <trkpt lat="45.90074" lon="6.11654">
        <ele>442.34</ele>
        <time>2012-08-07T07:39:04Z</time>
      </trkpt>
      <trkpt lat="45.90082" lon="6.11687">
        <ele>442.82</ele>
        <time>2012-08-07T07:39:17Z</time>
      </trkpt>
      <trkpt lat="45.90086" lon="6.11708">
        <ele>442.34</ele>
        <time>2012-08-07T07:39:26Z</time>
      </trkpt>
      <trkpt lat="45.90085" lon="6.1171">
        <ele>442.82</ele>
        <time>2012-08-07T07:39:27Z</time>
      </trkpt>
      <trkpt lat="45.90084" lon="6.11712">
        <ele>442.82</ele>
        <time>2012-08-07T07:39:28Z</time>
      </trkpt>
      <trkpt lat="45.90083" lon="6.11713">
        <ele>442.82</ele>
        <time>2012-08-07T07:39:29Z</time>
      </trkpt>
      <trkpt lat="45.90082" lon="6.11717">
        <ele>441.86</ele>
        <time>2012-08-07T07:39:38Z</time>
      </trkpt>
      <trkpt lat="45.90083" lon="6.11717">
        <ele>442.82</ele>
        <time>2012-08-07T07:39:50Z</time>
      </trkpt>
      <trkpt lat="45.90088" lon="6.11727">
        <ele>442.34</ele>
        <time>2012-08-07T07:40:04Z</time>
      </trkpt>
      <trkpt lat="45.90087" lon="6.11729">
        <ele>443.31</ele>
        <time>2012-08-07T07:40:18Z</time>
      </trkpt>
      <trkpt lat="45.90084" lon="6.11739">
        <ele>443.31</ele>
        <time>2012-08-07T07:40:22Z</time>
      </trkpt>
      <trkpt lat="45.90081" lon="6.11743">
        <ele>443.31</ele>
        <time>2012-08-07T07:40:23Z</time>
      </trkpt>
      <trkpt lat="45.90076" lon="6.11746">
        <ele>443.31</ele>
        <time>2012-08-07T07:40:24Z</time>
      </trkpt>
      <trkpt lat="45.90061" lon="6.11754">
        <ele>444.27</ele>
        <time>2012-08-07T07:40:26Z</time>
      </trkpt>
      <trkpt lat="45.90054" lon="6.11759">
        <ele>443.79</ele>
        <time>2012-08-07T07:40:27Z</time>
      </trkpt>
      <trkpt lat="45.90048" lon="6.11765">
        <ele>444.27</ele>
        <time>2012-08-07T07:40:28Z</time>
      </trkpt>
      <trkpt lat="45.90043" lon="6.11773">
        <ele>443.79</ele>
        <time>2012-08-07T07:40:29Z</time>
      </trkpt>
      <trkpt lat="45.90038" lon="6.11781">
        <ele>444.27</ele>
        <time>2012-08-07T07:40:30Z</time>
      </trkpt>
      <trkpt lat="45.89979" lon="6.1188">
        <ele>444.75</ele>
        <time>2012-08-07T07:40:40Z</time>
      </trkpt>
      <trkpt lat="45.89969" lon="6.11895">
        <ele>443.31</ele>
        <time>2012-08-07T07:40:42Z</time>
      </trkpt>
      <trkpt lat="45.89966" lon="6.11898">
        <ele>442.82</ele>
        <time>2012-08-07T07:40:43Z</time>
      </trkpt>
      <trkpt lat="45.89963" lon="6.11901">
        <ele>442.34</ele>
        <time>2012-08-07T07:40:44Z</time>
      </trkpt>
      <trkpt lat="45.8996" lon="6.119">
        <ele>442.82</ele>
        <time>2012-08-07T07:40:45Z</time>
      </trkpt>
      <trkpt lat="45.89956" lon="6.11896">
        <ele>443.31</ele>
        <time>2012-08-07T07:40:46Z</time>
      </trkpt>
      <trkpt lat="45.89951" lon="6.1189">
        <ele>443.79</ele>
        <time>2012-08-07T07:40:47Z</time>
      </trkpt>
      <trkpt lat="45.89907" lon="6.1182">
        <ele>442.82</ele>
        <time>2012-08-07T07:40:57Z</time>
      </trkpt>
      <trkpt lat="45.89894" lon="6.11806">
        <ele>443.31</ele>
        <time>2012-08-07T07:41:02Z</time>
      </trkpt>
      <trkpt lat="45.89889" lon="6.11802">
        <ele>442.82</ele>
        <time>2012-08-07T07:41:03Z</time>
      </trkpt>
      <trkpt lat="45.89884" lon="6.11799">
        <ele>443.31</ele>
        <time>2012-08-07T07:41:04Z</time>
      </trkpt>
      <trkpt lat="45.89878" lon="6.118">
        <ele>443.31</ele>
        <time>2012-08-07T07:41:05Z</time>
      </trkpt>
      <trkpt lat="45.89873" lon="6.11805">
        <ele>443.79</ele>
        <time>2012-08-07T07:41:06Z</time>
      </trkpt>
      <trkpt lat="45.89869" lon="6.11815">
        <ele>444.75</ele>
        <time>2012-08-07T07:41:07Z</time>
      </trkpt>
      <trkpt lat="45.89864" lon="6.11828">
        <ele>444.27</ele>
        <time>2012-08-07T07:41:08Z</time>
      </trkpt>
      <trkpt lat="45.89858" lon="6.1184">
        <ele>444.75</ele>
        <time>2012-08-07T07:41:09Z</time>
      </trkpt>
      <trkpt lat="45.8985" lon="6.11853">
        <ele>444.75</ele>
        <time>2012-08-07T07:41:10Z</time>
      </trkpt>
      <trkpt lat="45.89768" lon="6.11967">
        <ele>444.75</ele>
        <time>2012-08-07T07:41:20Z</time>
      </trkpt>
      <trkpt lat="45.89704" lon="6.1204">
        <ele>443.31</ele>
        <time>2012-08-07T07:41:29Z</time>
      </trkpt>
      <trkpt lat="45.89701" lon="6.12045">
        <ele>444.27</ele>
        <time>2012-08-07T07:41:30Z</time>
      </trkpt>
      <trkpt lat="45.89698" lon="6.12049">
        <ele>443.79</ele>
        <time>2012-08-07T07:41:31Z</time>
      </trkpt>
      <trkpt lat="45.89695" lon="6.12052">
        <ele>443.79</ele>
        <time>2012-08-07T07:41:32Z</time>
      </trkpt>
      <trkpt lat="45.89694" lon="6.12052">
        <ele>442.34</ele>
        <time>2012-08-07T07:41:40Z</time>
      </trkpt>
      <trkpt lat="45.89695" lon="6.12053">
        <ele>442.34</ele>
        <time>2012-08-07T07:42:15Z</time>
      </trkpt>
      <trkpt lat="45.89684" lon="6.12065">
        <ele>444.27</ele>
        <time>2012-08-07T07:42:44Z</time>
      </trkpt>
      <trkpt lat="45.89602" lon="6.12149">
        <ele>445.23</ele>
        <time>2012-08-07T07:42:53Z</time>
      </trkpt>
      <trkpt lat="45.89525" lon="6.12214">
        <ele>443.31</ele>
        <time>2012-08-07T07:43:02Z</time>
      </trkpt>
      <trkpt lat="45.89519" lon="6.12217">
        <ele>443.31</ele>
        <time>2012-08-07T07:43:03Z</time>
      </trkpt>
      <trkpt lat="45.89512" lon="6.1222">
        <ele>443.79</ele>
        <time>2012-08-07T07:43:04Z</time>
      </trkpt>
      <trkpt lat="45.89506" lon="6.12224">
        <ele>443.31</ele>
        <time>2012-08-07T07:43:05Z</time>
      </trkpt>
      <trkpt lat="45.89502" lon="6.12227">
        <ele>443.79</ele>
        <time>2012-08-07T07:43:06Z</time>
      </trkpt>
      <trkpt lat="45.89501" lon="6.12231">
        <ele>443.79</ele>
        <time>2012-08-07T07:43:07Z</time>
      </trkpt>
      <trkpt lat="45.89504" lon="6.12236">
        <ele>444.75</ele>
        <time>2012-08-07T07:43:08Z</time>
      </trkpt>
      <trkpt lat="45.8951" lon="6.12246">
        <ele>445.71</ele>
        <time>2012-08-07T07:43:09Z</time>
      </trkpt>
      <trkpt lat="45.89516" lon="6.12262">
        <ele>447.15</ele>
        <time>2012-08-07T07:43:10Z</time>
      </trkpt>
      <trkpt lat="45.89523" lon="6.12284">
        <ele>448.11</ele>
        <time>2012-08-07T07:43:11Z</time>
      </trkpt>
      <trkpt lat="45.89526" lon="6.12305">
        <ele>451</ele>
        <time>2012-08-07T07:43:12Z</time>
      </trkpt>
      <trkpt lat="45.89527" lon="6.12327">
        <ele>451.96</ele>
        <time>2012-08-07T07:43:13Z</time>
      </trkpt>
      <trkpt lat="45.89526" lon="6.12348">
        <ele>452.92</ele>
        <time>2012-08-07T07:43:14Z</time>
      </trkpt>
      <trkpt lat="45.89524" lon="6.12368">
        <ele>453.88</ele>
        <time>2012-08-07T07:43:15Z</time>
      </trkpt>
      <trkpt lat="45.8952" lon="6.12386">
        <ele>453.88</ele>
        <time>2012-08-07T07:43:16Z</time>
      </trkpt>
      <trkpt lat="45.89515" lon="6.12403">
        <ele>454.84</ele>
        <time>2012-08-07T07:43:17Z</time>
      </trkpt>
      <trkpt lat="45.89512" lon="6.1242">
        <ele>455.8</ele>
        <time>2012-08-07T07:43:18Z</time>
      </trkpt>
      <trkpt lat="45.89512" lon="6.12437">
        <ele>456.76</ele>
        <time>2012-08-07T07:43:19Z</time>
      </trkpt>
      <trkpt lat="45.89514" lon="6.12454">
        <ele>456.76</ele>
        <time>2012-08-07T07:43:20Z</time>
      </trkpt>
      <trkpt lat="45.89525" lon="6.12503">
        <ele>460.61</ele>
        <time>2012-08-07T07:43:23Z</time>
      </trkpt>
      <trkpt lat="45.89535" lon="6.12561">
        <ele>463.97</ele>
        <time>2012-08-07T07:43:27Z</time>
      </trkpt>
      <trkpt lat="45.89536" lon="6.12576">
        <ele>464.93</ele>
        <time>2012-08-07T07:43:28Z</time>
      </trkpt>
      <trkpt lat="45.89536" lon="6.12592">
        <ele>465.9</ele>
        <time>2012-08-07T07:43:29Z</time>
      </trkpt>
      <trkpt lat="45.89534" lon="6.12608">
        <ele>467.34</ele>
        <time>2012-08-07T07:43:30Z</time>
      </trkpt>
      <trkpt lat="45.8953" lon="6.12624">
        <ele>468.78</ele>
        <time>2012-08-07T07:43:31Z</time>
      </trkpt>
      <trkpt lat="45.89526" lon="6.1264">
        <ele>468.78</ele>
        <time>2012-08-07T07:43:32Z</time>
      </trkpt>
      <trkpt lat="45.89521" lon="6.12655">
        <ele>469.26</ele>
        <time>2012-08-07T07:43:33Z</time>
      </trkpt>
      <trkpt lat="45.89511" lon="6.12686">
        <ele>470.22</ele>
        <time>2012-08-07T07:43:35Z</time>
      </trkpt>
      <trkpt lat="45.89491" lon="6.12744">
        <ele>471.18</ele>
        <time>2012-08-07T07:43:40Z</time>
      </trkpt>
      <trkpt lat="45.89485" lon="6.12752">
        <ele>472.63</ele>
        <time>2012-08-07T07:43:41Z</time>
      </trkpt>
      <trkpt lat="45.89432" lon="6.12812">
        <ele>472.63</ele>
        <time>2012-08-07T07:43:48Z</time>
      </trkpt>
      <trkpt lat="45.89425" lon="6.12824">
        <ele>472.63</ele>
        <time>2012-08-07T07:43:49Z</time>
      </trkpt>
      <trkpt lat="45.89419" lon="6.12837">
        <ele>471.66</ele>
        <time>2012-08-07T07:43:50Z</time>
      </trkpt>
      <trkpt lat="45.89414" lon="6.12851">
        <ele>472.14</ele>
        <time>2012-08-07T07:43:51Z</time>
      </trkpt>
      <trkpt lat="45.89411" lon="6.12866">
        <ele>471.66</ele>
        <time>2012-08-07T07:43:52Z</time>
      </trkpt>
      <trkpt lat="45.8941" lon="6.12882">
        <ele>471.66</ele>
        <time>2012-08-07T07:43:53Z</time>
      </trkpt>
      <trkpt lat="45.89409" lon="6.12897">
        <ele>471.66</ele>
        <time>2012-08-07T07:43:54Z</time>
      </trkpt>
      <trkpt lat="45.89409" lon="6.12912">
        <ele>471.18</ele>
        <time>2012-08-07T07:43:55Z</time>
      </trkpt>
      <trkpt lat="45.89404" lon="6.12971">
        <ele>471.66</ele>
        <time>2012-08-07T07:44:00Z</time>
      </trkpt>
      <trkpt lat="45.89402" lon="6.12981">
        <ele>472.14</ele>
        <time>2012-08-07T07:44:01Z</time>
      </trkpt>
      <trkpt lat="45.89384" lon="6.13044">
        <ele>475.51</ele>
        <time>2012-08-07T07:44:06Z</time>
      </trkpt>
      <trkpt lat="45.89381" lon="6.1306">
        <ele>476.47</ele>
        <time>2012-08-07T07:44:07Z</time>
      </trkpt>
      <trkpt lat="45.8938" lon="6.13077">
        <ele>476.47</ele>
        <time>2012-08-07T07:44:08Z</time>
      </trkpt>
      <trkpt lat="45.8938" lon="6.13095">
        <ele>476.95</ele>
        <time>2012-08-07T07:44:09Z</time>
      </trkpt>
      <trkpt lat="45.89379" lon="6.13113">
        <ele>477.43</ele>
        <time>2012-08-07T07:44:10Z</time>
      </trkpt>
      <trkpt lat="45.89378" lon="6.13128">
        <ele>477.43</ele>
        <time>2012-08-07T07:44:11Z</time>
      </trkpt>
      <trkpt lat="45.89377" lon="6.13141">
        <ele>476.47</ele>
        <time>2012-08-07T07:44:12Z</time>
      </trkpt>
      <trkpt lat="45.89375" lon="6.13155">
        <ele>476.47</ele>
        <time>2012-08-07T07:44:13Z</time>
      </trkpt>
      <trkpt lat="45.8937" lon="6.13168">
        <ele>477.43</ele>
        <time>2012-08-07T07:44:14Z</time>
      </trkpt>
      <trkpt lat="45.89364" lon="6.13181">
        <ele>477.43</ele>
        <time>2012-08-07T07:44:15Z</time>
      </trkpt>
      <trkpt lat="45.89327" lon="6.13258">
        <ele>480.8</ele>
        <time>2012-08-07T07:44:20Z</time>
      </trkpt>
      <trkpt lat="45.8931" lon="6.13289">
        <ele>483.68</ele>
        <time>2012-08-07T07:44:22Z</time>
      </trkpt>
      <trkpt lat="45.89282" lon="6.13337">
        <ele>487.05</ele>
        <time>2012-08-07T07:44:25Z</time>
      </trkpt>
      <trkpt lat="45.89274" lon="6.13353">
        <ele>487.05</ele>
        <time>2012-08-07T07:44:26Z</time>
      </trkpt>
      <trkpt lat="45.89266" lon="6.13367">
        <ele>487.53</ele>
        <time>2012-08-07T07:44:27Z</time>
      </trkpt>
      <trkpt lat="45.89257" lon="6.13379">
        <ele>487.53</ele>
        <time>2012-08-07T07:44:28Z</time>
      </trkpt>
      <trkpt lat="45.89248" lon="6.1339">
        <ele>488.01</ele>
        <time>2012-08-07T07:44:29Z</time>
      </trkpt>
      <trkpt lat="45.89239" lon="6.13401">
        <ele>488.97</ele>
        <time>2012-08-07T07:44:30Z</time>
      </trkpt>
      <trkpt lat="45.89227" lon="6.13411">
        <ele>489.93</ele>
        <time>2012-08-07T07:44:31Z</time>
      </trkpt>
      <trkpt lat="45.89204" lon="6.1343">
        <ele>490.89</ele>
        <time>2012-08-07T07:44:33Z</time>
      </trkpt>
      <trkpt lat="45.89193" lon="6.13438">
        <ele>490.89</ele>
        <time>2012-08-07T07:44:34Z</time>
      </trkpt>
      <trkpt lat="45.89181" lon="6.13442">
        <ele>491.85</ele>
        <time>2012-08-07T07:44:35Z</time>
      </trkpt>
      <trkpt lat="45.89169" lon="6.13445">
        <ele>492.81</ele>
        <time>2012-08-07T07:44:36Z</time>
      </trkpt>
      <trkpt lat="45.89157" lon="6.13445">
        <ele>493.77</ele>
        <time>2012-08-07T07:44:37Z</time>
      </trkpt>
      <trkpt lat="45.89147" lon="6.13442">
        <ele>493.29</ele>
        <time>2012-08-07T07:44:38Z</time>
      </trkpt>
      <trkpt lat="45.89136" lon="6.13435">
        <ele>493.77</ele>
        <time>2012-08-07T07:44:39Z</time>
      </trkpt>
      <trkpt lat="45.89126" lon="6.13427">
        <ele>495.22</ele>
        <time>2012-08-07T07:44:40Z</time>
      </trkpt>
      <trkpt lat="45.89114" lon="6.13419">
        <ele>496.18</ele>
        <time>2012-08-07T07:44:41Z</time>
      </trkpt>
      <trkpt lat="45.89103" lon="6.13412">
        <ele>497.14</ele>
        <time>2012-08-07T07:44:42Z</time>
      </trkpt>
      <trkpt lat="45.89093" lon="6.13405">
        <ele>497.62</ele>
        <time>2012-08-07T07:44:43Z</time>
      </trkpt>
      <trkpt lat="45.89084" lon="6.13396">
        <ele>498.58</ele>
        <time>2012-08-07T07:44:44Z</time>
      </trkpt>
      <trkpt lat="45.89078" lon="6.13385">
        <ele>499.54</ele>
        <time>2012-08-07T07:44:45Z</time>
      </trkpt>
      <trkpt lat="45.89074" lon="6.13371">
        <ele>500.02</ele>
        <time>2012-08-07T07:44:46Z</time>
      </trkpt>
      <trkpt lat="45.89074" lon="6.13357">
        <ele>500.98</ele>
        <time>2012-08-07T07:44:47Z</time>
      </trkpt>
      <trkpt lat="45.89077" lon="6.13343">
        <ele>501.95</ele>
        <time>2012-08-07T07:44:48Z</time>
      </trkpt>
      <trkpt lat="45.89084" lon="6.13331">
        <ele>502.91</ele>
        <time>2012-08-07T07:44:49Z</time>
      </trkpt>
      <trkpt lat="45.89095" lon="6.13321">
        <ele>504.83</ele>
        <time>2012-08-07T07:44:50Z</time>
      </trkpt>
      <trkpt lat="45.89107" lon="6.13314">
        <ele>507.71</ele>
        <time>2012-08-07T07:44:51Z</time>
      </trkpt>
      <trkpt lat="45.89118" lon="6.13309">
        <ele>507.71</ele>
        <time>2012-08-07T07:44:52Z</time>
      </trkpt>
      <trkpt lat="45.89128" lon="6.13304">
        <ele>507.71</ele>
        <time>2012-08-07T07:44:53Z</time>
      </trkpt>
      <trkpt lat="45.89137" lon="6.13296">
        <ele>508.67</ele>
        <time>2012-08-07T07:44:54Z</time>
      </trkpt>
      <trkpt lat="45.89144" lon="6.13286">
        <ele>508.67</ele>
        <time>2012-08-07T07:44:55Z</time>
      </trkpt>
      <trkpt lat="45.89149" lon="6.13276">
        <ele>509.64</ele>
        <time>2012-08-07T07:44:56Z</time>
      </trkpt>
      <trkpt lat="45.89153" lon="6.13266">
        <ele>510.6</ele>
        <time>2012-08-07T07:44:57Z</time>
      </trkpt>
      <trkpt lat="45.89152" lon="6.13254">
        <ele>512.04</ele>
        <time>2012-08-07T07:44:58Z</time>
      </trkpt>
      <trkpt lat="45.89146" lon="6.13242">
        <ele>512.04</ele>
        <time>2012-08-07T07:44:59Z</time>
      </trkpt>
      <trkpt lat="45.89138" lon="6.13231">
        <ele>513.48</ele>
        <time>2012-08-07T07:45:00Z</time>
      </trkpt>
      <trkpt lat="45.89127" lon="6.13226">
        <ele>513.96</ele>
        <time>2012-08-07T07:45:01Z</time>
      </trkpt>
      <trkpt lat="45.89115" lon="6.13224">
        <ele>515.4</ele>
        <time>2012-08-07T07:45:02Z</time>
      </trkpt>
      <trkpt lat="45.89101" lon="6.13226">
        <ele>516.37</ele>
        <time>2012-08-07T07:45:03Z</time>
      </trkpt>
      <trkpt lat="45.89061" lon="6.13226">
        <ele>518.77</ele>
        <time>2012-08-07T07:45:06Z</time>
      </trkpt>
      <trkpt lat="45.8905" lon="6.1323">
        <ele>518.77</ele>
        <time>2012-08-07T07:45:07Z</time>
      </trkpt>
      <trkpt lat="45.89039" lon="6.13238">
        <ele>520.21</ele>
        <time>2012-08-07T07:45:08Z</time>
      </trkpt>
      <trkpt lat="45.89029" lon="6.1325">
        <ele>521.65</ele>
        <time>2012-08-07T07:45:09Z</time>
      </trkpt>
      <trkpt lat="45.89021" lon="6.13264">
        <ele>521.65</ele>
        <time>2012-08-07T07:45:10Z</time>
      </trkpt>
      <trkpt lat="45.89015" lon="6.1328">
        <ele>522.61</ele>
        <time>2012-08-07T07:45:11Z</time>
      </trkpt>
      <trkpt lat="45.8901" lon="6.13298">
        <ele>524.06</ele>
        <time>2012-08-07T07:45:12Z</time>
      </trkpt>
      <trkpt lat="45.89008" lon="6.13318">
        <ele>525.5</ele>
        <time>2012-08-07T07:45:13Z</time>
      </trkpt>
      <trkpt lat="45.89008" lon="6.13337">
        <ele>525.5</ele>
        <time>2012-08-07T07:45:14Z</time>
      </trkpt>
      <trkpt lat="45.89005" lon="6.13354">
        <ele>526.94</ele>
        <time>2012-08-07T07:45:15Z</time>
      </trkpt>
      <trkpt lat="45.88999" lon="6.1337">
        <ele>528.38</ele>
        <time>2012-08-07T07:45:16Z</time>
      </trkpt>
      <trkpt lat="45.88975" lon="6.1342">
        <ele>532.71</ele>
        <time>2012-08-07T07:45:19Z</time>
      </trkpt>
      <trkpt lat="45.88953" lon="6.1345">
        <ele>534.15</ele>
        <time>2012-08-07T07:45:21Z</time>
      </trkpt>
      <trkpt lat="45.8894" lon="6.13461">
        <ele>535.59</ele>
        <time>2012-08-07T07:45:22Z</time>
      </trkpt>
      <trkpt lat="45.88927" lon="6.13469">
        <ele>536.55</ele>
        <time>2012-08-07T07:45:23Z</time>
      </trkpt>
      <trkpt lat="45.88915" lon="6.13472">
        <ele>536.55</ele>
        <time>2012-08-07T07:45:24Z</time>
      </trkpt>
      <trkpt lat="45.88904" lon="6.1347">
        <ele>537.51</ele>
        <time>2012-08-07T07:45:25Z</time>
      </trkpt>
      <trkpt lat="45.88895" lon="6.13462">
        <ele>538.48</ele>
        <time>2012-08-07T07:45:26Z</time>
      </trkpt>
      <trkpt lat="45.88889" lon="6.13449">
        <ele>539.92</ele>
        <time>2012-08-07T07:45:27Z</time>
      </trkpt>
      <trkpt lat="45.88886" lon="6.13433">
        <ele>542.32</ele>
        <time>2012-08-07T07:45:28Z</time>
      </trkpt>
      <trkpt lat="45.88888" lon="6.13416">
        <ele>543.28</ele>
        <time>2012-08-07T07:45:29Z</time>
      </trkpt>
      <trkpt lat="45.88893" lon="6.13401">
        <ele>544.24</ele>
        <time>2012-08-07T07:45:30Z</time>
      </trkpt>
      <trkpt lat="45.88901" lon="6.1339">
        <ele>545.69</ele>
        <time>2012-08-07T07:45:31Z</time>
      </trkpt>
      <trkpt lat="45.88912" lon="6.1338">
        <ele>547.13</ele>
        <time>2012-08-07T07:45:32Z</time>
      </trkpt>
      <trkpt lat="45.88931" lon="6.13358">
        <ele>548.09</ele>
        <time>2012-08-07T07:45:34Z</time>
      </trkpt>
      <trkpt lat="45.88936" lon="6.13344">
        <ele>549.53</ele>
        <time>2012-08-07T07:45:35Z</time>
      </trkpt>
      <trkpt lat="45.88941" lon="6.13329">
        <ele>551.93</ele>
        <time>2012-08-07T07:45:36Z</time>
      </trkpt>
      <trkpt lat="45.88944" lon="6.13312">
        <ele>552.9</ele>
        <time>2012-08-07T07:45:37Z</time>
      </trkpt>
      <trkpt lat="45.88942" lon="6.13289">
        <ele>553.38</ele>
        <time>2012-08-07T07:45:38Z</time>
      </trkpt>
      <trkpt lat="45.88939" lon="6.13265">
        <ele>555.3</ele>
        <time>2012-08-07T07:45:39Z</time>
      </trkpt>
      <trkpt lat="45.88935" lon="6.13241">
        <ele>557.22</ele>
        <time>2012-08-07T07:45:40Z</time>
      </trkpt>
      <trkpt lat="45.88929" lon="6.13216">
        <ele>559.14</ele>
        <time>2012-08-07T07:45:41Z</time>
      </trkpt>
      <trkpt lat="45.88921" lon="6.1319">
        <ele>559.62</ele>
        <time>2012-08-07T07:45:42Z</time>
      </trkpt>
      <trkpt lat="45.88915" lon="6.13164">
        <ele>562.03</ele>
        <time>2012-08-07T07:45:43Z</time>
      </trkpt>
      <trkpt lat="45.88911" lon="6.13136">
        <ele>563.95</ele>
        <time>2012-08-07T07:45:44Z</time>
      </trkpt>
      <trkpt lat="45.8891" lon="6.13109">
        <ele>566.35</ele>
        <time>2012-08-07T07:45:45Z</time>
      </trkpt>
      <trkpt lat="45.8891" lon="6.13078">
        <ele>568.76</ele>
        <time>2012-08-07T07:45:46Z</time>
      </trkpt>
      <trkpt lat="45.88913" lon="6.13051">
        <ele>570.2</ele>
        <time>2012-08-07T07:45:47Z</time>
      </trkpt>
      <trkpt lat="45.88918" lon="6.13027">
        <ele>568.76</ele>
        <time>2012-08-07T07:45:48Z</time>
      </trkpt>
      <trkpt lat="45.88922" lon="6.13009">
        <ele>567.8</ele>
        <time>2012-08-07T07:45:49Z</time>
      </trkpt>
      <trkpt lat="45.8892" lon="6.12986">
        <ele>568.76</ele>
        <time>2012-08-07T07:45:51Z</time>
      </trkpt>
      <trkpt lat="45.88915" lon="6.1298">
        <ele>569.24</ele>
        <time>2012-08-07T07:45:52Z</time>
      </trkpt>
      <trkpt lat="45.8891" lon="6.12975">
        <ele>570.2</ele>
        <time>2012-08-07T07:45:53Z</time>
      </trkpt>
      <trkpt lat="45.88908" lon="6.12972">
        <ele>571.64</ele>
        <time>2012-08-07T07:45:54Z</time>
      </trkpt>
      <trkpt lat="45.88904" lon="6.12969">
        <ele>573.08</ele>
        <time>2012-08-07T07:45:55Z</time>
      </trkpt>
      <trkpt lat="45.88892" lon="6.12967">
        <ele>575.97</ele>
        <time>2012-08-07T07:45:57Z</time>
      </trkpt>
      <trkpt lat="45.88882" lon="6.12972">
        <ele>575.97</ele>
        <time>2012-08-07T07:45:58Z</time>
      </trkpt>
      <trkpt lat="45.88871" lon="6.1298">
        <ele>576.93</ele>
        <time>2012-08-07T07:45:59Z</time>
      </trkpt>
      <trkpt lat="45.88865" lon="6.13001">
        <ele>579.33</ele>
        <time>2012-08-07T07:46:00Z</time>
      </trkpt>
      <trkpt lat="45.88856" lon="6.13021">
        <ele>580.29</ele>
        <time>2012-08-07T07:46:01Z</time>
      </trkpt>
      <trkpt lat="45.88849" lon="6.1304">
        <ele>581.25</ele>
        <time>2012-08-07T07:46:02Z</time>
      </trkpt>
      <trkpt lat="45.88837" lon="6.13073">
        <ele>580.77</ele>
        <time>2012-08-07T07:46:03Z</time>
      </trkpt>
      <trkpt lat="45.88827" lon="6.1312">
        <ele>580.77</ele>
        <time>2012-08-07T07:46:05Z</time>
      </trkpt>
      <trkpt lat="45.88824" lon="6.13213">
        <ele>581.73</ele>
        <time>2012-08-07T07:46:06Z</time>
      </trkpt>
      <trkpt lat="45.88793" lon="6.13333">
        <ele>584.62</ele>
        <time>2012-08-07T07:46:12Z</time>
      </trkpt>
      <trkpt lat="45.88774" lon="6.13369">
        <ele>586.54</ele>
        <time>2012-08-07T07:46:14Z</time>
      </trkpt>
      <trkpt lat="45.88756" lon="6.13382">
        <ele>586.54</ele>
        <time>2012-08-07T07:46:15Z</time>
      </trkpt>
      <trkpt lat="45.88742" lon="6.13394">
        <ele>586.06</ele>
        <time>2012-08-07T07:46:16Z</time>
      </trkpt>
      <trkpt lat="45.88732" lon="6.13401">
        <ele>586.06</ele>
        <time>2012-08-07T07:46:17Z</time>
      </trkpt>
      <trkpt lat="45.88722" lon="6.13403">
        <ele>585.58</ele>
        <time>2012-08-07T07:46:18Z</time>
      </trkpt>
      <trkpt lat="45.88714" lon="6.134">
        <ele>585.58</ele>
        <time>2012-08-07T07:46:19Z</time>
      </trkpt>
      <trkpt lat="45.88708" lon="6.13393">
        <ele>587.02</ele>
        <time>2012-08-07T07:46:20Z</time>
      </trkpt>
      <trkpt lat="45.88703" lon="6.13383">
        <ele>587.98</ele>
        <time>2012-08-07T07:46:21Z</time>
      </trkpt>
      <trkpt lat="45.88699" lon="6.13374">
        <ele>589.43</ele>
        <time>2012-08-07T07:46:22Z</time>
      </trkpt>
      <trkpt lat="45.88698" lon="6.13363">
        <ele>590.87</ele>
        <time>2012-08-07T07:46:23Z</time>
      </trkpt>
      <trkpt lat="45.88698" lon="6.13351">
        <ele>593.27</ele>
        <time>2012-08-07T07:46:24Z</time>
      </trkpt>
      <trkpt lat="45.887" lon="6.1334">
        <ele>593.75</ele>
        <time>2012-08-07T07:46:25Z</time>
      </trkpt>
      <trkpt lat="45.88705" lon="6.13327">
        <ele>594.71</ele>
        <time>2012-08-07T07:46:26Z</time>
      </trkpt>
      <trkpt lat="45.88711" lon="6.13308">
        <ele>595.67</ele>
        <time>2012-08-07T07:46:27Z</time>
      </trkpt>
      <trkpt lat="45.88719" lon="6.13285">
        <ele>596.64</ele>
        <time>2012-08-07T07:46:28Z</time>
      </trkpt>
      <trkpt lat="45.88728" lon="6.13259">
        <ele>598.56</ele>
        <time>2012-08-07T07:46:29Z</time>
      </trkpt>
      <trkpt lat="45.88736" lon="6.13233">
        <ele>600</ele>
        <time>2012-08-07T07:46:30Z</time>
      </trkpt>
      <trkpt lat="45.88754" lon="6.13162">
        <ele>600.96</ele>
        <time>2012-08-07T07:46:33Z</time>
      </trkpt>
      <trkpt lat="45.88757" lon="6.13142">
        <ele>601.92</ele>
        <time>2012-08-07T07:46:34Z</time>
      </trkpt>
      <trkpt lat="45.88758" lon="6.13121">
        <ele>604.33</ele>
        <time>2012-08-07T07:46:35Z</time>
      </trkpt>
      <trkpt lat="45.88758" lon="6.13099">
        <ele>606.25</ele>
        <time>2012-08-07T07:46:36Z</time>
      </trkpt>
      <trkpt lat="45.88762" lon="6.13077">
        <ele>608.17</ele>
        <time>2012-08-07T07:46:37Z</time>
      </trkpt>
      <trkpt lat="45.88762" lon="6.13056">
        <ele>610.57</ele>
        <time>2012-08-07T07:46:38Z</time>
      </trkpt>
      <trkpt lat="45.88757" lon="6.13031">
        <ele>612.5</ele>
        <time>2012-08-07T07:46:39Z</time>
      </trkpt>
      <trkpt lat="45.88753" lon="6.13011">
        <ele>612.98</ele>
        <time>2012-08-07T07:46:40Z</time>
      </trkpt>
      <trkpt lat="45.88747" lon="6.12993">
        <ele>613.46</ele>
        <time>2012-08-07T07:46:41Z</time>
      </trkpt>
      <trkpt lat="45.88741" lon="6.12976">
        <ele>614.9</ele>
        <time>2012-08-07T07:46:42Z</time>
      </trkpt>
      <trkpt lat="45.88737" lon="6.12958">
        <ele>616.34</ele>
        <time>2012-08-07T07:46:43Z</time>
      </trkpt>
      <trkpt lat="45.88737" lon="6.12941">
        <ele>617.78</ele>
        <time>2012-08-07T07:46:44Z</time>
      </trkpt>
      <trkpt lat="45.88743" lon="6.12924">
        <ele>619.23</ele>
        <time>2012-08-07T07:46:45Z</time>
      </trkpt>
      <trkpt lat="45.88748" lon="6.12909">
        <ele>620.19</ele>
        <time>2012-08-07T07:46:46Z</time>
      </trkpt>
      <trkpt lat="45.88751" lon="6.12896">
        <ele>620.19</ele>
        <time>2012-08-07T07:46:47Z</time>
      </trkpt>
      <trkpt lat="45.88754" lon="6.12882">
        <ele>620.67</ele>
        <time>2012-08-07T07:46:48Z</time>
      </trkpt>
      <trkpt lat="45.88752" lon="6.12873">
        <ele>621.63</ele>
        <time>2012-08-07T07:46:49Z</time>
      </trkpt>
      <trkpt lat="45.88746" lon="6.12865">
        <ele>622.11</ele>
        <time>2012-08-07T07:46:50Z</time>
      </trkpt>
      <trkpt lat="45.88739" lon="6.12861">
        <ele>622.59</ele>
        <time>2012-08-07T07:46:51Z</time>
      </trkpt>
      <trkpt lat="45.88731" lon="6.12859">
        <ele>622.59</ele>
        <time>2012-08-07T07:46:52Z</time>
      </trkpt>
      <trkpt lat="45.88713" lon="6.12861">
        <ele>625.96</ele>
        <time>2012-08-07T07:46:54Z</time>
      </trkpt>
      <trkpt lat="45.88704" lon="6.12872">
        <ele>627.88</ele>
        <time>2012-08-07T07:46:55Z</time>
      </trkpt>
      <trkpt lat="45.88701" lon="6.12895">
        <ele>629.32</ele>
        <time>2012-08-07T07:46:56Z</time>
      </trkpt>
      <trkpt lat="45.88699" lon="6.12921">
        <ele>631.24</ele>
        <time>2012-08-07T07:46:57Z</time>
      </trkpt>
      <trkpt lat="45.88695" lon="6.12942">
        <ele>631.72</ele>
        <time>2012-08-07T07:46:58Z</time>
      </trkpt>
      <trkpt lat="45.88691" lon="6.12981">
        <ele>632.2</ele>
        <time>2012-08-07T07:47:00Z</time>
      </trkpt>
      <trkpt lat="45.88685" lon="6.12998">
        <ele>632.68</ele>
        <time>2012-08-07T07:47:01Z</time>
      </trkpt>
      <trkpt lat="45.88674" lon="6.13008">
        <ele>634.61</ele>
        <time>2012-08-07T07:47:02Z</time>
      </trkpt>
      <trkpt lat="45.88654" lon="6.13035">
        <ele>638.45</ele>
        <time>2012-08-07T07:47:04Z</time>
      </trkpt>
      <trkpt lat="45.88626" lon="6.13058">
        <ele>641.82</ele>
        <time>2012-08-07T07:47:06Z</time>
      </trkpt>
      <trkpt lat="45.88594" lon="6.1308">
        <ele>644.7</ele>
        <time>2012-08-07T07:47:08Z</time>
      </trkpt>
      <trkpt lat="45.88577" lon="6.13088">
        <ele>645.66</ele>
        <time>2012-08-07T07:47:09Z</time>
      </trkpt>
      <trkpt lat="45.88559" lon="6.13093">
        <ele>647.59</ele>
        <time>2012-08-07T07:47:10Z</time>
      </trkpt>
      <trkpt lat="45.88511" lon="6.13101">
        <ele>650.95</ele>
        <time>2012-08-07T07:47:13Z</time>
      </trkpt>
      <trkpt lat="45.885" lon="6.13099">
        <ele>651.43</ele>
        <time>2012-08-07T07:47:14Z</time>
      </trkpt>
      <trkpt lat="45.88489" lon="6.13093">
        <ele>653.35</ele>
        <time>2012-08-07T07:47:15Z</time>
      </trkpt>
      <trkpt lat="45.88478" lon="6.13084">
        <ele>654.31</ele>
        <time>2012-08-07T07:47:16Z</time>
      </trkpt>
      <trkpt lat="45.88468" lon="6.13075">
        <ele>655.28</ele>
        <time>2012-08-07T07:47:17Z</time>
      </trkpt>
      <trkpt lat="45.88458" lon="6.13071">
        <ele>655.76</ele>
        <time>2012-08-07T07:47:18Z</time>
      </trkpt>
      <trkpt lat="45.88446" lon="6.13071">
        <ele>656.72</ele>
        <time>2012-08-07T07:47:19Z</time>
      </trkpt>
      <trkpt lat="45.88433" lon="6.13077">
        <ele>658.16</ele>
        <time>2012-08-07T07:47:20Z</time>
      </trkpt>
      <trkpt lat="45.88419" lon="6.13086">
        <ele>660.56</ele>
        <time>2012-08-07T07:47:21Z</time>
      </trkpt>
      <trkpt lat="45.88404" lon="6.13096">
        <ele>662.01</ele>
        <time>2012-08-07T07:47:22Z</time>
      </trkpt>
      <trkpt lat="45.88373" lon="6.1311">
        <ele>666.81</ele>
        <time>2012-08-07T07:47:24Z</time>
      </trkpt>
      <trkpt lat="45.88354" lon="6.13114">
        <ele>669.22</ele>
        <time>2012-08-07T07:47:25Z</time>
      </trkpt>
      <trkpt lat="45.88295" lon="6.13118">
        <ele>674.02</ele>
        <time>2012-08-07T07:47:28Z</time>
      </trkpt>
      <trkpt lat="45.88276" lon="6.13115">
        <ele>675.94</ele>
        <time>2012-08-07T07:47:29Z</time>
      </trkpt>
      <trkpt lat="45.88259" lon="6.13109">
        <ele>675.46</ele>
        <time>2012-08-07T07:47:30Z</time>
      </trkpt>
      <trkpt lat="45.88245" lon="6.13104">
        <ele>675.46</ele>
        <time>2012-08-07T07:47:31Z</time>
      </trkpt>
      <trkpt lat="45.88232" lon="6.13105">
        <ele>676.42</ele>
        <time>2012-08-07T07:47:32Z</time>
      </trkpt>
      <trkpt lat="45.88217" lon="6.13111">
        <ele>678.35</ele>
        <time>2012-08-07T07:47:33Z</time>
      </trkpt>
      <trkpt lat="45.88202" lon="6.13116">
        <ele>679.79</ele>
        <time>2012-08-07T07:47:34Z</time>
      </trkpt>
      <trkpt lat="45.88186" lon="6.13118">
        <ele>682.67</ele>
        <time>2012-08-07T07:47:35Z</time>
      </trkpt>
      <trkpt lat="45.88168" lon="6.13118">
        <ele>684.12</ele>
        <time>2012-08-07T07:47:36Z</time>
      </trkpt>
      <trkpt lat="45.88151" lon="6.13119">
        <ele>685.08</ele>
        <time>2012-08-07T07:47:37Z</time>
      </trkpt>
      <trkpt lat="45.88134" lon="6.13117">
        <ele>687.48</ele>
        <time>2012-08-07T07:47:38Z</time>
      </trkpt>
      <trkpt lat="45.88117" lon="6.13113">
        <ele>687.96</ele>
        <time>2012-08-07T07:47:39Z</time>
      </trkpt>
      <trkpt lat="45.88085" lon="6.13107">
        <ele>689.88</ele>
        <time>2012-08-07T07:47:41Z</time>
      </trkpt>
      <trkpt lat="45.8807" lon="6.13107">
        <ele>689.88</ele>
        <time>2012-08-07T07:47:42Z</time>
      </trkpt>
      <trkpt lat="45.88056" lon="6.13111">
        <ele>690.84</ele>
        <time>2012-08-07T07:47:43Z</time>
      </trkpt>
      <trkpt lat="45.88045" lon="6.13119">
        <ele>691.81</ele>
        <time>2012-08-07T07:47:44Z</time>
      </trkpt>
      <trkpt lat="45.88036" lon="6.13129">
        <ele>691.81</ele>
        <time>2012-08-07T07:47:45Z</time>
      </trkpt>
      <trkpt lat="45.88027" lon="6.13136">
        <ele>692.29</ele>
        <time>2012-08-07T07:47:46Z</time>
      </trkpt>
      <trkpt lat="45.88019" lon="6.13138">
        <ele>692.29</ele>
        <time>2012-08-07T07:47:47Z</time>
      </trkpt>
      <trkpt lat="45.88002" lon="6.13133">
        <ele>693.25</ele>
        <time>2012-08-07T07:47:49Z</time>
      </trkpt>
      <trkpt lat="45.87988" lon="6.13123">
        <ele>694.69</ele>
        <time>2012-08-07T07:47:51Z</time>
      </trkpt>
      <trkpt lat="45.87982" lon="6.1311">
        <ele>697.09</ele>
        <time>2012-08-07T07:47:53Z</time>
      </trkpt>
      <trkpt lat="45.87981" lon="6.13103">
        <ele>697.57</ele>
        <time>2012-08-07T07:47:54Z</time>
      </trkpt>
      <trkpt lat="45.87981" lon="6.13082">
        <ele>700.46</ele>
        <time>2012-08-07T07:47:56Z</time>
      </trkpt>
      <trkpt lat="45.87983" lon="6.13072">
        <ele>700.46</ele>
        <time>2012-08-07T07:47:57Z</time>
      </trkpt>
      <trkpt lat="45.87988" lon="6.13058">
        <ele>700.46</ele>
        <time>2012-08-07T07:47:58Z</time>
      </trkpt>
      <trkpt lat="45.87993" lon="6.13043">
        <ele>700.94</ele>
        <time>2012-08-07T07:47:59Z</time>
      </trkpt>
      <trkpt lat="45.88115" lon="6.13008">
        <ele>702.86</ele>
        <time>2012-08-07T07:48:00Z</time>
      </trkpt>
      <trkpt lat="45.88133" lon="6.12982">
        <ele>707.67</ele>
        <time>2012-08-07T07:48:02Z</time>
      </trkpt>
      <trkpt lat="45.88136" lon="6.12957">
        <ele>708.15</ele>
        <time>2012-08-07T07:48:03Z</time>
      </trkpt>
      <trkpt lat="45.88132" lon="6.12931">
        <ele>709.59</ele>
        <time>2012-08-07T07:48:04Z</time>
      </trkpt>
      <trkpt lat="45.88128" lon="6.12909">
        <ele>709.59</ele>
        <time>2012-08-07T07:48:05Z</time>
      </trkpt>
      <trkpt lat="45.88125" lon="6.1289">
        <ele>709.59</ele>
        <time>2012-08-07T07:48:06Z</time>
      </trkpt>
      <trkpt lat="45.88123" lon="6.12872">
        <ele>710.07</ele>
        <time>2012-08-07T07:48:07Z</time>
      </trkpt>
      <trkpt lat="45.8812" lon="6.12856">
        <ele>711.03</ele>
        <time>2012-08-07T07:48:08Z</time>
      </trkpt>
      <trkpt lat="45.88116" lon="6.12844">
        <ele>711.99</ele>
        <time>2012-08-07T07:48:09Z</time>
      </trkpt>
      <trkpt lat="45.88108" lon="6.12832">
        <ele>712.47</ele>
        <time>2012-08-07T07:48:10Z</time>
      </trkpt>
      <trkpt lat="45.88102" lon="6.12825">
        <ele>713.92</ele>
        <time>2012-08-07T07:48:11Z</time>
      </trkpt>
      <trkpt lat="45.88097" lon="6.12821">
        <ele>715.36</ele>
        <time>2012-08-07T07:48:12Z</time>
      </trkpt>
      <trkpt lat="45.8809" lon="6.12817">
        <ele>717.76</ele>
        <time>2012-08-07T07:48:13Z</time>
      </trkpt>
      <trkpt lat="45.88083" lon="6.12812">
        <ele>718.24</ele>
        <time>2012-08-07T07:48:14Z</time>
      </trkpt>
      <trkpt lat="45.88072" lon="6.12808">
        <ele>720.16</ele>
        <time>2012-08-07T07:48:15Z</time>
      </trkpt>
      <trkpt lat="45.88062" lon="6.12806">
        <ele>721.61</ele>
        <time>2012-08-07T07:48:16Z</time>
      </trkpt>
      <trkpt lat="45.88052" lon="6.12805">
        <ele>724.01</ele>
        <time>2012-08-07T07:48:17Z</time>
      </trkpt>
      <trkpt lat="45.88039" lon="6.12808">
        <ele>725.93</ele>
        <time>2012-08-07T07:48:18Z</time>
      </trkpt>
      <trkpt lat="45.88027" lon="6.12812">
        <ele>727.86</ele>
        <time>2012-08-07T07:48:19Z</time>
      </trkpt>
      <trkpt lat="45.87976" lon="6.12824">
        <ele>728.82</ele>
        <time>2012-08-07T07:48:22Z</time>
      </trkpt>
      <trkpt lat="45.87963" lon="6.1282">
        <ele>728.34</ele>
        <time>2012-08-07T07:48:23Z</time>
      </trkpt>
      <trkpt lat="45.87951" lon="6.1281">
        <ele>730.26</ele>
        <time>2012-08-07T07:48:24Z</time>
      </trkpt>
      <trkpt lat="45.87937" lon="6.12786">
        <ele>732.18</ele>
        <time>2012-08-07T07:48:26Z</time>
      </trkpt>
      <trkpt lat="45.87929" lon="6.12776">
        <ele>734.1</ele>
        <time>2012-08-07T07:48:27Z</time>
      </trkpt>
      <trkpt lat="45.8792" lon="6.12766">
        <ele>736.03</ele>
        <time>2012-08-07T07:48:28Z</time>
      </trkpt>
      <trkpt lat="45.87908" lon="6.12758">
        <ele>737.47</ele>
        <time>2012-08-07T07:48:29Z</time>
      </trkpt>
      <trkpt lat="45.87889" lon="6.12754">
        <ele>739.39</ele>
        <time>2012-08-07T07:48:30Z</time>
      </trkpt>
      <trkpt lat="45.87871" lon="6.12748">
        <ele>741.79</ele>
        <time>2012-08-07T07:48:31Z</time>
      </trkpt>
      <trkpt lat="45.87815" lon="6.12731">
        <ele>747.56</ele>
        <time>2012-08-07T07:48:34Z</time>
      </trkpt>
      <trkpt lat="45.87775" lon="6.1273">
        <ele>749</ele>
        <time>2012-08-07T07:48:36Z</time>
      </trkpt>
      <trkpt lat="45.87756" lon="6.1273">
        <ele>749.49</ele>
        <time>2012-08-07T07:48:37Z</time>
      </trkpt>
      <trkpt lat="45.87738" lon="6.12726">
        <ele>751.41</ele>
        <time>2012-08-07T07:48:38Z</time>
      </trkpt>
      <trkpt lat="45.87719" lon="6.12721">
        <ele>753.33</ele>
        <time>2012-08-07T07:48:39Z</time>
      </trkpt>
      <trkpt lat="45.87665" lon="6.12693">
        <ele>756.21</ele>
        <time>2012-08-07T07:48:42Z</time>
      </trkpt>
      <trkpt lat="45.87649" lon="6.12685">
        <ele>756.21</ele>
        <time>2012-08-07T07:48:43Z</time>
      </trkpt>
      <trkpt lat="45.87636" lon="6.12677">
        <ele>756.69</ele>
        <time>2012-08-07T07:48:44Z</time>
      </trkpt>
      <trkpt lat="45.87621" lon="6.12673">
        <ele>758.14</ele>
        <time>2012-08-07T07:48:45Z</time>
      </trkpt>
      <trkpt lat="45.87606" lon="6.12668">
        <ele>759.1</ele>
        <time>2012-08-07T07:48:46Z</time>
      </trkpt>
      <trkpt lat="45.87591" lon="6.12666">
        <ele>760.54</ele>
        <time>2012-08-07T07:48:47Z</time>
      </trkpt>
      <trkpt lat="45.87559" lon="6.12663">
        <ele>763.42</ele>
        <time>2012-08-07T07:48:49Z</time>
      </trkpt>
      <trkpt lat="45.87541" lon="6.12664">
        <ele>763.42</ele>
        <time>2012-08-07T07:48:50Z</time>
      </trkpt>
      <trkpt lat="45.87506" lon="6.12662">
        <ele>764.87</ele>
        <time>2012-08-07T07:48:52Z</time>
      </trkpt>
      <trkpt lat="45.8749" lon="6.12657">
        <ele>764.87</ele>
        <time>2012-08-07T07:48:53Z</time>
      </trkpt>
      <trkpt lat="45.87474" lon="6.12649">
        <ele>766.31</ele>
        <time>2012-08-07T07:48:54Z</time>
      </trkpt>
      <trkpt lat="45.8746" lon="6.12637">
        <ele>767.75</ele>
        <time>2012-08-07T07:48:55Z</time>
      </trkpt>
      <trkpt lat="45.87447" lon="6.12622">
        <ele>769.19</ele>
        <time>2012-08-07T07:48:56Z</time>
      </trkpt>
      <trkpt lat="45.87433" lon="6.12602">
        <ele>772.08</ele>
        <time>2012-08-07T07:48:57Z</time>
      </trkpt>
      <trkpt lat="45.87421" lon="6.12581">
        <ele>774</ele>
        <time>2012-08-07T07:48:58Z</time>
      </trkpt>
      <trkpt lat="45.87396" lon="6.12532">
        <ele>778.81</ele>
        <time>2012-08-07T07:49:00Z</time>
      </trkpt>
      <trkpt lat="45.87376" lon="6.12492">
        <ele>781.69</ele>
        <time>2012-08-07T07:49:01Z</time>
      </trkpt>
      <trkpt lat="45.87331" lon="6.12392">
        <ele>781.21</ele>
        <time>2012-08-07T07:49:06Z</time>
      </trkpt>
      <trkpt lat="45.87319" lon="6.12378">
        <ele>782.65</ele>
        <time>2012-08-07T07:49:07Z</time>
      </trkpt>
      <trkpt lat="45.87303" lon="6.12364">
        <ele>783.61</ele>
        <time>2012-08-07T07:49:08Z</time>
      </trkpt>
      <trkpt lat="45.87287" lon="6.12353">
        <ele>784.57</ele>
        <time>2012-08-07T07:49:09Z</time>
      </trkpt>
      <trkpt lat="45.87269" lon="6.12343">
        <ele>786.02</ele>
        <time>2012-08-07T07:49:10Z</time>
      </trkpt>
      <trkpt lat="45.8725" lon="6.12335">
        <ele>787.46</ele>
        <time>2012-08-07T07:49:11Z</time>
      </trkpt>
      <trkpt lat="45.8723" lon="6.1233">
        <ele>789.86</ele>
        <time>2012-08-07T07:49:12Z</time>
      </trkpt>
      <trkpt lat="45.87214" lon="6.12328">
        <ele>788.42</ele>
        <time>2012-08-07T07:49:13Z</time>
      </trkpt>
      <trkpt lat="45.87198" lon="6.12325">
        <ele>787.94</ele>
        <time>2012-08-07T07:49:14Z</time>
      </trkpt>
      <trkpt lat="45.87182" lon="6.1232">
        <ele>788.42</ele>
        <time>2012-08-07T07:49:15Z</time>
      </trkpt>
      <trkpt lat="45.87167" lon="6.12312">
        <ele>788.9</ele>
        <time>2012-08-07T07:49:16Z</time>
      </trkpt>
      <trkpt lat="45.87152" lon="6.12301">
        <ele>788.9</ele>
        <time>2012-08-07T07:49:17Z</time>
      </trkpt>
      <trkpt lat="45.87137" lon="6.12286">
        <ele>789.38</ele>
        <time>2012-08-07T07:49:18Z</time>
      </trkpt>
      <trkpt lat="45.87123" lon="6.12269">
        <ele>790.34</ele>
        <time>2012-08-07T07:49:19Z</time>
      </trkpt>
      <trkpt lat="45.87097" lon="6.12241">
        <ele>790.34</ele>
        <time>2012-08-07T07:49:21Z</time>
      </trkpt>
      <trkpt lat="45.87083" lon="6.12231">
        <ele>791.3</ele>
        <time>2012-08-07T07:49:22Z</time>
      </trkpt>
      <trkpt lat="45.87067" lon="6.12225">
        <ele>793.22</ele>
        <time>2012-08-07T07:49:23Z</time>
      </trkpt>
      <trkpt lat="45.87018" lon="6.12215">
        <ele>794.19</ele>
        <time>2012-08-07T07:49:26Z</time>
      </trkpt>
      <trkpt lat="45.87" lon="6.12207">
        <ele>795.15</ele>
        <time>2012-08-07T07:49:27Z</time>
      </trkpt>
      <trkpt lat="45.86982" lon="6.12197">
        <ele>796.11</ele>
        <time>2012-08-07T07:49:28Z</time>
      </trkpt>
      <trkpt lat="45.86876" lon="6.1215">
        <ele>794.67</ele>
        <time>2012-08-07T07:49:34Z</time>
      </trkpt>
      <trkpt lat="45.86769" lon="6.121">
        <ele>794.67</ele>
        <time>2012-08-07T07:49:42Z</time>
      </trkpt>
      <trkpt lat="45.86684" lon="6.121">
        <ele>796.11</ele>
        <time>2012-08-07T07:49:48Z</time>
      </trkpt>
      <trkpt lat="45.8657" lon="6.12111">
        <ele>798.99</ele>
        <time>2012-08-07T07:49:56Z</time>
      </trkpt>
      <trkpt lat="45.86544" lon="6.12115">
        <ele>798.03</ele>
        <time>2012-08-07T07:49:58Z</time>
      </trkpt>
      <trkpt lat="45.86532" lon="6.12114">
        <ele>798.03</ele>
        <time>2012-08-07T07:49:59Z</time>
      </trkpt>
      <trkpt lat="45.86519" lon="6.1211">
        <ele>798.51</ele>
        <time>2012-08-07T07:50:00Z</time>
      </trkpt>
      <trkpt lat="45.86506" lon="6.12103">
        <ele>798.51</ele>
        <time>2012-08-07T07:50:01Z</time>
      </trkpt>
      <trkpt lat="45.86494" lon="6.12094">
        <ele>798.99</ele>
        <time>2012-08-07T07:50:02Z</time>
      </trkpt>
      <trkpt lat="45.8648" lon="6.12088">
        <ele>799.47</ele>
        <time>2012-08-07T07:50:03Z</time>
      </trkpt>
      <trkpt lat="45.86467" lon="6.12084">
        <ele>800.44</ele>
        <time>2012-08-07T07:50:04Z</time>
      </trkpt>
      <trkpt lat="45.86454" lon="6.12085">
        <ele>801.4</ele>
        <time>2012-08-07T07:50:05Z</time>
      </trkpt>
      <trkpt lat="45.86441" lon="6.1209">
        <ele>801.88</ele>
        <time>2012-08-07T07:50:06Z</time>
      </trkpt>
      <trkpt lat="45.86428" lon="6.12099">
        <ele>803.32</ele>
        <time>2012-08-07T07:50:07Z</time>
      </trkpt>
      <trkpt lat="45.86416" lon="6.12111">
        <ele>805.24</ele>
        <time>2012-08-07T07:50:08Z</time>
      </trkpt>
      <trkpt lat="45.86405" lon="6.12126">
        <ele>806.2</ele>
        <time>2012-08-07T07:50:09Z</time>
      </trkpt>
      <trkpt lat="45.86394" lon="6.12142">
        <ele>807.64</ele>
        <time>2012-08-07T07:50:10Z</time>
      </trkpt>
      <trkpt lat="45.86362" lon="6.12196">
        <ele>811.97</ele>
        <time>2012-08-07T07:50:13Z</time>
      </trkpt>
      <trkpt lat="45.86321" lon="6.12265">
        <ele>814.85</ele>
        <time>2012-08-07T07:50:17Z</time>
      </trkpt>
      <trkpt lat="45.8631" lon="6.12276">
        <ele>815.34</ele>
        <time>2012-08-07T07:50:18Z</time>
      </trkpt>
      <trkpt lat="45.86299" lon="6.12283">
        <ele>816.78</ele>
        <time>2012-08-07T07:50:19Z</time>
      </trkpt>
      <trkpt lat="45.86286" lon="6.12286">
        <ele>817.26</ele>
        <time>2012-08-07T07:50:20Z</time>
      </trkpt>
      <trkpt lat="45.86271" lon="6.12285">
        <ele>819.18</ele>
        <time>2012-08-07T07:50:21Z</time>
      </trkpt>
      <trkpt lat="45.86256" lon="6.12282">
        <ele>819.18</ele>
        <time>2012-08-07T07:50:22Z</time>
      </trkpt>
      <trkpt lat="45.86242" lon="6.12277">
        <ele>820.62</ele>
        <time>2012-08-07T07:50:23Z</time>
      </trkpt>
      <trkpt lat="45.86229" lon="6.1227">
        <ele>821.1</ele>
        <time>2012-08-07T07:50:24Z</time>
      </trkpt>
      <trkpt lat="45.86186" lon="6.1225">
        <ele>821.58</ele>
        <time>2012-08-07T07:50:27Z</time>
      </trkpt>
      <trkpt lat="45.86171" lon="6.12247">
        <ele>821.58</ele>
        <time>2012-08-07T07:50:28Z</time>
      </trkpt>
      <trkpt lat="45.86155" lon="6.12247">
        <ele>822.06</ele>
        <time>2012-08-07T07:50:29Z</time>
      </trkpt>
      <trkpt lat="45.86139" lon="6.12249">
        <ele>822.55</ele>
        <time>2012-08-07T07:50:30Z</time>
      </trkpt>
      <trkpt lat="45.86122" lon="6.12254">
        <ele>823.03</ele>
        <time>2012-08-07T07:50:31Z</time>
      </trkpt>
      <trkpt lat="45.8605" lon="6.12265">
        <ele>826.87</ele>
        <time>2012-08-07T07:50:35Z</time>
      </trkpt>
      <trkpt lat="45.85968" lon="6.12268">
        <ele>829.76</ele>
        <time>2012-08-07T07:50:40Z</time>
      </trkpt>
      <trkpt lat="45.85953" lon="6.12262">
        <ele>831.2</ele>
        <time>2012-08-07T07:50:41Z</time>
      </trkpt>
      <trkpt lat="45.85908" lon="6.12236">
        <ele>832.64</ele>
        <time>2012-08-07T07:50:44Z</time>
      </trkpt>
      <trkpt lat="45.85893" lon="6.1222">
        <ele>832.16</ele>
        <time>2012-08-07T07:50:45Z</time>
      </trkpt>
      <trkpt lat="45.8586" lon="6.12186">
        <ele>833.6</ele>
        <time>2012-08-07T07:50:47Z</time>
      </trkpt>
      <trkpt lat="45.85829" lon="6.12159">
        <ele>833.12</ele>
        <time>2012-08-07T07:50:49Z</time>
      </trkpt>
      <trkpt lat="45.85816" lon="6.12144">
        <ele>833.12</ele>
        <time>2012-08-07T07:50:50Z</time>
      </trkpt>
      <trkpt lat="45.85805" lon="6.12125">
        <ele>833.6</ele>
        <time>2012-08-07T07:50:51Z</time>
      </trkpt>
      <trkpt lat="45.85795" lon="6.12103">
        <ele>833.6</ele>
        <time>2012-08-07T07:50:52Z</time>
      </trkpt>
      <trkpt lat="45.85785" lon="6.12081">
        <ele>833.6</ele>
        <time>2012-08-07T07:50:53Z</time>
      </trkpt>
      <trkpt lat="45.85773" lon="6.12061">
        <ele>833.12</ele>
        <time>2012-08-07T07:50:54Z</time>
      </trkpt>
      <trkpt lat="45.85764" lon="6.12044">
        <ele>832.16</ele>
        <time>2012-08-07T07:50:55Z</time>
      </trkpt>
      <trkpt lat="45.85756" lon="6.12026">
        <ele>831.68</ele>
        <time>2012-08-07T07:50:56Z</time>
      </trkpt>
      <trkpt lat="45.8575" lon="6.12007">
        <ele>831.68</ele>
        <time>2012-08-07T07:50:57Z</time>
      </trkpt>
      <trkpt lat="45.85748" lon="6.11985">
        <ele>833.6</ele>
        <time>2012-08-07T07:50:58Z</time>
      </trkpt>
      <trkpt lat="45.85749" lon="6.11963">
        <ele>834.56</ele>
        <time>2012-08-07T07:50:59Z</time>
      </trkpt>
      <trkpt lat="45.85752" lon="6.11893">
        <ele>836.96</ele>
        <time>2012-08-07T07:51:02Z</time>
      </trkpt>
      <trkpt lat="45.85751" lon="6.1187">
        <ele>837.93</ele>
        <time>2012-08-07T07:51:03Z</time>
      </trkpt>
      <trkpt lat="45.85744" lon="6.11826">
        <ele>839.37</ele>
        <time>2012-08-07T07:51:05Z</time>
      </trkpt>
      <trkpt lat="45.85745" lon="6.11803">
        <ele>838.89</ele>
        <time>2012-08-07T07:51:06Z</time>
      </trkpt>
      <trkpt lat="45.85747" lon="6.11763">
        <ele>836.96</ele>
        <time>2012-08-07T07:51:08Z</time>
      </trkpt>
      <trkpt lat="45.85744" lon="6.11747">
        <ele>837.45</ele>
        <time>2012-08-07T07:51:09Z</time>
      </trkpt>
      <trkpt lat="45.8574" lon="6.11733">
        <ele>837.93</ele>
        <time>2012-08-07T07:51:10Z</time>
      </trkpt>
      <trkpt lat="45.85731" lon="6.11721">
        <ele>838.41</ele>
        <time>2012-08-07T07:51:11Z</time>
      </trkpt>
      <trkpt lat="45.85719" lon="6.11709">
        <ele>839.85</ele>
        <time>2012-08-07T07:51:12Z</time>
      </trkpt>
      <trkpt lat="45.85706" lon="6.117">
        <ele>840.81</ele>
        <time>2012-08-07T07:51:13Z</time>
      </trkpt>
      <trkpt lat="45.8569" lon="6.11698">
        <ele>841.29</ele>
        <time>2012-08-07T07:51:14Z</time>
      </trkpt>
      <trkpt lat="45.85633" lon="6.11697">
        <ele>844.18</ele>
        <time>2012-08-07T07:51:17Z</time>
      </trkpt>
      <trkpt lat="45.85616" lon="6.11695">
        <ele>844.18</ele>
        <time>2012-08-07T07:51:18Z</time>
      </trkpt>
      <trkpt lat="45.85601" lon="6.1169">
        <ele>844.66</ele>
        <time>2012-08-07T07:51:19Z</time>
      </trkpt>
      <trkpt lat="45.85587" lon="6.11682">
        <ele>845.62</ele>
        <time>2012-08-07T07:51:20Z</time>
      </trkpt>
      <trkpt lat="45.85575" lon="6.11672">
        <ele>847.06</ele>
        <time>2012-08-07T07:51:21Z</time>
      </trkpt>
      <trkpt lat="45.85564" lon="6.11657">
        <ele>848.98</ele>
        <time>2012-08-07T07:51:22Z</time>
      </trkpt>
      <trkpt lat="45.85556" lon="6.11638">
        <ele>850.42</ele>
        <time>2012-08-07T07:51:23Z</time>
      </trkpt>
      <trkpt lat="45.85551" lon="6.11619">
        <ele>852.35</ele>
        <time>2012-08-07T07:51:24Z</time>
      </trkpt>
      <trkpt lat="45.85548" lon="6.116">
        <ele>853.79</ele>
        <time>2012-08-07T07:51:25Z</time>
      </trkpt>
      <trkpt lat="45.85541" lon="6.11564">
        <ele>855.71</ele>
        <time>2012-08-07T07:51:27Z</time>
      </trkpt>
      <trkpt lat="45.85533" lon="6.1155">
        <ele>856.67</ele>
        <time>2012-08-07T07:51:28Z</time>
      </trkpt>
      <trkpt lat="45.85517" lon="6.11527">
        <ele>859.08</ele>
        <time>2012-08-07T07:51:30Z</time>
      </trkpt>
      <trkpt lat="45.85507" lon="6.11519">
        <ele>859.56</ele>
        <time>2012-08-07T07:51:31Z</time>
      </trkpt>
      <trkpt lat="45.85497" lon="6.11512">
        <ele>861</ele>
        <time>2012-08-07T07:51:32Z</time>
      </trkpt>
      <trkpt lat="45.85486" lon="6.1151">
        <ele>862.44</ele>
        <time>2012-08-07T07:51:33Z</time>
      </trkpt>
      <trkpt lat="45.85475" lon="6.11512">
        <ele>862.92</ele>
        <time>2012-08-07T07:51:34Z</time>
      </trkpt>
      <trkpt lat="45.85464" lon="6.11515">
        <ele>863.88</ele>
        <time>2012-08-07T07:51:35Z</time>
      </trkpt>
      <trkpt lat="45.85451" lon="6.11517">
        <ele>864.84</ele>
        <time>2012-08-07T07:51:36Z</time>
      </trkpt>
      <trkpt lat="45.85438" lon="6.11518">
        <ele>864.84</ele>
        <time>2012-08-07T07:51:37Z</time>
      </trkpt>
      <trkpt lat="45.85398" lon="6.11523">
        <ele>866.29</ele>
        <time>2012-08-07T07:51:40Z</time>
      </trkpt>
      <trkpt lat="45.85354" lon="6.11518">
        <ele>866.77</ele>
        <time>2012-08-07T07:51:43Z</time>
      </trkpt>
      <trkpt lat="45.8534" lon="6.11512">
        <ele>867.25</ele>
        <time>2012-08-07T07:51:44Z</time>
      </trkpt>
      <trkpt lat="45.85271" lon="6.11469">
        <ele>870.61</ele>
        <time>2012-08-07T07:51:49Z</time>
      </trkpt>
      <trkpt lat="45.85257" lon="6.1146">
        <ele>870.13</ele>
        <time>2012-08-07T07:51:50Z</time>
      </trkpt>
      <trkpt lat="45.85245" lon="6.11448">
        <ele>870.61</ele>
        <time>2012-08-07T07:51:51Z</time>
      </trkpt>
      <trkpt lat="45.85234" lon="6.11434">
        <ele>871.09</ele>
        <time>2012-08-07T07:51:52Z</time>
      </trkpt>
      <trkpt lat="45.85223" lon="6.11416">
        <ele>871.57</ele>
        <time>2012-08-07T07:51:53Z</time>
      </trkpt>
      <trkpt lat="45.85161" lon="6.11327">
        <ele>871.57</ele>
        <time>2012-08-07T07:51:59Z</time>
      </trkpt>
      <trkpt lat="45.85149" lon="6.11318">
        <ele>872.53</ele>
        <time>2012-08-07T07:52:00Z</time>
      </trkpt>
      <trkpt lat="45.85136" lon="6.11313">
        <ele>873.01</ele>
        <time>2012-08-07T07:52:01Z</time>
      </trkpt>
      <trkpt lat="45.85121" lon="6.11312">
        <ele>873.01</ele>
        <time>2012-08-07T07:52:02Z</time>
      </trkpt>
      <trkpt lat="45.85105" lon="6.11311">
        <ele>873.01</ele>
        <time>2012-08-07T07:52:03Z</time>
      </trkpt>
      <trkpt lat="45.8509" lon="6.11308">
        <ele>873.01</ele>
        <time>2012-08-07T07:52:04Z</time>
      </trkpt>
      <trkpt lat="45.85076" lon="6.11302">
        <ele>875.42</ele>
        <time>2012-08-07T07:52:05Z</time>
      </trkpt>
      <trkpt lat="45.85062" lon="6.11295">
        <ele>876.86</ele>
        <time>2012-08-07T07:52:06Z</time>
      </trkpt>
      <trkpt lat="45.85009" lon="6.1126">
        <ele>879.74</ele>
        <time>2012-08-07T07:52:10Z</time>
      </trkpt>
      <trkpt lat="45.84971" lon="6.11235">
        <ele>883.11</ele>
        <time>2012-08-07T07:52:13Z</time>
      </trkpt>
      <trkpt lat="45.84934" lon="6.11221">
        <ele>885.99</ele>
        <time>2012-08-07T07:52:16Z</time>
      </trkpt>
      <trkpt lat="45.84892" lon="6.11209">
        <ele>889.84</ele>
        <time>2012-08-07T07:52:20Z</time>
      </trkpt>
      <trkpt lat="45.8486" lon="6.11194">
        <ele>893.68</ele>
        <time>2012-08-07T07:52:23Z</time>
      </trkpt>
      <trkpt lat="45.8485" lon="6.11186">
        <ele>895.12</ele>
        <time>2012-08-07T07:52:24Z</time>
      </trkpt>
      <trkpt lat="45.84816" lon="6.1116">
        <ele>898.97</ele>
        <time>2012-08-07T07:52:27Z</time>
      </trkpt>
      <trkpt lat="45.84801" lon="6.11155">
        <ele>899.93</ele>
        <time>2012-08-07T07:52:28Z</time>
      </trkpt>
      <trkpt lat="45.84768" lon="6.11146">
        <ele>902.82</ele>
        <time>2012-08-07T07:52:30Z</time>
      </trkpt>
      <trkpt lat="45.8471" lon="6.11136">
        <ele>906.66</ele>
        <time>2012-08-07T07:52:33Z</time>
      </trkpt>
      <trkpt lat="45.84646" lon="6.11123">
        <ele>910.03</ele>
        <time>2012-08-07T07:52:37Z</time>
      </trkpt>
      <trkpt lat="45.84602" lon="6.11107">
        <ele>913.39</ele>
        <time>2012-08-07T07:52:40Z</time>
      </trkpt>
      <trkpt lat="45.84576" lon="6.11097">
        <ele>917.24</ele>
        <time>2012-08-07T07:52:42Z</time>
      </trkpt>
      <trkpt lat="45.84546" lon="6.11082">
        <ele>919.16</ele>
        <time>2012-08-07T07:52:44Z</time>
      </trkpt>
      <trkpt lat="45.84535" lon="6.11075">
        <ele>920.12</ele>
        <time>2012-08-07T07:52:45Z</time>
      </trkpt>
      <trkpt lat="45.84522" lon="6.11063">
        <ele>921.56</ele>
        <time>2012-08-07T07:52:46Z</time>
      </trkpt>
      <trkpt lat="45.84486" lon="6.11024">
        <ele>924.93</ele>
        <time>2012-08-07T07:52:49Z</time>
      </trkpt>
      <trkpt lat="45.84443" lon="6.10978">
        <ele>930.21</ele>
        <time>2012-08-07T07:52:53Z</time>
      </trkpt>
      <trkpt lat="45.84404" lon="6.10945">
        <ele>933.58</ele>
        <time>2012-08-07T07:52:56Z</time>
      </trkpt>
      <trkpt lat="45.84378" lon="6.10922">
        <ele>936.94</ele>
        <time>2012-08-07T07:52:58Z</time>
      </trkpt>
      <trkpt lat="45.84362" lon="6.10911">
        <ele>939.35</ele>
        <time>2012-08-07T07:52:59Z</time>
      </trkpt>
      <trkpt lat="45.84326" lon="6.10891">
        <ele>944.63</ele>
        <time>2012-08-07T07:53:01Z</time>
      </trkpt>
      <trkpt lat="45.84286" lon="6.10873">
        <ele>948</ele>
        <time>2012-08-07T07:53:03Z</time>
      </trkpt>
      <trkpt lat="45.84232" lon="6.10838">
        <ele>951.36</ele>
        <time>2012-08-07T07:53:06Z</time>
      </trkpt>
      <trkpt lat="45.84217" lon="6.10828">
        <ele>952.32</ele>
        <time>2012-08-07T07:53:07Z</time>
      </trkpt>
      <trkpt lat="45.84202" lon="6.10819">
        <ele>954.73</ele>
        <time>2012-08-07T07:53:08Z</time>
      </trkpt>
      <trkpt lat="45.84156" lon="6.10793">
        <ele>957.61</ele>
        <time>2012-08-07T07:53:11Z</time>
      </trkpt>
      <trkpt lat="45.84127" lon="6.10773">
        <ele>960.98</ele>
        <time>2012-08-07T07:53:13Z</time>
      </trkpt>
      <trkpt lat="45.84095" lon="6.10753">
        <ele>966.74</ele>
        <time>2012-08-07T07:53:15Z</time>
      </trkpt>
      <trkpt lat="45.84076" lon="6.10745">
        <ele>969.15</ele>
        <time>2012-08-07T07:53:16Z</time>
      </trkpt>
      <trkpt lat="45.84037" lon="6.10728">
        <ele>974.43</ele>
        <time>2012-08-07T07:53:18Z</time>
      </trkpt>
      <trkpt lat="45.84016" lon="6.10717">
        <ele>977.8</ele>
        <time>2012-08-07T07:53:19Z</time>
      </trkpt>
      <trkpt lat="45.83971" lon="6.1069">
        <ele>981.64</ele>
        <time>2012-08-07T07:53:21Z</time>
      </trkpt>
      <trkpt lat="45.83948" lon="6.10675">
        <ele>985.01</ele>
        <time>2012-08-07T07:53:22Z</time>
      </trkpt>
      <trkpt lat="45.83905" lon="6.1064">
        <ele>988.37</ele>
        <time>2012-08-07T07:53:24Z</time>
      </trkpt>
      <trkpt lat="45.83885" lon="6.10624">
        <ele>990.3</ele>
        <time>2012-08-07T07:53:25Z</time>
      </trkpt>
      <trkpt lat="45.83844" lon="6.10594">
        <ele>993.66</ele>
        <time>2012-08-07T07:53:27Z</time>
      </trkpt>
      <trkpt lat="45.83803" lon="6.10571">
        <ele>997.02</ele>
        <time>2012-08-07T07:53:29Z</time>
      </trkpt>
      <trkpt lat="45.83781" lon="6.10563">
        <ele>1001.35</ele>
        <time>2012-08-07T07:53:30Z</time>
      </trkpt>
      <trkpt lat="45.83736" lon="6.10544">
        <ele>1004.72</ele>
        <time>2012-08-07T07:53:32Z</time>
      </trkpt>
      <trkpt lat="45.83694" lon="6.1052">
        <ele>1009.04</ele>
        <time>2012-08-07T07:53:34Z</time>
      </trkpt>
      <trkpt lat="45.83644" lon="6.10477">
        <ele>1012.41</ele>
        <time>2012-08-07T07:53:37Z</time>
      </trkpt>
      <trkpt lat="45.83621" lon="6.1045">
        <ele>1015.29</ele>
        <time>2012-08-07T07:53:39Z</time>
      </trkpt>
      <trkpt lat="45.83609" lon="6.10432">
        <ele>1017.21</ele>
        <time>2012-08-07T07:53:40Z</time>
      </trkpt>
      <trkpt lat="45.83597" lon="6.10413">
        <ele>1019.62</ele>
        <time>2012-08-07T07:53:41Z</time>
      </trkpt>
      <trkpt lat="45.83567" lon="6.10358">
        <ele>1023.46</ele>
        <time>2012-08-07T07:53:44Z</time>
      </trkpt>
      <trkpt lat="45.83553" lon="6.10343">
        <ele>1025.38</ele>
        <time>2012-08-07T07:53:45Z</time>
      </trkpt>
      <trkpt lat="45.83536" lon="6.10329">
        <ele>1027.31</ele>
        <time>2012-08-07T07:53:46Z</time>
      </trkpt>
      <trkpt lat="45.83518" lon="6.10317">
        <ele>1030.19</ele>
        <time>2012-08-07T07:53:47Z</time>
      </trkpt>
      <trkpt lat="45.83498" lon="6.10307">
        <ele>1032.59</ele>
        <time>2012-08-07T07:53:48Z</time>
      </trkpt>
      <trkpt lat="45.83478" lon="6.10299">
        <ele>1036.92</ele>
        <time>2012-08-07T07:53:49Z</time>
      </trkpt>
      <trkpt lat="45.83419" lon="6.10278">
        <ele>1041.25</ele>
        <time>2012-08-07T07:53:52Z</time>
      </trkpt>
      <trkpt lat="45.83378" lon="6.10251">
        <ele>1046.53</ele>
        <time>2012-08-07T07:53:54Z</time>
      </trkpt>
      <trkpt lat="45.83339" lon="6.10216">
        <ele>1051.82</ele>
        <time>2012-08-07T07:53:56Z</time>
      </trkpt>
      <trkpt lat="45.83298" lon="6.10179">
        <ele>1056.15</ele>
        <time>2012-08-07T07:53:58Z</time>
      </trkpt>
      <trkpt lat="45.8326" lon="6.10133">
        <ele>1059.99</ele>
        <time>2012-08-07T07:54:00Z</time>
      </trkpt>
      <trkpt lat="45.83223" lon="6.10087">
        <ele>1064.32</ele>
        <time>2012-08-07T07:54:02Z</time>
      </trkpt>
      <trkpt lat="45.83178" lon="6.10019">
        <ele>1069.12</ele>
        <time>2012-08-07T07:54:05Z</time>
      </trkpt>
      <trkpt lat="45.83145" lon="6.09983">
        <ele>1073.45</ele>
        <time>2012-08-07T07:54:07Z</time>
      </trkpt>
      <trkpt lat="45.83126" lon="6.09967">
        <ele>1076.33</ele>
        <time>2012-08-07T07:54:08Z</time>
      </trkpt>
      <trkpt lat="45.83072" lon="6.09934">
        <ele>1080.18</ele>
        <time>2012-08-07T07:54:11Z</time>
      </trkpt>
      <trkpt lat="45.83053" lon="6.09926">
        <ele>1082.1</ele>
        <time>2012-08-07T07:54:12Z</time>
      </trkpt>
      <trkpt lat="45.83037" lon="6.09922">
        <ele>1081.62</ele>
        <time>2012-08-07T07:54:13Z</time>
      </trkpt>
      <trkpt lat="45.83012" lon="6.09912">
        <ele>1082.1</ele>
        <time>2012-08-07T07:54:16Z</time>
      </trkpt>
      <trkpt lat="45.83006" lon="6.09916">
        <ele>1082.58</ele>
        <time>2012-08-07T07:54:17Z</time>
      </trkpt>
      <trkpt lat="45.83001" lon="6.09923">
        <ele>1083.06</ele>
        <time>2012-08-07T07:54:18Z</time>
      </trkpt>
      <trkpt lat="45.82998" lon="6.0993">
        <ele>1084.02</ele>
        <time>2012-08-07T07:54:19Z</time>
      </trkpt>
      <trkpt lat="45.82998" lon="6.09937">
        <ele>1087.39</ele>
        <time>2012-08-07T07:54:21Z</time>
      </trkpt>
      <trkpt lat="45.83005" lon="6.09945">
        <ele>1088.83</ele>
        <time>2012-08-07T07:54:22Z</time>
      </trkpt>
      <trkpt lat="45.83016" lon="6.09962">
        <ele>1090.75</ele>
        <time>2012-08-07T07:54:23Z</time>
      </trkpt>
      <trkpt lat="45.83026" lon="6.09984">
        <ele>1093.16</ele>
        <time>2012-08-07T07:54:24Z</time>
      </trkpt>
      <trkpt lat="45.83034" lon="6.10009">
        <ele>1095.56</ele>
        <time>2012-08-07T07:54:25Z</time>
      </trkpt>
      <trkpt lat="45.83038" lon="6.10038">
        <ele>1099.4</ele>
        <time>2012-08-07T07:54:26Z</time>
      </trkpt>
      <trkpt lat="45.83042" lon="6.1007">
        <ele>1102.77</ele>
        <time>2012-08-07T07:54:27Z</time>
      </trkpt>
      <trkpt lat="45.83048" lon="6.10104">
        <ele>1105.65</ele>
        <time>2012-08-07T07:54:28Z</time>
      </trkpt>
      <trkpt lat="45.83056" lon="6.10134">
        <ele>1106.61</ele>
        <time>2012-08-07T07:54:29Z</time>
      </trkpt>
      <trkpt lat="45.83072" lon="6.10181">
        <ele>1108.06</ele>
        <time>2012-08-07T07:54:31Z</time>
      </trkpt>
      <trkpt lat="45.8308" lon="6.10202">
        <ele>1109.02</ele>
        <time>2012-08-07T07:54:32Z</time>
      </trkpt>
      <trkpt lat="45.83091" lon="6.10219">
        <ele>1110.46</ele>
        <time>2012-08-07T07:54:33Z</time>
      </trkpt>
      <trkpt lat="45.83101" lon="6.10228">
        <ele>1110.94</ele>
        <time>2012-08-07T07:54:34Z</time>
      </trkpt>
      <trkpt lat="45.83111" lon="6.10234">
        <ele>1110.46</ele>
        <time>2012-08-07T07:54:35Z</time>
      </trkpt>
      <trkpt lat="45.83119" lon="6.10243">
        <ele>1110.94</ele>
        <time>2012-08-07T07:54:36Z</time>
      </trkpt>
      <trkpt lat="45.83125" lon="6.10254">
        <ele>1111.42</ele>
        <time>2012-08-07T07:54:37Z</time>
      </trkpt>
      <trkpt lat="45.83126" lon="6.10263">
        <ele>1111.9</ele>
        <time>2012-08-07T07:54:38Z</time>
      </trkpt>
      <trkpt lat="45.83124" lon="6.1027">
        <ele>1113.82</ele>
        <time>2012-08-07T07:54:39Z</time>
      </trkpt>
      <trkpt lat="45.83117" lon="6.10272">
        <ele>1115.75</ele>
        <time>2012-08-07T07:54:40Z</time>
      </trkpt>
      <trkpt lat="45.83108" lon="6.10269">
        <ele>1117.19</ele>
        <time>2012-08-07T07:54:41Z</time>
      </trkpt>
      <trkpt lat="45.83097" lon="6.10262">
        <ele>1119.59</ele>
        <time>2012-08-07T07:54:42Z</time>
      </trkpt>
      <trkpt lat="45.83082" lon="6.10251">
        <ele>1121.52</ele>
        <time>2012-08-07T07:54:43Z</time>
      </trkpt>
      <trkpt lat="45.8305" lon="6.10225">
        <ele>1126.32</ele>
        <time>2012-08-07T07:54:45Z</time>
      </trkpt>
      <trkpt lat="45.83034" lon="6.10209">
        <ele>1127.76</ele>
        <time>2012-08-07T07:54:46Z</time>
      </trkpt>
      <trkpt lat="45.8302" lon="6.10191">
        <ele>1129.21</ele>
        <time>2012-08-07T07:54:47Z</time>
      </trkpt>
      <trkpt lat="45.82999" lon="6.10159">
        <ele>1131.13</ele>
        <time>2012-08-07T07:54:49Z</time>
      </trkpt>
      <trkpt lat="45.82986" lon="6.10147">
        <ele>1134.49</ele>
        <time>2012-08-07T07:54:50Z</time>
      </trkpt>
      <trkpt lat="45.82969" lon="6.10136">
        <ele>1137.38</ele>
        <time>2012-08-07T07:54:51Z</time>
      </trkpt>
      <trkpt lat="45.82933" lon="6.10117">
        <ele>1140.74</ele>
        <time>2012-08-07T07:54:53Z</time>
      </trkpt>
      <trkpt lat="45.82918" lon="6.10107">
        <ele>1141.7</ele>
        <time>2012-08-07T07:54:54Z</time>
      </trkpt>
      <trkpt lat="45.82904" lon="6.10094">
        <ele>1143.14</ele>
        <time>2012-08-07T07:54:55Z</time>
      </trkpt>
      <trkpt lat="45.82891" lon="6.10079">
        <ele>1145.55</ele>
        <time>2012-08-07T07:54:56Z</time>
      </trkpt>
      <trkpt lat="45.82878" lon="6.10062">
        <ele>1147.95</ele>
        <time>2012-08-07T07:54:57Z</time>
      </trkpt>
      <trkpt lat="45.82862" lon="6.10044">
        <ele>1150.35</ele>
        <time>2012-08-07T07:54:58Z</time>
      </trkpt>
      <trkpt lat="45.82818" lon="6.10011">
        <ele>1152.76</ele>
        <time>2012-08-07T07:55:01Z</time>
      </trkpt>
      <trkpt lat="45.82801" lon="6.10008">
        <ele>1155.16</ele>
        <time>2012-08-07T07:55:02Z</time>
      </trkpt>
      <trkpt lat="45.82784" lon="6.10007">
        <ele>1159.01</ele>
        <time>2012-08-07T07:55:03Z</time>
      </trkpt>
      <trkpt lat="45.82746" lon="6.10008">
        <ele>1163.33</ele>
        <time>2012-08-07T07:55:05Z</time>
      </trkpt>
      <trkpt lat="45.82728" lon="6.10002">
        <ele>1165.74</ele>
        <time>2012-08-07T07:55:06Z</time>
      </trkpt>
      <trkpt lat="45.82713" lon="6.09994">
        <ele>1168.14</ele>
        <time>2012-08-07T07:55:07Z</time>
      </trkpt>
      <trkpt lat="45.82697" lon="6.09984">
        <ele>1170.06</ele>
        <time>2012-08-07T07:55:08Z</time>
      </trkpt>
      <trkpt lat="45.82682" lon="6.09973">
        <ele>1170.06</ele>
        <time>2012-08-07T07:55:09Z</time>
      </trkpt>
      <trkpt lat="45.82642" lon="6.0994">
        <ele>1173.91</ele>
        <time>2012-08-07T07:55:11Z</time>
      </trkpt>
      <trkpt lat="45.82621" lon="6.09928">
        <ele>1176.31</ele>
        <time>2012-08-07T07:55:12Z</time>
      </trkpt>
      <trkpt lat="45.82581" lon="6.0991">
        <ele>1181.12</ele>
        <time>2012-08-07T07:55:14Z</time>
      </trkpt>
      <trkpt lat="45.82538" lon="6.09888">
        <ele>1185.44</ele>
        <time>2012-08-07T07:55:16Z</time>
      </trkpt>
      <trkpt lat="45.82515" lon="6.0987">
        <ele>1186.88</ele>
        <time>2012-08-07T07:55:17Z</time>
      </trkpt>
      <trkpt lat="45.82479" lon="6.09836">
        <ele>1190.73</ele>
        <time>2012-08-07T07:55:19Z</time>
      </trkpt>
      <trkpt lat="45.82459" lon="6.09823">
        <ele>1193.61</ele>
        <time>2012-08-07T07:55:20Z</time>
      </trkpt>
      <trkpt lat="45.82438" lon="6.09815">
        <ele>1195.06</ele>
        <time>2012-08-07T07:55:21Z</time>
      </trkpt>
      <trkpt lat="45.82394" lon="6.09803">
        <ele>1198.9</ele>
        <time>2012-08-07T07:55:23Z</time>
      </trkpt>
      <trkpt lat="45.82351" lon="6.09795">
        <ele>1202.75</ele>
        <time>2012-08-07T07:55:25Z</time>
      </trkpt>
      <trkpt lat="45.82333" lon="6.09791">
        <ele>1202.75</ele>
        <time>2012-08-07T07:55:26Z</time>
      </trkpt>
      <trkpt lat="45.82319" lon="6.09787">
        <ele>1204.19</ele>
        <time>2012-08-07T07:55:27Z</time>
      </trkpt>
      <trkpt lat="45.82304" lon="6.09777">
        <ele>1206.11</ele>
        <time>2012-08-07T07:55:28Z</time>
      </trkpt>
      <trkpt lat="45.82291" lon="6.09766">
        <ele>1207.07</ele>
        <time>2012-08-07T07:55:29Z</time>
      </trkpt>
      <trkpt lat="45.82279" lon="6.09755">
        <ele>1208.51</ele>
        <time>2012-08-07T07:55:30Z</time>
      </trkpt>
      <trkpt lat="45.82264" lon="6.09747">
        <ele>1210.44</ele>
        <time>2012-08-07T07:55:31Z</time>
      </trkpt>
      <trkpt lat="45.8225" lon="6.09742">
        <ele>1211.88</ele>
        <time>2012-08-07T07:55:32Z</time>
      </trkpt>
      <trkpt lat="45.82235" lon="6.09742">
        <ele>1213.8</ele>
        <time>2012-08-07T07:55:33Z</time>
      </trkpt>
      <trkpt lat="45.82219" lon="6.09745">
        <ele>1215.24</ele>
        <time>2012-08-07T07:55:34Z</time>
      </trkpt>
      <trkpt lat="45.82203" lon="6.09751">
        <ele>1216.69</ele>
        <time>2012-08-07T07:55:35Z</time>
      </trkpt>
      <trkpt lat="45.82187" lon="6.09762">
        <ele>1220.05</ele>
        <time>2012-08-07T07:55:36Z</time>
      </trkpt>
      <trkpt lat="45.82172" lon="6.09774">
        <ele>1221.01</ele>
        <time>2012-08-07T07:55:37Z</time>
      </trkpt>
      <trkpt lat="45.82161" lon="6.0979">
        <ele>1221.01</ele>
        <time>2012-08-07T07:55:38Z</time>
      </trkpt>
      <trkpt lat="45.82155" lon="6.09808">
        <ele>1221.49</ele>
        <time>2012-08-07T07:55:39Z</time>
      </trkpt>
      <trkpt lat="45.8215" lon="6.09827">
        <ele>1221.97</ele>
        <time>2012-08-07T07:55:40Z</time>
      </trkpt>
      <trkpt lat="45.82145" lon="6.09839">
        <ele>1222.45</ele>
        <time>2012-08-07T07:55:41Z</time>
      </trkpt>
      <trkpt lat="45.82133" lon="6.09841">
        <ele>1224.38</ele>
        <time>2012-08-07T07:55:42Z</time>
      </trkpt>
      <trkpt lat="45.82121" lon="6.09845">
        <ele>1227.26</ele>
        <time>2012-08-07T07:55:43Z</time>
      </trkpt>
      <trkpt lat="45.82096" lon="6.09855">
        <ele>1230.62</ele>
        <time>2012-08-07T07:55:45Z</time>
      </trkpt>
      <trkpt lat="45.82086" lon="6.09875">
        <ele>1231.59</ele>
        <time>2012-08-07T07:55:46Z</time>
      </trkpt>
      <trkpt lat="45.82069" lon="6.09884">
        <ele>1233.51</ele>
        <time>2012-08-07T07:55:47Z</time>
      </trkpt>
      <trkpt lat="45.8205" lon="6.0988">
        <ele>1235.43</ele>
        <time>2012-08-07T07:55:48Z</time>
      </trkpt>
      <trkpt lat="45.82031" lon="6.09877">
        <ele>1237.35</ele>
        <time>2012-08-07T07:55:49Z</time>
      </trkpt>
      <trkpt lat="45.8201" lon="6.09866">
        <ele>1239.28</ele>
        <time>2012-08-07T07:55:50Z</time>
      </trkpt>
      <trkpt lat="45.81989" lon="6.09862">
        <ele>1240.24</ele>
        <time>2012-08-07T07:55:51Z</time>
      </trkpt>
      <trkpt lat="45.81949" lon="6.0986">
        <ele>1243.6</ele>
        <time>2012-08-07T07:55:53Z</time>
      </trkpt>
      <trkpt lat="45.81928" lon="6.09855">
        <ele>1246.01</ele>
        <time>2012-08-07T07:55:54Z</time>
      </trkpt>
      <trkpt lat="45.81908" lon="6.09846">
        <ele>1248.41</ele>
        <time>2012-08-07T07:55:55Z</time>
      </trkpt>
      <trkpt lat="45.81865" lon="6.09821">
        <ele>1253.7</ele>
        <time>2012-08-07T07:55:57Z</time>
      </trkpt>
      <trkpt lat="45.81844" lon="6.09808">
        <ele>1256.58</ele>
        <time>2012-08-07T07:55:58Z</time>
      </trkpt>
      <trkpt lat="45.81824" lon="6.09796">
        <ele>1257.06</ele>
        <time>2012-08-07T07:55:59Z</time>
      </trkpt>
      <trkpt lat="45.81807" lon="6.09783">
        <ele>1256.58</ele>
        <time>2012-08-07T07:56:00Z</time>
      </trkpt>
      <trkpt lat="45.81784" lon="6.09751">
        <ele>1256.58</ele>
        <time>2012-08-07T07:56:03Z</time>
      </trkpt>
      <trkpt lat="45.8178" lon="6.09751">
        <ele>1257.06</ele>
        <time>2012-08-07T07:56:04Z</time>
      </trkpt>
      <trkpt lat="45.81773" lon="6.09758">
        <ele>1257.54</ele>
        <time>2012-08-07T07:56:05Z</time>
      </trkpt>
      <trkpt lat="45.81759" lon="6.09778">
        <ele>1260.43</ele>
        <time>2012-08-07T07:56:08Z</time>
      </trkpt>
      <trkpt lat="45.81759" lon="6.0978">
        <ele>1262.35</ele>
        <time>2012-08-07T07:56:09Z</time>
      </trkpt>
      <trkpt lat="45.8176" lon="6.09791">
        <ele>1267.64</ele>
        <time>2012-08-07T07:56:11Z</time>
      </trkpt>
      <trkpt lat="45.81764" lon="6.09803">
        <ele>1270.04</ele>
        <time>2012-08-07T07:56:12Z</time>
      </trkpt>
      <trkpt lat="45.81773" lon="6.09817">
        <ele>1272.44</ele>
        <time>2012-08-07T07:56:13Z</time>
      </trkpt>
      <trkpt lat="45.81784" lon="6.09837">
        <ele>1275.33</ele>
        <time>2012-08-07T07:56:14Z</time>
      </trkpt>
      <trkpt lat="45.81822" lon="6.09893">
        <ele>1279.65</ele>
        <time>2012-08-07T07:56:16Z</time>
      </trkpt>
      <trkpt lat="45.8184" lon="6.09917">
        <ele>1279.17</ele>
        <time>2012-08-07T07:56:17Z</time>
      </trkpt>
      <trkpt lat="45.81871" lon="6.09964">
        <ele>1279.65</ele>
        <time>2012-08-07T07:56:19Z</time>
      </trkpt>
      <trkpt lat="45.81884" lon="6.09987">
        <ele>1280.61</ele>
        <time>2012-08-07T07:56:20Z</time>
      </trkpt>
      <trkpt lat="45.81893" lon="6.10009">
        <ele>1281.57</ele>
        <time>2012-08-07T07:56:21Z</time>
      </trkpt>
      <trkpt lat="45.81898" lon="6.1003">
        <ele>1282.54</ele>
        <time>2012-08-07T07:56:22Z</time>
      </trkpt>
      <trkpt lat="45.81899" lon="6.10077">
        <ele>1286.38</ele>
        <time>2012-08-07T07:56:24Z</time>
      </trkpt>
      <trkpt lat="45.8191" lon="6.10124">
        <ele>1289.75</ele>
        <time>2012-08-07T07:56:26Z</time>
      </trkpt>
      <trkpt lat="45.81921" lon="6.10151">
        <ele>1292.15</ele>
        <time>2012-08-07T07:56:27Z</time>
      </trkpt>
      <trkpt lat="45.81942" lon="6.10204">
        <ele>1297.92</ele>
        <time>2012-08-07T07:56:29Z</time>
      </trkpt>
      <trkpt lat="45.81961" lon="6.10258">
        <ele>1301.76</ele>
        <time>2012-08-07T07:56:31Z</time>
      </trkpt>
      <trkpt lat="45.81981" lon="6.10308">
        <ele>1304.17</ele>
        <time>2012-08-07T07:56:33Z</time>
      </trkpt>
      <trkpt lat="45.81992" lon="6.10329">
        <ele>1304.65</ele>
        <time>2012-08-07T07:56:34Z</time>
      </trkpt>
      <trkpt lat="45.82003" lon="6.10345">
        <ele>1305.13</ele>
        <time>2012-08-07T07:56:35Z</time>
      </trkpt>
      <trkpt lat="45.82012" lon="6.10359">
        <ele>1305.13</ele>
        <time>2012-08-07T07:56:36Z</time>
      </trkpt>
      <trkpt lat="45.82017" lon="6.10373">
        <ele>1305.61</ele>
        <time>2012-08-07T07:56:37Z</time>
      </trkpt>
      <trkpt lat="45.82019" lon="6.10387">
        <ele>1305.61</ele>
        <time>2012-08-07T07:56:38Z</time>
      </trkpt>
      <trkpt lat="45.82016" lon="6.10402">
        <ele>1307.05</ele>
        <time>2012-08-07T07:56:40Z</time>
      </trkpt>
      <trkpt lat="45.82011" lon="6.10402">
        <ele>1308.49</ele>
        <time>2012-08-07T07:56:41Z</time>
      </trkpt>
      <trkpt lat="45.82005" lon="6.10396">
        <ele>1309.93</ele>
        <time>2012-08-07T07:56:42Z</time>
      </trkpt>
      <trkpt lat="45.81997" lon="6.10385">
        <ele>1311.86</ele>
        <time>2012-08-07T07:56:43Z</time>
      </trkpt>
      <trkpt lat="45.81985" lon="6.10371">
        <ele>1313.3</ele>
        <time>2012-08-07T07:56:44Z</time>
      </trkpt>
      <trkpt lat="45.81974" lon="6.10362">
        <ele>1314.74</ele>
        <time>2012-08-07T07:56:45Z</time>
      </trkpt>
      <trkpt lat="45.81962" lon="6.10353">
        <ele>1314.74</ele>
        <time>2012-08-07T07:56:46Z</time>
      </trkpt>
      <trkpt lat="45.81949" lon="6.10348">
        <ele>1315.22</ele>
        <time>2012-08-07T07:56:47Z</time>
      </trkpt>
      <trkpt lat="45.81938" lon="6.10345">
        <ele>1316.18</ele>
        <time>2012-08-07T07:56:48Z</time>
      </trkpt>
      <trkpt lat="45.81924" lon="6.10358">
        <ele>1317.14</ele>
        <time>2012-08-07T07:56:50Z</time>
      </trkpt>
      <trkpt lat="45.81923" lon="6.10367">
        <ele>1318.1</ele>
        <time>2012-08-07T07:56:51Z</time>
      </trkpt>
      <trkpt lat="45.81924" lon="6.10377">
        <ele>1319.07</ele>
        <time>2012-08-07T07:56:52Z</time>
      </trkpt>
      <trkpt lat="45.81924" lon="6.10389">
        <ele>1320.03</ele>
        <time>2012-08-07T07:56:53Z</time>
      </trkpt>
      <trkpt lat="45.81919" lon="6.10422">
        <ele>1321.95</ele>
        <time>2012-08-07T07:56:55Z</time>
      </trkpt>
      <trkpt lat="45.81914" lon="6.10433">
        <ele>1323.39</ele>
        <time>2012-08-07T07:56:56Z</time>
      </trkpt>
      <trkpt lat="45.81909" lon="6.1044">
        <ele>1324.83</ele>
        <time>2012-08-07T07:56:57Z</time>
      </trkpt>
      <trkpt lat="45.81898" lon="6.1044">
        <ele>1326.76</ele>
        <time>2012-08-07T07:56:58Z</time>
      </trkpt>
      <trkpt lat="45.81886" lon="6.10434">
        <ele>1328.68</ele>
        <time>2012-08-07T07:56:59Z</time>
      </trkpt>
      <trkpt lat="45.81874" lon="6.10427">
        <ele>1331.08</ele>
        <time>2012-08-07T07:57:00Z</time>
      </trkpt>
      <trkpt lat="45.8186" lon="6.10416">
        <ele>1333.49</ele>
        <time>2012-08-07T07:57:01Z</time>
      </trkpt>
      <trkpt lat="45.81845" lon="6.10402">
        <ele>1335.41</ele>
        <time>2012-08-07T07:57:02Z</time>
      </trkpt>
      <trkpt lat="45.81813" lon="6.1037">
        <ele>1338.29</ele>
        <time>2012-08-07T07:57:04Z</time>
      </trkpt>
      <trkpt lat="45.8176" lon="6.10319">
        <ele>1341.18</ele>
        <time>2012-08-07T07:57:08Z</time>
      </trkpt>
      <trkpt lat="45.81746" lon="6.10314">
        <ele>1342.14</ele>
        <time>2012-08-07T07:57:09Z</time>
      </trkpt>
      <trkpt lat="45.81726" lon="6.10302">
        <ele>1343.58</ele>
        <time>2012-08-07T07:57:11Z</time>
      </trkpt>
      <trkpt lat="45.81717" lon="6.1029">
        <ele>1344.54</ele>
        <time>2012-08-07T07:57:12Z</time>
      </trkpt>
      <trkpt lat="45.81713" lon="6.10272">
        <ele>1345.98</ele>
        <time>2012-08-07T07:57:13Z</time>
      </trkpt>
      <trkpt lat="45.81712" lon="6.10252">
        <ele>1348.39</ele>
        <time>2012-08-07T07:57:14Z</time>
      </trkpt>
      <trkpt lat="45.8171" lon="6.10231">
        <ele>1350.31</ele>
        <time>2012-08-07T07:57:15Z</time>
      </trkpt>
      <trkpt lat="45.81707" lon="6.10208">
        <ele>1352.71</ele>
        <time>2012-08-07T07:57:16Z</time>
      </trkpt>
      <trkpt lat="45.81701" lon="6.10184">
        <ele>1354.63</ele>
        <time>2012-08-07T07:57:17Z</time>
      </trkpt>
      <trkpt lat="45.81694" lon="6.10161">
        <ele>1356.56</ele>
        <time>2012-08-07T07:57:18Z</time>
      </trkpt>
      <trkpt lat="45.81686" lon="6.10138">
        <ele>1358</ele>
        <time>2012-08-07T07:57:19Z</time>
      </trkpt>
      <trkpt lat="45.81677" lon="6.1012">
        <ele>1358</ele>
        <time>2012-08-07T07:57:20Z</time>
      </trkpt>
      <trkpt lat="45.81668" lon="6.10103">
        <ele>1358.96</ele>
        <time>2012-08-07T07:57:21Z</time>
      </trkpt>
      <trkpt lat="45.81657" lon="6.10088">
        <ele>1360.88</ele>
        <time>2012-08-07T07:57:22Z</time>
      </trkpt>
      <trkpt lat="45.81645" lon="6.10073">
        <ele>1362.81</ele>
        <time>2012-08-07T07:57:23Z</time>
      </trkpt>
      <trkpt lat="45.81633" lon="6.10063">
        <ele>1363.77</ele>
        <time>2012-08-07T07:57:24Z</time>
      </trkpt>
      <trkpt lat="45.81618" lon="6.10054">
        <ele>1365.69</ele>
        <time>2012-08-07T07:57:25Z</time>
      </trkpt>
      <trkpt lat="45.81601" lon="6.10049">
        <ele>1367.61</ele>
        <time>2012-08-07T07:57:26Z</time>
      </trkpt>
      <trkpt lat="45.81585" lon="6.10044">
        <ele>1369.54</ele>
        <time>2012-08-07T07:57:27Z</time>
      </trkpt>
      <trkpt lat="45.81536" lon="6.10023">
        <ele>1372.42</ele>
        <time>2012-08-07T07:57:30Z</time>
      </trkpt>
      <trkpt lat="45.81523" lon="6.10018">
        <ele>1373.38</ele>
        <time>2012-08-07T07:57:31Z</time>
      </trkpt>
      <trkpt lat="45.8151" lon="6.10015">
        <ele>1374.82</ele>
        <time>2012-08-07T07:57:32Z</time>
      </trkpt>
      <trkpt lat="45.81495" lon="6.10017">
        <ele>1376.26</ele>
        <time>2012-08-07T07:57:33Z</time>
      </trkpt>
      <trkpt lat="45.81481" lon="6.10023">
        <ele>1378.67</ele>
        <time>2012-08-07T07:57:34Z</time>
      </trkpt>
      <trkpt lat="45.81466" lon="6.10025">
        <ele>1381.55</ele>
        <time>2012-08-07T07:57:35Z</time>
      </trkpt>
      <trkpt lat="45.8145" lon="6.10024">
        <ele>1382.51</ele>
        <time>2012-08-07T07:57:36Z</time>
      </trkpt>
      <trkpt lat="45.81433" lon="6.10018">
        <ele>1385.4</ele>
        <time>2012-08-07T07:57:37Z</time>
      </trkpt>
      <trkpt lat="45.81414" lon="6.10012">
        <ele>1386.84</ele>
        <time>2012-08-07T07:57:38Z</time>
      </trkpt>
      <trkpt lat="45.81396" lon="6.10009">
        <ele>1389.72</ele>
        <time>2012-08-07T07:57:39Z</time>
      </trkpt>
      <trkpt lat="45.81379" lon="6.10009">
        <ele>1390.2</ele>
        <time>2012-08-07T07:57:40Z</time>
      </trkpt>
      <trkpt lat="45.81365" lon="6.10004">
        <ele>1390.68</ele>
        <time>2012-08-07T07:57:41Z</time>
      </trkpt>
      <trkpt lat="45.81351" lon="6.09997">
        <ele>1392.13</ele>
        <time>2012-08-07T07:57:42Z</time>
      </trkpt>
      <trkpt lat="45.81338" lon="6.09983">
        <ele>1394.53</ele>
        <time>2012-08-07T07:57:43Z</time>
      </trkpt>
      <trkpt lat="45.81324" lon="6.09962">
        <ele>1397.89</ele>
        <time>2012-08-07T07:57:44Z</time>
      </trkpt>
      <trkpt lat="45.81313" lon="6.09941">
        <ele>1399.34</ele>
        <time>2012-08-07T07:57:45Z</time>
      </trkpt>
      <trkpt lat="45.81302" lon="6.09919">
        <ele>1401.74</ele>
        <time>2012-08-07T07:57:46Z</time>
      </trkpt>
      <trkpt lat="45.81288" lon="6.09898">
        <ele>1403.66</ele>
        <time>2012-08-07T07:57:47Z</time>
      </trkpt>
      <trkpt lat="45.81252" lon="6.09862">
        <ele>1404.62</ele>
        <time>2012-08-07T07:57:50Z</time>
      </trkpt>
      <trkpt lat="45.81242" lon="6.09858">
        <ele>1405.1</ele>
        <time>2012-08-07T07:57:51Z</time>
      </trkpt>
      <trkpt lat="45.81231" lon="6.0986">
        <ele>1406.55</ele>
        <time>2012-08-07T07:57:52Z</time>
      </trkpt>
      <trkpt lat="45.81219" lon="6.09864">
        <ele>1408.47</ele>
        <time>2012-08-07T07:57:53Z</time>
      </trkpt>
      <trkpt lat="45.81206" lon="6.09869">
        <ele>1409.91</ele>
        <time>2012-08-07T07:57:54Z</time>
      </trkpt>
      <trkpt lat="45.81179" lon="6.09874">
        <ele>1412.79</ele>
        <time>2012-08-07T07:57:56Z</time>
      </trkpt>
      <trkpt lat="45.81147" lon="6.09875">
        <ele>1415.68</ele>
        <time>2012-08-07T07:57:58Z</time>
      </trkpt>
      <trkpt lat="45.81134" lon="6.09876">
        <ele>1416.16</ele>
        <time>2012-08-07T07:57:59Z</time>
      </trkpt>
      <trkpt lat="45.81121" lon="6.09869">
        <ele>1416.64</ele>
        <time>2012-08-07T07:58:00Z</time>
      </trkpt>
      <trkpt lat="45.81107" lon="6.09858">
        <ele>1418.08</ele>
        <time>2012-08-07T07:58:01Z</time>
      </trkpt>
      <trkpt lat="45.81094" lon="6.09844">
        <ele>1420.97</ele>
        <time>2012-08-07T07:58:02Z</time>
      </trkpt>
      <trkpt lat="45.81082" lon="6.09828">
        <ele>1422.89</ele>
        <time>2012-08-07T07:58:03Z</time>
      </trkpt>
      <trkpt lat="45.81058" lon="6.09801">
        <ele>1424.81</ele>
        <time>2012-08-07T07:58:05Z</time>
      </trkpt>
      <trkpt lat="45.81046" lon="6.09791">
        <ele>1425.29</ele>
        <time>2012-08-07T07:58:06Z</time>
      </trkpt>
      <trkpt lat="45.81033" lon="6.09786">
        <ele>1426.73</ele>
        <time>2012-08-07T07:58:07Z</time>
      </trkpt>
      <trkpt lat="45.8102" lon="6.09784">
        <ele>1429.14</ele>
        <time>2012-08-07T07:58:08Z</time>
      </trkpt>
      <trkpt lat="45.81005" lon="6.09783">
        <ele>1431.06</ele>
        <time>2012-08-07T07:58:09Z</time>
      </trkpt>
      <trkpt lat="45.80989" lon="6.09784">
        <ele>1432.98</ele>
        <time>2012-08-07T07:58:10Z</time>
      </trkpt>
      <trkpt lat="45.80973" lon="6.09787">
        <ele>1434.42</ele>
        <time>2012-08-07T07:58:11Z</time>
      </trkpt>
      <trkpt lat="45.80961" lon="6.09789">
        <ele>1435.39</ele>
        <time>2012-08-07T07:58:12Z</time>
      </trkpt>
      <trkpt lat="45.80936" lon="6.09798">
        <ele>1436.35</ele>
        <time>2012-08-07T07:58:14Z</time>
      </trkpt>
      <trkpt lat="45.80928" lon="6.09804">
        <ele>1436.35</ele>
        <time>2012-08-07T07:58:15Z</time>
      </trkpt>
      <trkpt lat="45.80923" lon="6.09813">
        <ele>1436.83</ele>
        <time>2012-08-07T07:58:16Z</time>
      </trkpt>
      <trkpt lat="45.80923" lon="6.09826">
        <ele>1437.79</ele>
        <time>2012-08-07T07:58:17Z</time>
      </trkpt>
      <trkpt lat="45.80925" lon="6.09844">
        <ele>1440.19</ele>
        <time>2012-08-07T07:58:18Z</time>
      </trkpt>
      <trkpt lat="45.80931" lon="6.09864">
        <ele>1442.6</ele>
        <time>2012-08-07T07:58:19Z</time>
      </trkpt>
      <trkpt lat="45.80938" lon="6.09884">
        <ele>1444.52</ele>
        <time>2012-08-07T07:58:20Z</time>
      </trkpt>
      <trkpt lat="45.80945" lon="6.09905">
        <ele>1445.96</ele>
        <time>2012-08-07T07:58:21Z</time>
      </trkpt>
      <trkpt lat="45.8095" lon="6.09926">
        <ele>1446.92</ele>
        <time>2012-08-07T07:58:22Z</time>
      </trkpt>
      <trkpt lat="45.80953" lon="6.09947">
        <ele>1447.4</ele>
        <time>2012-08-07T07:58:23Z</time>
      </trkpt>
      <trkpt lat="45.80951" lon="6.09967">
        <ele>1448.36</ele>
        <time>2012-08-07T07:58:24Z</time>
      </trkpt>
      <trkpt lat="45.80945" lon="6.09986">
        <ele>1449.81</ele>
        <time>2012-08-07T07:58:25Z</time>
      </trkpt>
      <trkpt lat="45.80935" lon="6.10002">
        <ele>1451.25</ele>
        <time>2012-08-07T07:58:26Z</time>
      </trkpt>
      <trkpt lat="45.80923" lon="6.10015">
        <ele>1452.69</ele>
        <time>2012-08-07T07:58:27Z</time>
      </trkpt>
      <trkpt lat="45.80909" lon="6.10027">
        <ele>1454.13</ele>
        <time>2012-08-07T07:58:28Z</time>
      </trkpt>
      <trkpt lat="45.80867" lon="6.10063">
        <ele>1457.98</ele>
        <time>2012-08-07T07:58:31Z</time>
      </trkpt>
      <trkpt lat="45.8084" lon="6.10085">
        <ele>1459.42</ele>
        <time>2012-08-07T07:58:33Z</time>
      </trkpt>
      <trkpt lat="45.80829" lon="6.10095">
        <ele>1459.9</ele>
        <time>2012-08-07T07:58:34Z</time>
      </trkpt>
      <trkpt lat="45.8082" lon="6.10106">
        <ele>1459.9</ele>
        <time>2012-08-07T07:58:35Z</time>
      </trkpt>
      <trkpt lat="45.80813" lon="6.10118">
        <ele>1460.38</ele>
        <time>2012-08-07T07:58:36Z</time>
      </trkpt>
      <trkpt lat="45.80809" lon="6.10132">
        <ele>1461.82</ele>
        <time>2012-08-07T07:58:37Z</time>
      </trkpt>
      <trkpt lat="45.80807" lon="6.10148">
        <ele>1461.82</ele>
        <time>2012-08-07T07:58:38Z</time>
      </trkpt>
      <trkpt lat="45.80807" lon="6.10167">
        <ele>1463.26</ele>
        <time>2012-08-07T07:58:39Z</time>
      </trkpt>
      <trkpt lat="45.80808" lon="6.10187">
        <ele>1465.19</ele>
        <time>2012-08-07T07:58:40Z</time>
      </trkpt>
      <trkpt lat="45.80806" lon="6.10205">
        <ele>1464.71</ele>
        <time>2012-08-07T07:58:41Z</time>
      </trkpt>
      <trkpt lat="45.80802" lon="6.1022">
        <ele>1465.19</ele>
        <time>2012-08-07T07:58:42Z</time>
      </trkpt>
      <trkpt lat="45.80797" lon="6.1023">
        <ele>1465.67</ele>
        <time>2012-08-07T07:58:43Z</time>
      </trkpt>
      <trkpt lat="45.80793" lon="6.10237">
        <ele>1465.67</ele>
        <time>2012-08-07T07:58:44Z</time>
      </trkpt>
      <trkpt lat="45.8079" lon="6.10242">
        <ele>1465.67</ele>
        <time>2012-08-07T07:58:45Z</time>
      </trkpt>
      <trkpt lat="45.80789" lon="6.10245">
        <ele>1465.67</ele>
        <time>2012-08-07T07:58:46Z</time>
      </trkpt>
      <trkpt lat="45.80793" lon="6.1026">
        <ele>1466.63</ele>
        <time>2012-08-07T07:58:54Z</time>
      </trkpt>
      <trkpt lat="45.80761" lon="6.10283">
        <ele>1469.99</ele>
        <time>2012-08-07T07:59:06Z</time>
      </trkpt>
      <trkpt lat="45.80746" lon="6.103">
        <ele>1471.92</ele>
        <time>2012-08-07T07:59:11Z</time>
      </trkpt>
      <trkpt lat="45.80742" lon="6.10304">
        <ele>1472.4</ele>
        <time>2012-08-07T07:59:12Z</time>
      </trkpt>
      <trkpt lat="45.80715" lon="6.10325">
        <ele>1475.76</ele>
        <time>2012-08-07T07:59:17Z</time>
      </trkpt>
      <trkpt lat="45.80691" lon="6.10344">
        <ele>1479.13</ele>
        <time>2012-08-07T07:59:21Z</time>
      </trkpt>
      <trkpt lat="45.80666" lon="6.1036">
        <ele>1482.49</ele>
        <time>2012-08-07T07:59:24Z</time>
      </trkpt>
      <trkpt lat="45.80636" lon="6.10377">
        <ele>1485.85</ele>
        <time>2012-08-07T07:59:27Z</time>
      </trkpt>
      <trkpt lat="45.80626" lon="6.10382">
        <ele>1487.3</ele>
        <time>2012-08-07T07:59:28Z</time>
      </trkpt>
      <trkpt lat="45.80615" lon="6.10385">
        <ele>1488.26</ele>
        <time>2012-08-07T07:59:29Z</time>
      </trkpt>
      <trkpt lat="45.80604" lon="6.10386">
        <ele>1489.22</ele>
        <time>2012-08-07T07:59:30Z</time>
      </trkpt>
      <trkpt lat="45.80579" lon="6.10386">
        <ele>1493.06</ele>
        <time>2012-08-07T07:59:32Z</time>
      </trkpt>
      <trkpt lat="45.80542" lon="6.10389">
        <ele>1495.95</ele>
        <time>2012-08-07T07:59:35Z</time>
      </trkpt>
      <trkpt lat="45.80529" lon="6.10388">
        <ele>1496.43</ele>
        <time>2012-08-07T07:59:36Z</time>
      </trkpt>
      <trkpt lat="45.80517" lon="6.10385">
        <ele>1498.35</ele>
        <time>2012-08-07T07:59:37Z</time>
      </trkpt>
      <trkpt lat="45.80504" lon="6.1038">
        <ele>1499.79</ele>
        <time>2012-08-07T07:59:38Z</time>
      </trkpt>
      <trkpt lat="45.80479" lon="6.10368">
        <ele>1503.16</ele>
        <time>2012-08-07T07:59:40Z</time>
      </trkpt>
      <trkpt lat="45.80451" lon="6.10354">
        <ele>1506.52</ele>
        <time>2012-08-07T07:59:42Z</time>
      </trkpt>
      <trkpt lat="45.80411" lon="6.10336">
        <ele>1509.89</ele>
        <time>2012-08-07T07:59:45Z</time>
      </trkpt>
      <trkpt lat="45.80384" lon="6.10327">
        <ele>1513.25</ele>
        <time>2012-08-07T07:59:47Z</time>
      </trkpt>
      <trkpt lat="45.80344" lon="6.10316">
        <ele>1516.62</ele>
        <time>2012-08-07T07:59:50Z</time>
      </trkpt>
      <trkpt lat="45.80317" lon="6.10307">
        <ele>1520.46</ele>
        <time>2012-08-07T07:59:52Z</time>
      </trkpt>
      <trkpt lat="45.80279" lon="6.10296">
        <ele>1524.31</ele>
        <time>2012-08-07T07:59:55Z</time>
      </trkpt>
      <trkpt lat="45.80243" lon="6.10288">
        <ele>1527.67</ele>
        <time>2012-08-07T07:59:58Z</time>
      </trkpt>
      <trkpt lat="45.80233" lon="6.10289">
        <ele>1528.15</ele>
        <time>2012-08-07T07:59:59Z</time>
      </trkpt>
      <trkpt lat="45.80225" lon="6.10293">
        <ele>1528.63</ele>
        <time>2012-08-07T08:00:00Z</time>
      </trkpt>
      <trkpt lat="45.80217" lon="6.103">
        <ele>1529.59</ele>
        <time>2012-08-07T08:00:01Z</time>
      </trkpt>
      <trkpt lat="45.80208" lon="6.10309">
        <ele>1531.52</ele>
        <time>2012-08-07T08:00:02Z</time>
      </trkpt>
      <trkpt lat="45.80199" lon="6.10319">
        <ele>1532.48</ele>
        <time>2012-08-07T08:00:03Z</time>
      </trkpt>
      <trkpt lat="45.80171" lon="6.10351">
        <ele>1536.32</ele>
        <time>2012-08-07T08:00:06Z</time>
      </trkpt>
      <trkpt lat="45.80144" lon="6.10385">
        <ele>1540.17</ele>
        <time>2012-08-07T08:00:09Z</time>
      </trkpt>
      <trkpt lat="45.80114" lon="6.10429">
        <ele>1544.01</ele>
        <time>2012-08-07T08:00:13Z</time>
      </trkpt>
      <trkpt lat="45.80109" lon="6.10439">
        <ele>1544.01</ele>
        <time>2012-08-07T08:00:14Z</time>
      </trkpt>
      <trkpt lat="45.80105" lon="6.1045">
        <ele>1544.5</ele>
        <time>2012-08-07T08:00:15Z</time>
      </trkpt>
      <trkpt lat="45.80103" lon="6.10463">
        <ele>1545.46</ele>
        <time>2012-08-07T08:00:16Z</time>
      </trkpt>
      <trkpt lat="45.80103" lon="6.10476">
        <ele>1546.42</ele>
        <time>2012-08-07T08:00:17Z</time>
      </trkpt>
      <trkpt lat="45.80103" lon="6.10491">
        <ele>1547.38</ele>
        <time>2012-08-07T08:00:18Z</time>
      </trkpt>
      <trkpt lat="45.80101" lon="6.10506">
        <ele>1547.86</ele>
        <time>2012-08-07T08:00:19Z</time>
      </trkpt>
      <trkpt lat="45.801" lon="6.1052">
        <ele>1549.3</ele>
        <time>2012-08-07T08:00:20Z</time>
      </trkpt>
      <trkpt lat="45.80093" lon="6.10562">
        <ele>1552.19</ele>
        <time>2012-08-07T08:00:23Z</time>
      </trkpt>
      <trkpt lat="45.80091" lon="6.10576">
        <ele>1553.63</ele>
        <time>2012-08-07T08:00:24Z</time>
      </trkpt>
      <trkpt lat="45.8009" lon="6.1059">
        <ele>1554.59</ele>
        <time>2012-08-07T08:00:25Z</time>
      </trkpt>
      <trkpt lat="45.80092" lon="6.10604">
        <ele>1555.55</ele>
        <time>2012-08-07T08:00:26Z</time>
      </trkpt>
      <trkpt lat="45.80095" lon="6.10616">
        <ele>1557.47</ele>
        <time>2012-08-07T08:00:27Z</time>
      </trkpt>
      <trkpt lat="45.801" lon="6.10627">
        <ele>1559.88</ele>
        <time>2012-08-07T08:00:28Z</time>
      </trkpt>
      <trkpt lat="45.80105" lon="6.10635">
        <ele>1560.36</ele>
        <time>2012-08-07T08:00:29Z</time>
      </trkpt>
      <trkpt lat="45.80112" lon="6.10643">
        <ele>1561.8</ele>
        <time>2012-08-07T08:00:30Z</time>
      </trkpt>
      <trkpt lat="45.80119" lon="6.10649">
        <ele>1562.28</ele>
        <time>2012-08-07T08:00:31Z</time>
      </trkpt>
      <trkpt lat="45.80142" lon="6.10671">
        <ele>1566.12</ele>
        <time>2012-08-07T08:00:34Z</time>
      </trkpt>
      <trkpt lat="45.80149" lon="6.10682">
        <ele>1567.09</ele>
        <time>2012-08-07T08:00:35Z</time>
      </trkpt>
      <trkpt lat="45.80155" lon="6.10694">
        <ele>1569.01</ele>
        <time>2012-08-07T08:00:36Z</time>
      </trkpt>
      <trkpt lat="45.80172" lon="6.10733">
        <ele>1572.37</ele>
        <time>2012-08-07T08:00:39Z</time>
      </trkpt>
      <trkpt lat="45.8019" lon="6.10772">
        <ele>1575.26</ele>
        <time>2012-08-07T08:00:42Z</time>
      </trkpt>
      <trkpt lat="45.80212" lon="6.10841">
        <ele>1578.14</ele>
        <time>2012-08-07T08:00:48Z</time>
      </trkpt>
      <trkpt lat="45.80213" lon="6.10853">
        <ele>1577.66</ele>
        <time>2012-08-07T08:00:49Z</time>
      </trkpt>
      <trkpt lat="45.80213" lon="6.10865">
        <ele>1578.14</ele>
        <time>2012-08-07T08:00:50Z</time>
      </trkpt>
      <trkpt lat="45.80212" lon="6.10876">
        <ele>1578.62</ele>
        <time>2012-08-07T08:00:51Z</time>
      </trkpt>
      <trkpt lat="45.8021" lon="6.10884">
        <ele>1579.1</ele>
        <time>2012-08-07T08:00:52Z</time>
      </trkpt>
      <trkpt lat="45.80207" lon="6.10889">
        <ele>1579.1</ele>
        <time>2012-08-07T08:00:53Z</time>
      </trkpt>
      <trkpt lat="45.80203" lon="6.10892">
        <ele>1580.06</ele>
        <time>2012-08-07T08:00:54Z</time>
      </trkpt>
      <trkpt lat="45.80199" lon="6.10892">
        <ele>1580.54</ele>
        <time>2012-08-07T08:00:55Z</time>
      </trkpt>
      <trkpt lat="45.80195" lon="6.10891">
        <ele>1580.54</ele>
        <time>2012-08-07T08:00:56Z</time>
      </trkpt>
      <trkpt lat="45.80191" lon="6.10889">
        <ele>1581.03</ele>
        <time>2012-08-07T08:00:57Z</time>
      </trkpt>
      <trkpt lat="45.80187" lon="6.10886">
        <ele>1581.51</ele>
        <time>2012-08-07T08:00:58Z</time>
      </trkpt>
      <trkpt lat="45.80182" lon="6.10882">
        <ele>1583.43</ele>
        <time>2012-08-07T08:00:59Z</time>
      </trkpt>
      <trkpt lat="45.80168" lon="6.10869">
        <ele>1584.87</ele>
        <time>2012-08-07T08:01:02Z</time>
      </trkpt>
      <trkpt lat="45.80162" lon="6.10865">
        <ele>1585.83</ele>
        <time>2012-08-07T08:01:03Z</time>
      </trkpt>
      <trkpt lat="45.80141" lon="6.10851">
        <ele>1588.72</ele>
        <time>2012-08-07T08:01:07Z</time>
      </trkpt>
      <trkpt lat="45.80122" lon="6.10837">
        <ele>1591.12</ele>
        <time>2012-08-07T08:01:11Z</time>
      </trkpt>
      <trkpt lat="45.80106" lon="6.10831">
        <ele>1593.52</ele>
        <time>2012-08-07T08:01:14Z</time>
      </trkpt>
      <trkpt lat="45.80087" lon="6.10828">
        <ele>1597.37</ele>
        <time>2012-08-07T08:01:18Z</time>
      </trkpt>
      <trkpt lat="45.80068" lon="6.10823">
        <ele>1600.25</ele>
        <time>2012-08-07T08:01:23Z</time>
      </trkpt>
      <trkpt lat="45.80053" lon="6.10817">
        <ele>1603.62</ele>
        <time>2012-08-07T08:01:27Z</time>
      </trkpt>
      <trkpt lat="45.80047" lon="6.10814">
        <ele>1605.06</ele>
        <time>2012-08-07T08:01:34Z</time>
      </trkpt>
      <trkpt lat="45.80046" lon="6.10815">
        <ele>1605.06</ele>
        <time>2012-08-07T08:01:36Z</time>
      </trkpt>
      <trkpt lat="45.80044" lon="6.10815">
        <ele>1605.54</ele>
        <time>2012-08-07T08:01:48Z</time>
      </trkpt>
      <trkpt lat="45.80041" lon="6.10814">
        <ele>1605.54</ele>
        <time>2012-08-07T08:01:58Z</time>
      </trkpt>
      <trkpt lat="45.80026" lon="6.10804">
        <ele>1609.38</ele>
        <time>2012-08-07T08:02:05Z</time>
      </trkpt>
      <trkpt lat="45.80011" lon="6.10794">
        <ele>1611.79</ele>
        <time>2012-08-07T08:02:09Z</time>
      </trkpt>
      <trkpt lat="45.80008" lon="6.10791">
        <ele>1612.27</ele>
        <time>2012-08-07T08:02:10Z</time>
      </trkpt>
      <trkpt lat="45.7999" lon="6.10771">
        <ele>1615.63</ele>
        <time>2012-08-07T08:02:15Z</time>
      </trkpt>
      <trkpt lat="45.79983" lon="6.10766">
        <ele>1617.07</ele>
        <time>2012-08-07T08:02:17Z</time>
      </trkpt>
      <trkpt lat="45.79964" lon="6.10756">
        <ele>1619.96</ele>
        <time>2012-08-07T08:02:21Z</time>
      </trkpt>
      <trkpt lat="45.7996" lon="6.10754">
        <ele>1619.96</ele>
        <time>2012-08-07T08:02:22Z</time>
      </trkpt>
      <trkpt lat="45.79946" lon="6.1075">
        <ele>1622.36</ele>
        <time>2012-08-07T08:02:25Z</time>
      </trkpt>
      <trkpt lat="45.79942" lon="6.10749">
        <ele>1622.84</ele>
        <time>2012-08-07T08:02:26Z</time>
      </trkpt>
      <trkpt lat="45.79932" lon="6.10748">
        <ele>1624.28</ele>
        <time>2012-08-07T08:02:28Z</time>
      </trkpt>
      <trkpt lat="45.79922" lon="6.10745">
        <ele>1624.77</ele>
        <time>2012-08-07T08:02:30Z</time>
      </trkpt>
      <trkpt lat="45.79918" lon="6.10743">
        <ele>1625.25</ele>
        <time>2012-08-07T08:02:31Z</time>
      </trkpt>
      <trkpt lat="45.79915" lon="6.10741">
        <ele>1625.73</ele>
        <time>2012-08-07T08:02:32Z</time>
      </trkpt>
      <trkpt lat="45.79912" lon="6.10741">
        <ele>1625.73</ele>
        <time>2012-08-07T08:02:33Z</time>
      </trkpt>
      <trkpt lat="45.79909" lon="6.10743">
        <ele>1625.73</ele>
        <time>2012-08-07T08:02:34Z</time>
      </trkpt>
      <trkpt lat="45.79906" lon="6.10747">
        <ele>1626.21</ele>
        <time>2012-08-07T08:02:35Z</time>
      </trkpt>
      <trkpt lat="45.79904" lon="6.10752">
        <ele>1625.25</ele>
        <time>2012-08-07T08:02:36Z</time>
      </trkpt>
      <trkpt lat="45.79903" lon="6.10757">
        <ele>1625.25</ele>
        <time>2012-08-07T08:02:37Z</time>
      </trkpt>
      <trkpt lat="45.79904" lon="6.10763">
        <ele>1624.77</ele>
        <time>2012-08-07T08:02:38Z</time>
      </trkpt>
      <trkpt lat="45.79905" lon="6.10768">
        <ele>1623.8</ele>
        <time>2012-08-07T08:02:39Z</time>
      </trkpt>
      <trkpt lat="45.79908" lon="6.10771">
        <ele>1624.28</ele>
        <time>2012-08-07T08:02:40Z</time>
      </trkpt>
      <trkpt lat="45.79911" lon="6.10774">
        <ele>1623.8</ele>
        <time>2012-08-07T08:02:41Z</time>
      </trkpt>
      <trkpt lat="45.79914" lon="6.10775">
        <ele>1623.8</ele>
        <time>2012-08-07T08:02:42Z</time>
      </trkpt>
      <trkpt lat="45.79918" lon="6.10775">
        <ele>1623.8</ele>
        <time>2012-08-07T08:02:43Z</time>
      </trkpt>
      <trkpt lat="45.79921" lon="6.10774">
        <ele>1623.8</ele>
        <time>2012-08-07T08:02:44Z</time>
      </trkpt>
      <trkpt lat="45.79923" lon="6.10772">
        <ele>1623.8</ele>
        <time>2012-08-07T08:02:45Z</time>
      </trkpt>
      <trkpt lat="45.79924" lon="6.10772">
        <ele>1624.28</ele>
        <time>2012-08-07T08:02:53Z</time>
      </trkpt>
      <trkpt lat="45.79924" lon="6.10772">
        <ele>1622.84</ele>
        <time>2012-08-07T08:02:57Z</time>
      </trkpt>
      <trkpt lat="45.79927" lon="6.10769">
        <ele>1625.25</ele>
        <time>2012-08-07T08:20:34Z</time>
      </trkpt>
      <trkpt lat="45.79926" lon="6.10766">
        <ele>1624.28</ele>
        <time>2012-08-07T08:20:35Z</time>
      </trkpt>
      <trkpt lat="45.79915" lon="6.10748">
        <ele>1626.21</ele>
        <time>2012-08-07T08:20:38Z</time>
      </trkpt>
      <trkpt lat="45.7989" lon="6.10723">
        <ele>1634.86</ele>
        <time>2012-08-07T08:20:42Z</time>
      </trkpt>
      <trkpt lat="45.7986" lon="6.10707">
        <ele>1637.26</ele>
        <time>2012-08-07T08:20:44Z</time>
      </trkpt>
      <trkpt lat="45.79849" lon="6.10705">
        <ele>1637.26</ele>
        <time>2012-08-07T08:20:45Z</time>
      </trkpt>
      <trkpt lat="45.79839" lon="6.10707">
        <ele>1639.19</ele>
        <time>2012-08-07T08:20:46Z</time>
      </trkpt>
      <trkpt lat="45.79829" lon="6.10712">
        <ele>1639.19</ele>
        <time>2012-08-07T08:20:47Z</time>
      </trkpt>
      <trkpt lat="45.79808" lon="6.10723">
        <ele>1643.51</ele>
        <time>2012-08-07T08:20:49Z</time>
      </trkpt>
      <trkpt lat="45.79795" lon="6.10724">
        <ele>1644.95</ele>
        <time>2012-08-07T08:20:50Z</time>
      </trkpt>
      <trkpt lat="45.79782" lon="6.10721">
        <ele>1644.95</ele>
        <time>2012-08-07T08:20:51Z</time>
      </trkpt>
      <trkpt lat="45.7977" lon="6.10716">
        <ele>1645.91</ele>
        <time>2012-08-07T08:20:52Z</time>
      </trkpt>
      <trkpt lat="45.79759" lon="6.10709">
        <ele>1645.91</ele>
        <time>2012-08-07T08:20:53Z</time>
      </trkpt>
      <trkpt lat="45.79749" lon="6.10702">
        <ele>1647.36</ele>
        <time>2012-08-07T08:20:54Z</time>
      </trkpt>
      <trkpt lat="45.79669" lon="6.10642">
        <ele>1650.24</ele>
        <time>2012-08-07T08:21:02Z</time>
      </trkpt>
      <trkpt lat="45.79661" lon="6.1063">
        <ele>1650.24</ele>
        <time>2012-08-07T08:21:03Z</time>
      </trkpt>
      <trkpt lat="45.79654" lon="6.10616">
        <ele>1649.76</ele>
        <time>2012-08-07T08:21:04Z</time>
      </trkpt>
      <trkpt lat="45.79647" lon="6.10602">
        <ele>1648.32</ele>
        <time>2012-08-07T08:21:05Z</time>
      </trkpt>
      <trkpt lat="45.79641" lon="6.10586">
        <ele>1648.32</ele>
        <time>2012-08-07T08:21:06Z</time>
      </trkpt>
      <trkpt lat="45.79636" lon="6.10569">
        <ele>1646.88</ele>
        <time>2012-08-07T08:21:07Z</time>
      </trkpt>
      <trkpt lat="45.7963" lon="6.10552">
        <ele>1650.24</ele>
        <time>2012-08-07T08:21:08Z</time>
      </trkpt>
      <trkpt lat="45.79596" lon="6.10458">
        <ele>1649.76</ele>
        <time>2012-08-07T08:21:13Z</time>
      </trkpt>
      <trkpt lat="45.79589" lon="6.10435">
        <ele>1649.28</ele>
        <time>2012-08-07T08:21:14Z</time>
      </trkpt>
      <trkpt lat="45.79583" lon="6.10411">
        <ele>1649.28</ele>
        <time>2012-08-07T08:21:15Z</time>
      </trkpt>
      <trkpt lat="45.79576" lon="6.10388">
        <ele>1649.28</ele>
        <time>2012-08-07T08:21:16Z</time>
      </trkpt>
      <trkpt lat="45.79566" lon="6.10367">
        <ele>1648.8</ele>
        <time>2012-08-07T08:21:17Z</time>
      </trkpt>
      <trkpt lat="45.79555" lon="6.10347">
        <ele>1648.32</ele>
        <time>2012-08-07T08:21:18Z</time>
      </trkpt>
      <trkpt lat="45.79541" lon="6.10331">
        <ele>1648.8</ele>
        <time>2012-08-07T08:21:19Z</time>
      </trkpt>
      <trkpt lat="45.79525" lon="6.10317">
        <ele>1648.32</ele>
        <time>2012-08-07T08:21:20Z</time>
      </trkpt>
      <trkpt lat="45.79507" lon="6.10306">
        <ele>1647.84</ele>
        <time>2012-08-07T08:21:21Z</time>
      </trkpt>
      <trkpt lat="45.79488" lon="6.10296">
        <ele>1646.88</ele>
        <time>2012-08-07T08:21:22Z</time>
      </trkpt>
      <trkpt lat="45.79454" lon="6.10275">
        <ele>1644.95</ele>
        <time>2012-08-07T08:21:24Z</time>
      </trkpt>
      <trkpt lat="45.7944" lon="6.1026">
        <ele>1644.47</ele>
        <time>2012-08-07T08:21:25Z</time>
      </trkpt>
      <trkpt lat="45.79427" lon="6.10246">
        <ele>1644.47</ele>
        <time>2012-08-07T08:21:26Z</time>
      </trkpt>
      <trkpt lat="45.79416" lon="6.10235">
        <ele>1642.55</ele>
        <time>2012-08-07T08:21:27Z</time>
      </trkpt>
      <trkpt lat="45.79405" lon="6.10227">
        <ele>1641.59</ele>
        <time>2012-08-07T08:21:28Z</time>
      </trkpt>
      <trkpt lat="45.79393" lon="6.10222">
        <ele>1642.07</ele>
        <time>2012-08-07T08:21:29Z</time>
      </trkpt>
      <trkpt lat="45.79381" lon="6.10221">
        <ele>1641.59</ele>
        <time>2012-08-07T08:21:30Z</time>
      </trkpt>
      <trkpt lat="45.79369" lon="6.10223">
        <ele>1641.11</ele>
        <time>2012-08-07T08:21:31Z</time>
      </trkpt>
      <trkpt lat="45.79358" lon="6.10226">
        <ele>1641.11</ele>
        <time>2012-08-07T08:21:32Z</time>
      </trkpt>
      <trkpt lat="45.79347" lon="6.10227">
        <ele>1640.15</ele>
        <time>2012-08-07T08:21:33Z</time>
      </trkpt>
      <trkpt lat="45.79335" lon="6.10227">
        <ele>1640.63</ele>
        <time>2012-08-07T08:21:34Z</time>
      </trkpt>
      <trkpt lat="45.79322" lon="6.10224">
        <ele>1641.59</ele>
        <time>2012-08-07T08:21:35Z</time>
      </trkpt>
      <trkpt lat="45.7931" lon="6.10219">
        <ele>1641.11</ele>
        <time>2012-08-07T08:21:36Z</time>
      </trkpt>
      <trkpt lat="45.79298" lon="6.10214">
        <ele>1640.15</ele>
        <time>2012-08-07T08:21:37Z</time>
      </trkpt>
      <trkpt lat="45.79264" lon="6.10201">
        <ele>1637.74</ele>
        <time>2012-08-07T08:21:41Z</time>
      </trkpt>
      <trkpt lat="45.79258" lon="6.10201">
        <ele>1636.78</ele>
        <time>2012-08-07T08:21:42Z</time>
      </trkpt>
      <trkpt lat="45.79254" lon="6.10203">
        <ele>1636.78</ele>
        <time>2012-08-07T08:21:43Z</time>
      </trkpt>
      <trkpt lat="45.7925" lon="6.10208">
        <ele>1636.3</ele>
        <time>2012-08-07T08:21:44Z</time>
      </trkpt>
      <trkpt lat="45.79248" lon="6.10215">
        <ele>1636.78</ele>
        <time>2012-08-07T08:21:45Z</time>
      </trkpt>
      <trkpt lat="45.79248" lon="6.10223">
        <ele>1636.3</ele>
        <time>2012-08-07T08:21:46Z</time>
      </trkpt>
      <trkpt lat="45.79251" lon="6.10233">
        <ele>1636.3</ele>
        <time>2012-08-07T08:21:47Z</time>
      </trkpt>
      <trkpt lat="45.79257" lon="6.10243">
        <ele>1636.3</ele>
        <time>2012-08-07T08:21:48Z</time>
      </trkpt>
      <trkpt lat="45.79267" lon="6.10254">
        <ele>1637.26</ele>
        <time>2012-08-07T08:21:49Z</time>
      </trkpt>
      <trkpt lat="45.7928" lon="6.10266">
        <ele>1637.74</ele>
        <time>2012-08-07T08:21:50Z</time>
      </trkpt>
      <trkpt lat="45.79334" lon="6.10315">
        <ele>1632.94</ele>
        <time>2012-08-07T08:21:54Z</time>
      </trkpt>
      <trkpt lat="45.7936" lon="6.10343">
        <ele>1630.53</ele>
        <time>2012-08-07T08:21:56Z</time>
      </trkpt>
      <trkpt lat="45.7937" lon="6.1036">
        <ele>1627.17</ele>
        <time>2012-08-07T08:21:57Z</time>
      </trkpt>
      <trkpt lat="45.79388" lon="6.10392">
        <ele>1624.28</ele>
        <time>2012-08-07T08:21:59Z</time>
      </trkpt>
      <trkpt lat="45.79401" lon="6.10403">
        <ele>1623.8</ele>
        <time>2012-08-07T08:22:00Z</time>
      </trkpt>
      <trkpt lat="45.79414" lon="6.10412">
        <ele>1622.84</ele>
        <time>2012-08-07T08:22:01Z</time>
      </trkpt>
      <trkpt lat="45.79427" lon="6.10425">
        <ele>1622.36</ele>
        <time>2012-08-07T08:22:02Z</time>
      </trkpt>
      <trkpt lat="45.79439" lon="6.10443">
        <ele>1621.88</ele>
        <time>2012-08-07T08:22:03Z</time>
      </trkpt>
      <trkpt lat="45.79451" lon="6.10465">
        <ele>1620.92</ele>
        <time>2012-08-07T08:22:04Z</time>
      </trkpt>
      <trkpt lat="45.79462" lon="6.10491">
        <ele>1619.96</ele>
        <time>2012-08-07T08:22:05Z</time>
      </trkpt>
      <trkpt lat="45.79471" lon="6.1052">
        <ele>1618.52</ele>
        <time>2012-08-07T08:22:06Z</time>
      </trkpt>
      <trkpt lat="45.79481" lon="6.1055">
        <ele>1616.59</ele>
        <time>2012-08-07T08:22:07Z</time>
      </trkpt>
      <trkpt lat="45.79501" lon="6.10609">
        <ele>1611.31</ele>
        <time>2012-08-07T08:22:09Z</time>
      </trkpt>
      <trkpt lat="45.79511" lon="6.10632">
        <ele>1605.54</ele>
        <time>2012-08-07T08:22:10Z</time>
      </trkpt>
      <trkpt lat="45.79519" lon="6.10652">
        <ele>1601.69</ele>
        <time>2012-08-07T08:22:11Z</time>
      </trkpt>
      <trkpt lat="45.79529" lon="6.10686">
        <ele>1600.25</ele>
        <time>2012-08-07T08:22:13Z</time>
      </trkpt>
      <trkpt lat="45.7953" lon="6.10703">
        <ele>1598.81</ele>
        <time>2012-08-07T08:22:14Z</time>
      </trkpt>
      <trkpt lat="45.79529" lon="6.1072">
        <ele>1598.33</ele>
        <time>2012-08-07T08:22:15Z</time>
      </trkpt>
      <trkpt lat="45.79523" lon="6.10735">
        <ele>1596.41</ele>
        <time>2012-08-07T08:22:16Z</time>
      </trkpt>
      <trkpt lat="45.79514" lon="6.10747">
        <ele>1595.45</ele>
        <time>2012-08-07T08:22:17Z</time>
      </trkpt>
      <trkpt lat="45.79501" lon="6.10755">
        <ele>1594.96</ele>
        <time>2012-08-07T08:22:18Z</time>
      </trkpt>
      <trkpt lat="45.79485" lon="6.10761">
        <ele>1594.48</ele>
        <time>2012-08-07T08:22:19Z</time>
      </trkpt>
      <trkpt lat="45.7945" lon="6.10774">
        <ele>1592.56</ele>
        <time>2012-08-07T08:22:21Z</time>
      </trkpt>
      <trkpt lat="45.79415" lon="6.10788">
        <ele>1587.75</ele>
        <time>2012-08-07T08:22:23Z</time>
      </trkpt>
      <trkpt lat="45.79386" lon="6.10801">
        <ele>1582.95</ele>
        <time>2012-08-07T08:22:25Z</time>
      </trkpt>
      <trkpt lat="45.79375" lon="6.10809">
        <ele>1581.51</ele>
        <time>2012-08-07T08:22:26Z</time>
      </trkpt>
      <trkpt lat="45.79364" lon="6.10823">
        <ele>1581.51</ele>
        <time>2012-08-07T08:22:27Z</time>
      </trkpt>
      <trkpt lat="45.79354" lon="6.1084">
        <ele>1581.51</ele>
        <time>2012-08-07T08:22:28Z</time>
      </trkpt>
      <trkpt lat="45.79336" lon="6.10876">
        <ele>1578.14</ele>
        <time>2012-08-07T08:22:30Z</time>
      </trkpt>
      <trkpt lat="45.79319" lon="6.10906">
        <ele>1576.22</ele>
        <time>2012-08-07T08:22:32Z</time>
      </trkpt>
      <trkpt lat="45.79307" lon="6.10938">
        <ele>1573.33</ele>
        <time>2012-08-07T08:22:34Z</time>
      </trkpt>
      <trkpt lat="45.79303" lon="6.10958">
        <ele>1573.82</ele>
        <time>2012-08-07T08:22:35Z</time>
      </trkpt>
      <trkpt lat="45.79296" lon="6.11027">
        <ele>1572.37</ele>
        <time>2012-08-07T08:22:38Z</time>
      </trkpt>
      <trkpt lat="45.79297" lon="6.11051">
        <ele>1571.41</ele>
        <time>2012-08-07T08:22:39Z</time>
      </trkpt>
      <trkpt lat="45.79301" lon="6.11129">
        <ele>1567.09</ele>
        <time>2012-08-07T08:22:43Z</time>
      </trkpt>
      <trkpt lat="45.79299" lon="6.11143">
        <ele>1565.64</ele>
        <time>2012-08-07T08:22:44Z</time>
      </trkpt>
      <trkpt lat="45.79295" lon="6.11154">
        <ele>1564.2</ele>
        <time>2012-08-07T08:22:45Z</time>
      </trkpt>
      <trkpt lat="45.79287" lon="6.11162">
        <ele>1563.24</ele>
        <time>2012-08-07T08:22:46Z</time>
      </trkpt>
      <trkpt lat="45.79277" lon="6.11166">
        <ele>1563.24</ele>
        <time>2012-08-07T08:22:47Z</time>
      </trkpt>
      <trkpt lat="45.79265" lon="6.11168">
        <ele>1562.28</ele>
        <time>2012-08-07T08:22:48Z</time>
      </trkpt>
      <trkpt lat="45.79253" lon="6.11168">
        <ele>1560.84</ele>
        <time>2012-08-07T08:22:49Z</time>
      </trkpt>
      <trkpt lat="45.79241" lon="6.11164">
        <ele>1559.4</ele>
        <time>2012-08-07T08:22:50Z</time>
      </trkpt>
      <trkpt lat="45.79229" lon="6.11154">
        <ele>1558.92</ele>
        <time>2012-08-07T08:22:51Z</time>
      </trkpt>
      <trkpt lat="45.79215" lon="6.11142">
        <ele>1559.4</ele>
        <time>2012-08-07T08:22:52Z</time>
      </trkpt>
      <trkpt lat="45.79201" lon="6.11131">
        <ele>1558.43</ele>
        <time>2012-08-07T08:22:53Z</time>
      </trkpt>
      <trkpt lat="45.79184" lon="6.11123">
        <ele>1556.99</ele>
        <time>2012-08-07T08:22:54Z</time>
      </trkpt>
      <trkpt lat="45.79165" lon="6.11118">
        <ele>1556.51</ele>
        <time>2012-08-07T08:22:55Z</time>
      </trkpt>
      <trkpt lat="45.79146" lon="6.11115">
        <ele>1555.07</ele>
        <time>2012-08-07T08:22:56Z</time>
      </trkpt>
      <trkpt lat="45.79129" lon="6.11111">
        <ele>1551.71</ele>
        <time>2012-08-07T08:22:57Z</time>
      </trkpt>
      <trkpt lat="45.79113" lon="6.11108">
        <ele>1547.86</ele>
        <time>2012-08-07T08:22:58Z</time>
      </trkpt>
      <trkpt lat="45.79099" lon="6.11101">
        <ele>1545.94</ele>
        <time>2012-08-07T08:22:59Z</time>
      </trkpt>
      <trkpt lat="45.79067" lon="6.11084">
        <ele>1545.46</ele>
        <time>2012-08-07T08:23:01Z</time>
      </trkpt>
      <trkpt lat="45.79047" lon="6.1108">
        <ele>1544.98</ele>
        <time>2012-08-07T08:23:02Z</time>
      </trkpt>
      <trkpt lat="45.79029" lon="6.11078">
        <ele>1541.13</ele>
        <time>2012-08-07T08:23:03Z</time>
      </trkpt>
      <trkpt lat="45.79" lon="6.11074">
        <ele>1536.8</ele>
        <time>2012-08-07T08:23:05Z</time>
      </trkpt>
      <trkpt lat="45.78988" lon="6.1107">
        <ele>1535.36</ele>
        <time>2012-08-07T08:23:06Z</time>
      </trkpt>
      <trkpt lat="45.78977" lon="6.11062">
        <ele>1533.92</ele>
        <time>2012-08-07T08:23:07Z</time>
      </trkpt>
      <trkpt lat="45.78964" lon="6.1105">
        <ele>1533.44</ele>
        <time>2012-08-07T08:23:08Z</time>
      </trkpt>
      <trkpt lat="45.78951" lon="6.11038">
        <ele>1532.48</ele>
        <time>2012-08-07T08:23:09Z</time>
      </trkpt>
      <trkpt lat="45.7894" lon="6.11027">
        <ele>1530.08</ele>
        <time>2012-08-07T08:23:10Z</time>
      </trkpt>
      <trkpt lat="45.78929" lon="6.11019">
        <ele>1527.67</ele>
        <time>2012-08-07T08:23:11Z</time>
      </trkpt>
      <trkpt lat="45.78919" lon="6.11015">
        <ele>1526.23</ele>
        <time>2012-08-07T08:23:12Z</time>
      </trkpt>
      <trkpt lat="45.78908" lon="6.11018">
        <ele>1525.27</ele>
        <time>2012-08-07T08:23:13Z</time>
      </trkpt>
      <trkpt lat="45.78897" lon="6.11027">
        <ele>1524.31</ele>
        <time>2012-08-07T08:23:14Z</time>
      </trkpt>
      <trkpt lat="45.78889" lon="6.11038">
        <ele>1522.87</ele>
        <time>2012-08-07T08:23:15Z</time>
      </trkpt>
      <trkpt lat="45.78883" lon="6.11048">
        <ele>1520.94</ele>
        <time>2012-08-07T08:23:16Z</time>
      </trkpt>
      <trkpt lat="45.78877" lon="6.11054">
        <ele>1519.98</ele>
        <time>2012-08-07T08:23:17Z</time>
      </trkpt>
      <trkpt lat="45.78867" lon="6.11058">
        <ele>1520.94</ele>
        <time>2012-08-07T08:23:18Z</time>
      </trkpt>
      <trkpt lat="45.78853" lon="6.11061">
        <ele>1520.94</ele>
        <time>2012-08-07T08:23:19Z</time>
      </trkpt>
      <trkpt lat="45.78837" lon="6.11062">
        <ele>1519.98</ele>
        <time>2012-08-07T08:23:20Z</time>
      </trkpt>
      <trkpt lat="45.7882" lon="6.11061">
        <ele>1519.98</ele>
        <time>2012-08-07T08:23:21Z</time>
      </trkpt>
      <trkpt lat="45.78803" lon="6.11062">
        <ele>1516.62</ele>
        <time>2012-08-07T08:23:22Z</time>
      </trkpt>
      <trkpt lat="45.78779" lon="6.11063">
        <ele>1512.29</ele>
        <time>2012-08-07T08:23:24Z</time>
      </trkpt>
      <trkpt lat="45.7877" lon="6.11059">
        <ele>1511.33</ele>
        <time>2012-08-07T08:23:25Z</time>
      </trkpt>
      <trkpt lat="45.78761" lon="6.11051">
        <ele>1510.37</ele>
        <time>2012-08-07T08:23:26Z</time>
      </trkpt>
      <trkpt lat="45.78751" lon="6.11046">
        <ele>1509.89</ele>
        <time>2012-08-07T08:23:27Z</time>
      </trkpt>
      <trkpt lat="45.78738" lon="6.11047">
        <ele>1509.41</ele>
        <time>2012-08-07T08:23:28Z</time>
      </trkpt>
      <trkpt lat="45.78723" lon="6.11051">
        <ele>1509.41</ele>
        <time>2012-08-07T08:23:29Z</time>
      </trkpt>
      <trkpt lat="45.78708" lon="6.1105">
        <ele>1507.48</ele>
        <time>2012-08-07T08:23:30Z</time>
      </trkpt>
      <trkpt lat="45.78693" lon="6.11047">
        <ele>1505.56</ele>
        <time>2012-08-07T08:23:31Z</time>
      </trkpt>
      <trkpt lat="45.78678" lon="6.11048">
        <ele>1504.6</ele>
        <time>2012-08-07T08:23:32Z</time>
      </trkpt>
      <trkpt lat="45.78662" lon="6.11053">
        <ele>1503.64</ele>
        <time>2012-08-07T08:23:33Z</time>
      </trkpt>
      <trkpt lat="45.78644" lon="6.11061">
        <ele>1502.68</ele>
        <time>2012-08-07T08:23:34Z</time>
      </trkpt>
      <trkpt lat="45.78612" lon="6.11075">
        <ele>1498.35</ele>
        <time>2012-08-07T08:23:36Z</time>
      </trkpt>
      <trkpt lat="45.78597" lon="6.11078">
        <ele>1496.43</ele>
        <time>2012-08-07T08:23:37Z</time>
      </trkpt>
      <trkpt lat="45.78584" lon="6.11079">
        <ele>1494.51</ele>
        <time>2012-08-07T08:23:38Z</time>
      </trkpt>
      <trkpt lat="45.78562" lon="6.11081">
        <ele>1491.14</ele>
        <time>2012-08-07T08:23:40Z</time>
      </trkpt>
      <trkpt lat="45.78554" lon="6.11084">
        <ele>1490.18</ele>
        <time>2012-08-07T08:23:41Z</time>
      </trkpt>
      <trkpt lat="45.78547" lon="6.11089">
        <ele>1489.7</ele>
        <time>2012-08-07T08:23:42Z</time>
      </trkpt>
      <trkpt lat="45.78543" lon="6.11098">
        <ele>1488.74</ele>
        <time>2012-08-07T08:23:43Z</time>
      </trkpt>
      <trkpt lat="45.78542" lon="6.11109">
        <ele>1488.26</ele>
        <time>2012-08-07T08:23:44Z</time>
      </trkpt>
      <trkpt lat="45.78545" lon="6.11121">
        <ele>1487.78</ele>
        <time>2012-08-07T08:23:45Z</time>
      </trkpt>
      <trkpt lat="45.7855" lon="6.11133">
        <ele>1488.26</ele>
        <time>2012-08-07T08:23:46Z</time>
      </trkpt>
      <trkpt lat="45.78558" lon="6.11145">
        <ele>1488.26</ele>
        <time>2012-08-07T08:23:47Z</time>
      </trkpt>
      <trkpt lat="45.78568" lon="6.11156">
        <ele>1486.34</ele>
        <time>2012-08-07T08:23:48Z</time>
      </trkpt>
      <trkpt lat="45.78576" lon="6.11168">
        <ele>1485.37</ele>
        <time>2012-08-07T08:23:49Z</time>
      </trkpt>
      <trkpt lat="45.78582" lon="6.11182">
        <ele>1484.41</ele>
        <time>2012-08-07T08:23:50Z</time>
      </trkpt>
      <trkpt lat="45.78586" lon="6.11199">
        <ele>1483.45</ele>
        <time>2012-08-07T08:23:51Z</time>
      </trkpt>
      <trkpt lat="45.78586" lon="6.11216">
        <ele>1483.45</ele>
        <time>2012-08-07T08:23:52Z</time>
      </trkpt>
      <trkpt lat="45.78585" lon="6.11233">
        <ele>1482.49</ele>
        <time>2012-08-07T08:23:53Z</time>
      </trkpt>
      <trkpt lat="45.78583" lon="6.1125">
        <ele>1482.01</ele>
        <time>2012-08-07T08:23:54Z</time>
      </trkpt>
      <trkpt lat="45.78576" lon="6.11298">
        <ele>1479.13</ele>
        <time>2012-08-07T08:23:57Z</time>
      </trkpt>
      <trkpt lat="45.78576" lon="6.11314">
        <ele>1477.2</ele>
        <time>2012-08-07T08:23:58Z</time>
      </trkpt>
      <trkpt lat="45.78579" lon="6.11329">
        <ele>1476.72</ele>
        <time>2012-08-07T08:23:59Z</time>
      </trkpt>
      <trkpt lat="45.78584" lon="6.11342">
        <ele>1474.8</ele>
        <time>2012-08-07T08:24:00Z</time>
      </trkpt>
      <trkpt lat="45.78586" lon="6.11357">
        <ele>1473.84</ele>
        <time>2012-08-07T08:24:01Z</time>
      </trkpt>
      <trkpt lat="45.78584" lon="6.11372">
        <ele>1474.32</ele>
        <time>2012-08-07T08:24:02Z</time>
      </trkpt>
      <trkpt lat="45.7858" lon="6.1139">
        <ele>1473.84</ele>
        <time>2012-08-07T08:24:03Z</time>
      </trkpt>
      <trkpt lat="45.78579" lon="6.11408">
        <ele>1471.92</ele>
        <time>2012-08-07T08:24:04Z</time>
      </trkpt>
      <trkpt lat="45.7858" lon="6.11424">
        <ele>1469.99</ele>
        <time>2012-08-07T08:24:05Z</time>
      </trkpt>
      <trkpt lat="45.78579" lon="6.11437">
        <ele>1468.55</ele>
        <time>2012-08-07T08:24:06Z</time>
      </trkpt>
      <trkpt lat="45.78577" lon="6.11447">
        <ele>1467.59</ele>
        <time>2012-08-07T08:24:07Z</time>
      </trkpt>
      <trkpt lat="45.78572" lon="6.11454">
        <ele>1466.63</ele>
        <time>2012-08-07T08:24:08Z</time>
      </trkpt>
      <trkpt lat="45.78563" lon="6.11456">
        <ele>1466.15</ele>
        <time>2012-08-07T08:24:09Z</time>
      </trkpt>
      <trkpt lat="45.78552" lon="6.11453">
        <ele>1466.15</ele>
        <time>2012-08-07T08:24:10Z</time>
      </trkpt>
      <trkpt lat="45.78538" lon="6.11449">
        <ele>1465.67</ele>
        <time>2012-08-07T08:24:11Z</time>
      </trkpt>
      <trkpt lat="45.78523" lon="6.11448">
        <ele>1464.71</ele>
        <time>2012-08-07T08:24:12Z</time>
      </trkpt>
      <trkpt lat="45.78508" lon="6.11446">
        <ele>1462.78</ele>
        <time>2012-08-07T08:24:13Z</time>
      </trkpt>
      <trkpt lat="45.78496" lon="6.11443">
        <ele>1460.38</ele>
        <time>2012-08-07T08:24:14Z</time>
      </trkpt>
      <trkpt lat="45.78484" lon="6.11436">
        <ele>1459.42</ele>
        <time>2012-08-07T08:24:15Z</time>
      </trkpt>
      <trkpt lat="45.78474" lon="6.11425">
        <ele>1457.98</ele>
        <time>2012-08-07T08:24:16Z</time>
      </trkpt>
      <trkpt lat="45.78464" lon="6.11416">
        <ele>1457.02</ele>
        <time>2012-08-07T08:24:17Z</time>
      </trkpt>
      <trkpt lat="45.78453" lon="6.11411">
        <ele>1456.05</ele>
        <time>2012-08-07T08:24:18Z</time>
      </trkpt>
      <trkpt lat="45.7844" lon="6.11413">
        <ele>1455.57</ele>
        <time>2012-08-07T08:24:19Z</time>
      </trkpt>
      <trkpt lat="45.78428" lon="6.11418">
        <ele>1453.65</ele>
        <time>2012-08-07T08:24:20Z</time>
      </trkpt>
      <trkpt lat="45.78416" lon="6.11421">
        <ele>1452.21</ele>
        <time>2012-08-07T08:24:21Z</time>
      </trkpt>
      <trkpt lat="45.78405" lon="6.11419">
        <ele>1450.77</ele>
        <time>2012-08-07T08:24:22Z</time>
      </trkpt>
      <trkpt lat="45.78392" lon="6.11413">
        <ele>1449.32</ele>
        <time>2012-08-07T08:24:23Z</time>
      </trkpt>
      <trkpt lat="45.7838" lon="6.11406">
        <ele>1447.88</ele>
        <time>2012-08-07T08:24:24Z</time>
      </trkpt>
      <trkpt lat="45.78371" lon="6.11397">
        <ele>1444.52</ele>
        <time>2012-08-07T08:24:25Z</time>
      </trkpt>
      <trkpt lat="45.78365" lon="6.11386">
        <ele>1443.56</ele>
        <time>2012-08-07T08:24:26Z</time>
      </trkpt>
      <trkpt lat="45.78358" lon="6.11378">
        <ele>1442.6</ele>
        <time>2012-08-07T08:24:27Z</time>
      </trkpt>
      <trkpt lat="45.7835" lon="6.11376">
        <ele>1441.63</ele>
        <time>2012-08-07T08:24:28Z</time>
      </trkpt>
      <trkpt lat="45.7834" lon="6.11377">
        <ele>1442.6</ele>
        <time>2012-08-07T08:24:29Z</time>
      </trkpt>
      <trkpt lat="45.78327" lon="6.11379">
        <ele>1442.11</ele>
        <time>2012-08-07T08:24:30Z</time>
      </trkpt>
      <trkpt lat="45.78311" lon="6.1138">
        <ele>1440.67</ele>
        <time>2012-08-07T08:24:31Z</time>
      </trkpt>
      <trkpt lat="45.78294" lon="6.1138">
        <ele>1439.71</ele>
        <time>2012-08-07T08:24:32Z</time>
      </trkpt>
      <trkpt lat="45.78277" lon="6.11377">
        <ele>1439.71</ele>
        <time>2012-08-07T08:24:33Z</time>
      </trkpt>
      <trkpt lat="45.78261" lon="6.11373">
        <ele>1436.83</ele>
        <time>2012-08-07T08:24:34Z</time>
      </trkpt>
      <trkpt lat="45.78245" lon="6.11374">
        <ele>1435.87</ele>
        <time>2012-08-07T08:24:35Z</time>
      </trkpt>
      <trkpt lat="45.78229" lon="6.11379">
        <ele>1435.39</ele>
        <time>2012-08-07T08:24:36Z</time>
      </trkpt>
      <trkpt lat="45.78215" lon="6.11384">
        <ele>1432.98</ele>
        <time>2012-08-07T08:24:37Z</time>
      </trkpt>
      <trkpt lat="45.78202" lon="6.11387">
        <ele>1431.06</ele>
        <time>2012-08-07T08:24:38Z</time>
      </trkpt>
      <trkpt lat="45.78191" lon="6.11388">
        <ele>1428.18</ele>
        <time>2012-08-07T08:24:39Z</time>
      </trkpt>
      <trkpt lat="45.78183" lon="6.11385">
        <ele>1426.25</ele>
        <time>2012-08-07T08:24:40Z</time>
      </trkpt>
      <trkpt lat="45.78177" lon="6.11379">
        <ele>1425.77</ele>
        <time>2012-08-07T08:24:41Z</time>
      </trkpt>
      <trkpt lat="45.78172" lon="6.11367">
        <ele>1426.25</ele>
        <time>2012-08-07T08:24:42Z</time>
      </trkpt>
      <trkpt lat="45.78167" lon="6.11351">
        <ele>1426.73</ele>
        <time>2012-08-07T08:24:43Z</time>
      </trkpt>
      <trkpt lat="45.78151" lon="6.11291">
        <ele>1423.37</ele>
        <time>2012-08-07T08:24:46Z</time>
      </trkpt>
      <trkpt lat="45.78147" lon="6.11278">
        <ele>1421.93</ele>
        <time>2012-08-07T08:24:47Z</time>
      </trkpt>
      <trkpt lat="45.78141" lon="6.11267">
        <ele>1420.49</ele>
        <time>2012-08-07T08:24:48Z</time>
      </trkpt>
      <trkpt lat="45.78132" lon="6.11259">
        <ele>1420.97</ele>
        <time>2012-08-07T08:24:49Z</time>
      </trkpt>
      <trkpt lat="45.78122" lon="6.11254">
        <ele>1420.49</ele>
        <time>2012-08-07T08:24:50Z</time>
      </trkpt>
      <trkpt lat="45.78112" lon="6.11254">
        <ele>1419.52</ele>
        <time>2012-08-07T08:24:51Z</time>
      </trkpt>
      <trkpt lat="45.78104" lon="6.11257">
        <ele>1419.04</ele>
        <time>2012-08-07T08:24:52Z</time>
      </trkpt>
      <trkpt lat="45.78097" lon="6.11261">
        <ele>1419.52</ele>
        <time>2012-08-07T08:24:53Z</time>
      </trkpt>
      <trkpt lat="45.78091" lon="6.11264">
        <ele>1420.97</ele>
        <time>2012-08-07T08:24:54Z</time>
      </trkpt>
      <trkpt lat="45.78086" lon="6.11269">
        <ele>1420.97</ele>
        <time>2012-08-07T08:24:55Z</time>
      </trkpt>
      <trkpt lat="45.78081" lon="6.1128">
        <ele>1420.49</ele>
        <time>2012-08-07T08:24:56Z</time>
      </trkpt>
      <trkpt lat="45.78079" lon="6.11307">
        <ele>1420</ele>
        <time>2012-08-07T08:24:57Z</time>
      </trkpt>
      <trkpt lat="45.78074" lon="6.11318">
        <ele>1419.04</ele>
        <time>2012-08-07T08:24:58Z</time>
      </trkpt>
      <trkpt lat="45.78066" lon="6.11325">
        <ele>1419.04</ele>
        <time>2012-08-07T08:24:59Z</time>
      </trkpt>
      <trkpt lat="45.78057" lon="6.11326">
        <ele>1419.04</ele>
        <time>2012-08-07T08:25:00Z</time>
      </trkpt>
      <trkpt lat="45.78047" lon="6.11323">
        <ele>1419.52</ele>
        <time>2012-08-07T08:25:01Z</time>
      </trkpt>
      <trkpt lat="45.78034" lon="6.11317">
        <ele>1419.52</ele>
        <time>2012-08-07T08:25:02Z</time>
      </trkpt>
      <trkpt lat="45.77982" lon="6.11288">
        <ele>1414.72</ele>
        <time>2012-08-07T08:25:06Z</time>
      </trkpt>
      <trkpt lat="45.77974" lon="6.1128">
        <ele>1413.28</ele>
        <time>2012-08-07T08:25:07Z</time>
      </trkpt>
      <trkpt lat="45.77969" lon="6.1127">
        <ele>1412.79</ele>
        <time>2012-08-07T08:25:08Z</time>
      </trkpt>
      <trkpt lat="45.77967" lon="6.11253">
        <ele>1413.28</ele>
        <time>2012-08-07T08:25:09Z</time>
      </trkpt>
      <trkpt lat="45.77965" lon="6.11231">
        <ele>1412.79</ele>
        <time>2012-08-07T08:25:10Z</time>
      </trkpt>
      <trkpt lat="45.77962" lon="6.1121">
        <ele>1412.79</ele>
        <time>2012-08-07T08:25:11Z</time>
      </trkpt>
      <trkpt lat="45.77955" lon="6.11171">
        <ele>1409.91</ele>
        <time>2012-08-07T08:25:13Z</time>
      </trkpt>
      <trkpt lat="45.77955" lon="6.11153">
        <ele>1407.99</ele>
        <time>2012-08-07T08:25:14Z</time>
      </trkpt>
      <trkpt lat="45.77956" lon="6.11136">
        <ele>1407.03</ele>
        <time>2012-08-07T08:25:15Z</time>
      </trkpt>
      <trkpt lat="45.77961" lon="6.1112">
        <ele>1406.07</ele>
        <time>2012-08-07T08:25:16Z</time>
      </trkpt>
      <trkpt lat="45.77968" lon="6.11107">
        <ele>1406.07</ele>
        <time>2012-08-07T08:25:17Z</time>
      </trkpt>
      <trkpt lat="45.77976" lon="6.11097">
        <ele>1404.14</ele>
        <time>2012-08-07T08:25:18Z</time>
      </trkpt>
      <trkpt lat="45.77981" lon="6.11086">
        <ele>1403.66</ele>
        <time>2012-08-07T08:25:19Z</time>
      </trkpt>
      <trkpt lat="45.77984" lon="6.11074">
        <ele>1403.66</ele>
        <time>2012-08-07T08:25:20Z</time>
      </trkpt>
      <trkpt lat="45.77983" lon="6.11062">
        <ele>1402.7</ele>
        <time>2012-08-07T08:25:21Z</time>
      </trkpt>
      <trkpt lat="45.77977" lon="6.1105">
        <ele>1403.18</ele>
        <time>2012-08-07T08:25:22Z</time>
      </trkpt>
      <trkpt lat="45.77968" lon="6.1104">
        <ele>1402.7</ele>
        <time>2012-08-07T08:25:23Z</time>
      </trkpt>
      <trkpt lat="45.77957" lon="6.11035">
        <ele>1402.7</ele>
        <time>2012-08-07T08:25:24Z</time>
      </trkpt>
      <trkpt lat="45.77944" lon="6.11031">
        <ele>1401.74</ele>
        <time>2012-08-07T08:25:25Z</time>
      </trkpt>
      <trkpt lat="45.77882" lon="6.11024">
        <ele>1401.74</ele>
        <time>2012-08-07T08:25:29Z</time>
      </trkpt>
      <trkpt lat="45.77867" lon="6.1103">
        <ele>1402.22</ele>
        <time>2012-08-07T08:25:30Z</time>
      </trkpt>
      <trkpt lat="45.77852" lon="6.1104">
        <ele>1402.22</ele>
        <time>2012-08-07T08:25:31Z</time>
      </trkpt>
      <trkpt lat="45.77837" lon="6.11053">
        <ele>1403.18</ele>
        <time>2012-08-07T08:25:32Z</time>
      </trkpt>
      <trkpt lat="45.77821" lon="6.11068">
        <ele>1402.7</ele>
        <time>2012-08-07T08:25:33Z</time>
      </trkpt>
      <trkpt lat="45.77791" lon="6.11093">
        <ele>1401.26</ele>
        <time>2012-08-07T08:25:35Z</time>
      </trkpt>
      <trkpt lat="45.77775" lon="6.11101">
        <ele>1399.82</ele>
        <time>2012-08-07T08:25:36Z</time>
      </trkpt>
      <trkpt lat="45.77759" lon="6.11112">
        <ele>1400.78</ele>
        <time>2012-08-07T08:25:37Z</time>
      </trkpt>
      <trkpt lat="45.77745" lon="6.11127">
        <ele>1400.78</ele>
        <time>2012-08-07T08:25:38Z</time>
      </trkpt>
      <trkpt lat="45.77732" lon="6.11142">
        <ele>1399.34</ele>
        <time>2012-08-07T08:25:39Z</time>
      </trkpt>
      <trkpt lat="45.77712" lon="6.11165">
        <ele>1396.45</ele>
        <time>2012-08-07T08:25:41Z</time>
      </trkpt>
      <trkpt lat="45.777" lon="6.11171">
        <ele>1396.45</ele>
        <time>2012-08-07T08:25:42Z</time>
      </trkpt>
      <trkpt lat="45.77687" lon="6.11172">
        <ele>1396.93</ele>
        <time>2012-08-07T08:25:43Z</time>
      </trkpt>
      <trkpt lat="45.77673" lon="6.11167">
        <ele>1396.93</ele>
        <time>2012-08-07T08:25:44Z</time>
      </trkpt>
      <trkpt lat="45.77657" lon="6.11159">
        <ele>1398.37</ele>
        <time>2012-08-07T08:25:45Z</time>
      </trkpt>
      <trkpt lat="45.7764" lon="6.1115">
        <ele>1398.86</ele>
        <time>2012-08-07T08:25:46Z</time>
      </trkpt>
      <trkpt lat="45.77585" lon="6.11125">
        <ele>1398.86</ele>
        <time>2012-08-07T08:25:49Z</time>
      </trkpt>
      <trkpt lat="45.77568" lon="6.11122">
        <ele>1396.93</ele>
        <time>2012-08-07T08:25:50Z</time>
      </trkpt>
      <trkpt lat="45.77552" lon="6.11121">
        <ele>1393.57</ele>
        <time>2012-08-07T08:25:51Z</time>
      </trkpt>
      <trkpt lat="45.77537" lon="6.11117">
        <ele>1393.09</ele>
        <time>2012-08-07T08:25:52Z</time>
      </trkpt>
      <trkpt lat="45.77521" lon="6.11108">
        <ele>1393.09</ele>
        <time>2012-08-07T08:25:53Z</time>
      </trkpt>
      <trkpt lat="45.77505" lon="6.11098">
        <ele>1391.65</ele>
        <time>2012-08-07T08:25:54Z</time>
      </trkpt>
      <trkpt lat="45.77487" lon="6.11092">
        <ele>1390.2</ele>
        <time>2012-08-07T08:25:55Z</time>
      </trkpt>
      <trkpt lat="45.77466" lon="6.1109">
        <ele>1390.68</ele>
        <time>2012-08-07T08:25:56Z</time>
      </trkpt>
      <trkpt lat="45.77444" lon="6.1109">
        <ele>1390.68</ele>
        <time>2012-08-07T08:25:57Z</time>
      </trkpt>
      <trkpt lat="45.7735" lon="6.11076">
        <ele>1386.36</ele>
        <time>2012-08-07T08:26:01Z</time>
      </trkpt>
      <trkpt lat="45.7731" lon="6.11067">
        <ele>1381.55</ele>
        <time>2012-08-07T08:26:03Z</time>
      </trkpt>
      <trkpt lat="45.77291" lon="6.11069">
        <ele>1381.07</ele>
        <time>2012-08-07T08:26:04Z</time>
      </trkpt>
      <trkpt lat="45.77269" lon="6.11071">
        <ele>1380.59</ele>
        <time>2012-08-07T08:26:05Z</time>
      </trkpt>
      <trkpt lat="45.77247" lon="6.11069">
        <ele>1382.03</ele>
        <time>2012-08-07T08:26:06Z</time>
      </trkpt>
      <trkpt lat="45.77223" lon="6.11064">
        <ele>1381.07</ele>
        <time>2012-08-07T08:26:07Z</time>
      </trkpt>
      <trkpt lat="45.77198" lon="6.11058">
        <ele>1380.59</ele>
        <time>2012-08-07T08:26:08Z</time>
      </trkpt>
      <trkpt lat="45.77172" lon="6.11054">
        <ele>1380.11</ele>
        <time>2012-08-07T08:26:09Z</time>
      </trkpt>
      <trkpt lat="45.77095" lon="6.11046">
        <ele>1375.3</ele>
        <time>2012-08-07T08:26:12Z</time>
      </trkpt>
      <trkpt lat="45.77054" lon="6.11041">
        <ele>1370.02</ele>
        <time>2012-08-07T08:26:14Z</time>
      </trkpt>
      <trkpt lat="45.77035" lon="6.11036">
        <ele>1370.5</ele>
        <time>2012-08-07T08:26:15Z</time>
      </trkpt>
      <trkpt lat="45.77017" lon="6.11029">
        <ele>1367.61</ele>
        <time>2012-08-07T08:26:16Z</time>
      </trkpt>
      <trkpt lat="45.77001" lon="6.11019">
        <ele>1366.65</ele>
        <time>2012-08-07T08:26:17Z</time>
      </trkpt>
      <trkpt lat="45.76986" lon="6.11008">
        <ele>1367.13</ele>
        <time>2012-08-07T08:26:18Z</time>
      </trkpt>
      <trkpt lat="45.76973" lon="6.10994">
        <ele>1365.69</ele>
        <time>2012-08-07T08:26:19Z</time>
      </trkpt>
      <trkpt lat="45.7696" lon="6.1098">
        <ele>1365.21</ele>
        <time>2012-08-07T08:26:20Z</time>
      </trkpt>
      <trkpt lat="45.76943" lon="6.10969">
        <ele>1368.09</ele>
        <time>2012-08-07T08:26:21Z</time>
      </trkpt>
      <trkpt lat="45.76924" lon="6.10961">
        <ele>1366.65</ele>
        <time>2012-08-07T08:26:22Z</time>
      </trkpt>
      <trkpt lat="45.76903" lon="6.10954">
        <ele>1366.17</ele>
        <time>2012-08-07T08:26:23Z</time>
      </trkpt>
      <trkpt lat="45.76881" lon="6.10948">
        <ele>1365.69</ele>
        <time>2012-08-07T08:26:24Z</time>
      </trkpt>
      <trkpt lat="45.76805" lon="6.10929">
        <ele>1360.4</ele>
        <time>2012-08-07T08:26:28Z</time>
      </trkpt>
      <trkpt lat="45.7679" lon="6.10922">
        <ele>1358</ele>
        <time>2012-08-07T08:26:29Z</time>
      </trkpt>
      <trkpt lat="45.76778" lon="6.10912">
        <ele>1356.08</ele>
        <time>2012-08-07T08:26:30Z</time>
      </trkpt>
      <trkpt lat="45.76769" lon="6.109">
        <ele>1355.12</ele>
        <time>2012-08-07T08:26:31Z</time>
      </trkpt>
      <trkpt lat="45.76764" lon="6.10882">
        <ele>1355.6</ele>
        <time>2012-08-07T08:26:32Z</time>
      </trkpt>
      <trkpt lat="45.7676" lon="6.10861">
        <ele>1355.6</ele>
        <time>2012-08-07T08:26:33Z</time>
      </trkpt>
      <trkpt lat="45.76745" lon="6.10802">
        <ele>1353.67</ele>
        <time>2012-08-07T08:26:36Z</time>
      </trkpt>
      <trkpt lat="45.76735" lon="6.10787">
        <ele>1353.19</ele>
        <time>2012-08-07T08:26:37Z</time>
      </trkpt>
      <trkpt lat="45.76723" lon="6.10775">
        <ele>1352.23</ele>
        <time>2012-08-07T08:26:38Z</time>
      </trkpt>
      <trkpt lat="45.76699" lon="6.10758">
        <ele>1349.35</ele>
        <time>2012-08-07T08:26:40Z</time>
      </trkpt>
      <trkpt lat="45.76691" lon="6.10746">
        <ele>1349.35</ele>
        <time>2012-08-07T08:26:41Z</time>
      </trkpt>
      <trkpt lat="45.76686" lon="6.10728">
        <ele>1349.35</ele>
        <time>2012-08-07T08:26:42Z</time>
      </trkpt>
      <trkpt lat="45.76681" lon="6.10711">
        <ele>1348.39</ele>
        <time>2012-08-07T08:26:43Z</time>
      </trkpt>
      <trkpt lat="45.76672" lon="6.10696">
        <ele>1347.91</ele>
        <time>2012-08-07T08:26:44Z</time>
      </trkpt>
      <trkpt lat="45.76659" lon="6.10685">
        <ele>1347.91</ele>
        <time>2012-08-07T08:26:45Z</time>
      </trkpt>
      <trkpt lat="45.76643" lon="6.10676">
        <ele>1348.87</ele>
        <time>2012-08-07T08:26:46Z</time>
      </trkpt>
      <trkpt lat="45.76625" lon="6.10669">
        <ele>1348.87</ele>
        <time>2012-08-07T08:26:47Z</time>
      </trkpt>
      <trkpt lat="45.76607" lon="6.10668">
        <ele>1348.87</ele>
        <time>2012-08-07T08:26:48Z</time>
      </trkpt>
      <trkpt lat="45.7659" lon="6.1067">
        <ele>1347.43</ele>
        <time>2012-08-07T08:26:49Z</time>
      </trkpt>
      <trkpt lat="45.76573" lon="6.1067">
        <ele>1346.94</ele>
        <time>2012-08-07T08:26:50Z</time>
      </trkpt>
      <trkpt lat="45.76556" lon="6.10665">
        <ele>1346.94</ele>
        <time>2012-08-07T08:26:51Z</time>
      </trkpt>
      <trkpt lat="45.76541" lon="6.10656">
        <ele>1344.54</ele>
        <time>2012-08-07T08:26:52Z</time>
      </trkpt>
      <trkpt lat="45.76526" lon="6.10648">
        <ele>1343.1</ele>
        <time>2012-08-07T08:26:53Z</time>
      </trkpt>
      <trkpt lat="45.76511" lon="6.10644">
        <ele>1343.1</ele>
        <time>2012-08-07T08:26:54Z</time>
      </trkpt>
      <trkpt lat="45.76493" lon="6.10644">
        <ele>1343.58</ele>
        <time>2012-08-07T08:26:55Z</time>
      </trkpt>
      <trkpt lat="45.76475" lon="6.10649">
        <ele>1343.1</ele>
        <time>2012-08-07T08:26:56Z</time>
      </trkpt>
      <trkpt lat="45.76459" lon="6.10655">
        <ele>1342.14</ele>
        <time>2012-08-07T08:26:57Z</time>
      </trkpt>
      <trkpt lat="45.76443" lon="6.10657">
        <ele>1340.7</ele>
        <time>2012-08-07T08:26:58Z</time>
      </trkpt>
      <trkpt lat="45.76427" lon="6.10655">
        <ele>1339.73</ele>
        <time>2012-08-07T08:26:59Z</time>
      </trkpt>
      <trkpt lat="45.76409" lon="6.10651">
        <ele>1339.73</ele>
        <time>2012-08-07T08:27:00Z</time>
      </trkpt>
      <trkpt lat="45.7639" lon="6.10645">
        <ele>1339.25</ele>
        <time>2012-08-07T08:27:01Z</time>
      </trkpt>
      <trkpt lat="45.76371" lon="6.10642">
        <ele>1338.29</ele>
        <time>2012-08-07T08:27:02Z</time>
      </trkpt>
      <trkpt lat="45.76322" lon="6.10627">
        <ele>1335.41</ele>
        <time>2012-08-07T08:27:05Z</time>
      </trkpt>
      <trkpt lat="45.76309" lon="6.10618">
        <ele>1333.49</ele>
        <time>2012-08-07T08:27:06Z</time>
      </trkpt>
      <trkpt lat="45.76298" lon="6.10608">
        <ele>1332.52</ele>
        <time>2012-08-07T08:27:07Z</time>
      </trkpt>
      <trkpt lat="45.7629" lon="6.10594">
        <ele>1332.04</ele>
        <time>2012-08-07T08:27:08Z</time>
      </trkpt>
      <trkpt lat="45.76283" lon="6.10574">
        <ele>1332.04</ele>
        <time>2012-08-07T08:27:09Z</time>
      </trkpt>
      <trkpt lat="45.76278" lon="6.10553">
        <ele>1332.04</ele>
        <time>2012-08-07T08:27:10Z</time>
      </trkpt>
      <trkpt lat="45.76271" lon="6.10534">
        <ele>1330.12</ele>
        <time>2012-08-07T08:27:11Z</time>
      </trkpt>
      <trkpt lat="45.7626" lon="6.10518">
        <ele>1329.64</ele>
        <time>2012-08-07T08:27:12Z</time>
      </trkpt>
      <trkpt lat="45.76246" lon="6.10506">
        <ele>1329.64</ele>
        <time>2012-08-07T08:27:13Z</time>
      </trkpt>
      <trkpt lat="45.7623" lon="6.10497">
        <ele>1328.68</ele>
        <time>2012-08-07T08:27:14Z</time>
      </trkpt>
      <trkpt lat="45.76212" lon="6.10492">
        <ele>1327.72</ele>
        <time>2012-08-07T08:27:15Z</time>
      </trkpt>
      <trkpt lat="45.76194" lon="6.1049">
        <ele>1324.83</ele>
        <time>2012-08-07T08:27:16Z</time>
      </trkpt>
      <trkpt lat="45.76179" lon="6.10491">
        <ele>1322.91</ele>
        <time>2012-08-07T08:27:17Z</time>
      </trkpt>
      <trkpt lat="45.76167" lon="6.10492">
        <ele>1321.47</ele>
        <time>2012-08-07T08:27:18Z</time>
      </trkpt>
      <trkpt lat="45.76156" lon="6.10489">
        <ele>1319.07</ele>
        <time>2012-08-07T08:27:19Z</time>
      </trkpt>
      <trkpt lat="45.76148" lon="6.10479">
        <ele>1318.59</ele>
        <time>2012-08-07T08:27:20Z</time>
      </trkpt>
      <trkpt lat="45.7614" lon="6.10463">
        <ele>1318.59</ele>
        <time>2012-08-07T08:27:21Z</time>
      </trkpt>
      <trkpt lat="45.76133" lon="6.10444">
        <ele>1318.59</ele>
        <time>2012-08-07T08:27:22Z</time>
      </trkpt>
      <trkpt lat="45.76109" lon="6.10391">
        <ele>1314.74</ele>
        <time>2012-08-07T08:27:25Z</time>
      </trkpt>
      <trkpt lat="45.76102" lon="6.10381">
        <ele>1313.78</ele>
        <time>2012-08-07T08:27:26Z</time>
      </trkpt>
      <trkpt lat="45.76094" lon="6.10375">
        <ele>1312.82</ele>
        <time>2012-08-07T08:27:27Z</time>
      </trkpt>
      <trkpt lat="45.76084" lon="6.10375">
        <ele>1312.82</ele>
        <time>2012-08-07T08:27:28Z</time>
      </trkpt>
      <trkpt lat="45.76076" lon="6.10378">
        <ele>1312.82</ele>
        <time>2012-08-07T08:27:29Z</time>
      </trkpt>
      <trkpt lat="45.76069" lon="6.10384">
        <ele>1312.34</ele>
        <time>2012-08-07T08:27:30Z</time>
      </trkpt>
      <trkpt lat="45.76064" lon="6.10393">
        <ele>1312.34</ele>
        <time>2012-08-07T08:27:31Z</time>
      </trkpt>
      <trkpt lat="45.76062" lon="6.10408">
        <ele>1313.3</ele>
        <time>2012-08-07T08:27:32Z</time>
      </trkpt>
      <trkpt lat="45.76063" lon="6.10426">
        <ele>1313.3</ele>
        <time>2012-08-07T08:27:33Z</time>
      </trkpt>
      <trkpt lat="45.76068" lon="6.10445">
        <ele>1312.82</ele>
        <time>2012-08-07T08:27:34Z</time>
      </trkpt>
      <trkpt lat="45.76075" lon="6.10465">
        <ele>1311.86</ele>
        <time>2012-08-07T08:27:35Z</time>
      </trkpt>
      <trkpt lat="45.76097" lon="6.10488">
        <ele>1310.9</ele>
        <time>2012-08-07T08:27:36Z</time>
      </trkpt>
      <trkpt lat="45.7611" lon="6.10512">
        <ele>1310.41</ele>
        <time>2012-08-07T08:27:37Z</time>
      </trkpt>
      <trkpt lat="45.76136" lon="6.10559">
        <ele>1308.49</ele>
        <time>2012-08-07T08:27:39Z</time>
      </trkpt>
      <trkpt lat="45.76151" lon="6.10583">
        <ele>1307.53</ele>
        <time>2012-08-07T08:27:40Z</time>
      </trkpt>
      <trkpt lat="45.76196" lon="6.10647">
        <ele>1304.17</ele>
        <time>2012-08-07T08:27:43Z</time>
      </trkpt>
      <trkpt lat="45.76236" lon="6.10711">
        <ele>1301.76</ele>
        <time>2012-08-07T08:27:45Z</time>
      </trkpt>
      <trkpt lat="45.76247" lon="6.10735">
        <ele>1298.4</ele>
        <time>2012-08-07T08:27:46Z</time>
      </trkpt>
      <trkpt lat="45.76262" lon="6.10776">
        <ele>1292.63</ele>
        <time>2012-08-07T08:27:48Z</time>
      </trkpt>
      <trkpt lat="45.7627" lon="6.1079">
        <ele>1290.71</ele>
        <time>2012-08-07T08:27:49Z</time>
      </trkpt>
      <trkpt lat="45.7628" lon="6.108">
        <ele>1289.75</ele>
        <time>2012-08-07T08:27:50Z</time>
      </trkpt>
      <trkpt lat="45.76292" lon="6.10803">
        <ele>1289.75</ele>
        <time>2012-08-07T08:27:51Z</time>
      </trkpt>
      <trkpt lat="45.76306" lon="6.10802">
        <ele>1289.27</ele>
        <time>2012-08-07T08:27:52Z</time>
      </trkpt>
      <trkpt lat="45.7632" lon="6.10801">
        <ele>1289.27</ele>
        <time>2012-08-07T08:27:53Z</time>
      </trkpt>
      <trkpt lat="45.76334" lon="6.10802">
        <ele>1288.3</ele>
        <time>2012-08-07T08:27:54Z</time>
      </trkpt>
      <trkpt lat="45.76349" lon="6.10806">
        <ele>1286.86</ele>
        <time>2012-08-07T08:27:55Z</time>
      </trkpt>
      <trkpt lat="45.76367" lon="6.10812">
        <ele>1285.9</ele>
        <time>2012-08-07T08:27:56Z</time>
      </trkpt>
      <trkpt lat="45.76383" lon="6.10823">
        <ele>1283.98</ele>
        <time>2012-08-07T08:27:57Z</time>
      </trkpt>
      <trkpt lat="45.764" lon="6.10837">
        <ele>1282.54</ele>
        <time>2012-08-07T08:27:58Z</time>
      </trkpt>
      <trkpt lat="45.76413" lon="6.10855">
        <ele>1282.06</ele>
        <time>2012-08-07T08:27:59Z</time>
      </trkpt>
      <trkpt lat="45.76424" lon="6.10878">
        <ele>1282.06</ele>
        <time>2012-08-07T08:28:00Z</time>
      </trkpt>
      <trkpt lat="45.76439" lon="6.10902">
        <ele>1281.09</ele>
        <time>2012-08-07T08:28:01Z</time>
      </trkpt>
      <trkpt lat="45.76456" lon="6.10925">
        <ele>1280.13</ele>
        <time>2012-08-07T08:28:02Z</time>
      </trkpt>
      <trkpt lat="45.76475" lon="6.10946">
        <ele>1279.17</ele>
        <time>2012-08-07T08:28:03Z</time>
      </trkpt>
      <trkpt lat="45.76493" lon="6.10964">
        <ele>1275.81</ele>
        <time>2012-08-07T08:28:04Z</time>
      </trkpt>
      <trkpt lat="45.76509" lon="6.10982">
        <ele>1273.4</ele>
        <time>2012-08-07T08:28:05Z</time>
      </trkpt>
      <trkpt lat="45.76523" lon="6.11001">
        <ele>1271.96</ele>
        <time>2012-08-07T08:28:06Z</time>
      </trkpt>
      <trkpt lat="45.76535" lon="6.11019">
        <ele>1270.04</ele>
        <time>2012-08-07T08:28:07Z</time>
      </trkpt>
      <trkpt lat="45.76544" lon="6.11036">
        <ele>1267.16</ele>
        <time>2012-08-07T08:28:08Z</time>
      </trkpt>
      <trkpt lat="45.76557" lon="6.11052">
        <ele>1267.16</ele>
        <time>2012-08-07T08:28:09Z</time>
      </trkpt>
      <trkpt lat="45.76573" lon="6.11065">
        <ele>1267.16</ele>
        <time>2012-08-07T08:28:10Z</time>
      </trkpt>
      <trkpt lat="45.76591" lon="6.11077">
        <ele>1267.16</ele>
        <time>2012-08-07T08:28:11Z</time>
      </trkpt>
      <trkpt lat="45.7661" lon="6.11086">
        <ele>1265.71</ele>
        <time>2012-08-07T08:28:12Z</time>
      </trkpt>
      <trkpt lat="45.76629" lon="6.11096">
        <ele>1264.27</ele>
        <time>2012-08-07T08:28:13Z</time>
      </trkpt>
      <trkpt lat="45.76647" lon="6.11111">
        <ele>1263.79</ele>
        <time>2012-08-07T08:28:14Z</time>
      </trkpt>
      <trkpt lat="45.76664" lon="6.1113">
        <ele>1262.83</ele>
        <time>2012-08-07T08:28:15Z</time>
      </trkpt>
      <trkpt lat="45.76703" lon="6.11165">
        <ele>1262.83</ele>
        <time>2012-08-07T08:28:17Z</time>
      </trkpt>
      <trkpt lat="45.7679" lon="6.1124">
        <ele>1258.98</ele>
        <time>2012-08-07T08:28:21Z</time>
      </trkpt>
      <trkpt lat="45.76861" lon="6.11304">
        <ele>1255.14</ele>
        <time>2012-08-07T08:28:24Z</time>
      </trkpt>
      <trkpt lat="45.76884" lon="6.11322">
        <ele>1249.85</ele>
        <time>2012-08-07T08:28:25Z</time>
      </trkpt>
      <trkpt lat="45.76906" lon="6.11338">
        <ele>1246.01</ele>
        <time>2012-08-07T08:28:26Z</time>
      </trkpt>
      <trkpt lat="45.76924" lon="6.11354">
        <ele>1241.2</ele>
        <time>2012-08-07T08:28:27Z</time>
      </trkpt>
      <trkpt lat="45.76951" lon="6.11383">
        <ele>1236.87</ele>
        <time>2012-08-07T08:28:29Z</time>
      </trkpt>
      <trkpt lat="45.76965" lon="6.11396">
        <ele>1235.91</ele>
        <time>2012-08-07T08:28:30Z</time>
      </trkpt>
      <trkpt lat="45.76981" lon="6.11406">
        <ele>1235.43</ele>
        <time>2012-08-07T08:28:31Z</time>
      </trkpt>
      <trkpt lat="45.77019" lon="6.11428">
        <ele>1234.95</ele>
        <time>2012-08-07T08:28:33Z</time>
      </trkpt>
      <trkpt lat="45.77038" lon="6.11441">
        <ele>1234.95</ele>
        <time>2012-08-07T08:28:34Z</time>
      </trkpt>
      <trkpt lat="45.77059" lon="6.11452">
        <ele>1233.51</ele>
        <time>2012-08-07T08:28:35Z</time>
      </trkpt>
      <trkpt lat="45.77081" lon="6.11462">
        <ele>1231.59</ele>
        <time>2012-08-07T08:28:36Z</time>
      </trkpt>
      <trkpt lat="45.771" lon="6.11473">
        <ele>1228.7</ele>
        <time>2012-08-07T08:28:37Z</time>
      </trkpt>
      <trkpt lat="45.77118" lon="6.11484">
        <ele>1226.3</ele>
        <time>2012-08-07T08:28:38Z</time>
      </trkpt>
      <trkpt lat="45.77135" lon="6.11491">
        <ele>1224.86</ele>
        <time>2012-08-07T08:28:39Z</time>
      </trkpt>
      <trkpt lat="45.77153" lon="6.11494">
        <ele>1222.45</ele>
        <time>2012-08-07T08:28:40Z</time>
      </trkpt>
      <trkpt lat="45.77169" lon="6.11495">
        <ele>1220.53</ele>
        <time>2012-08-07T08:28:41Z</time>
      </trkpt>
      <trkpt lat="45.77184" lon="6.11502">
        <ele>1219.57</ele>
        <time>2012-08-07T08:28:42Z</time>
      </trkpt>
      <trkpt lat="45.77199" lon="6.11516">
        <ele>1219.57</ele>
        <time>2012-08-07T08:28:43Z</time>
      </trkpt>
      <trkpt lat="45.77214" lon="6.11531">
        <ele>1220.05</ele>
        <time>2012-08-07T08:28:44Z</time>
      </trkpt>
      <trkpt lat="45.77231" lon="6.11545">
        <ele>1218.13</ele>
        <time>2012-08-07T08:28:45Z</time>
      </trkpt>
      <trkpt lat="45.77247" lon="6.11558">
        <ele>1215.24</ele>
        <time>2012-08-07T08:28:46Z</time>
      </trkpt>
      <trkpt lat="45.77263" lon="6.11571">
        <ele>1213.8</ele>
        <time>2012-08-07T08:28:47Z</time>
      </trkpt>
      <trkpt lat="45.77279" lon="6.11582">
        <ele>1213.32</ele>
        <time>2012-08-07T08:28:48Z</time>
      </trkpt>
      <trkpt lat="45.77296" lon="6.11589">
        <ele>1211.88</ele>
        <time>2012-08-07T08:28:49Z</time>
      </trkpt>
      <trkpt lat="45.77314" lon="6.11597">
        <ele>1210.92</ele>
        <time>2012-08-07T08:28:50Z</time>
      </trkpt>
      <trkpt lat="45.7733" lon="6.11608">
        <ele>1209.96</ele>
        <time>2012-08-07T08:28:51Z</time>
      </trkpt>
      <trkpt lat="45.77343" lon="6.11621">
        <ele>1207.55</ele>
        <time>2012-08-07T08:28:52Z</time>
      </trkpt>
      <trkpt lat="45.77356" lon="6.11633">
        <ele>1205.15</ele>
        <time>2012-08-07T08:28:53Z</time>
      </trkpt>
      <trkpt lat="45.77369" lon="6.1164">
        <ele>1202.27</ele>
        <time>2012-08-07T08:28:54Z</time>
      </trkpt>
      <trkpt lat="45.7738" lon="6.11644">
        <ele>1200.34</ele>
        <time>2012-08-07T08:28:55Z</time>
      </trkpt>
      <trkpt lat="45.77397" lon="6.1165">
        <ele>1196.98</ele>
        <time>2012-08-07T08:28:57Z</time>
      </trkpt>
      <trkpt lat="45.774" lon="6.11656">
        <ele>1196.5</ele>
        <time>2012-08-07T08:28:58Z</time>
      </trkpt>
      <trkpt lat="45.77399" lon="6.11663">
        <ele>1196.02</ele>
        <time>2012-08-07T08:28:59Z</time>
      </trkpt>
      <trkpt lat="45.77393" lon="6.11666">
        <ele>1195.06</ele>
        <time>2012-08-07T08:29:00Z</time>
      </trkpt>
      <trkpt lat="45.77383" lon="6.11664">
        <ele>1195.54</ele>
        <time>2012-08-07T08:29:01Z</time>
      </trkpt>
      <trkpt lat="45.77371" lon="6.11657">
        <ele>1196.5</ele>
        <time>2012-08-07T08:29:02Z</time>
      </trkpt>
      <trkpt lat="45.77357" lon="6.11647">
        <ele>1197.46</ele>
        <time>2012-08-07T08:29:03Z</time>
      </trkpt>
      <trkpt lat="45.77307" lon="6.11619">
        <ele>1194.09</ele>
        <time>2012-08-07T08:29:06Z</time>
      </trkpt>
      <trkpt lat="45.7729" lon="6.11614">
        <ele>1193.61</ele>
        <time>2012-08-07T08:29:07Z</time>
      </trkpt>
      <trkpt lat="45.77249" lon="6.11605">
        <ele>1192.17</ele>
        <time>2012-08-07T08:29:09Z</time>
      </trkpt>
      <trkpt lat="45.77228" lon="6.11595">
        <ele>1190.25</ele>
        <time>2012-08-07T08:29:10Z</time>
      </trkpt>
      <trkpt lat="45.77209" lon="6.11583">
        <ele>1187.37</ele>
        <time>2012-08-07T08:29:11Z</time>
      </trkpt>
      <trkpt lat="45.77172" lon="6.11564">
        <ele>1184.96</ele>
        <time>2012-08-07T08:29:13Z</time>
      </trkpt>
      <trkpt lat="45.77149" lon="6.11559">
        <ele>1185.92</ele>
        <time>2012-08-07T08:29:14Z</time>
      </trkpt>
      <trkpt lat="45.77048" lon="6.11534">
        <ele>1180.64</ele>
        <time>2012-08-07T08:29:18Z</time>
      </trkpt>
      <trkpt lat="45.77025" lon="6.11528">
        <ele>1176.79</ele>
        <time>2012-08-07T08:29:19Z</time>
      </trkpt>
      <trkpt lat="45.76954" lon="6.11504">
        <ele>1174.39</ele>
        <time>2012-08-07T08:29:22Z</time>
      </trkpt>
      <trkpt lat="45.76874" lon="6.11465">
        <ele>1171.02</ele>
        <time>2012-08-07T08:29:25Z</time>
      </trkpt>
      <trkpt lat="45.76847" lon="6.11454">
        <ele>1168.14</ele>
        <time>2012-08-07T08:29:26Z</time>
      </trkpt>
      <trkpt lat="45.76796" lon="6.11431">
        <ele>1162.37</ele>
        <time>2012-08-07T08:29:28Z</time>
      </trkpt>
      <trkpt lat="45.76716" lon="6.11397">
        <ele>1159.01</ele>
        <time>2012-08-07T08:29:31Z</time>
      </trkpt>
      <trkpt lat="45.76664" lon="6.11377">
        <ele>1154.2</ele>
        <time>2012-08-07T08:29:33Z</time>
      </trkpt>
      <trkpt lat="45.76639" lon="6.11368">
        <ele>1150.84</ele>
        <time>2012-08-07T08:29:34Z</time>
      </trkpt>
      <trkpt lat="45.76592" lon="6.11352">
        <ele>1146.03</ele>
        <time>2012-08-07T08:29:36Z</time>
      </trkpt>
      <trkpt lat="45.76547" lon="6.11336">
        <ele>1141.22</ele>
        <time>2012-08-07T08:29:38Z</time>
      </trkpt>
      <trkpt lat="45.76482" lon="6.11313">
        <ele>1136.42</ele>
        <time>2012-08-07T08:29:41Z</time>
      </trkpt>
      <trkpt lat="45.76461" lon="6.11305">
        <ele>1135.94</ele>
        <time>2012-08-07T08:29:42Z</time>
      </trkpt>
      <trkpt lat="45.7644" lon="6.11297">
        <ele>1132.57</ele>
        <time>2012-08-07T08:29:43Z</time>
      </trkpt>
      <trkpt lat="45.76401" lon="6.1128">
        <ele>1128.73</ele>
        <time>2012-08-07T08:29:45Z</time>
      </trkpt>
      <trkpt lat="45.76383" lon="6.11273">
        <ele>1127.76</ele>
        <time>2012-08-07T08:29:46Z</time>
      </trkpt>
      <trkpt lat="45.76362" lon="6.11269">
        <ele>1126.8</ele>
        <time>2012-08-07T08:29:47Z</time>
      </trkpt>
      <trkpt lat="45.76321" lon="6.11264">
        <ele>1122.96</ele>
        <time>2012-08-07T08:29:49Z</time>
      </trkpt>
      <trkpt lat="45.76281" lon="6.11254">
        <ele>1120.07</ele>
        <time>2012-08-07T08:29:51Z</time>
      </trkpt>
      <trkpt lat="45.76245" lon="6.11239">
        <ele>1116.23</ele>
        <time>2012-08-07T08:29:53Z</time>
      </trkpt>
      <trkpt lat="45.76211" lon="6.11225">
        <ele>1112.86</ele>
        <time>2012-08-07T08:29:55Z</time>
      </trkpt>
      <trkpt lat="45.76158" lon="6.11214">
        <ele>1108.54</ele>
        <time>2012-08-07T08:29:58Z</time>
      </trkpt>
      <trkpt lat="45.76129" lon="6.11204">
        <ele>1104.69</ele>
        <time>2012-08-07T08:30:00Z</time>
      </trkpt>
      <trkpt lat="45.76117" lon="6.11196">
        <ele>1103.25</ele>
        <time>2012-08-07T08:30:01Z</time>
      </trkpt>
      <trkpt lat="45.761" lon="6.11183">
        <ele>1099.89</ele>
        <time>2012-08-07T08:30:03Z</time>
      </trkpt>
      <trkpt lat="45.76093" lon="6.11181">
        <ele>1098.92</ele>
        <time>2012-08-07T08:30:04Z</time>
      </trkpt>
      <trkpt lat="45.76088" lon="6.11186">
        <ele>1098.44</ele>
        <time>2012-08-07T08:30:05Z</time>
      </trkpt>
      <trkpt lat="45.76085" lon="6.11195">
        <ele>1098.44</ele>
        <time>2012-08-07T08:30:06Z</time>
      </trkpt>
      <trkpt lat="45.76084" lon="6.11204">
        <ele>1097.48</ele>
        <time>2012-08-07T08:30:07Z</time>
      </trkpt>
      <trkpt lat="45.76087" lon="6.11211">
        <ele>1097.96</ele>
        <time>2012-08-07T08:30:08Z</time>
      </trkpt>
      <trkpt lat="45.76093" lon="6.11216">
        <ele>1098.44</ele>
        <time>2012-08-07T08:30:09Z</time>
      </trkpt>
      <trkpt lat="45.76117" lon="6.11235">
        <ele>1098.44</ele>
        <time>2012-08-07T08:30:12Z</time>
      </trkpt>
      <trkpt lat="45.76129" lon="6.11246">
        <ele>1097.96</ele>
        <time>2012-08-07T08:30:13Z</time>
      </trkpt>
      <trkpt lat="45.76148" lon="6.11258">
        <ele>1096.52</ele>
        <time>2012-08-07T08:30:14Z</time>
      </trkpt>
      <trkpt lat="45.76172" lon="6.11271">
        <ele>1095.08</ele>
        <time>2012-08-07T08:30:15Z</time>
      </trkpt>
      <trkpt lat="45.76197" lon="6.11287">
        <ele>1094.6</ele>
        <time>2012-08-07T08:30:16Z</time>
      </trkpt>
      <trkpt lat="45.76275" lon="6.11335">
        <ele>1088.83</ele>
        <time>2012-08-07T08:30:19Z</time>
      </trkpt>
      <trkpt lat="45.76322" lon="6.11359">
        <ele>1085.47</ele>
        <time>2012-08-07T08:30:21Z</time>
      </trkpt>
      <trkpt lat="45.76364" lon="6.11384">
        <ele>1080.66</ele>
        <time>2012-08-07T08:30:23Z</time>
      </trkpt>
      <trkpt lat="45.76409" lon="6.11417">
        <ele>1077.78</ele>
        <time>2012-08-07T08:30:25Z</time>
      </trkpt>
      <trkpt lat="45.76449" lon="6.11453">
        <ele>1074.41</ele>
        <time>2012-08-07T08:30:27Z</time>
      </trkpt>
      <trkpt lat="45.76469" lon="6.11468">
        <ele>1072.49</ele>
        <time>2012-08-07T08:30:28Z</time>
      </trkpt>
      <trkpt lat="45.7649" lon="6.11481">
        <ele>1072.49</ele>
        <time>2012-08-07T08:30:29Z</time>
      </trkpt>
      <trkpt lat="45.76559" lon="6.11519">
        <ele>1067.68</ele>
        <time>2012-08-07T08:30:32Z</time>
      </trkpt>
      <trkpt lat="45.76627" lon="6.11562">
        <ele>1064.32</ele>
        <time>2012-08-07T08:30:35Z</time>
      </trkpt>
      <trkpt lat="45.76668" lon="6.11591">
        <ele>1057.59</ele>
        <time>2012-08-07T08:30:37Z</time>
      </trkpt>
      <trkpt lat="45.76706" lon="6.11619">
        <ele>1053.26</ele>
        <time>2012-08-07T08:30:39Z</time>
      </trkpt>
      <trkpt lat="45.7674" lon="6.11648">
        <ele>1048.45</ele>
        <time>2012-08-07T08:30:41Z</time>
      </trkpt>
      <trkpt lat="45.76782" lon="6.11697">
        <ele>1044.61</ele>
        <time>2012-08-07T08:30:44Z</time>
      </trkpt>
      <trkpt lat="45.76813" lon="6.11729">
        <ele>1043.65</ele>
        <time>2012-08-07T08:30:46Z</time>
      </trkpt>
      <trkpt lat="45.76867" lon="6.11776">
        <ele>1037.4</ele>
        <time>2012-08-07T08:30:49Z</time>
      </trkpt>
      <trkpt lat="45.76898" lon="6.11806">
        <ele>1034.04</ele>
        <time>2012-08-07T08:30:51Z</time>
      </trkpt>
      <trkpt lat="45.76927" lon="6.1183">
        <ele>1029.23</ele>
        <time>2012-08-07T08:30:53Z</time>
      </trkpt>
      <trkpt lat="45.76939" lon="6.11844">
        <ele>1028.75</ele>
        <time>2012-08-07T08:30:54Z</time>
      </trkpt>
      <trkpt lat="45.76952" lon="6.11861">
        <ele>1027.31</ele>
        <time>2012-08-07T08:30:55Z</time>
      </trkpt>
      <trkpt lat="45.76963" lon="6.11879">
        <ele>1025.38</ele>
        <time>2012-08-07T08:30:56Z</time>
      </trkpt>
      <trkpt lat="45.76973" lon="6.11896">
        <ele>1024.42</ele>
        <time>2012-08-07T08:30:57Z</time>
      </trkpt>
      <trkpt lat="45.76985" lon="6.11914">
        <ele>1023.94</ele>
        <time>2012-08-07T08:30:58Z</time>
      </trkpt>
      <trkpt lat="45.77" lon="6.11931">
        <ele>1022.98</ele>
        <time>2012-08-07T08:30:59Z</time>
      </trkpt>
      <trkpt lat="45.77032" lon="6.11965">
        <ele>1019.13</ele>
        <time>2012-08-07T08:31:01Z</time>
      </trkpt>
      <trkpt lat="45.77058" lon="6.11996">
        <ele>1014.33</ele>
        <time>2012-08-07T08:31:03Z</time>
      </trkpt>
      <trkpt lat="45.77072" lon="6.12009">
        <ele>1014.33</ele>
        <time>2012-08-07T08:31:04Z</time>
      </trkpt>
      <trkpt lat="45.77088" lon="6.1202">
        <ele>1013.85</ele>
        <time>2012-08-07T08:31:05Z</time>
      </trkpt>
      <trkpt lat="45.77104" lon="6.12031">
        <ele>1011.44</ele>
        <time>2012-08-07T08:31:06Z</time>
      </trkpt>
      <trkpt lat="45.77129" lon="6.12053">
        <ele>1007.12</ele>
        <time>2012-08-07T08:31:08Z</time>
      </trkpt>
      <trkpt lat="45.77137" lon="6.12062">
        <ele>1005.2</ele>
        <time>2012-08-07T08:31:09Z</time>
      </trkpt>
      <trkpt lat="45.77143" lon="6.12071">
        <ele>1003.75</ele>
        <time>2012-08-07T08:31:10Z</time>
      </trkpt>
      <trkpt lat="45.77144" lon="6.12082">
        <ele>1002.31</ele>
        <time>2012-08-07T08:31:11Z</time>
      </trkpt>
      <trkpt lat="45.77141" lon="6.1209">
        <ele>1001.83</ele>
        <time>2012-08-07T08:31:12Z</time>
      </trkpt>
      <trkpt lat="45.77137" lon="6.12096">
        <ele>1000.87</ele>
        <time>2012-08-07T08:31:13Z</time>
      </trkpt>
      <trkpt lat="45.77132" lon="6.12095">
        <ele>1001.83</ele>
        <time>2012-08-07T08:31:14Z</time>
      </trkpt>
      <trkpt lat="45.77125" lon="6.12091">
        <ele>1002.79</ele>
        <time>2012-08-07T08:31:15Z</time>
      </trkpt>
      <trkpt lat="45.77116" lon="6.12085">
        <ele>1003.27</ele>
        <time>2012-08-07T08:31:16Z</time>
      </trkpt>
      <trkpt lat="45.77107" lon="6.12075">
        <ele>1002.79</ele>
        <time>2012-08-07T08:31:17Z</time>
      </trkpt>
      <trkpt lat="45.77096" lon="6.12064">
        <ele>1003.75</ele>
        <time>2012-08-07T08:31:18Z</time>
      </trkpt>
      <trkpt lat="45.77084" lon="6.12055">
        <ele>1004.72</ele>
        <time>2012-08-07T08:31:19Z</time>
      </trkpt>
      <trkpt lat="45.77059" lon="6.12044">
        <ele>1004.72</ele>
        <time>2012-08-07T08:31:20Z</time>
      </trkpt>
      <trkpt lat="45.77031" lon="6.12034">
        <ele>1004.23</ele>
        <time>2012-08-07T08:31:21Z</time>
      </trkpt>
      <trkpt lat="45.76994" lon="6.12009">
        <ele>1000.87</ele>
        <time>2012-08-07T08:31:23Z</time>
      </trkpt>
      <trkpt lat="45.76919" lon="6.1195">
        <ele>997.51</ele>
        <time>2012-08-07T08:31:27Z</time>
      </trkpt>
      <trkpt lat="45.76882" lon="6.1192">
        <ele>994.62</ele>
        <time>2012-08-07T08:31:29Z</time>
      </trkpt>
      <trkpt lat="45.76863" lon="6.1191">
        <ele>994.14</ele>
        <time>2012-08-07T08:31:30Z</time>
      </trkpt>
      <trkpt lat="45.76798" lon="6.11883">
        <ele>990.78</ele>
        <time>2012-08-07T08:31:33Z</time>
      </trkpt>
      <trkpt lat="45.76754" lon="6.11868">
        <ele>985.49</ele>
        <time>2012-08-07T08:31:35Z</time>
      </trkpt>
      <trkpt lat="45.76713" lon="6.11853">
        <ele>978.28</ele>
        <time>2012-08-07T08:31:37Z</time>
      </trkpt>
      <trkpt lat="45.76695" lon="6.11845">
        <ele>975.39</ele>
        <time>2012-08-07T08:31:38Z</time>
      </trkpt>
      <trkpt lat="45.76664" lon="6.1183">
        <ele>970.59</ele>
        <time>2012-08-07T08:31:40Z</time>
      </trkpt>
      <trkpt lat="45.76651" lon="6.11822">
        <ele>968.67</ele>
        <time>2012-08-07T08:31:41Z</time>
      </trkpt>
      <trkpt lat="45.76631" lon="6.1181">
        <ele>965.3</ele>
        <time>2012-08-07T08:31:43Z</time>
      </trkpt>
      <trkpt lat="45.76623" lon="6.11808">
        <ele>964.82</ele>
        <time>2012-08-07T08:31:44Z</time>
      </trkpt>
      <trkpt lat="45.76617" lon="6.11809">
        <ele>963.86</ele>
        <time>2012-08-07T08:31:45Z</time>
      </trkpt>
      <trkpt lat="45.76613" lon="6.11814">
        <ele>963.38</ele>
        <time>2012-08-07T08:31:46Z</time>
      </trkpt>
      <trkpt lat="45.7661" lon="6.11822">
        <ele>961.94</ele>
        <time>2012-08-07T08:31:47Z</time>
      </trkpt>
      <trkpt lat="45.76609" lon="6.1183">
        <ele>961.46</ele>
        <time>2012-08-07T08:31:48Z</time>
      </trkpt>
      <trkpt lat="45.76609" lon="6.11846">
        <ele>961.46</ele>
        <time>2012-08-07T08:31:50Z</time>
      </trkpt>
      <trkpt lat="45.7661" lon="6.11854">
        <ele>960.49</ele>
        <time>2012-08-07T08:31:51Z</time>
      </trkpt>
      <trkpt lat="45.76614" lon="6.11863">
        <ele>959.05</ele>
        <time>2012-08-07T08:31:52Z</time>
      </trkpt>
      <trkpt lat="45.76619" lon="6.1187">
        <ele>958.09</ele>
        <time>2012-08-07T08:31:53Z</time>
      </trkpt>
      <trkpt lat="45.76625" lon="6.11878">
        <ele>957.13</ele>
        <time>2012-08-07T08:31:54Z</time>
      </trkpt>
      <trkpt lat="45.76633" lon="6.11885">
        <ele>956.17</ele>
        <time>2012-08-07T08:31:55Z</time>
      </trkpt>
      <trkpt lat="45.76641" lon="6.11893">
        <ele>955.69</ele>
        <time>2012-08-07T08:31:56Z</time>
      </trkpt>
      <trkpt lat="45.76648" lon="6.11902">
        <ele>955.21</ele>
        <time>2012-08-07T08:31:57Z</time>
      </trkpt>
      <trkpt lat="45.767" lon="6.11953">
        <ele>950.88</ele>
        <time>2012-08-07T08:32:02Z</time>
      </trkpt>
      <trkpt lat="45.76722" lon="6.11972">
        <ele>948.96</ele>
        <time>2012-08-07T08:32:05Z</time>
      </trkpt>
      <trkpt lat="45.76749" lon="6.1201">
        <ele>948.96</ele>
        <time>2012-08-07T08:32:10Z</time>
      </trkpt>
      <trkpt lat="45.76753" lon="6.12022">
        <ele>948</ele>
        <time>2012-08-07T08:32:11Z</time>
      </trkpt>
      <trkpt lat="45.76756" lon="6.12036">
        <ele>947.52</ele>
        <time>2012-08-07T08:32:12Z</time>
      </trkpt>
      <trkpt lat="45.76758" lon="6.12052">
        <ele>947.04</ele>
        <time>2012-08-07T08:32:13Z</time>
      </trkpt>
      <trkpt lat="45.76761" lon="6.12069">
        <ele>945.11</ele>
        <time>2012-08-07T08:32:14Z</time>
      </trkpt>
      <trkpt lat="45.76765" lon="6.12083">
        <ele>943.19</ele>
        <time>2012-08-07T08:32:15Z</time>
      </trkpt>
      <trkpt lat="45.7677" lon="6.12095">
        <ele>942.23</ele>
        <time>2012-08-07T08:32:16Z</time>
      </trkpt>
      <trkpt lat="45.76774" lon="6.12105">
        <ele>940.79</ele>
        <time>2012-08-07T08:32:17Z</time>
      </trkpt>
      <trkpt lat="45.76776" lon="6.12114">
        <ele>939.83</ele>
        <time>2012-08-07T08:32:18Z</time>
      </trkpt>
      <trkpt lat="45.76775" lon="6.12121">
        <ele>938.86</ele>
        <time>2012-08-07T08:32:19Z</time>
      </trkpt>
      <trkpt lat="45.76772" lon="6.12127">
        <ele>937.9</ele>
        <time>2012-08-07T08:32:20Z</time>
      </trkpt>
      <trkpt lat="45.76767" lon="6.12126">
        <ele>937.42</ele>
        <time>2012-08-07T08:32:21Z</time>
      </trkpt>
      <trkpt lat="45.76761" lon="6.12121">
        <ele>936.46</ele>
        <time>2012-08-07T08:32:22Z</time>
      </trkpt>
      <trkpt lat="45.76754" lon="6.12116">
        <ele>936.46</ele>
        <time>2012-08-07T08:32:23Z</time>
      </trkpt>
      <trkpt lat="45.76745" lon="6.12111">
        <ele>935.98</ele>
        <time>2012-08-07T08:32:24Z</time>
      </trkpt>
      <trkpt lat="45.76735" lon="6.12106">
        <ele>935.5</ele>
        <time>2012-08-07T08:32:25Z</time>
      </trkpt>
      <trkpt lat="45.76724" lon="6.12101">
        <ele>934.54</ele>
        <time>2012-08-07T08:32:26Z</time>
      </trkpt>
      <trkpt lat="45.76714" lon="6.12095">
        <ele>933.1</ele>
        <time>2012-08-07T08:32:27Z</time>
      </trkpt>
      <trkpt lat="45.76706" lon="6.12088">
        <ele>931.65</ele>
        <time>2012-08-07T08:32:28Z</time>
      </trkpt>
      <trkpt lat="45.76699" lon="6.12081">
        <ele>930.69</ele>
        <time>2012-08-07T08:32:29Z</time>
      </trkpt>
      <trkpt lat="45.76692" lon="6.12078">
        <ele>930.21</ele>
        <time>2012-08-07T08:32:30Z</time>
      </trkpt>
      <trkpt lat="45.76685" lon="6.1208">
        <ele>929.73</ele>
        <time>2012-08-07T08:32:31Z</time>
      </trkpt>
      <trkpt lat="45.76681" lon="6.12085">
        <ele>929.25</ele>
        <time>2012-08-07T08:32:32Z</time>
      </trkpt>
      <trkpt lat="45.7668" lon="6.12095">
        <ele>928.77</ele>
        <time>2012-08-07T08:32:33Z</time>
      </trkpt>
      <trkpt lat="45.76681" lon="6.12109">
        <ele>928.77</ele>
        <time>2012-08-07T08:32:34Z</time>
      </trkpt>
      <trkpt lat="45.76688" lon="6.12119">
        <ele>928.29</ele>
        <time>2012-08-07T08:32:35Z</time>
      </trkpt>
      <trkpt lat="45.76694" lon="6.12122">
        <ele>928.29</ele>
        <time>2012-08-07T08:32:36Z</time>
      </trkpt>
      <trkpt lat="45.76703" lon="6.12134">
        <ele>926.37</ele>
        <time>2012-08-07T08:32:37Z</time>
      </trkpt>
      <trkpt lat="45.76706" lon="6.12145">
        <ele>926.37</ele>
        <time>2012-08-07T08:32:38Z</time>
      </trkpt>
      <trkpt lat="45.76707" lon="6.1216">
        <ele>926.37</ele>
        <time>2012-08-07T08:32:39Z</time>
      </trkpt>
      <trkpt lat="45.76708" lon="6.12176">
        <ele>926.85</ele>
        <time>2012-08-07T08:32:40Z</time>
      </trkpt>
      <trkpt lat="45.76708" lon="6.12194">
        <ele>926.37</ele>
        <time>2012-08-07T08:32:41Z</time>
      </trkpt>
      <trkpt lat="45.76707" lon="6.12212">
        <ele>925.89</ele>
        <time>2012-08-07T08:32:42Z</time>
      </trkpt>
      <trkpt lat="45.76706" lon="6.12249">
        <ele>924.93</ele>
        <time>2012-08-07T08:32:44Z</time>
      </trkpt>
      <trkpt lat="45.76709" lon="6.12269">
        <ele>924.45</ele>
        <time>2012-08-07T08:32:45Z</time>
      </trkpt>
      <trkpt lat="45.76728" lon="6.12395">
        <ele>920.12</ele>
        <time>2012-08-07T08:32:50Z</time>
      </trkpt>
      <trkpt lat="45.76738" lon="6.12469">
        <ele>914.83</ele>
        <time>2012-08-07T08:32:53Z</time>
      </trkpt>
      <trkpt lat="45.76744" lon="6.1251">
        <ele>910.99</ele>
        <time>2012-08-07T08:32:55Z</time>
      </trkpt>
      <trkpt lat="45.7675" lon="6.12545">
        <ele>908.58</ele>
        <time>2012-08-07T08:32:57Z</time>
      </trkpt>
      <trkpt lat="45.76756" lon="6.12563">
        <ele>908.58</ele>
        <time>2012-08-07T08:32:58Z</time>
      </trkpt>
      <trkpt lat="45.76765" lon="6.12579">
        <ele>908.58</ele>
        <time>2012-08-07T08:32:59Z</time>
      </trkpt>
      <trkpt lat="45.76777" lon="6.12594">
        <ele>907.14</ele>
        <time>2012-08-07T08:33:00Z</time>
      </trkpt>
      <trkpt lat="45.76789" lon="6.1261">
        <ele>907.14</ele>
        <time>2012-08-07T08:33:01Z</time>
      </trkpt>
      <trkpt lat="45.76815" lon="6.12641">
        <ele>904.26</ele>
        <time>2012-08-07T08:33:03Z</time>
      </trkpt>
      <trkpt lat="45.76829" lon="6.12652">
        <ele>902.33</ele>
        <time>2012-08-07T08:33:04Z</time>
      </trkpt>
      <trkpt lat="45.76853" lon="6.12668">
        <ele>898.01</ele>
        <time>2012-08-07T08:33:06Z</time>
      </trkpt>
      <trkpt lat="45.76862" lon="6.12674">
        <ele>896.57</ele>
        <time>2012-08-07T08:33:07Z</time>
      </trkpt>
      <trkpt lat="45.7687" lon="6.12682">
        <ele>895.12</ele>
        <time>2012-08-07T08:33:08Z</time>
      </trkpt>
      <trkpt lat="45.76875" lon="6.12689">
        <ele>894.16</ele>
        <time>2012-08-07T08:33:09Z</time>
      </trkpt>
      <trkpt lat="45.76878" lon="6.12697">
        <ele>893.2</ele>
        <time>2012-08-07T08:33:10Z</time>
      </trkpt>
      <trkpt lat="45.76877" lon="6.12704">
        <ele>892.24</ele>
        <time>2012-08-07T08:33:11Z</time>
      </trkpt>
      <trkpt lat="45.76873" lon="6.12709">
        <ele>891.28</ele>
        <time>2012-08-07T08:33:12Z</time>
      </trkpt>
      <trkpt lat="45.76865" lon="6.12712">
        <ele>890.8</ele>
        <time>2012-08-07T08:33:13Z</time>
      </trkpt>
      <trkpt lat="45.76856" lon="6.12712">
        <ele>891.28</ele>
        <time>2012-08-07T08:33:14Z</time>
      </trkpt>
      <trkpt lat="45.768" lon="6.12716">
        <ele>891.28</ele>
        <time>2012-08-07T08:33:18Z</time>
      </trkpt>
      <trkpt lat="45.76783" lon="6.12712">
        <ele>891.28</ele>
        <time>2012-08-07T08:33:19Z</time>
      </trkpt>
      <trkpt lat="45.76765" lon="6.12704">
        <ele>890.8</ele>
        <time>2012-08-07T08:33:20Z</time>
      </trkpt>
      <trkpt lat="45.76688" lon="6.12661">
        <ele>890.32</ele>
        <time>2012-08-07T08:33:24Z</time>
      </trkpt>
      <trkpt lat="45.76588" lon="6.12594">
        <ele>885.99</ele>
        <time>2012-08-07T08:33:29Z</time>
      </trkpt>
      <trkpt lat="45.76551" lon="6.12567">
        <ele>882.15</ele>
        <time>2012-08-07T08:33:31Z</time>
      </trkpt>
      <trkpt lat="45.7652" lon="6.12543">
        <ele>878.78</ele>
        <time>2012-08-07T08:33:33Z</time>
      </trkpt>
      <trkpt lat="45.76492" lon="6.12515">
        <ele>878.3</ele>
        <time>2012-08-07T08:33:35Z</time>
      </trkpt>
      <trkpt lat="45.76478" lon="6.12498">
        <ele>878.3</ele>
        <time>2012-08-07T08:33:36Z</time>
      </trkpt>
      <trkpt lat="45.76454" lon="6.12463">
        <ele>874.94</ele>
        <time>2012-08-07T08:33:38Z</time>
      </trkpt>
      <trkpt lat="45.76416" lon="6.12401">
        <ele>871.57</ele>
        <time>2012-08-07T08:33:42Z</time>
      </trkpt>
      <trkpt lat="45.76411" lon="6.12384">
        <ele>870.61</ele>
        <time>2012-08-07T08:33:43Z</time>
      </trkpt>
      <trkpt lat="45.76407" lon="6.12365">
        <ele>870.61</ele>
        <time>2012-08-07T08:33:44Z</time>
      </trkpt>
      <trkpt lat="45.76406" lon="6.12343">
        <ele>871.09</ele>
        <time>2012-08-07T08:33:45Z</time>
      </trkpt>
      <trkpt lat="45.76405" lon="6.1232">
        <ele>870.61</ele>
        <time>2012-08-07T08:33:46Z</time>
      </trkpt>
      <trkpt lat="45.76402" lon="6.12278">
        <ele>869.65</ele>
        <time>2012-08-07T08:33:48Z</time>
      </trkpt>
      <trkpt lat="45.76397" lon="6.12258">
        <ele>868.69</ele>
        <time>2012-08-07T08:33:49Z</time>
      </trkpt>
      <trkpt lat="45.76389" lon="6.12239">
        <ele>869.17</ele>
        <time>2012-08-07T08:33:50Z</time>
      </trkpt>
      <trkpt lat="45.7638" lon="6.1222">
        <ele>868.21</ele>
        <time>2012-08-07T08:33:51Z</time>
      </trkpt>
      <trkpt lat="45.7637" lon="6.12203">
        <ele>867.73</ele>
        <time>2012-08-07T08:33:52Z</time>
      </trkpt>
      <trkpt lat="45.76357" lon="6.12188">
        <ele>867.25</ele>
        <time>2012-08-07T08:33:53Z</time>
      </trkpt>
      <trkpt lat="45.76342" lon="6.12176">
        <ele>866.77</ele>
        <time>2012-08-07T08:33:54Z</time>
      </trkpt>
      <trkpt lat="45.76326" lon="6.12166">
        <ele>866.29</ele>
        <time>2012-08-07T08:33:55Z</time>
      </trkpt>
      <trkpt lat="45.76309" lon="6.12157">
        <ele>865.8</ele>
        <time>2012-08-07T08:33:56Z</time>
      </trkpt>
      <trkpt lat="45.7622" lon="6.12111">
        <ele>861.96</ele>
        <time>2012-08-07T08:34:01Z</time>
      </trkpt>
      <trkpt lat="45.76108" lon="6.12047">
        <ele>858.11</ele>
        <time>2012-08-07T08:34:07Z</time>
      </trkpt>
      <trkpt lat="45.76074" lon="6.12019">
        <ele>855.23</ele>
        <time>2012-08-07T08:34:09Z</time>
      </trkpt>
      <trkpt lat="45.75964" lon="6.1189">
        <ele>852.83</ele>
        <time>2012-08-07T08:34:16Z</time>
      </trkpt>
      <trkpt lat="45.75946" lon="6.11874">
        <ele>851.38</ele>
        <time>2012-08-07T08:34:17Z</time>
      </trkpt>
      <trkpt lat="45.75928" lon="6.11861">
        <ele>850.42</ele>
        <time>2012-08-07T08:34:18Z</time>
      </trkpt>
      <trkpt lat="45.75834" lon="6.118">
        <ele>847.06</ele>
        <time>2012-08-07T08:34:23Z</time>
      </trkpt>
      <trkpt lat="45.75774" lon="6.11776">
        <ele>843.69</ele>
        <time>2012-08-07T08:34:26Z</time>
      </trkpt>
      <trkpt lat="45.75753" lon="6.11769">
        <ele>843.69</ele>
        <time>2012-08-07T08:34:27Z</time>
      </trkpt>
      <trkpt lat="45.7563" lon="6.11732">
        <ele>840.33</ele>
        <time>2012-08-07T08:34:33Z</time>
      </trkpt>
      <trkpt lat="45.75573" lon="6.11717">
        <ele>837.45</ele>
        <time>2012-08-07T08:34:36Z</time>
      </trkpt>
      <trkpt lat="45.75541" lon="6.11706">
        <ele>835.04</ele>
        <time>2012-08-07T08:34:38Z</time>
      </trkpt>
      <trkpt lat="45.75527" lon="6.11697">
        <ele>834.56</ele>
        <time>2012-08-07T08:34:39Z</time>
      </trkpt>
      <trkpt lat="45.75513" lon="6.11685">
        <ele>834.08</ele>
        <time>2012-08-07T08:34:40Z</time>
      </trkpt>
      <trkpt lat="45.75484" lon="6.1166">
        <ele>834.56</ele>
        <time>2012-08-07T08:34:42Z</time>
      </trkpt>
      <trkpt lat="45.75467" lon="6.11652">
        <ele>835.04</ele>
        <time>2012-08-07T08:34:43Z</time>
      </trkpt>
      <trkpt lat="45.75447" lon="6.11646">
        <ele>835.52</ele>
        <time>2012-08-07T08:34:44Z</time>
      </trkpt>
      <trkpt lat="45.75388" lon="6.11625">
        <ele>833.6</ele>
        <time>2012-08-07T08:34:47Z</time>
      </trkpt>
      <trkpt lat="45.75207" lon="6.11528">
        <ele>830.72</ele>
        <time>2012-08-07T08:34:56Z</time>
      </trkpt>
      <trkpt lat="45.75187" lon="6.11517">
        <ele>830.24</ele>
        <time>2012-08-07T08:34:57Z</time>
      </trkpt>
      <trkpt lat="45.75131" lon="6.11485">
        <ele>827.35</ele>
        <time>2012-08-07T08:35:00Z</time>
      </trkpt>
      <trkpt lat="45.75096" lon="6.11466">
        <ele>826.39</ele>
        <time>2012-08-07T08:35:02Z</time>
      </trkpt>
      <trkpt lat="45.74941" lon="6.11418">
        <ele>823.03</ele>
        <time>2012-08-07T08:35:10Z</time>
      </trkpt>
      <trkpt lat="45.74905" lon="6.11413">
        <ele>821.1</ele>
        <time>2012-08-07T08:35:12Z</time>
      </trkpt>
      <trkpt lat="45.74887" lon="6.11414">
        <ele>821.1</ele>
        <time>2012-08-07T08:35:13Z</time>
      </trkpt>
      <trkpt lat="45.74869" lon="6.11419">
        <ele>820.62</ele>
        <time>2012-08-07T08:35:14Z</time>
      </trkpt>
      <trkpt lat="45.74771" lon="6.11436">
        <ele>817.26</ele>
        <time>2012-08-07T08:35:19Z</time>
      </trkpt>
      <trkpt lat="45.74734" lon="6.11435">
        <ele>813.41</ele>
        <time>2012-08-07T08:35:21Z</time>
      </trkpt>
      <trkpt lat="45.74702" lon="6.11432">
        <ele>809.09</ele>
        <time>2012-08-07T08:35:23Z</time>
      </trkpt>
      <trkpt lat="45.74688" lon="6.11427">
        <ele>807.16</ele>
        <time>2012-08-07T08:35:24Z</time>
      </trkpt>
      <trkpt lat="45.74674" lon="6.1142">
        <ele>806.68</ele>
        <time>2012-08-07T08:35:25Z</time>
      </trkpt>
      <trkpt lat="45.74651" lon="6.11408">
        <ele>803.32</ele>
        <time>2012-08-07T08:35:27Z</time>
      </trkpt>
      <trkpt lat="45.7464" lon="6.11406">
        <ele>802.84</ele>
        <time>2012-08-07T08:35:28Z</time>
      </trkpt>
      <trkpt lat="45.74631" lon="6.1141">
        <ele>801.88</ele>
        <time>2012-08-07T08:35:29Z</time>
      </trkpt>
      <trkpt lat="45.74623" lon="6.11419">
        <ele>801.88</ele>
        <time>2012-08-07T08:35:30Z</time>
      </trkpt>
      <trkpt lat="45.74616" lon="6.1143">
        <ele>800.92</ele>
        <time>2012-08-07T08:35:31Z</time>
      </trkpt>
      <trkpt lat="45.74608" lon="6.1144">
        <ele>800.44</ele>
        <time>2012-08-07T08:35:32Z</time>
      </trkpt>
      <trkpt lat="45.74597" lon="6.11446">
        <ele>799.47</ele>
        <time>2012-08-07T08:35:33Z</time>
      </trkpt>
      <trkpt lat="45.74586" lon="6.11447">
        <ele>798.99</ele>
        <time>2012-08-07T08:35:34Z</time>
      </trkpt>
      <trkpt lat="45.74576" lon="6.11446">
        <ele>798.03</ele>
        <time>2012-08-07T08:35:35Z</time>
      </trkpt>
      <trkpt lat="45.74569" lon="6.11445">
        <ele>796.11</ele>
        <time>2012-08-07T08:35:36Z</time>
      </trkpt>
      <trkpt lat="45.74557" lon="6.11443">
        <ele>795.63</ele>
        <time>2012-08-07T08:35:38Z</time>
      </trkpt>
      <trkpt lat="45.74486" lon="6.1143">
        <ele>792.74</ele>
        <time>2012-08-07T08:35:45Z</time>
      </trkpt>
      <trkpt lat="45.74441" lon="6.11426">
        <ele>789.38</ele>
        <time>2012-08-07T08:35:49Z</time>
      </trkpt>
      <trkpt lat="45.74386" lon="6.1143">
        <ele>786.02</ele>
        <time>2012-08-07T08:35:56Z</time>
      </trkpt>
      <trkpt lat="45.74369" lon="6.1143">
        <ele>785.05</ele>
        <time>2012-08-07T08:35:58Z</time>
      </trkpt>
      <trkpt lat="45.7436" lon="6.11429">
        <ele>784.57</ele>
        <time>2012-08-07T08:35:59Z</time>
      </trkpt>
      <trkpt lat="45.7435" lon="6.11426">
        <ele>784.57</ele>
        <time>2012-08-07T08:36:00Z</time>
      </trkpt>
      <trkpt lat="45.74328" lon="6.11416">
        <ele>783.13</ele>
        <time>2012-08-07T08:36:02Z</time>
      </trkpt>
      <trkpt lat="45.74295" lon="6.114">
        <ele>781.69</ele>
        <time>2012-08-07T08:36:05Z</time>
      </trkpt>
      <trkpt lat="45.74257" lon="6.11378">
        <ele>777.84</ele>
        <time>2012-08-07T08:36:09Z</time>
      </trkpt>
      <trkpt lat="45.7425" lon="6.11372">
        <ele>777.84</ele>
        <time>2012-08-07T08:36:10Z</time>
      </trkpt>
      <trkpt lat="45.74177" lon="6.11309">
        <ele>777.36</ele>
        <time>2012-08-07T08:36:18Z</time>
      </trkpt>
      <trkpt lat="45.74154" lon="6.11289">
        <ele>774</ele>
        <time>2012-08-07T08:36:20Z</time>
      </trkpt>
      <trkpt lat="45.74142" lon="6.11278">
        <ele>774</ele>
        <time>2012-08-07T08:36:21Z</time>
      </trkpt>
      <trkpt lat="45.74119" lon="6.11262">
        <ele>771.6</ele>
        <time>2012-08-07T08:36:23Z</time>
      </trkpt>
      <trkpt lat="45.74106" lon="6.11258">
        <ele>771.11</ele>
        <time>2012-08-07T08:36:24Z</time>
      </trkpt>
      <trkpt lat="45.74091" lon="6.11259">
        <ele>770.63</ele>
        <time>2012-08-07T08:36:25Z</time>
      </trkpt>
      <trkpt lat="45.74077" lon="6.11264">
        <ele>769.67</ele>
        <time>2012-08-07T08:36:26Z</time>
      </trkpt>
      <trkpt lat="45.74062" lon="6.11269">
        <ele>768.23</ele>
        <time>2012-08-07T08:36:27Z</time>
      </trkpt>
      <trkpt lat="45.7403" lon="6.11277">
        <ele>766.79</ele>
        <time>2012-08-07T08:36:29Z</time>
      </trkpt>
      <trkpt lat="45.74014" lon="6.11277">
        <ele>766.31</ele>
        <time>2012-08-07T08:36:30Z</time>
      </trkpt>
      <trkpt lat="45.73965" lon="6.11273">
        <ele>762.46</ele>
        <time>2012-08-07T08:36:33Z</time>
      </trkpt>
      <trkpt lat="45.73937" lon="6.11268">
        <ele>760.06</ele>
        <time>2012-08-07T08:36:35Z</time>
      </trkpt>
      <trkpt lat="45.73923" lon="6.11262">
        <ele>759.58</ele>
        <time>2012-08-07T08:36:36Z</time>
      </trkpt>
      <trkpt lat="45.73909" lon="6.11253">
        <ele>758.14</ele>
        <time>2012-08-07T08:36:37Z</time>
      </trkpt>
      <trkpt lat="45.73895" lon="6.11243">
        <ele>758.14</ele>
        <time>2012-08-07T08:36:38Z</time>
      </trkpt>
      <trkpt lat="45.73883" lon="6.11232">
        <ele>757.18</ele>
        <time>2012-08-07T08:36:39Z</time>
      </trkpt>
      <trkpt lat="45.73872" lon="6.11221">
        <ele>755.73</ele>
        <time>2012-08-07T08:36:40Z</time>
      </trkpt>
      <trkpt lat="45.73864" lon="6.1121">
        <ele>754.77</ele>
        <time>2012-08-07T08:36:41Z</time>
      </trkpt>
      <trkpt lat="45.73858" lon="6.11195">
        <ele>754.29</ele>
        <time>2012-08-07T08:36:42Z</time>
      </trkpt>
      <trkpt lat="45.73854" lon="6.11176">
        <ele>753.81</ele>
        <time>2012-08-07T08:36:43Z</time>
      </trkpt>
      <trkpt lat="45.73851" lon="6.11156">
        <ele>753.81</ele>
        <time>2012-08-07T08:36:44Z</time>
      </trkpt>
      <trkpt lat="45.73844" lon="6.11101">
        <ele>748.52</ele>
        <time>2012-08-07T08:36:47Z</time>
      </trkpt>
      <trkpt lat="45.73841" lon="6.11088">
        <ele>748.04</ele>
        <time>2012-08-07T08:36:48Z</time>
      </trkpt>
      <trkpt lat="45.73837" lon="6.1108">
        <ele>747.56</ele>
        <time>2012-08-07T08:36:49Z</time>
      </trkpt>
      <trkpt lat="45.73829" lon="6.11076">
        <ele>746.6</ele>
        <time>2012-08-07T08:36:50Z</time>
      </trkpt>
      <trkpt lat="45.73822" lon="6.1108">
        <ele>746.6</ele>
        <time>2012-08-07T08:36:51Z</time>
      </trkpt>
      <trkpt lat="45.73817" lon="6.1109">
        <ele>746.6</ele>
        <time>2012-08-07T08:36:52Z</time>
      </trkpt>
      <trkpt lat="45.73813" lon="6.11105">
        <ele>746.6</ele>
        <time>2012-08-07T08:36:53Z</time>
      </trkpt>
      <trkpt lat="45.73811" lon="6.11123">
        <ele>746.12</ele>
        <time>2012-08-07T08:36:54Z</time>
      </trkpt>
      <trkpt lat="45.73807" lon="6.11143">
        <ele>746.12</ele>
        <time>2012-08-07T08:36:55Z</time>
      </trkpt>
      <trkpt lat="45.73801" lon="6.11164">
        <ele>746.12</ele>
        <time>2012-08-07T08:36:56Z</time>
      </trkpt>
      <trkpt lat="45.73781" lon="6.11228">
        <ele>740.35</ele>
        <time>2012-08-07T08:36:59Z</time>
      </trkpt>
      <trkpt lat="45.73773" lon="6.11244">
        <ele>739.87</ele>
        <time>2012-08-07T08:37:00Z</time>
      </trkpt>
      <trkpt lat="45.73763" lon="6.11256">
        <ele>738.91</ele>
        <time>2012-08-07T08:37:01Z</time>
      </trkpt>
      <trkpt lat="45.7375" lon="6.11263">
        <ele>738.43</ele>
        <time>2012-08-07T08:37:02Z</time>
      </trkpt>
      <trkpt lat="45.73734" lon="6.11264">
        <ele>738.43</ele>
        <time>2012-08-07T08:37:03Z</time>
      </trkpt>
      <trkpt lat="45.73717" lon="6.11262">
        <ele>738.43</ele>
        <time>2012-08-07T08:37:04Z</time>
      </trkpt>
      <trkpt lat="45.73665" lon="6.11261">
        <ele>735.55</ele>
        <time>2012-08-07T08:37:07Z</time>
      </trkpt>
      <trkpt lat="45.73649" lon="6.11266">
        <ele>734.58</ele>
        <time>2012-08-07T08:37:08Z</time>
      </trkpt>
      <trkpt lat="45.73635" lon="6.11275">
        <ele>732.18</ele>
        <time>2012-08-07T08:37:09Z</time>
      </trkpt>
      <trkpt lat="45.73623" lon="6.11284">
        <ele>729.78</ele>
        <time>2012-08-07T08:37:10Z</time>
      </trkpt>
      <trkpt lat="45.73611" lon="6.1129">
        <ele>729.3</ele>
        <time>2012-08-07T08:37:11Z</time>
      </trkpt>
      <trkpt lat="45.73597" lon="6.11292">
        <ele>728.82</ele>
        <time>2012-08-07T08:37:12Z</time>
      </trkpt>
      <trkpt lat="45.73582" lon="6.11291">
        <ele>728.34</ele>
        <time>2012-08-07T08:37:13Z</time>
      </trkpt>
      <trkpt lat="45.73565" lon="6.11286">
        <ele>727.86</ele>
        <time>2012-08-07T08:37:14Z</time>
      </trkpt>
      <trkpt lat="45.73548" lon="6.11278">
        <ele>727.86</ele>
        <time>2012-08-07T08:37:15Z</time>
      </trkpt>
      <trkpt lat="45.73531" lon="6.11269">
        <ele>726.41</ele>
        <time>2012-08-07T08:37:16Z</time>
      </trkpt>
      <trkpt lat="45.73514" lon="6.11258">
        <ele>725.45</ele>
        <time>2012-08-07T08:37:17Z</time>
      </trkpt>
      <trkpt lat="45.73486" lon="6.11234">
        <ele>724.01</ele>
        <time>2012-08-07T08:37:19Z</time>
      </trkpt>
      <trkpt lat="45.73475" lon="6.11216">
        <ele>723.53</ele>
        <time>2012-08-07T08:37:20Z</time>
      </trkpt>
      <trkpt lat="45.73466" lon="6.11197">
        <ele>721.61</ele>
        <time>2012-08-07T08:37:21Z</time>
      </trkpt>
      <trkpt lat="45.7344" lon="6.11141">
        <ele>718.24</ele>
        <time>2012-08-07T08:37:24Z</time>
      </trkpt>
      <trkpt lat="45.73429" lon="6.11124">
        <ele>718.24</ele>
        <time>2012-08-07T08:37:25Z</time>
      </trkpt>
      <trkpt lat="45.73416" lon="6.11109">
        <ele>716.8</ele>
        <time>2012-08-07T08:37:26Z</time>
      </trkpt>
      <trkpt lat="45.73402" lon="6.11096">
        <ele>714.88</ele>
        <time>2012-08-07T08:37:27Z</time>
      </trkpt>
      <trkpt lat="45.73388" lon="6.11084">
        <ele>714.4</ele>
        <time>2012-08-07T08:37:28Z</time>
      </trkpt>
      <trkpt lat="45.73347" lon="6.11052">
        <ele>710.55</ele>
        <time>2012-08-07T08:37:31Z</time>
      </trkpt>
      <trkpt lat="45.73333" lon="6.11044">
        <ele>709.11</ele>
        <time>2012-08-07T08:37:32Z</time>
      </trkpt>
      <trkpt lat="45.7329" lon="6.11026">
        <ele>704.78</ele>
        <time>2012-08-07T08:37:35Z</time>
      </trkpt>
      <trkpt lat="45.73276" lon="6.1102">
        <ele>704.3</ele>
        <time>2012-08-07T08:37:36Z</time>
      </trkpt>
      <trkpt lat="45.73221" lon="6.10997">
        <ele>700.94</ele>
        <time>2012-08-07T08:37:40Z</time>
      </trkpt>
      <trkpt lat="45.73208" lon="6.10989">
        <ele>700.94</ele>
        <time>2012-08-07T08:37:41Z</time>
      </trkpt>
      <trkpt lat="45.73153" lon="6.10957">
        <ele>697.57</ele>
        <time>2012-08-07T08:37:45Z</time>
      </trkpt>
      <trkpt lat="45.73113" lon="6.10932">
        <ele>693.73</ele>
        <time>2012-08-07T08:37:48Z</time>
      </trkpt>
      <trkpt lat="45.73079" lon="6.10904">
        <ele>691.33</ele>
        <time>2012-08-07T08:37:51Z</time>
      </trkpt>
      <trkpt lat="45.73069" lon="6.10891">
        <ele>690.84</ele>
        <time>2012-08-07T08:37:52Z</time>
      </trkpt>
      <trkpt lat="45.73061" lon="6.10876">
        <ele>691.33</ele>
        <time>2012-08-07T08:37:53Z</time>
      </trkpt>
      <trkpt lat="45.73054" lon="6.10858">
        <ele>690.36</ele>
        <time>2012-08-07T08:37:54Z</time>
      </trkpt>
      <trkpt lat="45.73048" lon="6.10839">
        <ele>689.88</ele>
        <time>2012-08-07T08:37:55Z</time>
      </trkpt>
      <trkpt lat="45.73042" lon="6.1082">
        <ele>690.36</ele>
        <time>2012-08-07T08:37:56Z</time>
      </trkpt>
      <trkpt lat="45.73029" lon="6.10785">
        <ele>688.44</ele>
        <time>2012-08-07T08:37:58Z</time>
      </trkpt>
      <trkpt lat="45.73019" lon="6.10769">
        <ele>687.48</ele>
        <time>2012-08-07T08:37:59Z</time>
      </trkpt>
      <trkpt lat="45.73008" lon="6.10753">
        <ele>686.52</ele>
        <time>2012-08-07T08:38:00Z</time>
      </trkpt>
      <trkpt lat="45.72947" lon="6.10671">
        <ele>682.19</ele>
        <time>2012-08-07T08:38:05Z</time>
      </trkpt>
      <trkpt lat="45.72913" lon="6.10622">
        <ele>677.39</ele>
        <time>2012-08-07T08:38:08Z</time>
      </trkpt>
      <trkpt lat="45.72877" lon="6.10574">
        <ele>672.58</ele>
        <time>2012-08-07T08:38:11Z</time>
      </trkpt>
      <trkpt lat="45.72845" lon="6.10529">
        <ele>669.7</ele>
        <time>2012-08-07T08:38:14Z</time>
      </trkpt>
      <trkpt lat="45.72835" lon="6.10518">
        <ele>669.22</ele>
        <time>2012-08-07T08:38:15Z</time>
      </trkpt>
      <trkpt lat="45.72825" lon="6.1051">
        <ele>668.73</ele>
        <time>2012-08-07T08:38:16Z</time>
      </trkpt>
      <trkpt lat="45.72814" lon="6.10506">
        <ele>667.77</ele>
        <time>2012-08-07T08:38:17Z</time>
      </trkpt>
      <trkpt lat="45.72801" lon="6.10507">
        <ele>668.25</ele>
        <time>2012-08-07T08:38:18Z</time>
      </trkpt>
      <trkpt lat="45.72787" lon="6.10512">
        <ele>668.25</ele>
        <time>2012-08-07T08:38:19Z</time>
      </trkpt>
      <trkpt lat="45.72773" lon="6.10517">
        <ele>668.73</ele>
        <time>2012-08-07T08:38:20Z</time>
      </trkpt>
      <trkpt lat="45.72711" lon="6.1054">
        <ele>664.89</ele>
        <time>2012-08-07T08:38:24Z</time>
      </trkpt>
      <trkpt lat="45.72682" lon="6.1055">
        <ele>661.52</ele>
        <time>2012-08-07T08:38:26Z</time>
      </trkpt>
      <trkpt lat="45.72668" lon="6.10555">
        <ele>661.04</ele>
        <time>2012-08-07T08:38:27Z</time>
      </trkpt>
      <trkpt lat="45.72628" lon="6.10568">
        <ele>658.64</ele>
        <time>2012-08-07T08:38:30Z</time>
      </trkpt>
      <trkpt lat="45.72614" lon="6.1057">
        <ele>657.2</ele>
        <time>2012-08-07T08:38:31Z</time>
      </trkpt>
      <trkpt lat="45.72601" lon="6.10569">
        <ele>656.72</ele>
        <time>2012-08-07T08:38:32Z</time>
      </trkpt>
      <trkpt lat="45.72588" lon="6.10565">
        <ele>656.24</ele>
        <time>2012-08-07T08:38:33Z</time>
      </trkpt>
      <trkpt lat="45.72575" lon="6.1056">
        <ele>655.76</ele>
        <time>2012-08-07T08:38:34Z</time>
      </trkpt>
      <trkpt lat="45.72488" lon="6.10526">
        <ele>652.87</ele>
        <time>2012-08-07T08:38:40Z</time>
      </trkpt>
      <trkpt lat="45.72446" lon="6.10508">
        <ele>650.47</ele>
        <time>2012-08-07T08:38:43Z</time>
      </trkpt>
      <trkpt lat="45.72377" lon="6.10482">
        <ele>647.1</ele>
        <time>2012-08-07T08:38:48Z</time>
      </trkpt>
      <trkpt lat="45.72334" lon="6.10468">
        <ele>645.18</ele>
        <time>2012-08-07T08:38:51Z</time>
      </trkpt>
      <trkpt lat="45.72295" lon="6.10454">
        <ele>641.82</ele>
        <time>2012-08-07T08:38:54Z</time>
      </trkpt>
      <trkpt lat="45.72284" lon="6.10447">
        <ele>640.38</ele>
        <time>2012-08-07T08:38:55Z</time>
      </trkpt>
      <trkpt lat="45.72275" lon="6.10437">
        <ele>639.41</ele>
        <time>2012-08-07T08:38:56Z</time>
      </trkpt>
      <trkpt lat="45.72266" lon="6.10425">
        <ele>638.93</ele>
        <time>2012-08-07T08:38:57Z</time>
      </trkpt>
      <trkpt lat="45.72234" lon="6.10366">
        <ele>635.57</ele>
        <time>2012-08-07T08:39:01Z</time>
      </trkpt>
      <trkpt lat="45.7223" lon="6.10349">
        <ele>634.61</ele>
        <time>2012-08-07T08:39:02Z</time>
      </trkpt>
      <trkpt lat="45.72228" lon="6.10331">
        <ele>633.17</ele>
        <time>2012-08-07T08:39:03Z</time>
      </trkpt>
      <trkpt lat="45.7223" lon="6.10314">
        <ele>632.2</ele>
        <time>2012-08-07T08:39:04Z</time>
      </trkpt>
      <trkpt lat="45.72234" lon="6.10298">
        <ele>631.72</ele>
        <time>2012-08-07T08:39:05Z</time>
      </trkpt>
      <trkpt lat="45.7224" lon="6.10283">
        <ele>629.8</ele>
        <time>2012-08-07T08:39:06Z</time>
      </trkpt>
      <trkpt lat="45.72249" lon="6.10272">
        <ele>630.28</ele>
        <time>2012-08-07T08:39:07Z</time>
      </trkpt>
      <trkpt lat="45.72258" lon="6.10265">
        <ele>629.32</ele>
        <time>2012-08-07T08:39:08Z</time>
      </trkpt>
      <trkpt lat="45.72267" lon="6.10261">
        <ele>628.84</ele>
        <time>2012-08-07T08:39:09Z</time>
      </trkpt>
      <trkpt lat="45.72275" lon="6.10256">
        <ele>628.36</ele>
        <time>2012-08-07T08:39:10Z</time>
      </trkpt>
      <trkpt lat="45.7228" lon="6.10249">
        <ele>627.4</ele>
        <time>2012-08-07T08:39:11Z</time>
      </trkpt>
      <trkpt lat="45.72283" lon="6.1024">
        <ele>627.4</ele>
        <time>2012-08-07T08:39:12Z</time>
      </trkpt>
      <trkpt lat="45.72283" lon="6.10231">
        <ele>627.4</ele>
        <time>2012-08-07T08:39:13Z</time>
      </trkpt>
      <trkpt lat="45.7228" lon="6.10223">
        <ele>626.92</ele>
        <time>2012-08-07T08:39:14Z</time>
      </trkpt>
      <trkpt lat="45.72278" lon="6.10216">
        <ele>626.44</ele>
        <time>2012-08-07T08:39:15Z</time>
      </trkpt>
      <trkpt lat="45.72275" lon="6.10212">
        <ele>625.96</ele>
        <time>2012-08-07T08:39:16Z</time>
      </trkpt>
      <trkpt lat="45.72274" lon="6.1021">
        <ele>626.44</ele>
        <time>2012-08-07T08:39:17Z</time>
      </trkpt>
      <trkpt lat="45.72265" lon="6.10207">
        <ele>625.96</ele>
        <time>2012-08-07T08:39:23Z</time>
      </trkpt>
      <trkpt lat="45.72261" lon="6.1021">
        <ele>626.44</ele>
        <time>2012-08-07T08:39:24Z</time>
      </trkpt>
      <trkpt lat="45.72256" lon="6.10216">
        <ele>626.44</ele>
        <time>2012-08-07T08:39:25Z</time>
      </trkpt>
      <trkpt lat="45.72197" lon="6.1029">
        <ele>626.44</ele>
        <time>2012-08-07T08:39:34Z</time>
      </trkpt>
      <trkpt lat="45.72184" lon="6.1031">
        <ele>624.99</ele>
        <time>2012-08-07T08:39:36Z</time>
      </trkpt>
      <trkpt lat="45.7218" lon="6.10321">
        <ele>623.55</ele>
        <time>2012-08-07T08:39:37Z</time>
      </trkpt>
      <trkpt lat="45.72179" lon="6.10334">
        <ele>623.07</ele>
        <time>2012-08-07T08:39:38Z</time>
      </trkpt>
      <trkpt lat="45.7218" lon="6.10348">
        <ele>623.55</ele>
        <time>2012-08-07T08:39:39Z</time>
      </trkpt>
      <trkpt lat="45.72183" lon="6.10364">
        <ele>623.07</ele>
        <time>2012-08-07T08:39:40Z</time>
      </trkpt>
      <trkpt lat="45.72188" lon="6.10379">
        <ele>622.59</ele>
        <time>2012-08-07T08:39:41Z</time>
      </trkpt>
      <trkpt lat="45.72193" lon="6.10394">
        <ele>622.59</ele>
        <time>2012-08-07T08:39:42Z</time>
      </trkpt>
      <trkpt lat="45.72199" lon="6.10408">
        <ele>621.63</ele>
        <time>2012-08-07T08:39:43Z</time>
      </trkpt>
      <trkpt lat="45.72205" lon="6.10421">
        <ele>621.15</ele>
        <time>2012-08-07T08:39:44Z</time>
      </trkpt>
      <trkpt lat="45.72212" lon="6.10431">
        <ele>620.19</ele>
        <time>2012-08-07T08:39:45Z</time>
      </trkpt>
      <trkpt lat="45.72228" lon="6.10453">
        <ele>617.3</ele>
        <time>2012-08-07T08:39:48Z</time>
      </trkpt>
      <trkpt lat="45.72229" lon="6.10459">
        <ele>617.3</ele>
        <time>2012-08-07T08:39:49Z</time>
      </trkpt>
      <trkpt lat="45.72227" lon="6.10464">
        <ele>616.82</ele>
        <time>2012-08-07T08:39:50Z</time>
      </trkpt>
      <trkpt lat="45.72223" lon="6.10467">
        <ele>615.86</ele>
        <time>2012-08-07T08:39:51Z</time>
      </trkpt>
      <trkpt lat="45.72218" lon="6.10465">
        <ele>615.86</ele>
        <time>2012-08-07T08:39:52Z</time>
      </trkpt>
      <trkpt lat="45.7221" lon="6.1046">
        <ele>615.38</ele>
        <time>2012-08-07T08:39:53Z</time>
      </trkpt>
      <trkpt lat="45.72202" lon="6.10452">
        <ele>615.38</ele>
        <time>2012-08-07T08:39:54Z</time>
      </trkpt>
      <trkpt lat="45.72193" lon="6.10443">
        <ele>614.9</ele>
        <time>2012-08-07T08:39:55Z</time>
      </trkpt>
      <trkpt lat="45.72185" lon="6.10432">
        <ele>614.42</ele>
        <time>2012-08-07T08:39:56Z</time>
      </trkpt>
      <trkpt lat="45.72177" lon="6.1042">
        <ele>613.46</ele>
        <time>2012-08-07T08:39:57Z</time>
      </trkpt>
      <trkpt lat="45.72169" lon="6.10407">
        <ele>613.46</ele>
        <time>2012-08-07T08:39:58Z</time>
      </trkpt>
      <trkpt lat="45.72146" lon="6.1037">
        <ele>611.06</ele>
        <time>2012-08-07T08:40:01Z</time>
      </trkpt>
      <trkpt lat="45.72141" lon="6.10358">
        <ele>609.61</ele>
        <time>2012-08-07T08:40:02Z</time>
      </trkpt>
      <trkpt lat="45.72132" lon="6.10338">
        <ele>608.65</ele>
        <time>2012-08-07T08:40:04Z</time>
      </trkpt>
      <trkpt lat="45.72126" lon="6.10333">
        <ele>608.17</ele>
        <time>2012-08-07T08:40:05Z</time>
      </trkpt>
      <trkpt lat="45.72119" lon="6.10333">
        <ele>607.69</ele>
        <time>2012-08-07T08:40:06Z</time>
      </trkpt>
      <trkpt lat="45.72114" lon="6.10338">
        <ele>607.21</ele>
        <time>2012-08-07T08:40:07Z</time>
      </trkpt>
      <trkpt lat="45.72111" lon="6.10347">
        <ele>606.73</ele>
        <time>2012-08-07T08:40:08Z</time>
      </trkpt>
      <trkpt lat="45.7211" lon="6.10357">
        <ele>606.73</ele>
        <time>2012-08-07T08:40:09Z</time>
      </trkpt>
      <trkpt lat="45.72112" lon="6.10369">
        <ele>606.25</ele>
        <time>2012-08-07T08:40:10Z</time>
      </trkpt>
      <trkpt lat="45.72116" lon="6.10381">
        <ele>606.25</ele>
        <time>2012-08-07T08:40:11Z</time>
      </trkpt>
      <trkpt lat="45.72123" lon="6.10395">
        <ele>605.77</ele>
        <time>2012-08-07T08:40:12Z</time>
      </trkpt>
      <trkpt lat="45.72131" lon="6.10409">
        <ele>604.81</ele>
        <time>2012-08-07T08:40:13Z</time>
      </trkpt>
      <trkpt lat="45.72138" lon="6.10423">
        <ele>603.85</ele>
        <time>2012-08-07T08:40:14Z</time>
      </trkpt>
      <trkpt lat="45.72143" lon="6.10438">
        <ele>603.36</ele>
        <time>2012-08-07T08:40:15Z</time>
      </trkpt>
      <trkpt lat="45.72145" lon="6.10453">
        <ele>601.92</ele>
        <time>2012-08-07T08:40:16Z</time>
      </trkpt>
      <trkpt lat="45.72144" lon="6.10469">
        <ele>601.44</ele>
        <time>2012-08-07T08:40:17Z</time>
      </trkpt>
      <trkpt lat="45.72141" lon="6.10484">
        <ele>601.44</ele>
        <time>2012-08-07T08:40:18Z</time>
      </trkpt>
      <trkpt lat="45.72134" lon="6.10498">
        <ele>600.96</ele>
        <time>2012-08-07T08:40:19Z</time>
      </trkpt>
      <trkpt lat="45.72125" lon="6.10508">
        <ele>600</ele>
        <time>2012-08-07T08:40:20Z</time>
      </trkpt>
      <trkpt lat="45.72116" lon="6.10517">
        <ele>600</ele>
        <time>2012-08-07T08:40:21Z</time>
      </trkpt>
      <trkpt lat="45.72105" lon="6.10524">
        <ele>599.04</ele>
        <time>2012-08-07T08:40:22Z</time>
      </trkpt>
      <trkpt lat="45.72049" lon="6.10559">
        <ele>597.6</ele>
        <time>2012-08-07T08:40:27Z</time>
      </trkpt>
      <trkpt lat="45.71891" lon="6.10652">
        <ele>600</ele>
        <time>2012-08-07T08:40:41Z</time>
      </trkpt>
      <trkpt lat="45.71749" lon="6.1071">
        <ele>600.96</ele>
        <time>2012-08-07T08:40:54Z</time>
      </trkpt>
      <trkpt lat="45.71635" lon="6.10734">
        <ele>599.04</ele>
        <time>2012-08-07T08:41:05Z</time>
      </trkpt>
      <trkpt lat="45.71628" lon="6.10735">
        <ele>599.04</ele>
        <time>2012-08-07T08:41:06Z</time>
      </trkpt>
      <trkpt lat="45.71621" lon="6.10734">
        <ele>599.04</ele>
        <time>2012-08-07T08:41:07Z</time>
      </trkpt>
      <trkpt lat="45.71614" lon="6.10732">
        <ele>599.04</ele>
        <time>2012-08-07T08:41:08Z</time>
      </trkpt>
      <trkpt lat="45.71607" lon="6.10728">
        <ele>599.04</ele>
        <time>2012-08-07T08:41:09Z</time>
      </trkpt>
      <trkpt lat="45.71601" lon="6.10722">
        <ele>599.52</ele>
        <time>2012-08-07T08:41:10Z</time>
      </trkpt>
      <trkpt lat="45.71595" lon="6.10714">
        <ele>599.04</ele>
        <time>2012-08-07T08:41:11Z</time>
      </trkpt>
      <trkpt lat="45.71591" lon="6.10707">
        <ele>599.04</ele>
        <time>2012-08-07T08:41:12Z</time>
      </trkpt>
      <trkpt lat="45.71572" lon="6.10676">
        <ele>598.08</ele>
        <time>2012-08-07T08:41:20Z</time>
      </trkpt>
      <trkpt lat="45.7155" lon="6.10651">
        <ele>599.04</ele>
        <time>2012-08-07T08:41:26Z</time>
      </trkpt>
      <trkpt lat="45.71544" lon="6.10646">
        <ele>599.52</ele>
        <time>2012-08-07T08:41:27Z</time>
      </trkpt>
      <trkpt lat="45.71536" lon="6.10642">
        <ele>599.04</ele>
        <time>2012-08-07T08:41:28Z</time>
      </trkpt>
      <trkpt lat="45.71463" lon="6.1062">
        <ele>599.52</ele>
        <time>2012-08-07T08:41:38Z</time>
      </trkpt>
      <trkpt lat="45.71455" lon="6.10619">
        <ele>600.48</ele>
        <time>2012-08-07T08:41:41Z</time>
      </trkpt>
      <trkpt lat="45.71429" lon="6.10613">
        <ele>601.44</ele>
        <time>2012-08-07T08:41:46Z</time>
      </trkpt>
      <trkpt lat="45.71423" lon="6.1061">
        <ele>601.92</ele>
        <time>2012-08-07T08:41:47Z</time>
      </trkpt>
      <trkpt lat="45.71419" lon="6.10605">
        <ele>602.4</ele>
        <time>2012-08-07T08:41:48Z</time>
      </trkpt>
      <trkpt lat="45.71414" lon="6.106">
        <ele>602.4</ele>
        <time>2012-08-07T08:41:49Z</time>
      </trkpt>
      <trkpt lat="45.71411" lon="6.10592">
        <ele>602.88</ele>
        <time>2012-08-07T08:41:50Z</time>
      </trkpt>
      <trkpt lat="45.71408" lon="6.10584">
        <ele>602.88</ele>
        <time>2012-08-07T08:41:51Z</time>
      </trkpt>
      <trkpt lat="45.71391" lon="6.10539">
        <ele>602.88</ele>
        <time>2012-08-07T08:41:56Z</time>
      </trkpt>
      <trkpt lat="45.71386" lon="6.10533">
        <ele>603.36</ele>
        <time>2012-08-07T08:41:57Z</time>
      </trkpt>
      <trkpt lat="45.71382" lon="6.10527">
        <ele>603.36</ele>
        <time>2012-08-07T08:41:58Z</time>
      </trkpt>
      <trkpt lat="45.71354" lon="6.10495">
        <ele>605.77</ele>
        <time>2012-08-07T08:42:03Z</time>
      </trkpt>
      <trkpt lat="45.71316" lon="6.10446">
        <ele>609.13</ele>
        <time>2012-08-07T08:42:08Z</time>
      </trkpt>
      <trkpt lat="45.71296" lon="6.10427">
        <ele>611.54</ele>
        <time>2012-08-07T08:42:10Z</time>
      </trkpt>
      <trkpt lat="45.71286" lon="6.10423">
        <ele>612.02</ele>
        <time>2012-08-07T08:42:11Z</time>
      </trkpt>
      <trkpt lat="45.71274" lon="6.10422">
        <ele>612.98</ele>
        <time>2012-08-07T08:42:12Z</time>
      </trkpt>
      <trkpt lat="45.71263" lon="6.10427">
        <ele>613.94</ele>
        <time>2012-08-07T08:42:13Z</time>
      </trkpt>
      <trkpt lat="45.71251" lon="6.10437">
        <ele>615.86</ele>
        <time>2012-08-07T08:42:14Z</time>
      </trkpt>
      <trkpt lat="45.7124" lon="6.10447">
        <ele>615.38</ele>
        <time>2012-08-07T08:42:15Z</time>
      </trkpt>
      <trkpt lat="45.71222" lon="6.10461">
        <ele>615.86</ele>
        <time>2012-08-07T08:42:17Z</time>
      </trkpt>
      <trkpt lat="45.71213" lon="6.10462">
        <ele>615.86</ele>
        <time>2012-08-07T08:42:18Z</time>
      </trkpt>
      <trkpt lat="45.71207" lon="6.10458">
        <ele>616.34</ele>
        <time>2012-08-07T08:42:19Z</time>
      </trkpt>
      <trkpt lat="45.71203" lon="6.1045">
        <ele>616.34</ele>
        <time>2012-08-07T08:42:20Z</time>
      </trkpt>
      <trkpt lat="45.71203" lon="6.1044">
        <ele>617.3</ele>
        <time>2012-08-07T08:42:21Z</time>
      </trkpt>
      <trkpt lat="45.71205" lon="6.1043">
        <ele>618.26</ele>
        <time>2012-08-07T08:42:22Z</time>
      </trkpt>
      <trkpt lat="45.7121" lon="6.10421">
        <ele>620.67</ele>
        <time>2012-08-07T08:42:23Z</time>
      </trkpt>
      <trkpt lat="45.71218" lon="6.10411">
        <ele>621.63</ele>
        <time>2012-08-07T08:42:24Z</time>
      </trkpt>
      <trkpt lat="45.71229" lon="6.10401">
        <ele>622.11</ele>
        <time>2012-08-07T08:42:25Z</time>
      </trkpt>
      <trkpt lat="45.7124" lon="6.10393">
        <ele>622.11</ele>
        <time>2012-08-07T08:42:26Z</time>
      </trkpt>
      <trkpt lat="45.7125" lon="6.10387">
        <ele>622.59</ele>
        <time>2012-08-07T08:42:27Z</time>
      </trkpt>
      <trkpt lat="45.71261" lon="6.10385">
        <ele>623.55</ele>
        <time>2012-08-07T08:42:28Z</time>
      </trkpt>
      <trkpt lat="45.71271" lon="6.10386">
        <ele>623.55</ele>
        <time>2012-08-07T08:42:29Z</time>
      </trkpt>
      <trkpt lat="45.71281" lon="6.10387">
        <ele>624.03</ele>
        <time>2012-08-07T08:42:30Z</time>
      </trkpt>
      <trkpt lat="45.71289" lon="6.10387">
        <ele>624.51</ele>
        <time>2012-08-07T08:42:31Z</time>
      </trkpt>
      <trkpt lat="45.71295" lon="6.10384">
        <ele>624.99</ele>
        <time>2012-08-07T08:42:32Z</time>
      </trkpt>
      <trkpt lat="45.71299" lon="6.10378">
        <ele>625.47</ele>
        <time>2012-08-07T08:42:33Z</time>
      </trkpt>
      <trkpt lat="45.71301" lon="6.10371">
        <ele>625.47</ele>
        <time>2012-08-07T08:42:34Z</time>
      </trkpt>
      <trkpt lat="45.71301" lon="6.10365">
        <ele>626.44</ele>
        <time>2012-08-07T08:42:35Z</time>
      </trkpt>
      <trkpt lat="45.71297" lon="6.10361">
        <ele>627.4</ele>
        <time>2012-08-07T08:42:36Z</time>
      </trkpt>
      <trkpt lat="45.7129" lon="6.10361">
        <ele>629.32</ele>
        <time>2012-08-07T08:42:37Z</time>
      </trkpt>
      <trkpt lat="45.71246" lon="6.10366">
        <ele>633.17</ele>
        <time>2012-08-07T08:42:40Z</time>
      </trkpt>
      <trkpt lat="45.71229" lon="6.10369">
        <ele>633.65</ele>
        <time>2012-08-07T08:42:41Z</time>
      </trkpt>
      <trkpt lat="45.71193" lon="6.10381">
        <ele>637.49</ele>
        <time>2012-08-07T08:42:43Z</time>
      </trkpt>
      <trkpt lat="45.71175" lon="6.1039">
        <ele>638.93</ele>
        <time>2012-08-07T08:42:44Z</time>
      </trkpt>
      <trkpt lat="45.71158" lon="6.10402">
        <ele>639.89</ele>
        <time>2012-08-07T08:42:45Z</time>
      </trkpt>
      <trkpt lat="45.71143" lon="6.10413">
        <ele>639.89</ele>
        <time>2012-08-07T08:42:46Z</time>
      </trkpt>
      <trkpt lat="45.71129" lon="6.10421">
        <ele>640.38</ele>
        <time>2012-08-07T08:42:47Z</time>
      </trkpt>
      <trkpt lat="45.71115" lon="6.10424">
        <ele>639.89</ele>
        <time>2012-08-07T08:42:48Z</time>
      </trkpt>
      <trkpt lat="45.71102" lon="6.10422">
        <ele>641.34</ele>
        <time>2012-08-07T08:42:49Z</time>
      </trkpt>
      <trkpt lat="45.71089" lon="6.10415">
        <ele>642.3</ele>
        <time>2012-08-07T08:42:50Z</time>
      </trkpt>
      <trkpt lat="45.71076" lon="6.10405">
        <ele>644.22</ele>
        <time>2012-08-07T08:42:51Z</time>
      </trkpt>
      <trkpt lat="45.71062" lon="6.10396">
        <ele>645.66</ele>
        <time>2012-08-07T08:42:52Z</time>
      </trkpt>
      <trkpt lat="45.71047" lon="6.10391">
        <ele>646.14</ele>
        <time>2012-08-07T08:42:53Z</time>
      </trkpt>
      <trkpt lat="45.71033" lon="6.10391">
        <ele>646.14</ele>
        <time>2012-08-07T08:42:54Z</time>
      </trkpt>
      <trkpt lat="45.7102" lon="6.10396">
        <ele>646.62</ele>
        <time>2012-08-07T08:42:55Z</time>
      </trkpt>
      <trkpt lat="45.71008" lon="6.10405">
        <ele>648.07</ele>
        <time>2012-08-07T08:42:56Z</time>
      </trkpt>
      <trkpt lat="45.70997" lon="6.10417">
        <ele>648.55</ele>
        <time>2012-08-07T08:42:57Z</time>
      </trkpt>
      <trkpt lat="45.70986" lon="6.10428">
        <ele>649.03</ele>
        <time>2012-08-07T08:42:58Z</time>
      </trkpt>
      <trkpt lat="45.70975" lon="6.10439">
        <ele>650.47</ele>
        <time>2012-08-07T08:42:59Z</time>
      </trkpt>
      <trkpt lat="45.70964" lon="6.10448">
        <ele>650.95</ele>
        <time>2012-08-07T08:43:00Z</time>
      </trkpt>
      <trkpt lat="45.70953" lon="6.10455">
        <ele>651.43</ele>
        <time>2012-08-07T08:43:01Z</time>
      </trkpt>
      <trkpt lat="45.70942" lon="6.10461">
        <ele>652.87</ele>
        <time>2012-08-07T08:43:02Z</time>
      </trkpt>
      <trkpt lat="45.70931" lon="6.10466">
        <ele>652.87</ele>
        <time>2012-08-07T08:43:03Z</time>
      </trkpt>
      <trkpt lat="45.70899" lon="6.10478">
        <ele>654.8</ele>
        <time>2012-08-07T08:43:06Z</time>
      </trkpt>
      <trkpt lat="45.70889" lon="6.10485">
        <ele>655.28</ele>
        <time>2012-08-07T08:43:07Z</time>
      </trkpt>
      <trkpt lat="45.7088" lon="6.10494">
        <ele>656.24</ele>
        <time>2012-08-07T08:43:08Z</time>
      </trkpt>
      <trkpt lat="45.70873" lon="6.10504">
        <ele>656.72</ele>
        <time>2012-08-07T08:43:09Z</time>
      </trkpt>
      <trkpt lat="45.70866" lon="6.10515">
        <ele>657.2</ele>
        <time>2012-08-07T08:43:10Z</time>
      </trkpt>
      <trkpt lat="45.70853" lon="6.10533">
        <ele>658.16</ele>
        <time>2012-08-07T08:43:12Z</time>
      </trkpt>
      <trkpt lat="45.7084" lon="6.1055">
        <ele>659.6</ele>
        <time>2012-08-07T08:43:14Z</time>
      </trkpt>
      <trkpt lat="45.70834" lon="6.10558">
        <ele>660.08</ele>
        <time>2012-08-07T08:43:15Z</time>
      </trkpt>
      <trkpt lat="45.70826" lon="6.10564">
        <ele>660.56</ele>
        <time>2012-08-07T08:43:16Z</time>
      </trkpt>
      <trkpt lat="45.70797" lon="6.10584">
        <ele>662.97</ele>
        <time>2012-08-07T08:43:20Z</time>
      </trkpt>
      <trkpt lat="45.70788" lon="6.10588">
        <ele>663.93</ele>
        <time>2012-08-07T08:43:21Z</time>
      </trkpt>
      <trkpt lat="45.70779" lon="6.10592">
        <ele>663.93</ele>
        <time>2012-08-07T08:43:22Z</time>
      </trkpt>
      <trkpt lat="45.70769" lon="6.10593">
        <ele>664.89</ele>
        <time>2012-08-07T08:43:23Z</time>
      </trkpt>
      <trkpt lat="45.70759" lon="6.10594">
        <ele>665.37</ele>
        <time>2012-08-07T08:43:24Z</time>
      </trkpt>
      <trkpt lat="45.70711" lon="6.10594">
        <ele>663.93</ele>
        <time>2012-08-07T08:43:29Z</time>
      </trkpt>
      <trkpt lat="45.70703" lon="6.10589">
        <ele>663.93</ele>
        <time>2012-08-07T08:43:30Z</time>
      </trkpt>
      <trkpt lat="45.70695" lon="6.1058">
        <ele>663.93</ele>
        <time>2012-08-07T08:43:31Z</time>
      </trkpt>
      <trkpt lat="45.70687" lon="6.10568">
        <ele>664.89</ele>
        <time>2012-08-07T08:43:32Z</time>
      </trkpt>
      <trkpt lat="45.70678" lon="6.10555">
        <ele>666.33</ele>
        <time>2012-08-07T08:43:33Z</time>
      </trkpt>
      <trkpt lat="45.70667" lon="6.10544">
        <ele>668.25</ele>
        <time>2012-08-07T08:43:34Z</time>
      </trkpt>
      <trkpt lat="45.70654" lon="6.10534">
        <ele>669.7</ele>
        <time>2012-08-07T08:43:35Z</time>
      </trkpt>
      <trkpt lat="45.70639" lon="6.10525">
        <ele>670.66</ele>
        <time>2012-08-07T08:43:36Z</time>
      </trkpt>
      <trkpt lat="45.70594" lon="6.10498">
        <ele>674.5</ele>
        <time>2012-08-07T08:43:39Z</time>
      </trkpt>
      <trkpt lat="45.70565" lon="6.1048">
        <ele>677.87</ele>
        <time>2012-08-07T08:43:41Z</time>
      </trkpt>
      <trkpt lat="45.7052" lon="6.10449">
        <ele>678.83</ele>
        <time>2012-08-07T08:43:45Z</time>
      </trkpt>
      <trkpt lat="45.70514" lon="6.1044">
        <ele>680.27</ele>
        <time>2012-08-07T08:43:46Z</time>
      </trkpt>
      <trkpt lat="45.70511" lon="6.10429">
        <ele>681.23</ele>
        <time>2012-08-07T08:43:47Z</time>
      </trkpt>
      <trkpt lat="45.70509" lon="6.10416">
        <ele>682.19</ele>
        <time>2012-08-07T08:43:48Z</time>
      </trkpt>
      <trkpt lat="45.7051" lon="6.10403">
        <ele>683.15</ele>
        <time>2012-08-07T08:43:49Z</time>
      </trkpt>
      <trkpt lat="45.70513" lon="6.10389">
        <ele>684.12</ele>
        <time>2012-08-07T08:43:50Z</time>
      </trkpt>
      <trkpt lat="45.7052" lon="6.10374">
        <ele>685.56</ele>
        <time>2012-08-07T08:43:51Z</time>
      </trkpt>
      <trkpt lat="45.7053" lon="6.10356">
        <ele>687</ele>
        <time>2012-08-07T08:43:52Z</time>
      </trkpt>
      <trkpt lat="45.70551" lon="6.10319">
        <ele>690.36</ele>
        <time>2012-08-07T08:43:54Z</time>
      </trkpt>
      <trkpt lat="45.70573" lon="6.10277">
        <ele>693.25</ele>
        <time>2012-08-07T08:43:56Z</time>
      </trkpt>
      <trkpt lat="45.70595" lon="6.10235">
        <ele>696.61</ele>
        <time>2012-08-07T08:43:58Z</time>
      </trkpt>
      <trkpt lat="45.70627" lon="6.10169">
        <ele>699.98</ele>
        <time>2012-08-07T08:44:01Z</time>
      </trkpt>
      <trkpt lat="45.70645" lon="6.10125">
        <ele>701.42</ele>
        <time>2012-08-07T08:44:03Z</time>
      </trkpt>
      <trkpt lat="45.70666" lon="6.10071">
        <ele>701.42</ele>
        <time>2012-08-07T08:44:06Z</time>
      </trkpt>
      <trkpt lat="45.7067" lon="6.10053">
        <ele>703.34</ele>
        <time>2012-08-07T08:44:07Z</time>
      </trkpt>
      <trkpt lat="45.70672" lon="6.10034">
        <ele>703.82</ele>
        <time>2012-08-07T08:44:08Z</time>
      </trkpt>
      <trkpt lat="45.70672" lon="6.10015">
        <ele>705.26</ele>
        <time>2012-08-07T08:44:09Z</time>
      </trkpt>
      <trkpt lat="45.70669" lon="6.09995">
        <ele>706.23</ele>
        <time>2012-08-07T08:44:10Z</time>
      </trkpt>
      <trkpt lat="45.70663" lon="6.09976">
        <ele>706.71</ele>
        <time>2012-08-07T08:44:11Z</time>
      </trkpt>
      <trkpt lat="45.70655" lon="6.09958">
        <ele>708.15</ele>
        <time>2012-08-07T08:44:12Z</time>
      </trkpt>
      <trkpt lat="45.70647" lon="6.0994">
        <ele>709.59</ele>
        <time>2012-08-07T08:44:13Z</time>
      </trkpt>
      <trkpt lat="45.70617" lon="6.09888">
        <ele>713.44</ele>
        <time>2012-08-07T08:44:16Z</time>
      </trkpt>
      <trkpt lat="45.70568" lon="6.09826">
        <ele>717.76</ele>
        <time>2012-08-07T08:44:20Z</time>
      </trkpt>
      <trkpt lat="45.70542" lon="6.09798">
        <ele>718.24</ele>
        <time>2012-08-07T08:44:22Z</time>
      </trkpt>
      <trkpt lat="45.70517" lon="6.09771">
        <ele>722.09</ele>
        <time>2012-08-07T08:44:24Z</time>
      </trkpt>
      <trkpt lat="45.70477" lon="6.09737">
        <ele>724.97</ele>
        <time>2012-08-07T08:44:27Z</time>
      </trkpt>
      <trkpt lat="45.70421" lon="6.09702">
        <ele>729.3</ele>
        <time>2012-08-07T08:44:31Z</time>
      </trkpt>
      <trkpt lat="45.70392" lon="6.09686">
        <ele>733.14</ele>
        <time>2012-08-07T08:44:33Z</time>
      </trkpt>
      <trkpt lat="45.70316" lon="6.0966">
        <ele>736.03</ele>
        <time>2012-08-07T08:44:38Z</time>
      </trkpt>
      <trkpt lat="45.70251" lon="6.09648">
        <ele>741.31</ele>
        <time>2012-08-07T08:44:42Z</time>
      </trkpt>
      <trkpt lat="45.70145" lon="6.09648">
        <ele>747.08</ele>
        <time>2012-08-07T08:44:49Z</time>
      </trkpt>
      <trkpt lat="45.70133" lon="6.09645">
        <ele>748.04</ele>
        <time>2012-08-07T08:44:50Z</time>
      </trkpt>
      <trkpt lat="45.70123" lon="6.09638">
        <ele>749</ele>
        <time>2012-08-07T08:44:51Z</time>
      </trkpt>
      <trkpt lat="45.70114" lon="6.09627">
        <ele>749.49</ele>
        <time>2012-08-07T08:44:52Z</time>
      </trkpt>
      <trkpt lat="45.70107" lon="6.09613">
        <ele>750.45</ele>
        <time>2012-08-07T08:44:53Z</time>
      </trkpt>
      <trkpt lat="45.70103" lon="6.09596">
        <ele>751.41</ele>
        <time>2012-08-07T08:44:54Z</time>
      </trkpt>
      <trkpt lat="45.701" lon="6.09577">
        <ele>752.85</ele>
        <time>2012-08-07T08:44:55Z</time>
      </trkpt>
      <trkpt lat="45.70092" lon="6.09519">
        <ele>755.25</ele>
        <time>2012-08-07T08:44:58Z</time>
      </trkpt>
      <trkpt lat="45.70082" lon="6.09459">
        <ele>760.06</ele>
        <time>2012-08-07T08:45:01Z</time>
      </trkpt>
      <trkpt lat="45.70074" lon="6.09423">
        <ele>761.02</ele>
        <time>2012-08-07T08:45:03Z</time>
      </trkpt>
      <trkpt lat="45.70068" lon="6.09408">
        <ele>761.5</ele>
        <time>2012-08-07T08:45:04Z</time>
      </trkpt>
      <trkpt lat="45.70058" lon="6.09394">
        <ele>762.94</ele>
        <time>2012-08-07T08:45:05Z</time>
      </trkpt>
      <trkpt lat="45.70047" lon="6.09383">
        <ele>764.39</ele>
        <time>2012-08-07T08:45:06Z</time>
      </trkpt>
      <trkpt lat="45.70033" lon="6.09373">
        <ele>765.83</ele>
        <time>2012-08-07T08:45:07Z</time>
      </trkpt>
      <trkpt lat="45.70019" lon="6.09364">
        <ele>766.31</ele>
        <time>2012-08-07T08:45:08Z</time>
      </trkpt>
      <trkpt lat="45.69975" lon="6.09331">
        <ele>770.15</ele>
        <time>2012-08-07T08:45:11Z</time>
      </trkpt>
      <trkpt lat="45.69962" lon="6.09316">
        <ele>770.63</ele>
        <time>2012-08-07T08:45:12Z</time>
      </trkpt>
      <trkpt lat="45.6995" lon="6.09298">
        <ele>772.08</ele>
        <time>2012-08-07T08:45:13Z</time>
      </trkpt>
      <trkpt lat="45.6994" lon="6.09279">
        <ele>774</ele>
        <time>2012-08-07T08:45:14Z</time>
      </trkpt>
      <trkpt lat="45.6993" lon="6.09259">
        <ele>775.92</ele>
        <time>2012-08-07T08:45:15Z</time>
      </trkpt>
      <trkpt lat="45.699" lon="6.09199">
        <ele>779.29</ele>
        <time>2012-08-07T08:45:18Z</time>
      </trkpt>
      <trkpt lat="45.6987" lon="6.09141">
        <ele>782.65</ele>
        <time>2012-08-07T08:45:21Z</time>
      </trkpt>
      <trkpt lat="45.69842" lon="6.09084">
        <ele>785.53</ele>
        <time>2012-08-07T08:45:24Z</time>
      </trkpt>
      <trkpt lat="45.69815" lon="6.09029">
        <ele>789.38</ele>
        <time>2012-08-07T08:45:27Z</time>
      </trkpt>
      <trkpt lat="45.69796" lon="6.08991">
        <ele>790.34</ele>
        <time>2012-08-07T08:45:29Z</time>
      </trkpt>
      <trkpt lat="45.69682" lon="6.0881">
        <ele>791.78</ele>
        <time>2012-08-07T08:45:39Z</time>
      </trkpt>
      <trkpt lat="45.6959" lon="6.0875">
        <ele>796.59</ele>
        <time>2012-08-07T08:45:45Z</time>
      </trkpt>
      <trkpt lat="45.69545" lon="6.08733">
        <ele>800.92</ele>
        <time>2012-08-07T08:45:48Z</time>
      </trkpt>
      <trkpt lat="45.69532" lon="6.08725">
        <ele>798.51</ele>
        <time>2012-08-07T08:45:49Z</time>
      </trkpt>
      <trkpt lat="45.69509" lon="6.08702">
        <ele>804.28</ele>
        <time>2012-08-07T08:45:51Z</time>
      </trkpt>
      <trkpt lat="45.69499" lon="6.08687">
        <ele>803.8</ele>
        <time>2012-08-07T08:45:52Z</time>
      </trkpt>
      <trkpt lat="45.69436" lon="6.08593">
        <ele>805.24</ele>
        <time>2012-08-07T08:45:58Z</time>
      </trkpt>
      <trkpt lat="45.69428" lon="6.08575">
        <ele>805.72</ele>
        <time>2012-08-07T08:45:59Z</time>
      </trkpt>
      <trkpt lat="45.69422" lon="6.08554">
        <ele>806.68</ele>
        <time>2012-08-07T08:46:00Z</time>
      </trkpt>
      <trkpt lat="45.69418" lon="6.08533">
        <ele>807.64</ele>
        <time>2012-08-07T08:46:01Z</time>
      </trkpt>
      <trkpt lat="45.69414" lon="6.08511">
        <ele>809.09</ele>
        <time>2012-08-07T08:46:02Z</time>
      </trkpt>
      <trkpt lat="45.6939" lon="6.08375">
        <ele>811.97</ele>
        <time>2012-08-07T08:46:08Z</time>
      </trkpt>
      <trkpt lat="45.69382" lon="6.08356">
        <ele>812.45</ele>
        <time>2012-08-07T08:46:09Z</time>
      </trkpt>
      <trkpt lat="45.69372" lon="6.08337">
        <ele>813.41</ele>
        <time>2012-08-07T08:46:10Z</time>
      </trkpt>
      <trkpt lat="45.6933" lon="6.08266">
        <ele>816.78</ele>
        <time>2012-08-07T08:46:14Z</time>
      </trkpt>
      <trkpt lat="45.69295" lon="6.08215">
        <ele>819.18</ele>
        <time>2012-08-07T08:46:17Z</time>
      </trkpt>
      <trkpt lat="45.69236" lon="6.08135">
        <ele>822.55</ele>
        <time>2012-08-07T08:46:22Z</time>
      </trkpt>
      <trkpt lat="45.6919" lon="6.08072">
        <ele>824.47</ele>
        <time>2012-08-07T08:46:26Z</time>
      </trkpt>
      <trkpt lat="45.69157" lon="6.08026">
        <ele>825.91</ele>
        <time>2012-08-07T08:46:29Z</time>
      </trkpt>
      <trkpt lat="45.69039" lon="6.07867">
        <ele>827.83</ele>
        <time>2012-08-07T08:46:41Z</time>
      </trkpt>
      <trkpt lat="45.68976" lon="6.07791">
        <ele>826.39</ele>
        <time>2012-08-07T08:46:50Z</time>
      </trkpt>
      <trkpt lat="45.68887" lon="6.0768">
        <ele>823.03</ele>
        <time>2012-08-07T08:47:00Z</time>
      </trkpt>
      <trkpt lat="45.68878" lon="6.07669">
        <ele>823.03</ele>
        <time>2012-08-07T08:47:01Z</time>
      </trkpt>
      <trkpt lat="45.68869" lon="6.07657">
        <ele>822.55</ele>
        <time>2012-08-07T08:47:02Z</time>
      </trkpt>
      <trkpt lat="45.6886" lon="6.07643">
        <ele>822.55</ele>
        <time>2012-08-07T08:47:03Z</time>
      </trkpt>
      <trkpt lat="45.68853" lon="6.07628">
        <ele>822.55</ele>
        <time>2012-08-07T08:47:04Z</time>
      </trkpt>
      <trkpt lat="45.68845" lon="6.07613">
        <ele>823.03</ele>
        <time>2012-08-07T08:47:05Z</time>
      </trkpt>
      <trkpt lat="45.68836" lon="6.07598">
        <ele>823.03</ele>
        <time>2012-08-07T08:47:06Z</time>
      </trkpt>
      <trkpt lat="45.68826" lon="6.07584">
        <ele>822.55</ele>
        <time>2012-08-07T08:47:07Z</time>
      </trkpt>
      <trkpt lat="45.68767" lon="6.07506">
        <ele>819.18</ele>
        <time>2012-08-07T08:47:13Z</time>
      </trkpt>
      <trkpt lat="45.68759" lon="6.07492">
        <ele>819.18</ele>
        <time>2012-08-07T08:47:14Z</time>
      </trkpt>
      <trkpt lat="45.68751" lon="6.07478">
        <ele>818.7</ele>
        <time>2012-08-07T08:47:15Z</time>
      </trkpt>
      <trkpt lat="45.68669" lon="6.07314">
        <ele>815.34</ele>
        <time>2012-08-07T08:47:26Z</time>
      </trkpt>
      <trkpt lat="45.6859" lon="6.07172">
        <ele>813.89</ele>
        <time>2012-08-07T08:47:36Z</time>
      </trkpt>
      <trkpt lat="45.68554" lon="6.07099">
        <ele>812.93</ele>
        <time>2012-08-07T08:47:41Z</time>
      </trkpt>
      <trkpt lat="45.68549" lon="6.07083">
        <ele>813.41</ele>
        <time>2012-08-07T08:47:42Z</time>
      </trkpt>
      <trkpt lat="45.68546" lon="6.07068">
        <ele>813.41</ele>
        <time>2012-08-07T08:47:43Z</time>
      </trkpt>
      <trkpt lat="45.68541" lon="6.0704">
        <ele>812.93</ele>
        <time>2012-08-07T08:47:45Z</time>
      </trkpt>
      <trkpt lat="45.68537" lon="6.07027">
        <ele>812.45</ele>
        <time>2012-08-07T08:47:46Z</time>
      </trkpt>
      <trkpt lat="45.68531" lon="6.07014">
        <ele>812.93</ele>
        <time>2012-08-07T08:47:47Z</time>
      </trkpt>
      <trkpt lat="45.68524" lon="6.07003">
        <ele>812.45</ele>
        <time>2012-08-07T08:47:48Z</time>
      </trkpt>
      <trkpt lat="45.68516" lon="6.06993">
        <ele>812.45</ele>
        <time>2012-08-07T08:47:49Z</time>
      </trkpt>
      <trkpt lat="45.68507" lon="6.06983">
        <ele>811.97</ele>
        <time>2012-08-07T08:47:50Z</time>
      </trkpt>
      <trkpt lat="45.68469" lon="6.06945">
        <ele>812.45</ele>
        <time>2012-08-07T08:47:54Z</time>
      </trkpt>
      <trkpt lat="45.68461" lon="6.06932">
        <ele>813.41</ele>
        <time>2012-08-07T08:47:55Z</time>
      </trkpt>
      <trkpt lat="45.68452" lon="6.06919">
        <ele>813.89</ele>
        <time>2012-08-07T08:47:56Z</time>
      </trkpt>
      <trkpt lat="45.68443" lon="6.06908">
        <ele>813.89</ele>
        <time>2012-08-07T08:47:57Z</time>
      </trkpt>
      <trkpt lat="45.68433" lon="6.06899">
        <ele>814.85</ele>
        <time>2012-08-07T08:47:58Z</time>
      </trkpt>
      <trkpt lat="45.68415" lon="6.0688">
        <ele>814.37</ele>
        <time>2012-08-07T08:48:00Z</time>
      </trkpt>
      <trkpt lat="45.68408" lon="6.06867">
        <ele>816.78</ele>
        <time>2012-08-07T08:48:01Z</time>
      </trkpt>
      <trkpt lat="45.68401" lon="6.06852">
        <ele>817.74</ele>
        <time>2012-08-07T08:48:02Z</time>
      </trkpt>
      <trkpt lat="45.68388" lon="6.06822">
        <ele>819.18</ele>
        <time>2012-08-07T08:48:04Z</time>
      </trkpt>
      <trkpt lat="45.68346" lon="6.06732">
        <ele>821.1</ele>
        <time>2012-08-07T08:48:12Z</time>
      </trkpt>
      <trkpt lat="45.6832" lon="6.06692">
        <ele>821.58</ele>
        <time>2012-08-07T08:48:16Z</time>
      </trkpt>
      <trkpt lat="45.68314" lon="6.06679">
        <ele>822.06</ele>
        <time>2012-08-07T08:48:17Z</time>
      </trkpt>
      <trkpt lat="45.68309" lon="6.06667">
        <ele>821.58</ele>
        <time>2012-08-07T08:48:18Z</time>
      </trkpt>
      <trkpt lat="45.68266" lon="6.06578">
        <ele>823.99</ele>
        <time>2012-08-07T08:48:26Z</time>
      </trkpt>
      <trkpt lat="45.68257" lon="6.06569">
        <ele>824.47</ele>
        <time>2012-08-07T08:48:27Z</time>
      </trkpt>
      <trkpt lat="45.68248" lon="6.0656">
        <ele>824.47</ele>
        <time>2012-08-07T08:48:28Z</time>
      </trkpt>
      <trkpt lat="45.68209" lon="6.06526">
        <ele>825.91</ele>
        <time>2012-08-07T08:48:32Z</time>
      </trkpt>
      <trkpt lat="45.68201" lon="6.06516">
        <ele>826.87</ele>
        <time>2012-08-07T08:48:33Z</time>
      </trkpt>
      <trkpt lat="45.68195" lon="6.06504">
        <ele>826.87</ele>
        <time>2012-08-07T08:48:34Z</time>
      </trkpt>
      <trkpt lat="45.68162" lon="6.06426">
        <ele>830.24</ele>
        <time>2012-08-07T08:48:41Z</time>
      </trkpt>
      <trkpt lat="45.68132" lon="6.06379">
        <ele>831.68</ele>
        <time>2012-08-07T08:48:46Z</time>
      </trkpt>
      <trkpt lat="45.68027" lon="6.06273">
        <ele>833.12</ele>
        <time>2012-08-07T08:48:57Z</time>
      </trkpt>
      <trkpt lat="45.67966" lon="6.06206">
        <ele>836</ele>
        <time>2012-08-07T08:49:04Z</time>
      </trkpt>
      <trkpt lat="45.67962" lon="6.06193">
        <ele>836.48</ele>
        <time>2012-08-07T08:49:05Z</time>
      </trkpt>
      <trkpt lat="45.67959" lon="6.06179">
        <ele>837.93</ele>
        <time>2012-08-07T08:49:06Z</time>
      </trkpt>
      <trkpt lat="45.67954" lon="6.06121">
        <ele>841.29</ele>
        <time>2012-08-07T08:49:10Z</time>
      </trkpt>
      <trkpt lat="45.67948" lon="6.06072">
        <ele>842.25</ele>
        <time>2012-08-07T08:49:14Z</time>
      </trkpt>
      <trkpt lat="45.67944" lon="6.06062">
        <ele>842.73</ele>
        <time>2012-08-07T08:49:15Z</time>
      </trkpt>
      <trkpt lat="45.67939" lon="6.06055">
        <ele>843.69</ele>
        <time>2012-08-07T08:49:16Z</time>
      </trkpt>
      <trkpt lat="45.67932" lon="6.06051">
        <ele>844.18</ele>
        <time>2012-08-07T08:49:17Z</time>
      </trkpt>
      <trkpt lat="45.67924" lon="6.06051">
        <ele>845.14</ele>
        <time>2012-08-07T08:49:18Z</time>
      </trkpt>
      <trkpt lat="45.67916" lon="6.06054">
        <ele>846.1</ele>
        <time>2012-08-07T08:49:19Z</time>
      </trkpt>
      <trkpt lat="45.67908" lon="6.06059">
        <ele>847.06</ele>
        <time>2012-08-07T08:49:20Z</time>
      </trkpt>
      <trkpt lat="45.679" lon="6.06066">
        <ele>847.54</ele>
        <time>2012-08-07T08:49:21Z</time>
      </trkpt>
      <trkpt lat="45.67875" lon="6.0609">
        <ele>850.9</ele>
        <time>2012-08-07T08:49:24Z</time>
      </trkpt>
      <trkpt lat="45.67867" lon="6.06096">
        <ele>851.38</ele>
        <time>2012-08-07T08:49:25Z</time>
      </trkpt>
      <trkpt lat="45.67859" lon="6.061">
        <ele>851.87</ele>
        <time>2012-08-07T08:49:26Z</time>
      </trkpt>
      <trkpt lat="45.67851" lon="6.06099">
        <ele>851.87</ele>
        <time>2012-08-07T08:49:27Z</time>
      </trkpt>
      <trkpt lat="45.67845" lon="6.06094">
        <ele>852.83</ele>
        <time>2012-08-07T08:49:28Z</time>
      </trkpt>
      <trkpt lat="45.6784" lon="6.06085">
        <ele>853.31</ele>
        <time>2012-08-07T08:49:29Z</time>
      </trkpt>
      <trkpt lat="45.67837" lon="6.06074">
        <ele>854.27</ele>
        <time>2012-08-07T08:49:30Z</time>
      </trkpt>
      <trkpt lat="45.67834" lon="6.06061">
        <ele>855.71</ele>
        <time>2012-08-07T08:49:31Z</time>
      </trkpt>
      <trkpt lat="45.67818" lon="6.06015">
        <ele>859.08</ele>
        <time>2012-08-07T08:49:34Z</time>
      </trkpt>
      <trkpt lat="45.6781" lon="6.06">
        <ele>860.52</ele>
        <time>2012-08-07T08:49:35Z</time>
      </trkpt>
      <trkpt lat="45.678" lon="6.05987">
        <ele>861.96</ele>
        <time>2012-08-07T08:49:36Z</time>
      </trkpt>
      <trkpt lat="45.67789" lon="6.05976">
        <ele>862.44</ele>
        <time>2012-08-07T08:49:37Z</time>
      </trkpt>
      <trkpt lat="45.67777" lon="6.05967">
        <ele>863.4</ele>
        <time>2012-08-07T08:49:38Z</time>
      </trkpt>
      <trkpt lat="45.67763" lon="6.0596">
        <ele>864.36</ele>
        <time>2012-08-07T08:49:39Z</time>
      </trkpt>
      <trkpt lat="45.67749" lon="6.05954">
        <ele>865.32</ele>
        <time>2012-08-07T08:49:40Z</time>
      </trkpt>
      <trkpt lat="45.67705" lon="6.05939">
        <ele>869.17</ele>
        <time>2012-08-07T08:49:43Z</time>
      </trkpt>
      <trkpt lat="45.67662" lon="6.05924">
        <ele>873.5</ele>
        <time>2012-08-07T08:49:46Z</time>
      </trkpt>
      <trkpt lat="45.6765" lon="6.05918">
        <ele>873.98</ele>
        <time>2012-08-07T08:49:47Z</time>
      </trkpt>
      <trkpt lat="45.67639" lon="6.0591">
        <ele>874.46</ele>
        <time>2012-08-07T08:49:48Z</time>
      </trkpt>
      <trkpt lat="45.67629" lon="6.05899">
        <ele>876.38</ele>
        <time>2012-08-07T08:49:49Z</time>
      </trkpt>
      <trkpt lat="45.6762" lon="6.05885">
        <ele>877.82</ele>
        <time>2012-08-07T08:49:50Z</time>
      </trkpt>
      <trkpt lat="45.67613" lon="6.05869">
        <ele>879.74</ele>
        <time>2012-08-07T08:49:51Z</time>
      </trkpt>
      <trkpt lat="45.67605" lon="6.05852">
        <ele>881.67</ele>
        <time>2012-08-07T08:49:52Z</time>
      </trkpt>
      <trkpt lat="45.67596" lon="6.05836">
        <ele>883.11</ele>
        <time>2012-08-07T08:49:53Z</time>
      </trkpt>
      <trkpt lat="45.67584" lon="6.05823">
        <ele>883.59</ele>
        <time>2012-08-07T08:49:54Z</time>
      </trkpt>
      <trkpt lat="45.67572" lon="6.05812">
        <ele>884.55</ele>
        <time>2012-08-07T08:49:55Z</time>
      </trkpt>
      <trkpt lat="45.6756" lon="6.05801">
        <ele>886.95</ele>
        <time>2012-08-07T08:49:56Z</time>
      </trkpt>
      <trkpt lat="45.67525" lon="6.05771">
        <ele>890.32</ele>
        <time>2012-08-07T08:49:59Z</time>
      </trkpt>
      <trkpt lat="45.67476" lon="6.05729">
        <ele>893.68</ele>
        <time>2012-08-07T08:50:03Z</time>
      </trkpt>
      <trkpt lat="45.674" lon="6.05681">
        <ele>895.12</ele>
        <time>2012-08-07T08:50:09Z</time>
      </trkpt>
      <trkpt lat="45.67391" lon="6.05672">
        <ele>895.12</ele>
        <time>2012-08-07T08:50:10Z</time>
      </trkpt>
      <trkpt lat="45.67382" lon="6.0566">
        <ele>896.09</ele>
        <time>2012-08-07T08:50:11Z</time>
      </trkpt>
      <trkpt lat="45.67374" lon="6.05647">
        <ele>897.53</ele>
        <time>2012-08-07T08:50:12Z</time>
      </trkpt>
      <trkpt lat="45.67365" lon="6.05633">
        <ele>898.01</ele>
        <time>2012-08-07T08:50:13Z</time>
      </trkpt>
      <trkpt lat="45.6732" lon="6.05556">
        <ele>901.37</ele>
        <time>2012-08-07T08:50:18Z</time>
      </trkpt>
      <trkpt lat="45.67283" lon="6.05494">
        <ele>904.74</ele>
        <time>2012-08-07T08:50:22Z</time>
      </trkpt>
      <trkpt lat="45.67264" lon="6.05464">
        <ele>908.58</ele>
        <time>2012-08-07T08:50:24Z</time>
      </trkpt>
      <trkpt lat="45.67245" lon="6.05437">
        <ele>910.51</ele>
        <time>2012-08-07T08:50:26Z</time>
      </trkpt>
      <trkpt lat="45.67234" lon="6.05427">
        <ele>911.95</ele>
        <time>2012-08-07T08:50:27Z</time>
      </trkpt>
      <trkpt lat="45.67223" lon="6.0542">
        <ele>912.91</ele>
        <time>2012-08-07T08:50:28Z</time>
      </trkpt>
      <trkpt lat="45.67211" lon="6.05413">
        <ele>914.35</ele>
        <time>2012-08-07T08:50:29Z</time>
      </trkpt>
      <trkpt lat="45.67201" lon="6.05404">
        <ele>915.31</ele>
        <time>2012-08-07T08:50:30Z</time>
      </trkpt>
      <trkpt lat="45.67193" lon="6.05392">
        <ele>916.27</ele>
        <time>2012-08-07T08:50:31Z</time>
      </trkpt>
      <trkpt lat="45.67187" lon="6.05377">
        <ele>917.24</ele>
        <time>2012-08-07T08:50:32Z</time>
      </trkpt>
      <trkpt lat="45.67182" lon="6.05361">
        <ele>919.16</ele>
        <time>2012-08-07T08:50:33Z</time>
      </trkpt>
      <trkpt lat="45.67166" lon="6.05309">
        <ele>922.52</ele>
        <time>2012-08-07T08:50:36Z</time>
      </trkpt>
      <trkpt lat="45.67148" lon="6.05255">
        <ele>923.96</ele>
        <time>2012-08-07T08:50:39Z</time>
      </trkpt>
      <trkpt lat="45.67129" lon="6.05194">
        <ele>926.37</ele>
        <time>2012-08-07T08:50:42Z</time>
      </trkpt>
      <trkpt lat="45.671" lon="6.05083">
        <ele>928.77</ele>
        <time>2012-08-07T08:50:48Z</time>
      </trkpt>
      <trkpt lat="45.67098" lon="6.05064">
        <ele>929.25</ele>
        <time>2012-08-07T08:50:49Z</time>
      </trkpt>
      <trkpt lat="45.67098" lon="6.05044">
        <ele>929.25</ele>
        <time>2012-08-07T08:50:50Z</time>
      </trkpt>
      <trkpt lat="45.671" lon="6.05025">
        <ele>931.17</ele>
        <time>2012-08-07T08:50:51Z</time>
      </trkpt>
      <trkpt lat="45.67104" lon="6.05006">
        <ele>931.17</ele>
        <time>2012-08-07T08:50:52Z</time>
      </trkpt>
      <trkpt lat="45.67107" lon="6.04987">
        <ele>931.65</ele>
        <time>2012-08-07T08:50:53Z</time>
      </trkpt>
      <trkpt lat="45.67109" lon="6.04969">
        <ele>931.17</ele>
        <time>2012-08-07T08:50:54Z</time>
      </trkpt>
      <trkpt lat="45.67108" lon="6.04951">
        <ele>932.14</ele>
        <time>2012-08-07T08:50:55Z</time>
      </trkpt>
      <trkpt lat="45.67105" lon="6.04933">
        <ele>932.62</ele>
        <time>2012-08-07T08:50:56Z</time>
      </trkpt>
      <trkpt lat="45.671" lon="6.04916">
        <ele>932.62</ele>
        <time>2012-08-07T08:50:57Z</time>
      </trkpt>
      <trkpt lat="45.67092" lon="6.049">
        <ele>932.62</ele>
        <time>2012-08-07T08:50:58Z</time>
      </trkpt>
      <trkpt lat="45.67084" lon="6.04884">
        <ele>934.06</ele>
        <time>2012-08-07T08:50:59Z</time>
      </trkpt>
      <trkpt lat="45.67074" lon="6.04869">
        <ele>933.58</ele>
        <time>2012-08-07T08:51:00Z</time>
      </trkpt>
      <trkpt lat="45.67016" lon="6.04775">
        <ele>935.02</ele>
        <time>2012-08-07T08:51:06Z</time>
      </trkpt>
      <trkpt lat="45.67009" lon="6.04758">
        <ele>935.02</ele>
        <time>2012-08-07T08:51:07Z</time>
      </trkpt>
      <trkpt lat="45.66947" lon="6.04646">
        <ele>933.58</ele>
        <time>2012-08-07T08:51:15Z</time>
      </trkpt>
      <trkpt lat="45.66936" lon="6.0462">
        <ele>932.62</ele>
        <time>2012-08-07T08:51:17Z</time>
      </trkpt>
      <trkpt lat="45.66932" lon="6.04606">
        <ele>932.62</ele>
        <time>2012-08-07T08:51:18Z</time>
      </trkpt>
      <trkpt lat="45.6693" lon="6.04592">
        <ele>932.62</ele>
        <time>2012-08-07T08:51:19Z</time>
      </trkpt>
      <trkpt lat="45.66929" lon="6.04578">
        <ele>932.14</ele>
        <time>2012-08-07T08:51:20Z</time>
      </trkpt>
      <trkpt lat="45.66929" lon="6.04564">
        <ele>931.65</ele>
        <time>2012-08-07T08:51:21Z</time>
      </trkpt>
      <trkpt lat="45.6693" lon="6.0454">
        <ele>931.65</ele>
        <time>2012-08-07T08:51:23Z</time>
      </trkpt>
      <trkpt lat="45.66932" lon="6.04528">
        <ele>931.65</ele>
        <time>2012-08-07T08:51:24Z</time>
      </trkpt>
      <trkpt lat="45.66939" lon="6.04488">
        <ele>930.69</ele>
        <time>2012-08-07T08:51:28Z</time>
      </trkpt>
      <trkpt lat="45.66937" lon="6.0448">
        <ele>930.69</ele>
        <time>2012-08-07T08:51:29Z</time>
      </trkpt>
      <trkpt lat="45.66932" lon="6.04472">
        <ele>930.69</ele>
        <time>2012-08-07T08:51:30Z</time>
      </trkpt>
      <trkpt lat="45.66926" lon="6.04465">
        <ele>930.21</ele>
        <time>2012-08-07T08:51:31Z</time>
      </trkpt>
      <trkpt lat="45.66918" lon="6.04459">
        <ele>930.21</ele>
        <time>2012-08-07T08:51:32Z</time>
      </trkpt>
      <trkpt lat="45.6691" lon="6.04453">
        <ele>930.21</ele>
        <time>2012-08-07T08:51:33Z</time>
      </trkpt>
      <trkpt lat="45.6687" lon="6.04423">
        <ele>928.77</ele>
        <time>2012-08-07T08:51:38Z</time>
      </trkpt>
      <trkpt lat="45.66864" lon="6.04413">
        <ele>928.77</ele>
        <time>2012-08-07T08:51:39Z</time>
      </trkpt>
      <trkpt lat="45.66861" lon="6.04402">
        <ele>928.29</ele>
        <time>2012-08-07T08:51:40Z</time>
      </trkpt>
      <trkpt lat="45.66857" lon="6.0439">
        <ele>928.29</ele>
        <time>2012-08-07T08:51:41Z</time>
      </trkpt>
      <trkpt lat="45.66854" lon="6.04378">
        <ele>929.25</ele>
        <time>2012-08-07T08:51:42Z</time>
      </trkpt>
      <trkpt lat="45.6685" lon="6.04366">
        <ele>929.73</ele>
        <time>2012-08-07T08:51:43Z</time>
      </trkpt>
      <trkpt lat="45.66844" lon="6.04355">
        <ele>930.69</ele>
        <time>2012-08-07T08:51:44Z</time>
      </trkpt>
      <trkpt lat="45.66836" lon="6.04344">
        <ele>931.65</ele>
        <time>2012-08-07T08:51:45Z</time>
      </trkpt>
      <trkpt lat="45.66826" lon="6.04334">
        <ele>933.1</ele>
        <time>2012-08-07T08:51:46Z</time>
      </trkpt>
      <trkpt lat="45.66815" lon="6.04323">
        <ele>935.02</ele>
        <time>2012-08-07T08:51:47Z</time>
      </trkpt>
      <trkpt lat="45.66789" lon="6.04297">
        <ele>938.38</ele>
        <time>2012-08-07T08:51:49Z</time>
      </trkpt>
      <trkpt lat="45.66764" lon="6.04271">
        <ele>939.83</ele>
        <time>2012-08-07T08:51:51Z</time>
      </trkpt>
      <trkpt lat="45.66739" lon="6.04243">
        <ele>940.31</ele>
        <time>2012-08-07T08:51:54Z</time>
      </trkpt>
      <trkpt lat="45.66734" lon="6.04234">
        <ele>940.31</ele>
        <time>2012-08-07T08:51:55Z</time>
      </trkpt>
      <trkpt lat="45.66732" lon="6.04225">
        <ele>940.79</ele>
        <time>2012-08-07T08:51:56Z</time>
      </trkpt>
      <trkpt lat="45.66732" lon="6.0422">
        <ele>941.27</ele>
        <time>2012-08-07T08:51:57Z</time>
      </trkpt>
      <trkpt lat="45.66731" lon="6.04217">
        <ele>942.23</ele>
        <time>2012-08-07T08:51:58Z</time>
      </trkpt>
      <trkpt lat="45.66729" lon="6.04219">
        <ele>943.67</ele>
        <time>2012-08-07T08:51:59Z</time>
      </trkpt>
      <trkpt lat="45.66727" lon="6.04225">
        <ele>945.59</ele>
        <time>2012-08-07T08:52:00Z</time>
      </trkpt>
      <trkpt lat="45.66724" lon="6.04232">
        <ele>946.56</ele>
        <time>2012-08-07T08:52:01Z</time>
      </trkpt>
      <trkpt lat="45.66724" lon="6.04239">
        <ele>948</ele>
        <time>2012-08-07T08:52:02Z</time>
      </trkpt>
      <trkpt lat="45.66725" lon="6.04245">
        <ele>948.96</ele>
        <time>2012-08-07T08:52:03Z</time>
      </trkpt>
      <trkpt lat="45.6673" lon="6.04253">
        <ele>950.4</ele>
        <time>2012-08-07T08:52:04Z</time>
      </trkpt>
      <trkpt lat="45.6674" lon="6.04263">
        <ele>949.92</ele>
        <time>2012-08-07T08:52:05Z</time>
      </trkpt>
      <trkpt lat="45.66752" lon="6.04272">
        <ele>950.4</ele>
        <time>2012-08-07T08:52:06Z</time>
      </trkpt>
      <trkpt lat="45.66774" lon="6.04279">
        <ele>949.92</ele>
        <time>2012-08-07T08:52:07Z</time>
      </trkpt>
      <trkpt lat="45.66791" lon="6.04284">
        <ele>949.92</ele>
        <time>2012-08-07T08:52:08Z</time>
      </trkpt>
      <trkpt lat="45.66817" lon="6.04283">
        <ele>949.92</ele>
        <time>2012-08-07T08:52:09Z</time>
      </trkpt>
      <trkpt lat="45.66828" lon="6.04278">
        <ele>949.92</ele>
        <time>2012-08-07T08:52:10Z</time>
      </trkpt>
      <trkpt lat="45.66837" lon="6.04273">
        <ele>949.92</ele>
        <time>2012-08-07T08:52:11Z</time>
      </trkpt>
      <trkpt lat="45.66848" lon="6.04262">
        <ele>949.92</ele>
        <time>2012-08-07T08:52:12Z</time>
      </trkpt>
      <trkpt lat="45.66852" lon="6.04254">
        <ele>950.88</ele>
        <time>2012-08-07T08:52:13Z</time>
      </trkpt>
      <trkpt lat="45.66858" lon="6.04249">
        <ele>951.36</ele>
        <time>2012-08-07T08:52:14Z</time>
      </trkpt>
      <trkpt lat="45.66856" lon="6.04245">
        <ele>952.8</ele>
        <time>2012-08-07T08:52:15Z</time>
      </trkpt>
      <trkpt lat="45.6685" lon="6.04241">
        <ele>954.25</ele>
        <time>2012-08-07T08:52:16Z</time>
      </trkpt>
      <trkpt lat="45.66824" lon="6.04214">
        <ele>958.57</ele>
        <time>2012-08-07T08:52:19Z</time>
      </trkpt>
      <trkpt lat="45.66789" lon="6.0417">
        <ele>961.46</ele>
        <time>2012-08-07T08:52:22Z</time>
      </trkpt>
      <trkpt lat="45.66752" lon="6.04124">
        <ele>964.82</ele>
        <time>2012-08-07T08:52:25Z</time>
      </trkpt>
      <trkpt lat="45.66728" lon="6.04092">
        <ele>968.18</ele>
        <time>2012-08-07T08:52:27Z</time>
      </trkpt>
      <trkpt lat="45.66703" lon="6.04059">
        <ele>971.55</ele>
        <time>2012-08-07T08:52:29Z</time>
      </trkpt>
      <trkpt lat="45.66679" lon="6.04026">
        <ele>974.43</ele>
        <time>2012-08-07T08:52:31Z</time>
      </trkpt>
      <trkpt lat="45.66628" lon="6.03961">
        <ele>978.28</ele>
        <time>2012-08-07T08:52:35Z</time>
      </trkpt>
      <trkpt lat="45.66592" lon="6.03916">
        <ele>981.16</ele>
        <time>2012-08-07T08:52:38Z</time>
      </trkpt>
      <trkpt lat="45.66555" lon="6.03867">
        <ele>982.6</ele>
        <time>2012-08-07T08:52:43Z</time>
      </trkpt>
      <trkpt lat="45.66538" lon="6.03853">
        <ele>985.01</ele>
        <time>2012-08-07T08:52:45Z</time>
      </trkpt>
      <trkpt lat="45.66527" lon="6.03847">
        <ele>985.97</ele>
        <time>2012-08-07T08:52:46Z</time>
      </trkpt>
      <trkpt lat="45.66515" lon="6.03841">
        <ele>986.93</ele>
        <time>2012-08-07T08:52:47Z</time>
      </trkpt>
      <trkpt lat="45.6648" lon="6.03824">
        <ele>989.33</ele>
        <time>2012-08-07T08:52:50Z</time>
      </trkpt>
      <trkpt lat="45.66452" lon="6.03812">
        <ele>989.81</ele>
        <time>2012-08-07T08:52:53Z</time>
      </trkpt>
      <trkpt lat="45.66446" lon="6.03805">
        <ele>990.3</ele>
        <time>2012-08-07T08:52:54Z</time>
      </trkpt>
      <trkpt lat="45.66444" lon="6.03797">
        <ele>989.81</ele>
        <time>2012-08-07T08:52:55Z</time>
      </trkpt>
      <trkpt lat="45.66446" lon="6.03789">
        <ele>990.78</ele>
        <time>2012-08-07T08:52:56Z</time>
      </trkpt>
      <trkpt lat="45.66452" lon="6.03785">
        <ele>990.78</ele>
        <time>2012-08-07T08:52:57Z</time>
      </trkpt>
      <trkpt lat="45.6646" lon="6.03786">
        <ele>991.74</ele>
        <time>2012-08-07T08:52:58Z</time>
      </trkpt>
      <trkpt lat="45.6647" lon="6.03789">
        <ele>993.18</ele>
        <time>2012-08-07T08:52:59Z</time>
      </trkpt>
      <trkpt lat="45.66481" lon="6.03796">
        <ele>995.1</ele>
        <time>2012-08-07T08:53:00Z</time>
      </trkpt>
      <trkpt lat="45.66502" lon="6.03808">
        <ele>995.58</ele>
        <time>2012-08-07T08:53:02Z</time>
      </trkpt>
      <trkpt lat="45.66511" lon="6.03811">
        <ele>995.1</ele>
        <time>2012-08-07T08:53:03Z</time>
      </trkpt>
      <trkpt lat="45.66518" lon="6.03811">
        <ele>995.58</ele>
        <time>2012-08-07T08:53:04Z</time>
      </trkpt>
      <trkpt lat="45.66523" lon="6.03806">
        <ele>996.06</ele>
        <time>2012-08-07T08:53:05Z</time>
      </trkpt>
      <trkpt lat="45.66527" lon="6.03798">
        <ele>996.06</ele>
        <time>2012-08-07T08:53:06Z</time>
      </trkpt>
      <trkpt lat="45.66529" lon="6.03789">
        <ele>996.54</ele>
        <time>2012-08-07T08:53:07Z</time>
      </trkpt>
      <trkpt lat="45.6653" lon="6.0378">
        <ele>997.99</ele>
        <time>2012-08-07T08:53:08Z</time>
      </trkpt>
      <trkpt lat="45.66527" lon="6.03772">
        <ele>998.95</ele>
        <time>2012-08-07T08:53:09Z</time>
      </trkpt>
      <trkpt lat="45.66521" lon="6.03767">
        <ele>1000.39</ele>
        <time>2012-08-07T08:53:10Z</time>
      </trkpt>
      <trkpt lat="45.66513" lon="6.03761">
        <ele>1000.87</ele>
        <time>2012-08-07T08:53:11Z</time>
      </trkpt>
      <trkpt lat="45.6649" lon="6.03746">
        <ele>1004.72</ele>
        <time>2012-08-07T08:53:13Z</time>
      </trkpt>
      <trkpt lat="45.66428" lon="6.03702">
        <ele>1008.56</ele>
        <time>2012-08-07T08:53:17Z</time>
      </trkpt>
      <trkpt lat="45.66378" lon="6.03668">
        <ele>1011.93</ele>
        <time>2012-08-07T08:53:20Z</time>
      </trkpt>
      <trkpt lat="45.66328" lon="6.03635">
        <ele>1015.29</ele>
        <time>2012-08-07T08:53:23Z</time>
      </trkpt>
      <trkpt lat="45.66295" lon="6.03614">
        <ele>1019.13</ele>
        <time>2012-08-07T08:53:25Z</time>
      </trkpt>
      <trkpt lat="45.66278" lon="6.03606">
        <ele>1020.58</ele>
        <time>2012-08-07T08:53:26Z</time>
      </trkpt>
      <trkpt lat="45.66231" lon="6.03588">
        <ele>1022.98</ele>
        <time>2012-08-07T08:53:29Z</time>
      </trkpt>
      <trkpt lat="45.66192" lon="6.03571">
        <ele>1022.5</ele>
        <time>2012-08-07T08:53:33Z</time>
      </trkpt>
      <trkpt lat="45.66188" lon="6.03562">
        <ele>1022.5</ele>
        <time>2012-08-07T08:53:34Z</time>
      </trkpt>
      <trkpt lat="45.66187" lon="6.03553">
        <ele>1023.94</ele>
        <time>2012-08-07T08:53:35Z</time>
      </trkpt>
      <trkpt lat="45.66189" lon="6.03548">
        <ele>1024.42</ele>
        <time>2012-08-07T08:53:36Z</time>
      </trkpt>
      <trkpt lat="45.66194" lon="6.03547">
        <ele>1025.38</ele>
        <time>2012-08-07T08:53:37Z</time>
      </trkpt>
      <trkpt lat="45.66201" lon="6.0355">
        <ele>1026.83</ele>
        <time>2012-08-07T08:53:38Z</time>
      </trkpt>
      <trkpt lat="45.6621" lon="6.03554">
        <ele>1028.75</ele>
        <time>2012-08-07T08:53:39Z</time>
      </trkpt>
      <trkpt lat="45.66222" lon="6.03556">
        <ele>1029.23</ele>
        <time>2012-08-07T08:53:40Z</time>
      </trkpt>
      <trkpt lat="45.66277" lon="6.03563">
        <ele>1031.15</ele>
        <time>2012-08-07T08:53:44Z</time>
      </trkpt>
      <trkpt lat="45.66285" lon="6.0356">
        <ele>1030.67</ele>
        <time>2012-08-07T08:53:45Z</time>
      </trkpt>
      <trkpt lat="45.66291" lon="6.03555">
        <ele>1030.67</ele>
        <time>2012-08-07T08:53:46Z</time>
      </trkpt>
      <trkpt lat="45.66294" lon="6.03547">
        <ele>1030.67</ele>
        <time>2012-08-07T08:53:47Z</time>
      </trkpt>
      <trkpt lat="45.66292" lon="6.03538">
        <ele>1030.67</ele>
        <time>2012-08-07T08:53:48Z</time>
      </trkpt>
      <trkpt lat="45.66286" lon="6.03531">
        <ele>1032.11</ele>
        <time>2012-08-07T08:53:49Z</time>
      </trkpt>
      <trkpt lat="45.66276" lon="6.03527">
        <ele>1033.07</ele>
        <time>2012-08-07T08:53:50Z</time>
      </trkpt>
      <trkpt lat="45.66265" lon="6.03525">
        <ele>1034.52</ele>
        <time>2012-08-07T08:53:51Z</time>
      </trkpt>
      <trkpt lat="45.66252" lon="6.03521">
        <ele>1036.44</ele>
        <time>2012-08-07T08:53:52Z</time>
      </trkpt>
      <trkpt lat="45.66238" lon="6.03512">
        <ele>1037.88</ele>
        <time>2012-08-07T08:53:53Z</time>
      </trkpt>
      <trkpt lat="45.66202" lon="6.03486">
        <ele>1039.32</ele>
        <time>2012-08-07T08:53:56Z</time>
      </trkpt>
      <trkpt lat="45.66174" lon="6.03471">
        <ele>1043.17</ele>
        <time>2012-08-07T08:53:58Z</time>
      </trkpt>
      <trkpt lat="45.66144" lon="6.03455">
        <ele>1046.53</ele>
        <time>2012-08-07T08:54:00Z</time>
      </trkpt>
      <trkpt lat="45.66112" lon="6.0344">
        <ele>1050.38</ele>
        <time>2012-08-07T08:54:02Z</time>
      </trkpt>
      <trkpt lat="45.6608" lon="6.03429">
        <ele>1051.34</ele>
        <time>2012-08-07T08:54:04Z</time>
      </trkpt>
      <trkpt lat="45.66057" lon="6.03421">
        <ele>1050.86</ele>
        <time>2012-08-07T08:54:06Z</time>
      </trkpt>
      <trkpt lat="45.66049" lon="6.03415">
        <ele>1050.38</ele>
        <time>2012-08-07T08:54:07Z</time>
      </trkpt>
      <trkpt lat="45.66044" lon="6.03405">
        <ele>1050.86</ele>
        <time>2012-08-07T08:54:08Z</time>
      </trkpt>
      <trkpt lat="45.66042" lon="6.03392">
        <ele>1051.34</ele>
        <time>2012-08-07T08:54:09Z</time>
      </trkpt>
      <trkpt lat="45.66044" lon="6.0338">
        <ele>1051.82</ele>
        <time>2012-08-07T08:54:10Z</time>
      </trkpt>
      <trkpt lat="45.66048" lon="6.03372">
        <ele>1052.3</ele>
        <time>2012-08-07T08:54:11Z</time>
      </trkpt>
      <trkpt lat="45.66054" lon="6.03368">
        <ele>1052.78</ele>
        <time>2012-08-07T08:54:12Z</time>
      </trkpt>
      <trkpt lat="45.66062" lon="6.03369">
        <ele>1052.78</ele>
        <time>2012-08-07T08:54:13Z</time>
      </trkpt>
      <trkpt lat="45.6607" lon="6.03375">
        <ele>1053.26</ele>
        <time>2012-08-07T08:54:14Z</time>
      </trkpt>
      <trkpt lat="45.66075" lon="6.03387">
        <ele>1054.22</ele>
        <time>2012-08-07T08:54:15Z</time>
      </trkpt>
      <trkpt lat="45.66079" lon="6.03399">
        <ele>1054.22</ele>
        <time>2012-08-07T08:54:16Z</time>
      </trkpt>
      <trkpt lat="45.66084" lon="6.03408">
        <ele>1053.74</ele>
        <time>2012-08-07T08:54:17Z</time>
      </trkpt>
      <trkpt lat="45.66092" lon="6.03414">
        <ele>1053.74</ele>
        <time>2012-08-07T08:54:18Z</time>
      </trkpt>
      <trkpt lat="45.66103" lon="6.03417">
        <ele>1054.22</ele>
        <time>2012-08-07T08:54:19Z</time>
      </trkpt>
      <trkpt lat="45.66117" lon="6.03421">
        <ele>1054.7</ele>
        <time>2012-08-07T08:54:20Z</time>
      </trkpt>
      <trkpt lat="45.66132" lon="6.03426">
        <ele>1054.7</ele>
        <time>2012-08-07T08:54:21Z</time>
      </trkpt>
      <trkpt lat="45.66183" lon="6.03444">
        <ele>1050.38</ele>
        <time>2012-08-07T08:54:25Z</time>
      </trkpt>
      <trkpt lat="45.66192" lon="6.03442">
        <ele>1051.34</ele>
        <time>2012-08-07T08:54:26Z</time>
      </trkpt>
      <trkpt lat="45.66202" lon="6.03437">
        <ele>1050.86</ele>
        <time>2012-08-07T08:54:27Z</time>
      </trkpt>
      <trkpt lat="45.66209" lon="6.03428">
        <ele>1049.9</ele>
        <time>2012-08-07T08:54:28Z</time>
      </trkpt>
      <trkpt lat="45.66214" lon="6.03415">
        <ele>1049.9</ele>
        <time>2012-08-07T08:54:29Z</time>
      </trkpt>
      <trkpt lat="45.66216" lon="6.03401">
        <ele>1050.38</ele>
        <time>2012-08-07T08:54:30Z</time>
      </trkpt>
      <trkpt lat="45.66216" lon="6.03383">
        <ele>1051.34</ele>
        <time>2012-08-07T08:54:31Z</time>
      </trkpt>
      <trkpt lat="45.66213" lon="6.03365">
        <ele>1049.9</ele>
        <time>2012-08-07T08:54:32Z</time>
      </trkpt>
      <trkpt lat="45.6621" lon="6.03349">
        <ele>1048.94</ele>
        <time>2012-08-07T08:54:33Z</time>
      </trkpt>
      <trkpt lat="45.66207" lon="6.03334">
        <ele>1048.45</ele>
        <time>2012-08-07T08:54:34Z</time>
      </trkpt>
      <trkpt lat="45.66205" lon="6.03318">
        <ele>1047.49</ele>
        <time>2012-08-07T08:54:35Z</time>
      </trkpt>
      <trkpt lat="45.66206" lon="6.03305">
        <ele>1047.49</ele>
        <time>2012-08-07T08:54:36Z</time>
      </trkpt>
      <trkpt lat="45.66211" lon="6.03294">
        <ele>1047.01</ele>
        <time>2012-08-07T08:54:37Z</time>
      </trkpt>
      <trkpt lat="45.66221" lon="6.03289">
        <ele>1047.49</ele>
        <time>2012-08-07T08:54:38Z</time>
      </trkpt>
      <trkpt lat="45.66232" lon="6.03292">
        <ele>1049.42</ele>
        <time>2012-08-07T08:54:39Z</time>
      </trkpt>
      <trkpt lat="45.66246" lon="6.03299">
        <ele>1051.34</ele>
        <time>2012-08-07T08:54:40Z</time>
      </trkpt>
      <trkpt lat="45.6626" lon="6.03308">
        <ele>1052.3</ele>
        <time>2012-08-07T08:54:41Z</time>
      </trkpt>
      <trkpt lat="45.66308" lon="6.03338">
        <ele>1056.63</ele>
        <time>2012-08-07T08:54:44Z</time>
      </trkpt>
      <trkpt lat="45.66342" lon="6.03362">
        <ele>1059.03</ele>
        <time>2012-08-07T08:54:46Z</time>
      </trkpt>
      <trkpt lat="45.66437" lon="6.0343">
        <ele>1062.87</ele>
        <time>2012-08-07T08:54:52Z</time>
      </trkpt>
      <trkpt lat="45.66471" lon="6.03446">
        <ele>1064.8</ele>
        <time>2012-08-07T08:54:54Z</time>
      </trkpt>
      <trkpt lat="45.6655" lon="6.03482">
        <ele>1060.95</ele>
        <time>2012-08-07T08:54:59Z</time>
      </trkpt>
      <trkpt lat="45.66582" lon="6.03499">
        <ele>1058.07</ele>
        <time>2012-08-07T08:55:03Z</time>
      </trkpt>
      <trkpt lat="45.66586" lon="6.03503">
        <ele>1057.59</ele>
        <time>2012-08-07T08:55:04Z</time>
      </trkpt>
      <trkpt lat="45.66589" lon="6.03506">
        <ele>1057.11</ele>
        <time>2012-08-07T08:55:05Z</time>
      </trkpt>
      <trkpt lat="45.66592" lon="6.0351">
        <ele>1056.63</ele>
        <time>2012-08-07T08:55:06Z</time>
      </trkpt>
      <trkpt lat="45.66594" lon="6.03513">
        <ele>1056.63</ele>
        <time>2012-08-07T08:55:07Z</time>
      </trkpt>
      <trkpt lat="45.66596" lon="6.03514">
        <ele>1056.15</ele>
        <time>2012-08-07T08:55:08Z</time>
      </trkpt>
      <trkpt lat="45.66598" lon="6.03514">
        <ele>1056.15</ele>
        <time>2012-08-07T08:55:19Z</time>
      </trkpt>
      <trkpt lat="45.66598" lon="6.03515">
        <ele>1056.63</ele>
        <time>2012-08-07T08:55:23Z</time>
      </trkpt>
      <trkpt lat="45.66598" lon="6.03514">
        <ele>1057.11</ele>
        <time>2012-08-07T08:55:52Z</time>
      </trkpt>
      <trkpt lat="45.66598" lon="6.03513">
        <ele>1051.82</ele>
        <time>2012-08-07T08:56:16Z</time>
      </trkpt>
      <trkpt lat="45.66598" lon="6.03513">
        <ele>1051.82</ele>
        <time>2012-08-07T08:56:17Z</time>
      </trkpt>
      <trkpt lat="45.66598" lon="6.03513">
        <ele>1057.11</ele>
        <time>2012-08-07T08:56:18Z</time>
      </trkpt>
      <trkpt lat="45.66598" lon="6.03513">
        <ele>1056.63</ele>
        <time>2012-08-07T08:56:19Z</time>
      </trkpt>
      <trkpt lat="45.66598" lon="6.03513">
        <ele>1055.67</ele>
        <time>2012-08-07T08:56:51Z</time>
      </trkpt>
      <trkpt lat="45.66599" lon="6.03513">
        <ele>1057.11</ele>
        <time>2012-08-07T08:57:04Z</time>
      </trkpt>
      <trkpt lat="45.66599" lon="6.03513">
        <ele>1053.74</ele>
        <time>2012-08-07T08:57:29Z</time>
      </trkpt>
      <trkpt lat="45.66599" lon="6.03512">
        <ele>1057.59</ele>
        <time>2012-08-07T08:57:34Z</time>
      </trkpt>
      <trkpt lat="45.66599" lon="6.03513">
        <ele>1053.26</ele>
        <time>2012-08-07T08:57:47Z</time>
      </trkpt>
      <trkpt lat="45.66599" lon="6.03513">
        <ele>1056.63</ele>
        <time>2012-08-07T08:57:51Z</time>
      </trkpt>
      <trkpt lat="45.666" lon="6.03512">
        <ele>1056.15</ele>
        <time>2012-08-07T08:58:10Z</time>
      </trkpt>
      <trkpt lat="45.66601" lon="6.03511">
        <ele>1056.15</ele>
        <time>2012-08-07T08:58:11Z</time>
      </trkpt>
      <trkpt lat="45.66602" lon="6.03507">
        <ele>1056.15</ele>
        <time>2012-08-07T08:58:12Z</time>
      </trkpt>
      <trkpt lat="45.66601" lon="6.03503">
        <ele>1056.15</ele>
        <time>2012-08-07T08:58:13Z</time>
      </trkpt>
      <trkpt lat="45.66599" lon="6.03498">
        <ele>1056.63</ele>
        <time>2012-08-07T08:58:14Z</time>
      </trkpt>
      <trkpt lat="45.66599" lon="6.03487">
        <ele>1056.63</ele>
        <time>2012-08-07T08:58:16Z</time>
      </trkpt>
      <trkpt lat="45.66601" lon="6.03483">
        <ele>1057.59</ele>
        <time>2012-08-07T08:58:17Z</time>
      </trkpt>
      <trkpt lat="45.66607" lon="6.03481">
        <ele>1058.07</ele>
        <time>2012-08-07T08:58:18Z</time>
      </trkpt>
      <trkpt lat="45.66615" lon="6.03482">
        <ele>1059.51</ele>
        <time>2012-08-07T08:58:19Z</time>
      </trkpt>
      <trkpt lat="45.66625" lon="6.03483">
        <ele>1060.47</ele>
        <time>2012-08-07T08:58:20Z</time>
      </trkpt>
      <trkpt lat="45.66648" lon="6.03488">
        <ele>1062.39</ele>
        <time>2012-08-07T08:58:22Z</time>
      </trkpt>
      <trkpt lat="45.66708" lon="6.03494">
        <ele>1065.28</ele>
        <time>2012-08-07T08:58:27Z</time>
      </trkpt>
      <trkpt lat="45.66714" lon="6.03492">
        <ele>1065.28</ele>
        <time>2012-08-07T08:58:28Z</time>
      </trkpt>
      <trkpt lat="45.66719" lon="6.03487">
        <ele>1065.76</ele>
        <time>2012-08-07T08:58:29Z</time>
      </trkpt>
      <trkpt lat="45.66722" lon="6.03479">
        <ele>1066.24</ele>
        <time>2012-08-07T08:58:30Z</time>
      </trkpt>
      <trkpt lat="45.66723" lon="6.0347">
        <ele>1066.72</ele>
        <time>2012-08-07T08:58:31Z</time>
      </trkpt>
      <trkpt lat="45.66721" lon="6.0346">
        <ele>1067.68</ele>
        <time>2012-08-07T08:58:32Z</time>
      </trkpt>
      <trkpt lat="45.66717" lon="6.03452">
        <ele>1068.16</ele>
        <time>2012-08-07T08:58:33Z</time>
      </trkpt>
      <trkpt lat="45.66712" lon="6.03445">
        <ele>1068.64</ele>
        <time>2012-08-07T08:58:34Z</time>
      </trkpt>
      <trkpt lat="45.66706" lon="6.0344">
        <ele>1068.64</ele>
        <time>2012-08-07T08:58:35Z</time>
      </trkpt>
      <trkpt lat="45.667" lon="6.03434">
        <ele>1069.6</ele>
        <time>2012-08-07T08:58:36Z</time>
      </trkpt>
      <trkpt lat="45.66695" lon="6.03428">
        <ele>1069.6</ele>
        <time>2012-08-07T08:58:37Z</time>
      </trkpt>
      <trkpt lat="45.66691" lon="6.0342">
        <ele>1071.53</ele>
        <time>2012-08-07T08:58:38Z</time>
      </trkpt>
      <trkpt lat="45.66687" lon="6.03412">
        <ele>1071.53</ele>
        <time>2012-08-07T08:58:39Z</time>
      </trkpt>
      <trkpt lat="45.66669" lon="6.03381">
        <ele>1074.41</ele>
        <time>2012-08-07T08:58:45Z</time>
      </trkpt>
      <trkpt lat="45.66664" lon="6.03376">
        <ele>1073.93</ele>
        <time>2012-08-07T08:58:55Z</time>
      </trkpt>
      <trkpt lat="45.6666" lon="6.03374">
        <ele>1074.41</ele>
        <time>2012-08-07T08:58:57Z</time>
      </trkpt>
      <trkpt lat="45.6666" lon="6.03388">
        <ele>1074.41</ele>
        <time>2012-08-07T08:59:01Z</time>
      </trkpt>
      <trkpt lat="45.66666" lon="6.03395">
        <ele>1074.89</ele>
        <time>2012-08-07T08:59:02Z</time>
      </trkpt>
      <trkpt lat="45.66672" lon="6.03404">
        <ele>1073.93</ele>
        <time>2012-08-07T08:59:03Z</time>
      </trkpt>
      <trkpt lat="45.66696" lon="6.03438">
        <ele>1072.01</ele>
        <time>2012-08-07T08:59:06Z</time>
      </trkpt>
      <trkpt lat="45.66704" lon="6.03445">
        <ele>1070.57</ele>
        <time>2012-08-07T08:59:07Z</time>
      </trkpt>
      <trkpt lat="45.66711" lon="6.03452">
        <ele>1068.64</ele>
        <time>2012-08-07T08:59:08Z</time>
      </trkpt>
      <trkpt lat="45.66717" lon="6.03458">
        <ele>1068.16</ele>
        <time>2012-08-07T08:59:09Z</time>
      </trkpt>
      <trkpt lat="45.66721" lon="6.03466">
        <ele>1067.68</ele>
        <time>2012-08-07T08:59:10Z</time>
      </trkpt>
      <trkpt lat="45.66722" lon="6.03475">
        <ele>1067.2</ele>
        <time>2012-08-07T08:59:11Z</time>
      </trkpt>
      <trkpt lat="45.66721" lon="6.03482">
        <ele>1066.24</ele>
        <time>2012-08-07T08:59:12Z</time>
      </trkpt>
      <trkpt lat="45.66718" lon="6.03487">
        <ele>1066.24</ele>
        <time>2012-08-07T08:59:13Z</time>
      </trkpt>
      <trkpt lat="45.66712" lon="6.03489">
        <ele>1065.76</ele>
        <time>2012-08-07T08:59:14Z</time>
      </trkpt>
      <trkpt lat="45.66705" lon="6.03488">
        <ele>1066.24</ele>
        <time>2012-08-07T08:59:15Z</time>
      </trkpt>
      <trkpt lat="45.66635" lon="6.03481">
        <ele>1062.39</ele>
        <time>2012-08-07T08:59:20Z</time>
      </trkpt>
      <trkpt lat="45.66612" lon="6.03478">
        <ele>1059.51</ele>
        <time>2012-08-07T08:59:22Z</time>
      </trkpt>
      <trkpt lat="45.66604" lon="6.03478">
        <ele>1058.55</ele>
        <time>2012-08-07T08:59:23Z</time>
      </trkpt>
      <trkpt lat="45.66598" lon="6.03481">
        <ele>1057.59</ele>
        <time>2012-08-07T08:59:24Z</time>
      </trkpt>
      <trkpt lat="45.66594" lon="6.03486">
        <ele>1057.59</ele>
        <time>2012-08-07T08:59:25Z</time>
      </trkpt>
      <trkpt lat="45.66593" lon="6.03489">
        <ele>1057.11</ele>
        <time>2012-08-07T08:59:26Z</time>
      </trkpt>
      <trkpt lat="45.66592" lon="6.03492">
        <ele>1057.11</ele>
        <time>2012-08-07T08:59:27Z</time>
      </trkpt>
      <trkpt lat="45.66592" lon="6.03494">
        <ele>1056.63</ele>
        <time>2012-08-07T08:59:28Z</time>
      </trkpt>
      <trkpt lat="45.66594" lon="6.03498">
        <ele>1057.11</ele>
        <time>2012-08-07T08:59:29Z</time>
      </trkpt>
      <trkpt lat="45.66597" lon="6.03502">
        <ele>1057.11</ele>
        <time>2012-08-07T08:59:30Z</time>
      </trkpt>
      <trkpt lat="45.66604" lon="6.03505">
        <ele>1057.59</ele>
        <time>2012-08-07T08:59:31Z</time>
      </trkpt>
      <trkpt lat="45.66612" lon="6.03508">
        <ele>1057.59</ele>
        <time>2012-08-07T08:59:32Z</time>
      </trkpt>
      <trkpt lat="45.66623" lon="6.03511">
        <ele>1058.07</ele>
        <time>2012-08-07T08:59:33Z</time>
      </trkpt>
      <trkpt lat="45.66685" lon="6.03541">
        <ele>1055.18</ele>
        <time>2012-08-07T08:59:39Z</time>
      </trkpt>
      <trkpt lat="45.66698" lon="6.03549">
        <ele>1054.7</ele>
        <time>2012-08-07T08:59:41Z</time>
      </trkpt>
      <trkpt lat="45.66705" lon="6.03556">
        <ele>1054.7</ele>
        <time>2012-08-07T08:59:42Z</time>
      </trkpt>
      <trkpt lat="45.66712" lon="6.03563">
        <ele>1054.22</ele>
        <time>2012-08-07T08:59:43Z</time>
      </trkpt>
      <trkpt lat="45.66758" lon="6.03607">
        <ele>1052.78</ele>
        <time>2012-08-07T08:59:49Z</time>
      </trkpt>
      <trkpt lat="45.66776" lon="6.03632">
        <ele>1051.82</ele>
        <time>2012-08-07T08:59:52Z</time>
      </trkpt>
      <trkpt lat="45.66783" lon="6.03639">
        <ele>1051.34</ele>
        <time>2012-08-07T08:59:53Z</time>
      </trkpt>
      <trkpt lat="45.66814" lon="6.03676">
        <ele>1048.94</ele>
        <time>2012-08-07T08:59:58Z</time>
      </trkpt>
      <trkpt lat="45.66849" lon="6.03717">
        <ele>1044.61</ele>
        <time>2012-08-07T09:00:04Z</time>
      </trkpt>
      <trkpt lat="45.66855" lon="6.03725">
        <ele>1047.97</ele>
        <time>2012-08-07T09:00:05Z</time>
      </trkpt>
      <trkpt lat="45.66866" lon="6.03742">
        <ele>1042.21</ele>
        <time>2012-08-07T09:00:07Z</time>
      </trkpt>
      <trkpt lat="45.66871" lon="6.0375">
        <ele>1043.65</ele>
        <time>2012-08-07T09:00:08Z</time>
      </trkpt>
      <trkpt lat="45.66876" lon="6.03758">
        <ele>1043.17</ele>
        <time>2012-08-07T09:00:09Z</time>
      </trkpt>
      <trkpt lat="45.6688" lon="6.03763">
        <ele>1041.73</ele>
        <time>2012-08-07T09:00:10Z</time>
      </trkpt>
      <trkpt lat="45.66884" lon="6.03769">
        <ele>1041.25</ele>
        <time>2012-08-07T09:00:12Z</time>
      </trkpt>
      <trkpt lat="45.66885" lon="6.03767">
        <ele>1041.25</ele>
        <time>2012-08-07T09:00:13Z</time>
      </trkpt>
      <trkpt lat="45.66883" lon="6.03761">
        <ele>1039.8</ele>
        <time>2012-08-07T09:00:20Z</time>
      </trkpt>
      <trkpt lat="45.66883" lon="6.03761">
        <ele>1036.44</ele>
        <time>2012-08-07T09:00:34Z</time>
      </trkpt>
      <trkpt lat="45.66883" lon="6.03761">
        <ele>1042.21</ele>
        <time>2012-08-07T09:00:35Z</time>
      </trkpt>
      <trkpt lat="45.66883" lon="6.03761">
        <ele>1036.44</ele>
        <time>2012-08-07T09:00:36Z</time>
      </trkpt>
      <trkpt lat="45.66883" lon="6.03761">
        <ele>1041.73</ele>
        <time>2012-08-07T09:00:37Z</time>
      </trkpt>
      <trkpt lat="45.66883" lon="6.03761">
        <ele>1043.65</ele>
        <time>2012-08-07T09:00:40Z</time>
      </trkpt>
      <trkpt lat="45.66883" lon="6.03761">
        <ele>1041.25</ele>
        <time>2012-08-07T09:00:42Z</time>
      </trkpt>
      <trkpt lat="45.66869" lon="6.03748">
        <ele>1043.65</ele>
        <time>2012-08-07T09:00:46Z</time>
      </trkpt>
      <trkpt lat="45.66864" lon="6.03739">
        <ele>1044.61</ele>
        <time>2012-08-07T09:00:47Z</time>
      </trkpt>
      <trkpt lat="45.66844" lon="6.03706">
        <ele>1047.97</ele>
        <time>2012-08-07T09:00:50Z</time>
      </trkpt>
      <trkpt lat="45.66836" lon="6.03696">
        <ele>1048.45</ele>
        <time>2012-08-07T09:00:51Z</time>
      </trkpt>
      <trkpt lat="45.66829" lon="6.03687">
        <ele>1048.94</ele>
        <time>2012-08-07T09:00:52Z</time>
      </trkpt>
      <trkpt lat="45.66807" lon="6.03667">
        <ele>1048.94</ele>
        <time>2012-08-07T09:00:55Z</time>
      </trkpt>
      <trkpt lat="45.668" lon="6.03661">
        <ele>1048.45</ele>
        <time>2012-08-07T09:00:56Z</time>
      </trkpt>
      <trkpt lat="45.66785" lon="6.03647">
        <ele>1051.34</ele>
        <time>2012-08-07T09:00:58Z</time>
      </trkpt>
      <trkpt lat="45.66757" lon="6.03612">
        <ele>1052.3</ele>
        <time>2012-08-07T09:01:02Z</time>
      </trkpt>
      <trkpt lat="45.6673" lon="6.03578">
        <ele>1053.74</ele>
        <time>2012-08-07T09:01:06Z</time>
      </trkpt>
      <trkpt lat="45.66643" lon="6.03518">
        <ele>1057.59</ele>
        <time>2012-08-07T09:01:16Z</time>
      </trkpt>
      <trkpt lat="45.66609" lon="6.03506">
        <ele>1057.11</ele>
        <time>2012-08-07T09:01:19Z</time>
      </trkpt>
      <trkpt lat="45.66601" lon="6.03505">
        <ele>1056.63</ele>
        <time>2012-08-07T09:01:20Z</time>
      </trkpt>
      <trkpt lat="45.66596" lon="6.03501">
        <ele>1056.63</ele>
        <time>2012-08-07T09:01:21Z</time>
      </trkpt>
      <trkpt lat="45.66593" lon="6.03494">
        <ele>1056.63</ele>
        <time>2012-08-07T09:01:22Z</time>
      </trkpt>
      <trkpt lat="45.66594" lon="6.03488">
        <ele>1057.11</ele>
        <time>2012-08-07T09:01:23Z</time>
      </trkpt>
      <trkpt lat="45.66598" lon="6.03482">
        <ele>1058.07</ele>
        <time>2012-08-07T09:01:24Z</time>
      </trkpt>
      <trkpt lat="45.66605" lon="6.0348">
        <ele>1058.07</ele>
        <time>2012-08-07T09:01:25Z</time>
      </trkpt>
      <trkpt lat="45.66615" lon="6.03481">
        <ele>1059.51</ele>
        <time>2012-08-07T09:01:26Z</time>
      </trkpt>
      <trkpt lat="45.66626" lon="6.03484">
        <ele>1060.95</ele>
        <time>2012-08-07T09:01:27Z</time>
      </trkpt>
      <trkpt lat="45.66638" lon="6.03487">
        <ele>1062.87</ele>
        <time>2012-08-07T09:01:28Z</time>
      </trkpt>
      <trkpt lat="45.66679" lon="6.03495">
        <ele>1065.76</ele>
        <time>2012-08-07T09:01:31Z</time>
      </trkpt>
      <trkpt lat="45.66727" lon="6.03497">
        <ele>1066.72</ele>
        <time>2012-08-07T09:01:37Z</time>
      </trkpt>
      <trkpt lat="45.66743" lon="6.03502">
        <ele>1066.72</ele>
        <time>2012-08-07T09:01:40Z</time>
      </trkpt>
      <trkpt lat="45.66747" lon="6.03504">
        <ele>1067.2</ele>
        <time>2012-08-07T09:01:41Z</time>
      </trkpt>
      <trkpt lat="45.66755" lon="6.03509">
        <ele>1068.16</ele>
        <time>2012-08-07T09:01:43Z</time>
      </trkpt>
      <trkpt lat="45.66763" lon="6.0351">
        <ele>1068.16</ele>
        <time>2012-08-07T09:01:50Z</time>
      </trkpt>
      <trkpt lat="45.6676" lon="6.03509">
        <ele>1067.68</ele>
        <time>2012-08-07T09:01:56Z</time>
      </trkpt>
      <trkpt lat="45.66757" lon="6.03508">
        <ele>1067.68</ele>
        <time>2012-08-07T09:01:59Z</time>
      </trkpt>
      <trkpt lat="45.66754" lon="6.03507">
        <ele>1067.68</ele>
        <time>2012-08-07T09:02:00Z</time>
      </trkpt>
      <trkpt lat="45.6675" lon="6.03505">
        <ele>1068.16</ele>
        <time>2012-08-07T09:02:01Z</time>
      </trkpt>
      <trkpt lat="45.66744" lon="6.03503">
        <ele>1068.16</ele>
        <time>2012-08-07T09:02:02Z</time>
      </trkpt>
      <trkpt lat="45.66738" lon="6.03501">
        <ele>1067.68</ele>
        <time>2012-08-07T09:02:03Z</time>
      </trkpt>
      <trkpt lat="45.66732" lon="6.035">
        <ele>1067.68</ele>
        <time>2012-08-07T09:02:04Z</time>
      </trkpt>
      <trkpt lat="45.66723" lon="6.03497">
        <ele>1066.24</ele>
        <time>2012-08-07T09:02:06Z</time>
      </trkpt>
      <trkpt lat="45.6672" lon="6.03493">
        <ele>1066.72</ele>
        <time>2012-08-07T09:02:07Z</time>
      </trkpt>
      <trkpt lat="45.66719" lon="6.03485">
        <ele>1066.24</ele>
        <time>2012-08-07T09:02:08Z</time>
      </trkpt>
      <trkpt lat="45.6672" lon="6.03474">
        <ele>1067.2</ele>
        <time>2012-08-07T09:02:09Z</time>
      </trkpt>
      <trkpt lat="45.66718" lon="6.03464">
        <ele>1067.68</ele>
        <time>2012-08-07T09:02:10Z</time>
      </trkpt>
      <trkpt lat="45.66712" lon="6.03454">
        <ele>1069.12</ele>
        <time>2012-08-07T09:02:11Z</time>
      </trkpt>
      <trkpt lat="45.66703" lon="6.03445">
        <ele>1070.57</ele>
        <time>2012-08-07T09:02:12Z</time>
      </trkpt>
      <trkpt lat="45.66694" lon="6.03434">
        <ele>1072.01</ele>
        <time>2012-08-07T09:02:13Z</time>
      </trkpt>
      <trkpt lat="45.66684" lon="6.0342">
        <ele>1073.45</ele>
        <time>2012-08-07T09:02:14Z</time>
      </trkpt>
      <trkpt lat="45.66675" lon="6.03405">
        <ele>1075.37</ele>
        <time>2012-08-07T09:02:15Z</time>
      </trkpt>
      <trkpt lat="45.66641" lon="6.03358">
        <ele>1079.7</ele>
        <time>2012-08-07T09:02:18Z</time>
      </trkpt>
      <trkpt lat="45.66614" lon="6.03328">
        <ele>1084.02</ele>
        <time>2012-08-07T09:02:20Z</time>
      </trkpt>
      <trkpt lat="45.66585" lon="6.03298">
        <ele>1088.83</ele>
        <time>2012-08-07T09:02:22Z</time>
      </trkpt>
      <trkpt lat="45.66557" lon="6.03265">
        <ele>1093.16</ele>
        <time>2012-08-07T09:02:24Z</time>
      </trkpt>
      <trkpt lat="45.66528" lon="6.03235">
        <ele>1096.04</ele>
        <time>2012-08-07T09:02:26Z</time>
      </trkpt>
      <trkpt lat="45.66513" lon="6.03223">
        <ele>1098.44</ele>
        <time>2012-08-07T09:02:27Z</time>
      </trkpt>
      <trkpt lat="45.66496" lon="6.03212">
        <ele>1100.37</ele>
        <time>2012-08-07T09:02:28Z</time>
      </trkpt>
      <trkpt lat="45.66462" lon="6.03192">
        <ele>1103.25</ele>
        <time>2012-08-07T09:02:30Z</time>
      </trkpt>
      <trkpt lat="45.66413" lon="6.03155">
        <ele>1108.54</ele>
        <time>2012-08-07T09:02:33Z</time>
      </trkpt>
      <trkpt lat="45.66382" lon="6.03125">
        <ele>1112.38</ele>
        <time>2012-08-07T09:02:35Z</time>
      </trkpt>
      <trkpt lat="45.6634" lon="6.03082">
        <ele>1115.27</ele>
        <time>2012-08-07T09:02:38Z</time>
      </trkpt>
      <trkpt lat="45.66329" lon="6.03068">
        <ele>1116.23</ele>
        <time>2012-08-07T09:02:39Z</time>
      </trkpt>
      <trkpt lat="45.66318" lon="6.03052">
        <ele>1118.63</ele>
        <time>2012-08-07T09:02:40Z</time>
      </trkpt>
      <trkpt lat="45.66308" lon="6.03034">
        <ele>1118.63</ele>
        <time>2012-08-07T09:02:41Z</time>
      </trkpt>
      <trkpt lat="45.66299" lon="6.03015">
        <ele>1122.48</ele>
        <time>2012-08-07T09:02:42Z</time>
      </trkpt>
      <trkpt lat="45.6629" lon="6.02995">
        <ele>1124.4</ele>
        <time>2012-08-07T09:02:43Z</time>
      </trkpt>
      <trkpt lat="45.66272" lon="6.02954">
        <ele>1128.24</ele>
        <time>2012-08-07T09:02:45Z</time>
      </trkpt>
      <trkpt lat="45.66252" lon="6.02915">
        <ele>1129.69</ele>
        <time>2012-08-07T09:02:47Z</time>
      </trkpt>
      <trkpt lat="45.66241" lon="6.02897">
        <ele>1133.53</ele>
        <time>2012-08-07T09:02:48Z</time>
      </trkpt>
      <trkpt lat="45.66229" lon="6.0288">
        <ele>1134.01</ele>
        <time>2012-08-07T09:02:49Z</time>
      </trkpt>
      <trkpt lat="45.66216" lon="6.02866">
        <ele>1134.01</ele>
        <time>2012-08-07T09:02:50Z</time>
      </trkpt>
      <trkpt lat="45.66201" lon="6.02852">
        <ele>1137.86</ele>
        <time>2012-08-07T09:02:51Z</time>
      </trkpt>
      <trkpt lat="45.66186" lon="6.0284">
        <ele>1141.22</ele>
        <time>2012-08-07T09:02:52Z</time>
      </trkpt>
      <trkpt lat="45.66154" lon="6.02818">
        <ele>1144.11</ele>
        <time>2012-08-07T09:02:54Z</time>
      </trkpt>
      <trkpt lat="45.66105" lon="6.02787">
        <ele>1146.99</ele>
        <time>2012-08-07T09:02:57Z</time>
      </trkpt>
      <trkpt lat="45.66088" lon="6.02778">
        <ele>1151.8</ele>
        <time>2012-08-07T09:02:58Z</time>
      </trkpt>
      <trkpt lat="45.66039" lon="6.02751">
        <ele>1156.6</ele>
        <time>2012-08-07T09:03:01Z</time>
      </trkpt>
      <trkpt lat="45.66008" lon="6.02733">
        <ele>1160.45</ele>
        <time>2012-08-07T09:03:03Z</time>
      </trkpt>
      <trkpt lat="45.65983" lon="6.02716">
        <ele>1161.41</ele>
        <time>2012-08-07T09:03:05Z</time>
      </trkpt>
      <trkpt lat="45.65975" lon="6.02707">
        <ele>1161.41</ele>
        <time>2012-08-07T09:03:06Z</time>
      </trkpt>
      <trkpt lat="45.65971" lon="6.02698">
        <ele>1161.41</ele>
        <time>2012-08-07T09:03:07Z</time>
      </trkpt>
      <trkpt lat="45.6597" lon="6.02688">
        <ele>1162.37</ele>
        <time>2012-08-07T09:03:08Z</time>
      </trkpt>
      <trkpt lat="45.65972" lon="6.02678">
        <ele>1163.33</ele>
        <time>2012-08-07T09:03:09Z</time>
      </trkpt>
      <trkpt lat="45.65975" lon="6.02669">
        <ele>1164.77</ele>
        <time>2012-08-07T09:03:10Z</time>
      </trkpt>
      <trkpt lat="45.65979" lon="6.02661">
        <ele>1166.7</ele>
        <time>2012-08-07T09:03:11Z</time>
      </trkpt>
      <trkpt lat="45.65983" lon="6.02654">
        <ele>1168.14</ele>
        <time>2012-08-07T09:03:12Z</time>
      </trkpt>
      <trkpt lat="45.65987" lon="6.02648">
        <ele>1169.58</ele>
        <time>2012-08-07T09:03:13Z</time>
      </trkpt>
      <trkpt lat="45.65992" lon="6.02644">
        <ele>1171.98</ele>
        <time>2012-08-07T09:03:14Z</time>
      </trkpt>
      <trkpt lat="45.65997" lon="6.0264">
        <ele>1173.43</ele>
        <time>2012-08-07T09:03:15Z</time>
      </trkpt>
      <trkpt lat="45.66004" lon="6.02636">
        <ele>1175.83</ele>
        <time>2012-08-07T09:03:16Z</time>
      </trkpt>
      <trkpt lat="45.66011" lon="6.02634">
        <ele>1177.75</ele>
        <time>2012-08-07T09:03:17Z</time>
      </trkpt>
      <trkpt lat="45.66027" lon="6.02637">
        <ele>1179.67</ele>
        <time>2012-08-07T09:03:18Z</time>
      </trkpt>
      <trkpt lat="45.66045" lon="6.02643">
        <ele>1181.12</ele>
        <time>2012-08-07T09:03:19Z</time>
      </trkpt>
      <trkpt lat="45.66065" lon="6.02652">
        <ele>1183.04</ele>
        <time>2012-08-07T09:03:20Z</time>
      </trkpt>
      <trkpt lat="45.66088" lon="6.02658">
        <ele>1184.48</ele>
        <time>2012-08-07T09:03:21Z</time>
      </trkpt>
      <trkpt lat="45.66109" lon="6.02663">
        <ele>1185.92</ele>
        <time>2012-08-07T09:03:22Z</time>
      </trkpt>
      <trkpt lat="45.66133" lon="6.02668">
        <ele>1186.88</ele>
        <time>2012-08-07T09:03:23Z</time>
      </trkpt>
      <trkpt lat="45.66187" lon="6.02689">
        <ele>1189.77</ele>
        <time>2012-08-07T09:03:25Z</time>
      </trkpt>
      <trkpt lat="45.66251" lon="6.02718">
        <ele>1194.58</ele>
        <time>2012-08-07T09:03:28Z</time>
      </trkpt>
      <trkpt lat="45.66289" lon="6.02731">
        <ele>1197.94</ele>
        <time>2012-08-07T09:03:30Z</time>
      </trkpt>
      <trkpt lat="45.66347" lon="6.0274">
        <ele>1201.79</ele>
        <time>2012-08-07T09:03:32Z</time>
      </trkpt>
      <trkpt lat="45.66371" lon="6.02742">
        <ele>1198.42</ele>
        <time>2012-08-07T09:03:33Z</time>
      </trkpt>
      <trkpt lat="45.66394" lon="6.02746">
        <ele>1203.23</ele>
        <time>2012-08-07T09:03:34Z</time>
      </trkpt>
      <trkpt lat="45.66432" lon="6.0276">
        <ele>1207.07</ele>
        <time>2012-08-07T09:03:36Z</time>
      </trkpt>
      <trkpt lat="45.6645" lon="6.02767">
        <ele>1205.15</ele>
        <time>2012-08-07T09:03:37Z</time>
      </trkpt>
      <trkpt lat="45.66485" lon="6.0278">
        <ele>1209</ele>
        <time>2012-08-07T09:03:39Z</time>
      </trkpt>
      <trkpt lat="45.66519" lon="6.02792">
        <ele>1212.36</ele>
        <time>2012-08-07T09:03:41Z</time>
      </trkpt>
      <trkpt lat="45.66535" lon="6.02799">
        <ele>1212.36</ele>
        <time>2012-08-07T09:03:42Z</time>
      </trkpt>
      <trkpt lat="45.6655" lon="6.02809">
        <ele>1212.36</ele>
        <time>2012-08-07T09:03:43Z</time>
      </trkpt>
      <trkpt lat="45.66565" lon="6.02821">
        <ele>1212.36</ele>
        <time>2012-08-07T09:03:44Z</time>
      </trkpt>
      <trkpt lat="45.66579" lon="6.02833">
        <ele>1217.65</ele>
        <time>2012-08-07T09:03:45Z</time>
      </trkpt>
      <trkpt lat="45.66606" lon="6.02856">
        <ele>1218.61</ele>
        <time>2012-08-07T09:03:47Z</time>
      </trkpt>
      <trkpt lat="45.66633" lon="6.02876">
        <ele>1220.53</ele>
        <time>2012-08-07T09:03:49Z</time>
      </trkpt>
      <trkpt lat="45.66648" lon="6.02883">
        <ele>1221.49</ele>
        <time>2012-08-07T09:03:50Z</time>
      </trkpt>
      <trkpt lat="45.66664" lon="6.02886">
        <ele>1222.45</ele>
        <time>2012-08-07T09:03:51Z</time>
      </trkpt>
      <trkpt lat="45.66681" lon="6.02885">
        <ele>1223.9</ele>
        <time>2012-08-07T09:03:52Z</time>
      </trkpt>
      <trkpt lat="45.66697" lon="6.02884">
        <ele>1225.34</ele>
        <time>2012-08-07T09:03:53Z</time>
      </trkpt>
      <trkpt lat="45.66714" lon="6.02884">
        <ele>1225.34</ele>
        <time>2012-08-07T09:03:54Z</time>
      </trkpt>
      <trkpt lat="45.66732" lon="6.02888">
        <ele>1225.82</ele>
        <time>2012-08-07T09:03:55Z</time>
      </trkpt>
      <trkpt lat="45.66748" lon="6.02897">
        <ele>1227.26</ele>
        <time>2012-08-07T09:03:56Z</time>
      </trkpt>
      <trkpt lat="45.66776" lon="6.0292">
        <ele>1228.22</ele>
        <time>2012-08-07T09:03:58Z</time>
      </trkpt>
      <trkpt lat="45.66792" lon="6.02928">
        <ele>1229.66</ele>
        <time>2012-08-07T09:03:59Z</time>
      </trkpt>
      <trkpt lat="45.66808" lon="6.02933">
        <ele>1231.11</ele>
        <time>2012-08-07T09:04:00Z</time>
      </trkpt>
      <trkpt lat="45.66862" lon="6.02938">
        <ele>1235.43</ele>
        <time>2012-08-07T09:04:03Z</time>
      </trkpt>
      <trkpt lat="45.66898" lon="6.02938">
        <ele>1236.87</ele>
        <time>2012-08-07T09:04:05Z</time>
      </trkpt>
      <trkpt lat="45.66936" lon="6.02934">
        <ele>1240.72</ele>
        <time>2012-08-07T09:04:07Z</time>
      </trkpt>
      <trkpt lat="45.66956" lon="6.02935">
        <ele>1243.12</ele>
        <time>2012-08-07T09:04:08Z</time>
      </trkpt>
      <trkpt lat="45.67005" lon="6.02939">
        <ele>1243.12</ele>
        <time>2012-08-07T09:04:11Z</time>
      </trkpt>
      <trkpt lat="45.67018" lon="6.02935">
        <ele>1244.08</ele>
        <time>2012-08-07T09:04:12Z</time>
      </trkpt>
      <trkpt lat="45.67032" lon="6.02927">
        <ele>1245.04</ele>
        <time>2012-08-07T09:04:13Z</time>
      </trkpt>
      <trkpt lat="45.67076" lon="6.02894">
        <ele>1249.85</ele>
        <time>2012-08-07T09:04:16Z</time>
      </trkpt>
      <trkpt lat="45.67109" lon="6.02877">
        <ele>1252.25</ele>
        <time>2012-08-07T09:04:18Z</time>
      </trkpt>
      <trkpt lat="45.67126" lon="6.02875">
        <ele>1253.22</ele>
        <time>2012-08-07T09:04:19Z</time>
      </trkpt>
      <trkpt lat="45.67144" lon="6.02875">
        <ele>1255.14</ele>
        <time>2012-08-07T09:04:20Z</time>
      </trkpt>
      <trkpt lat="45.6718" lon="6.02882">
        <ele>1258.5</ele>
        <time>2012-08-07T09:04:22Z</time>
      </trkpt>
      <trkpt lat="45.67197" lon="6.02888">
        <ele>1258.98</ele>
        <time>2012-08-07T09:04:23Z</time>
      </trkpt>
      <trkpt lat="45.67214" lon="6.02898">
        <ele>1259.94</ele>
        <time>2012-08-07T09:04:24Z</time>
      </trkpt>
      <trkpt lat="45.67229" lon="6.0291">
        <ele>1260.43</ele>
        <time>2012-08-07T09:04:25Z</time>
      </trkpt>
      <trkpt lat="45.67254" lon="6.02929">
        <ele>1260.43</ele>
        <time>2012-08-07T09:04:27Z</time>
      </trkpt>
      <trkpt lat="45.67268" lon="6.02934">
        <ele>1262.35</ele>
        <time>2012-08-07T09:04:28Z</time>
      </trkpt>
      <trkpt lat="45.67284" lon="6.02934">
        <ele>1262.83</ele>
        <time>2012-08-07T09:04:29Z</time>
      </trkpt>
      <trkpt lat="45.67308" lon="6.02932">
        <ele>1265.71</ele>
        <time>2012-08-07T09:04:30Z</time>
      </trkpt>
      <trkpt lat="45.67333" lon="6.02927">
        <ele>1269.08</ele>
        <time>2012-08-07T09:04:32Z</time>
      </trkpt>
      <trkpt lat="45.674" lon="6.0292">
        <ele>1271</ele>
        <time>2012-08-07T09:04:36Z</time>
      </trkpt>
      <trkpt lat="45.67416" lon="6.02924">
        <ele>1272.44</ele>
        <time>2012-08-07T09:04:37Z</time>
      </trkpt>
      <trkpt lat="45.67431" lon="6.02933">
        <ele>1273.4</ele>
        <time>2012-08-07T09:04:38Z</time>
      </trkpt>
      <trkpt lat="45.67459" lon="6.02953">
        <ele>1276.29</ele>
        <time>2012-08-07T09:04:40Z</time>
      </trkpt>
      <trkpt lat="45.67476" lon="6.02959">
        <ele>1277.73</ele>
        <time>2012-08-07T09:04:41Z</time>
      </trkpt>
      <trkpt lat="45.6751" lon="6.02966">
        <ele>1281.09</ele>
        <time>2012-08-07T09:04:43Z</time>
      </trkpt>
      <trkpt lat="45.67529" lon="6.02969">
        <ele>1282.54</ele>
        <time>2012-08-07T09:04:44Z</time>
      </trkpt>
      <trkpt lat="45.67593" lon="6.02968">
        <ele>1285.42</ele>
        <time>2012-08-07T09:04:48Z</time>
      </trkpt>
      <trkpt lat="45.67607" lon="6.0297">
        <ele>1286.86</ele>
        <time>2012-08-07T09:04:49Z</time>
      </trkpt>
      <trkpt lat="45.67621" lon="6.02977">
        <ele>1287.82</ele>
        <time>2012-08-07T09:04:50Z</time>
      </trkpt>
      <trkpt lat="45.67633" lon="6.02986">
        <ele>1289.27</ele>
        <time>2012-08-07T09:04:51Z</time>
      </trkpt>
      <trkpt lat="45.67655" lon="6.03006">
        <ele>1291.19</ele>
        <time>2012-08-07T09:04:53Z</time>
      </trkpt>
      <trkpt lat="45.67663" lon="6.03019">
        <ele>1291.19</ele>
        <time>2012-08-07T09:04:54Z</time>
      </trkpt>
      <trkpt lat="45.67669" lon="6.03034">
        <ele>1292.15</ele>
        <time>2012-08-07T09:04:55Z</time>
      </trkpt>
      <trkpt lat="45.67678" lon="6.03064">
        <ele>1300.32</ele>
        <time>2012-08-07T09:04:57Z</time>
      </trkpt>
      <trkpt lat="45.67685" lon="6.03081">
        <ele>1295.99</ele>
        <time>2012-08-07T09:04:58Z</time>
      </trkpt>
      <trkpt lat="45.67691" lon="6.03098">
        <ele>1296.96</ele>
        <time>2012-08-07T09:04:59Z</time>
      </trkpt>
      <trkpt lat="45.67695" lon="6.03116">
        <ele>1297.92</ele>
        <time>2012-08-07T09:05:00Z</time>
      </trkpt>
      <trkpt lat="45.677" lon="6.03131">
        <ele>1297.92</ele>
        <time>2012-08-07T09:05:01Z</time>
      </trkpt>
      <trkpt lat="45.67705" lon="6.03143">
        <ele>1297.92</ele>
        <time>2012-08-07T09:05:02Z</time>
      </trkpt>
      <trkpt lat="45.67713" lon="6.03152">
        <ele>1299.36</ele>
        <time>2012-08-07T09:05:03Z</time>
      </trkpt>
      <trkpt lat="45.67722" lon="6.03161">
        <ele>1300.32</ele>
        <time>2012-08-07T09:05:04Z</time>
      </trkpt>
      <trkpt lat="45.67734" lon="6.03167">
        <ele>1301.76</ele>
        <time>2012-08-07T09:05:05Z</time>
      </trkpt>
      <trkpt lat="45.67746" lon="6.03172">
        <ele>1302.24</ele>
        <time>2012-08-07T09:05:06Z</time>
      </trkpt>
      <trkpt lat="45.67758" lon="6.03176">
        <ele>1303.69</ele>
        <time>2012-08-07T09:05:07Z</time>
      </trkpt>
      <trkpt lat="45.67769" lon="6.03183">
        <ele>1303.2</ele>
        <time>2012-08-07T09:05:08Z</time>
      </trkpt>
      <trkpt lat="45.67778" lon="6.03193">
        <ele>1303.69</ele>
        <time>2012-08-07T09:05:09Z</time>
      </trkpt>
      <trkpt lat="45.67787" lon="6.03203">
        <ele>1304.17</ele>
        <time>2012-08-07T09:05:10Z</time>
      </trkpt>
      <trkpt lat="45.67795" lon="6.0321">
        <ele>1304.65</ele>
        <time>2012-08-07T09:05:11Z</time>
      </trkpt>
      <trkpt lat="45.67803" lon="6.03214">
        <ele>1305.13</ele>
        <time>2012-08-07T09:05:12Z</time>
      </trkpt>
      <trkpt lat="45.67812" lon="6.03215">
        <ele>1306.09</ele>
        <time>2012-08-07T09:05:13Z</time>
      </trkpt>
      <trkpt lat="45.67823" lon="6.03214">
        <ele>1306.57</ele>
        <time>2012-08-07T09:05:14Z</time>
      </trkpt>
      <trkpt lat="45.67835" lon="6.03213">
        <ele>1307.05</ele>
        <time>2012-08-07T09:05:15Z</time>
      </trkpt>
      <trkpt lat="45.67848" lon="6.03213">
        <ele>1307.53</ele>
        <time>2012-08-07T09:05:16Z</time>
      </trkpt>
      <trkpt lat="45.67859" lon="6.03219">
        <ele>1308.49</ele>
        <time>2012-08-07T09:05:17Z</time>
      </trkpt>
      <trkpt lat="45.6787" lon="6.03229">
        <ele>1308.49</ele>
        <time>2012-08-07T09:05:18Z</time>
      </trkpt>
      <trkpt lat="45.67881" lon="6.03242">
        <ele>1309.45</ele>
        <time>2012-08-07T09:05:19Z</time>
      </trkpt>
      <trkpt lat="45.67905" lon="6.03266">
        <ele>1308.01</ele>
        <time>2012-08-07T09:05:21Z</time>
      </trkpt>
      <trkpt lat="45.67919" lon="6.03276">
        <ele>1308.01</ele>
        <time>2012-08-07T09:05:22Z</time>
      </trkpt>
      <trkpt lat="45.67982" lon="6.03312">
        <ele>1304.17</ele>
        <time>2012-08-07T09:05:26Z</time>
      </trkpt>
      <trkpt lat="45.6801" lon="6.03327">
        <ele>1301.76</ele>
        <time>2012-08-07T09:05:28Z</time>
      </trkpt>
      <trkpt lat="45.68021" lon="6.03334">
        <ele>1301.76</ele>
        <time>2012-08-07T09:05:29Z</time>
      </trkpt>
      <trkpt lat="45.68031" lon="6.03338">
        <ele>1301.28</ele>
        <time>2012-08-07T09:05:30Z</time>
      </trkpt>
      <trkpt lat="45.68041" lon="6.03339">
        <ele>1301.28</ele>
        <time>2012-08-07T09:05:31Z</time>
      </trkpt>
      <trkpt lat="45.6805" lon="6.03335">
        <ele>1301.76</ele>
        <time>2012-08-07T09:05:32Z</time>
      </trkpt>
      <trkpt lat="45.68058" lon="6.03325">
        <ele>1301.76</ele>
        <time>2012-08-07T09:05:33Z</time>
      </trkpt>
      <trkpt lat="45.68065" lon="6.03311">
        <ele>1303.2</ele>
        <time>2012-08-07T09:05:34Z</time>
      </trkpt>
      <trkpt lat="45.6807" lon="6.03295">
        <ele>1303.69</ele>
        <time>2012-08-07T09:05:35Z</time>
      </trkpt>
      <trkpt lat="45.68076" lon="6.0328">
        <ele>1302.72</ele>
        <time>2012-08-07T09:05:36Z</time>
      </trkpt>
      <trkpt lat="45.68084" lon="6.03267">
        <ele>1302.72</ele>
        <time>2012-08-07T09:05:37Z</time>
      </trkpt>
      <trkpt lat="45.68093" lon="6.03255">
        <ele>1303.2</ele>
        <time>2012-08-07T09:05:38Z</time>
      </trkpt>
      <trkpt lat="45.68102" lon="6.03248">
        <ele>1302.72</ele>
        <time>2012-08-07T09:05:39Z</time>
      </trkpt>
      <trkpt lat="45.68111" lon="6.03242">
        <ele>1302.72</ele>
        <time>2012-08-07T09:05:40Z</time>
      </trkpt>
      <trkpt lat="45.68139" lon="6.03224">
        <ele>1304.17</ele>
        <time>2012-08-07T09:05:43Z</time>
      </trkpt>
      <trkpt lat="45.68146" lon="6.03213">
        <ele>1304.65</ele>
        <time>2012-08-07T09:05:44Z</time>
      </trkpt>
      <trkpt lat="45.68152" lon="6.03204">
        <ele>1303.69</ele>
        <time>2012-08-07T09:05:45Z</time>
      </trkpt>
      <trkpt lat="45.68158" lon="6.03197">
        <ele>1303.2</ele>
        <time>2012-08-07T09:05:46Z</time>
      </trkpt>
      <trkpt lat="45.68165" lon="6.0319">
        <ele>1303.69</ele>
        <time>2012-08-07T09:05:47Z</time>
      </trkpt>
      <trkpt lat="45.68172" lon="6.03186">
        <ele>1303.69</ele>
        <time>2012-08-07T09:05:48Z</time>
      </trkpt>
      <trkpt lat="45.68181" lon="6.03183">
        <ele>1304.17</ele>
        <time>2012-08-07T09:05:49Z</time>
      </trkpt>
      <trkpt lat="45.68191" lon="6.03182">
        <ele>1304.65</ele>
        <time>2012-08-07T09:05:50Z</time>
      </trkpt>
      <trkpt lat="45.68202" lon="6.03182">
        <ele>1306.09</ele>
        <time>2012-08-07T09:05:51Z</time>
      </trkpt>
      <trkpt lat="45.68213" lon="6.0318">
        <ele>1307.05</ele>
        <time>2012-08-07T09:05:52Z</time>
      </trkpt>
      <trkpt lat="45.68225" lon="6.03175">
        <ele>1307.53</ele>
        <time>2012-08-07T09:05:53Z</time>
      </trkpt>
      <trkpt lat="45.68235" lon="6.0317">
        <ele>1307.53</ele>
        <time>2012-08-07T09:05:54Z</time>
      </trkpt>
      <trkpt lat="45.68244" lon="6.03167">
        <ele>1306.57</ele>
        <time>2012-08-07T09:05:55Z</time>
      </trkpt>
      <trkpt lat="45.68253" lon="6.03166">
        <ele>1306.09</ele>
        <time>2012-08-07T09:05:56Z</time>
      </trkpt>
      <trkpt lat="45.68261" lon="6.03168">
        <ele>1307.53</ele>
        <time>2012-08-07T09:05:57Z</time>
      </trkpt>
      <trkpt lat="45.68269" lon="6.03174">
        <ele>1308.01</ele>
        <time>2012-08-07T09:05:58Z</time>
      </trkpt>
      <trkpt lat="45.68276" lon="6.03183">
        <ele>1308.01</ele>
        <time>2012-08-07T09:05:59Z</time>
      </trkpt>
      <trkpt lat="45.68282" lon="6.03194">
        <ele>1308.97</ele>
        <time>2012-08-07T09:06:00Z</time>
      </trkpt>
      <trkpt lat="45.68287" lon="6.03207">
        <ele>1309.45</ele>
        <time>2012-08-07T09:06:01Z</time>
      </trkpt>
      <trkpt lat="45.68291" lon="6.03221">
        <ele>1309.45</ele>
        <time>2012-08-07T09:06:02Z</time>
      </trkpt>
      <trkpt lat="45.68295" lon="6.03236">
        <ele>1310.41</ele>
        <time>2012-08-07T09:06:03Z</time>
      </trkpt>
      <trkpt lat="45.68301" lon="6.0325">
        <ele>1311.38</ele>
        <time>2012-08-07T09:06:04Z</time>
      </trkpt>
      <trkpt lat="45.68322" lon="6.03286">
        <ele>1312.34</ele>
        <time>2012-08-07T09:06:07Z</time>
      </trkpt>
      <trkpt lat="45.6833" lon="6.03295">
        <ele>1312.34</ele>
        <time>2012-08-07T09:06:08Z</time>
      </trkpt>
      <trkpt lat="45.68337" lon="6.03301">
        <ele>1312.34</ele>
        <time>2012-08-07T09:06:09Z</time>
      </trkpt>
      <trkpt lat="45.68346" lon="6.03305">
        <ele>1312.82</ele>
        <time>2012-08-07T09:06:10Z</time>
      </trkpt>
      <trkpt lat="45.68355" lon="6.03308">
        <ele>1313.3</ele>
        <time>2012-08-07T09:06:11Z</time>
      </trkpt>
      <trkpt lat="45.68367" lon="6.0331">
        <ele>1313.78</ele>
        <time>2012-08-07T09:06:12Z</time>
      </trkpt>
      <trkpt lat="45.68379" lon="6.03312">
        <ele>1314.26</ele>
        <time>2012-08-07T09:06:13Z</time>
      </trkpt>
      <trkpt lat="45.68425" lon="6.03317">
        <ele>1315.7</ele>
        <time>2012-08-07T09:06:17Z</time>
      </trkpt>
      <trkpt lat="45.68434" lon="6.03315">
        <ele>1315.7</ele>
        <time>2012-08-07T09:06:18Z</time>
      </trkpt>
      <trkpt lat="45.68442" lon="6.03309">
        <ele>1316.18</ele>
        <time>2012-08-07T09:06:19Z</time>
      </trkpt>
      <trkpt lat="45.6845" lon="6.03301">
        <ele>1316.18</ele>
        <time>2012-08-07T09:06:20Z</time>
      </trkpt>
      <trkpt lat="45.68455" lon="6.03291">
        <ele>1316.18</ele>
        <time>2012-08-07T09:06:21Z</time>
      </trkpt>
      <trkpt lat="45.6846" lon="6.03278">
        <ele>1317.14</ele>
        <time>2012-08-07T09:06:22Z</time>
      </trkpt>
      <trkpt lat="45.68465" lon="6.03267">
        <ele>1317.14</ele>
        <time>2012-08-07T09:06:23Z</time>
      </trkpt>
      <trkpt lat="45.68487" lon="6.03221">
        <ele>1318.1</ele>
        <time>2012-08-07T09:06:28Z</time>
      </trkpt>
      <trkpt lat="45.6849" lon="6.03211">
        <ele>1319.55</ele>
        <time>2012-08-07T09:06:29Z</time>
      </trkpt>
      <trkpt lat="45.68491" lon="6.032">
        <ele>1320.03</ele>
        <time>2012-08-07T09:06:30Z</time>
      </trkpt>
      <trkpt lat="45.68492" lon="6.03188">
        <ele>1320.51</ele>
        <time>2012-08-07T09:06:31Z</time>
      </trkpt>
      <trkpt lat="45.68494" lon="6.03115">
        <ele>1322.91</ele>
        <time>2012-08-07T09:06:37Z</time>
      </trkpt>
      <trkpt lat="45.68496" lon="6.03104">
        <ele>1323.39</ele>
        <time>2012-08-07T09:06:38Z</time>
      </trkpt>
      <trkpt lat="45.68497" lon="6.03093">
        <ele>1323.87</ele>
        <time>2012-08-07T09:06:39Z</time>
      </trkpt>
      <trkpt lat="45.68497" lon="6.03068">
        <ele>1324.83</ele>
        <time>2012-08-07T09:06:41Z</time>
      </trkpt>
      <trkpt lat="45.68495" lon="6.0301">
        <ele>1326.28</ele>
        <time>2012-08-07T09:06:46Z</time>
      </trkpt>
      <trkpt lat="45.68493" lon="6.03001">
        <ele>1326.28</ele>
        <time>2012-08-07T09:06:47Z</time>
      </trkpt>
      <trkpt lat="45.6849" lon="6.02993">
        <ele>1326.76</ele>
        <time>2012-08-07T09:06:48Z</time>
      </trkpt>
      <trkpt lat="45.68486" lon="6.02986">
        <ele>1327.24</ele>
        <time>2012-08-07T09:06:49Z</time>
      </trkpt>
      <trkpt lat="45.68482" lon="6.02979">
        <ele>1327.72</ele>
        <time>2012-08-07T09:06:50Z</time>
      </trkpt>
      <trkpt lat="45.68476" lon="6.02974">
        <ele>1328.68</ele>
        <time>2012-08-07T09:06:51Z</time>
      </trkpt>
      <trkpt lat="45.6847" lon="6.0297">
        <ele>1329.16</ele>
        <time>2012-08-07T09:06:52Z</time>
      </trkpt>
      <trkpt lat="45.6845" lon="6.02948">
        <ele>1330.12</ele>
        <time>2012-08-07T09:06:56Z</time>
      </trkpt>
      <trkpt lat="45.68448" lon="6.02941">
        <ele>1330.12</ele>
        <time>2012-08-07T09:06:57Z</time>
      </trkpt>
      <trkpt lat="45.68448" lon="6.02933">
        <ele>1331.56</ele>
        <time>2012-08-07T09:06:58Z</time>
      </trkpt>
      <trkpt lat="45.68448" lon="6.02923">
        <ele>1332.04</ele>
        <time>2012-08-07T09:06:59Z</time>
      </trkpt>
      <trkpt lat="45.68448" lon="6.02911">
        <ele>1331.56</ele>
        <time>2012-08-07T09:07:00Z</time>
      </trkpt>
      <trkpt lat="45.68449" lon="6.02901">
        <ele>1331.08</ele>
        <time>2012-08-07T09:07:01Z</time>
      </trkpt>
      <trkpt lat="45.68454" lon="6.02884">
        <ele>1332.52</ele>
        <time>2012-08-07T09:07:03Z</time>
      </trkpt>
      <trkpt lat="45.68458" lon="6.02877">
        <ele>1332.52</ele>
        <time>2012-08-07T09:07:04Z</time>
      </trkpt>
      <trkpt lat="45.68472" lon="6.02858">
        <ele>1333.97</ele>
        <time>2012-08-07T09:07:07Z</time>
      </trkpt>
      <trkpt lat="45.68476" lon="6.02851">
        <ele>1334.93</ele>
        <time>2012-08-07T09:07:08Z</time>
      </trkpt>
      <trkpt lat="45.6848" lon="6.02843">
        <ele>1335.89</ele>
        <time>2012-08-07T09:07:09Z</time>
      </trkpt>
      <trkpt lat="45.68484" lon="6.02834">
        <ele>1335.41</ele>
        <time>2012-08-07T09:07:10Z</time>
      </trkpt>
      <trkpt lat="45.68487" lon="6.02823">
        <ele>1335.89</ele>
        <time>2012-08-07T09:07:11Z</time>
      </trkpt>
      <trkpt lat="45.6849" lon="6.02811">
        <ele>1336.85</ele>
        <time>2012-08-07T09:07:12Z</time>
      </trkpt>
      <trkpt lat="45.68494" lon="6.02798">
        <ele>1336.85</ele>
        <time>2012-08-07T09:07:13Z</time>
      </trkpt>
      <trkpt lat="45.68504" lon="6.02743">
        <ele>1339.25</ele>
        <time>2012-08-07T09:07:17Z</time>
      </trkpt>
      <trkpt lat="45.68505" lon="6.02728">
        <ele>1339.73</ele>
        <time>2012-08-07T09:07:18Z</time>
      </trkpt>
      <trkpt lat="45.68504" lon="6.02698">
        <ele>1340.7</ele>
        <time>2012-08-07T09:07:20Z</time>
      </trkpt>
      <trkpt lat="45.68501" lon="6.02643">
        <ele>1342.62</ele>
        <time>2012-08-07T09:07:24Z</time>
      </trkpt>
      <trkpt lat="45.68499" lon="6.0263">
        <ele>1343.1</ele>
        <time>2012-08-07T09:07:25Z</time>
      </trkpt>
      <trkpt lat="45.68499" lon="6.02616">
        <ele>1343.58</ele>
        <time>2012-08-07T09:07:26Z</time>
      </trkpt>
      <trkpt lat="45.68496" lon="6.02567">
        <ele>1345.5</ele>
        <time>2012-08-07T09:07:30Z</time>
      </trkpt>
      <trkpt lat="45.68494" lon="6.02556">
        <ele>1345.5</ele>
        <time>2012-08-07T09:07:31Z</time>
      </trkpt>
      <trkpt lat="45.68493" lon="6.02546">
        <ele>1345.5</ele>
        <time>2012-08-07T09:07:32Z</time>
      </trkpt>
      <trkpt lat="45.6849" lon="6.02538">
        <ele>1345.98</ele>
        <time>2012-08-07T09:07:33Z</time>
      </trkpt>
      <trkpt lat="45.68486" lon="6.0253">
        <ele>1346.46</ele>
        <time>2012-08-07T09:07:34Z</time>
      </trkpt>
      <trkpt lat="45.68481" lon="6.02522">
        <ele>1346.46</ele>
        <time>2012-08-07T09:07:35Z</time>
      </trkpt>
      <trkpt lat="45.68477" lon="6.02514">
        <ele>1346.94</ele>
        <time>2012-08-07T09:07:36Z</time>
      </trkpt>
      <trkpt lat="45.68472" lon="6.02508">
        <ele>1347.43</ele>
        <time>2012-08-07T09:07:37Z</time>
      </trkpt>
      <trkpt lat="45.68466" lon="6.02503">
        <ele>1347.91</ele>
        <time>2012-08-07T09:07:38Z</time>
      </trkpt>
      <trkpt lat="45.6846" lon="6.02499">
        <ele>1348.39</ele>
        <time>2012-08-07T09:07:39Z</time>
      </trkpt>
      <trkpt lat="45.68453" lon="6.02496">
        <ele>1348.39</ele>
        <time>2012-08-07T09:07:40Z</time>
      </trkpt>
      <trkpt lat="45.68445" lon="6.02493">
        <ele>1349.35</ele>
        <time>2012-08-07T09:07:41Z</time>
      </trkpt>
      <trkpt lat="45.68419" lon="6.02485">
        <ele>1350.79</ele>
        <time>2012-08-07T09:07:44Z</time>
      </trkpt>
      <trkpt lat="45.68401" lon="6.02478">
        <ele>1350.79</ele>
        <time>2012-08-07T09:07:46Z</time>
      </trkpt>
      <trkpt lat="45.68391" lon="6.02472">
        <ele>1351.27</ele>
        <time>2012-08-07T09:07:47Z</time>
      </trkpt>
      <trkpt lat="45.68383" lon="6.02465">
        <ele>1352.23</ele>
        <time>2012-08-07T09:07:48Z</time>
      </trkpt>
      <trkpt lat="45.68333" lon="6.02425">
        <ele>1355.12</ele>
        <time>2012-08-07T09:07:53Z</time>
      </trkpt>
      <trkpt lat="45.68277" lon="6.02395">
        <ele>1356.08</ele>
        <time>2012-08-07T09:07:59Z</time>
      </trkpt>
      <trkpt lat="45.68271" lon="6.02389">
        <ele>1356.56</ele>
        <time>2012-08-07T09:08:00Z</time>
      </trkpt>
      <trkpt lat="45.68264" lon="6.02381">
        <ele>1357.04</ele>
        <time>2012-08-07T09:08:01Z</time>
      </trkpt>
      <trkpt lat="45.68216" lon="6.02289">
        <ele>1356.08</ele>
        <time>2012-08-07T09:08:09Z</time>
      </trkpt>
      <trkpt lat="45.68204" lon="6.02268">
        <ele>1356.08</ele>
        <time>2012-08-07T09:08:11Z</time>
      </trkpt>
      <trkpt lat="45.68141" lon="6.02178">
        <ele>1353.19</ele>
        <time>2012-08-07T09:08:19Z</time>
      </trkpt>
      <trkpt lat="45.68127" lon="6.0216">
        <ele>1352.23</ele>
        <time>2012-08-07T09:08:21Z</time>
      </trkpt>
      <trkpt lat="45.68113" lon="6.02146">
        <ele>1351.75</ele>
        <time>2012-08-07T09:08:23Z</time>
      </trkpt>
      <trkpt lat="45.68106" lon="6.0214">
        <ele>1351.75</ele>
        <time>2012-08-07T09:08:24Z</time>
      </trkpt>
      <trkpt lat="45.68064" lon="6.02115">
        <ele>1348.87</ele>
        <time>2012-08-07T09:08:29Z</time>
      </trkpt>
      <trkpt lat="45.68058" lon="6.02109">
        <ele>1349.35</ele>
        <time>2012-08-07T09:08:30Z</time>
      </trkpt>
      <trkpt lat="45.68052" lon="6.02102">
        <ele>1348.87</ele>
        <time>2012-08-07T09:08:31Z</time>
      </trkpt>
      <trkpt lat="45.68047" lon="6.02093">
        <ele>1348.39</ele>
        <time>2012-08-07T09:08:32Z</time>
      </trkpt>
      <trkpt lat="45.68042" lon="6.02083">
        <ele>1347.43</ele>
        <time>2012-08-07T09:08:33Z</time>
      </trkpt>
      <trkpt lat="45.68039" lon="6.02071">
        <ele>1347.43</ele>
        <time>2012-08-07T09:08:34Z</time>
      </trkpt>
      <trkpt lat="45.68037" lon="6.02059">
        <ele>1347.43</ele>
        <time>2012-08-07T09:08:35Z</time>
      </trkpt>
      <trkpt lat="45.68035" lon="6.02047">
        <ele>1346.94</ele>
        <time>2012-08-07T09:08:36Z</time>
      </trkpt>
      <trkpt lat="45.6803" lon="6.02012">
        <ele>1345.5</ele>
        <time>2012-08-07T09:08:39Z</time>
      </trkpt>
      <trkpt lat="45.68029" lon="6.01999">
        <ele>1345.02</ele>
        <time>2012-08-07T09:08:40Z</time>
      </trkpt>
      <trkpt lat="45.6803" lon="6.01985">
        <ele>1345.02</ele>
        <time>2012-08-07T09:08:41Z</time>
      </trkpt>
      <trkpt lat="45.6803" lon="6.01958">
        <ele>1344.06</ele>
        <time>2012-08-07T09:08:43Z</time>
      </trkpt>
      <trkpt lat="45.68029" lon="6.01945">
        <ele>1343.58</ele>
        <time>2012-08-07T09:08:44Z</time>
      </trkpt>
      <trkpt lat="45.68018" lon="6.01886">
        <ele>1342.14</ele>
        <time>2012-08-07T09:08:49Z</time>
      </trkpt>
      <trkpt lat="45.68017" lon="6.01877">
        <ele>1342.14</ele>
        <time>2012-08-07T09:08:50Z</time>
      </trkpt>
      <trkpt lat="45.68018" lon="6.01868">
        <ele>1341.66</ele>
        <time>2012-08-07T09:08:51Z</time>
      </trkpt>
      <trkpt lat="45.6802" lon="6.0186">
        <ele>1341.66</ele>
        <time>2012-08-07T09:08:52Z</time>
      </trkpt>
      <trkpt lat="45.68024" lon="6.01852">
        <ele>1341.66</ele>
        <time>2012-08-07T09:08:53Z</time>
      </trkpt>
      <trkpt lat="45.68028" lon="6.01843">
        <ele>1342.14</ele>
        <time>2012-08-07T09:08:54Z</time>
      </trkpt>
      <trkpt lat="45.68033" lon="6.01834">
        <ele>1343.1</ele>
        <time>2012-08-07T09:08:55Z</time>
      </trkpt>
      <trkpt lat="45.68038" lon="6.01825">
        <ele>1342.62</ele>
        <time>2012-08-07T09:08:56Z</time>
      </trkpt>
      <trkpt lat="45.68041" lon="6.01816">
        <ele>1343.1</ele>
        <time>2012-08-07T09:08:57Z</time>
      </trkpt>
      <trkpt lat="45.68044" lon="6.01805">
        <ele>1343.1</ele>
        <time>2012-08-07T09:08:58Z</time>
      </trkpt>
      <trkpt lat="45.68046" lon="6.01793">
        <ele>1343.1</ele>
        <time>2012-08-07T09:08:59Z</time>
      </trkpt>
      <trkpt lat="45.68048" lon="6.0178">
        <ele>1342.62</ele>
        <time>2012-08-07T09:09:00Z</time>
      </trkpt>
      <trkpt lat="45.68057" lon="6.01696">
        <ele>1342.62</ele>
        <time>2012-08-07T09:09:07Z</time>
      </trkpt>
      <trkpt lat="45.68061" lon="6.01682">
        <ele>1343.1</ele>
        <time>2012-08-07T09:09:08Z</time>
      </trkpt>
      <trkpt lat="45.68064" lon="6.01669">
        <ele>1343.1</ele>
        <time>2012-08-07T09:09:09Z</time>
      </trkpt>
      <trkpt lat="45.68082" lon="6.01582">
        <ele>1343.1</ele>
        <time>2012-08-07T09:09:15Z</time>
      </trkpt>
      <trkpt lat="45.68085" lon="6.01566">
        <ele>1343.58</ele>
        <time>2012-08-07T09:09:16Z</time>
      </trkpt>
      <trkpt lat="45.68086" lon="6.01552">
        <ele>1343.1</ele>
        <time>2012-08-07T09:09:17Z</time>
      </trkpt>
      <trkpt lat="45.68086" lon="6.01537">
        <ele>1343.58</ele>
        <time>2012-08-07T09:09:18Z</time>
      </trkpt>
      <trkpt lat="45.68086" lon="6.01524">
        <ele>1343.1</ele>
        <time>2012-08-07T09:09:19Z</time>
      </trkpt>
      <trkpt lat="45.68087" lon="6.01511">
        <ele>1342.62</ele>
        <time>2012-08-07T09:09:20Z</time>
      </trkpt>
      <trkpt lat="45.68089" lon="6.01477">
        <ele>1342.14</ele>
        <time>2012-08-07T09:09:23Z</time>
      </trkpt>
      <trkpt lat="45.68089" lon="6.01465">
        <ele>1343.1</ele>
        <time>2012-08-07T09:09:24Z</time>
      </trkpt>
      <trkpt lat="45.6809" lon="6.01437">
        <ele>1343.1</ele>
        <time>2012-08-07T09:09:26Z</time>
      </trkpt>
      <trkpt lat="45.68073" lon="6.01306">
        <ele>1340.22</ele>
        <time>2012-08-07T09:09:35Z</time>
      </trkpt>
      <trkpt lat="45.68075" lon="6.01259">
        <ele>1338.29</ele>
        <time>2012-08-07T09:09:39Z</time>
      </trkpt>
      <trkpt lat="45.68076" lon="6.01238">
        <ele>1338.29</ele>
        <time>2012-08-07T09:09:42Z</time>
      </trkpt>
      <trkpt lat="45.68076" lon="6.01231">
        <ele>1338.29</ele>
        <time>2012-08-07T09:09:43Z</time>
      </trkpt>
      <trkpt lat="45.68077" lon="6.01179">
        <ele>1339.25</ele>
        <time>2012-08-07T09:09:48Z</time>
      </trkpt>
      <trkpt lat="45.68075" lon="6.0117">
        <ele>1339.25</ele>
        <time>2012-08-07T09:09:49Z</time>
      </trkpt>
      <trkpt lat="45.6807" lon="6.01161">
        <ele>1339.73</ele>
        <time>2012-08-07T09:09:50Z</time>
      </trkpt>
      <trkpt lat="45.68065" lon="6.01151">
        <ele>1339.73</ele>
        <time>2012-08-07T09:09:51Z</time>
      </trkpt>
      <trkpt lat="45.68059" lon="6.01142">
        <ele>1339.25</ele>
        <time>2012-08-07T09:09:52Z</time>
      </trkpt>
      <trkpt lat="45.68053" lon="6.01134">
        <ele>1339.25</ele>
        <time>2012-08-07T09:09:53Z</time>
      </trkpt>
      <trkpt lat="45.68048" lon="6.01127">
        <ele>1338.77</ele>
        <time>2012-08-07T09:09:54Z</time>
      </trkpt>
      <trkpt lat="45.68044" lon="6.01122">
        <ele>1338.77</ele>
        <time>2012-08-07T09:09:55Z</time>
      </trkpt>
      <trkpt lat="45.6804" lon="6.01119">
        <ele>1338.77</ele>
        <time>2012-08-07T09:09:56Z</time>
      </trkpt>
      <trkpt lat="45.68036" lon="6.01114">
        <ele>1338.77</ele>
        <time>2012-08-07T09:09:57Z</time>
      </trkpt>
      <trkpt lat="45.68033" lon="6.01109">
        <ele>1338.29</ele>
        <time>2012-08-07T09:09:58Z</time>
      </trkpt>
      <trkpt lat="45.6803" lon="6.01105">
        <ele>1338.29</ele>
        <time>2012-08-07T09:09:59Z</time>
      </trkpt>
      <trkpt lat="45.68025" lon="6.011">
        <ele>1338.77</ele>
        <time>2012-08-07T09:10:00Z</time>
      </trkpt>
      <trkpt lat="45.68011" lon="6.01084">
        <ele>1338.77</ele>
        <time>2012-08-07T09:10:03Z</time>
      </trkpt>
      <trkpt lat="45.68005" lon="6.0108">
        <ele>1339.25</ele>
        <time>2012-08-07T09:10:04Z</time>
      </trkpt>
      <trkpt lat="45.67998" lon="6.01076">
        <ele>1339.73</ele>
        <time>2012-08-07T09:10:05Z</time>
      </trkpt>
      <trkpt lat="45.67963" lon="6.0106">
        <ele>1340.22</ele>
        <time>2012-08-07T09:10:10Z</time>
      </trkpt>
      <trkpt lat="45.67957" lon="6.01056">
        <ele>1340.22</ele>
        <time>2012-08-07T09:10:11Z</time>
      </trkpt>
      <trkpt lat="45.67952" lon="6.01051">
        <ele>1340.7</ele>
        <time>2012-08-07T09:10:12Z</time>
      </trkpt>
      <trkpt lat="45.67948" lon="6.01045">
        <ele>1340.22</ele>
        <time>2012-08-07T09:10:13Z</time>
      </trkpt>
      <trkpt lat="45.67945" lon="6.01039">
        <ele>1340.7</ele>
        <time>2012-08-07T09:10:14Z</time>
      </trkpt>
      <trkpt lat="45.67943" lon="6.01032">
        <ele>1340.22</ele>
        <time>2012-08-07T09:10:15Z</time>
      </trkpt>
      <trkpt lat="45.67941" lon="6.01026">
        <ele>1339.73</ele>
        <time>2012-08-07T09:10:16Z</time>
      </trkpt>
      <trkpt lat="45.67941" lon="6.0102">
        <ele>1340.22</ele>
        <time>2012-08-07T09:10:17Z</time>
      </trkpt>
      <trkpt lat="45.6794" lon="6.01014">
        <ele>1339.73</ele>
        <time>2012-08-07T09:10:18Z</time>
      </trkpt>
      <trkpt lat="45.6794" lon="6.01009">
        <ele>1339.73</ele>
        <time>2012-08-07T09:10:19Z</time>
      </trkpt>
      <trkpt lat="45.67941" lon="6.01004">
        <ele>1339.73</ele>
        <time>2012-08-07T09:10:20Z</time>
      </trkpt>
      <trkpt lat="45.67943" lon="6.00998">
        <ele>1340.22</ele>
        <time>2012-08-07T09:10:21Z</time>
      </trkpt>
      <trkpt lat="45.67946" lon="6.00991">
        <ele>1340.22</ele>
        <time>2012-08-07T09:10:22Z</time>
      </trkpt>
      <trkpt lat="45.67948" lon="6.00981">
        <ele>1340.7</ele>
        <time>2012-08-07T09:10:23Z</time>
      </trkpt>
      <trkpt lat="45.67975" lon="6.00891">
        <ele>1340.7</ele>
        <time>2012-08-07T09:10:30Z</time>
      </trkpt>
      <trkpt lat="45.67986" lon="6.00868">
        <ele>1339.73</ele>
        <time>2012-08-07T09:10:32Z</time>
      </trkpt>
      <trkpt lat="45.67993" lon="6.00856">
        <ele>1339.73</ele>
        <time>2012-08-07T09:10:33Z</time>
      </trkpt>
      <trkpt lat="45.68002" lon="6.00844">
        <ele>1338.77</ele>
        <time>2012-08-07T09:10:34Z</time>
      </trkpt>
      <trkpt lat="45.6803" lon="6.00806">
        <ele>1335.89</ele>
        <time>2012-08-07T09:10:38Z</time>
      </trkpt>
      <trkpt lat="45.68034" lon="6.00798">
        <ele>1335.41</ele>
        <time>2012-08-07T09:10:39Z</time>
      </trkpt>
      <trkpt lat="45.68037" lon="6.00788">
        <ele>1335.89</ele>
        <time>2012-08-07T09:10:40Z</time>
      </trkpt>
      <trkpt lat="45.68039" lon="6.00776">
        <ele>1334.45</ele>
        <time>2012-08-07T09:10:41Z</time>
      </trkpt>
      <trkpt lat="45.68039" lon="6.00766">
        <ele>1334.45</ele>
        <time>2012-08-07T09:10:42Z</time>
      </trkpt>
      <trkpt lat="45.68037" lon="6.00739">
        <ele>1333.97</ele>
        <time>2012-08-07T09:10:45Z</time>
      </trkpt>
      <trkpt lat="45.68038" lon="6.00729">
        <ele>1333.97</ele>
        <time>2012-08-07T09:10:46Z</time>
      </trkpt>
      <trkpt lat="45.6804" lon="6.00718">
        <ele>1334.45</ele>
        <time>2012-08-07T09:10:47Z</time>
      </trkpt>
      <trkpt lat="45.68044" lon="6.00707">
        <ele>1334.45</ele>
        <time>2012-08-07T09:10:48Z</time>
      </trkpt>
      <trkpt lat="45.68048" lon="6.00696">
        <ele>1334.93</ele>
        <time>2012-08-07T09:10:49Z</time>
      </trkpt>
      <trkpt lat="45.68051" lon="6.00686">
        <ele>1334.45</ele>
        <time>2012-08-07T09:10:50Z</time>
      </trkpt>
      <trkpt lat="45.68054" lon="6.00676">
        <ele>1333.49</ele>
        <time>2012-08-07T09:10:51Z</time>
      </trkpt>
      <trkpt lat="45.68055" lon="6.00667">
        <ele>1333.49</ele>
        <time>2012-08-07T09:10:52Z</time>
      </trkpt>
      <trkpt lat="45.68056" lon="6.00659">
        <ele>1333.01</ele>
        <time>2012-08-07T09:10:53Z</time>
      </trkpt>
      <trkpt lat="45.68056" lon="6.00652">
        <ele>1332.52</ele>
        <time>2012-08-07T09:10:54Z</time>
      </trkpt>
      <trkpt lat="45.68056" lon="6.00646">
        <ele>1332.52</ele>
        <time>2012-08-07T09:10:55Z</time>
      </trkpt>
      <trkpt lat="45.68055" lon="6.00641">
        <ele>1332.04</ele>
        <time>2012-08-07T09:10:56Z</time>
      </trkpt>
      <trkpt lat="45.68054" lon="6.00637">
        <ele>1332.04</ele>
        <time>2012-08-07T09:10:57Z</time>
      </trkpt>
      <trkpt lat="45.68048" lon="6.00619">
        <ele>1331.56</ele>
        <time>2012-08-07T09:11:02Z</time>
      </trkpt>
      <trkpt lat="45.68047" lon="6.00615">
        <ele>1331.56</ele>
        <time>2012-08-07T09:11:03Z</time>
      </trkpt>
      <trkpt lat="45.68046" lon="6.00612">
        <ele>1331.56</ele>
        <time>2012-08-07T09:11:04Z</time>
      </trkpt>
      <trkpt lat="45.68043" lon="6.00608">
        <ele>1331.56</ele>
        <time>2012-08-07T09:11:05Z</time>
      </trkpt>
      <trkpt lat="45.68041" lon="6.00603">
        <ele>1332.04</ele>
        <time>2012-08-07T09:11:06Z</time>
      </trkpt>
      <trkpt lat="45.68032" lon="6.00585">
        <ele>1331.08</ele>
        <time>2012-08-07T09:11:13Z</time>
      </trkpt>
      <trkpt lat="45.68032" lon="6.00582">
        <ele>1331.56</ele>
        <time>2012-08-07T09:11:14Z</time>
      </trkpt>
      <trkpt lat="45.68031" lon="6.00578">
        <ele>1331.08</ele>
        <time>2012-08-07T09:11:15Z</time>
      </trkpt>
      <trkpt lat="45.68028" lon="6.00561">
        <ele>1331.56</ele>
        <time>2012-08-07T09:11:19Z</time>
      </trkpt>
      <trkpt lat="45.68027" lon="6.00555">
        <ele>1332.04</ele>
        <time>2012-08-07T09:11:20Z</time>
      </trkpt>
      <trkpt lat="45.68027" lon="6.00541">
        <ele>1332.52</ele>
        <time>2012-08-07T09:11:22Z</time>
      </trkpt>
      <trkpt lat="45.68028" lon="6.00508">
        <ele>1334.45</ele>
        <time>2012-08-07T09:11:27Z</time>
      </trkpt>
      <trkpt lat="45.6803" lon="6.00493">
        <ele>1334.93</ele>
        <time>2012-08-07T09:11:29Z</time>
      </trkpt>
      <trkpt lat="45.68029" lon="6.00486">
        <ele>1335.41</ele>
        <time>2012-08-07T09:11:30Z</time>
      </trkpt>
      <trkpt lat="45.68028" lon="6.00479">
        <ele>1335.89</ele>
        <time>2012-08-07T09:11:31Z</time>
      </trkpt>
      <trkpt lat="45.68026" lon="6.00473">
        <ele>1335.41</ele>
        <time>2012-08-07T09:11:32Z</time>
      </trkpt>
      <trkpt lat="45.68024" lon="6.00467">
        <ele>1335.89</ele>
        <time>2012-08-07T09:11:33Z</time>
      </trkpt>
      <trkpt lat="45.68021" lon="6.00453">
        <ele>1336.85</ele>
        <time>2012-08-07T09:11:35Z</time>
      </trkpt>
      <trkpt lat="45.68019" lon="6.00424">
        <ele>1337.33</ele>
        <time>2012-08-07T09:11:39Z</time>
      </trkpt>
      <trkpt lat="45.6802" lon="6.00405">
        <ele>1338.29</ele>
        <time>2012-08-07T09:11:42Z</time>
      </trkpt>
      <trkpt lat="45.6803" lon="6.00369">
        <ele>1338.29</ele>
        <time>2012-08-07T09:11:47Z</time>
      </trkpt>
      <trkpt lat="45.68032" lon="6.00362">
        <ele>1339.25</ele>
        <time>2012-08-07T09:11:48Z</time>
      </trkpt>
      <trkpt lat="45.68034" lon="6.00354">
        <ele>1339.25</ele>
        <time>2012-08-07T09:11:49Z</time>
      </trkpt>
      <trkpt lat="45.68037" lon="6.0034">
        <ele>1339.25</ele>
        <time>2012-08-07T09:11:51Z</time>
      </trkpt>
      <trkpt lat="45.68037" lon="6.00333">
        <ele>1339.73</ele>
        <time>2012-08-07T09:11:52Z</time>
      </trkpt>
      <trkpt lat="45.68037" lon="6.0032">
        <ele>1340.22</ele>
        <time>2012-08-07T09:11:54Z</time>
      </trkpt>
      <trkpt lat="45.68036" lon="6.00286">
        <ele>1339.73</ele>
        <time>2012-08-07T09:11:59Z</time>
      </trkpt>
      <trkpt lat="45.68037" lon="6.0028">
        <ele>1339.73</ele>
        <time>2012-08-07T09:12:00Z</time>
      </trkpt>
      <trkpt lat="45.68038" lon="6.00276">
        <ele>1339.73</ele>
        <time>2012-08-07T09:12:01Z</time>
      </trkpt>
      <trkpt lat="45.68039" lon="6.00272">
        <ele>1339.73</ele>
        <time>2012-08-07T09:12:02Z</time>
      </trkpt>
      <trkpt lat="45.68039" lon="6.00267">
        <ele>1339.73</ele>
        <time>2012-08-07T09:12:03Z</time>
      </trkpt>
      <trkpt lat="45.68041" lon="6.00263">
        <ele>1339.73</ele>
        <time>2012-08-07T09:12:04Z</time>
      </trkpt>
      <trkpt lat="45.68042" lon="6.00259">
        <ele>1339.25</ele>
        <time>2012-08-07T09:12:05Z</time>
      </trkpt>
      <trkpt lat="45.68053" lon="6.00236">
        <ele>1339.73</ele>
        <time>2012-08-07T09:12:13Z</time>
      </trkpt>
      <trkpt lat="45.68056" lon="6.00231">
        <ele>1339.25</ele>
        <time>2012-08-07T09:12:14Z</time>
      </trkpt>
      <trkpt lat="45.68059" lon="6.00226">
        <ele>1339.25</ele>
        <time>2012-08-07T09:12:15Z</time>
      </trkpt>
      <trkpt lat="45.68083" lon="6.00205">
        <ele>1338.29</ele>
        <time>2012-08-07T09:12:23Z</time>
      </trkpt>
      <trkpt lat="45.68088" lon="6.00203">
        <ele>1338.29</ele>
        <time>2012-08-07T09:12:24Z</time>
      </trkpt>
      <trkpt lat="45.68093" lon="6.00202">
        <ele>1338.29</ele>
        <time>2012-08-07T09:12:25Z</time>
      </trkpt>
      <trkpt lat="45.68098" lon="6.00201">
        <ele>1337.81</ele>
        <time>2012-08-07T09:12:26Z</time>
      </trkpt>
      <trkpt lat="45.68104" lon="6.002">
        <ele>1338.29</ele>
        <time>2012-08-07T09:12:27Z</time>
      </trkpt>
      <trkpt lat="45.68113" lon="6.00199">
        <ele>1338.29</ele>
        <time>2012-08-07T09:12:29Z</time>
      </trkpt>
      <trkpt lat="45.68117" lon="6.00199">
        <ele>1337.81</ele>
        <time>2012-08-07T09:12:30Z</time>
      </trkpt>
      <trkpt lat="45.68122" lon="6.00199">
        <ele>1337.81</ele>
        <time>2012-08-07T09:12:31Z</time>
      </trkpt>
      <trkpt lat="45.68128" lon="6.00198">
        <ele>1337.81</ele>
        <time>2012-08-07T09:12:32Z</time>
      </trkpt>
      <trkpt lat="45.68134" lon="6.00196">
        <ele>1338.29</ele>
        <time>2012-08-07T09:12:33Z</time>
      </trkpt>
      <trkpt lat="45.6814" lon="6.00195">
        <ele>1338.29</ele>
        <time>2012-08-07T09:12:34Z</time>
      </trkpt>
      <trkpt lat="45.68145" lon="6.00192">
        <ele>1338.77</ele>
        <time>2012-08-07T09:12:35Z</time>
      </trkpt>
      <trkpt lat="45.6815" lon="6.00189">
        <ele>1338.77</ele>
        <time>2012-08-07T09:12:36Z</time>
      </trkpt>
      <trkpt lat="45.68154" lon="6.00184">
        <ele>1339.73</ele>
        <time>2012-08-07T09:12:37Z</time>
      </trkpt>
      <trkpt lat="45.68158" lon="6.00178">
        <ele>1339.25</ele>
        <time>2012-08-07T09:12:38Z</time>
      </trkpt>
      <trkpt lat="45.68161" lon="6.00171">
        <ele>1339.25</ele>
        <time>2012-08-07T09:12:39Z</time>
      </trkpt>
      <trkpt lat="45.68164" lon="6.00163">
        <ele>1340.22</ele>
        <time>2012-08-07T09:12:40Z</time>
      </trkpt>
      <trkpt lat="45.68167" lon="6.00153">
        <ele>1340.22</ele>
        <time>2012-08-07T09:12:41Z</time>
      </trkpt>
      <trkpt lat="45.6817" lon="6.00144">
        <ele>1341.18</ele>
        <time>2012-08-07T09:12:42Z</time>
      </trkpt>
      <trkpt lat="45.68174" lon="6.00135">
        <ele>1341.18</ele>
        <time>2012-08-07T09:12:43Z</time>
      </trkpt>
      <trkpt lat="45.6818" lon="6.00117">
        <ele>1341.66</ele>
        <time>2012-08-07T09:12:45Z</time>
      </trkpt>
      <trkpt lat="45.68198" lon="6.00083">
        <ele>1343.58</ele>
        <time>2012-08-07T09:12:49Z</time>
      </trkpt>
      <trkpt lat="45.68215" lon="6.00052">
        <ele>1346.46</ele>
        <time>2012-08-07T09:12:53Z</time>
      </trkpt>
      <trkpt lat="45.68226" lon="6.00037">
        <ele>1347.43</ele>
        <time>2012-08-07T09:12:59Z</time>
      </trkpt>
      <trkpt lat="45.68232" lon="6.00033">
        <ele>1347.43</ele>
        <time>2012-08-07T09:13:11Z</time>
      </trkpt>
      <trkpt lat="45.68238" lon="6.00031">
        <ele>1348.39</ele>
        <time>2012-08-07T09:13:12Z</time>
      </trkpt>
      <trkpt lat="45.68259" lon="6.00024">
        <ele>1348.39</ele>
        <time>2012-08-07T09:13:14Z</time>
      </trkpt>
      <trkpt lat="45.68271" lon="6.00015">
        <ele>1348.87</ele>
        <time>2012-08-07T09:13:15Z</time>
      </trkpt>
      <trkpt lat="45.68282" lon="6.00004">
        <ele>1348.39</ele>
        <time>2012-08-07T09:13:16Z</time>
      </trkpt>
      <trkpt lat="45.68292" lon="5.99993">
        <ele>1345.98</ele>
        <time>2012-08-07T09:13:17Z</time>
      </trkpt>
      <trkpt lat="45.68301" lon="5.99981">
        <ele>1343.58</ele>
        <time>2012-08-07T09:13:18Z</time>
      </trkpt>
      <trkpt lat="45.68308" lon="5.9997">
        <ele>1343.1</ele>
        <time>2012-08-07T09:13:19Z</time>
      </trkpt>
      <trkpt lat="45.68314" lon="5.99957">
        <ele>1342.62</ele>
        <time>2012-08-07T09:13:20Z</time>
      </trkpt>
      <trkpt lat="45.68317" lon="5.99942">
        <ele>1341.66</ele>
        <time>2012-08-07T09:13:21Z</time>
      </trkpt>
      <trkpt lat="45.6832" lon="5.99925">
        <ele>1340.7</ele>
        <time>2012-08-07T09:13:22Z</time>
      </trkpt>
      <trkpt lat="45.6832" lon="5.99908">
        <ele>1339.73</ele>
        <time>2012-08-07T09:13:23Z</time>
      </trkpt>
      <trkpt lat="45.68319" lon="5.9989">
        <ele>1339.25</ele>
        <time>2012-08-07T09:13:24Z</time>
      </trkpt>
      <trkpt lat="45.68316" lon="5.99873">
        <ele>1338.29</ele>
        <time>2012-08-07T09:13:25Z</time>
      </trkpt>
      <trkpt lat="45.68312" lon="5.99853">
        <ele>1337.33</ele>
        <time>2012-08-07T09:13:26Z</time>
      </trkpt>
      <trkpt lat="45.68303" lon="5.99767">
        <ele>1333.49</ele>
        <time>2012-08-07T09:13:30Z</time>
      </trkpt>
      <trkpt lat="45.68301" lon="5.99704">
        <ele>1330.6</ele>
        <time>2012-08-07T09:13:33Z</time>
      </trkpt>
      <trkpt lat="45.68301" lon="5.99664">
        <ele>1326.76</ele>
        <time>2012-08-07T09:13:35Z</time>
      </trkpt>
      <trkpt lat="45.68303" lon="5.99639">
        <ele>1325.31</ele>
        <time>2012-08-07T09:13:36Z</time>
      </trkpt>
      <trkpt lat="45.68304" lon="5.99628">
        <ele>1324.35</ele>
        <time>2012-08-07T09:13:37Z</time>
      </trkpt>
      <trkpt lat="45.68308" lon="5.99613">
        <ele>1322.91</ele>
        <time>2012-08-07T09:13:38Z</time>
      </trkpt>
      <trkpt lat="45.68313" lon="5.99601">
        <ele>1321.47</ele>
        <time>2012-08-07T09:13:39Z</time>
      </trkpt>
      <trkpt lat="45.68321" lon="5.99591">
        <ele>1320.99</ele>
        <time>2012-08-07T09:13:40Z</time>
      </trkpt>
      <trkpt lat="45.68331" lon="5.99586">
        <ele>1320.51</ele>
        <time>2012-08-07T09:13:41Z</time>
      </trkpt>
      <trkpt lat="45.68342" lon="5.99588">
        <ele>1320.51</ele>
        <time>2012-08-07T09:13:42Z</time>
      </trkpt>
      <trkpt lat="45.68353" lon="5.99595">
        <ele>1320.51</ele>
        <time>2012-08-07T09:13:43Z</time>
      </trkpt>
      <trkpt lat="45.68364" lon="5.99606">
        <ele>1320.51</ele>
        <time>2012-08-07T09:13:44Z</time>
      </trkpt>
      <trkpt lat="45.68374" lon="5.99619">
        <ele>1319.07</ele>
        <time>2012-08-07T09:13:45Z</time>
      </trkpt>
      <trkpt lat="45.68385" lon="5.99632">
        <ele>1318.59</ele>
        <time>2012-08-07T09:13:46Z</time>
      </trkpt>
      <trkpt lat="45.68396" lon="5.99644">
        <ele>1317.62</ele>
        <time>2012-08-07T09:13:47Z</time>
      </trkpt>
      <trkpt lat="45.68408" lon="5.99656">
        <ele>1316.66</ele>
        <time>2012-08-07T09:13:48Z</time>
      </trkpt>
      <trkpt lat="45.68421" lon="5.99666">
        <ele>1316.18</ele>
        <time>2012-08-07T09:13:49Z</time>
      </trkpt>
      <trkpt lat="45.68489" lon="5.99714">
        <ele>1315.7</ele>
        <time>2012-08-07T09:13:53Z</time>
      </trkpt>
      <trkpt lat="45.68541" lon="5.99754">
        <ele>1312.82</ele>
        <time>2012-08-07T09:13:56Z</time>
      </trkpt>
      <trkpt lat="45.68571" lon="5.99787">
        <ele>1309.45</ele>
        <time>2012-08-07T09:13:58Z</time>
      </trkpt>
      <trkpt lat="45.68617" lon="5.99839">
        <ele>1304.65</ele>
        <time>2012-08-07T09:14:01Z</time>
      </trkpt>
      <trkpt lat="45.68656" lon="5.99897">
        <ele>1299.84</ele>
        <time>2012-08-07T09:14:04Z</time>
      </trkpt>
      <trkpt lat="45.68671" lon="5.99914">
        <ele>1298.88</ele>
        <time>2012-08-07T09:14:05Z</time>
      </trkpt>
      <trkpt lat="45.68721" lon="5.99957">
        <ele>1295.03</ele>
        <time>2012-08-07T09:14:08Z</time>
      </trkpt>
      <trkpt lat="45.68756" lon="5.99979">
        <ele>1291.19</ele>
        <time>2012-08-07T09:14:10Z</time>
      </trkpt>
      <trkpt lat="45.68774" lon="5.99987">
        <ele>1290.23</ele>
        <time>2012-08-07T09:14:11Z</time>
      </trkpt>
      <trkpt lat="45.6881" lon="5.99999">
        <ele>1285.42</ele>
        <time>2012-08-07T09:14:13Z</time>
      </trkpt>
      <trkpt lat="45.68827" lon="6.00006">
        <ele>1283.98</ele>
        <time>2012-08-07T09:14:14Z</time>
      </trkpt>
      <trkpt lat="45.68843" lon="6.00016">
        <ele>1282.54</ele>
        <time>2012-08-07T09:14:15Z</time>
      </trkpt>
      <trkpt lat="45.68859" lon="6.00029">
        <ele>1281.57</ele>
        <time>2012-08-07T09:14:16Z</time>
      </trkpt>
      <trkpt lat="45.68927" lon="6.00091">
        <ele>1276.77</ele>
        <time>2012-08-07T09:14:20Z</time>
      </trkpt>
      <trkpt lat="45.6896" lon="6.00122">
        <ele>1272.92</ele>
        <time>2012-08-07T09:14:22Z</time>
      </trkpt>
      <trkpt lat="45.68991" lon="6.00157">
        <ele>1270.04</ele>
        <time>2012-08-07T09:14:24Z</time>
      </trkpt>
      <trkpt lat="45.69016" lon="6.00194">
        <ele>1266.19</ele>
        <time>2012-08-07T09:14:26Z</time>
      </trkpt>
      <trkpt lat="45.69038" lon="6.00226">
        <ele>1262.35</ele>
        <time>2012-08-07T09:14:28Z</time>
      </trkpt>
      <trkpt lat="45.69061" lon="6.00253">
        <ele>1259.94</ele>
        <time>2012-08-07T09:14:30Z</time>
      </trkpt>
      <trkpt lat="45.69072" lon="6.00262">
        <ele>1257.54</ele>
        <time>2012-08-07T09:14:31Z</time>
      </trkpt>
      <trkpt lat="45.69084" lon="6.00269">
        <ele>1257.06</ele>
        <time>2012-08-07T09:14:32Z</time>
      </trkpt>
      <trkpt lat="45.69097" lon="6.00274">
        <ele>1256.58</ele>
        <time>2012-08-07T09:14:33Z</time>
      </trkpt>
      <trkpt lat="45.69111" lon="6.00275">
        <ele>1255.62</ele>
        <time>2012-08-07T09:14:34Z</time>
      </trkpt>
      <trkpt lat="45.69125" lon="6.00274">
        <ele>1254.66</ele>
        <time>2012-08-07T09:14:35Z</time>
      </trkpt>
      <trkpt lat="45.6914" lon="6.0027">
        <ele>1254.18</ele>
        <time>2012-08-07T09:14:36Z</time>
      </trkpt>
      <trkpt lat="45.69156" lon="6.00264">
        <ele>1253.7</ele>
        <time>2012-08-07T09:14:37Z</time>
      </trkpt>
      <trkpt lat="45.69199" lon="6.00239">
        <ele>1249.85</ele>
        <time>2012-08-07T09:14:40Z</time>
      </trkpt>
      <trkpt lat="45.69218" lon="6.00221">
        <ele>1245.04</ele>
        <time>2012-08-07T09:14:42Z</time>
      </trkpt>
      <trkpt lat="45.69225" lon="6.00214">
        <ele>1244.56</ele>
        <time>2012-08-07T09:14:43Z</time>
      </trkpt>
      <trkpt lat="45.69233" lon="6.00209">
        <ele>1244.08</ele>
        <time>2012-08-07T09:14:44Z</time>
      </trkpt>
      <trkpt lat="45.69242" lon="6.00207">
        <ele>1243.12</ele>
        <time>2012-08-07T09:14:45Z</time>
      </trkpt>
      <trkpt lat="45.6925" lon="6.00212">
        <ele>1242.64</ele>
        <time>2012-08-07T09:14:46Z</time>
      </trkpt>
      <trkpt lat="45.69257" lon="6.00221">
        <ele>1242.16</ele>
        <time>2012-08-07T09:14:47Z</time>
      </trkpt>
      <trkpt lat="45.69263" lon="6.00234">
        <ele>1243.12</ele>
        <time>2012-08-07T09:14:48Z</time>
      </trkpt>
      <trkpt lat="45.69268" lon="6.00251">
        <ele>1243.6</ele>
        <time>2012-08-07T09:14:49Z</time>
      </trkpt>
      <trkpt lat="45.69273" lon="6.00268">
        <ele>1243.6</ele>
        <time>2012-08-07T09:14:50Z</time>
      </trkpt>
      <trkpt lat="45.69281" lon="6.00286">
        <ele>1242.16</ele>
        <time>2012-08-07T09:14:51Z</time>
      </trkpt>
      <trkpt lat="45.69289" lon="6.00302">
        <ele>1243.12</ele>
        <time>2012-08-07T09:14:52Z</time>
      </trkpt>
      <trkpt lat="45.69298" lon="6.00319">
        <ele>1241.68</ele>
        <time>2012-08-07T09:14:53Z</time>
      </trkpt>
      <trkpt lat="45.69316" lon="6.00349">
        <ele>1239.76</ele>
        <time>2012-08-07T09:14:55Z</time>
      </trkpt>
      <trkpt lat="45.69333" lon="6.00377">
        <ele>1235.43</ele>
        <time>2012-08-07T09:14:57Z</time>
      </trkpt>
      <trkpt lat="45.69341" lon="6.0039">
        <ele>1235.43</ele>
        <time>2012-08-07T09:14:58Z</time>
      </trkpt>
      <trkpt lat="45.69387" lon="6.00487">
        <ele>1231.11</ele>
        <time>2012-08-07T09:15:04Z</time>
      </trkpt>
      <trkpt lat="45.69407" lon="6.00571">
        <ele>1227.74</ele>
        <time>2012-08-07T09:15:08Z</time>
      </trkpt>
      <trkpt lat="45.6942" lon="6.00635">
        <ele>1224.38</ele>
        <time>2012-08-07T09:15:11Z</time>
      </trkpt>
      <trkpt lat="45.69439" lon="6.00718">
        <ele>1220.05</ele>
        <time>2012-08-07T09:15:15Z</time>
      </trkpt>
      <trkpt lat="45.69452" lon="6.00781">
        <ele>1215.72</ele>
        <time>2012-08-07T09:15:18Z</time>
      </trkpt>
      <trkpt lat="45.69465" lon="6.00844">
        <ele>1212.36</ele>
        <time>2012-08-07T09:15:21Z</time>
      </trkpt>
      <trkpt lat="45.69474" lon="6.00886">
        <ele>1209</ele>
        <time>2012-08-07T09:15:23Z</time>
      </trkpt>
      <trkpt lat="45.69489" lon="6.00951">
        <ele>1205.63</ele>
        <time>2012-08-07T09:15:26Z</time>
      </trkpt>
      <trkpt lat="45.69501" lon="6.00992">
        <ele>1202.75</ele>
        <time>2012-08-07T09:15:28Z</time>
      </trkpt>
      <trkpt lat="45.69525" lon="6.01053">
        <ele>1198.9</ele>
        <time>2012-08-07T09:15:31Z</time>
      </trkpt>
      <trkpt lat="45.69542" lon="6.01092">
        <ele>1196.98</ele>
        <time>2012-08-07T09:15:33Z</time>
      </trkpt>
      <trkpt lat="45.69561" lon="6.01126">
        <ele>1193.61</ele>
        <time>2012-08-07T09:15:35Z</time>
      </trkpt>
      <trkpt lat="45.69583" lon="6.01154">
        <ele>1190.25</ele>
        <time>2012-08-07T09:15:37Z</time>
      </trkpt>
      <trkpt lat="45.69595" lon="6.01165">
        <ele>1188.81</ele>
        <time>2012-08-07T09:15:38Z</time>
      </trkpt>
      <trkpt lat="45.69607" lon="6.01172">
        <ele>1187.37</ele>
        <time>2012-08-07T09:15:39Z</time>
      </trkpt>
      <trkpt lat="45.69619" lon="6.01175">
        <ele>1186.88</ele>
        <time>2012-08-07T09:15:40Z</time>
      </trkpt>
      <trkpt lat="45.69631" lon="6.01173">
        <ele>1185.44</ele>
        <time>2012-08-07T09:15:41Z</time>
      </trkpt>
      <trkpt lat="45.69644" lon="6.01166">
        <ele>1184.96</ele>
        <time>2012-08-07T09:15:42Z</time>
      </trkpt>
      <trkpt lat="45.69656" lon="6.01156">
        <ele>1184</ele>
        <time>2012-08-07T09:15:43Z</time>
      </trkpt>
      <trkpt lat="45.69677" lon="6.01129">
        <ele>1183.04</ele>
        <time>2012-08-07T09:15:45Z</time>
      </trkpt>
      <trkpt lat="45.69686" lon="6.01113">
        <ele>1182.56</ele>
        <time>2012-08-07T09:15:46Z</time>
      </trkpt>
      <trkpt lat="45.69703" lon="6.01078">
        <ele>1179.19</ele>
        <time>2012-08-07T09:15:48Z</time>
      </trkpt>
      <trkpt lat="45.69714" lon="6.01064">
        <ele>1177.75</ele>
        <time>2012-08-07T09:15:49Z</time>
      </trkpt>
      <trkpt lat="45.69727" lon="6.01051">
        <ele>1177.75</ele>
        <time>2012-08-07T09:15:50Z</time>
      </trkpt>
      <trkpt lat="45.6976" lon="6.01018">
        <ele>1173.91</ele>
        <time>2012-08-07T09:15:52Z</time>
      </trkpt>
      <trkpt lat="45.69768" lon="6.01011">
        <ele>1173.91</ele>
        <time>2012-08-07T09:15:53Z</time>
      </trkpt>
      <trkpt lat="45.69794" lon="6.00989">
        <ele>1171.02</ele>
        <time>2012-08-07T09:15:55Z</time>
      </trkpt>
      <trkpt lat="45.6981" lon="6.00974">
        <ele>1169.58</ele>
        <time>2012-08-07T09:15:56Z</time>
      </trkpt>
      <trkpt lat="45.69822" lon="6.00958">
        <ele>1168.62</ele>
        <time>2012-08-07T09:15:57Z</time>
      </trkpt>
      <trkpt lat="45.69833" lon="6.00943">
        <ele>1167.18</ele>
        <time>2012-08-07T09:15:58Z</time>
      </trkpt>
      <trkpt lat="45.69845" lon="6.0093">
        <ele>1165.74</ele>
        <time>2012-08-07T09:15:59Z</time>
      </trkpt>
      <trkpt lat="45.69873" lon="6.00904">
        <ele>1162.37</ele>
        <time>2012-08-07T09:16:01Z</time>
      </trkpt>
      <trkpt lat="45.69883" lon="6.0089">
        <ele>1161.89</ele>
        <time>2012-08-07T09:16:02Z</time>
      </trkpt>
      <trkpt lat="45.69892" lon="6.00873">
        <ele>1160.45</ele>
        <time>2012-08-07T09:16:03Z</time>
      </trkpt>
      <trkpt lat="45.69898" lon="6.00853">
        <ele>1159.01</ele>
        <time>2012-08-07T09:16:04Z</time>
      </trkpt>
      <trkpt lat="45.69902" lon="6.00832">
        <ele>1158.53</ele>
        <time>2012-08-07T09:16:05Z</time>
      </trkpt>
      <trkpt lat="45.69904" lon="6.0081">
        <ele>1158.53</ele>
        <time>2012-08-07T09:16:06Z</time>
      </trkpt>
      <trkpt lat="45.69906" lon="6.00789">
        <ele>1157.08</ele>
        <time>2012-08-07T09:16:07Z</time>
      </trkpt>
      <trkpt lat="45.69915" lon="6.00706">
        <ele>1153.72</ele>
        <time>2012-08-07T09:16:11Z</time>
      </trkpt>
      <trkpt lat="45.6992" lon="6.00621">
        <ele>1150.35</ele>
        <time>2012-08-07T09:16:14Z</time>
      </trkpt>
      <trkpt lat="45.69931" lon="6.00545">
        <ele>1146.03</ele>
        <time>2012-08-07T09:16:17Z</time>
      </trkpt>
      <trkpt lat="45.69942" lon="6.00495">
        <ele>1141.7</ele>
        <time>2012-08-07T09:16:19Z</time>
      </trkpt>
      <trkpt lat="45.69951" lon="6.00447">
        <ele>1138.34</ele>
        <time>2012-08-07T09:16:21Z</time>
      </trkpt>
      <trkpt lat="45.69953" lon="6.00426">
        <ele>1136.42</ele>
        <time>2012-08-07T09:16:22Z</time>
      </trkpt>
      <trkpt lat="45.69953" lon="6.00405">
        <ele>1134.49</ele>
        <time>2012-08-07T09:16:23Z</time>
      </trkpt>
      <trkpt lat="45.69959" lon="6.00368">
        <ele>1131.61</ele>
        <time>2012-08-07T09:16:25Z</time>
      </trkpt>
      <trkpt lat="45.69963" lon="6.00356">
        <ele>1130.65</ele>
        <time>2012-08-07T09:16:26Z</time>
      </trkpt>
      <trkpt lat="45.69974" lon="6.00335">
        <ele>1129.69</ele>
        <time>2012-08-07T09:16:27Z</time>
      </trkpt>
      <trkpt lat="45.69984" lon="6.0032">
        <ele>1128.24</ele>
        <time>2012-08-07T09:16:28Z</time>
      </trkpt>
      <trkpt lat="45.69994" lon="6.00308">
        <ele>1126.32</ele>
        <time>2012-08-07T09:16:29Z</time>
      </trkpt>
      <trkpt lat="45.70002" lon="6.00299">
        <ele>1123.92</ele>
        <time>2012-08-07T09:16:30Z</time>
      </trkpt>
      <trkpt lat="45.70008" lon="6.00293">
        <ele>1123.44</ele>
        <time>2012-08-07T09:16:31Z</time>
      </trkpt>
      <trkpt lat="45.70013" lon="6.0029">
        <ele>1122</ele>
        <time>2012-08-07T09:16:32Z</time>
      </trkpt>
      <trkpt lat="45.7001" lon="6.00291">
        <ele>1121.52</ele>
        <time>2012-08-07T09:16:33Z</time>
      </trkpt>
      <trkpt lat="45.70016" lon="6.003">
        <ele>1121.03</ele>
        <time>2012-08-07T09:16:34Z</time>
      </trkpt>
      <trkpt lat="45.70007" lon="6.00327">
        <ele>1121.52</ele>
        <time>2012-08-07T09:16:37Z</time>
      </trkpt>
      <trkpt lat="45.69985" lon="6.00352">
        <ele>1119.59</ele>
        <time>2012-08-07T09:16:39Z</time>
      </trkpt>
      <trkpt lat="45.69979" lon="6.00368">
        <ele>1119.11</ele>
        <time>2012-08-07T09:16:40Z</time>
      </trkpt>
      <trkpt lat="45.69975" lon="6.00386">
        <ele>1118.15</ele>
        <time>2012-08-07T09:16:41Z</time>
      </trkpt>
      <trkpt lat="45.69977" lon="6.00433">
        <ele>1116.23</ele>
        <time>2012-08-07T09:16:43Z</time>
      </trkpt>
      <trkpt lat="45.69983" lon="6.00512">
        <ele>1113.34</ele>
        <time>2012-08-07T09:16:46Z</time>
      </trkpt>
      <trkpt lat="45.69978" lon="6.00564">
        <ele>1109.98</ele>
        <time>2012-08-07T09:16:48Z</time>
      </trkpt>
      <trkpt lat="45.69976" lon="6.00589">
        <ele>1109.02</ele>
        <time>2012-08-07T09:16:49Z</time>
      </trkpt>
      <trkpt lat="45.69979" lon="6.00673">
        <ele>1106.13</ele>
        <time>2012-08-07T09:16:52Z</time>
      </trkpt>
      <trkpt lat="45.69982" lon="6.00701">
        <ele>1104.21</ele>
        <time>2012-08-07T09:16:53Z</time>
      </trkpt>
      <trkpt lat="45.69987" lon="6.00776">
        <ele>1099.4</ele>
        <time>2012-08-07T09:16:56Z</time>
      </trkpt>
      <trkpt lat="45.69988" lon="6.00823">
        <ele>1096.04</ele>
        <time>2012-08-07T09:16:58Z</time>
      </trkpt>
      <trkpt lat="45.69982" lon="6.00858">
        <ele>1091.71</ele>
        <time>2012-08-07T09:17:00Z</time>
      </trkpt>
      <trkpt lat="45.69978" lon="6.00872">
        <ele>1090.75</ele>
        <time>2012-08-07T09:17:01Z</time>
      </trkpt>
      <trkpt lat="45.69978" lon="6.00888">
        <ele>1090.27</ele>
        <time>2012-08-07T09:17:02Z</time>
      </trkpt>
      <trkpt lat="45.69968" lon="6.00906">
        <ele>1088.35</ele>
        <time>2012-08-07T09:17:04Z</time>
      </trkpt>
      <trkpt lat="45.69967" lon="6.00914">
        <ele>1087.39</ele>
        <time>2012-08-07T09:17:05Z</time>
      </trkpt>
      <trkpt lat="45.6997" lon="6.00921">
        <ele>1087.87</ele>
        <time>2012-08-07T09:17:06Z</time>
      </trkpt>
      <trkpt lat="45.69976" lon="6.00924">
        <ele>1086.91</ele>
        <time>2012-08-07T09:17:07Z</time>
      </trkpt>
      <trkpt lat="45.6998" lon="6.0092">
        <ele>1087.39</ele>
        <time>2012-08-07T09:17:08Z</time>
      </trkpt>
      <trkpt lat="45.69984" lon="6.0091">
        <ele>1087.87</ele>
        <time>2012-08-07T09:17:09Z</time>
      </trkpt>
      <trkpt lat="45.6999" lon="6.00895">
        <ele>1087.39</ele>
        <time>2012-08-07T09:17:10Z</time>
      </trkpt>
      <trkpt lat="45.70002" lon="6.00857">
        <ele>1086.91</ele>
        <time>2012-08-07T09:17:12Z</time>
      </trkpt>
      <trkpt lat="45.70006" lon="6.00835">
        <ele>1085.47</ele>
        <time>2012-08-07T09:17:13Z</time>
      </trkpt>
      <trkpt lat="45.70011" lon="6.00796">
        <ele>1082.1</ele>
        <time>2012-08-07T09:17:15Z</time>
      </trkpt>
      <trkpt lat="45.70016" lon="6.00777">
        <ele>1081.62</ele>
        <time>2012-08-07T09:17:16Z</time>
      </trkpt>
      <trkpt lat="45.70022" lon="6.00761">
        <ele>1080.66</ele>
        <time>2012-08-07T09:17:17Z</time>
      </trkpt>
      <trkpt lat="45.70031" lon="6.00746">
        <ele>1079.7</ele>
        <time>2012-08-07T09:17:18Z</time>
      </trkpt>
      <trkpt lat="45.70043" lon="6.0073">
        <ele>1078.74</ele>
        <time>2012-08-07T09:17:19Z</time>
      </trkpt>
      <trkpt lat="45.70065" lon="6.00699">
        <ele>1077.29</ele>
        <time>2012-08-07T09:17:21Z</time>
      </trkpt>
      <trkpt lat="45.70072" lon="6.00681">
        <ele>1074.89</ele>
        <time>2012-08-07T09:17:22Z</time>
      </trkpt>
      <trkpt lat="45.70075" lon="6.00662">
        <ele>1073.93</ele>
        <time>2012-08-07T09:17:23Z</time>
      </trkpt>
      <trkpt lat="45.70076" lon="6.0064">
        <ele>1073.45</ele>
        <time>2012-08-07T09:17:24Z</time>
      </trkpt>
      <trkpt lat="45.70073" lon="6.00619">
        <ele>1072.01</ele>
        <time>2012-08-07T09:17:25Z</time>
      </trkpt>
      <trkpt lat="45.70069" lon="6.00599">
        <ele>1070.57</ele>
        <time>2012-08-07T09:17:26Z</time>
      </trkpt>
      <trkpt lat="45.70068" lon="6.00578">
        <ele>1068.64</ele>
        <time>2012-08-07T09:17:27Z</time>
      </trkpt>
      <trkpt lat="45.70067" lon="6.0056">
        <ele>1067.2</ele>
        <time>2012-08-07T09:17:28Z</time>
      </trkpt>
      <trkpt lat="45.70068" lon="6.00543">
        <ele>1065.76</ele>
        <time>2012-08-07T09:17:29Z</time>
      </trkpt>
      <trkpt lat="45.70072" lon="6.00528">
        <ele>1064.8</ele>
        <time>2012-08-07T09:17:30Z</time>
      </trkpt>
      <trkpt lat="45.70079" lon="6.00517">
        <ele>1063.84</ele>
        <time>2012-08-07T09:17:31Z</time>
      </trkpt>
      <trkpt lat="45.70088" lon="6.00508">
        <ele>1062.87</ele>
        <time>2012-08-07T09:17:32Z</time>
      </trkpt>
      <trkpt lat="45.70099" lon="6.00498">
        <ele>1062.39</ele>
        <time>2012-08-07T09:17:33Z</time>
      </trkpt>
      <trkpt lat="45.70108" lon="6.00486">
        <ele>1061.43</ele>
        <time>2012-08-07T09:17:34Z</time>
      </trkpt>
      <trkpt lat="45.70117" lon="6.00471">
        <ele>1060.47</ele>
        <time>2012-08-07T09:17:35Z</time>
      </trkpt>
      <trkpt lat="45.70133" lon="6.00442">
        <ele>1057.11</ele>
        <time>2012-08-07T09:17:37Z</time>
      </trkpt>
      <trkpt lat="45.70154" lon="6.0041">
        <ele>1053.74</ele>
        <time>2012-08-07T09:17:40Z</time>
      </trkpt>
      <trkpt lat="45.70159" lon="6.004">
        <ele>1052.78</ele>
        <time>2012-08-07T09:17:41Z</time>
      </trkpt>
      <trkpt lat="45.70162" lon="6.00388">
        <ele>1052.3</ele>
        <time>2012-08-07T09:17:42Z</time>
      </trkpt>
      <trkpt lat="45.70163" lon="6.00374">
        <ele>1051.34</ele>
        <time>2012-08-07T09:17:43Z</time>
      </trkpt>
      <trkpt lat="45.70164" lon="6.0036">
        <ele>1050.38</ele>
        <time>2012-08-07T09:17:44Z</time>
      </trkpt>
      <trkpt lat="45.70164" lon="6.00346">
        <ele>1049.42</ele>
        <time>2012-08-07T09:17:45Z</time>
      </trkpt>
      <trkpt lat="45.70162" lon="6.00331">
        <ele>1048.45</ele>
        <time>2012-08-07T09:17:46Z</time>
      </trkpt>
      <trkpt lat="45.70157" lon="6.00303">
        <ele>1047.49</ele>
        <time>2012-08-07T09:17:48Z</time>
      </trkpt>
      <trkpt lat="45.7015" lon="6.00278">
        <ele>1044.61</ele>
        <time>2012-08-07T09:17:50Z</time>
      </trkpt>
      <trkpt lat="45.70147" lon="6.00267">
        <ele>1043.65</ele>
        <time>2012-08-07T09:17:51Z</time>
      </trkpt>
      <trkpt lat="45.70146" lon="6.00256">
        <ele>1042.69</ele>
        <time>2012-08-07T09:17:52Z</time>
      </trkpt>
      <trkpt lat="45.70152" lon="6.00224">
        <ele>1040.28</ele>
        <time>2012-08-07T09:17:56Z</time>
      </trkpt>
      <trkpt lat="45.70154" lon="6.00221">
        <ele>1040.28</ele>
        <time>2012-08-07T09:17:57Z</time>
      </trkpt>
      <trkpt lat="45.70157" lon="6.00219">
        <ele>1039.8</ele>
        <time>2012-08-07T09:17:58Z</time>
      </trkpt>
      <trkpt lat="45.70158" lon="6.00219">
        <ele>1038.84</ele>
        <time>2012-08-07T09:17:59Z</time>
      </trkpt>
      <trkpt lat="45.70166" lon="6.0022">
        <ele>1038.36</ele>
        <time>2012-08-07T09:18:00Z</time>
      </trkpt>
      <trkpt lat="45.7017" lon="6.00216">
        <ele>1036.92</ele>
        <time>2012-08-07T09:18:01Z</time>
      </trkpt>
      <trkpt lat="45.70213" lon="6.00203">
        <ele>1033.55</ele>
        <time>2012-08-07T09:18:05Z</time>
      </trkpt>
      <trkpt lat="45.70219" lon="6.00202">
        <ele>1033.55</ele>
        <time>2012-08-07T09:18:06Z</time>
      </trkpt>
      <trkpt lat="45.7023" lon="6.00201">
        <ele>1033.07</ele>
        <time>2012-08-07T09:18:07Z</time>
      </trkpt>
      <trkpt lat="45.70239" lon="6.00204">
        <ele>1032.11</ele>
        <time>2012-08-07T09:18:08Z</time>
      </trkpt>
      <trkpt lat="45.70268" lon="6.00221">
        <ele>1030.67</ele>
        <time>2012-08-07T09:18:11Z</time>
      </trkpt>
      <trkpt lat="45.70286" lon="6.00224">
        <ele>1029.71</ele>
        <time>2012-08-07T09:18:12Z</time>
      </trkpt>
      <trkpt lat="45.70303" lon="6.00227">
        <ele>1029.23</ele>
        <time>2012-08-07T09:18:13Z</time>
      </trkpt>
      <trkpt lat="45.70333" lon="6.00226">
        <ele>1026.83</ele>
        <time>2012-08-07T09:18:16Z</time>
      </trkpt>
      <trkpt lat="45.7034" lon="6.0022">
        <ele>1025.86</ele>
        <time>2012-08-07T09:18:17Z</time>
      </trkpt>
      <trkpt lat="45.70346" lon="6.00212">
        <ele>1025.86</ele>
        <time>2012-08-07T09:18:18Z</time>
      </trkpt>
      <trkpt lat="45.70352" lon="6.00201">
        <ele>1025.38</ele>
        <time>2012-08-07T09:18:19Z</time>
      </trkpt>
      <trkpt lat="45.70359" lon="6.0019">
        <ele>1024.42</ele>
        <time>2012-08-07T09:18:20Z</time>
      </trkpt>
      <trkpt lat="45.70366" lon="6.00172">
        <ele>1023.94</ele>
        <time>2012-08-07T09:18:21Z</time>
      </trkpt>
      <trkpt lat="45.70371" lon="6.00155">
        <ele>1022.98</ele>
        <time>2012-08-07T09:18:22Z</time>
      </trkpt>
      <trkpt lat="45.70376" lon="6.00139">
        <ele>1022.02</ele>
        <time>2012-08-07T09:18:23Z</time>
      </trkpt>
      <trkpt lat="45.70381" lon="6.00123">
        <ele>1020.58</ele>
        <time>2012-08-07T09:18:24Z</time>
      </trkpt>
      <trkpt lat="45.70385" lon="6.00105">
        <ele>1019.13</ele>
        <time>2012-08-07T09:18:25Z</time>
      </trkpt>
      <trkpt lat="45.70389" lon="6.00088">
        <ele>1018.65</ele>
        <time>2012-08-07T09:18:26Z</time>
      </trkpt>
      <trkpt lat="45.70393" lon="6.0007">
        <ele>1017.21</ele>
        <time>2012-08-07T09:18:27Z</time>
      </trkpt>
      <trkpt lat="45.70398" lon="6.0005">
        <ele>1016.25</ele>
        <time>2012-08-07T09:18:28Z</time>
      </trkpt>
      <trkpt lat="45.70405" lon="6.0003">
        <ele>1015.29</ele>
        <time>2012-08-07T09:18:29Z</time>
      </trkpt>
      <trkpt lat="45.70412" lon="6.00011">
        <ele>1014.81</ele>
        <time>2012-08-07T09:18:30Z</time>
      </trkpt>
      <trkpt lat="45.70437" lon="5.99952">
        <ele>1010.96</ele>
        <time>2012-08-07T09:18:33Z</time>
      </trkpt>
      <trkpt lat="45.70443" lon="5.99932">
        <ele>1010.48</ele>
        <time>2012-08-07T09:18:34Z</time>
      </trkpt>
      <trkpt lat="45.70454" lon="5.9989">
        <ele>1008.08</ele>
        <time>2012-08-07T09:18:36Z</time>
      </trkpt>
      <trkpt lat="45.70462" lon="5.99872">
        <ele>1006.16</ele>
        <time>2012-08-07T09:18:37Z</time>
      </trkpt>
      <trkpt lat="45.7047" lon="5.99854">
        <ele>1004.72</ele>
        <time>2012-08-07T09:18:38Z</time>
      </trkpt>
      <trkpt lat="45.70475" lon="5.99836">
        <ele>1004.72</ele>
        <time>2012-08-07T09:18:39Z</time>
      </trkpt>
      <trkpt lat="45.70478" lon="5.99817">
        <ele>1003.75</ele>
        <time>2012-08-07T09:18:40Z</time>
      </trkpt>
      <trkpt lat="45.7048" lon="5.99797">
        <ele>1002.79</ele>
        <time>2012-08-07T09:18:41Z</time>
      </trkpt>
      <trkpt lat="45.70479" lon="5.99777">
        <ele>1001.83</ele>
        <time>2012-08-07T09:18:42Z</time>
      </trkpt>
      <trkpt lat="45.70477" lon="5.99757">
        <ele>1001.35</ele>
        <time>2012-08-07T09:18:43Z</time>
      </trkpt>
      <trkpt lat="45.70472" lon="5.99737">
        <ele>999.91</ele>
        <time>2012-08-07T09:18:44Z</time>
      </trkpt>
      <trkpt lat="45.70466" lon="5.99718">
        <ele>998.95</ele>
        <time>2012-08-07T09:18:45Z</time>
      </trkpt>
      <trkpt lat="45.70459" lon="5.99703">
        <ele>997.51</ele>
        <time>2012-08-07T09:18:46Z</time>
      </trkpt>
      <trkpt lat="45.7045" lon="5.9969">
        <ele>997.02</ele>
        <time>2012-08-07T09:18:47Z</time>
      </trkpt>
      <trkpt lat="45.70441" lon="5.99677">
        <ele>996.06</ele>
        <time>2012-08-07T09:18:48Z</time>
      </trkpt>
      <trkpt lat="45.70429" lon="5.99665">
        <ele>994.62</ele>
        <time>2012-08-07T09:18:49Z</time>
      </trkpt>
      <trkpt lat="45.7034" lon="5.99569">
        <ele>989.81</ele>
        <time>2012-08-07T09:18:55Z</time>
      </trkpt>
      <trkpt lat="45.70311" lon="5.99532">
        <ele>985.97</ele>
        <time>2012-08-07T09:18:57Z</time>
      </trkpt>
      <trkpt lat="45.70285" lon="5.99497">
        <ele>982.12</ele>
        <time>2012-08-07T09:18:59Z</time>
      </trkpt>
      <trkpt lat="45.70264" lon="5.99465">
        <ele>978.76</ele>
        <time>2012-08-07T09:19:01Z</time>
      </trkpt>
      <trkpt lat="45.70254" lon="5.99448">
        <ele>977.32</ele>
        <time>2012-08-07T09:19:02Z</time>
      </trkpt>
      <trkpt lat="45.70247" lon="5.99429">
        <ele>976.36</ele>
        <time>2012-08-07T09:19:03Z</time>
      </trkpt>
      <trkpt lat="45.70241" lon="5.99411">
        <ele>974.91</ele>
        <time>2012-08-07T09:19:04Z</time>
      </trkpt>
      <trkpt lat="45.70236" lon="5.99394">
        <ele>973.95</ele>
        <time>2012-08-07T09:19:05Z</time>
      </trkpt>
      <trkpt lat="45.70228" lon="5.99379">
        <ele>972.99</ele>
        <time>2012-08-07T09:19:06Z</time>
      </trkpt>
      <trkpt lat="45.7022" lon="5.99365">
        <ele>972.03</ele>
        <time>2012-08-07T09:19:07Z</time>
      </trkpt>
      <trkpt lat="45.70211" lon="5.99352">
        <ele>970.59</ele>
        <time>2012-08-07T09:19:08Z</time>
      </trkpt>
      <trkpt lat="45.70201" lon="5.9934">
        <ele>970.59</ele>
        <time>2012-08-07T09:19:09Z</time>
      </trkpt>
      <trkpt lat="45.7018" lon="5.99317">
        <ele>966.74</ele>
        <time>2012-08-07T09:19:11Z</time>
      </trkpt>
      <trkpt lat="45.70159" lon="5.99287">
        <ele>963.38</ele>
        <time>2012-08-07T09:19:14Z</time>
      </trkpt>
      <trkpt lat="45.70155" lon="5.99277">
        <ele>961.94</ele>
        <time>2012-08-07T09:19:15Z</time>
      </trkpt>
      <trkpt lat="45.70153" lon="5.99266">
        <ele>960.98</ele>
        <time>2012-08-07T09:19:16Z</time>
      </trkpt>
      <trkpt lat="45.70153" lon="5.99254">
        <ele>961.46</ele>
        <time>2012-08-07T09:19:17Z</time>
      </trkpt>
      <trkpt lat="45.70155" lon="5.9924">
        <ele>961.94</ele>
        <time>2012-08-07T09:19:18Z</time>
      </trkpt>
      <trkpt lat="45.70159" lon="5.99224">
        <ele>961.46</ele>
        <time>2012-08-07T09:19:19Z</time>
      </trkpt>
      <trkpt lat="45.70163" lon="5.99208">
        <ele>959.05</ele>
        <time>2012-08-07T09:19:20Z</time>
      </trkpt>
      <trkpt lat="45.70171" lon="5.99194">
        <ele>958.09</ele>
        <time>2012-08-07T09:19:21Z</time>
      </trkpt>
      <trkpt lat="45.70183" lon="5.99181">
        <ele>958.09</ele>
        <time>2012-08-07T09:19:22Z</time>
      </trkpt>
      <trkpt lat="45.70193" lon="5.99162">
        <ele>957.61</ele>
        <time>2012-08-07T09:19:23Z</time>
      </trkpt>
      <trkpt lat="45.702" lon="5.99142">
        <ele>956.65</ele>
        <time>2012-08-07T09:19:24Z</time>
      </trkpt>
      <trkpt lat="45.70213" lon="5.99106">
        <ele>952.8</ele>
        <time>2012-08-07T09:19:26Z</time>
      </trkpt>
      <trkpt lat="45.70224" lon="5.99079">
        <ele>949.44</ele>
        <time>2012-08-07T09:19:28Z</time>
      </trkpt>
      <trkpt lat="45.70225" lon="5.99067">
        <ele>948.48</ele>
        <time>2012-08-07T09:19:29Z</time>
      </trkpt>
      <trkpt lat="45.70224" lon="5.99055">
        <ele>948</ele>
        <time>2012-08-07T09:19:30Z</time>
      </trkpt>
      <trkpt lat="45.7022" lon="5.99044">
        <ele>948</ele>
        <time>2012-08-07T09:19:31Z</time>
      </trkpt>
      <trkpt lat="45.70211" lon="5.99038">
        <ele>948</ele>
        <time>2012-08-07T09:19:32Z</time>
      </trkpt>
      <trkpt lat="45.702" lon="5.99035">
        <ele>946.56</ele>
        <time>2012-08-07T09:19:33Z</time>
      </trkpt>
      <trkpt lat="45.70189" lon="5.9903">
        <ele>945.11</ele>
        <time>2012-08-07T09:19:34Z</time>
      </trkpt>
      <trkpt lat="45.7018" lon="5.99021">
        <ele>944.15</ele>
        <time>2012-08-07T09:19:35Z</time>
      </trkpt>
      <trkpt lat="45.70176" lon="5.99008">
        <ele>943.19</ele>
        <time>2012-08-07T09:19:36Z</time>
      </trkpt>
      <trkpt lat="45.70176" lon="5.98992">
        <ele>942.71</ele>
        <time>2012-08-07T09:19:37Z</time>
      </trkpt>
      <trkpt lat="45.70178" lon="5.98974">
        <ele>942.71</ele>
        <time>2012-08-07T09:19:38Z</time>
      </trkpt>
      <trkpt lat="45.70178" lon="5.98956">
        <ele>941.75</ele>
        <time>2012-08-07T09:19:39Z</time>
      </trkpt>
      <trkpt lat="45.70177" lon="5.98938">
        <ele>940.31</ele>
        <time>2012-08-07T09:19:40Z</time>
      </trkpt>
      <trkpt lat="45.70172" lon="5.98919">
        <ele>939.83</ele>
        <time>2012-08-07T09:19:41Z</time>
      </trkpt>
      <trkpt lat="45.70164" lon="5.989">
        <ele>939.83</ele>
        <time>2012-08-07T09:19:42Z</time>
      </trkpt>
      <trkpt lat="45.70154" lon="5.98882">
        <ele>938.86</ele>
        <time>2012-08-07T09:19:43Z</time>
      </trkpt>
      <trkpt lat="45.7012" lon="5.98825">
        <ele>935.98</ele>
        <time>2012-08-07T09:19:46Z</time>
      </trkpt>
      <trkpt lat="45.70088" lon="5.98767">
        <ele>932.14</ele>
        <time>2012-08-07T09:19:49Z</time>
      </trkpt>
      <trkpt lat="45.70057" lon="5.98706">
        <ele>927.81</ele>
        <time>2012-08-07T09:19:52Z</time>
      </trkpt>
      <trkpt lat="45.70024" lon="5.98651">
        <ele>923</ele>
        <time>2012-08-07T09:19:55Z</time>
      </trkpt>
      <trkpt lat="45.70013" lon="5.98637">
        <ele>921.08</ele>
        <time>2012-08-07T09:19:56Z</time>
      </trkpt>
      <trkpt lat="45.69992" lon="5.98614">
        <ele>917.24</ele>
        <time>2012-08-07T09:19:58Z</time>
      </trkpt>
      <trkpt lat="45.69986" lon="5.98598">
        <ele>915.79</ele>
        <time>2012-08-07T09:19:59Z</time>
      </trkpt>
      <trkpt lat="45.69984" lon="5.98581">
        <ele>915.31</ele>
        <time>2012-08-07T09:20:00Z</time>
      </trkpt>
      <trkpt lat="45.69975" lon="5.98547">
        <ele>913.39</ele>
        <time>2012-08-07T09:20:02Z</time>
      </trkpt>
      <trkpt lat="45.6997" lon="5.98529">
        <ele>911.95</ele>
        <time>2012-08-07T09:20:03Z</time>
      </trkpt>
      <trkpt lat="45.69963" lon="5.98513">
        <ele>911.47</ele>
        <time>2012-08-07T09:20:04Z</time>
      </trkpt>
      <trkpt lat="45.69956" lon="5.98498">
        <ele>910.03</ele>
        <time>2012-08-07T09:20:05Z</time>
      </trkpt>
      <trkpt lat="45.69948" lon="5.98485">
        <ele>908.58</ele>
        <time>2012-08-07T09:20:06Z</time>
      </trkpt>
      <trkpt lat="45.69939" lon="5.98475">
        <ele>907.14</ele>
        <time>2012-08-07T09:20:07Z</time>
      </trkpt>
      <trkpt lat="45.6993" lon="5.98469">
        <ele>906.18</ele>
        <time>2012-08-07T09:20:08Z</time>
      </trkpt>
      <trkpt lat="45.69919" lon="5.9847">
        <ele>905.22</ele>
        <time>2012-08-07T09:20:09Z</time>
      </trkpt>
      <trkpt lat="45.69907" lon="5.98473">
        <ele>904.26</ele>
        <time>2012-08-07T09:20:10Z</time>
      </trkpt>
      <trkpt lat="45.69896" lon="5.98476">
        <ele>902.82</ele>
        <time>2012-08-07T09:20:11Z</time>
      </trkpt>
      <trkpt lat="45.69887" lon="5.98477">
        <ele>901.37</ele>
        <time>2012-08-07T09:20:12Z</time>
      </trkpt>
      <trkpt lat="45.69878" lon="5.98473">
        <ele>900.41</ele>
        <time>2012-08-07T09:20:13Z</time>
      </trkpt>
      <trkpt lat="45.69871" lon="5.98465">
        <ele>898.97</ele>
        <time>2012-08-07T09:20:14Z</time>
      </trkpt>
      <trkpt lat="45.69867" lon="5.98454">
        <ele>898.49</ele>
        <time>2012-08-07T09:20:15Z</time>
      </trkpt>
      <trkpt lat="45.69866" lon="5.9844">
        <ele>898.01</ele>
        <time>2012-08-07T09:20:16Z</time>
      </trkpt>
      <trkpt lat="45.6987" lon="5.98425">
        <ele>898.01</ele>
        <time>2012-08-07T09:20:17Z</time>
      </trkpt>
      <trkpt lat="45.69876" lon="5.9841">
        <ele>897.05</ele>
        <time>2012-08-07T09:20:18Z</time>
      </trkpt>
      <trkpt lat="45.69881" lon="5.98396">
        <ele>896.09</ele>
        <time>2012-08-07T09:20:19Z</time>
      </trkpt>
      <trkpt lat="45.69885" lon="5.9838">
        <ele>895.12</ele>
        <time>2012-08-07T09:20:20Z</time>
      </trkpt>
      <trkpt lat="45.69887" lon="5.98365">
        <ele>894.16</ele>
        <time>2012-08-07T09:20:21Z</time>
      </trkpt>
      <trkpt lat="45.69886" lon="5.98348">
        <ele>893.68</ele>
        <time>2012-08-07T09:20:22Z</time>
      </trkpt>
      <trkpt lat="45.69883" lon="5.98329">
        <ele>894.16</ele>
        <time>2012-08-07T09:20:23Z</time>
      </trkpt>
      <trkpt lat="45.69878" lon="5.9831">
        <ele>894.16</ele>
        <time>2012-08-07T09:20:24Z</time>
      </trkpt>
      <trkpt lat="45.69872" lon="5.98291">
        <ele>892.24</ele>
        <time>2012-08-07T09:20:25Z</time>
      </trkpt>
      <trkpt lat="45.69866" lon="5.98273">
        <ele>896.09</ele>
        <time>2012-08-07T09:20:26Z</time>
      </trkpt>
      <trkpt lat="45.69859" lon="5.98254">
        <ele>892.24</ele>
        <time>2012-08-07T09:20:27Z</time>
      </trkpt>
      <trkpt lat="45.69853" lon="5.98235">
        <ele>887.43</ele>
        <time>2012-08-07T09:20:28Z</time>
      </trkpt>
      <trkpt lat="45.69843" lon="5.98201">
        <ele>886.47</ele>
        <time>2012-08-07T09:20:30Z</time>
      </trkpt>
      <trkpt lat="45.69839" lon="5.98185">
        <ele>883.59</ele>
        <time>2012-08-07T09:20:31Z</time>
      </trkpt>
      <trkpt lat="45.69838" lon="5.98168">
        <ele>883.59</ele>
        <time>2012-08-07T09:20:32Z</time>
      </trkpt>
      <trkpt lat="45.69838" lon="5.98131">
        <ele>882.15</ele>
        <time>2012-08-07T09:20:34Z</time>
      </trkpt>
      <trkpt lat="45.69849" lon="5.98058">
        <ele>878.3</ele>
        <time>2012-08-07T09:20:38Z</time>
      </trkpt>
      <trkpt lat="45.69852" lon="5.98042">
        <ele>877.82</ele>
        <time>2012-08-07T09:20:39Z</time>
      </trkpt>
      <trkpt lat="45.69857" lon="5.98028">
        <ele>879.26</ele>
        <time>2012-08-07T09:20:40Z</time>
      </trkpt>
      <trkpt lat="45.69864" lon="5.98014">
        <ele>877.34</ele>
        <time>2012-08-07T09:20:41Z</time>
      </trkpt>
      <trkpt lat="45.69872" lon="5.98002">
        <ele>876.86</ele>
        <time>2012-08-07T09:20:42Z</time>
      </trkpt>
      <trkpt lat="45.69883" lon="5.97994">
        <ele>876.38</ele>
        <time>2012-08-07T09:20:43Z</time>
      </trkpt>
      <trkpt lat="45.69895" lon="5.97987">
        <ele>875.42</ele>
        <time>2012-08-07T09:20:44Z</time>
      </trkpt>
      <trkpt lat="45.69907" lon="5.97982">
        <ele>875.9</ele>
        <time>2012-08-07T09:20:45Z</time>
      </trkpt>
      <trkpt lat="45.6992" lon="5.97977">
        <ele>873.98</ele>
        <time>2012-08-07T09:20:46Z</time>
      </trkpt>
      <trkpt lat="45.69943" lon="5.97964">
        <ele>872.05</ele>
        <time>2012-08-07T09:20:48Z</time>
      </trkpt>
      <trkpt lat="45.69951" lon="5.97952">
        <ele>871.09</ele>
        <time>2012-08-07T09:20:49Z</time>
      </trkpt>
      <trkpt lat="45.69957" lon="5.97938">
        <ele>867.25</ele>
        <time>2012-08-07T09:20:50Z</time>
      </trkpt>
      <trkpt lat="45.69962" lon="5.97923">
        <ele>870.61</ele>
        <time>2012-08-07T09:20:51Z</time>
      </trkpt>
      <trkpt lat="45.69965" lon="5.97905">
        <ele>870.13</ele>
        <time>2012-08-07T09:20:52Z</time>
      </trkpt>
      <trkpt lat="45.69966" lon="5.97885">
        <ele>869.17</ele>
        <time>2012-08-07T09:20:53Z</time>
      </trkpt>
      <trkpt lat="45.69967" lon="5.97865">
        <ele>869.65</ele>
        <time>2012-08-07T09:20:54Z</time>
      </trkpt>
      <trkpt lat="45.69966" lon="5.97752">
        <ele>865.32</ele>
        <time>2012-08-07T09:20:59Z</time>
      </trkpt>
      <trkpt lat="45.69969" lon="5.97663">
        <ele>862.44</ele>
        <time>2012-08-07T09:21:03Z</time>
      </trkpt>
      <trkpt lat="45.69973" lon="5.97641">
        <ele>858.11</ele>
        <time>2012-08-07T09:21:04Z</time>
      </trkpt>
      <trkpt lat="45.69977" lon="5.97621">
        <ele>858.11</ele>
        <time>2012-08-07T09:21:05Z</time>
      </trkpt>
      <trkpt lat="45.69981" lon="5.97601">
        <ele>853.79</ele>
        <time>2012-08-07T09:21:06Z</time>
      </trkpt>
      <trkpt lat="45.69984" lon="5.97582">
        <ele>854.27</ele>
        <time>2012-08-07T09:21:07Z</time>
      </trkpt>
      <trkpt lat="45.69985" lon="5.97563">
        <ele>852.83</ele>
        <time>2012-08-07T09:21:08Z</time>
      </trkpt>
      <trkpt lat="45.69984" lon="5.97545">
        <ele>852.83</ele>
        <time>2012-08-07T09:21:09Z</time>
      </trkpt>
      <trkpt lat="45.69982" lon="5.97527">
        <ele>849.46</ele>
        <time>2012-08-07T09:21:10Z</time>
      </trkpt>
      <trkpt lat="45.69976" lon="5.97509">
        <ele>848.98</ele>
        <time>2012-08-07T09:21:11Z</time>
      </trkpt>
      <trkpt lat="45.69969" lon="5.97491">
        <ele>847.54</ele>
        <time>2012-08-07T09:21:12Z</time>
      </trkpt>
      <trkpt lat="45.69961" lon="5.97474">
        <ele>846.1</ele>
        <time>2012-08-07T09:21:13Z</time>
      </trkpt>
      <trkpt lat="45.6995" lon="5.97459">
        <ele>846.1</ele>
        <time>2012-08-07T09:21:14Z</time>
      </trkpt>
      <trkpt lat="45.69939" lon="5.97445">
        <ele>841.29</ele>
        <time>2012-08-07T09:21:15Z</time>
      </trkpt>
      <trkpt lat="45.69927" lon="5.97431">
        <ele>844.18</ele>
        <time>2012-08-07T09:21:16Z</time>
      </trkpt>
      <trkpt lat="45.69898" lon="5.97389">
        <ele>839.85</ele>
        <time>2012-08-07T09:21:19Z</time>
      </trkpt>
      <trkpt lat="45.69891" lon="5.97371">
        <ele>839.37</ele>
        <time>2012-08-07T09:21:20Z</time>
      </trkpt>
      <trkpt lat="45.69885" lon="5.97351">
        <ele>837.93</ele>
        <time>2012-08-07T09:21:21Z</time>
      </trkpt>
      <trkpt lat="45.6988" lon="5.97328">
        <ele>837.45</ele>
        <time>2012-08-07T09:21:22Z</time>
      </trkpt>
      <trkpt lat="45.69877" lon="5.97304">
        <ele>836.48</ele>
        <time>2012-08-07T09:21:23Z</time>
      </trkpt>
      <trkpt lat="45.69873" lon="5.97279">
        <ele>835.52</ele>
        <time>2012-08-07T09:21:24Z</time>
      </trkpt>
      <trkpt lat="45.69865" lon="5.97225">
        <ele>833.12</ele>
        <time>2012-08-07T09:21:26Z</time>
      </trkpt>
      <trkpt lat="45.69853" lon="5.97172">
        <ele>829.76</ele>
        <time>2012-08-07T09:21:28Z</time>
      </trkpt>
      <trkpt lat="45.69836" lon="5.97096">
        <ele>825.43</ele>
        <time>2012-08-07T09:21:31Z</time>
      </trkpt>
      <trkpt lat="45.69822" lon="5.97024">
        <ele>820.62</ele>
        <time>2012-08-07T09:21:34Z</time>
      </trkpt>
      <trkpt lat="45.69816" lon="5.96986">
        <ele>816.3</ele>
        <time>2012-08-07T09:21:36Z</time>
      </trkpt>
      <trkpt lat="45.69814" lon="5.96968">
        <ele>814.85</ele>
        <time>2012-08-07T09:21:37Z</time>
      </trkpt>
      <trkpt lat="45.69814" lon="5.96951">
        <ele>814.37</ele>
        <time>2012-08-07T09:21:38Z</time>
      </trkpt>
      <trkpt lat="45.69817" lon="5.96932">
        <ele>813.89</ele>
        <time>2012-08-07T09:21:39Z</time>
      </trkpt>
      <trkpt lat="45.69823" lon="5.96914">
        <ele>812.45</ele>
        <time>2012-08-07T09:21:40Z</time>
      </trkpt>
      <trkpt lat="45.69831" lon="5.96896">
        <ele>811.97</ele>
        <time>2012-08-07T09:21:41Z</time>
      </trkpt>
      <trkpt lat="45.69839" lon="5.96878">
        <ele>810.05</ele>
        <time>2012-08-07T09:21:42Z</time>
      </trkpt>
      <trkpt lat="45.69844" lon="5.96859">
        <ele>809.57</ele>
        <time>2012-08-07T09:21:43Z</time>
      </trkpt>
      <trkpt lat="45.69845" lon="5.96837">
        <ele>809.09</ele>
        <time>2012-08-07T09:21:44Z</time>
      </trkpt>
      <trkpt lat="45.69844" lon="5.96816">
        <ele>808.61</ele>
        <time>2012-08-07T09:21:45Z</time>
      </trkpt>
      <trkpt lat="45.69842" lon="5.96795">
        <ele>806.2</ele>
        <time>2012-08-07T09:21:46Z</time>
      </trkpt>
      <trkpt lat="45.69833" lon="5.96741">
        <ele>802.84</ele>
        <time>2012-08-07T09:21:49Z</time>
      </trkpt>
      <trkpt lat="45.69827" lon="5.96725">
        <ele>801.4</ele>
        <time>2012-08-07T09:21:50Z</time>
      </trkpt>
      <trkpt lat="45.69818" lon="5.9671">
        <ele>800.92</ele>
        <time>2012-08-07T09:21:51Z</time>
      </trkpt>
      <trkpt lat="45.69808" lon="5.96697">
        <ele>800.92</ele>
        <time>2012-08-07T09:21:52Z</time>
      </trkpt>
      <trkpt lat="45.69795" lon="5.96686">
        <ele>800.44</ele>
        <time>2012-08-07T09:21:53Z</time>
      </trkpt>
      <trkpt lat="45.69782" lon="5.96675">
        <ele>798.99</ele>
        <time>2012-08-07T09:21:54Z</time>
      </trkpt>
      <trkpt lat="45.6976" lon="5.96656">
        <ele>795.15</ele>
        <time>2012-08-07T09:21:56Z</time>
      </trkpt>
      <trkpt lat="45.69744" lon="5.96639">
        <ele>792.26</ele>
        <time>2012-08-07T09:21:58Z</time>
      </trkpt>
      <trkpt lat="45.69742" lon="5.96629">
        <ele>791.3</ele>
        <time>2012-08-07T09:21:59Z</time>
      </trkpt>
      <trkpt lat="45.69742" lon="5.9662">
        <ele>790.82</ele>
        <time>2012-08-07T09:22:00Z</time>
      </trkpt>
      <trkpt lat="45.69745" lon="5.96612">
        <ele>790.34</ele>
        <time>2012-08-07T09:22:01Z</time>
      </trkpt>
      <trkpt lat="45.69749" lon="5.96608">
        <ele>790.82</ele>
        <time>2012-08-07T09:22:02Z</time>
      </trkpt>
      <trkpt lat="45.69758" lon="5.96609">
        <ele>790.82</ele>
        <time>2012-08-07T09:22:03Z</time>
      </trkpt>
      <trkpt lat="45.69772" lon="5.96613">
        <ele>790.82</ele>
        <time>2012-08-07T09:22:04Z</time>
      </trkpt>
      <trkpt lat="45.69791" lon="5.96614">
        <ele>789.86</ele>
        <time>2012-08-07T09:22:05Z</time>
      </trkpt>
      <trkpt lat="45.6981" lon="5.96616">
        <ele>789.86</ele>
        <time>2012-08-07T09:22:06Z</time>
      </trkpt>
      <trkpt lat="45.69829" lon="5.96618">
        <ele>788.9</ele>
        <time>2012-08-07T09:22:07Z</time>
      </trkpt>
      <trkpt lat="45.69847" lon="5.96622">
        <ele>786.5</ele>
        <time>2012-08-07T09:22:08Z</time>
      </trkpt>
      <trkpt lat="45.69896" lon="5.96635">
        <ele>781.21</ele>
        <time>2012-08-07T09:22:11Z</time>
      </trkpt>
      <trkpt lat="45.69944" lon="5.96648">
        <ele>777.36</ele>
        <time>2012-08-07T09:22:14Z</time>
      </trkpt>
      <trkpt lat="45.69988" lon="5.96662">
        <ele>773.52</ele>
        <time>2012-08-07T09:22:17Z</time>
      </trkpt>
      <trkpt lat="45.70028" lon="5.96674">
        <ele>769.67</ele>
        <time>2012-08-07T09:22:20Z</time>
      </trkpt>
      <trkpt lat="45.70059" lon="5.96687">
        <ele>766.79</ele>
        <time>2012-08-07T09:22:23Z</time>
      </trkpt>
      <trkpt lat="45.70066" lon="5.96693">
        <ele>764.87</ele>
        <time>2012-08-07T09:22:24Z</time>
      </trkpt>
      <trkpt lat="45.70073" lon="5.96702">
        <ele>764.39</ele>
        <time>2012-08-07T09:22:25Z</time>
      </trkpt>
      <trkpt lat="45.70078" lon="5.96712">
        <ele>763.9</ele>
        <time>2012-08-07T09:22:26Z</time>
      </trkpt>
      <trkpt lat="45.70082" lon="5.96724">
        <ele>762.94</ele>
        <time>2012-08-07T09:22:27Z</time>
      </trkpt>
      <trkpt lat="45.70085" lon="5.96738">
        <ele>762.46</ele>
        <time>2012-08-07T09:22:28Z</time>
      </trkpt>
      <trkpt lat="45.70087" lon="5.96753">
        <ele>761.5</ele>
        <time>2012-08-07T09:22:29Z</time>
      </trkpt>
      <trkpt lat="45.7009" lon="5.96768">
        <ele>760.54</ele>
        <time>2012-08-07T09:22:30Z</time>
      </trkpt>
      <trkpt lat="45.70096" lon="5.96782">
        <ele>760.06</ele>
        <time>2012-08-07T09:22:31Z</time>
      </trkpt>
      <trkpt lat="45.70104" lon="5.96796">
        <ele>759.1</ele>
        <time>2012-08-07T09:22:32Z</time>
      </trkpt>
      <trkpt lat="45.70114" lon="5.96809">
        <ele>758.14</ele>
        <time>2012-08-07T09:22:33Z</time>
      </trkpt>
      <trkpt lat="45.70124" lon="5.96821">
        <ele>756.69</ele>
        <time>2012-08-07T09:22:34Z</time>
      </trkpt>
      <trkpt lat="45.70136" lon="5.96832">
        <ele>754.29</ele>
        <time>2012-08-07T09:22:35Z</time>
      </trkpt>
      <trkpt lat="45.70148" lon="5.9684">
        <ele>753.33</ele>
        <time>2012-08-07T09:22:36Z</time>
      </trkpt>
      <trkpt lat="45.70162" lon="5.96847">
        <ele>752.37</ele>
        <time>2012-08-07T09:22:37Z</time>
      </trkpt>
      <trkpt lat="45.70177" lon="5.96852">
        <ele>751.41</ele>
        <time>2012-08-07T09:22:38Z</time>
      </trkpt>
      <trkpt lat="45.70225" lon="5.96865">
        <ele>748.52</ele>
        <time>2012-08-07T09:22:41Z</time>
      </trkpt>
      <trkpt lat="45.70258" lon="5.96874">
        <ele>745.16</ele>
        <time>2012-08-07T09:22:43Z</time>
      </trkpt>
      <trkpt lat="45.7029" lon="5.96883">
        <ele>741.79</ele>
        <time>2012-08-07T09:22:45Z</time>
      </trkpt>
      <trkpt lat="45.70336" lon="5.96896">
        <ele>736.99</ele>
        <time>2012-08-07T09:22:48Z</time>
      </trkpt>
      <trkpt lat="45.70366" lon="5.9691">
        <ele>734.1</ele>
        <time>2012-08-07T09:22:50Z</time>
      </trkpt>
      <trkpt lat="45.70381" lon="5.96921">
        <ele>732.18</ele>
        <time>2012-08-07T09:22:51Z</time>
      </trkpt>
      <trkpt lat="45.70411" lon="5.96945">
        <ele>729.3</ele>
        <time>2012-08-07T09:22:53Z</time>
      </trkpt>
      <trkpt lat="45.7044" lon="5.96971">
        <ele>725.45</ele>
        <time>2012-08-07T09:22:55Z</time>
      </trkpt>
      <trkpt lat="45.70483" lon="5.97016">
        <ele>721.13</ele>
        <time>2012-08-07T09:22:58Z</time>
      </trkpt>
      <trkpt lat="45.70511" lon="5.97049">
        <ele>717.76</ele>
        <time>2012-08-07T09:23:00Z</time>
      </trkpt>
      <trkpt lat="45.70539" lon="5.9708">
        <ele>714.88</ele>
        <time>2012-08-07T09:23:02Z</time>
      </trkpt>
      <trkpt lat="45.70564" lon="5.9711">
        <ele>710.07</ele>
        <time>2012-08-07T09:23:04Z</time>
      </trkpt>
      <trkpt lat="45.70585" lon="5.97134">
        <ele>705.75</ele>
        <time>2012-08-07T09:23:06Z</time>
      </trkpt>
      <trkpt lat="45.70602" lon="5.97152">
        <ele>702.86</ele>
        <time>2012-08-07T09:23:08Z</time>
      </trkpt>
      <trkpt lat="45.70611" lon="5.97156">
        <ele>701.9</ele>
        <time>2012-08-07T09:23:09Z</time>
      </trkpt>
      <trkpt lat="45.70618" lon="5.97156">
        <ele>700.94</ele>
        <time>2012-08-07T09:23:10Z</time>
      </trkpt>
      <trkpt lat="45.70625" lon="5.97149">
        <ele>700.46</ele>
        <time>2012-08-07T09:23:11Z</time>
      </trkpt>
      <trkpt lat="45.7063" lon="5.97137">
        <ele>699.98</ele>
        <time>2012-08-07T09:23:12Z</time>
      </trkpt>
      <trkpt lat="45.70632" lon="5.97122">
        <ele>699.5</ele>
        <time>2012-08-07T09:23:13Z</time>
      </trkpt>
      <trkpt lat="45.70632" lon="5.97104">
        <ele>699.5</ele>
        <time>2012-08-07T09:23:14Z</time>
      </trkpt>
      <trkpt lat="45.7063" lon="5.97083">
        <ele>699.02</ele>
        <time>2012-08-07T09:23:15Z</time>
      </trkpt>
      <trkpt lat="45.70629" lon="5.97038">
        <ele>696.13</ele>
        <time>2012-08-07T09:23:17Z</time>
      </trkpt>
      <trkpt lat="45.70631" lon="5.97014">
        <ele>695.17</ele>
        <time>2012-08-07T09:23:18Z</time>
      </trkpt>
      <trkpt lat="45.70636" lon="5.9699">
        <ele>693.73</ele>
        <time>2012-08-07T09:23:19Z</time>
      </trkpt>
      <trkpt lat="45.70653" lon="5.96923">
        <ele>688.92</ele>
        <time>2012-08-07T09:23:22Z</time>
      </trkpt>
      <trkpt lat="45.70665" lon="5.96881">
        <ele>685.56</ele>
        <time>2012-08-07T09:23:24Z</time>
      </trkpt>
      <trkpt lat="45.70675" lon="5.96842">
        <ele>682.19</ele>
        <time>2012-08-07T09:23:26Z</time>
      </trkpt>
      <trkpt lat="45.70678" lon="5.96822">
        <ele>681.23</ele>
        <time>2012-08-07T09:23:27Z</time>
      </trkpt>
      <trkpt lat="45.70679" lon="5.96802">
        <ele>679.31</ele>
        <time>2012-08-07T09:23:28Z</time>
      </trkpt>
      <trkpt lat="45.70679" lon="5.96783">
        <ele>677.39</ele>
        <time>2012-08-07T09:23:29Z</time>
      </trkpt>
      <trkpt lat="45.70674" lon="5.96726">
        <ele>673.06</ele>
        <time>2012-08-07T09:23:32Z</time>
      </trkpt>
      <trkpt lat="45.7067" lon="5.96694">
        <ele>671.62</ele>
        <time>2012-08-07T09:23:34Z</time>
      </trkpt>
      <trkpt lat="45.70648" lon="5.965">
        <ele>671.14</ele>
        <time>2012-08-07T09:23:43Z</time>
      </trkpt>
      <trkpt lat="45.7064" lon="5.96433">
        <ele>667.77</ele>
        <time>2012-08-07T09:23:46Z</time>
      </trkpt>
      <trkpt lat="45.70632" lon="5.96352">
        <ele>663.93</ele>
        <time>2012-08-07T09:23:50Z</time>
      </trkpt>
      <trkpt lat="45.70624" lon="5.96279">
        <ele>659.12</ele>
        <time>2012-08-07T09:23:54Z</time>
      </trkpt>
      <trkpt lat="45.70619" lon="5.96227">
        <ele>655.28</ele>
        <time>2012-08-07T09:23:57Z</time>
      </trkpt>
      <trkpt lat="45.70613" lon="5.96194">
        <ele>652.87</ele>
        <time>2012-08-07T09:23:59Z</time>
      </trkpt>
      <trkpt lat="45.70608" lon="5.96178">
        <ele>652.39</ele>
        <time>2012-08-07T09:24:00Z</time>
      </trkpt>
      <trkpt lat="45.70602" lon="5.96162">
        <ele>651.91</ele>
        <time>2012-08-07T09:24:01Z</time>
      </trkpt>
      <trkpt lat="45.70594" lon="5.96147">
        <ele>651.91</ele>
        <time>2012-08-07T09:24:02Z</time>
      </trkpt>
      <trkpt lat="45.70585" lon="5.96132">
        <ele>651.43</ele>
        <time>2012-08-07T09:24:03Z</time>
      </trkpt>
      <trkpt lat="45.70569" lon="5.96104">
        <ele>648.07</ele>
        <time>2012-08-07T09:24:05Z</time>
      </trkpt>
      <trkpt lat="45.70552" lon="5.9607">
        <ele>645.66</ele>
        <time>2012-08-07T09:24:08Z</time>
      </trkpt>
      <trkpt lat="45.70551" lon="5.96058">
        <ele>644.7</ele>
        <time>2012-08-07T09:24:09Z</time>
      </trkpt>
      <trkpt lat="45.70552" lon="5.96045">
        <ele>643.74</ele>
        <time>2012-08-07T09:24:10Z</time>
      </trkpt>
      <trkpt lat="45.70557" lon="5.96034">
        <ele>643.74</ele>
        <time>2012-08-07T09:24:11Z</time>
      </trkpt>
      <trkpt lat="45.70565" lon="5.96023">
        <ele>643.74</ele>
        <time>2012-08-07T09:24:12Z</time>
      </trkpt>
      <trkpt lat="45.70574" lon="5.96013">
        <ele>642.78</ele>
        <time>2012-08-07T09:24:13Z</time>
      </trkpt>
      <trkpt lat="45.70608" lon="5.95968">
        <ele>640.86</ele>
        <time>2012-08-07T09:24:17Z</time>
      </trkpt>
      <trkpt lat="45.70615" lon="5.95954">
        <ele>640.86</ele>
        <time>2012-08-07T09:24:18Z</time>
      </trkpt>
      <trkpt lat="45.70621" lon="5.95939">
        <ele>640.38</ele>
        <time>2012-08-07T09:24:19Z</time>
      </trkpt>
      <trkpt lat="45.70626" lon="5.95924">
        <ele>640.38</ele>
        <time>2012-08-07T09:24:20Z</time>
      </trkpt>
      <trkpt lat="45.7063" lon="5.95908">
        <ele>640.38</ele>
        <time>2012-08-07T09:24:21Z</time>
      </trkpt>
      <trkpt lat="45.70652" lon="5.95842">
        <ele>639.89</ele>
        <time>2012-08-07T09:24:25Z</time>
      </trkpt>
      <trkpt lat="45.70661" lon="5.95827">
        <ele>640.38</ele>
        <time>2012-08-07T09:24:26Z</time>
      </trkpt>
      <trkpt lat="45.70671" lon="5.95815">
        <ele>639.89</ele>
        <time>2012-08-07T09:24:27Z</time>
      </trkpt>
      <trkpt lat="45.70682" lon="5.95805">
        <ele>639.89</ele>
        <time>2012-08-07T09:24:28Z</time>
      </trkpt>
      <trkpt lat="45.70694" lon="5.95797">
        <ele>641.34</ele>
        <time>2012-08-07T09:24:29Z</time>
      </trkpt>
      <trkpt lat="45.70753" lon="5.95743">
        <ele>644.7</ele>
        <time>2012-08-07T09:24:34Z</time>
      </trkpt>
      <trkpt lat="45.70808" lon="5.95666">
        <ele>646.62</ele>
        <time>2012-08-07T09:24:40Z</time>
      </trkpt>
      <trkpt lat="45.70836" lon="5.95622">
        <ele>643.74</ele>
        <time>2012-08-07T09:24:46Z</time>
      </trkpt>
      <trkpt lat="45.7085" lon="5.95601">
        <ele>643.26</ele>
        <time>2012-08-07T09:24:51Z</time>
      </trkpt>
      <trkpt lat="45.70853" lon="5.95598">
        <ele>642.78</ele>
        <time>2012-08-07T09:24:52Z</time>
      </trkpt>
      <trkpt lat="45.70862" lon="5.95592">
        <ele>641.82</ele>
        <time>2012-08-07T09:24:55Z</time>
      </trkpt>
      <trkpt lat="45.70897" lon="5.95579">
        <ele>639.89</ele>
        <time>2012-08-07T09:25:01Z</time>
      </trkpt>
      <trkpt lat="45.70902" lon="5.95574">
        <ele>638.93</ele>
        <time>2012-08-07T09:25:02Z</time>
      </trkpt>
      <trkpt lat="45.70907" lon="5.95566">
        <ele>638.45</ele>
        <time>2012-08-07T09:25:03Z</time>
      </trkpt>
      <trkpt lat="45.70911" lon="5.95556">
        <ele>637.97</ele>
        <time>2012-08-07T09:25:04Z</time>
      </trkpt>
      <trkpt lat="45.70912" lon="5.95544">
        <ele>637.49</ele>
        <time>2012-08-07T09:25:05Z</time>
      </trkpt>
      <trkpt lat="45.70912" lon="5.95531">
        <ele>637.49</ele>
        <time>2012-08-07T09:25:06Z</time>
      </trkpt>
      <trkpt lat="45.7091" lon="5.95519">
        <ele>636.05</ele>
        <time>2012-08-07T09:25:07Z</time>
      </trkpt>
      <trkpt lat="45.70908" lon="5.95507">
        <ele>636.05</ele>
        <time>2012-08-07T09:25:08Z</time>
      </trkpt>
      <trkpt lat="45.70902" lon="5.95482">
        <ele>635.09</ele>
        <time>2012-08-07T09:25:10Z</time>
      </trkpt>
      <trkpt lat="45.70889" lon="5.95446">
        <ele>633.65</ele>
        <time>2012-08-07T09:25:13Z</time>
      </trkpt>
      <trkpt lat="45.7086" lon="5.95389">
        <ele>631.72</ele>
        <time>2012-08-07T09:25:18Z</time>
      </trkpt>
      <trkpt lat="45.70813" lon="5.95318">
        <ele>628.84</ele>
        <time>2012-08-07T09:25:25Z</time>
      </trkpt>
      <trkpt lat="45.70782" lon="5.95275">
        <ele>626.92</ele>
        <time>2012-08-07T09:25:29Z</time>
      </trkpt>
      <trkpt lat="45.70749" lon="5.95234">
        <ele>623.55</ele>
        <time>2012-08-07T09:25:33Z</time>
      </trkpt>
      <trkpt lat="45.70722" lon="5.95202">
        <ele>619.71</ele>
        <time>2012-08-07T09:25:37Z</time>
      </trkpt>
      <trkpt lat="45.70719" lon="5.952">
        <ele>619.23</ele>
        <time>2012-08-07T09:25:38Z</time>
      </trkpt>
      <trkpt lat="45.70718" lon="5.95199">
        <ele>618.75</ele>
        <time>2012-08-07T09:25:39Z</time>
      </trkpt>
      <trkpt lat="45.70716" lon="5.952">
        <ele>619.23</ele>
        <time>2012-08-07T09:25:47Z</time>
      </trkpt>
      <trkpt lat="45.70716" lon="5.95198">
        <ele>618.75</ele>
        <time>2012-08-07T09:25:48Z</time>
      </trkpt>
      <trkpt lat="45.70714" lon="5.95194">
        <ele>618.26</ele>
        <time>2012-08-07T09:25:53Z</time>
      </trkpt>
      <trkpt lat="45.70698" lon="5.95177">
        <ele>617.3</ele>
        <time>2012-08-07T09:26:00Z</time>
      </trkpt>
      <trkpt lat="45.70697" lon="5.95171">
        <ele>617.3</ele>
        <time>2012-08-07T09:26:03Z</time>
      </trkpt>
      <trkpt lat="45.70697" lon="5.95168">
        <ele>616.82</ele>
        <time>2012-08-07T09:26:04Z</time>
      </trkpt>
      <trkpt lat="45.70697" lon="5.95163">
        <ele>616.82</ele>
        <time>2012-08-07T09:26:05Z</time>
      </trkpt>
      <trkpt lat="45.70699" lon="5.9516">
        <ele>615.86</ele>
        <time>2012-08-07T09:26:06Z</time>
      </trkpt>
      <trkpt lat="45.70701" lon="5.95157">
        <ele>615.86</ele>
        <time>2012-08-07T09:26:07Z</time>
      </trkpt>
      <trkpt lat="45.70704" lon="5.95154">
        <ele>615.38</ele>
        <time>2012-08-07T09:26:08Z</time>
      </trkpt>
      <trkpt lat="45.70708" lon="5.95152">
        <ele>615.86</ele>
        <time>2012-08-07T09:26:09Z</time>
      </trkpt>
      <trkpt lat="45.70713" lon="5.9515">
        <ele>615.38</ele>
        <time>2012-08-07T09:26:10Z</time>
      </trkpt>
      <trkpt lat="45.70778" lon="5.9514">
        <ele>613.94</ele>
        <time>2012-08-07T09:26:18Z</time>
      </trkpt>
      <trkpt lat="45.70846" lon="5.95129">
        <ele>609.61</ele>
        <time>2012-08-07T09:26:23Z</time>
      </trkpt>
      <trkpt lat="45.70872" lon="5.9513">
        <ele>607.21</ele>
        <time>2012-08-07T09:26:25Z</time>
      </trkpt>
      <trkpt lat="45.70885" lon="5.95135">
        <ele>606.73</ele>
        <time>2012-08-07T09:26:26Z</time>
      </trkpt>
      <trkpt lat="45.70897" lon="5.95145">
        <ele>606.25</ele>
        <time>2012-08-07T09:26:27Z</time>
      </trkpt>
      <trkpt lat="45.70908" lon="5.95158">
        <ele>604.33</ele>
        <time>2012-08-07T09:26:28Z</time>
      </trkpt>
      <trkpt lat="45.7092" lon="5.95174">
        <ele>603.85</ele>
        <time>2012-08-07T09:26:29Z</time>
      </trkpt>
      <trkpt lat="45.70931" lon="5.95189">
        <ele>603.36</ele>
        <time>2012-08-07T09:26:30Z</time>
      </trkpt>
      <trkpt lat="45.70945" lon="5.95203">
        <ele>602.4</ele>
        <time>2012-08-07T09:26:31Z</time>
      </trkpt>
      <trkpt lat="45.70959" lon="5.95214">
        <ele>601.44</ele>
        <time>2012-08-07T09:26:32Z</time>
      </trkpt>
      <trkpt lat="45.70975" lon="5.95223">
        <ele>600</ele>
        <time>2012-08-07T09:26:33Z</time>
      </trkpt>
      <trkpt lat="45.70991" lon="5.95231">
        <ele>598.08</ele>
        <time>2012-08-07T09:26:34Z</time>
      </trkpt>
      <trkpt lat="45.71023" lon="5.95247">
        <ele>594.71</ele>
        <time>2012-08-07T09:26:36Z</time>
      </trkpt>
      <trkpt lat="45.71083" lon="5.95279">
        <ele>591.35</ele>
        <time>2012-08-07T09:26:40Z</time>
      </trkpt>
      <trkpt lat="45.71098" lon="5.95289">
        <ele>589.91</ele>
        <time>2012-08-07T09:26:41Z</time>
      </trkpt>
      <trkpt lat="45.71112" lon="5.95302">
        <ele>588.46</ele>
        <time>2012-08-07T09:26:42Z</time>
      </trkpt>
      <trkpt lat="45.71137" lon="5.95329">
        <ele>585.58</ele>
        <time>2012-08-07T09:26:44Z</time>
      </trkpt>
      <trkpt lat="45.71151" lon="5.95342">
        <ele>585.1</ele>
        <time>2012-08-07T09:26:45Z</time>
      </trkpt>
      <trkpt lat="45.71166" lon="5.95351">
        <ele>583.66</ele>
        <time>2012-08-07T09:26:46Z</time>
      </trkpt>
      <trkpt lat="45.71215" lon="5.9537">
        <ele>579.81</ele>
        <time>2012-08-07T09:26:49Z</time>
      </trkpt>
      <trkpt lat="45.71249" lon="5.95374">
        <ele>577.41</ele>
        <time>2012-08-07T09:26:51Z</time>
      </trkpt>
      <trkpt lat="45.71266" lon="5.95374">
        <ele>576.45</ele>
        <time>2012-08-07T09:26:52Z</time>
      </trkpt>
      <trkpt lat="45.71298" lon="5.9537">
        <ele>571.64</ele>
        <time>2012-08-07T09:26:54Z</time>
      </trkpt>
      <trkpt lat="45.71338" lon="5.95366">
        <ele>567.8</ele>
        <time>2012-08-07T09:26:57Z</time>
      </trkpt>
      <trkpt lat="45.7137" lon="5.95364">
        <ele>563.95</ele>
        <time>2012-08-07T09:27:00Z</time>
      </trkpt>
      <trkpt lat="45.71394" lon="5.95361">
        <ele>562.51</ele>
        <time>2012-08-07T09:27:02Z</time>
      </trkpt>
      <trkpt lat="45.7142" lon="5.95355">
        <ele>561.07</ele>
        <time>2012-08-07T09:27:04Z</time>
      </trkpt>
      <trkpt lat="45.71431" lon="5.95347">
        <ele>559.62</ele>
        <time>2012-08-07T09:27:05Z</time>
      </trkpt>
      <trkpt lat="45.71441" lon="5.95336">
        <ele>558.66</ele>
        <time>2012-08-07T09:27:06Z</time>
      </trkpt>
      <trkpt lat="45.7145" lon="5.95319">
        <ele>558.18</ele>
        <time>2012-08-07T09:27:07Z</time>
      </trkpt>
      <trkpt lat="45.7146" lon="5.95298">
        <ele>557.7</ele>
        <time>2012-08-07T09:27:08Z</time>
      </trkpt>
      <trkpt lat="45.71469" lon="5.95277">
        <ele>555.3</ele>
        <time>2012-08-07T09:27:09Z</time>
      </trkpt>
      <trkpt lat="45.71487" lon="5.95237">
        <ele>551.93</ele>
        <time>2012-08-07T09:27:11Z</time>
      </trkpt>
      <trkpt lat="45.71504" lon="5.952">
        <ele>548.57</ele>
        <time>2012-08-07T09:27:13Z</time>
      </trkpt>
      <trkpt lat="45.71517" lon="5.95169">
        <ele>545.2</ele>
        <time>2012-08-07T09:27:15Z</time>
      </trkpt>
      <trkpt lat="45.7152" lon="5.95154">
        <ele>543.76</ele>
        <time>2012-08-07T09:27:16Z</time>
      </trkpt>
      <trkpt lat="45.71521" lon="5.95137">
        <ele>542.8</ele>
        <time>2012-08-07T09:27:17Z</time>
      </trkpt>
      <trkpt lat="45.7152" lon="5.95122">
        <ele>541.84</ele>
        <time>2012-08-07T09:27:18Z</time>
      </trkpt>
      <trkpt lat="45.71519" lon="5.95109">
        <ele>538.96</ele>
        <time>2012-08-07T09:27:19Z</time>
      </trkpt>
      <trkpt lat="45.7152" lon="5.95097">
        <ele>537.99</ele>
        <time>2012-08-07T09:27:20Z</time>
      </trkpt>
      <trkpt lat="45.71523" lon="5.95087">
        <ele>537.03</ele>
        <time>2012-08-07T09:27:21Z</time>
      </trkpt>
      <trkpt lat="45.71529" lon="5.95082">
        <ele>536.55</ele>
        <time>2012-08-07T09:27:22Z</time>
      </trkpt>
      <trkpt lat="45.71537" lon="5.95082">
        <ele>536.07</ele>
        <time>2012-08-07T09:27:23Z</time>
      </trkpt>
      <trkpt lat="45.71547" lon="5.95087">
        <ele>536.07</ele>
        <time>2012-08-07T09:27:24Z</time>
      </trkpt>
      <trkpt lat="45.71556" lon="5.95094">
        <ele>535.59</ele>
        <time>2012-08-07T09:27:25Z</time>
      </trkpt>
      <trkpt lat="45.71565" lon="5.95101">
        <ele>535.11</ele>
        <time>2012-08-07T09:27:26Z</time>
      </trkpt>
      <trkpt lat="45.71576" lon="5.95105">
        <ele>534.63</ele>
        <time>2012-08-07T09:27:27Z</time>
      </trkpt>
      <trkpt lat="45.71589" lon="5.95105">
        <ele>534.63</ele>
        <time>2012-08-07T09:27:28Z</time>
      </trkpt>
      <trkpt lat="45.71603" lon="5.95103">
        <ele>533.67</ele>
        <time>2012-08-07T09:27:29Z</time>
      </trkpt>
      <trkpt lat="45.71647" lon="5.95096">
        <ele>529.34</ele>
        <time>2012-08-07T09:27:32Z</time>
      </trkpt>
      <trkpt lat="45.71683" lon="5.95089">
        <ele>526.46</ele>
        <time>2012-08-07T09:27:35Z</time>
      </trkpt>
      <trkpt lat="45.71693" lon="5.95083">
        <ele>525.5</ele>
        <time>2012-08-07T09:27:36Z</time>
      </trkpt>
      <trkpt lat="45.71701" lon="5.95075">
        <ele>524.06</ele>
        <time>2012-08-07T09:27:37Z</time>
      </trkpt>
      <trkpt lat="45.71708" lon="5.95064">
        <ele>522.61</ele>
        <time>2012-08-07T09:27:38Z</time>
      </trkpt>
      <trkpt lat="45.71711" lon="5.95051">
        <ele>521.17</ele>
        <time>2012-08-07T09:27:39Z</time>
      </trkpt>
      <trkpt lat="45.71713" lon="5.95037">
        <ele>520.21</ele>
        <time>2012-08-07T09:27:40Z</time>
      </trkpt>
      <trkpt lat="45.71712" lon="5.95024">
        <ele>519.73</ele>
        <time>2012-08-07T09:27:41Z</time>
      </trkpt>
      <trkpt lat="45.71708" lon="5.95012">
        <ele>518.29</ele>
        <time>2012-08-07T09:27:42Z</time>
      </trkpt>
      <trkpt lat="45.71702" lon="5.95002">
        <ele>516.37</ele>
        <time>2012-08-07T09:27:43Z</time>
      </trkpt>
      <trkpt lat="45.71696" lon="5.94993">
        <ele>516.37</ele>
        <time>2012-08-07T09:27:44Z</time>
      </trkpt>
      <trkpt lat="45.71689" lon="5.94986">
        <ele>515.88</ele>
        <time>2012-08-07T09:27:45Z</time>
      </trkpt>
      <trkpt lat="45.71675" lon="5.94972">
        <ele>514.92</ele>
        <time>2012-08-07T09:27:47Z</time>
      </trkpt>
      <trkpt lat="45.71664" lon="5.94956">
        <ele>514.44</ele>
        <time>2012-08-07T09:27:49Z</time>
      </trkpt>
      <trkpt lat="45.71662" lon="5.94946">
        <ele>513</ele>
        <time>2012-08-07T09:27:50Z</time>
      </trkpt>
      <trkpt lat="45.71661" lon="5.94936">
        <ele>512.04</ele>
        <time>2012-08-07T09:27:51Z</time>
      </trkpt>
      <trkpt lat="45.71664" lon="5.94926">
        <ele>511.08</ele>
        <time>2012-08-07T09:27:52Z</time>
      </trkpt>
      <trkpt lat="45.71668" lon="5.94917">
        <ele>510.6</ele>
        <time>2012-08-07T09:27:53Z</time>
      </trkpt>
      <trkpt lat="45.71673" lon="5.94905">
        <ele>510.6</ele>
        <time>2012-08-07T09:27:54Z</time>
      </trkpt>
      <trkpt lat="45.71682" lon="5.94891">
        <ele>511.56</ele>
        <time>2012-08-07T09:27:55Z</time>
      </trkpt>
      <trkpt lat="45.71695" lon="5.94875">
        <ele>510.12</ele>
        <time>2012-08-07T09:27:56Z</time>
      </trkpt>
      <trkpt lat="45.71733" lon="5.94829">
        <ele>507.23</ele>
        <time>2012-08-07T09:27:59Z</time>
      </trkpt>
      <trkpt lat="45.7176" lon="5.94803">
        <ele>504.83</ele>
        <time>2012-08-07T09:28:01Z</time>
      </trkpt>
      <trkpt lat="45.71775" lon="5.94793">
        <ele>503.87</ele>
        <time>2012-08-07T09:28:02Z</time>
      </trkpt>
      <trkpt lat="45.71804" lon="5.94775">
        <ele>500.5</ele>
        <time>2012-08-07T09:28:04Z</time>
      </trkpt>
      <trkpt lat="45.71831" lon="5.94759">
        <ele>497.62</ele>
        <time>2012-08-07T09:28:06Z</time>
      </trkpt>
      <trkpt lat="45.71843" lon="5.94749">
        <ele>496.18</ele>
        <time>2012-08-07T09:28:07Z</time>
      </trkpt>
      <trkpt lat="45.71854" lon="5.94739">
        <ele>495.7</ele>
        <time>2012-08-07T09:28:08Z</time>
      </trkpt>
      <trkpt lat="45.71864" lon="5.94727">
        <ele>493.29</ele>
        <time>2012-08-07T09:28:09Z</time>
      </trkpt>
      <trkpt lat="45.71871" lon="5.94713">
        <ele>490.89</ele>
        <time>2012-08-07T09:28:10Z</time>
      </trkpt>
      <trkpt lat="45.71875" lon="5.94697">
        <ele>489.93</ele>
        <time>2012-08-07T09:28:11Z</time>
      </trkpt>
      <trkpt lat="45.71876" lon="5.9468">
        <ele>489.45</ele>
        <time>2012-08-07T09:28:12Z</time>
      </trkpt>
      <trkpt lat="45.71875" lon="5.94663">
        <ele>488.01</ele>
        <time>2012-08-07T09:28:13Z</time>
      </trkpt>
      <trkpt lat="45.7187" lon="5.94646">
        <ele>487.53</ele>
        <time>2012-08-07T09:28:14Z</time>
      </trkpt>
      <trkpt lat="45.71862" lon="5.94628">
        <ele>487.05</ele>
        <time>2012-08-07T09:28:15Z</time>
      </trkpt>
      <trkpt lat="45.71853" lon="5.9461">
        <ele>486.08</ele>
        <time>2012-08-07T09:28:16Z</time>
      </trkpt>
      <trkpt lat="45.71812" lon="5.94528">
        <ele>480.8</ele>
        <time>2012-08-07T09:28:20Z</time>
      </trkpt>
      <trkpt lat="45.71783" lon="5.94463">
        <ele>476.95</ele>
        <time>2012-08-07T09:28:23Z</time>
      </trkpt>
      <trkpt lat="45.71775" lon="5.94439">
        <ele>476.95</ele>
        <time>2012-08-07T09:28:24Z</time>
      </trkpt>
      <trkpt lat="45.71753" lon="5.94373">
        <ele>473.11</ele>
        <time>2012-08-07T09:28:27Z</time>
      </trkpt>
      <trkpt lat="45.71745" lon="5.94355">
        <ele>471.18</ele>
        <time>2012-08-07T09:28:28Z</time>
      </trkpt>
      <trkpt lat="45.71736" lon="5.94339">
        <ele>469.74</ele>
        <time>2012-08-07T09:28:29Z</time>
      </trkpt>
      <trkpt lat="45.71729" lon="5.94326">
        <ele>467.34</ele>
        <time>2012-08-07T09:28:30Z</time>
      </trkpt>
      <trkpt lat="45.71723" lon="5.94312">
        <ele>465.9</ele>
        <time>2012-08-07T09:28:31Z</time>
      </trkpt>
      <trkpt lat="45.71722" lon="5.94298">
        <ele>464.45</ele>
        <time>2012-08-07T09:28:32Z</time>
      </trkpt>
      <trkpt lat="45.71725" lon="5.94283">
        <ele>464.93</ele>
        <time>2012-08-07T09:28:33Z</time>
      </trkpt>
      <trkpt lat="45.71731" lon="5.94267">
        <ele>464.45</ele>
        <time>2012-08-07T09:28:34Z</time>
      </trkpt>
      <trkpt lat="45.71739" lon="5.94249">
        <ele>464.45</ele>
        <time>2012-08-07T09:28:35Z</time>
      </trkpt>
      <trkpt lat="45.71775" lon="5.94165">
        <ele>461.09</ele>
        <time>2012-08-07T09:28:39Z</time>
      </trkpt>
      <trkpt lat="45.71807" lon="5.94092">
        <ele>456.28</ele>
        <time>2012-08-07T09:28:42Z</time>
      </trkpt>
      <trkpt lat="45.71825" lon="5.94051">
        <ele>452.44</ele>
        <time>2012-08-07T09:28:44Z</time>
      </trkpt>
      <trkpt lat="45.71839" lon="5.94016">
        <ele>448.59</ele>
        <time>2012-08-07T09:28:46Z</time>
      </trkpt>
      <trkpt lat="45.71857" lon="5.93973">
        <ele>445.23</ele>
        <time>2012-08-07T09:28:49Z</time>
      </trkpt>
      <trkpt lat="45.71864" lon="5.93962">
        <ele>443.31</ele>
        <time>2012-08-07T09:28:50Z</time>
      </trkpt>
      <trkpt lat="45.71873" lon="5.93953">
        <ele>442.34</ele>
        <time>2012-08-07T09:28:51Z</time>
      </trkpt>
      <trkpt lat="45.71882" lon="5.93948">
        <ele>441.38</ele>
        <time>2012-08-07T09:28:52Z</time>
      </trkpt>
      <trkpt lat="45.71891" lon="5.93949">
        <ele>440.42</ele>
        <time>2012-08-07T09:28:53Z</time>
      </trkpt>
      <trkpt lat="45.71901" lon="5.93954">
        <ele>439.94</ele>
        <time>2012-08-07T09:28:54Z</time>
      </trkpt>
      <trkpt lat="45.71913" lon="5.93961">
        <ele>439.94</ele>
        <time>2012-08-07T09:28:55Z</time>
      </trkpt>
      <trkpt lat="45.71924" lon="5.93968">
        <ele>438.02</ele>
        <time>2012-08-07T09:28:56Z</time>
      </trkpt>
      <trkpt lat="45.71936" lon="5.93971">
        <ele>437.54</ele>
        <time>2012-08-07T09:28:57Z</time>
      </trkpt>
      <trkpt lat="45.71949" lon="5.93969">
        <ele>438.02</ele>
        <time>2012-08-07T09:28:58Z</time>
      </trkpt>
      <trkpt lat="45.71962" lon="5.93962">
        <ele>437.06</ele>
        <time>2012-08-07T09:28:59Z</time>
      </trkpt>
      <trkpt lat="45.71974" lon="5.93951">
        <ele>437.06</ele>
        <time>2012-08-07T09:29:00Z</time>
      </trkpt>
      <trkpt lat="45.71987" lon="5.93939">
        <ele>435.13</ele>
        <time>2012-08-07T09:29:01Z</time>
      </trkpt>
      <trkpt lat="45.72027" lon="5.93906">
        <ele>431.77</ele>
        <time>2012-08-07T09:29:04Z</time>
      </trkpt>
      <trkpt lat="45.72042" lon="5.93899">
        <ele>431.29</ele>
        <time>2012-08-07T09:29:05Z</time>
      </trkpt>
      <trkpt lat="45.72057" lon="5.93895">
        <ele>429.85</ele>
        <time>2012-08-07T09:29:06Z</time>
      </trkpt>
      <trkpt lat="45.72073" lon="5.93893">
        <ele>427.92</ele>
        <time>2012-08-07T09:29:07Z</time>
      </trkpt>
      <trkpt lat="45.72088" lon="5.93893">
        <ele>426.48</ele>
        <time>2012-08-07T09:29:08Z</time>
      </trkpt>
      <trkpt lat="45.72113" lon="5.93892">
        <ele>422.64</ele>
        <time>2012-08-07T09:29:10Z</time>
      </trkpt>
      <trkpt lat="45.72124" lon="5.93888">
        <ele>421.68</ele>
        <time>2012-08-07T09:29:11Z</time>
      </trkpt>
      <trkpt lat="45.72134" lon="5.9388">
        <ele>421.19</ele>
        <time>2012-08-07T09:29:12Z</time>
      </trkpt>
      <trkpt lat="45.72142" lon="5.93864">
        <ele>421.19</ele>
        <time>2012-08-07T09:29:13Z</time>
      </trkpt>
      <trkpt lat="45.72149" lon="5.93845">
        <ele>420.71</ele>
        <time>2012-08-07T09:29:14Z</time>
      </trkpt>
      <trkpt lat="45.72154" lon="5.93824">
        <ele>419.27</ele>
        <time>2012-08-07T09:29:15Z</time>
      </trkpt>
      <trkpt lat="45.72158" lon="5.93804">
        <ele>417.35</ele>
        <time>2012-08-07T09:29:16Z</time>
      </trkpt>
      <trkpt lat="45.72165" lon="5.93771">
        <ele>414.47</ele>
        <time>2012-08-07T09:29:18Z</time>
      </trkpt>
      <trkpt lat="45.72166" lon="5.93757">
        <ele>413.02</ele>
        <time>2012-08-07T09:29:19Z</time>
      </trkpt>
      <trkpt lat="45.72163" lon="5.93743">
        <ele>411.1</ele>
        <time>2012-08-07T09:29:20Z</time>
      </trkpt>
      <trkpt lat="45.72157" lon="5.9373">
        <ele>411.1</ele>
        <time>2012-08-07T09:29:21Z</time>
      </trkpt>
      <trkpt lat="45.72148" lon="5.9372">
        <ele>410.62</ele>
        <time>2012-08-07T09:29:22Z</time>
      </trkpt>
      <trkpt lat="45.72138" lon="5.93712">
        <ele>408.7</ele>
        <time>2012-08-07T09:29:23Z</time>
      </trkpt>
      <trkpt lat="45.72131" lon="5.93703">
        <ele>407.74</ele>
        <time>2012-08-07T09:29:24Z</time>
      </trkpt>
      <trkpt lat="45.72126" lon="5.93693">
        <ele>406.77</ele>
        <time>2012-08-07T09:29:25Z</time>
      </trkpt>
      <trkpt lat="45.72126" lon="5.93683">
        <ele>405.33</ele>
        <time>2012-08-07T09:29:26Z</time>
      </trkpt>
      <trkpt lat="45.72131" lon="5.93673">
        <ele>404.85</ele>
        <time>2012-08-07T09:29:27Z</time>
      </trkpt>
      <trkpt lat="45.72141" lon="5.93665">
        <ele>405.33</ele>
        <time>2012-08-07T09:29:28Z</time>
      </trkpt>
      <trkpt lat="45.72153" lon="5.93658">
        <ele>404.37</ele>
        <time>2012-08-07T09:29:29Z</time>
      </trkpt>
      <trkpt lat="45.72165" lon="5.93652">
        <ele>403.41</ele>
        <time>2012-08-07T09:29:30Z</time>
      </trkpt>
      <trkpt lat="45.72185" lon="5.9364">
        <ele>400.53</ele>
        <time>2012-08-07T09:29:32Z</time>
      </trkpt>
      <trkpt lat="45.72191" lon="5.93631">
        <ele>399.57</ele>
        <time>2012-08-07T09:29:33Z</time>
      </trkpt>
      <trkpt lat="45.72194" lon="5.93618">
        <ele>398.6</ele>
        <time>2012-08-07T09:29:34Z</time>
      </trkpt>
      <trkpt lat="45.72194" lon="5.93603">
        <ele>398.12</ele>
        <time>2012-08-07T09:29:35Z</time>
      </trkpt>
      <trkpt lat="45.72189" lon="5.93587">
        <ele>398.6</ele>
        <time>2012-08-07T09:29:36Z</time>
      </trkpt>
      <trkpt lat="45.72179" lon="5.93571">
        <ele>398.6</ele>
        <time>2012-08-07T09:29:37Z</time>
      </trkpt>
      <trkpt lat="45.72168" lon="5.93555">
        <ele>397.16</ele>
        <time>2012-08-07T09:29:38Z</time>
      </trkpt>
      <trkpt lat="45.72147" lon="5.93526">
        <ele>393.8</ele>
        <time>2012-08-07T09:29:40Z</time>
      </trkpt>
      <trkpt lat="45.72136" lon="5.93514">
        <ele>392.36</ele>
        <time>2012-08-07T09:29:41Z</time>
      </trkpt>
      <trkpt lat="45.72126" lon="5.93505">
        <ele>389.95</ele>
        <time>2012-08-07T09:29:42Z</time>
      </trkpt>
      <trkpt lat="45.72113" lon="5.93492">
        <ele>387.55</ele>
        <time>2012-08-07T09:29:44Z</time>
      </trkpt>
      <trkpt lat="45.72111" lon="5.93485">
        <ele>387.07</ele>
        <time>2012-08-07T09:29:45Z</time>
      </trkpt>
      <trkpt lat="45.72113" lon="5.93478">
        <ele>386.59</ele>
        <time>2012-08-07T09:29:46Z</time>
      </trkpt>
      <trkpt lat="45.72119" lon="5.93474">
        <ele>386.11</ele>
        <time>2012-08-07T09:29:47Z</time>
      </trkpt>
      <trkpt lat="45.72128" lon="5.93476">
        <ele>386.59</ele>
        <time>2012-08-07T09:29:48Z</time>
      </trkpt>
      <trkpt lat="45.72139" lon="5.93482">
        <ele>387.07</ele>
        <time>2012-08-07T09:29:49Z</time>
      </trkpt>
      <trkpt lat="45.72152" lon="5.93487">
        <ele>387.55</ele>
        <time>2012-08-07T09:29:50Z</time>
      </trkpt>
      <trkpt lat="45.72167" lon="5.93491">
        <ele>385.15</ele>
        <time>2012-08-07T09:29:51Z</time>
      </trkpt>
      <trkpt lat="45.7218" lon="5.93491">
        <ele>383.7</ele>
        <time>2012-08-07T09:29:52Z</time>
      </trkpt>
      <trkpt lat="45.72193" lon="5.9349">
        <ele>381.78</ele>
        <time>2012-08-07T09:29:53Z</time>
      </trkpt>
      <trkpt lat="45.72204" lon="5.93486">
        <ele>380.82</ele>
        <time>2012-08-07T09:29:54Z</time>
      </trkpt>
      <trkpt lat="45.72213" lon="5.93479">
        <ele>379.86</ele>
        <time>2012-08-07T09:29:55Z</time>
      </trkpt>
      <trkpt lat="45.72221" lon="5.9347">
        <ele>378.9</ele>
        <time>2012-08-07T09:29:56Z</time>
      </trkpt>
      <trkpt lat="45.72226" lon="5.93458">
        <ele>377.45</ele>
        <time>2012-08-07T09:29:57Z</time>
      </trkpt>
      <trkpt lat="45.72227" lon="5.93444">
        <ele>376.97</ele>
        <time>2012-08-07T09:29:58Z</time>
      </trkpt>
      <trkpt lat="45.72226" lon="5.93431">
        <ele>376.01</ele>
        <time>2012-08-07T09:29:59Z</time>
      </trkpt>
      <trkpt lat="45.72222" lon="5.9342">
        <ele>374.57</ele>
        <time>2012-08-07T09:30:00Z</time>
      </trkpt>
      <trkpt lat="45.72216" lon="5.93412">
        <ele>375.05</ele>
        <time>2012-08-07T09:30:01Z</time>
      </trkpt>
      <trkpt lat="45.72209" lon="5.93405">
        <ele>374.09</ele>
        <time>2012-08-07T09:30:02Z</time>
      </trkpt>
      <trkpt lat="45.72204" lon="5.93396">
        <ele>373.13</ele>
        <time>2012-08-07T09:30:03Z</time>
      </trkpt>
      <trkpt lat="45.72202" lon="5.93386">
        <ele>372.65</ele>
        <time>2012-08-07T09:30:04Z</time>
      </trkpt>
      <trkpt lat="45.72204" lon="5.93377">
        <ele>371.21</ele>
        <time>2012-08-07T09:30:05Z</time>
      </trkpt>
      <trkpt lat="45.72207" lon="5.93369">
        <ele>371.21</ele>
        <time>2012-08-07T09:30:06Z</time>
      </trkpt>
      <trkpt lat="45.72215" lon="5.93348">
        <ele>369.28</ele>
        <time>2012-08-07T09:30:09Z</time>
      </trkpt>
      <trkpt lat="45.7222" lon="5.93346">
        <ele>368.8</ele>
        <time>2012-08-07T09:30:10Z</time>
      </trkpt>
      <trkpt lat="45.72227" lon="5.93347">
        <ele>369.76</ele>
        <time>2012-08-07T09:30:11Z</time>
      </trkpt>
      <trkpt lat="45.72284" lon="5.93366">
        <ele>371.69</ele>
        <time>2012-08-07T09:30:19Z</time>
      </trkpt>
      <trkpt lat="45.72289" lon="5.93369">
        <ele>370.73</ele>
        <time>2012-08-07T09:30:20Z</time>
      </trkpt>
      <trkpt lat="45.72319" lon="5.93382">
        <ele>371.21</ele>
        <time>2012-08-07T09:30:26Z</time>
      </trkpt>
      <trkpt lat="45.72322" lon="5.93384">
        <ele>370.73</ele>
        <time>2012-08-07T09:30:27Z</time>
      </trkpt>
      <trkpt lat="45.72325" lon="5.93385">
        <ele>369.76</ele>
        <time>2012-08-07T09:30:28Z</time>
      </trkpt>
      <trkpt lat="45.72327" lon="5.93385">
        <ele>369.28</ele>
        <time>2012-08-07T09:30:29Z</time>
      </trkpt>
      <trkpt lat="45.72328" lon="5.93382">
        <ele>368.32</ele>
        <time>2012-08-07T09:30:30Z</time>
      </trkpt>
      <trkpt lat="45.72328" lon="5.93379">
        <ele>368.8</ele>
        <time>2012-08-07T09:30:31Z</time>
      </trkpt>
      <trkpt lat="45.72327" lon="5.93377">
        <ele>368.32</ele>
        <time>2012-08-07T09:30:32Z</time>
      </trkpt>
      <trkpt lat="45.72324" lon="5.93375">
        <ele>368.32</ele>
        <time>2012-08-07T09:30:33Z</time>
      </trkpt>
      <trkpt lat="45.7232" lon="5.93374">
        <ele>368.8</ele>
        <time>2012-08-07T09:30:34Z</time>
      </trkpt>
      <trkpt lat="45.72316" lon="5.93373">
        <ele>369.28</ele>
        <time>2012-08-07T09:30:35Z</time>
      </trkpt>
      <trkpt lat="45.72274" lon="5.9336">
        <ele>369.76</ele>
        <time>2012-08-07T09:30:44Z</time>
      </trkpt>
      <trkpt lat="45.72226" lon="5.93343">
        <ele>368.8</ele>
        <time>2012-08-07T09:30:51Z</time>
      </trkpt>
      <trkpt lat="45.72222" lon="5.93338">
        <ele>368.8</ele>
        <time>2012-08-07T09:30:52Z</time>
      </trkpt>
      <trkpt lat="45.72219" lon="5.93331">
        <ele>368.32</ele>
        <time>2012-08-07T09:30:53Z</time>
      </trkpt>
      <trkpt lat="45.72218" lon="5.93322">
        <ele>368.32</ele>
        <time>2012-08-07T09:30:54Z</time>
      </trkpt>
      <trkpt lat="45.72218" lon="5.93314">
        <ele>367.84</ele>
        <time>2012-08-07T09:30:55Z</time>
      </trkpt>
      <trkpt lat="45.72221" lon="5.93307">
        <ele>367.84</ele>
        <time>2012-08-07T09:30:56Z</time>
      </trkpt>
      <trkpt lat="45.72225" lon="5.93302">
        <ele>367.36</ele>
        <time>2012-08-07T09:30:57Z</time>
      </trkpt>
      <trkpt lat="45.7223" lon="5.93298">
        <ele>366.4</ele>
        <time>2012-08-07T09:30:58Z</time>
      </trkpt>
      <trkpt lat="45.72234" lon="5.93296">
        <ele>366.4</ele>
        <time>2012-08-07T09:30:59Z</time>
      </trkpt>
      <trkpt lat="45.72237" lon="5.93294">
        <ele>366.4</ele>
        <time>2012-08-07T09:31:00Z</time>
      </trkpt>
      <trkpt lat="45.72237" lon="5.93291">
        <ele>365.44</ele>
        <time>2012-08-07T09:31:01Z</time>
      </trkpt>
      <trkpt lat="45.72235" lon="5.93289">
        <ele>365.92</ele>
        <time>2012-08-07T09:31:02Z</time>
      </trkpt>
      <trkpt lat="45.72233" lon="5.93289">
        <ele>365.92</ele>
        <time>2012-08-07T09:31:03Z</time>
      </trkpt>
      <trkpt lat="45.72231" lon="5.93291">
        <ele>366.4</ele>
        <time>2012-08-07T09:31:04Z</time>
      </trkpt>
      <trkpt lat="45.72227" lon="5.93296">
        <ele>366.88</ele>
        <time>2012-08-07T09:31:05Z</time>
      </trkpt>
      <trkpt lat="45.72222" lon="5.93303">
        <ele>367.84</ele>
        <time>2012-08-07T09:31:06Z</time>
      </trkpt>
      <trkpt lat="45.72218" lon="5.93311">
        <ele>368.8</ele>
        <time>2012-08-07T09:31:07Z</time>
      </trkpt>
      <trkpt lat="45.72213" lon="5.93319">
        <ele>368.32</ele>
        <time>2012-08-07T09:31:08Z</time>
      </trkpt>
      <trkpt lat="45.72208" lon="5.93324">
        <ele>368.8</ele>
        <time>2012-08-07T09:31:09Z</time>
      </trkpt>
      <trkpt lat="45.72201" lon="5.93326">
        <ele>368.8</ele>
        <time>2012-08-07T09:31:10Z</time>
      </trkpt>
      <trkpt lat="45.72192" lon="5.93325">
        <ele>369.28</ele>
        <time>2012-08-07T09:31:11Z</time>
      </trkpt>
      <trkpt lat="45.72182" lon="5.93322">
        <ele>369.28</ele>
        <time>2012-08-07T09:31:12Z</time>
      </trkpt>
      <trkpt lat="45.72172" lon="5.9332">
        <ele>369.28</ele>
        <time>2012-08-07T09:31:13Z</time>
      </trkpt>
      <trkpt lat="45.72162" lon="5.93318">
        <ele>369.28</ele>
        <time>2012-08-07T09:31:14Z</time>
      </trkpt>
      <trkpt lat="45.72102" lon="5.93315">
        <ele>366.4</ele>
        <time>2012-08-07T09:31:22Z</time>
      </trkpt>
      <trkpt lat="45.72058" lon="5.93313">
        <ele>365.92</ele>
        <time>2012-08-07T09:31:28Z</time>
      </trkpt>
      <trkpt lat="45.72052" lon="5.93309">
        <ele>365.92</ele>
        <time>2012-08-07T09:31:29Z</time>
      </trkpt>
      <trkpt lat="45.72047" lon="5.93304">
        <ele>365.92</ele>
        <time>2012-08-07T09:31:30Z</time>
      </trkpt>
      <trkpt lat="45.72042" lon="5.93297">
        <ele>364.96</ele>
        <time>2012-08-07T09:31:31Z</time>
      </trkpt>
      <trkpt lat="45.72037" lon="5.93289">
        <ele>364.96</ele>
        <time>2012-08-07T09:31:32Z</time>
      </trkpt>
      <trkpt lat="45.72033" lon="5.93281">
        <ele>364.96</ele>
        <time>2012-08-07T09:31:33Z</time>
      </trkpt>
      <trkpt lat="45.7203" lon="5.93273">
        <ele>364.48</ele>
        <time>2012-08-07T09:31:34Z</time>
      </trkpt>
      <trkpt lat="45.72027" lon="5.93263">
        <ele>363.52</ele>
        <time>2012-08-07T09:31:35Z</time>
      </trkpt>
      <trkpt lat="45.72026" lon="5.93253">
        <ele>361.59</ele>
        <time>2012-08-07T09:31:36Z</time>
      </trkpt>
      <trkpt lat="45.72027" lon="5.93245">
        <ele>361.11</ele>
        <time>2012-08-07T09:31:37Z</time>
      </trkpt>
      <trkpt lat="45.72029" lon="5.93238">
        <ele>360.63</ele>
        <time>2012-08-07T09:31:38Z</time>
      </trkpt>
      <trkpt lat="45.7203" lon="5.93232">
        <ele>360.63</ele>
        <time>2012-08-07T09:31:39Z</time>
      </trkpt>
      <trkpt lat="45.72031" lon="5.93226">
        <ele>360.15</ele>
        <time>2012-08-07T09:31:40Z</time>
      </trkpt>
      <trkpt lat="45.72041" lon="5.93131">
        <ele>358.23</ele>
        <time>2012-08-07T09:31:49Z</time>
      </trkpt>
      <trkpt lat="45.72061" lon="5.93029">
        <ele>355.34</ele>
        <time>2012-08-07T09:31:54Z</time>
      </trkpt>
      <trkpt lat="45.72072" lon="5.92977">
        <ele>351.98</ele>
        <time>2012-08-07T09:31:57Z</time>
      </trkpt>
      <trkpt lat="45.72077" lon="5.92943">
        <ele>349.58</ele>
        <time>2012-08-07T09:32:00Z</time>
      </trkpt>
      <trkpt lat="45.7208" lon="5.92934">
        <ele>349.1</ele>
        <time>2012-08-07T09:32:01Z</time>
      </trkpt>
      <trkpt lat="45.72085" lon="5.92916">
        <ele>347.65</ele>
        <time>2012-08-07T09:32:03Z</time>
      </trkpt>
      <trkpt lat="45.72084" lon="5.92906">
        <ele>348.13</ele>
        <time>2012-08-07T09:32:04Z</time>
      </trkpt>
      <trkpt lat="45.7208" lon="5.92895">
        <ele>347.65</ele>
        <time>2012-08-07T09:32:05Z</time>
      </trkpt>
      <trkpt lat="45.72076" lon="5.92881">
        <ele>347.65</ele>
        <time>2012-08-07T09:32:06Z</time>
      </trkpt>
      <trkpt lat="45.72073" lon="5.92863">
        <ele>347.65</ele>
        <time>2012-08-07T09:32:07Z</time>
      </trkpt>
      <trkpt lat="45.72072" lon="5.92845">
        <ele>347.17</ele>
        <time>2012-08-07T09:32:08Z</time>
      </trkpt>
      <trkpt lat="45.7207" lon="5.92828">
        <ele>345.73</ele>
        <time>2012-08-07T09:32:09Z</time>
      </trkpt>
      <trkpt lat="45.72066" lon="5.92798">
        <ele>343.33</ele>
        <time>2012-08-07T09:32:11Z</time>
      </trkpt>
      <trkpt lat="45.72062" lon="5.92785">
        <ele>342.37</ele>
        <time>2012-08-07T09:32:12Z</time>
      </trkpt>
      <trkpt lat="45.72055" lon="5.92775">
        <ele>341.89</ele>
        <time>2012-08-07T09:32:13Z</time>
      </trkpt>
      <trkpt lat="45.72043" lon="5.92758">
        <ele>339</ele>
        <time>2012-08-07T09:32:15Z</time>
      </trkpt>
      <trkpt lat="45.72039" lon="5.92749">
        <ele>338.04</ele>
        <time>2012-08-07T09:32:16Z</time>
      </trkpt>
      <trkpt lat="45.72039" lon="5.92739">
        <ele>337.08</ele>
        <time>2012-08-07T09:32:17Z</time>
      </trkpt>
      <trkpt lat="45.72043" lon="5.92731">
        <ele>337.08</ele>
        <time>2012-08-07T09:32:18Z</time>
      </trkpt>
      <trkpt lat="45.72051" lon="5.92724">
        <ele>336.6</ele>
        <time>2012-08-07T09:32:19Z</time>
      </trkpt>
      <trkpt lat="45.72062" lon="5.92717">
        <ele>337.08</ele>
        <time>2012-08-07T09:32:20Z</time>
      </trkpt>
      <trkpt lat="45.72094" lon="5.92698">
        <ele>333.23</ele>
        <time>2012-08-07T09:32:23Z</time>
      </trkpt>
      <trkpt lat="45.72101" lon="5.92692">
        <ele>332.27</ele>
        <time>2012-08-07T09:32:24Z</time>
      </trkpt>
      <trkpt lat="45.72112" lon="5.9268">
        <ele>329.87</ele>
        <time>2012-08-07T09:32:26Z</time>
      </trkpt>
      <trkpt lat="45.72113" lon="5.92673">
        <ele>329.87</ele>
        <time>2012-08-07T09:32:27Z</time>
      </trkpt>
      <trkpt lat="45.72111" lon="5.92666">
        <ele>329.39</ele>
        <time>2012-08-07T09:32:28Z</time>
      </trkpt>
      <trkpt lat="45.72107" lon="5.92659">
        <ele>328.91</ele>
        <time>2012-08-07T09:32:29Z</time>
      </trkpt>
      <trkpt lat="45.72102" lon="5.92653">
        <ele>328.43</ele>
        <time>2012-08-07T09:32:30Z</time>
      </trkpt>
      <trkpt lat="45.72096" lon="5.92648">
        <ele>327.95</ele>
        <time>2012-08-07T09:32:31Z</time>
      </trkpt>
      <trkpt lat="45.72091" lon="5.92644">
        <ele>327.47</ele>
        <time>2012-08-07T09:32:32Z</time>
      </trkpt>
      <trkpt lat="45.72085" lon="5.92641">
        <ele>326.5</ele>
        <time>2012-08-07T09:32:33Z</time>
      </trkpt>
      <trkpt lat="45.72074" lon="5.92636">
        <ele>325.06</ele>
        <time>2012-08-07T09:32:35Z</time>
      </trkpt>
      <trkpt lat="45.7207" lon="5.92635">
        <ele>324.1</ele>
        <time>2012-08-07T09:32:36Z</time>
      </trkpt>
      <trkpt lat="45.72068" lon="5.92634">
        <ele>324.1</ele>
        <time>2012-08-07T09:32:37Z</time>
      </trkpt>
      <trkpt lat="45.72029" lon="5.92615">
        <ele>322.18</ele>
        <time>2012-08-07T09:32:47Z</time>
      </trkpt>
      <trkpt lat="45.71999" lon="5.92598">
        <ele>319.78</ele>
        <time>2012-08-07T09:32:51Z</time>
      </trkpt>
      <trkpt lat="45.71918" lon="5.92577">
        <ele>317.37</ele>
        <time>2012-08-07T09:33:00Z</time>
      </trkpt>
      <trkpt lat="45.7191" lon="5.92573">
        <ele>316.89</ele>
        <time>2012-08-07T09:33:01Z</time>
      </trkpt>
      <trkpt lat="45.71902" lon="5.92568">
        <ele>316.41</ele>
        <time>2012-08-07T09:33:02Z</time>
      </trkpt>
      <trkpt lat="45.71895" lon="5.92559">
        <ele>317.37</ele>
        <time>2012-08-07T09:33:03Z</time>
      </trkpt>
      <trkpt lat="45.7188" lon="5.92538">
        <ele>316.41</ele>
        <time>2012-08-07T09:33:05Z</time>
      </trkpt>
      <trkpt lat="45.71874" lon="5.92531">
        <ele>314.97</ele>
        <time>2012-08-07T09:33:06Z</time>
      </trkpt>
      <trkpt lat="45.71869" lon="5.92527">
        <ele>314.49</ele>
        <time>2012-08-07T09:33:07Z</time>
      </trkpt>
      <trkpt lat="45.71866" lon="5.92524">
        <ele>314.49</ele>
        <time>2012-08-07T09:33:08Z</time>
      </trkpt>
      <trkpt lat="45.71863" lon="5.92522">
        <ele>314.49</ele>
        <time>2012-08-07T09:33:09Z</time>
      </trkpt>
      <trkpt lat="45.71861" lon="5.92521">
        <ele>314.49</ele>
        <time>2012-08-07T09:33:10Z</time>
      </trkpt>
      <trkpt lat="45.71858" lon="5.92519">
        <ele>314.01</ele>
        <time>2012-08-07T09:33:11Z</time>
      </trkpt>
      <trkpt lat="45.71855" lon="5.92517">
        <ele>314.01</ele>
        <time>2012-08-07T09:33:12Z</time>
      </trkpt>
      <trkpt lat="45.71835" lon="5.92508">
        <ele>313.53</ele>
        <time>2012-08-07T09:33:15Z</time>
      </trkpt>
      <trkpt lat="45.71825" lon="5.92505">
        <ele>314.49</ele>
        <time>2012-08-07T09:33:16Z</time>
      </trkpt>
      <trkpt lat="45.71814" lon="5.92504">
        <ele>314.49</ele>
        <time>2012-08-07T09:33:17Z</time>
      </trkpt>
      <trkpt lat="45.71803" lon="5.92502">
        <ele>313.05</ele>
        <time>2012-08-07T09:33:18Z</time>
      </trkpt>
      <trkpt lat="45.71792" lon="5.92499">
        <ele>312.57</ele>
        <time>2012-08-07T09:33:19Z</time>
      </trkpt>
      <trkpt lat="45.71783" lon="5.92494">
        <ele>311.6</ele>
        <time>2012-08-07T09:33:20Z</time>
      </trkpt>
      <trkpt lat="45.71774" lon="5.92485">
        <ele>311.12</ele>
        <time>2012-08-07T09:33:21Z</time>
      </trkpt>
      <trkpt lat="45.71767" lon="5.92473">
        <ele>310.64</ele>
        <time>2012-08-07T09:33:22Z</time>
      </trkpt>
      <trkpt lat="45.71761" lon="5.92458">
        <ele>310.16</ele>
        <time>2012-08-07T09:33:23Z</time>
      </trkpt>
      <trkpt lat="45.71758" lon="5.92441">
        <ele>310.64</ele>
        <time>2012-08-07T09:33:24Z</time>
      </trkpt>
      <trkpt lat="45.71757" lon="5.92424">
        <ele>310.16</ele>
        <time>2012-08-07T09:33:25Z</time>
      </trkpt>
      <trkpt lat="45.71756" lon="5.92409">
        <ele>310.64</ele>
        <time>2012-08-07T09:33:26Z</time>
      </trkpt>
      <trkpt lat="45.71751" lon="5.92368">
        <ele>311.12</ele>
        <time>2012-08-07T09:33:28Z</time>
      </trkpt>
      <trkpt lat="45.71745" lon="5.9231">
        <ele>307.28</ele>
        <time>2012-08-07T09:33:31Z</time>
      </trkpt>
      <trkpt lat="45.71746" lon="5.92277">
        <ele>305.84</ele>
        <time>2012-08-07T09:33:34Z</time>
      </trkpt>
      <trkpt lat="45.71747" lon="5.92268">
        <ele>305.84</ele>
        <time>2012-08-07T09:33:35Z</time>
      </trkpt>
      <trkpt lat="45.7175" lon="5.92262">
        <ele>305.84</ele>
        <time>2012-08-07T09:33:36Z</time>
      </trkpt>
      <trkpt lat="45.71755" lon="5.92257">
        <ele>305.84</ele>
        <time>2012-08-07T09:33:37Z</time>
      </trkpt>
      <trkpt lat="45.71763" lon="5.92256">
        <ele>306.32</ele>
        <time>2012-08-07T09:33:38Z</time>
      </trkpt>
      <trkpt lat="45.71773" lon="5.92256">
        <ele>306.32</ele>
        <time>2012-08-07T09:33:39Z</time>
      </trkpt>
      <trkpt lat="45.71783" lon="5.92258">
        <ele>306.8</ele>
        <time>2012-08-07T09:33:40Z</time>
      </trkpt>
      <trkpt lat="45.71793" lon="5.92259">
        <ele>307.28</ele>
        <time>2012-08-07T09:33:41Z</time>
      </trkpt>
      <trkpt lat="45.71804" lon="5.92258">
        <ele>306.8</ele>
        <time>2012-08-07T09:33:42Z</time>
      </trkpt>
      <trkpt lat="45.71814" lon="5.92254">
        <ele>306.8</ele>
        <time>2012-08-07T09:33:43Z</time>
      </trkpt>
      <trkpt lat="45.71821" lon="5.92248">
        <ele>305.36</ele>
        <time>2012-08-07T09:33:44Z</time>
      </trkpt>
      <trkpt lat="45.71827" lon="5.92241">
        <ele>305.36</ele>
        <time>2012-08-07T09:33:45Z</time>
      </trkpt>
      <trkpt lat="45.71832" lon="5.92235">
        <ele>305.36</ele>
        <time>2012-08-07T09:33:46Z</time>
      </trkpt>
      <trkpt lat="45.71837" lon="5.92231">
        <ele>304.88</ele>
        <time>2012-08-07T09:33:47Z</time>
      </trkpt>
      <trkpt lat="45.71841" lon="5.92227">
        <ele>304.39</ele>
        <time>2012-08-07T09:33:48Z</time>
      </trkpt>
      <trkpt lat="45.71844" lon="5.92223">
        <ele>304.39</ele>
        <time>2012-08-07T09:33:49Z</time>
      </trkpt>
      <trkpt lat="45.71846" lon="5.92218">
        <ele>304.39</ele>
        <time>2012-08-07T09:33:50Z</time>
      </trkpt>
      <trkpt lat="45.71847" lon="5.92212">
        <ele>304.39</ele>
        <time>2012-08-07T09:33:51Z</time>
      </trkpt>
      <trkpt lat="45.71847" lon="5.92205">
        <ele>304.39</ele>
        <time>2012-08-07T09:33:52Z</time>
      </trkpt>
      <trkpt lat="45.71847" lon="5.92196">
        <ele>304.88</ele>
        <time>2012-08-07T09:33:53Z</time>
      </trkpt>
      <trkpt lat="45.71846" lon="5.92187">
        <ele>304.39</ele>
        <time>2012-08-07T09:33:54Z</time>
      </trkpt>
      <trkpt lat="45.71846" lon="5.92178">
        <ele>303.91</ele>
        <time>2012-08-07T09:33:55Z</time>
      </trkpt>
      <trkpt lat="45.71848" lon="5.92171">
        <ele>304.39</ele>
        <time>2012-08-07T09:33:56Z</time>
      </trkpt>
      <trkpt lat="45.71852" lon="5.92166">
        <ele>303.91</ele>
        <time>2012-08-07T09:33:57Z</time>
      </trkpt>
      <trkpt lat="45.71859" lon="5.92166">
        <ele>304.39</ele>
        <time>2012-08-07T09:33:58Z</time>
      </trkpt>
      <trkpt lat="45.71866" lon="5.9217">
        <ele>304.88</ele>
        <time>2012-08-07T09:33:59Z</time>
      </trkpt>
      <trkpt lat="45.71873" lon="5.92177">
        <ele>304.88</ele>
        <time>2012-08-07T09:34:00Z</time>
      </trkpt>
      <trkpt lat="45.7188" lon="5.92187">
        <ele>305.36</ele>
        <time>2012-08-07T09:34:01Z</time>
      </trkpt>
      <trkpt lat="45.71887" lon="5.92197">
        <ele>305.84</ele>
        <time>2012-08-07T09:34:02Z</time>
      </trkpt>
      <trkpt lat="45.71894" lon="5.92207">
        <ele>305.84</ele>
        <time>2012-08-07T09:34:03Z</time>
      </trkpt>
      <trkpt lat="45.71902" lon="5.92215">
        <ele>306.32</ele>
        <time>2012-08-07T09:34:04Z</time>
      </trkpt>
      <trkpt lat="45.71909" lon="5.92221">
        <ele>306.32</ele>
        <time>2012-08-07T09:34:05Z</time>
      </trkpt>
      <trkpt lat="45.71917" lon="5.92226">
        <ele>305.84</ele>
        <time>2012-08-07T09:34:06Z</time>
      </trkpt>
      <trkpt lat="45.71925" lon="5.92231">
        <ele>306.32</ele>
        <time>2012-08-07T09:34:07Z</time>
      </trkpt>
      <trkpt lat="45.71937" lon="5.92239">
        <ele>304.88</ele>
        <time>2012-08-07T09:34:10Z</time>
      </trkpt>
      <trkpt lat="45.7194" lon="5.92238">
        <ele>304.39</ele>
        <time>2012-08-07T09:34:12Z</time>
      </trkpt>
      <trkpt lat="45.7194" lon="5.92235">
        <ele>303.91</ele>
        <time>2012-08-07T09:34:13Z</time>
      </trkpt>
      <trkpt lat="45.71939" lon="5.92232">
        <ele>303.91</ele>
        <time>2012-08-07T09:34:14Z</time>
      </trkpt>
      <trkpt lat="45.71936" lon="5.9223">
        <ele>303.91</ele>
        <time>2012-08-07T09:34:15Z</time>
      </trkpt>
      <trkpt lat="45.71931" lon="5.92227">
        <ele>303.91</ele>
        <time>2012-08-07T09:34:16Z</time>
      </trkpt>
      <trkpt lat="45.71928" lon="5.92222">
        <ele>304.39</ele>
        <time>2012-08-07T09:34:17Z</time>
      </trkpt>
      <trkpt lat="45.71927" lon="5.92217">
        <ele>303.91</ele>
        <time>2012-08-07T09:34:18Z</time>
      </trkpt>
      <trkpt lat="45.71929" lon="5.92213">
        <ele>304.39</ele>
        <time>2012-08-07T09:34:19Z</time>
      </trkpt>
      <trkpt lat="45.71932" lon="5.9221">
        <ele>304.39</ele>
        <time>2012-08-07T09:34:20Z</time>
      </trkpt>
      <trkpt lat="45.71935" lon="5.92211">
        <ele>304.39</ele>
        <time>2012-08-07T09:34:21Z</time>
      </trkpt>
      <trkpt lat="45.71937" lon="5.92213">
        <ele>304.39</ele>
        <time>2012-08-07T09:34:22Z</time>
      </trkpt>
      <trkpt lat="45.71937" lon="5.92214">
        <ele>303.91</ele>
        <time>2012-08-07T09:34:35Z</time>
      </trkpt>
      <trkpt lat="45.71936" lon="5.92213">
        <ele>303.91</ele>
        <time>2012-08-07T09:35:05Z</time>
      </trkpt>
      <trkpt lat="45.71936" lon="5.92213">
        <ele>303.43</ele>
        <time>2012-08-07T09:35:33Z</time>
      </trkpt>
      <trkpt lat="45.71935" lon="5.9221">
        <ele>303.91</ele>
        <time>2012-08-07T09:35:49Z</time>
      </trkpt>
      <trkpt lat="45.71937" lon="5.92209">
        <ele>303.43</ele>
        <time>2012-08-07T09:35:50Z</time>
      </trkpt>
      <trkpt lat="45.71939" lon="5.92211">
        <ele>302.95</ele>
        <time>2012-08-07T09:36:03Z</time>
      </trkpt>
      <trkpt lat="45.7194" lon="5.92213">
        <ele>302.95</ele>
        <time>2012-08-07T09:36:32Z</time>
      </trkpt>
      <trkpt lat="45.71941" lon="5.92218">
        <ele>302.95</ele>
        <time>2012-08-07T09:36:59Z</time>
      </trkpt>
      <trkpt lat="45.71941" lon="5.92222">
        <ele>302.95</ele>
        <time>2012-08-07T09:37:00Z</time>
      </trkpt>
      <trkpt lat="45.7194" lon="5.92227">
        <ele>302.95</ele>
        <time>2012-08-07T09:37:01Z</time>
      </trkpt>
      <trkpt lat="45.71937" lon="5.9223">
        <ele>302.95</ele>
        <time>2012-08-07T09:37:02Z</time>
      </trkpt>
      <trkpt lat="45.71933" lon="5.92231">
        <ele>302.47</ele>
        <time>2012-08-07T09:37:03Z</time>
      </trkpt>
      <trkpt lat="45.7193" lon="5.92227">
        <ele>302.95</ele>
        <time>2012-08-07T09:37:04Z</time>
      </trkpt>
      <trkpt lat="45.71928" lon="5.92221">
        <ele>302.95</ele>
        <time>2012-08-07T09:37:05Z</time>
      </trkpt>
      <trkpt lat="45.71928" lon="5.92213">
        <ele>302.95</ele>
        <time>2012-08-07T09:37:06Z</time>
      </trkpt>
      <trkpt lat="45.7193" lon="5.92206">
        <ele>302.95</ele>
        <time>2012-08-07T09:37:07Z</time>
      </trkpt>
      <trkpt lat="45.71931" lon="5.92202">
        <ele>302.95</ele>
        <time>2012-08-07T09:37:08Z</time>
      </trkpt>
      <trkpt lat="45.71933" lon="5.922">
        <ele>302.47</ele>
        <time>2012-08-07T09:37:09Z</time>
      </trkpt>
      <trkpt lat="45.71932" lon="5.92198">
        <ele>302.47</ele>
        <time>2012-08-07T09:37:24Z</time>
      </trkpt>
      <trkpt lat="45.71934" lon="5.92195">
        <ele>302.47</ele>
        <time>2012-08-07T09:37:33Z</time>
      </trkpt>
      <trkpt lat="45.7194" lon="5.92188">
        <ele>302.95</ele>
        <time>2012-08-07T09:37:35Z</time>
      </trkpt>
      <trkpt lat="45.71943" lon="5.92186">
        <ele>302.47</ele>
        <time>2012-08-07T09:37:36Z</time>
      </trkpt>
      <trkpt lat="45.71945" lon="5.92187">
        <ele>301.99</ele>
        <time>2012-08-07T09:37:37Z</time>
      </trkpt>
      <trkpt lat="45.71947" lon="5.92189">
        <ele>302.47</ele>
        <time>2012-08-07T09:37:38Z</time>
      </trkpt>
      <trkpt lat="45.71947" lon="5.9219">
        <ele>302.47</ele>
        <time>2012-08-07T09:37:53Z</time>
      </trkpt>
      <trkpt lat="45.71947" lon="5.92191">
        <ele>301.99</ele>
        <time>2012-08-07T09:38:22Z</time>
      </trkpt>
      <trkpt lat="45.7195" lon="5.92191">
        <ele>301.99</ele>
        <time>2012-08-07T09:38:59Z</time>
      </trkpt>
      <trkpt lat="45.71951" lon="5.92188">
        <ele>301.51</ele>
        <time>2012-08-07T09:39:23Z</time>
      </trkpt>
      <trkpt lat="45.71952" lon="5.92188">
        <ele>301.51</ele>
        <time>2012-08-07T09:39:40Z</time>
      </trkpt>
      <trkpt lat="45.71953" lon="5.92191">
        <ele>301.51</ele>
        <time>2012-08-07T09:39:41Z</time>
      </trkpt>
      <trkpt lat="45.71953" lon="5.92201">
        <ele>301.99</ele>
        <time>2012-08-07T09:39:43Z</time>
      </trkpt>
      <trkpt lat="45.71951" lon="5.92211">
        <ele>301.51</ele>
        <time>2012-08-07T09:39:51Z</time>
      </trkpt>
      <trkpt lat="45.71949" lon="5.92212">
        <ele>301.03</ele>
        <time>2012-08-07T09:40:03Z</time>
      </trkpt>
      <trkpt lat="45.71946" lon="5.92217">
        <ele>301.99</ele>
        <time>2012-08-07T09:40:04Z</time>
      </trkpt>
      <trkpt lat="45.71942" lon="5.92222">
        <ele>301.51</ele>
        <time>2012-08-07T09:40:05Z</time>
      </trkpt>
      <trkpt lat="45.71936" lon="5.92224">
        <ele>301.51</ele>
        <time>2012-08-07T09:40:06Z</time>
      </trkpt>
      <trkpt lat="45.7193" lon="5.92222">
        <ele>301.51</ele>
        <time>2012-08-07T09:40:07Z</time>
      </trkpt>
      <trkpt lat="45.71922" lon="5.92218">
        <ele>301.99</ele>
        <time>2012-08-07T09:40:08Z</time>
      </trkpt>
      <trkpt lat="45.71916" lon="5.92214">
        <ele>301.99</ele>
        <time>2012-08-07T09:40:09Z</time>
      </trkpt>
      <trkpt lat="45.7189" lon="5.92192">
        <ele>300.07</ele>
        <time>2012-08-07T09:40:14Z</time>
      </trkpt>
      <trkpt lat="45.71885" lon="5.92184">
        <ele>301.03</ele>
        <time>2012-08-07T09:40:15Z</time>
      </trkpt>
      <trkpt lat="45.71869" lon="5.92158">
        <ele>300.07</ele>
        <time>2012-08-07T09:40:19Z</time>
      </trkpt>
      <trkpt lat="45.71866" lon="5.92153">
        <ele>300.07</ele>
        <time>2012-08-07T09:40:20Z</time>
      </trkpt>
      <trkpt lat="45.71861" lon="5.9215">
        <ele>300.07</ele>
        <time>2012-08-07T09:40:21Z</time>
      </trkpt>
      <trkpt lat="45.71852" lon="5.92144">
        <ele>300.07</ele>
        <time>2012-08-07T09:40:23Z</time>
      </trkpt>
      <trkpt lat="45.71848" lon="5.92145">
        <ele>299.59</ele>
        <time>2012-08-07T09:40:24Z</time>
      </trkpt>
      <trkpt lat="45.71845" lon="5.92148">
        <ele>300.07</ele>
        <time>2012-08-07T09:40:25Z</time>
      </trkpt>
      <trkpt lat="45.71843" lon="5.92155">
        <ele>300.07</ele>
        <time>2012-08-07T09:40:26Z</time>
      </trkpt>
      <trkpt lat="45.71842" lon="5.92164">
        <ele>301.03</ele>
        <time>2012-08-07T09:40:27Z</time>
      </trkpt>
      <trkpt lat="45.7184" lon="5.92172">
        <ele>301.03</ele>
        <time>2012-08-07T09:40:28Z</time>
      </trkpt>
      <trkpt lat="45.71835" lon="5.9218">
        <ele>300.55</ele>
        <time>2012-08-07T09:40:29Z</time>
      </trkpt>
      <trkpt lat="45.71829" lon="5.92186">
        <ele>301.03</ele>
        <time>2012-08-07T09:40:30Z</time>
      </trkpt>
      <trkpt lat="45.71825" lon="5.92193">
        <ele>301.03</ele>
        <time>2012-08-07T09:40:31Z</time>
      </trkpt>
      <trkpt lat="45.71822" lon="5.92202">
        <ele>301.03</ele>
        <time>2012-08-07T09:40:32Z</time>
      </trkpt>
      <trkpt lat="45.71822" lon="5.9221">
        <ele>300.55</ele>
        <time>2012-08-07T09:40:33Z</time>
      </trkpt>
      <trkpt lat="45.71825" lon="5.92218">
        <ele>301.03</ele>
        <time>2012-08-07T09:40:34Z</time>
      </trkpt>
      <trkpt lat="45.71829" lon="5.92222">
        <ele>301.51</ele>
        <time>2012-08-07T09:40:35Z</time>
      </trkpt>
      <trkpt lat="45.71837" lon="5.92224">
        <ele>301.99</ele>
        <time>2012-08-07T09:40:36Z</time>
      </trkpt>
      <trkpt lat="45.71846" lon="5.92223">
        <ele>301.99</ele>
        <time>2012-08-07T09:40:37Z</time>
      </trkpt>
      <trkpt lat="45.71856" lon="5.92224">
        <ele>302.47</ele>
        <time>2012-08-07T09:40:38Z</time>
      </trkpt>
      <trkpt lat="45.71865" lon="5.92227">
        <ele>302.47</ele>
        <time>2012-08-07T09:40:39Z</time>
      </trkpt>
      <trkpt lat="45.71941" lon="5.92272">
        <ele>305.84</ele>
        <time>2012-08-07T09:40:47Z</time>
      </trkpt>
      <trkpt lat="45.71952" lon="5.92277">
        <ele>302.47</ele>
        <time>2012-08-07T09:40:48Z</time>
      </trkpt>
      <trkpt lat="45.71963" lon="5.92281">
        <ele>305.84</ele>
        <time>2012-08-07T09:40:49Z</time>
      </trkpt>
      <trkpt lat="45.72082" lon="5.92319">
        <ele>308.24</ele>
        <time>2012-08-07T09:41:00Z</time>
      </trkpt>
      <trkpt lat="45.72164" lon="5.9231">
        <ele>308.24</ele>
        <time>2012-08-07T09:41:08Z</time>
      </trkpt>
      <trkpt lat="45.72172" lon="5.92312">
        <ele>307.76</ele>
        <time>2012-08-07T09:41:09Z</time>
      </trkpt>
      <trkpt lat="45.72181" lon="5.92316">
        <ele>308.24</ele>
        <time>2012-08-07T09:41:10Z</time>
      </trkpt>
      <trkpt lat="45.7219" lon="5.92317">
        <ele>308.72</ele>
        <time>2012-08-07T09:41:11Z</time>
      </trkpt>
      <trkpt lat="45.722" lon="5.92317">
        <ele>308.24</ele>
        <time>2012-08-07T09:41:12Z</time>
      </trkpt>
      <trkpt lat="45.7221" lon="5.92317">
        <ele>307.76</ele>
        <time>2012-08-07T09:41:13Z</time>
      </trkpt>
      <trkpt lat="45.72219" lon="5.92318">
        <ele>307.28</ele>
        <time>2012-08-07T09:41:14Z</time>
      </trkpt>
      <trkpt lat="45.72229" lon="5.92322">
        <ele>307.28</ele>
        <time>2012-08-07T09:41:15Z</time>
      </trkpt>
      <trkpt lat="45.72238" lon="5.92328">
        <ele>307.28</ele>
        <time>2012-08-07T09:41:16Z</time>
      </trkpt>
      <trkpt lat="45.72245" lon="5.92337">
        <ele>307.76</ele>
        <time>2012-08-07T09:41:17Z</time>
      </trkpt>
      <trkpt lat="45.72253" lon="5.92349">
        <ele>307.76</ele>
        <time>2012-08-07T09:41:18Z</time>
      </trkpt>
      <trkpt lat="45.72261" lon="5.92362">
        <ele>307.76</ele>
        <time>2012-08-07T09:41:19Z</time>
      </trkpt>
      <trkpt lat="45.72267" lon="5.92377">
        <ele>307.76</ele>
        <time>2012-08-07T09:41:20Z</time>
      </trkpt>
      <trkpt lat="45.72272" lon="5.92393">
        <ele>307.76</ele>
        <time>2012-08-07T09:41:21Z</time>
      </trkpt>
      <trkpt lat="45.72275" lon="5.92409">
        <ele>307.76</ele>
        <time>2012-08-07T09:41:22Z</time>
      </trkpt>
      <trkpt lat="45.72278" lon="5.92425">
        <ele>307.28</ele>
        <time>2012-08-07T09:41:23Z</time>
      </trkpt>
      <trkpt lat="45.7228" lon="5.9244">
        <ele>306.8</ele>
        <time>2012-08-07T09:41:24Z</time>
      </trkpt>
      <trkpt lat="45.72282" lon="5.92452">
        <ele>306.8</ele>
        <time>2012-08-07T09:41:25Z</time>
      </trkpt>
      <trkpt lat="45.72295" lon="5.92484">
        <ele>305.84</ele>
        <time>2012-08-07T09:41:32Z</time>
      </trkpt>
      <trkpt lat="45.72297" lon="5.9249">
        <ele>306.32</ele>
        <time>2012-08-07T09:41:52Z</time>
      </trkpt>
      <trkpt lat="45.723" lon="5.92498">
        <ele>306.8</ele>
        <time>2012-08-07T09:41:53Z</time>
      </trkpt>
      <trkpt lat="45.72303" lon="5.9251">
        <ele>307.76</ele>
        <time>2012-08-07T09:41:54Z</time>
      </trkpt>
      <trkpt lat="45.72307" lon="5.92524">
        <ele>307.76</ele>
        <time>2012-08-07T09:41:55Z</time>
      </trkpt>
      <trkpt lat="45.72315" lon="5.92562">
        <ele>306.8</ele>
        <time>2012-08-07T09:41:59Z</time>
      </trkpt>
      <trkpt lat="45.72336" lon="5.92665">
        <ele>306.8</ele>
        <time>2012-08-07T09:42:09Z</time>
      </trkpt>
      <trkpt lat="45.72358" lon="5.92723">
        <ele>306.8</ele>
        <time>2012-08-07T09:42:17Z</time>
      </trkpt>
      <trkpt lat="45.72375" lon="5.92761">
        <ele>307.28</ele>
        <time>2012-08-07T09:42:22Z</time>
      </trkpt>
      <trkpt lat="45.72398" lon="5.92842">
        <ele>308.24</ele>
        <time>2012-08-07T09:42:29Z</time>
      </trkpt>
      <trkpt lat="45.724" lon="5.92856">
        <ele>308.72</ele>
        <time>2012-08-07T09:42:30Z</time>
      </trkpt>
      <trkpt lat="45.724" lon="5.9287">
        <ele>309.2</ele>
        <time>2012-08-07T09:42:31Z</time>
      </trkpt>
      <trkpt lat="45.72408" lon="5.92952">
        <ele>312.09</ele>
        <time>2012-08-07T09:42:36Z</time>
      </trkpt>
      <trkpt lat="45.72415" lon="5.92986">
        <ele>312.57</ele>
        <time>2012-08-07T09:42:38Z</time>
      </trkpt>
      <trkpt lat="45.72477" lon="5.93132">
        <ele>314.97</ele>
        <time>2012-08-07T09:42:47Z</time>
      </trkpt>
      <trkpt lat="45.72483" lon="5.93149">
        <ele>314.97</ele>
        <time>2012-08-07T09:42:48Z</time>
      </trkpt>
      <trkpt lat="45.72487" lon="5.93168">
        <ele>315.93</ele>
        <time>2012-08-07T09:42:49Z</time>
      </trkpt>
      <trkpt lat="45.72489" lon="5.93187">
        <ele>315.93</ele>
        <time>2012-08-07T09:42:50Z</time>
      </trkpt>
      <trkpt lat="45.72489" lon="5.93206">
        <ele>315.93</ele>
        <time>2012-08-07T09:42:51Z</time>
      </trkpt>
      <trkpt lat="45.7249" lon="5.93227">
        <ele>317.37</ele>
        <time>2012-08-07T09:42:52Z</time>
      </trkpt>
      <trkpt lat="45.72495" lon="5.93304">
        <ele>317.85</ele>
        <time>2012-08-07T09:42:56Z</time>
      </trkpt>
      <trkpt lat="45.72499" lon="5.93321">
        <ele>317.85</ele>
        <time>2012-08-07T09:42:57Z</time>
      </trkpt>
      <trkpt lat="45.72506" lon="5.93339">
        <ele>318.81</ele>
        <time>2012-08-07T09:42:58Z</time>
      </trkpt>
      <trkpt lat="45.72513" lon="5.93355">
        <ele>318.81</ele>
        <time>2012-08-07T09:42:59Z</time>
      </trkpt>
      <trkpt lat="45.72521" lon="5.9337">
        <ele>319.78</ele>
        <time>2012-08-07T09:43:00Z</time>
      </trkpt>
      <trkpt lat="45.72531" lon="5.93383">
        <ele>319.3</ele>
        <time>2012-08-07T09:43:01Z</time>
      </trkpt>
      <trkpt lat="45.72541" lon="5.93396">
        <ele>320.26</ele>
        <time>2012-08-07T09:43:02Z</time>
      </trkpt>
      <trkpt lat="45.72551" lon="5.93408">
        <ele>320.26</ele>
        <time>2012-08-07T09:43:03Z</time>
      </trkpt>
      <trkpt lat="45.72579" lon="5.93445">
        <ele>320.74</ele>
        <time>2012-08-07T09:43:06Z</time>
      </trkpt>
      <trkpt lat="45.72586" lon="5.9346">
        <ele>321.7</ele>
        <time>2012-08-07T09:43:07Z</time>
      </trkpt>
      <trkpt lat="45.7259" lon="5.93477">
        <ele>322.18</ele>
        <time>2012-08-07T09:43:08Z</time>
      </trkpt>
      <trkpt lat="45.72593" lon="5.93495">
        <ele>322.66</ele>
        <time>2012-08-07T09:43:09Z</time>
      </trkpt>
      <trkpt lat="45.72593" lon="5.93512">
        <ele>322.66</ele>
        <time>2012-08-07T09:43:10Z</time>
      </trkpt>
      <trkpt lat="45.72593" lon="5.93529">
        <ele>322.66</ele>
        <time>2012-08-07T09:43:11Z</time>
      </trkpt>
      <trkpt lat="45.72596" lon="5.93587">
        <ele>325.06</ele>
        <time>2012-08-07T09:43:15Z</time>
      </trkpt>
      <trkpt lat="45.726" lon="5.93603">
        <ele>325.54</ele>
        <time>2012-08-07T09:43:16Z</time>
      </trkpt>
      <trkpt lat="45.72605" lon="5.93619">
        <ele>325.54</ele>
        <time>2012-08-07T09:43:17Z</time>
      </trkpt>
      <trkpt lat="45.72638" lon="5.93709">
        <ele>328.91</ele>
        <time>2012-08-07T09:43:22Z</time>
      </trkpt>
      <trkpt lat="45.72659" lon="5.93761">
        <ele>329.39</ele>
        <time>2012-08-07T09:43:25Z</time>
      </trkpt>
      <trkpt lat="45.72663" lon="5.93777">
        <ele>329.39</ele>
        <time>2012-08-07T09:43:26Z</time>
      </trkpt>
      <trkpt lat="45.72665" lon="5.93794">
        <ele>330.35</ele>
        <time>2012-08-07T09:43:27Z</time>
      </trkpt>
      <trkpt lat="45.72665" lon="5.93812">
        <ele>330.83</ele>
        <time>2012-08-07T09:43:28Z</time>
      </trkpt>
      <trkpt lat="45.72664" lon="5.93831">
        <ele>331.79</ele>
        <time>2012-08-07T09:43:29Z</time>
      </trkpt>
      <trkpt lat="45.72661" lon="5.93851">
        <ele>332.75</ele>
        <time>2012-08-07T09:43:30Z</time>
      </trkpt>
      <trkpt lat="45.72657" lon="5.93871">
        <ele>332.75</ele>
        <time>2012-08-07T09:43:31Z</time>
      </trkpt>
      <trkpt lat="45.72652" lon="5.93889">
        <ele>333.23</ele>
        <time>2012-08-07T09:43:32Z</time>
      </trkpt>
      <trkpt lat="45.72647" lon="5.93908">
        <ele>333.23</ele>
        <time>2012-08-07T09:43:33Z</time>
      </trkpt>
      <trkpt lat="45.72644" lon="5.93926">
        <ele>333.71</ele>
        <time>2012-08-07T09:43:34Z</time>
      </trkpt>
      <trkpt lat="45.72643" lon="5.93946">
        <ele>334.68</ele>
        <time>2012-08-07T09:43:35Z</time>
      </trkpt>
      <trkpt lat="45.72645" lon="5.93968">
        <ele>335.64</ele>
        <time>2012-08-07T09:43:36Z</time>
      </trkpt>
      <trkpt lat="45.72649" lon="5.9399">
        <ele>335.64</ele>
        <time>2012-08-07T09:43:37Z</time>
      </trkpt>
      <trkpt lat="45.72655" lon="5.94012">
        <ele>336.12</ele>
        <time>2012-08-07T09:43:38Z</time>
      </trkpt>
      <trkpt lat="45.72676" lon="5.94083">
        <ele>339.48</ele>
        <time>2012-08-07T09:43:41Z</time>
      </trkpt>
      <trkpt lat="45.72704" lon="5.94177">
        <ele>340.44</ele>
        <time>2012-08-07T09:43:45Z</time>
      </trkpt>
      <trkpt lat="45.72709" lon="5.94199">
        <ele>340.44</ele>
        <time>2012-08-07T09:43:46Z</time>
      </trkpt>
      <trkpt lat="45.72712" lon="5.94244">
        <ele>340.92</ele>
        <time>2012-08-07T09:43:48Z</time>
      </trkpt>
      <trkpt lat="45.72708" lon="5.94289">
        <ele>342.85</ele>
        <time>2012-08-07T09:43:50Z</time>
      </trkpt>
      <trkpt lat="45.72698" lon="5.9435">
        <ele>341.89</ele>
        <time>2012-08-07T09:43:53Z</time>
      </trkpt>
      <trkpt lat="45.72697" lon="5.94369">
        <ele>341.89</ele>
        <time>2012-08-07T09:43:54Z</time>
      </trkpt>
      <trkpt lat="45.727" lon="5.94388">
        <ele>343.33</ele>
        <time>2012-08-07T09:43:55Z</time>
      </trkpt>
      <trkpt lat="45.72715" lon="5.94446">
        <ele>344.29</ele>
        <time>2012-08-07T09:43:58Z</time>
      </trkpt>
      <trkpt lat="45.72719" lon="5.94467">
        <ele>344.29</ele>
        <time>2012-08-07T09:43:59Z</time>
      </trkpt>
      <trkpt lat="45.72721" lon="5.94488">
        <ele>345.25</ele>
        <time>2012-08-07T09:44:00Z</time>
      </trkpt>
      <trkpt lat="45.7272" lon="5.9451">
        <ele>345.25</ele>
        <time>2012-08-07T09:44:01Z</time>
      </trkpt>
      <trkpt lat="45.72717" lon="5.94567">
        <ele>345.73</ele>
        <time>2012-08-07T09:44:04Z</time>
      </trkpt>
      <trkpt lat="45.72718" lon="5.94583">
        <ele>345.73</ele>
        <time>2012-08-07T09:44:05Z</time>
      </trkpt>
      <trkpt lat="45.72724" lon="5.94597">
        <ele>346.21</ele>
        <time>2012-08-07T09:44:06Z</time>
      </trkpt>
      <trkpt lat="45.72731" lon="5.9461">
        <ele>348.62</ele>
        <time>2012-08-07T09:44:07Z</time>
      </trkpt>
      <trkpt lat="45.72741" lon="5.94621">
        <ele>348.62</ele>
        <time>2012-08-07T09:44:08Z</time>
      </trkpt>
      <trkpt lat="45.72753" lon="5.94631">
        <ele>348.13</ele>
        <time>2012-08-07T09:44:09Z</time>
      </trkpt>
      <trkpt lat="45.72788" lon="5.94663">
        <ele>350.54</ele>
        <time>2012-08-07T09:44:12Z</time>
      </trkpt>
      <trkpt lat="45.72798" lon="5.94679">
        <ele>350.06</ele>
        <time>2012-08-07T09:44:13Z</time>
      </trkpt>
      <trkpt lat="45.72806" lon="5.94696">
        <ele>350.54</ele>
        <time>2012-08-07T09:44:14Z</time>
      </trkpt>
      <trkpt lat="45.72834" lon="5.94766">
        <ele>351.98</ele>
        <time>2012-08-07T09:44:18Z</time>
      </trkpt>
      <trkpt lat="45.72841" lon="5.94781">
        <ele>352.46</ele>
        <time>2012-08-07T09:44:19Z</time>
      </trkpt>
      <trkpt lat="45.72851" lon="5.94794">
        <ele>353.42</ele>
        <time>2012-08-07T09:44:20Z</time>
      </trkpt>
      <trkpt lat="45.72862" lon="5.94804">
        <ele>353.42</ele>
        <time>2012-08-07T09:44:21Z</time>
      </trkpt>
      <trkpt lat="45.72875" lon="5.94812">
        <ele>353.9</ele>
        <time>2012-08-07T09:44:22Z</time>
      </trkpt>
      <trkpt lat="45.72887" lon="5.9482">
        <ele>353.9</ele>
        <time>2012-08-07T09:44:23Z</time>
      </trkpt>
      <trkpt lat="45.72899" lon="5.9483">
        <ele>354.38</ele>
        <time>2012-08-07T09:44:24Z</time>
      </trkpt>
      <trkpt lat="45.72911" lon="5.94842">
        <ele>354.38</ele>
        <time>2012-08-07T09:44:25Z</time>
      </trkpt>
      <trkpt lat="45.72923" lon="5.94857">
        <ele>355.34</ele>
        <time>2012-08-07T09:44:26Z</time>
      </trkpt>
      <trkpt lat="45.72932" lon="5.94874">
        <ele>354.86</ele>
        <time>2012-08-07T09:44:27Z</time>
      </trkpt>
      <trkpt lat="45.72939" lon="5.94893">
        <ele>355.34</ele>
        <time>2012-08-07T09:44:28Z</time>
      </trkpt>
      <trkpt lat="45.72944" lon="5.94913">
        <ele>356.31</ele>
        <time>2012-08-07T09:44:29Z</time>
      </trkpt>
      <trkpt lat="45.72956" lon="5.94986">
        <ele>357.27</ele>
        <time>2012-08-07T09:44:33Z</time>
      </trkpt>
      <trkpt lat="45.72961" lon="5.95002">
        <ele>357.75</ele>
        <time>2012-08-07T09:44:34Z</time>
      </trkpt>
      <trkpt lat="45.72969" lon="5.95015">
        <ele>358.23</ele>
        <time>2012-08-07T09:44:35Z</time>
      </trkpt>
      <trkpt lat="45.7298" lon="5.95026">
        <ele>358.71</ele>
        <time>2012-08-07T09:44:36Z</time>
      </trkpt>
      <trkpt lat="45.72993" lon="5.95033">
        <ele>359.19</ele>
        <time>2012-08-07T09:44:37Z</time>
      </trkpt>
      <trkpt lat="45.73007" lon="5.95036">
        <ele>359.19</ele>
        <time>2012-08-07T09:44:38Z</time>
      </trkpt>
      <trkpt lat="45.7302" lon="5.95042">
        <ele>359.19</ele>
        <time>2012-08-07T09:44:39Z</time>
      </trkpt>
      <trkpt lat="45.73033" lon="5.95052">
        <ele>359.19</ele>
        <time>2012-08-07T09:44:40Z</time>
      </trkpt>
      <trkpt lat="45.73042" lon="5.95067">
        <ele>359.19</ele>
        <time>2012-08-07T09:44:41Z</time>
      </trkpt>
      <trkpt lat="45.7305" lon="5.95083">
        <ele>358.71</ele>
        <time>2012-08-07T09:44:42Z</time>
      </trkpt>
      <trkpt lat="45.73057" lon="5.95099">
        <ele>359.67</ele>
        <time>2012-08-07T09:44:43Z</time>
      </trkpt>
      <trkpt lat="45.73081" lon="5.95148">
        <ele>360.15</ele>
        <time>2012-08-07T09:44:46Z</time>
      </trkpt>
      <trkpt lat="45.73087" lon="5.95167">
        <ele>360.63</ele>
        <time>2012-08-07T09:44:47Z</time>
      </trkpt>
      <trkpt lat="45.73092" lon="5.95187">
        <ele>360.63</ele>
        <time>2012-08-07T09:44:48Z</time>
      </trkpt>
      <trkpt lat="45.73101" lon="5.95225">
        <ele>362.07</ele>
        <time>2012-08-07T09:44:50Z</time>
      </trkpt>
      <trkpt lat="45.73112" lon="5.95263">
        <ele>363.04</ele>
        <time>2012-08-07T09:44:52Z</time>
      </trkpt>
      <trkpt lat="45.73117" lon="5.95282">
        <ele>362.55</ele>
        <time>2012-08-07T09:44:53Z</time>
      </trkpt>
      <trkpt lat="45.73121" lon="5.953">
        <ele>363.04</ele>
        <time>2012-08-07T09:44:54Z</time>
      </trkpt>
      <trkpt lat="45.73128" lon="5.95317">
        <ele>363.04</ele>
        <time>2012-08-07T09:44:55Z</time>
      </trkpt>
      <trkpt lat="45.73136" lon="5.95332">
        <ele>363.52</ele>
        <time>2012-08-07T09:44:56Z</time>
      </trkpt>
      <trkpt lat="45.73161" lon="5.95381">
        <ele>363.52</ele>
        <time>2012-08-07T09:44:59Z</time>
      </trkpt>
      <trkpt lat="45.73166" lon="5.95401">
        <ele>364</ele>
        <time>2012-08-07T09:45:00Z</time>
      </trkpt>
      <trkpt lat="45.73171" lon="5.95442">
        <ele>361.11</ele>
        <time>2012-08-07T09:45:02Z</time>
      </trkpt>
      <trkpt lat="45.73176" lon="5.95481">
        <ele>363.52</ele>
        <time>2012-08-07T09:45:04Z</time>
      </trkpt>
      <trkpt lat="45.73179" lon="5.9552">
        <ele>364.48</ele>
        <time>2012-08-07T09:45:06Z</time>
      </trkpt>
      <trkpt lat="45.73179" lon="5.95572">
        <ele>364.96</ele>
        <time>2012-08-07T09:45:09Z</time>
      </trkpt>
      <trkpt lat="45.73178" lon="5.95603">
        <ele>364.48</ele>
        <time>2012-08-07T09:45:10Z</time>
      </trkpt>
      <trkpt lat="45.7318" lon="5.95623">
        <ele>365.44</ele>
        <time>2012-08-07T09:45:11Z</time>
      </trkpt>
      <trkpt lat="45.73187" lon="5.95663">
        <ele>366.4</ele>
        <time>2012-08-07T09:45:13Z</time>
      </trkpt>
      <trkpt lat="45.73194" lon="5.95681">
        <ele>366.88</ele>
        <time>2012-08-07T09:45:14Z</time>
      </trkpt>
      <trkpt lat="45.73203" lon="5.95697">
        <ele>366.88</ele>
        <time>2012-08-07T09:45:15Z</time>
      </trkpt>
      <trkpt lat="45.73221" lon="5.95727">
        <ele>366.88</ele>
        <time>2012-08-07T09:45:17Z</time>
      </trkpt>
      <trkpt lat="45.73226" lon="5.95744">
        <ele>366.88</ele>
        <time>2012-08-07T09:45:18Z</time>
      </trkpt>
      <trkpt lat="45.73228" lon="5.95762">
        <ele>367.36</ele>
        <time>2012-08-07T09:45:19Z</time>
      </trkpt>
      <trkpt lat="45.73226" lon="5.95782">
        <ele>367.36</ele>
        <time>2012-08-07T09:45:20Z</time>
      </trkpt>
      <trkpt lat="45.73223" lon="5.95801">
        <ele>367.84</ele>
        <time>2012-08-07T09:45:21Z</time>
      </trkpt>
      <trkpt lat="45.73217" lon="5.95821">
        <ele>368.8</ele>
        <time>2012-08-07T09:45:22Z</time>
      </trkpt>
      <trkpt lat="45.73215" lon="5.9584">
        <ele>368.8</ele>
        <time>2012-08-07T09:45:23Z</time>
      </trkpt>
      <trkpt lat="45.73203" lon="5.95874">
        <ele>369.28</ele>
        <time>2012-08-07T09:45:25Z</time>
      </trkpt>
      <trkpt lat="45.73199" lon="5.95891">
        <ele>369.28</ele>
        <time>2012-08-07T09:45:26Z</time>
      </trkpt>
      <trkpt lat="45.732" lon="5.95908">
        <ele>369.28</ele>
        <time>2012-08-07T09:45:27Z</time>
      </trkpt>
      <trkpt lat="45.73205" lon="5.95922">
        <ele>369.28</ele>
        <time>2012-08-07T09:45:28Z</time>
      </trkpt>
      <trkpt lat="45.73214" lon="5.95935">
        <ele>370.24</ele>
        <time>2012-08-07T09:45:29Z</time>
      </trkpt>
      <trkpt lat="45.73224" lon="5.95944">
        <ele>370.24</ele>
        <time>2012-08-07T09:45:30Z</time>
      </trkpt>
      <trkpt lat="45.73247" lon="5.95962">
        <ele>369.76</ele>
        <time>2012-08-07T09:45:32Z</time>
      </trkpt>
      <trkpt lat="45.73259" lon="5.95973">
        <ele>370.24</ele>
        <time>2012-08-07T09:45:33Z</time>
      </trkpt>
      <trkpt lat="45.7327" lon="5.95987">
        <ele>370.73</ele>
        <time>2012-08-07T09:45:34Z</time>
      </trkpt>
      <trkpt lat="45.7328" lon="5.96003">
        <ele>370.24</ele>
        <time>2012-08-07T09:45:35Z</time>
      </trkpt>
      <trkpt lat="45.73288" lon="5.96019">
        <ele>372.17</ele>
        <time>2012-08-07T09:45:36Z</time>
      </trkpt>
      <trkpt lat="45.73295" lon="5.96038">
        <ele>372.65</ele>
        <time>2012-08-07T09:45:37Z</time>
      </trkpt>
      <trkpt lat="45.73301" lon="5.96057">
        <ele>373.61</ele>
        <time>2012-08-07T09:45:38Z</time>
      </trkpt>
      <trkpt lat="45.73306" lon="5.96078">
        <ele>375.05</ele>
        <time>2012-08-07T09:45:39Z</time>
      </trkpt>
      <trkpt lat="45.73309" lon="5.96099">
        <ele>374.57</ele>
        <time>2012-08-07T09:45:40Z</time>
      </trkpt>
      <trkpt lat="45.73311" lon="5.96118">
        <ele>374.57</ele>
        <time>2012-08-07T09:45:41Z</time>
      </trkpt>
      <trkpt lat="45.73313" lon="5.96155">
        <ele>375.53</ele>
        <time>2012-08-07T09:45:43Z</time>
      </trkpt>
      <trkpt lat="45.73318" lon="5.96173">
        <ele>376.01</ele>
        <time>2012-08-07T09:45:44Z</time>
      </trkpt>
      <trkpt lat="45.73326" lon="5.96189">
        <ele>376.97</ele>
        <time>2012-08-07T09:45:45Z</time>
      </trkpt>
      <trkpt lat="45.73354" lon="5.96241">
        <ele>379.86</ele>
        <time>2012-08-07T09:45:48Z</time>
      </trkpt>
      <trkpt lat="45.7336" lon="5.96261">
        <ele>381.3</ele>
        <time>2012-08-07T09:45:49Z</time>
      </trkpt>
      <trkpt lat="45.73365" lon="5.96283">
        <ele>381.78</ele>
        <time>2012-08-07T09:45:50Z</time>
      </trkpt>
      <trkpt lat="45.73373" lon="5.96328">
        <ele>383.22</ele>
        <time>2012-08-07T09:45:52Z</time>
      </trkpt>
      <trkpt lat="45.73378" lon="5.9635">
        <ele>384.18</ele>
        <time>2012-08-07T09:45:53Z</time>
      </trkpt>
      <trkpt lat="45.73385" lon="5.96372">
        <ele>384.66</ele>
        <time>2012-08-07T09:45:54Z</time>
      </trkpt>
      <trkpt lat="45.73392" lon="5.96394">
        <ele>385.15</ele>
        <time>2012-08-07T09:45:55Z</time>
      </trkpt>
      <trkpt lat="45.73401" lon="5.96415">
        <ele>385.63</ele>
        <time>2012-08-07T09:45:56Z</time>
      </trkpt>
      <trkpt lat="45.73411" lon="5.96433">
        <ele>386.11</ele>
        <time>2012-08-07T09:45:57Z</time>
      </trkpt>
      <trkpt lat="45.73423" lon="5.96451">
        <ele>386.11</ele>
        <time>2012-08-07T09:45:58Z</time>
      </trkpt>
      <trkpt lat="45.73435" lon="5.96467">
        <ele>388.03</ele>
        <time>2012-08-07T09:45:59Z</time>
      </trkpt>
      <trkpt lat="45.73461" lon="5.965">
        <ele>388.99</ele>
        <time>2012-08-07T09:46:01Z</time>
      </trkpt>
      <trkpt lat="45.73527" lon="5.96569">
        <ele>388.99</ele>
        <time>2012-08-07T09:46:07Z</time>
      </trkpt>
      <trkpt lat="45.73539" lon="5.96578">
        <ele>389.47</ele>
        <time>2012-08-07T09:46:09Z</time>
      </trkpt>
      <trkpt lat="45.73543" lon="5.96576">
        <ele>388.99</ele>
        <time>2012-08-07T09:46:10Z</time>
      </trkpt>
      <trkpt lat="45.73545" lon="5.9657">
        <ele>389.47</ele>
        <time>2012-08-07T09:46:11Z</time>
      </trkpt>
      <trkpt lat="45.73545" lon="5.96563">
        <ele>389.95</ele>
        <time>2012-08-07T09:46:12Z</time>
      </trkpt>
      <trkpt lat="45.73544" lon="5.96554">
        <ele>391.39</ele>
        <time>2012-08-07T09:46:13Z</time>
      </trkpt>
      <trkpt lat="45.73541" lon="5.96546">
        <ele>392.36</ele>
        <time>2012-08-07T09:46:14Z</time>
      </trkpt>
      <trkpt lat="45.73536" lon="5.96537">
        <ele>394.28</ele>
        <time>2012-08-07T09:46:15Z</time>
      </trkpt>
      <trkpt lat="45.73518" lon="5.96512">
        <ele>397.16</ele>
        <time>2012-08-07T09:46:17Z</time>
      </trkpt>
      <trkpt lat="45.73502" lon="5.96486">
        <ele>400.53</ele>
        <time>2012-08-07T09:46:19Z</time>
      </trkpt>
      <trkpt lat="45.73473" lon="5.96418">
        <ele>404.37</ele>
        <time>2012-08-07T09:46:22Z</time>
      </trkpt>
      <trkpt lat="45.73466" lon="5.964">
        <ele>404.37</ele>
        <time>2012-08-07T09:46:23Z</time>
      </trkpt>
      <trkpt lat="45.73455" lon="5.96373">
        <ele>405.33</ele>
        <time>2012-08-07T09:46:25Z</time>
      </trkpt>
      <trkpt lat="45.73453" lon="5.96359">
        <ele>405.81</ele>
        <time>2012-08-07T09:46:26Z</time>
      </trkpt>
      <trkpt lat="45.73452" lon="5.96346">
        <ele>407.26</ele>
        <time>2012-08-07T09:46:27Z</time>
      </trkpt>
      <trkpt lat="45.73456" lon="5.96316">
        <ele>409.66</ele>
        <time>2012-08-07T09:46:29Z</time>
      </trkpt>
      <trkpt lat="45.73458" lon="5.9629">
        <ele>411.58</ele>
        <time>2012-08-07T09:46:31Z</time>
      </trkpt>
      <trkpt lat="45.73454" lon="5.96275">
        <ele>413.02</ele>
        <time>2012-08-07T09:46:32Z</time>
      </trkpt>
      <trkpt lat="45.73444" lon="5.96256">
        <ele>413.5</ele>
        <time>2012-08-07T09:46:34Z</time>
      </trkpt>
      <trkpt lat="45.73443" lon="5.96249">
        <ele>413.5</ele>
        <time>2012-08-07T09:46:35Z</time>
      </trkpt>
      <trkpt lat="45.73445" lon="5.96246">
        <ele>414.95</ele>
        <time>2012-08-07T09:46:37Z</time>
      </trkpt>
      <trkpt lat="45.73451" lon="5.96248">
        <ele>415.91</ele>
        <time>2012-08-07T09:46:38Z</time>
      </trkpt>
      <trkpt lat="45.73455" lon="5.96251">
        <ele>417.35</ele>
        <time>2012-08-07T09:46:39Z</time>
      </trkpt>
      <trkpt lat="45.73459" lon="5.96254">
        <ele>419.27</ele>
        <time>2012-08-07T09:46:40Z</time>
      </trkpt>
      <trkpt lat="45.73463" lon="5.96258">
        <ele>419.75</ele>
        <time>2012-08-07T09:46:41Z</time>
      </trkpt>
      <trkpt lat="45.73465" lon="5.96262">
        <ele>421.19</ele>
        <time>2012-08-07T09:46:42Z</time>
      </trkpt>
      <trkpt lat="45.73469" lon="5.96268">
        <ele>422.64</ele>
        <time>2012-08-07T09:46:43Z</time>
      </trkpt>
      <trkpt lat="45.73473" lon="5.96277">
        <ele>423.6</ele>
        <time>2012-08-07T09:46:44Z</time>
      </trkpt>
      <trkpt lat="45.73478" lon="5.96289">
        <ele>425.52</ele>
        <time>2012-08-07T09:46:45Z</time>
      </trkpt>
      <trkpt lat="45.73482" lon="5.96311">
        <ele>426.96</ele>
        <time>2012-08-07T09:46:46Z</time>
      </trkpt>
      <trkpt lat="45.73484" lon="5.96328">
        <ele>426.48</ele>
        <time>2012-08-07T09:46:47Z</time>
      </trkpt>
      <trkpt lat="45.73489" lon="5.96351">
        <ele>425.52</ele>
        <time>2012-08-07T09:46:49Z</time>
      </trkpt>
      <trkpt lat="45.73493" lon="5.9636">
        <ele>426.96</ele>
        <time>2012-08-07T09:46:50Z</time>
      </trkpt>
      <trkpt lat="45.73499" lon="5.96387">
        <ele>428.4</ele>
        <time>2012-08-07T09:46:52Z</time>
      </trkpt>
      <trkpt lat="45.73501" lon="5.96388">
        <ele>429.37</ele>
        <time>2012-08-07T09:46:53Z</time>
      </trkpt>
      <trkpt lat="45.73512" lon="5.96356">
        <ele>430.81</ele>
        <time>2012-08-07T09:46:54Z</time>
      </trkpt>
      <trkpt lat="45.73512" lon="5.96338">
        <ele>432.25</ele>
        <time>2012-08-07T09:46:55Z</time>
      </trkpt>
      <trkpt lat="45.7351" lon="5.96317">
        <ele>433.69</ele>
        <time>2012-08-07T09:46:56Z</time>
      </trkpt>
      <trkpt lat="45.73506" lon="5.96294">
        <ele>435.61</ele>
        <time>2012-08-07T09:46:57Z</time>
      </trkpt>
      <trkpt lat="45.73499" lon="5.96271">
        <ele>436.58</ele>
        <time>2012-08-07T09:46:58Z</time>
      </trkpt>
      <trkpt lat="45.73491" lon="5.96248">
        <ele>438.5</ele>
        <time>2012-08-07T09:46:59Z</time>
      </trkpt>
      <trkpt lat="45.73474" lon="5.96209">
        <ele>438.98</ele>
        <time>2012-08-07T09:47:01Z</time>
      </trkpt>
      <trkpt lat="45.73466" lon="5.96196">
        <ele>439.46</ele>
        <time>2012-08-07T09:47:02Z</time>
      </trkpt>
      <trkpt lat="45.73456" lon="5.96179">
        <ele>438.5</ele>
        <time>2012-08-07T09:47:04Z</time>
      </trkpt>
      <trkpt lat="45.73457" lon="5.96173">
        <ele>438.5</ele>
        <time>2012-08-07T09:47:05Z</time>
      </trkpt>
      <trkpt lat="45.73462" lon="5.9617">
        <ele>440.42</ele>
        <time>2012-08-07T09:47:06Z</time>
      </trkpt>
      <trkpt lat="45.7347" lon="5.9617">
        <ele>440.9</ele>
        <time>2012-08-07T09:47:07Z</time>
      </trkpt>
      <trkpt lat="45.73481" lon="5.96173">
        <ele>442.34</ele>
        <time>2012-08-07T09:47:08Z</time>
      </trkpt>
      <trkpt lat="45.73495" lon="5.96173">
        <ele>443.79</ele>
        <time>2012-08-07T09:47:09Z</time>
      </trkpt>
      <trkpt lat="45.73509" lon="5.96168">
        <ele>443.31</ele>
        <time>2012-08-07T09:47:10Z</time>
      </trkpt>
      <trkpt lat="45.73522" lon="5.9616">
        <ele>444.27</ele>
        <time>2012-08-07T09:47:11Z</time>
      </trkpt>
      <trkpt lat="45.73531" lon="5.96145">
        <ele>445.71</ele>
        <time>2012-08-07T09:47:12Z</time>
      </trkpt>
      <trkpt lat="45.73537" lon="5.96127">
        <ele>446.67</ele>
        <time>2012-08-07T09:47:13Z</time>
      </trkpt>
      <trkpt lat="45.73542" lon="5.96106">
        <ele>449.07</ele>
        <time>2012-08-07T09:47:14Z</time>
      </trkpt>
      <trkpt lat="45.7356" lon="5.96043">
        <ele>452.44</ele>
        <time>2012-08-07T09:47:17Z</time>
      </trkpt>
      <trkpt lat="45.73568" lon="5.96026">
        <ele>451.96</ele>
        <time>2012-08-07T09:47:18Z</time>
      </trkpt>
      <trkpt lat="45.73576" lon="5.96012">
        <ele>452.44</ele>
        <time>2012-08-07T09:47:19Z</time>
      </trkpt>
      <trkpt lat="45.73584" lon="5.95998">
        <ele>453.4</ele>
        <time>2012-08-07T09:47:20Z</time>
      </trkpt>
      <trkpt lat="45.7359" lon="5.9598">
        <ele>454.84</ele>
        <time>2012-08-07T09:47:21Z</time>
      </trkpt>
      <trkpt lat="45.73594" lon="5.9596">
        <ele>456.28</ele>
        <time>2012-08-07T09:47:22Z</time>
      </trkpt>
      <trkpt lat="45.73596" lon="5.95942">
        <ele>456.76</ele>
        <time>2012-08-07T09:47:23Z</time>
      </trkpt>
      <trkpt lat="45.73594" lon="5.95925">
        <ele>457.24</ele>
        <time>2012-08-07T09:47:24Z</time>
      </trkpt>
      <trkpt lat="45.7359" lon="5.95911">
        <ele>456.76</ele>
        <time>2012-08-07T09:47:25Z</time>
      </trkpt>
      <trkpt lat="45.73586" lon="5.959">
        <ele>457.24</ele>
        <time>2012-08-07T09:47:26Z</time>
      </trkpt>
      <trkpt lat="45.73584" lon="5.95889">
        <ele>457.24</ele>
        <time>2012-08-07T09:47:27Z</time>
      </trkpt>
      <trkpt lat="45.73586" lon="5.95882">
        <ele>457.72</ele>
        <time>2012-08-07T09:47:28Z</time>
      </trkpt>
      <trkpt lat="45.73591" lon="5.95879">
        <ele>458.21</ele>
        <time>2012-08-07T09:47:29Z</time>
      </trkpt>
      <trkpt lat="45.73598" lon="5.9588">
        <ele>460.13</ele>
        <time>2012-08-07T09:47:30Z</time>
      </trkpt>
      <trkpt lat="45.73608" lon="5.95885">
        <ele>461.57</ele>
        <time>2012-08-07T09:47:31Z</time>
      </trkpt>
      <trkpt lat="45.73633" lon="5.95893">
        <ele>463.49</ele>
        <time>2012-08-07T09:47:33Z</time>
      </trkpt>
      <trkpt lat="45.73646" lon="5.95894">
        <ele>463.49</ele>
        <time>2012-08-07T09:47:34Z</time>
      </trkpt>
      <trkpt lat="45.73675" lon="5.95891">
        <ele>466.86</ele>
        <time>2012-08-07T09:47:36Z</time>
      </trkpt>
      <trkpt lat="45.73689" lon="5.95889">
        <ele>467.34</ele>
        <time>2012-08-07T09:47:37Z</time>
      </trkpt>
      <trkpt lat="45.73713" lon="5.95888">
        <ele>468.78</ele>
        <time>2012-08-07T09:47:39Z</time>
      </trkpt>
      <trkpt lat="45.73726" lon="5.95891">
        <ele>469.26</ele>
        <time>2012-08-07T09:47:40Z</time>
      </trkpt>
      <trkpt lat="45.73749" lon="5.95897">
        <ele>470.7</ele>
        <time>2012-08-07T09:47:42Z</time>
      </trkpt>
      <trkpt lat="45.73761" lon="5.95895">
        <ele>472.14</ele>
        <time>2012-08-07T09:47:43Z</time>
      </trkpt>
      <trkpt lat="45.73774" lon="5.95889">
        <ele>473.11</ele>
        <time>2012-08-07T09:47:44Z</time>
      </trkpt>
      <trkpt lat="45.73799" lon="5.95875">
        <ele>473.59</ele>
        <time>2012-08-07T09:47:46Z</time>
      </trkpt>
      <trkpt lat="45.73828" lon="5.95861">
        <ele>474.07</ele>
        <time>2012-08-07T09:47:49Z</time>
      </trkpt>
      <trkpt lat="45.73836" lon="5.95861">
        <ele>474.07</ele>
        <time>2012-08-07T09:47:50Z</time>
      </trkpt>
      <trkpt lat="45.73845" lon="5.95863">
        <ele>474.55</ele>
        <time>2012-08-07T09:47:51Z</time>
      </trkpt>
      <trkpt lat="45.73854" lon="5.95869">
        <ele>475.99</ele>
        <time>2012-08-07T09:47:52Z</time>
      </trkpt>
      <trkpt lat="45.73863" lon="5.95878">
        <ele>476.47</ele>
        <time>2012-08-07T09:47:53Z</time>
      </trkpt>
      <trkpt lat="45.73872" lon="5.95888">
        <ele>476.95</ele>
        <time>2012-08-07T09:47:54Z</time>
      </trkpt>
      <trkpt lat="45.73881" lon="5.959">
        <ele>477.43</ele>
        <time>2012-08-07T09:47:55Z</time>
      </trkpt>
      <trkpt lat="45.73889" lon="5.95913">
        <ele>477.91</ele>
        <time>2012-08-07T09:47:56Z</time>
      </trkpt>
      <trkpt lat="45.73896" lon="5.95927">
        <ele>478.39</ele>
        <time>2012-08-07T09:47:57Z</time>
      </trkpt>
      <trkpt lat="45.73901" lon="5.95943">
        <ele>478.39</ele>
        <time>2012-08-07T09:47:58Z</time>
      </trkpt>
      <trkpt lat="45.73906" lon="5.95958">
        <ele>479.35</ele>
        <time>2012-08-07T09:47:59Z</time>
      </trkpt>
      <trkpt lat="45.7391" lon="5.95971">
        <ele>479.84</ele>
        <time>2012-08-07T09:48:00Z</time>
      </trkpt>
      <trkpt lat="45.73938" lon="5.96033">
        <ele>482.24</ele>
        <time>2012-08-07T09:48:08Z</time>
      </trkpt>
      <trkpt lat="45.73942" lon="5.96038">
        <ele>482.72</ele>
        <time>2012-08-07T09:48:10Z</time>
      </trkpt>
      <trkpt lat="45.73946" lon="5.96039">
        <ele>482.72</ele>
        <time>2012-08-07T09:48:11Z</time>
      </trkpt>
      <trkpt lat="45.7395" lon="5.96039">
        <ele>482.72</ele>
        <time>2012-08-07T09:48:12Z</time>
      </trkpt>
      <trkpt lat="45.73955" lon="5.96038">
        <ele>482.72</ele>
        <time>2012-08-07T09:48:13Z</time>
      </trkpt>
      <trkpt lat="45.73961" lon="5.96037">
        <ele>482.72</ele>
        <time>2012-08-07T09:48:14Z</time>
      </trkpt>
      <trkpt lat="45.73968" lon="5.96037">
        <ele>481.76</ele>
        <time>2012-08-07T09:48:15Z</time>
      </trkpt>
      <trkpt lat="45.73975" lon="5.96038">
        <ele>481.76</ele>
        <time>2012-08-07T09:48:16Z</time>
      </trkpt>
      <trkpt lat="45.73982" lon="5.96039">
        <ele>481.28</ele>
        <time>2012-08-07T09:48:17Z</time>
      </trkpt>
      <trkpt lat="45.73997" lon="5.96043">
        <ele>480.32</ele>
        <time>2012-08-07T09:48:19Z</time>
      </trkpt>
      <trkpt lat="45.74004" lon="5.96047">
        <ele>479.35</ele>
        <time>2012-08-07T09:48:20Z</time>
      </trkpt>
      <trkpt lat="45.74011" lon="5.96052">
        <ele>479.35</ele>
        <time>2012-08-07T09:48:21Z</time>
      </trkpt>
      <trkpt lat="45.74018" lon="5.96057">
        <ele>479.35</ele>
        <time>2012-08-07T09:48:22Z</time>
      </trkpt>
      <trkpt lat="45.74026" lon="5.96062">
        <ele>479.35</ele>
        <time>2012-08-07T09:48:23Z</time>
      </trkpt>
      <trkpt lat="45.74126" lon="5.96118">
        <ele>480.8</ele>
        <time>2012-08-07T09:48:31Z</time>
      </trkpt>
      <trkpt lat="45.7414" lon="5.9613">
        <ele>481.28</ele>
        <time>2012-08-07T09:48:32Z</time>
      </trkpt>
      <trkpt lat="45.74153" lon="5.96144">
        <ele>480.8</ele>
        <time>2012-08-07T09:48:33Z</time>
      </trkpt>
      <trkpt lat="45.74164" lon="5.96157">
        <ele>479.84</ele>
        <time>2012-08-07T09:48:34Z</time>
      </trkpt>
      <trkpt lat="45.74175" lon="5.96171">
        <ele>479.35</ele>
        <time>2012-08-07T09:48:35Z</time>
      </trkpt>
      <trkpt lat="45.74203" lon="5.96213">
        <ele>480.32</ele>
        <time>2012-08-07T09:48:38Z</time>
      </trkpt>
      <trkpt lat="45.7421" lon="5.96228">
        <ele>478.87</ele>
        <time>2012-08-07T09:48:39Z</time>
      </trkpt>
      <trkpt lat="45.74216" lon="5.96242">
        <ele>479.35</ele>
        <time>2012-08-07T09:48:40Z</time>
      </trkpt>
      <trkpt lat="45.7422" lon="5.96257">
        <ele>478.87</ele>
        <time>2012-08-07T09:48:41Z</time>
      </trkpt>
      <trkpt lat="45.74224" lon="5.9627">
        <ele>478.39</ele>
        <time>2012-08-07T09:48:42Z</time>
      </trkpt>
      <trkpt lat="45.74227" lon="5.96282">
        <ele>476.95</ele>
        <time>2012-08-07T09:48:43Z</time>
      </trkpt>
      <trkpt lat="45.74231" lon="5.9629">
        <ele>476.95</ele>
        <time>2012-08-07T09:48:44Z</time>
      </trkpt>
      <trkpt lat="45.74237" lon="5.96295">
        <ele>475.99</ele>
        <time>2012-08-07T09:48:45Z</time>
      </trkpt>
      <trkpt lat="45.74243" lon="5.96295">
        <ele>476.47</ele>
        <time>2012-08-07T09:48:46Z</time>
      </trkpt>
      <trkpt lat="45.74251" lon="5.96291">
        <ele>476.47</ele>
        <time>2012-08-07T09:48:47Z</time>
      </trkpt>
      <trkpt lat="45.74259" lon="5.96283">
        <ele>477.43</ele>
        <time>2012-08-07T09:48:48Z</time>
      </trkpt>
      <trkpt lat="45.74268" lon="5.96273">
        <ele>476.95</ele>
        <time>2012-08-07T09:48:49Z</time>
      </trkpt>
      <trkpt lat="45.74287" lon="5.96251">
        <ele>476.95</ele>
        <time>2012-08-07T09:48:51Z</time>
      </trkpt>
      <trkpt lat="45.74296" lon="5.96237">
        <ele>476.95</ele>
        <time>2012-08-07T09:48:52Z</time>
      </trkpt>
      <trkpt lat="45.74303" lon="5.96223">
        <ele>476.47</ele>
        <time>2012-08-07T09:48:53Z</time>
      </trkpt>
      <trkpt lat="45.74308" lon="5.96208">
        <ele>475.51</ele>
        <time>2012-08-07T09:48:54Z</time>
      </trkpt>
      <trkpt lat="45.74313" lon="5.96192">
        <ele>474.07</ele>
        <time>2012-08-07T09:48:55Z</time>
      </trkpt>
      <trkpt lat="45.74318" lon="5.96177">
        <ele>474.07</ele>
        <time>2012-08-07T09:48:56Z</time>
      </trkpt>
      <trkpt lat="45.74335" lon="5.96129">
        <ele>471.66</ele>
        <time>2012-08-07T09:48:59Z</time>
      </trkpt>
      <trkpt lat="45.74342" lon="5.96115">
        <ele>471.18</ele>
        <time>2012-08-07T09:49:00Z</time>
      </trkpt>
      <trkpt lat="45.74353" lon="5.96102">
        <ele>471.66</ele>
        <time>2012-08-07T09:49:01Z</time>
      </trkpt>
      <trkpt lat="45.74375" lon="5.96077">
        <ele>470.22</ele>
        <time>2012-08-07T09:49:03Z</time>
      </trkpt>
      <trkpt lat="45.74386" lon="5.96062">
        <ele>469.74</ele>
        <time>2012-08-07T09:49:04Z</time>
      </trkpt>
      <trkpt lat="45.74394" lon="5.96045">
        <ele>468.78</ele>
        <time>2012-08-07T09:49:05Z</time>
      </trkpt>
      <trkpt lat="45.74403" lon="5.96028">
        <ele>467.34</ele>
        <time>2012-08-07T09:49:06Z</time>
      </trkpt>
      <trkpt lat="45.74412" lon="5.96013">
        <ele>466.86</ele>
        <time>2012-08-07T09:49:07Z</time>
      </trkpt>
      <trkpt lat="45.74423" lon="5.96">
        <ele>466.86</ele>
        <time>2012-08-07T09:49:08Z</time>
      </trkpt>
      <trkpt lat="45.74434" lon="5.95988">
        <ele>466.38</ele>
        <time>2012-08-07T09:49:09Z</time>
      </trkpt>
      <trkpt lat="45.74447" lon="5.95978">
        <ele>465.9</ele>
        <time>2012-08-07T09:49:10Z</time>
      </trkpt>
      <trkpt lat="45.74459" lon="5.95971">
        <ele>465.42</ele>
        <time>2012-08-07T09:49:11Z</time>
      </trkpt>
      <trkpt lat="45.74472" lon="5.95965">
        <ele>464.93</ele>
        <time>2012-08-07T09:49:12Z</time>
      </trkpt>
      <trkpt lat="45.74482" lon="5.95961">
        <ele>463.97</ele>
        <time>2012-08-07T09:49:13Z</time>
      </trkpt>
      <trkpt lat="45.74543" lon="5.95938">
        <ele>463.49</ele>
        <time>2012-08-07T09:49:19Z</time>
      </trkpt>
      <trkpt lat="45.74554" lon="5.9593">
        <ele>463.01</ele>
        <time>2012-08-07T09:49:20Z</time>
      </trkpt>
      <trkpt lat="45.74628" lon="5.9588">
        <ele>461.57</ele>
        <time>2012-08-07T09:49:28Z</time>
      </trkpt>
      <trkpt lat="45.74671" lon="5.95862">
        <ele>459.17</ele>
        <time>2012-08-07T09:49:32Z</time>
      </trkpt>
      <trkpt lat="45.74689" lon="5.9586">
        <ele>458.21</ele>
        <time>2012-08-07T09:49:34Z</time>
      </trkpt>
      <trkpt lat="45.74697" lon="5.9586">
        <ele>457.72</ele>
        <time>2012-08-07T09:49:35Z</time>
      </trkpt>
      <trkpt lat="45.74733" lon="5.9587">
        <ele>456.28</ele>
        <time>2012-08-07T09:49:41Z</time>
      </trkpt>
      <trkpt lat="45.7477" lon="5.95885">
        <ele>459.65</ele>
        <time>2012-08-07T09:49:45Z</time>
      </trkpt>
      <trkpt lat="45.74815" lon="5.95901">
        <ele>463.01</ele>
        <time>2012-08-07T09:49:48Z</time>
      </trkpt>
      <trkpt lat="45.74869" lon="5.95919">
        <ele>466.38</ele>
        <time>2012-08-07T09:49:51Z</time>
      </trkpt>
      <trkpt lat="45.74888" lon="5.95926">
        <ele>466.38</ele>
        <time>2012-08-07T09:49:52Z</time>
      </trkpt>
      <trkpt lat="45.74948" lon="5.95947">
        <ele>469.74</ele>
        <time>2012-08-07T09:49:55Z</time>
      </trkpt>
      <trkpt lat="45.7502" lon="5.95981">
        <ele>473.11</ele>
        <time>2012-08-07T09:49:59Z</time>
      </trkpt>
      <trkpt lat="45.75071" lon="5.96008">
        <ele>471.66</ele>
        <time>2012-08-07T09:50:02Z</time>
      </trkpt>
      <trkpt lat="45.75099" lon="5.96024">
        <ele>472.14</ele>
        <time>2012-08-07T09:50:04Z</time>
      </trkpt>
      <trkpt lat="45.75113" lon="5.96036">
        <ele>472.63</ele>
        <time>2012-08-07T09:50:05Z</time>
      </trkpt>
      <trkpt lat="45.75125" lon="5.9605">
        <ele>472.14</ele>
        <time>2012-08-07T09:50:06Z</time>
      </trkpt>
      <trkpt lat="45.75136" lon="5.96063">
        <ele>471.66</ele>
        <time>2012-08-07T09:50:07Z</time>
      </trkpt>
      <trkpt lat="45.7515" lon="5.96074">
        <ele>472.14</ele>
        <time>2012-08-07T09:50:08Z</time>
      </trkpt>
      <trkpt lat="45.75166" lon="5.96081">
        <ele>473.59</ele>
        <time>2012-08-07T09:50:09Z</time>
      </trkpt>
      <trkpt lat="45.75183" lon="5.96088">
        <ele>474.07</ele>
        <time>2012-08-07T09:50:10Z</time>
      </trkpt>
      <trkpt lat="45.752" lon="5.96093">
        <ele>473.11</ele>
        <time>2012-08-07T09:50:11Z</time>
      </trkpt>
      <trkpt lat="45.75239" lon="5.96105">
        <ele>470.7</ele>
        <time>2012-08-07T09:50:14Z</time>
      </trkpt>
      <trkpt lat="45.75261" lon="5.96116">
        <ele>471.66</ele>
        <time>2012-08-07T09:50:16Z</time>
      </trkpt>
      <trkpt lat="45.75271" lon="5.96123">
        <ele>470.7</ele>
        <time>2012-08-07T09:50:17Z</time>
      </trkpt>
      <trkpt lat="45.75281" lon="5.96127">
        <ele>470.7</ele>
        <time>2012-08-07T09:50:18Z</time>
      </trkpt>
      <trkpt lat="45.753" lon="5.9613">
        <ele>467.82</ele>
        <time>2012-08-07T09:50:20Z</time>
      </trkpt>
      <trkpt lat="45.75307" lon="5.96135">
        <ele>467.34</ele>
        <time>2012-08-07T09:50:21Z</time>
      </trkpt>
      <trkpt lat="45.75313" lon="5.96143">
        <ele>467.34</ele>
        <time>2012-08-07T09:50:22Z</time>
      </trkpt>
      <trkpt lat="45.75317" lon="5.96154">
        <ele>466.86</ele>
        <time>2012-08-07T09:50:23Z</time>
      </trkpt>
      <trkpt lat="45.7532" lon="5.96167">
        <ele>466.38</ele>
        <time>2012-08-07T09:50:24Z</time>
      </trkpt>
      <trkpt lat="45.75323" lon="5.96179">
        <ele>466.38</ele>
        <time>2012-08-07T09:50:25Z</time>
      </trkpt>
      <trkpt lat="45.75327" lon="5.96189">
        <ele>465.9</ele>
        <time>2012-08-07T09:50:26Z</time>
      </trkpt>
      <trkpt lat="45.75332" lon="5.96195">
        <ele>465.9</ele>
        <time>2012-08-07T09:50:27Z</time>
      </trkpt>
      <trkpt lat="45.75338" lon="5.96198">
        <ele>465.9</ele>
        <time>2012-08-07T09:50:28Z</time>
      </trkpt>
      <trkpt lat="45.75345" lon="5.96198">
        <ele>466.38</ele>
        <time>2012-08-07T09:50:29Z</time>
      </trkpt>
      <trkpt lat="45.75355" lon="5.96195">
        <ele>465.9</ele>
        <time>2012-08-07T09:50:30Z</time>
      </trkpt>
      <trkpt lat="45.75365" lon="5.96192">
        <ele>464.93</ele>
        <time>2012-08-07T09:50:31Z</time>
      </trkpt>
      <trkpt lat="45.75376" lon="5.96191">
        <ele>463.97</ele>
        <time>2012-08-07T09:50:32Z</time>
      </trkpt>
      <trkpt lat="45.75387" lon="5.96192">
        <ele>463.97</ele>
        <time>2012-08-07T09:50:33Z</time>
      </trkpt>
      <trkpt lat="45.754" lon="5.96197">
        <ele>463.97</ele>
        <time>2012-08-07T09:50:34Z</time>
      </trkpt>
      <trkpt lat="45.75414" lon="5.96204">
        <ele>463.01</ele>
        <time>2012-08-07T09:50:35Z</time>
      </trkpt>
      <trkpt lat="45.75449" lon="5.96225">
        <ele>458.69</ele>
        <time>2012-08-07T09:50:38Z</time>
      </trkpt>
      <trkpt lat="45.75456" lon="5.96228">
        <ele>458.21</ele>
        <time>2012-08-07T09:50:39Z</time>
      </trkpt>
      <trkpt lat="45.75463" lon="5.96229">
        <ele>457.24</ele>
        <time>2012-08-07T09:50:40Z</time>
      </trkpt>
      <trkpt lat="45.75471" lon="5.96227">
        <ele>457.72</ele>
        <time>2012-08-07T09:50:41Z</time>
      </trkpt>
      <trkpt lat="45.75478" lon="5.96221">
        <ele>457.72</ele>
        <time>2012-08-07T09:50:42Z</time>
      </trkpt>
      <trkpt lat="45.75487" lon="5.96214">
        <ele>456.28</ele>
        <time>2012-08-07T09:50:43Z</time>
      </trkpt>
      <trkpt lat="45.75495" lon="5.96208">
        <ele>455.32</ele>
        <time>2012-08-07T09:50:44Z</time>
      </trkpt>
      <trkpt lat="45.75503" lon="5.96205">
        <ele>453.88</ele>
        <time>2012-08-07T09:50:45Z</time>
      </trkpt>
      <trkpt lat="45.7551" lon="5.96206">
        <ele>452.92</ele>
        <time>2012-08-07T09:50:46Z</time>
      </trkpt>
      <trkpt lat="45.75516" lon="5.96208">
        <ele>452.92</ele>
        <time>2012-08-07T09:50:47Z</time>
      </trkpt>
      <trkpt lat="45.75523" lon="5.96211">
        <ele>452.44</ele>
        <time>2012-08-07T09:50:48Z</time>
      </trkpt>
      <trkpt lat="45.75529" lon="5.96215">
        <ele>451.96</ele>
        <time>2012-08-07T09:50:49Z</time>
      </trkpt>
      <trkpt lat="45.75539" lon="5.96226">
        <ele>450.03</ele>
        <time>2012-08-07T09:50:51Z</time>
      </trkpt>
      <trkpt lat="45.75544" lon="5.96231">
        <ele>449.07</ele>
        <time>2012-08-07T09:50:52Z</time>
      </trkpt>
      <trkpt lat="45.75549" lon="5.96233">
        <ele>449.55</ele>
        <time>2012-08-07T09:50:53Z</time>
      </trkpt>
      <trkpt lat="45.75555" lon="5.96231">
        <ele>449.55</ele>
        <time>2012-08-07T09:50:54Z</time>
      </trkpt>
      <trkpt lat="45.75561" lon="5.96226">
        <ele>449.55</ele>
        <time>2012-08-07T09:50:55Z</time>
      </trkpt>
      <trkpt lat="45.75569" lon="5.9622">
        <ele>448.59</ele>
        <time>2012-08-07T09:50:56Z</time>
      </trkpt>
      <trkpt lat="45.75592" lon="5.96204">
        <ele>445.23</ele>
        <time>2012-08-07T09:50:59Z</time>
      </trkpt>
      <trkpt lat="45.75604" lon="5.96198">
        <ele>444.27</ele>
        <time>2012-08-07T09:51:01Z</time>
      </trkpt>
      <trkpt lat="45.7561" lon="5.96193">
        <ele>443.79</ele>
        <time>2012-08-07T09:51:02Z</time>
      </trkpt>
      <trkpt lat="45.75619" lon="5.9619">
        <ele>443.31</ele>
        <time>2012-08-07T09:51:03Z</time>
      </trkpt>
      <trkpt lat="45.75627" lon="5.96191">
        <ele>442.82</ele>
        <time>2012-08-07T09:51:04Z</time>
      </trkpt>
      <trkpt lat="45.75635" lon="5.96195">
        <ele>442.82</ele>
        <time>2012-08-07T09:51:05Z</time>
      </trkpt>
      <trkpt lat="45.75643" lon="5.962">
        <ele>443.31</ele>
        <time>2012-08-07T09:51:06Z</time>
      </trkpt>
      <trkpt lat="45.75653" lon="5.96204">
        <ele>442.34</ele>
        <time>2012-08-07T09:51:07Z</time>
      </trkpt>
      <trkpt lat="45.75663" lon="5.96203">
        <ele>442.34</ele>
        <time>2012-08-07T09:51:08Z</time>
      </trkpt>
      <trkpt lat="45.75674" lon="5.96201">
        <ele>442.82</ele>
        <time>2012-08-07T09:51:09Z</time>
      </trkpt>
      <trkpt lat="45.75686" lon="5.96195">
        <ele>442.34</ele>
        <time>2012-08-07T09:51:10Z</time>
      </trkpt>
      <trkpt lat="45.75713" lon="5.96183">
        <ele>438.02</ele>
        <time>2012-08-07T09:51:12Z</time>
      </trkpt>
      <trkpt lat="45.75725" lon="5.9618">
        <ele>436.58</ele>
        <time>2012-08-07T09:51:13Z</time>
      </trkpt>
      <trkpt lat="45.75736" lon="5.96178">
        <ele>436.1</ele>
        <time>2012-08-07T09:51:14Z</time>
      </trkpt>
      <trkpt lat="45.75747" lon="5.96177">
        <ele>436.1</ele>
        <time>2012-08-07T09:51:15Z</time>
      </trkpt>
      <trkpt lat="45.75757" lon="5.96179">
        <ele>435.61</ele>
        <time>2012-08-07T09:51:16Z</time>
      </trkpt>
      <trkpt lat="45.75769" lon="5.96187">
        <ele>434.65</ele>
        <time>2012-08-07T09:51:17Z</time>
      </trkpt>
      <trkpt lat="45.75784" lon="5.96197">
        <ele>433.69</ele>
        <time>2012-08-07T09:51:18Z</time>
      </trkpt>
      <trkpt lat="45.75817" lon="5.96221">
        <ele>430.33</ele>
        <time>2012-08-07T09:51:21Z</time>
      </trkpt>
      <trkpt lat="45.75827" lon="5.96225">
        <ele>428.4</ele>
        <time>2012-08-07T09:51:22Z</time>
      </trkpt>
      <trkpt lat="45.75837" lon="5.96226">
        <ele>427.92</ele>
        <time>2012-08-07T09:51:23Z</time>
      </trkpt>
      <trkpt lat="45.75845" lon="5.96223">
        <ele>427.44</ele>
        <time>2012-08-07T09:51:24Z</time>
      </trkpt>
      <trkpt lat="45.75853" lon="5.96214">
        <ele>427.44</ele>
        <time>2012-08-07T09:51:25Z</time>
      </trkpt>
      <trkpt lat="45.75862" lon="5.96202">
        <ele>427.92</ele>
        <time>2012-08-07T09:51:26Z</time>
      </trkpt>
      <trkpt lat="45.75869" lon="5.96189">
        <ele>426.48</ele>
        <time>2012-08-07T09:51:27Z</time>
      </trkpt>
      <trkpt lat="45.75877" lon="5.96176">
        <ele>426.96</ele>
        <time>2012-08-07T09:51:28Z</time>
      </trkpt>
      <trkpt lat="45.75886" lon="5.96165">
        <ele>426.96</ele>
        <time>2012-08-07T09:51:29Z</time>
      </trkpt>
      <trkpt lat="45.75895" lon="5.96155">
        <ele>426.48</ele>
        <time>2012-08-07T09:51:30Z</time>
      </trkpt>
      <trkpt lat="45.75904" lon="5.96148">
        <ele>425.04</ele>
        <time>2012-08-07T09:51:31Z</time>
      </trkpt>
      <trkpt lat="45.75912" lon="5.96144">
        <ele>424.08</ele>
        <time>2012-08-07T09:51:32Z</time>
      </trkpt>
      <trkpt lat="45.75922" lon="5.96143">
        <ele>423.12</ele>
        <time>2012-08-07T09:51:33Z</time>
      </trkpt>
      <trkpt lat="45.75931" lon="5.96147">
        <ele>423.12</ele>
        <time>2012-08-07T09:51:34Z</time>
      </trkpt>
      <trkpt lat="45.75942" lon="5.96155">
        <ele>423.6</ele>
        <time>2012-08-07T09:51:35Z</time>
      </trkpt>
      <trkpt lat="45.75953" lon="5.96165">
        <ele>423.12</ele>
        <time>2012-08-07T09:51:36Z</time>
      </trkpt>
      <trkpt lat="45.7602" lon="5.96223">
        <ele>420.23</ele>
        <time>2012-08-07T09:51:41Z</time>
      </trkpt>
      <trkpt lat="45.7606" lon="5.96261">
        <ele>416.39</ele>
        <time>2012-08-07T09:51:44Z</time>
      </trkpt>
      <trkpt lat="45.76082" lon="5.96284">
        <ele>413.02</ele>
        <time>2012-08-07T09:51:46Z</time>
      </trkpt>
      <trkpt lat="45.76093" lon="5.96297">
        <ele>412.54</ele>
        <time>2012-08-07T09:51:47Z</time>
      </trkpt>
      <trkpt lat="45.76102" lon="5.96312">
        <ele>411.1</ele>
        <time>2012-08-07T09:51:48Z</time>
      </trkpt>
      <trkpt lat="45.7611" lon="5.96326">
        <ele>409.66</ele>
        <time>2012-08-07T09:51:49Z</time>
      </trkpt>
      <trkpt lat="45.7612" lon="5.96338">
        <ele>409.18</ele>
        <time>2012-08-07T09:51:50Z</time>
      </trkpt>
      <trkpt lat="45.76132" lon="5.96346">
        <ele>408.7</ele>
        <time>2012-08-07T09:51:51Z</time>
      </trkpt>
      <trkpt lat="45.76146" lon="5.9635">
        <ele>407.74</ele>
        <time>2012-08-07T09:51:52Z</time>
      </trkpt>
      <trkpt lat="45.7616" lon="5.96352">
        <ele>406.77</ele>
        <time>2012-08-07T09:51:53Z</time>
      </trkpt>
      <trkpt lat="45.76174" lon="5.96353">
        <ele>406.77</ele>
        <time>2012-08-07T09:51:54Z</time>
      </trkpt>
      <trkpt lat="45.76215" lon="5.96362">
        <ele>402.93</ele>
        <time>2012-08-07T09:51:57Z</time>
      </trkpt>
      <trkpt lat="45.76227" lon="5.96367">
        <ele>401.97</ele>
        <time>2012-08-07T09:51:58Z</time>
      </trkpt>
      <trkpt lat="45.76236" lon="5.96376">
        <ele>401.01</ele>
        <time>2012-08-07T09:51:59Z</time>
      </trkpt>
      <trkpt lat="45.76244" lon="5.96387">
        <ele>400.53</ele>
        <time>2012-08-07T09:52:00Z</time>
      </trkpt>
      <trkpt lat="45.7625" lon="5.96401">
        <ele>399.08</ele>
        <time>2012-08-07T09:52:01Z</time>
      </trkpt>
      <trkpt lat="45.76255" lon="5.96414">
        <ele>398.6</ele>
        <time>2012-08-07T09:52:02Z</time>
      </trkpt>
      <trkpt lat="45.76261" lon="5.96425">
        <ele>397.64</ele>
        <time>2012-08-07T09:52:03Z</time>
      </trkpt>
      <trkpt lat="45.76268" lon="5.96434">
        <ele>397.16</ele>
        <time>2012-08-07T09:52:04Z</time>
      </trkpt>
      <trkpt lat="45.76275" lon="5.96441">
        <ele>398.12</ele>
        <time>2012-08-07T09:52:05Z</time>
      </trkpt>
      <trkpt lat="45.76283" lon="5.96446">
        <ele>398.12</ele>
        <time>2012-08-07T09:52:06Z</time>
      </trkpt>
      <trkpt lat="45.76295" lon="5.96447">
        <ele>398.12</ele>
        <time>2012-08-07T09:52:07Z</time>
      </trkpt>
      <trkpt lat="45.76308" lon="5.96446">
        <ele>397.16</ele>
        <time>2012-08-07T09:52:08Z</time>
      </trkpt>
      <trkpt lat="45.76322" lon="5.96446">
        <ele>397.16</ele>
        <time>2012-08-07T09:52:09Z</time>
      </trkpt>
      <trkpt lat="45.76337" lon="5.96447">
        <ele>397.16</ele>
        <time>2012-08-07T09:52:10Z</time>
      </trkpt>
      <trkpt lat="45.76352" lon="5.9645">
        <ele>397.16</ele>
        <time>2012-08-07T09:52:11Z</time>
      </trkpt>
      <trkpt lat="45.76368" lon="5.96455">
        <ele>396.68</ele>
        <time>2012-08-07T09:52:12Z</time>
      </trkpt>
      <trkpt lat="45.76384" lon="5.96461">
        <ele>395.72</ele>
        <time>2012-08-07T09:52:13Z</time>
      </trkpt>
      <trkpt lat="45.7643" lon="5.96482">
        <ele>391.87</ele>
        <time>2012-08-07T09:52:16Z</time>
      </trkpt>
      <trkpt lat="45.76475" lon="5.96495">
        <ele>388.03</ele>
        <time>2012-08-07T09:52:19Z</time>
      </trkpt>
      <trkpt lat="45.76526" lon="5.96525">
        <ele>385.15</ele>
        <time>2012-08-07T09:52:23Z</time>
      </trkpt>
      <trkpt lat="45.76569" lon="5.96561">
        <ele>380.82</ele>
        <time>2012-08-07T09:52:27Z</time>
      </trkpt>
      <trkpt lat="45.76591" lon="5.96575">
        <ele>378.42</ele>
        <time>2012-08-07T09:52:29Z</time>
      </trkpt>
      <trkpt lat="45.76603" lon="5.96579">
        <ele>378.42</ele>
        <time>2012-08-07T09:52:30Z</time>
      </trkpt>
      <trkpt lat="45.76615" lon="5.96581">
        <ele>379.38</ele>
        <time>2012-08-07T09:52:31Z</time>
      </trkpt>
      <trkpt lat="45.76629" lon="5.96581">
        <ele>380.34</ele>
        <time>2012-08-07T09:52:32Z</time>
      </trkpt>
      <trkpt lat="45.76642" lon="5.9658">
        <ele>379.38</ele>
        <time>2012-08-07T09:52:33Z</time>
      </trkpt>
      <trkpt lat="45.76655" lon="5.96578">
        <ele>379.38</ele>
        <time>2012-08-07T09:52:34Z</time>
      </trkpt>
      <trkpt lat="45.76676" lon="5.96573">
        <ele>377.94</ele>
        <time>2012-08-07T09:52:36Z</time>
      </trkpt>
      <trkpt lat="45.76685" lon="5.96568">
        <ele>377.94</ele>
        <time>2012-08-07T09:52:37Z</time>
      </trkpt>
      <trkpt lat="45.76694" lon="5.9656">
        <ele>377.94</ele>
        <time>2012-08-07T09:52:38Z</time>
      </trkpt>
      <trkpt lat="45.76701" lon="5.9655">
        <ele>377.45</ele>
        <time>2012-08-07T09:52:39Z</time>
      </trkpt>
      <trkpt lat="45.76708" lon="5.96541">
        <ele>375.53</ele>
        <time>2012-08-07T09:52:40Z</time>
      </trkpt>
      <trkpt lat="45.76714" lon="5.96533">
        <ele>374.57</ele>
        <time>2012-08-07T09:52:41Z</time>
      </trkpt>
      <trkpt lat="45.7672" lon="5.96527">
        <ele>373.61</ele>
        <time>2012-08-07T09:52:42Z</time>
      </trkpt>
      <trkpt lat="45.76727" lon="5.96525">
        <ele>373.61</ele>
        <time>2012-08-07T09:52:43Z</time>
      </trkpt>
      <trkpt lat="45.76735" lon="5.96527">
        <ele>373.13</ele>
        <time>2012-08-07T09:52:44Z</time>
      </trkpt>
      <trkpt lat="45.76744" lon="5.96532">
        <ele>373.61</ele>
        <time>2012-08-07T09:52:45Z</time>
      </trkpt>
      <trkpt lat="45.76754" lon="5.96538">
        <ele>374.09</ele>
        <time>2012-08-07T09:52:46Z</time>
      </trkpt>
      <trkpt lat="45.76764" lon="5.96543">
        <ele>373.61</ele>
        <time>2012-08-07T09:52:47Z</time>
      </trkpt>
      <trkpt lat="45.76775" lon="5.96544">
        <ele>373.13</ele>
        <time>2012-08-07T09:52:48Z</time>
      </trkpt>
      <trkpt lat="45.76786" lon="5.9654">
        <ele>372.65</ele>
        <time>2012-08-07T09:52:49Z</time>
      </trkpt>
      <trkpt lat="45.76796" lon="5.96531">
        <ele>372.17</ele>
        <time>2012-08-07T09:52:50Z</time>
      </trkpt>
      <trkpt lat="45.76805" lon="5.96519">
        <ele>372.65</ele>
        <time>2012-08-07T09:52:51Z</time>
      </trkpt>
      <trkpt lat="45.76813" lon="5.96504">
        <ele>372.65</ele>
        <time>2012-08-07T09:52:52Z</time>
      </trkpt>
      <trkpt lat="45.76819" lon="5.96486">
        <ele>371.69</ele>
        <time>2012-08-07T09:52:53Z</time>
      </trkpt>
      <trkpt lat="45.76824" lon="5.9647">
        <ele>371.21</ele>
        <time>2012-08-07T09:52:54Z</time>
      </trkpt>
      <trkpt lat="45.76831" lon="5.96454">
        <ele>370.24</ele>
        <time>2012-08-07T09:52:55Z</time>
      </trkpt>
      <trkpt lat="45.76838" lon="5.9644">
        <ele>369.28</ele>
        <time>2012-08-07T09:52:56Z</time>
      </trkpt>
      <trkpt lat="45.76848" lon="5.96427">
        <ele>368.8</ele>
        <time>2012-08-07T09:52:57Z</time>
      </trkpt>
      <trkpt lat="45.76858" lon="5.96417">
        <ele>367.84</ele>
        <time>2012-08-07T09:52:58Z</time>
      </trkpt>
      <trkpt lat="45.76867" lon="5.96407">
        <ele>367.36</ele>
        <time>2012-08-07T09:52:59Z</time>
      </trkpt>
      <trkpt lat="45.76876" lon="5.964">
        <ele>366.88</ele>
        <time>2012-08-07T09:53:00Z</time>
      </trkpt>
      <trkpt lat="45.76887" lon="5.96395">
        <ele>367.36</ele>
        <time>2012-08-07T09:53:01Z</time>
      </trkpt>
      <trkpt lat="45.77012" lon="5.96377">
        <ele>364.96</ele>
        <time>2012-08-07T09:53:10Z</time>
      </trkpt>
      <trkpt lat="45.77027" lon="5.96378">
        <ele>364.96</ele>
        <time>2012-08-07T09:53:11Z</time>
      </trkpt>
      <trkpt lat="45.77123" lon="5.96384">
        <ele>368.8</ele>
        <time>2012-08-07T09:53:17Z</time>
      </trkpt>
      <trkpt lat="45.7714" lon="5.96384">
        <ele>367.84</ele>
        <time>2012-08-07T09:53:18Z</time>
      </trkpt>
      <trkpt lat="45.77155" lon="5.96386">
        <ele>366.88</ele>
        <time>2012-08-07T09:53:19Z</time>
      </trkpt>
      <trkpt lat="45.77169" lon="5.9639">
        <ele>367.36</ele>
        <time>2012-08-07T09:53:20Z</time>
      </trkpt>
      <trkpt lat="45.77183" lon="5.96398">
        <ele>368.8</ele>
        <time>2012-08-07T09:53:21Z</time>
      </trkpt>
      <trkpt lat="45.77213" lon="5.96418">
        <ele>369.76</ele>
        <time>2012-08-07T09:53:23Z</time>
      </trkpt>
      <trkpt lat="45.77355" lon="5.96485">
        <ele>370.24</ele>
        <time>2012-08-07T09:53:33Z</time>
      </trkpt>
      <trkpt lat="45.77377" lon="5.96494">
        <ele>370.73</ele>
        <time>2012-08-07T09:53:35Z</time>
      </trkpt>
      <trkpt lat="45.77389" lon="5.96502">
        <ele>369.28</ele>
        <time>2012-08-07T09:53:36Z</time>
      </trkpt>
      <trkpt lat="45.77426" lon="5.96533">
        <ele>370.73</ele>
        <time>2012-08-07T09:53:39Z</time>
      </trkpt>
      <trkpt lat="45.77588" lon="5.96635">
        <ele>369.76</ele>
        <time>2012-08-07T09:53:50Z</time>
      </trkpt>
      <trkpt lat="45.77666" lon="5.96669">
        <ele>371.21</ele>
        <time>2012-08-07T09:53:55Z</time>
      </trkpt>
      <trkpt lat="45.77804" lon="5.9674">
        <ele>369.76</ele>
        <time>2012-08-07T09:54:05Z</time>
      </trkpt>
      <trkpt lat="45.7788" lon="5.96776">
        <ele>371.69</ele>
        <time>2012-08-07T09:54:14Z</time>
      </trkpt>
      <trkpt lat="45.77888" lon="5.96777">
        <ele>371.69</ele>
        <time>2012-08-07T09:54:15Z</time>
      </trkpt>
      <trkpt lat="45.77896" lon="5.96776">
        <ele>371.21</ele>
        <time>2012-08-07T09:54:16Z</time>
      </trkpt>
      <trkpt lat="45.77968" lon="5.96758">
        <ele>371.21</ele>
        <time>2012-08-07T09:54:25Z</time>
      </trkpt>
      <trkpt lat="45.77974" lon="5.96755">
        <ele>371.21</ele>
        <time>2012-08-07T09:54:26Z</time>
      </trkpt>
      <trkpt lat="45.77986" lon="5.96747">
        <ele>370.24</ele>
        <time>2012-08-07T09:54:28Z</time>
      </trkpt>
      <trkpt lat="45.77992" lon="5.96745">
        <ele>370.24</ele>
        <time>2012-08-07T09:54:29Z</time>
      </trkpt>
      <trkpt lat="45.77997" lon="5.96746">
        <ele>370.24</ele>
        <time>2012-08-07T09:54:30Z</time>
      </trkpt>
      <trkpt lat="45.78" lon="5.96749">
        <ele>369.76</ele>
        <time>2012-08-07T09:54:31Z</time>
      </trkpt>
      <trkpt lat="45.78002" lon="5.96751">
        <ele>369.76</ele>
        <time>2012-08-07T09:54:32Z</time>
      </trkpt>
      <trkpt lat="45.78002" lon="5.96749">
        <ele>369.76</ele>
        <time>2012-08-07T09:54:44Z</time>
      </trkpt>
      <trkpt lat="45.78001" lon="5.96749">
        <ele>370.73</ele>
        <time>2012-08-07T09:55:04Z</time>
      </trkpt>
      <trkpt lat="45.78002" lon="5.9675">
        <ele>367.36</ele>
        <time>2012-08-07T09:55:13Z</time>
      </trkpt>
      <trkpt lat="45.78002" lon="5.9675">
        <ele>370.73</ele>
        <time>2012-08-07T09:55:15Z</time>
      </trkpt>
      <trkpt lat="45.78002" lon="5.9675">
        <ele>369.28</ele>
        <time>2012-08-07T09:55:35Z</time>
      </trkpt>
      <trkpt lat="45.78005" lon="5.96736">
        <ele>369.28</ele>
        <time>2012-08-07T09:55:41Z</time>
      </trkpt>
      <trkpt lat="45.78004" lon="5.96728">
        <ele>369.76</ele>
        <time>2012-08-07T09:55:42Z</time>
      </trkpt>
      <trkpt lat="45.77999" lon="5.967">
        <ele>369.28</ele>
        <time>2012-08-07T09:55:45Z</time>
      </trkpt>
      <trkpt lat="45.78" lon="5.96689">
        <ele>369.76</ele>
        <time>2012-08-07T09:55:46Z</time>
      </trkpt>
      <trkpt lat="45.78002" lon="5.96678">
        <ele>369.28</ele>
        <time>2012-08-07T09:55:47Z</time>
      </trkpt>
      <trkpt lat="45.78045" lon="5.96554">
        <ele>367.36</ele>
        <time>2012-08-07T09:55:58Z</time>
      </trkpt>
      <trkpt lat="45.78049" lon="5.96545">
        <ele>366.88</ele>
        <time>2012-08-07T09:55:59Z</time>
      </trkpt>
      <trkpt lat="45.78076" lon="5.96453">
        <ele>367.84</ele>
        <time>2012-08-07T09:56:05Z</time>
      </trkpt>
      <trkpt lat="45.78132" lon="5.96222">
        <ele>369.28</ele>
        <time>2012-08-07T09:56:16Z</time>
      </trkpt>
      <trkpt lat="45.78142" lon="5.961">
        <ele>365.44</ele>
        <time>2012-08-07T09:56:21Z</time>
      </trkpt>
      <trkpt lat="45.78147" lon="5.96031">
        <ele>362.07</ele>
        <time>2012-08-07T09:56:24Z</time>
      </trkpt>
      <trkpt lat="45.78154" lon="5.95949">
        <ele>358.71</ele>
        <time>2012-08-07T09:56:28Z</time>
      </trkpt>
      <trkpt lat="45.78158" lon="5.95897">
        <ele>357.27</ele>
        <time>2012-08-07T09:56:31Z</time>
      </trkpt>
      <trkpt lat="45.78176" lon="5.95705">
        <ele>356.79</ele>
        <time>2012-08-07T09:56:41Z</time>
      </trkpt>
      <trkpt lat="45.78223" lon="5.95522">
        <ele>357.75</ele>
        <time>2012-08-07T09:56:49Z</time>
      </trkpt>
      <trkpt lat="45.78296" lon="5.95273">
        <ele>358.23</ele>
        <time>2012-08-07T09:57:01Z</time>
      </trkpt>
      <trkpt lat="45.7837" lon="5.95103">
        <ele>360.15</ele>
        <time>2012-08-07T09:57:10Z</time>
      </trkpt>
      <trkpt lat="45.78466" lon="5.94938">
        <ele>360.15</ele>
        <time>2012-08-07T09:57:20Z</time>
      </trkpt>
      <trkpt lat="45.78481" lon="5.94916">
        <ele>359.67</ele>
        <time>2012-08-07T09:57:22Z</time>
      </trkpt>
      <trkpt lat="45.7849" lon="5.94906">
        <ele>360.15</ele>
        <time>2012-08-07T09:57:23Z</time>
      </trkpt>
      <trkpt lat="45.785" lon="5.94899">
        <ele>360.15</ele>
        <time>2012-08-07T09:57:24Z</time>
      </trkpt>
      <trkpt lat="45.7851" lon="5.94893">
        <ele>359.67</ele>
        <time>2012-08-07T09:57:25Z</time>
      </trkpt>
      <trkpt lat="45.7852" lon="5.94891">
        <ele>359.67</ele>
        <time>2012-08-07T09:57:26Z</time>
      </trkpt>
      <trkpt lat="45.78531" lon="5.9489">
        <ele>360.63</ele>
        <time>2012-08-07T09:57:27Z</time>
      </trkpt>
      <trkpt lat="45.786" lon="5.94885">
        <ele>359.19</ele>
        <time>2012-08-07T09:57:35Z</time>
      </trkpt>
      <trkpt lat="45.78658" lon="5.9488">
        <ele>359.19</ele>
        <time>2012-08-07T09:57:43Z</time>
      </trkpt>
      <trkpt lat="45.78661" lon="5.94877">
        <ele>359.67</ele>
        <time>2012-08-07T09:57:52Z</time>
      </trkpt>
      <trkpt lat="45.78663" lon="5.94874">
        <ele>358.71</ele>
        <time>2012-08-07T09:58:11Z</time>
      </trkpt>
      <trkpt lat="45.78663" lon="5.94868">
        <ele>359.19</ele>
        <time>2012-08-07T09:58:12Z</time>
      </trkpt>
      <trkpt lat="45.78662" lon="5.9486">
        <ele>359.67</ele>
        <time>2012-08-07T09:58:13Z</time>
      </trkpt>
      <trkpt lat="45.78648" lon="5.94801">
        <ele>359.67</ele>
        <time>2012-08-07T09:58:20Z</time>
      </trkpt>
      <trkpt lat="45.78614" lon="5.94672">
        <ele>360.15</ele>
        <time>2012-08-07T09:58:36Z</time>
      </trkpt>
      <trkpt lat="45.78609" lon="5.94653">
        <ele>360.15</ele>
        <time>2012-08-07T09:58:45Z</time>
      </trkpt>
      <trkpt lat="45.7861" lon="5.94653">
        <ele>360.63</ele>
        <time>2012-08-07T09:59:01Z</time>
      </trkpt>
      <trkpt lat="45.78609" lon="5.9465">
        <ele>360.15</ele>
        <time>2012-08-07T09:59:02Z</time>
      </trkpt>
      <trkpt lat="45.78608" lon="5.94647">
        <ele>360.63</ele>
        <time>2012-08-07T09:59:03Z</time>
      </trkpt>
      <trkpt lat="45.78607" lon="5.94643">
        <ele>360.15</ele>
        <time>2012-08-07T09:59:04Z</time>
      </trkpt>
      <trkpt lat="45.78606" lon="5.94638">
        <ele>360.15</ele>
        <time>2012-08-07T09:59:05Z</time>
      </trkpt>
      <trkpt lat="45.78592" lon="5.94588">
        <ele>361.59</ele>
        <time>2012-08-07T09:59:14Z</time>
      </trkpt>
      <trkpt lat="45.78589" lon="5.94562">
        <ele>362.55</ele>
        <time>2012-08-07T09:59:19Z</time>
      </trkpt>
      <trkpt lat="45.78592" lon="5.94558">
        <ele>363.04</ele>
        <time>2012-08-07T09:59:20Z</time>
      </trkpt>
      <trkpt lat="45.78596" lon="5.94557">
        <ele>363.04</ele>
        <time>2012-08-07T09:59:21Z</time>
      </trkpt>
      <trkpt lat="45.78601" lon="5.94558">
        <ele>363.04</ele>
        <time>2012-08-07T09:59:22Z</time>
      </trkpt>
      <trkpt lat="45.78606" lon="5.94559">
        <ele>363.52</ele>
        <time>2012-08-07T09:59:23Z</time>
      </trkpt>
      <trkpt lat="45.78682" lon="5.94576">
        <ele>364</ele>
        <time>2012-08-07T09:59:33Z</time>
      </trkpt>
      <trkpt lat="45.78768" lon="5.94596">
        <ele>362.55</ele>
        <time>2012-08-07T09:59:44Z</time>
      </trkpt>
      <trkpt lat="45.78793" lon="5.94599">
        <ele>362.07</ele>
        <time>2012-08-07T09:59:49Z</time>
      </trkpt>
      <trkpt lat="45.78796" lon="5.94597">
        <ele>362.07</ele>
        <time>2012-08-07T09:59:50Z</time>
      </trkpt>
      <trkpt lat="45.78797" lon="5.94592">
        <ele>361.11</ele>
        <time>2012-08-07T09:59:51Z</time>
      </trkpt>
      <trkpt lat="45.78796" lon="5.94587">
        <ele>361.59</ele>
        <time>2012-08-07T09:59:52Z</time>
      </trkpt>
      <trkpt lat="45.78795" lon="5.94584">
        <ele>361.59</ele>
        <time>2012-08-07T09:59:53Z</time>
      </trkpt>
      <trkpt lat="45.78793" lon="5.94581">
        <ele>361.59</ele>
        <time>2012-08-07T09:59:54Z</time>
      </trkpt>
      <trkpt lat="45.78789" lon="5.94578">
        <ele>361.11</ele>
        <time>2012-08-07T10:00:05Z</time>
      </trkpt>
      <trkpt lat="45.78789" lon="5.94576">
        <ele>361.11</ele>
        <time>2012-08-07T10:00:33Z</time>
      </trkpt>
      <trkpt lat="45.78786" lon="5.94579">
        <ele>361.11</ele>
        <time>2012-08-07T10:01:06Z</time>
      </trkpt>
      <trkpt lat="45.78784" lon="5.94578">
        <ele>361.11</ele>
        <time>2012-08-07T10:01:40Z</time>
      </trkpt>
      <trkpt lat="45.78785" lon="5.94578">
        <ele>361.11</ele>
        <time>2012-08-07T10:02:12Z</time>
      </trkpt>
      <trkpt lat="45.78785" lon="5.9458">
        <ele>361.11</ele>
        <time>2012-08-07T10:02:48Z</time>
      </trkpt>
      <trkpt lat="45.78787" lon="5.94579">
        <ele>360.63</ele>
        <time>2012-08-07T10:03:21Z</time>
      </trkpt>
      <trkpt lat="45.78786" lon="5.94582">
        <ele>361.11</ele>
        <time>2012-08-07T10:03:59Z</time>
      </trkpt>
      <trkpt lat="45.78786" lon="5.94581">
        <ele>361.11</ele>
        <time>2012-08-07T10:04:33Z</time>
      </trkpt>
      <trkpt lat="45.78786" lon="5.9458">
        <ele>361.11</ele>
        <time>2012-08-07T10:05:04Z</time>
      </trkpt>
      <trkpt lat="45.78785" lon="5.94581">
        <ele>360.63</ele>
        <time>2012-08-07T10:05:37Z</time>
      </trkpt>
      <trkpt lat="45.78786" lon="5.94579">
        <ele>360.63</ele>
        <time>2012-08-07T10:06:08Z</time>
      </trkpt>
      <trkpt lat="45.78784" lon="5.94578">
        <ele>360.63</ele>
        <time>2012-08-07T10:06:45Z</time>
      </trkpt>
      <trkpt lat="45.78784" lon="5.9458">
        <ele>361.11</ele>
        <time>2012-08-07T10:07:16Z</time>
      </trkpt>
      <trkpt lat="45.78785" lon="5.94579">
        <ele>361.11</ele>
        <time>2012-08-07T10:07:48Z</time>
      </trkpt>
      <trkpt lat="45.78784" lon="5.94579">
        <ele>361.59</ele>
        <time>2012-08-07T10:08:12Z</time>
      </trkpt>
      <trkpt lat="45.78783" lon="5.94579">
        <ele>361.59</ele>
        <time>2012-08-07T10:08:40Z</time>
      </trkpt>
      <trkpt lat="45.78784" lon="5.94577">
        <ele>361.59</ele>
        <time>2012-08-07T10:09:06Z</time>
      </trkpt>
      <trkpt lat="45.78784" lon="5.94578">
        <ele>361.59</ele>
        <time>2012-08-07T10:09:24Z</time>
      </trkpt>
      <trkpt lat="45.78784" lon="5.94577">
        <ele>361.11</ele>
        <time>2012-08-07T10:09:45Z</time>
      </trkpt>
      <trkpt lat="45.78784" lon="5.94576">
        <ele>361.11</ele>
        <time>2012-08-07T10:10:09Z</time>
      </trkpt>
      <trkpt lat="45.78784" lon="5.94577">
        <ele>361.11</ele>
        <time>2012-08-07T10:10:23Z</time>
      </trkpt>
      <trkpt lat="45.78784" lon="5.94576">
        <ele>362.07</ele>
        <time>2012-08-07T10:10:27Z</time>
      </trkpt>
      <trkpt lat="45.78782" lon="5.94576">
        <ele>361.59</ele>
        <time>2012-08-07T10:10:30Z</time>
      </trkpt>
      <trkpt lat="45.78778" lon="5.94575">
        <ele>362.07</ele>
        <time>2012-08-07T10:10:31Z</time>
      </trkpt>
      <trkpt lat="45.78772" lon="5.94575">
        <ele>361.59</ele>
        <time>2012-08-07T10:10:32Z</time>
      </trkpt>
      <trkpt lat="45.78763" lon="5.94574">
        <ele>361.59</ele>
        <time>2012-08-07T10:10:34Z</time>
      </trkpt>
      <trkpt lat="45.78758" lon="5.94575">
        <ele>361.59</ele>
        <time>2012-08-07T10:10:35Z</time>
      </trkpt>
      <trkpt lat="45.78755" lon="5.94578">
        <ele>361.59</ele>
        <time>2012-08-07T10:10:36Z</time>
      </trkpt>
      <trkpt lat="45.78754" lon="5.94582">
        <ele>361.59</ele>
        <time>2012-08-07T10:10:37Z</time>
      </trkpt>
      <trkpt lat="45.78754" lon="5.94584">
        <ele>361.59</ele>
        <time>2012-08-07T10:10:38Z</time>
      </trkpt>
      <trkpt lat="45.78755" lon="5.94586">
        <ele>362.07</ele>
        <time>2012-08-07T10:10:39Z</time>
      </trkpt>
      <trkpt lat="45.78758" lon="5.9459">
        <ele>362.07</ele>
        <time>2012-08-07T10:10:40Z</time>
      </trkpt>
      <trkpt lat="45.78763" lon="5.94592">
        <ele>363.04</ele>
        <time>2012-08-07T10:10:41Z</time>
      </trkpt>
      <trkpt lat="45.78772" lon="5.94594">
        <ele>363.52</ele>
        <time>2012-08-07T10:10:42Z</time>
      </trkpt>
      <trkpt lat="45.78834" lon="5.94608">
        <ele>363.04</ele>
        <time>2012-08-07T10:10:48Z</time>
      </trkpt>
      <trkpt lat="45.7884" lon="5.94605">
        <ele>363.04</ele>
        <time>2012-08-07T10:10:49Z</time>
      </trkpt>
      <trkpt lat="45.78843" lon="5.94599">
        <ele>363.52</ele>
        <time>2012-08-07T10:10:50Z</time>
      </trkpt>
      <trkpt lat="45.78845" lon="5.94589">
        <ele>364</ele>
        <time>2012-08-07T10:10:51Z</time>
      </trkpt>
      <trkpt lat="45.78846" lon="5.94579">
        <ele>363.52</ele>
        <time>2012-08-07T10:10:52Z</time>
      </trkpt>
      <trkpt lat="45.78846" lon="5.94568">
        <ele>363.52</ele>
        <time>2012-08-07T10:10:53Z</time>
      </trkpt>
      <trkpt lat="45.78847" lon="5.94559">
        <ele>363.52</ele>
        <time>2012-08-07T10:10:54Z</time>
      </trkpt>
      <trkpt lat="45.78848" lon="5.94548">
        <ele>364</ele>
        <time>2012-08-07T10:10:55Z</time>
      </trkpt>
      <trkpt lat="45.78876" lon="5.94432">
        <ele>365.44</ele>
        <time>2012-08-07T10:11:04Z</time>
      </trkpt>
      <trkpt lat="45.78892" lon="5.94388">
        <ele>366.88</ele>
        <time>2012-08-07T10:11:07Z</time>
      </trkpt>
      <trkpt lat="45.7896" lon="5.94282">
        <ele>369.28</ele>
        <time>2012-08-07T10:11:16Z</time>
      </trkpt>
      <trkpt lat="45.78966" lon="5.94275">
        <ele>369.76</ele>
        <time>2012-08-07T10:11:17Z</time>
      </trkpt>
      <trkpt lat="45.78973" lon="5.9427">
        <ele>369.76</ele>
        <time>2012-08-07T10:11:18Z</time>
      </trkpt>
      <trkpt lat="45.7898" lon="5.94269">
        <ele>370.73</ele>
        <time>2012-08-07T10:11:19Z</time>
      </trkpt>
      <trkpt lat="45.78989" lon="5.94272">
        <ele>371.69</ele>
        <time>2012-08-07T10:11:20Z</time>
      </trkpt>
      <trkpt lat="45.78998" lon="5.94277">
        <ele>373.13</ele>
        <time>2012-08-07T10:11:21Z</time>
      </trkpt>
      <trkpt lat="45.79018" lon="5.94285">
        <ele>373.13</ele>
        <time>2012-08-07T10:11:23Z</time>
      </trkpt>
      <trkpt lat="45.79027" lon="5.94283">
        <ele>374.09</ele>
        <time>2012-08-07T10:11:24Z</time>
      </trkpt>
      <trkpt lat="45.79037" lon="5.94277">
        <ele>375.05</ele>
        <time>2012-08-07T10:11:25Z</time>
      </trkpt>
      <trkpt lat="45.79048" lon="5.94266">
        <ele>376.49</ele>
        <time>2012-08-07T10:11:26Z</time>
      </trkpt>
      <trkpt lat="45.79059" lon="5.94255">
        <ele>377.45</ele>
        <time>2012-08-07T10:11:27Z</time>
      </trkpt>
      <trkpt lat="45.79069" lon="5.94242">
        <ele>378.9</ele>
        <time>2012-08-07T10:11:28Z</time>
      </trkpt>
      <trkpt lat="45.79078" lon="5.9423">
        <ele>379.86</ele>
        <time>2012-08-07T10:11:29Z</time>
      </trkpt>
      <trkpt lat="45.79088" lon="5.9422">
        <ele>381.3</ele>
        <time>2012-08-07T10:11:30Z</time>
      </trkpt>
      <trkpt lat="45.791" lon="5.94211">
        <ele>383.22</ele>
        <time>2012-08-07T10:11:31Z</time>
      </trkpt>
      <trkpt lat="45.79113" lon="5.94204">
        <ele>385.63</ele>
        <time>2012-08-07T10:11:32Z</time>
      </trkpt>
      <trkpt lat="45.79127" lon="5.94198">
        <ele>387.07</ele>
        <time>2012-08-07T10:11:33Z</time>
      </trkpt>
      <trkpt lat="45.79155" lon="5.94187">
        <ele>390.43</ele>
        <time>2012-08-07T10:11:35Z</time>
      </trkpt>
      <trkpt lat="45.79183" lon="5.94174">
        <ele>393.8</ele>
        <time>2012-08-07T10:11:37Z</time>
      </trkpt>
      <trkpt lat="45.79219" lon="5.94154">
        <ele>394.76</ele>
        <time>2012-08-07T10:11:40Z</time>
      </trkpt>
      <trkpt lat="45.79228" lon="5.94146">
        <ele>395.24</ele>
        <time>2012-08-07T10:11:41Z</time>
      </trkpt>
      <trkpt lat="45.79236" lon="5.94136">
        <ele>395.24</ele>
        <time>2012-08-07T10:11:42Z</time>
      </trkpt>
      <trkpt lat="45.79242" lon="5.94121">
        <ele>396.2</ele>
        <time>2012-08-07T10:11:43Z</time>
      </trkpt>
      <trkpt lat="45.79252" lon="5.94092">
        <ele>397.16</ele>
        <time>2012-08-07T10:11:45Z</time>
      </trkpt>
      <trkpt lat="45.79259" lon="5.94079">
        <ele>398.12</ele>
        <time>2012-08-07T10:11:46Z</time>
      </trkpt>
      <trkpt lat="45.79267" lon="5.94067">
        <ele>399.57</ele>
        <time>2012-08-07T10:11:47Z</time>
      </trkpt>
      <trkpt lat="45.7929" lon="5.94028">
        <ele>401.01</ele>
        <time>2012-08-07T10:11:50Z</time>
      </trkpt>
      <trkpt lat="45.79296" lon="5.94016">
        <ele>400.53</ele>
        <time>2012-08-07T10:11:51Z</time>
      </trkpt>
      <trkpt lat="45.79311" lon="5.93959">
        <ele>405.33</ele>
        <time>2012-08-07T10:11:55Z</time>
      </trkpt>
      <trkpt lat="45.79319" lon="5.9392">
        <ele>408.22</ele>
        <time>2012-08-07T10:11:57Z</time>
      </trkpt>
      <trkpt lat="45.79329" lon="5.93854">
        <ele>412.06</ele>
        <time>2012-08-07T10:12:00Z</time>
      </trkpt>
      <trkpt lat="45.79342" lon="5.93785">
        <ele>416.39</ele>
        <time>2012-08-07T10:12:03Z</time>
      </trkpt>
      <trkpt lat="45.79365" lon="5.93711">
        <ele>417.83</ele>
        <time>2012-08-07T10:12:07Z</time>
      </trkpt>
      <trkpt lat="45.79367" lon="5.93697">
        <ele>417.83</ele>
        <time>2012-08-07T10:12:08Z</time>
      </trkpt>
      <trkpt lat="45.79364" lon="5.93682">
        <ele>418.79</ele>
        <time>2012-08-07T10:12:09Z</time>
      </trkpt>
      <trkpt lat="45.79357" lon="5.93667">
        <ele>420.71</ele>
        <time>2012-08-07T10:12:10Z</time>
      </trkpt>
      <trkpt lat="45.79347" lon="5.9365">
        <ele>421.68</ele>
        <time>2012-08-07T10:12:11Z</time>
      </trkpt>
      <trkpt lat="45.79336" lon="5.93633">
        <ele>422.16</ele>
        <time>2012-08-07T10:12:12Z</time>
      </trkpt>
      <trkpt lat="45.79297" lon="5.93563">
        <ele>423.6</ele>
        <time>2012-08-07T10:12:16Z</time>
      </trkpt>
      <trkpt lat="45.7929" lon="5.93542">
        <ele>423.6</ele>
        <time>2012-08-07T10:12:17Z</time>
      </trkpt>
      <trkpt lat="45.79269" lon="5.93469">
        <ele>421.68</ele>
        <time>2012-08-07T10:12:21Z</time>
      </trkpt>
      <trkpt lat="45.79269" lon="5.93454">
        <ele>421.68</ele>
        <time>2012-08-07T10:12:22Z</time>
      </trkpt>
      <trkpt lat="45.79273" lon="5.93439">
        <ele>422.16</ele>
        <time>2012-08-07T10:12:23Z</time>
      </trkpt>
      <trkpt lat="45.79282" lon="5.93423">
        <ele>424.08</ele>
        <time>2012-08-07T10:12:24Z</time>
      </trkpt>
      <trkpt lat="45.79294" lon="5.93409">
        <ele>425.04</ele>
        <time>2012-08-07T10:12:25Z</time>
      </trkpt>
      <trkpt lat="45.79307" lon="5.93395">
        <ele>425.52</ele>
        <time>2012-08-07T10:12:26Z</time>
      </trkpt>
      <trkpt lat="45.7932" lon="5.93383">
        <ele>426</ele>
        <time>2012-08-07T10:12:27Z</time>
      </trkpt>
      <trkpt lat="45.79335" lon="5.93371">
        <ele>427.44</ele>
        <time>2012-08-07T10:12:28Z</time>
      </trkpt>
      <trkpt lat="45.79447" lon="5.93263">
        <ele>429.85</ele>
        <time>2012-08-07T10:12:37Z</time>
      </trkpt>
      <trkpt lat="45.7946" lon="5.93253">
        <ele>429.85</ele>
        <time>2012-08-07T10:12:38Z</time>
      </trkpt>
      <trkpt lat="45.79513" lon="5.93221">
        <ele>429.37</ele>
        <time>2012-08-07T10:12:42Z</time>
      </trkpt>
      <trkpt lat="45.79524" lon="5.9321">
        <ele>429.85</ele>
        <time>2012-08-07T10:12:43Z</time>
      </trkpt>
      <trkpt lat="45.79534" lon="5.93195">
        <ele>430.81</ele>
        <time>2012-08-07T10:12:44Z</time>
      </trkpt>
      <trkpt lat="45.79544" lon="5.93179">
        <ele>430.81</ele>
        <time>2012-08-07T10:12:45Z</time>
      </trkpt>
      <trkpt lat="45.79553" lon="5.93161">
        <ele>432.25</ele>
        <time>2012-08-07T10:12:46Z</time>
      </trkpt>
      <trkpt lat="45.79561" lon="5.93144">
        <ele>431.77</ele>
        <time>2012-08-07T10:12:47Z</time>
      </trkpt>
      <trkpt lat="45.79589" lon="5.9309">
        <ele>431.77</ele>
        <time>2012-08-07T10:12:51Z</time>
      </trkpt>
      <trkpt lat="45.79593" lon="5.93077">
        <ele>431.77</ele>
        <time>2012-08-07T10:12:52Z</time>
      </trkpt>
      <trkpt lat="45.79594" lon="5.93065">
        <ele>432.25</ele>
        <time>2012-08-07T10:12:53Z</time>
      </trkpt>
      <trkpt lat="45.79594" lon="5.93055">
        <ele>431.77</ele>
        <time>2012-08-07T10:12:54Z</time>
      </trkpt>
      <trkpt lat="45.79591" lon="5.93047">
        <ele>432.73</ele>
        <time>2012-08-07T10:12:55Z</time>
      </trkpt>
      <trkpt lat="45.79587" lon="5.93038">
        <ele>433.21</ele>
        <time>2012-08-07T10:12:56Z</time>
      </trkpt>
      <trkpt lat="45.79581" lon="5.93026">
        <ele>434.65</ele>
        <time>2012-08-07T10:12:57Z</time>
      </trkpt>
      <trkpt lat="45.79574" lon="5.93013">
        <ele>435.61</ele>
        <time>2012-08-07T10:12:58Z</time>
      </trkpt>
      <trkpt lat="45.79565" lon="5.93002">
        <ele>437.06</ele>
        <time>2012-08-07T10:12:59Z</time>
      </trkpt>
      <trkpt lat="45.79528" lon="5.92971">
        <ele>440.9</ele>
        <time>2012-08-07T10:13:02Z</time>
      </trkpt>
      <trkpt lat="45.79501" lon="5.92948">
        <ele>443.31</ele>
        <time>2012-08-07T10:13:04Z</time>
      </trkpt>
      <trkpt lat="45.7949" lon="5.92935">
        <ele>444.27</ele>
        <time>2012-08-07T10:13:05Z</time>
      </trkpt>
      <trkpt lat="45.79482" lon="5.92923">
        <ele>444.27</ele>
        <time>2012-08-07T10:13:06Z</time>
      </trkpt>
      <trkpt lat="45.79477" lon="5.92911">
        <ele>444.75</ele>
        <time>2012-08-07T10:13:07Z</time>
      </trkpt>
      <trkpt lat="45.79473" lon="5.92899">
        <ele>445.71</ele>
        <time>2012-08-07T10:13:08Z</time>
      </trkpt>
      <trkpt lat="45.79472" lon="5.92886">
        <ele>447.15</ele>
        <time>2012-08-07T10:13:09Z</time>
      </trkpt>
      <trkpt lat="45.79474" lon="5.92874">
        <ele>448.11</ele>
        <time>2012-08-07T10:13:10Z</time>
      </trkpt>
      <trkpt lat="45.79479" lon="5.92864">
        <ele>450.03</ele>
        <time>2012-08-07T10:13:11Z</time>
      </trkpt>
      <trkpt lat="45.79485" lon="5.92857">
        <ele>451.48</ele>
        <time>2012-08-07T10:13:12Z</time>
      </trkpt>
      <trkpt lat="45.79493" lon="5.92857">
        <ele>452.44</ele>
        <time>2012-08-07T10:13:13Z</time>
      </trkpt>
      <trkpt lat="45.79503" lon="5.9286">
        <ele>453.88</ele>
        <time>2012-08-07T10:13:14Z</time>
      </trkpt>
      <trkpt lat="45.79513" lon="5.92861">
        <ele>453.88</ele>
        <time>2012-08-07T10:13:15Z</time>
      </trkpt>
      <trkpt lat="45.79522" lon="5.92859">
        <ele>454.36</ele>
        <time>2012-08-07T10:13:16Z</time>
      </trkpt>
      <trkpt lat="45.7953" lon="5.92851">
        <ele>455.32</ele>
        <time>2012-08-07T10:13:17Z</time>
      </trkpt>
      <trkpt lat="45.79534" lon="5.9284">
        <ele>456.28</ele>
        <time>2012-08-07T10:13:18Z</time>
      </trkpt>
      <trkpt lat="45.79535" lon="5.92827">
        <ele>457.24</ele>
        <time>2012-08-07T10:13:19Z</time>
      </trkpt>
      <trkpt lat="45.79533" lon="5.92815">
        <ele>458.21</ele>
        <time>2012-08-07T10:13:20Z</time>
      </trkpt>
      <trkpt lat="45.7953" lon="5.92803">
        <ele>459.65</ele>
        <time>2012-08-07T10:13:21Z</time>
      </trkpt>
      <trkpt lat="45.79524" lon="5.92789">
        <ele>461.09</ele>
        <time>2012-08-07T10:13:22Z</time>
      </trkpt>
      <trkpt lat="45.79507" lon="5.92756">
        <ele>465.42</ele>
        <time>2012-08-07T10:13:24Z</time>
      </trkpt>
      <trkpt lat="45.79494" lon="5.92741">
        <ele>466.38</ele>
        <time>2012-08-07T10:13:25Z</time>
      </trkpt>
      <trkpt lat="45.79465" lon="5.92713">
        <ele>470.22</ele>
        <time>2012-08-07T10:13:27Z</time>
      </trkpt>
      <trkpt lat="45.79435" lon="5.92684">
        <ele>473.59</ele>
        <time>2012-08-07T10:13:29Z</time>
      </trkpt>
      <trkpt lat="45.7941" lon="5.92659">
        <ele>474.55</ele>
        <time>2012-08-07T10:13:31Z</time>
      </trkpt>
      <trkpt lat="45.794" lon="5.92646">
        <ele>475.99</ele>
        <time>2012-08-07T10:13:32Z</time>
      </trkpt>
      <trkpt lat="45.79391" lon="5.92631">
        <ele>476.47</ele>
        <time>2012-08-07T10:13:33Z</time>
      </trkpt>
      <trkpt lat="45.79385" lon="5.92614">
        <ele>478.87</ele>
        <time>2012-08-07T10:13:34Z</time>
      </trkpt>
      <trkpt lat="45.79381" lon="5.92594">
        <ele>479.84</ele>
        <time>2012-08-07T10:13:35Z</time>
      </trkpt>
      <trkpt lat="45.79377" lon="5.92574">
        <ele>481.28</ele>
        <time>2012-08-07T10:13:36Z</time>
      </trkpt>
      <trkpt lat="45.79372" lon="5.92554">
        <ele>482.24</ele>
        <time>2012-08-07T10:13:37Z</time>
      </trkpt>
      <trkpt lat="45.7937" lon="5.92536">
        <ele>482.24</ele>
        <time>2012-08-07T10:13:38Z</time>
      </trkpt>
      <trkpt lat="45.79369" lon="5.92519">
        <ele>483.2</ele>
        <time>2012-08-07T10:13:39Z</time>
      </trkpt>
      <trkpt lat="45.79372" lon="5.92503">
        <ele>483.2</ele>
        <time>2012-08-07T10:13:40Z</time>
      </trkpt>
      <trkpt lat="45.79377" lon="5.92489">
        <ele>484.16</ele>
        <time>2012-08-07T10:13:41Z</time>
      </trkpt>
      <trkpt lat="45.79385" lon="5.92478">
        <ele>485.12</ele>
        <time>2012-08-07T10:13:42Z</time>
      </trkpt>
      <trkpt lat="45.79395" lon="5.92471">
        <ele>486.08</ele>
        <time>2012-08-07T10:13:43Z</time>
      </trkpt>
      <trkpt lat="45.79402" lon="5.92464">
        <ele>486.56</ele>
        <time>2012-08-07T10:13:44Z</time>
      </trkpt>
      <trkpt lat="45.79407" lon="5.92456">
        <ele>486.56</ele>
        <time>2012-08-07T10:13:45Z</time>
      </trkpt>
      <trkpt lat="45.7941" lon="5.92448">
        <ele>488.01</ele>
        <time>2012-08-07T10:13:46Z</time>
      </trkpt>
      <trkpt lat="45.7941" lon="5.92443">
        <ele>488.97</ele>
        <time>2012-08-07T10:13:47Z</time>
      </trkpt>
      <trkpt lat="45.79407" lon="5.92442">
        <ele>489.45</ele>
        <time>2012-08-07T10:13:48Z</time>
      </trkpt>
      <trkpt lat="45.79403" lon="5.92444">
        <ele>490.89</ele>
        <time>2012-08-07T10:13:49Z</time>
      </trkpt>
      <trkpt lat="45.79396" lon="5.92449">
        <ele>491.85</ele>
        <time>2012-08-07T10:13:50Z</time>
      </trkpt>
      <trkpt lat="45.79386" lon="5.92453">
        <ele>492.81</ele>
        <time>2012-08-07T10:13:51Z</time>
      </trkpt>
      <trkpt lat="45.79371" lon="5.92453">
        <ele>493.77</ele>
        <time>2012-08-07T10:13:52Z</time>
      </trkpt>
      <trkpt lat="45.79353" lon="5.9245">
        <ele>495.22</ele>
        <time>2012-08-07T10:13:53Z</time>
      </trkpt>
      <trkpt lat="45.79337" lon="5.92444">
        <ele>496.66</ele>
        <time>2012-08-07T10:13:54Z</time>
      </trkpt>
      <trkpt lat="45.7932" lon="5.92435">
        <ele>498.1</ele>
        <time>2012-08-07T10:13:55Z</time>
      </trkpt>
      <trkpt lat="45.79304" lon="5.92424">
        <ele>500.02</ele>
        <time>2012-08-07T10:13:56Z</time>
      </trkpt>
      <trkpt lat="45.7927" lon="5.92398">
        <ele>500.5</ele>
        <time>2012-08-07T10:13:59Z</time>
      </trkpt>
      <trkpt lat="45.79264" lon="5.92389">
        <ele>500.02</ele>
        <time>2012-08-07T10:14:00Z</time>
      </trkpt>
      <trkpt lat="45.79262" lon="5.92379">
        <ele>500.02</ele>
        <time>2012-08-07T10:14:01Z</time>
      </trkpt>
      <trkpt lat="45.79264" lon="5.92371">
        <ele>501.46</ele>
        <time>2012-08-07T10:14:02Z</time>
      </trkpt>
      <trkpt lat="45.79268" lon="5.92366">
        <ele>501.95</ele>
        <time>2012-08-07T10:14:03Z</time>
      </trkpt>
      <trkpt lat="45.79275" lon="5.92366">
        <ele>502.91</ele>
        <time>2012-08-07T10:14:04Z</time>
      </trkpt>
      <trkpt lat="45.79283" lon="5.92369">
        <ele>504.83</ele>
        <time>2012-08-07T10:14:05Z</time>
      </trkpt>
      <trkpt lat="45.79294" lon="5.92373">
        <ele>506.27</ele>
        <time>2012-08-07T10:14:06Z</time>
      </trkpt>
      <trkpt lat="45.79305" lon="5.92376">
        <ele>506.75</ele>
        <time>2012-08-07T10:14:07Z</time>
      </trkpt>
      <trkpt lat="45.79316" lon="5.92375">
        <ele>507.71</ele>
        <time>2012-08-07T10:14:08Z</time>
      </trkpt>
      <trkpt lat="45.79327" lon="5.9237">
        <ele>508.19</ele>
        <time>2012-08-07T10:14:09Z</time>
      </trkpt>
      <trkpt lat="45.79338" lon="5.9236">
        <ele>510.12</ele>
        <time>2012-08-07T10:14:10Z</time>
      </trkpt>
      <trkpt lat="45.7935" lon="5.92349">
        <ele>511.08</ele>
        <time>2012-08-07T10:14:11Z</time>
      </trkpt>
      <trkpt lat="45.79363" lon="5.92338">
        <ele>512.52</ele>
        <time>2012-08-07T10:14:12Z</time>
      </trkpt>
      <trkpt lat="45.79377" lon="5.92331">
        <ele>513.96</ele>
        <time>2012-08-07T10:14:13Z</time>
      </trkpt>
      <trkpt lat="45.79393" lon="5.92329">
        <ele>514.44</ele>
        <time>2012-08-07T10:14:14Z</time>
      </trkpt>
      <trkpt lat="45.79419" lon="5.92327">
        <ele>515.88</ele>
        <time>2012-08-07T10:14:16Z</time>
      </trkpt>
      <trkpt lat="45.79429" lon="5.92324">
        <ele>515.4</ele>
        <time>2012-08-07T10:14:17Z</time>
      </trkpt>
      <trkpt lat="45.79437" lon="5.92317">
        <ele>516.37</ele>
        <time>2012-08-07T10:14:18Z</time>
      </trkpt>
      <trkpt lat="45.79444" lon="5.92306">
        <ele>517.33</ele>
        <time>2012-08-07T10:14:19Z</time>
      </trkpt>
      <trkpt lat="45.79449" lon="5.92294">
        <ele>518.29</ele>
        <time>2012-08-07T10:14:20Z</time>
      </trkpt>
      <trkpt lat="45.79452" lon="5.9228">
        <ele>519.25</ele>
        <time>2012-08-07T10:14:21Z</time>
      </trkpt>
      <trkpt lat="45.79455" lon="5.92263">
        <ele>523.09</ele>
        <time>2012-08-07T10:14:22Z</time>
      </trkpt>
      <trkpt lat="45.79457" lon="5.92244">
        <ele>523.09</ele>
        <time>2012-08-07T10:14:23Z</time>
      </trkpt>
      <trkpt lat="45.79464" lon="5.92207">
        <ele>525.5</ele>
        <time>2012-08-07T10:14:25Z</time>
      </trkpt>
      <trkpt lat="45.79479" lon="5.92178">
        <ele>526.94</ele>
        <time>2012-08-07T10:14:27Z</time>
      </trkpt>
      <trkpt lat="45.79484" lon="5.92163">
        <ele>527.9</ele>
        <time>2012-08-07T10:14:28Z</time>
      </trkpt>
      <trkpt lat="45.79488" lon="5.92147">
        <ele>529.34</ele>
        <time>2012-08-07T10:14:29Z</time>
      </trkpt>
      <trkpt lat="45.7949" lon="5.92128">
        <ele>530.79</ele>
        <time>2012-08-07T10:14:30Z</time>
      </trkpt>
      <trkpt lat="45.79492" lon="5.92109">
        <ele>532.23</ele>
        <time>2012-08-07T10:14:31Z</time>
      </trkpt>
      <trkpt lat="45.79495" lon="5.92091">
        <ele>532.71</ele>
        <time>2012-08-07T10:14:32Z</time>
      </trkpt>
      <trkpt lat="45.79497" lon="5.92075">
        <ele>533.67</ele>
        <time>2012-08-07T10:14:33Z</time>
      </trkpt>
      <trkpt lat="45.79497" lon="5.92056">
        <ele>535.59</ele>
        <time>2012-08-07T10:14:34Z</time>
      </trkpt>
      <trkpt lat="45.79493" lon="5.92007">
        <ele>536.55</ele>
        <time>2012-08-07T10:14:37Z</time>
      </trkpt>
      <trkpt lat="45.79489" lon="5.91997">
        <ele>536.55</ele>
        <time>2012-08-07T10:14:38Z</time>
      </trkpt>
      <trkpt lat="45.79484" lon="5.91989">
        <ele>537.03</ele>
        <time>2012-08-07T10:14:39Z</time>
      </trkpt>
      <trkpt lat="45.79479" lon="5.91983">
        <ele>537.99</ele>
        <time>2012-08-07T10:14:40Z</time>
      </trkpt>
      <trkpt lat="45.79474" lon="5.91979">
        <ele>538.96</ele>
        <time>2012-08-07T10:14:41Z</time>
      </trkpt>
      <trkpt lat="45.79469" lon="5.91977">
        <ele>540.4</ele>
        <time>2012-08-07T10:14:42Z</time>
      </trkpt>
      <trkpt lat="45.79464" lon="5.91975">
        <ele>541.36</ele>
        <time>2012-08-07T10:14:43Z</time>
      </trkpt>
      <trkpt lat="45.79457" lon="5.91974">
        <ele>542.32</ele>
        <time>2012-08-07T10:14:44Z</time>
      </trkpt>
      <trkpt lat="45.7945" lon="5.91971">
        <ele>543.28</ele>
        <time>2012-08-07T10:14:45Z</time>
      </trkpt>
      <trkpt lat="45.79443" lon="5.91966">
        <ele>545.2</ele>
        <time>2012-08-07T10:14:46Z</time>
      </trkpt>
      <trkpt lat="45.79436" lon="5.91961">
        <ele>547.13</ele>
        <time>2012-08-07T10:14:47Z</time>
      </trkpt>
      <trkpt lat="45.79428" lon="5.91956">
        <ele>548.57</ele>
        <time>2012-08-07T10:14:48Z</time>
      </trkpt>
      <trkpt lat="45.79395" lon="5.91934">
        <ele>549.53</ele>
        <time>2012-08-07T10:14:51Z</time>
      </trkpt>
      <trkpt lat="45.79388" lon="5.91925">
        <ele>549.53</ele>
        <time>2012-08-07T10:14:52Z</time>
      </trkpt>
      <trkpt lat="45.79382" lon="5.91915">
        <ele>550.01</ele>
        <time>2012-08-07T10:14:53Z</time>
      </trkpt>
      <trkpt lat="45.79378" lon="5.91905">
        <ele>550.49</ele>
        <time>2012-08-07T10:14:54Z</time>
      </trkpt>
      <trkpt lat="45.79377" lon="5.91894">
        <ele>550.97</ele>
        <time>2012-08-07T10:14:55Z</time>
      </trkpt>
      <trkpt lat="45.79376" lon="5.91882">
        <ele>551.93</ele>
        <time>2012-08-07T10:14:56Z</time>
      </trkpt>
      <trkpt lat="45.79378" lon="5.91872">
        <ele>553.38</ele>
        <time>2012-08-07T10:14:57Z</time>
      </trkpt>
      <trkpt lat="45.7938" lon="5.91861">
        <ele>554.82</ele>
        <time>2012-08-07T10:14:58Z</time>
      </trkpt>
      <trkpt lat="45.79387" lon="5.91851">
        <ele>555.78</ele>
        <time>2012-08-07T10:14:59Z</time>
      </trkpt>
      <trkpt lat="45.79399" lon="5.91843">
        <ele>556.26</ele>
        <time>2012-08-07T10:15:00Z</time>
      </trkpt>
      <trkpt lat="45.79416" lon="5.91841">
        <ele>556.74</ele>
        <time>2012-08-07T10:15:01Z</time>
      </trkpt>
      <trkpt lat="45.79431" lon="5.91838">
        <ele>557.7</ele>
        <time>2012-08-07T10:15:02Z</time>
      </trkpt>
      <trkpt lat="45.79444" lon="5.91831">
        <ele>558.66</ele>
        <time>2012-08-07T10:15:03Z</time>
      </trkpt>
      <trkpt lat="45.79457" lon="5.91822">
        <ele>559.62</ele>
        <time>2012-08-07T10:15:04Z</time>
      </trkpt>
      <trkpt lat="45.79469" lon="5.9181">
        <ele>560.59</ele>
        <time>2012-08-07T10:15:05Z</time>
      </trkpt>
      <trkpt lat="45.7948" lon="5.91795">
        <ele>561.55</ele>
        <time>2012-08-07T10:15:06Z</time>
      </trkpt>
      <trkpt lat="45.7949" lon="5.91782">
        <ele>561.55</ele>
        <time>2012-08-07T10:15:07Z</time>
      </trkpt>
      <trkpt lat="45.79498" lon="5.91771">
        <ele>561.07</ele>
        <time>2012-08-07T10:15:08Z</time>
      </trkpt>
      <trkpt lat="45.79505" lon="5.91763">
        <ele>560.59</ele>
        <time>2012-08-07T10:15:09Z</time>
      </trkpt>
      <trkpt lat="45.79512" lon="5.91761">
        <ele>560.11</ele>
        <time>2012-08-07T10:15:10Z</time>
      </trkpt>
      <trkpt lat="45.79516" lon="5.91761">
        <ele>560.11</ele>
        <time>2012-08-07T10:15:11Z</time>
      </trkpt>
      <trkpt lat="45.7952" lon="5.91763">
        <ele>560.59</ele>
        <time>2012-08-07T10:15:12Z</time>
      </trkpt>
      <trkpt lat="45.79525" lon="5.91768">
        <ele>562.03</ele>
        <time>2012-08-07T10:15:13Z</time>
      </trkpt>
      <trkpt lat="45.79532" lon="5.91777">
        <ele>564.43</ele>
        <time>2012-08-07T10:15:14Z</time>
      </trkpt>
      <trkpt lat="45.79535" lon="5.91788">
        <ele>566.83</ele>
        <time>2012-08-07T10:15:15Z</time>
      </trkpt>
      <trkpt lat="45.79541" lon="5.918">
        <ele>569.24</ele>
        <time>2012-08-07T10:15:16Z</time>
      </trkpt>
      <trkpt lat="45.79552" lon="5.91815">
        <ele>571.16</ele>
        <time>2012-08-07T10:15:17Z</time>
      </trkpt>
      <trkpt lat="45.79615" lon="5.91892">
        <ele>569.72</ele>
        <time>2012-08-07T10:15:21Z</time>
      </trkpt>
      <trkpt lat="45.79632" lon="5.91906">
        <ele>570.68</ele>
        <time>2012-08-07T10:15:22Z</time>
      </trkpt>
      <trkpt lat="45.79646" lon="5.91917">
        <ele>572.12</ele>
        <time>2012-08-07T10:15:23Z</time>
      </trkpt>
      <trkpt lat="45.79659" lon="5.91924">
        <ele>573.56</ele>
        <time>2012-08-07T10:15:24Z</time>
      </trkpt>
      <trkpt lat="45.79705" lon="5.91942">
        <ele>576.93</ele>
        <time>2012-08-07T10:15:27Z</time>
      </trkpt>
      <trkpt lat="45.79754" lon="5.91963">
        <ele>579.81</ele>
        <time>2012-08-07T10:15:30Z</time>
      </trkpt>
      <trkpt lat="45.79768" lon="5.91969">
        <ele>579.81</ele>
        <time>2012-08-07T10:15:31Z</time>
      </trkpt>
      <trkpt lat="45.79783" lon="5.91973">
        <ele>580.29</ele>
        <time>2012-08-07T10:15:32Z</time>
      </trkpt>
      <trkpt lat="45.79796" lon="5.91975">
        <ele>580.77</ele>
        <time>2012-08-07T10:15:33Z</time>
      </trkpt>
      <trkpt lat="45.79808" lon="5.91975">
        <ele>580.77</ele>
        <time>2012-08-07T10:15:34Z</time>
      </trkpt>
      <trkpt lat="45.79818" lon="5.91973">
        <ele>581.25</ele>
        <time>2012-08-07T10:15:35Z</time>
      </trkpt>
      <trkpt lat="45.79827" lon="5.91967">
        <ele>581.25</ele>
        <time>2012-08-07T10:15:36Z</time>
      </trkpt>
      <trkpt lat="45.79834" lon="5.91958">
        <ele>581.73</ele>
        <time>2012-08-07T10:15:37Z</time>
      </trkpt>
      <trkpt lat="45.79839" lon="5.91946">
        <ele>582.7</ele>
        <time>2012-08-07T10:15:38Z</time>
      </trkpt>
      <trkpt lat="45.79841" lon="5.9193">
        <ele>583.18</ele>
        <time>2012-08-07T10:15:39Z</time>
      </trkpt>
      <trkpt lat="45.79842" lon="5.91914">
        <ele>582.7</ele>
        <time>2012-08-07T10:15:40Z</time>
      </trkpt>
      <trkpt lat="45.79845" lon="5.919">
        <ele>583.18</ele>
        <time>2012-08-07T10:15:41Z</time>
      </trkpt>
      <trkpt lat="45.79851" lon="5.91885">
        <ele>584.62</ele>
        <time>2012-08-07T10:15:42Z</time>
      </trkpt>
      <trkpt lat="45.79858" lon="5.9187">
        <ele>584.62</ele>
        <time>2012-08-07T10:15:43Z</time>
      </trkpt>
      <trkpt lat="45.79867" lon="5.91854">
        <ele>585.58</ele>
        <time>2012-08-07T10:15:44Z</time>
      </trkpt>
      <trkpt lat="45.799" lon="5.91788">
        <ele>587.98</ele>
        <time>2012-08-07T10:15:48Z</time>
      </trkpt>
      <trkpt lat="45.79909" lon="5.91777">
        <ele>588.95</ele>
        <time>2012-08-07T10:15:49Z</time>
      </trkpt>
      <trkpt lat="45.79919" lon="5.91767">
        <ele>591.83</ele>
        <time>2012-08-07T10:15:50Z</time>
      </trkpt>
      <trkpt lat="45.7993" lon="5.91759">
        <ele>592.79</ele>
        <time>2012-08-07T10:15:51Z</time>
      </trkpt>
      <trkpt lat="45.79942" lon="5.91753">
        <ele>594.23</ele>
        <time>2012-08-07T10:15:52Z</time>
      </trkpt>
      <trkpt lat="45.79954" lon="5.91748">
        <ele>595.19</ele>
        <time>2012-08-07T10:15:53Z</time>
      </trkpt>
      <trkpt lat="45.79967" lon="5.91747">
        <ele>595.19</ele>
        <time>2012-08-07T10:15:54Z</time>
      </trkpt>
      <trkpt lat="45.7998" lon="5.91749">
        <ele>597.12</ele>
        <time>2012-08-07T10:15:55Z</time>
      </trkpt>
      <trkpt lat="45.79992" lon="5.91751">
        <ele>596.64</ele>
        <time>2012-08-07T10:15:56Z</time>
      </trkpt>
      <trkpt lat="45.80013" lon="5.91753">
        <ele>597.12</ele>
        <time>2012-08-07T10:15:58Z</time>
      </trkpt>
      <trkpt lat="45.80023" lon="5.91751">
        <ele>597.12</ele>
        <time>2012-08-07T10:15:59Z</time>
      </trkpt>
      <trkpt lat="45.80041" lon="5.91747">
        <ele>596.64</ele>
        <time>2012-08-07T10:16:01Z</time>
      </trkpt>
      <trkpt lat="45.8005" lon="5.91749">
        <ele>596.64</ele>
        <time>2012-08-07T10:16:02Z</time>
      </trkpt>
      <trkpt lat="45.80058" lon="5.91753">
        <ele>596.64</ele>
        <time>2012-08-07T10:16:03Z</time>
      </trkpt>
      <trkpt lat="45.80077" lon="5.91763">
        <ele>597.12</ele>
        <time>2012-08-07T10:16:05Z</time>
      </trkpt>
      <trkpt lat="45.80088" lon="5.91766">
        <ele>597.12</ele>
        <time>2012-08-07T10:16:06Z</time>
      </trkpt>
      <trkpt lat="45.801" lon="5.91766">
        <ele>597.6</ele>
        <time>2012-08-07T10:16:07Z</time>
      </trkpt>
      <trkpt lat="45.80112" lon="5.91766">
        <ele>598.08</ele>
        <time>2012-08-07T10:16:08Z</time>
      </trkpt>
      <trkpt lat="45.80126" lon="5.91764">
        <ele>599.04</ele>
        <time>2012-08-07T10:16:09Z</time>
      </trkpt>
      <trkpt lat="45.80139" lon="5.91761">
        <ele>599.04</ele>
        <time>2012-08-07T10:16:10Z</time>
      </trkpt>
      <trkpt lat="45.80204" lon="5.91747">
        <ele>603.36</ele>
        <time>2012-08-07T10:16:15Z</time>
      </trkpt>
      <trkpt lat="45.80218" lon="5.91745">
        <ele>603.36</ele>
        <time>2012-08-07T10:16:16Z</time>
      </trkpt>
      <trkpt lat="45.80263" lon="5.91735">
        <ele>604.33</ele>
        <time>2012-08-07T10:16:20Z</time>
      </trkpt>
      <trkpt lat="45.80273" lon="5.91728">
        <ele>604.81</ele>
        <time>2012-08-07T10:16:21Z</time>
      </trkpt>
      <trkpt lat="45.80283" lon="5.91718">
        <ele>606.25</ele>
        <time>2012-08-07T10:16:22Z</time>
      </trkpt>
      <trkpt lat="45.80304" lon="5.91697">
        <ele>610.09</ele>
        <time>2012-08-07T10:16:24Z</time>
      </trkpt>
      <trkpt lat="45.80329" lon="5.91678">
        <ele>613.46</ele>
        <time>2012-08-07T10:16:26Z</time>
      </trkpt>
      <trkpt lat="45.80342" lon="5.91671">
        <ele>614.9</ele>
        <time>2012-08-07T10:16:27Z</time>
      </trkpt>
      <trkpt lat="45.80354" lon="5.91667">
        <ele>616.34</ele>
        <time>2012-08-07T10:16:28Z</time>
      </trkpt>
      <trkpt lat="45.8038" lon="5.91662">
        <ele>619.71</ele>
        <time>2012-08-07T10:16:30Z</time>
      </trkpt>
      <trkpt lat="45.80435" lon="5.91651">
        <ele>623.07</ele>
        <time>2012-08-07T10:16:34Z</time>
      </trkpt>
      <trkpt lat="45.80474" lon="5.9164">
        <ele>624.51</ele>
        <time>2012-08-07T10:16:37Z</time>
      </trkpt>
      <trkpt lat="45.80498" lon="5.91627">
        <ele>627.4</ele>
        <time>2012-08-07T10:16:39Z</time>
      </trkpt>
      <trkpt lat="45.8053" lon="5.91597">
        <ele>630.76</ele>
        <time>2012-08-07T10:16:42Z</time>
      </trkpt>
      <trkpt lat="45.80541" lon="5.9159">
        <ele>632.2</ele>
        <time>2012-08-07T10:16:43Z</time>
      </trkpt>
      <trkpt lat="45.80552" lon="5.91583">
        <ele>632.68</ele>
        <time>2012-08-07T10:16:44Z</time>
      </trkpt>
      <trkpt lat="45.80591" lon="5.91563">
        <ele>632.68</ele>
        <time>2012-08-07T10:16:48Z</time>
      </trkpt>
      <trkpt lat="45.80599" lon="5.91557">
        <ele>632.68</ele>
        <time>2012-08-07T10:16:49Z</time>
      </trkpt>
      <trkpt lat="45.80607" lon="5.91551">
        <ele>632.2</ele>
        <time>2012-08-07T10:16:50Z</time>
      </trkpt>
      <trkpt lat="45.8062" lon="5.91543">
        <ele>631.24</ele>
        <time>2012-08-07T10:16:52Z</time>
      </trkpt>
      <trkpt lat="45.80632" lon="5.91535">
        <ele>629.8</ele>
        <time>2012-08-07T10:16:55Z</time>
      </trkpt>
      <trkpt lat="45.80634" lon="5.9153">
        <ele>629.32</ele>
        <time>2012-08-07T10:16:56Z</time>
      </trkpt>
      <trkpt lat="45.80635" lon="5.91522">
        <ele>630.28</ele>
        <time>2012-08-07T10:16:57Z</time>
      </trkpt>
      <trkpt lat="45.80635" lon="5.91512">
        <ele>630.76</ele>
        <time>2012-08-07T10:16:58Z</time>
      </trkpt>
      <trkpt lat="45.80634" lon="5.91502">
        <ele>631.24</ele>
        <time>2012-08-07T10:16:59Z</time>
      </trkpt>
      <trkpt lat="45.80625" lon="5.91425">
        <ele>634.61</ele>
        <time>2012-08-07T10:17:04Z</time>
      </trkpt>
      <trkpt lat="45.80601" lon="5.91259">
        <ele>631.24</ele>
        <time>2012-08-07T10:17:14Z</time>
      </trkpt>
      <trkpt lat="45.80602" lon="5.91239">
        <ele>629.32</ele>
        <time>2012-08-07T10:17:17Z</time>
      </trkpt>
      <trkpt lat="45.80604" lon="5.91237">
        <ele>628.84</ele>
        <time>2012-08-07T10:17:18Z</time>
      </trkpt>
      <trkpt lat="45.80611" lon="5.91236">
        <ele>627.88</ele>
        <time>2012-08-07T10:17:21Z</time>
      </trkpt>
      <trkpt lat="45.80614" lon="5.91234">
        <ele>627.4</ele>
        <time>2012-08-07T10:17:33Z</time>
      </trkpt>
      <trkpt lat="45.80615" lon="5.91233">
        <ele>627.4</ele>
        <time>2012-08-07T10:17:56Z</time>
      </trkpt>
      <trkpt lat="45.80615" lon="5.91233">
        <ele>627.4</ele>
        <time>2012-08-07T10:18:25Z</time>
      </trkpt>
      <trkpt lat="45.80616" lon="5.91233">
        <ele>627.88</ele>
        <time>2012-08-07T10:18:57Z</time>
      </trkpt>
      <trkpt lat="45.80615" lon="5.91232">
        <ele>627.4</ele>
        <time>2012-08-07T10:19:26Z</time>
      </trkpt>
      <trkpt lat="45.80615" lon="5.91231">
        <ele>628.36</ele>
        <time>2012-08-07T10:20:02Z</time>
      </trkpt>
      <trkpt lat="45.80615" lon="5.91231">
        <ele>628.36</ele>
        <time>2012-08-07T10:20:45Z</time>
      </trkpt>
      <trkpt lat="45.80615" lon="5.91231">
        <ele>628.36</ele>
        <time>2012-08-07T10:21:22Z</time>
      </trkpt>
      <trkpt lat="45.80614" lon="5.91232">
        <ele>628.36</ele>
        <time>2012-08-07T10:21:52Z</time>
      </trkpt>
      <trkpt lat="45.80615" lon="5.91233">
        <ele>628.36</ele>
        <time>2012-08-07T10:22:26Z</time>
      </trkpt>
      <trkpt lat="45.80615" lon="5.91234">
        <ele>628.84</ele>
        <time>2012-08-07T10:23:02Z</time>
      </trkpt>
      <trkpt lat="45.80615" lon="5.91233">
        <ele>629.32</ele>
        <time>2012-08-07T10:23:41Z</time>
      </trkpt>
      <trkpt lat="45.80615" lon="5.91233">
        <ele>628.84</ele>
        <time>2012-08-07T10:24:21Z</time>
      </trkpt>
      <trkpt lat="45.80614" lon="5.91231">
        <ele>629.32</ele>
        <time>2012-08-07T10:25:02Z</time>
      </trkpt>
      <trkpt lat="45.80614" lon="5.91231">
        <ele>629.32</ele>
        <time>2012-08-07T10:25:40Z</time>
      </trkpt>
      <trkpt lat="45.80614" lon="5.91232">
        <ele>629.32</ele>
        <time>2012-08-07T10:26:23Z</time>
      </trkpt>
      <trkpt lat="45.80614" lon="5.91232">
        <ele>629.8</ele>
        <time>2012-08-07T10:27:12Z</time>
      </trkpt>
      <trkpt lat="45.80615" lon="5.91233">
        <ele>629.8</ele>
        <time>2012-08-07T10:28:00Z</time>
      </trkpt>
      <trkpt lat="45.80614" lon="5.91233">
        <ele>629.8</ele>
        <time>2012-08-07T10:28:38Z</time>
      </trkpt>
      <trkpt lat="45.80615" lon="5.91233">
        <ele>629.8</ele>
        <time>2012-08-07T10:29:19Z</time>
      </trkpt>
      <trkpt lat="45.80615" lon="5.91233">
        <ele>630.28</ele>
        <time>2012-08-07T10:30:00Z</time>
      </trkpt>
      <trkpt lat="45.80615" lon="5.91234">
        <ele>629.8</ele>
        <time>2012-08-07T10:30:33Z</time>
      </trkpt>
      <trkpt lat="45.80615" lon="5.91233">
        <ele>629.8</ele>
        <time>2012-08-07T10:31:11Z</time>
      </trkpt>
      <trkpt lat="45.80614" lon="5.91234">
        <ele>629.8</ele>
        <time>2012-08-07T10:31:53Z</time>
      </trkpt>
      <trkpt lat="45.80614" lon="5.91233">
        <ele>629.8</ele>
        <time>2012-08-07T10:32:20Z</time>
      </trkpt>
      <trkpt lat="45.80614" lon="5.91232">
        <ele>630.28</ele>
        <time>2012-08-07T10:32:55Z</time>
      </trkpt>
      <trkpt lat="45.80615" lon="5.91233">
        <ele>630.28</ele>
        <time>2012-08-07T10:33:26Z</time>
      </trkpt>
      <trkpt lat="45.80614" lon="5.9123">
        <ele>630.28</ele>
        <time>2012-08-07T10:33:31Z</time>
      </trkpt>
      <trkpt lat="45.80612" lon="5.91228">
        <ele>630.76</ele>
        <time>2012-08-07T10:33:35Z</time>
      </trkpt>
      <trkpt lat="45.80606" lon="5.91228">
        <ele>630.76</ele>
        <time>2012-08-07T10:33:39Z</time>
      </trkpt>
      <trkpt lat="45.806" lon="5.91223">
        <ele>631.72</ele>
        <time>2012-08-07T10:33:41Z</time>
      </trkpt>
      <trkpt lat="45.80584" lon="5.91187">
        <ele>632.2</ele>
        <time>2012-08-07T10:33:45Z</time>
      </trkpt>
      <trkpt lat="45.80561" lon="5.91107">
        <ele>633.17</ele>
        <time>2012-08-07T10:33:50Z</time>
      </trkpt>
      <trkpt lat="45.80554" lon="5.91093">
        <ele>633.17</ele>
        <time>2012-08-07T10:33:51Z</time>
      </trkpt>
      <trkpt lat="45.80545" lon="5.91079">
        <ele>633.17</ele>
        <time>2012-08-07T10:33:52Z</time>
      </trkpt>
      <trkpt lat="45.80453" lon="5.90991">
        <ele>634.61</ele>
        <time>2012-08-07T10:33:59Z</time>
      </trkpt>
      <trkpt lat="45.80378" lon="5.9095">
        <ele>637.97</ele>
        <time>2012-08-07T10:34:03Z</time>
      </trkpt>
      <trkpt lat="45.80298" lon="5.90913">
        <ele>634.13</ele>
        <time>2012-08-07T10:34:07Z</time>
      </trkpt>
      <trkpt lat="45.80257" lon="5.90896">
        <ele>632.2</ele>
        <time>2012-08-07T10:34:10Z</time>
      </trkpt>
      <trkpt lat="45.80244" lon="5.90895">
        <ele>632.2</ele>
        <time>2012-08-07T10:34:11Z</time>
      </trkpt>
      <trkpt lat="45.80232" lon="5.90896">
        <ele>632.2</ele>
        <time>2012-08-07T10:34:12Z</time>
      </trkpt>
      <trkpt lat="45.8022" lon="5.909">
        <ele>630.76</ele>
        <time>2012-08-07T10:34:13Z</time>
      </trkpt>
      <trkpt lat="45.80209" lon="5.90908">
        <ele>629.8</ele>
        <time>2012-08-07T10:34:14Z</time>
      </trkpt>
      <trkpt lat="45.80198" lon="5.90923">
        <ele>629.8</ele>
        <time>2012-08-07T10:34:15Z</time>
      </trkpt>
      <trkpt lat="45.80187" lon="5.90941">
        <ele>629.32</ele>
        <time>2012-08-07T10:34:16Z</time>
      </trkpt>
      <trkpt lat="45.80173" lon="5.90959">
        <ele>628.36</ele>
        <time>2012-08-07T10:34:17Z</time>
      </trkpt>
      <trkpt lat="45.80158" lon="5.90975">
        <ele>627.4</ele>
        <time>2012-08-07T10:34:18Z</time>
      </trkpt>
      <trkpt lat="45.80143" lon="5.90987">
        <ele>624.51</ele>
        <time>2012-08-07T10:34:19Z</time>
      </trkpt>
      <trkpt lat="45.8013" lon="5.90997">
        <ele>623.07</ele>
        <time>2012-08-07T10:34:20Z</time>
      </trkpt>
      <trkpt lat="45.80116" lon="5.91005">
        <ele>622.11</ele>
        <time>2012-08-07T10:34:21Z</time>
      </trkpt>
      <trkpt lat="45.80103" lon="5.91008">
        <ele>621.15</ele>
        <time>2012-08-07T10:34:22Z</time>
      </trkpt>
      <trkpt lat="45.80092" lon="5.91007">
        <ele>619.71</ele>
        <time>2012-08-07T10:34:23Z</time>
      </trkpt>
      <trkpt lat="45.80082" lon="5.91006">
        <ele>618.75</ele>
        <time>2012-08-07T10:34:24Z</time>
      </trkpt>
      <trkpt lat="45.80075" lon="5.91004">
        <ele>617.78</ele>
        <time>2012-08-07T10:34:25Z</time>
      </trkpt>
      <trkpt lat="45.80068" lon="5.91001">
        <ele>617.3</ele>
        <time>2012-08-07T10:34:26Z</time>
      </trkpt>
      <trkpt lat="45.80063" lon="5.90993">
        <ele>616.82</ele>
        <time>2012-08-07T10:34:27Z</time>
      </trkpt>
      <trkpt lat="45.8006" lon="5.90982">
        <ele>616.34</ele>
        <time>2012-08-07T10:34:28Z</time>
      </trkpt>
      <trkpt lat="45.80061" lon="5.90968">
        <ele>617.3</ele>
        <time>2012-08-07T10:34:29Z</time>
      </trkpt>
      <trkpt lat="45.80066" lon="5.90941">
        <ele>618.26</ele>
        <time>2012-08-07T10:34:31Z</time>
      </trkpt>
      <trkpt lat="45.8007" lon="5.90929">
        <ele>617.3</ele>
        <time>2012-08-07T10:34:32Z</time>
      </trkpt>
      <trkpt lat="45.80073" lon="5.90918">
        <ele>616.82</ele>
        <time>2012-08-07T10:34:33Z</time>
      </trkpt>
      <trkpt lat="45.80073" lon="5.9091">
        <ele>617.78</ele>
        <time>2012-08-07T10:34:34Z</time>
      </trkpt>
      <trkpt lat="45.80073" lon="5.90901">
        <ele>618.26</ele>
        <time>2012-08-07T10:34:35Z</time>
      </trkpt>
      <trkpt lat="45.80072" lon="5.90892">
        <ele>617.78</ele>
        <time>2012-08-07T10:34:36Z</time>
      </trkpt>
      <trkpt lat="45.80071" lon="5.90884">
        <ele>615.86</ele>
        <time>2012-08-07T10:34:37Z</time>
      </trkpt>
      <trkpt lat="45.80068" lon="5.90876">
        <ele>614.42</ele>
        <time>2012-08-07T10:34:38Z</time>
      </trkpt>
      <trkpt lat="45.80058" lon="5.90865">
        <ele>613.94</ele>
        <time>2012-08-07T10:34:39Z</time>
      </trkpt>
      <trkpt lat="45.80048" lon="5.90859">
        <ele>613.46</ele>
        <time>2012-08-07T10:34:40Z</time>
      </trkpt>
      <trkpt lat="45.80035" lon="5.9085">
        <ele>612.02</ele>
        <time>2012-08-07T10:34:41Z</time>
      </trkpt>
      <trkpt lat="45.80012" lon="5.90828">
        <ele>610.09</ele>
        <time>2012-08-07T10:34:42Z</time>
      </trkpt>
      <trkpt lat="45.79965" lon="5.90784">
        <ele>607.69</ele>
        <time>2012-08-07T10:34:45Z</time>
      </trkpt>
      <trkpt lat="45.79955" lon="5.90767">
        <ele>607.21</ele>
        <time>2012-08-07T10:34:46Z</time>
      </trkpt>
      <trkpt lat="45.79947" lon="5.90748">
        <ele>607.69</ele>
        <time>2012-08-07T10:34:47Z</time>
      </trkpt>
      <trkpt lat="45.79944" lon="5.90728">
        <ele>607.21</ele>
        <time>2012-08-07T10:34:48Z</time>
      </trkpt>
      <trkpt lat="45.79942" lon="5.90709">
        <ele>606.25</ele>
        <time>2012-08-07T10:34:49Z</time>
      </trkpt>
      <trkpt lat="45.7994" lon="5.9069">
        <ele>606.25</ele>
        <time>2012-08-07T10:34:50Z</time>
      </trkpt>
      <trkpt lat="45.79938" lon="5.90649">
        <ele>604.33</ele>
        <time>2012-08-07T10:34:53Z</time>
      </trkpt>
      <trkpt lat="45.79937" lon="5.90642">
        <ele>603.36</ele>
        <time>2012-08-07T10:34:54Z</time>
      </trkpt>
      <trkpt lat="45.79936" lon="5.90634">
        <ele>602.4</ele>
        <time>2012-08-07T10:34:56Z</time>
      </trkpt>
      <trkpt lat="45.79936" lon="5.90626">
        <ele>601.92</ele>
        <time>2012-08-07T10:34:58Z</time>
      </trkpt>
      <trkpt lat="45.79936" lon="5.90616">
        <ele>602.4</ele>
        <time>2012-08-07T10:34:59Z</time>
      </trkpt>
      <trkpt lat="45.79935" lon="5.90603">
        <ele>601.92</ele>
        <time>2012-08-07T10:35:00Z</time>
      </trkpt>
      <trkpt lat="45.79932" lon="5.90588">
        <ele>600.96</ele>
        <time>2012-08-07T10:35:01Z</time>
      </trkpt>
      <trkpt lat="45.79928" lon="5.90571">
        <ele>600.48</ele>
        <time>2012-08-07T10:35:02Z</time>
      </trkpt>
      <trkpt lat="45.79917" lon="5.90548">
        <ele>600.48</ele>
        <time>2012-08-07T10:35:03Z</time>
      </trkpt>
      <trkpt lat="45.79906" lon="5.90523">
        <ele>600.48</ele>
        <time>2012-08-07T10:35:04Z</time>
      </trkpt>
      <trkpt lat="45.79874" lon="5.90446">
        <ele>597.12</ele>
        <time>2012-08-07T10:35:07Z</time>
      </trkpt>
      <trkpt lat="45.79854" lon="5.904">
        <ele>591.83</ele>
        <time>2012-08-07T10:35:09Z</time>
      </trkpt>
      <trkpt lat="45.79846" lon="5.90377">
        <ele>590.39</ele>
        <time>2012-08-07T10:35:10Z</time>
      </trkpt>
      <trkpt lat="45.7984" lon="5.90355">
        <ele>589.43</ele>
        <time>2012-08-07T10:35:11Z</time>
      </trkpt>
      <trkpt lat="45.79835" lon="5.90333">
        <ele>588.46</ele>
        <time>2012-08-07T10:35:12Z</time>
      </trkpt>
      <trkpt lat="45.79831" lon="5.90309">
        <ele>588.46</ele>
        <time>2012-08-07T10:35:13Z</time>
      </trkpt>
      <trkpt lat="45.7983" lon="5.90285">
        <ele>587.98</ele>
        <time>2012-08-07T10:35:14Z</time>
      </trkpt>
      <trkpt lat="45.79831" lon="5.90262">
        <ele>587.5</ele>
        <time>2012-08-07T10:35:15Z</time>
      </trkpt>
      <trkpt lat="45.79835" lon="5.90238">
        <ele>589.91</ele>
        <time>2012-08-07T10:35:16Z</time>
      </trkpt>
      <trkpt lat="45.79839" lon="5.90212">
        <ele>590.87</ele>
        <time>2012-08-07T10:35:17Z</time>
      </trkpt>
      <trkpt lat="45.79845" lon="5.90185">
        <ele>590.87</ele>
        <time>2012-08-07T10:35:18Z</time>
      </trkpt>
      <trkpt lat="45.79857" lon="5.90112">
        <ele>590.87</ele>
        <time>2012-08-07T10:35:21Z</time>
      </trkpt>
      <trkpt lat="45.79857" lon="5.9009">
        <ele>592.31</ele>
        <time>2012-08-07T10:35:22Z</time>
      </trkpt>
      <trkpt lat="45.79855" lon="5.90045">
        <ele>595.67</ele>
        <time>2012-08-07T10:35:24Z</time>
      </trkpt>
      <trkpt lat="45.79858" lon="5.89993">
        <ele>599.04</ele>
        <time>2012-08-07T10:35:26Z</time>
      </trkpt>
      <trkpt lat="45.79857" lon="5.89938">
        <ele>603.85</ele>
        <time>2012-08-07T10:35:28Z</time>
      </trkpt>
      <trkpt lat="45.79855" lon="5.89857">
        <ele>607.69</ele>
        <time>2012-08-07T10:35:31Z</time>
      </trkpt>
      <trkpt lat="45.79855" lon="5.89833">
        <ele>608.65</ele>
        <time>2012-08-07T10:35:32Z</time>
      </trkpt>
      <trkpt lat="45.79859" lon="5.89787">
        <ele>611.54</ele>
        <time>2012-08-07T10:35:34Z</time>
      </trkpt>
      <trkpt lat="45.79858" lon="5.89765">
        <ele>612.02</ele>
        <time>2012-08-07T10:35:35Z</time>
      </trkpt>
      <trkpt lat="45.79854" lon="5.89701">
        <ele>617.3</ele>
        <time>2012-08-07T10:35:38Z</time>
      </trkpt>
      <trkpt lat="45.79853" lon="5.89679">
        <ele>617.3</ele>
        <time>2012-08-07T10:35:39Z</time>
      </trkpt>
      <trkpt lat="45.79855" lon="5.89656">
        <ele>618.75</ele>
        <time>2012-08-07T10:35:40Z</time>
      </trkpt>
      <trkpt lat="45.7986" lon="5.89634">
        <ele>620.67</ele>
        <time>2012-08-07T10:35:41Z</time>
      </trkpt>
      <trkpt lat="45.79869" lon="5.89593">
        <ele>622.59</ele>
        <time>2012-08-07T10:35:43Z</time>
      </trkpt>
      <trkpt lat="45.79871" lon="5.89573">
        <ele>623.55</ele>
        <time>2012-08-07T10:35:44Z</time>
      </trkpt>
      <trkpt lat="45.79871" lon="5.89554">
        <ele>624.51</ele>
        <time>2012-08-07T10:35:45Z</time>
      </trkpt>
      <trkpt lat="45.79868" lon="5.89535">
        <ele>626.92</ele>
        <time>2012-08-07T10:35:46Z</time>
      </trkpt>
      <trkpt lat="45.79862" lon="5.89516">
        <ele>627.88</ele>
        <time>2012-08-07T10:35:47Z</time>
      </trkpt>
      <trkpt lat="45.79855" lon="5.89498">
        <ele>629.32</ele>
        <time>2012-08-07T10:35:48Z</time>
      </trkpt>
      <trkpt lat="45.79848" lon="5.89482">
        <ele>629.8</ele>
        <time>2012-08-07T10:35:49Z</time>
      </trkpt>
      <trkpt lat="45.79842" lon="5.89467">
        <ele>629.8</ele>
        <time>2012-08-07T10:35:50Z</time>
      </trkpt>
      <trkpt lat="45.79838" lon="5.89455">
        <ele>630.76</ele>
        <time>2012-08-07T10:35:51Z</time>
      </trkpt>
      <trkpt lat="45.79837" lon="5.89443">
        <ele>630.76</ele>
        <time>2012-08-07T10:35:52Z</time>
      </trkpt>
      <trkpt lat="45.7984" lon="5.89432">
        <ele>631.72</ele>
        <time>2012-08-07T10:35:53Z</time>
      </trkpt>
      <trkpt lat="45.79845" lon="5.89423">
        <ele>633.65</ele>
        <time>2012-08-07T10:35:54Z</time>
      </trkpt>
      <trkpt lat="45.79854" lon="5.89417">
        <ele>634.61</ele>
        <time>2012-08-07T10:35:55Z</time>
      </trkpt>
      <trkpt lat="45.79865" lon="5.89415">
        <ele>636.53</ele>
        <time>2012-08-07T10:35:56Z</time>
      </trkpt>
      <trkpt lat="45.79874" lon="5.89412">
        <ele>637.01</ele>
        <time>2012-08-07T10:35:57Z</time>
      </trkpt>
      <trkpt lat="45.79881" lon="5.89405">
        <ele>637.97</ele>
        <time>2012-08-07T10:35:58Z</time>
      </trkpt>
      <trkpt lat="45.79887" lon="5.89391">
        <ele>639.41</ele>
        <time>2012-08-07T10:35:59Z</time>
      </trkpt>
      <trkpt lat="45.7989" lon="5.89372">
        <ele>640.38</ele>
        <time>2012-08-07T10:36:00Z</time>
      </trkpt>
      <trkpt lat="45.7989" lon="5.89349">
        <ele>641.82</ele>
        <time>2012-08-07T10:36:01Z</time>
      </trkpt>
      <trkpt lat="45.79891" lon="5.89258">
        <ele>638.45</ele>
        <time>2012-08-07T10:36:06Z</time>
      </trkpt>
      <trkpt lat="45.79892" lon="5.89242">
        <ele>637.49</ele>
        <time>2012-08-07T10:36:08Z</time>
      </trkpt>
      <trkpt lat="45.79891" lon="5.89233">
        <ele>637.97</ele>
        <time>2012-08-07T10:36:09Z</time>
      </trkpt>
      <trkpt lat="45.79888" lon="5.89222">
        <ele>637.97</ele>
        <time>2012-08-07T10:36:10Z</time>
      </trkpt>
      <trkpt lat="45.79886" lon="5.89211">
        <ele>637.01</ele>
        <time>2012-08-07T10:36:11Z</time>
      </trkpt>
      <trkpt lat="45.79885" lon="5.892">
        <ele>637.01</ele>
        <time>2012-08-07T10:36:12Z</time>
      </trkpt>
      <trkpt lat="45.79888" lon="5.8919">
        <ele>637.49</ele>
        <time>2012-08-07T10:36:13Z</time>
      </trkpt>
      <trkpt lat="45.79894" lon="5.89179">
        <ele>638.45</ele>
        <time>2012-08-07T10:36:14Z</time>
      </trkpt>
      <trkpt lat="45.79901" lon="5.89165">
        <ele>639.41</ele>
        <time>2012-08-07T10:36:15Z</time>
      </trkpt>
      <trkpt lat="45.79907" lon="5.89145">
        <ele>641.34</ele>
        <time>2012-08-07T10:36:16Z</time>
      </trkpt>
      <trkpt lat="45.79913" lon="5.89121">
        <ele>642.78</ele>
        <time>2012-08-07T10:36:17Z</time>
      </trkpt>
      <trkpt lat="45.79921" lon="5.89097">
        <ele>644.22</ele>
        <time>2012-08-07T10:36:18Z</time>
      </trkpt>
      <trkpt lat="45.79931" lon="5.89074">
        <ele>645.18</ele>
        <time>2012-08-07T10:36:19Z</time>
      </trkpt>
      <trkpt lat="45.79944" lon="5.89054">
        <ele>646.14</ele>
        <time>2012-08-07T10:36:20Z</time>
      </trkpt>
      <trkpt lat="45.79968" lon="5.89017">
        <ele>648.07</ele>
        <time>2012-08-07T10:36:22Z</time>
      </trkpt>
      <trkpt lat="45.79978" lon="5.88995">
        <ele>650.47</ele>
        <time>2012-08-07T10:36:23Z</time>
      </trkpt>
      <trkpt lat="45.79997" lon="5.88935">
        <ele>651.43</ele>
        <time>2012-08-07T10:36:26Z</time>
      </trkpt>
      <trkpt lat="45.79998" lon="5.88914">
        <ele>653.83</ele>
        <time>2012-08-07T10:36:27Z</time>
      </trkpt>
      <trkpt lat="45.79997" lon="5.88872">
        <ele>654.8</ele>
        <time>2012-08-07T10:36:29Z</time>
      </trkpt>
      <trkpt lat="45.80001" lon="5.88854">
        <ele>655.76</ele>
        <time>2012-08-07T10:36:30Z</time>
      </trkpt>
      <trkpt lat="45.80011" lon="5.8884">
        <ele>656.24</ele>
        <time>2012-08-07T10:36:31Z</time>
      </trkpt>
      <trkpt lat="45.80024" lon="5.88829">
        <ele>658.64</ele>
        <time>2012-08-07T10:36:32Z</time>
      </trkpt>
      <trkpt lat="45.80039" lon="5.88819">
        <ele>661.04</ele>
        <time>2012-08-07T10:36:33Z</time>
      </trkpt>
      <trkpt lat="45.80078" lon="5.88789">
        <ele>662.97</ele>
        <time>2012-08-07T10:36:36Z</time>
      </trkpt>
      <trkpt lat="45.80086" lon="5.88776">
        <ele>663.45</ele>
        <time>2012-08-07T10:36:37Z</time>
      </trkpt>
      <trkpt lat="45.80092" lon="5.88758">
        <ele>665.37</ele>
        <time>2012-08-07T10:36:38Z</time>
      </trkpt>
      <trkpt lat="45.80102" lon="5.88712">
        <ele>668.73</ele>
        <time>2012-08-07T10:36:40Z</time>
      </trkpt>
      <trkpt lat="45.80113" lon="5.88667">
        <ele>670.18</ele>
        <time>2012-08-07T10:36:42Z</time>
      </trkpt>
      <trkpt lat="45.80122" lon="5.88648">
        <ele>672.1</ele>
        <time>2012-08-07T10:36:43Z</time>
      </trkpt>
      <trkpt lat="45.80132" lon="5.88634">
        <ele>672.1</ele>
        <time>2012-08-07T10:36:44Z</time>
      </trkpt>
      <trkpt lat="45.80148" lon="5.88615">
        <ele>672.1</ele>
        <time>2012-08-07T10:36:46Z</time>
      </trkpt>
      <trkpt lat="45.80152" lon="5.88606">
        <ele>671.62</ele>
        <time>2012-08-07T10:36:47Z</time>
      </trkpt>
      <trkpt lat="45.80153" lon="5.88597">
        <ele>671.62</ele>
        <time>2012-08-07T10:36:48Z</time>
      </trkpt>
      <trkpt lat="45.80152" lon="5.88588">
        <ele>672.58</ele>
        <time>2012-08-07T10:36:49Z</time>
      </trkpt>
      <trkpt lat="45.80147" lon="5.88583">
        <ele>672.1</ele>
        <time>2012-08-07T10:36:50Z</time>
      </trkpt>
      <trkpt lat="45.8014" lon="5.88581">
        <ele>673.54</ele>
        <time>2012-08-07T10:36:51Z</time>
      </trkpt>
      <trkpt lat="45.80133" lon="5.88583">
        <ele>674.02</ele>
        <time>2012-08-07T10:36:52Z</time>
      </trkpt>
      <trkpt lat="45.80125" lon="5.88589">
        <ele>674.98</ele>
        <time>2012-08-07T10:36:53Z</time>
      </trkpt>
      <trkpt lat="45.80116" lon="5.88598">
        <ele>674.5</ele>
        <time>2012-08-07T10:36:54Z</time>
      </trkpt>
      <trkpt lat="45.80105" lon="5.88602">
        <ele>676.91</ele>
        <time>2012-08-07T10:36:55Z</time>
      </trkpt>
      <trkpt lat="45.80091" lon="5.88602">
        <ele>677.87</ele>
        <time>2012-08-07T10:36:56Z</time>
      </trkpt>
      <trkpt lat="45.80075" lon="5.88601">
        <ele>679.79</ele>
        <time>2012-08-07T10:36:57Z</time>
      </trkpt>
      <trkpt lat="45.80041" lon="5.88601">
        <ele>682.67</ele>
        <time>2012-08-07T10:36:59Z</time>
      </trkpt>
      <trkpt lat="45.80005" lon="5.88605">
        <ele>686.04</ele>
        <time>2012-08-07T10:37:01Z</time>
      </trkpt>
      <trkpt lat="45.7999" lon="5.88608">
        <ele>686.04</ele>
        <time>2012-08-07T10:37:02Z</time>
      </trkpt>
      <trkpt lat="45.79969" lon="5.88608">
        <ele>685.56</ele>
        <time>2012-08-07T10:37:04Z</time>
      </trkpt>
      <trkpt lat="45.79962" lon="5.88603">
        <ele>686.04</ele>
        <time>2012-08-07T10:37:05Z</time>
      </trkpt>
      <trkpt lat="45.79958" lon="5.88594">
        <ele>686.52</ele>
        <time>2012-08-07T10:37:06Z</time>
      </trkpt>
      <trkpt lat="45.79958" lon="5.88583">
        <ele>686.52</ele>
        <time>2012-08-07T10:37:07Z</time>
      </trkpt>
      <trkpt lat="45.79964" lon="5.88574">
        <ele>688.44</ele>
        <time>2012-08-07T10:37:08Z</time>
      </trkpt>
      <trkpt lat="45.79975" lon="5.88565">
        <ele>690.36</ele>
        <time>2012-08-07T10:37:09Z</time>
      </trkpt>
      <trkpt lat="45.79989" lon="5.88557">
        <ele>692.29</ele>
        <time>2012-08-07T10:37:10Z</time>
      </trkpt>
      <trkpt lat="45.80003" lon="5.88548">
        <ele>694.21</ele>
        <time>2012-08-07T10:37:11Z</time>
      </trkpt>
      <trkpt lat="45.80031" lon="5.88531">
        <ele>695.65</ele>
        <time>2012-08-07T10:37:13Z</time>
      </trkpt>
      <trkpt lat="45.80041" lon="5.88523">
        <ele>695.17</ele>
        <time>2012-08-07T10:37:14Z</time>
      </trkpt>
      <trkpt lat="45.80049" lon="5.88513">
        <ele>695.17</ele>
        <time>2012-08-07T10:37:15Z</time>
      </trkpt>
      <trkpt lat="45.80053" lon="5.88502">
        <ele>695.65</ele>
        <time>2012-08-07T10:37:16Z</time>
      </trkpt>
      <trkpt lat="45.80055" lon="5.88489">
        <ele>696.61</ele>
        <time>2012-08-07T10:37:17Z</time>
      </trkpt>
      <trkpt lat="45.80054" lon="5.88476">
        <ele>697.57</ele>
        <time>2012-08-07T10:37:18Z</time>
      </trkpt>
      <trkpt lat="45.80051" lon="5.88462">
        <ele>699.02</ele>
        <time>2012-08-07T10:37:19Z</time>
      </trkpt>
      <trkpt lat="45.80046" lon="5.88446">
        <ele>699.5</ele>
        <time>2012-08-07T10:37:20Z</time>
      </trkpt>
      <trkpt lat="45.80044" lon="5.88429">
        <ele>698.53</ele>
        <time>2012-08-07T10:37:21Z</time>
      </trkpt>
      <trkpt lat="45.80046" lon="5.88413">
        <ele>699.02</ele>
        <time>2012-08-07T10:37:22Z</time>
      </trkpt>
      <trkpt lat="45.80053" lon="5.884">
        <ele>699.98</ele>
        <time>2012-08-07T10:37:23Z</time>
      </trkpt>
      <trkpt lat="45.80061" lon="5.88389">
        <ele>699.5</ele>
        <time>2012-08-07T10:37:24Z</time>
      </trkpt>
      <trkpt lat="45.80068" lon="5.88379">
        <ele>699.5</ele>
        <time>2012-08-07T10:37:25Z</time>
      </trkpt>
      <trkpt lat="45.80072" lon="5.88369">
        <ele>699.5</ele>
        <time>2012-08-07T10:37:26Z</time>
      </trkpt>
      <trkpt lat="45.80074" lon="5.8836">
        <ele>699.5</ele>
        <time>2012-08-07T10:37:27Z</time>
      </trkpt>
      <trkpt lat="45.80071" lon="5.88352">
        <ele>700.46</ele>
        <time>2012-08-07T10:37:28Z</time>
      </trkpt>
      <trkpt lat="45.80064" lon="5.88345">
        <ele>700.94</ele>
        <time>2012-08-07T10:37:29Z</time>
      </trkpt>
      <trkpt lat="45.80055" lon="5.88341">
        <ele>702.38</ele>
        <time>2012-08-07T10:37:30Z</time>
      </trkpt>
      <trkpt lat="45.80044" lon="5.88342">
        <ele>702.86</ele>
        <time>2012-08-07T10:37:31Z</time>
      </trkpt>
      <trkpt lat="45.8003" lon="5.88343">
        <ele>703.82</ele>
        <time>2012-08-07T10:37:32Z</time>
      </trkpt>
      <trkpt lat="45.79985" lon="5.88344">
        <ele>707.67</ele>
        <time>2012-08-07T10:37:35Z</time>
      </trkpt>
      <trkpt lat="45.79973" lon="5.88342">
        <ele>707.67</ele>
        <time>2012-08-07T10:37:36Z</time>
      </trkpt>
      <trkpt lat="45.79936" lon="5.88326">
        <ele>709.11</ele>
        <time>2012-08-07T10:37:40Z</time>
      </trkpt>
      <trkpt lat="45.79877" lon="5.88283">
        <ele>709.11</ele>
        <time>2012-08-07T10:37:49Z</time>
      </trkpt>
      <trkpt lat="45.79874" lon="5.88278">
        <ele>709.59</ele>
        <time>2012-08-07T10:37:50Z</time>
      </trkpt>
      <trkpt lat="45.79872" lon="5.88272">
        <ele>710.07</ele>
        <time>2012-08-07T10:37:51Z</time>
      </trkpt>
      <trkpt lat="45.79872" lon="5.88265">
        <ele>710.07</ele>
        <time>2012-08-07T10:37:52Z</time>
      </trkpt>
      <trkpt lat="45.79873" lon="5.88256">
        <ele>711.51</ele>
        <time>2012-08-07T10:37:53Z</time>
      </trkpt>
      <trkpt lat="45.79875" lon="5.88247">
        <ele>711.99</ele>
        <time>2012-08-07T10:37:54Z</time>
      </trkpt>
      <trkpt lat="45.79878" lon="5.88238">
        <ele>713.44</ele>
        <time>2012-08-07T10:37:55Z</time>
      </trkpt>
      <trkpt lat="45.79881" lon="5.88227">
        <ele>713.92</ele>
        <time>2012-08-07T10:37:56Z</time>
      </trkpt>
      <trkpt lat="45.79886" lon="5.88206">
        <ele>715.36</ele>
        <time>2012-08-07T10:37:58Z</time>
      </trkpt>
      <trkpt lat="45.79887" lon="5.88196">
        <ele>716.32</ele>
        <time>2012-08-07T10:37:59Z</time>
      </trkpt>
      <trkpt lat="45.79884" lon="5.88187">
        <ele>716.8</ele>
        <time>2012-08-07T10:38:00Z</time>
      </trkpt>
      <trkpt lat="45.79879" lon="5.88179">
        <ele>718.24</ele>
        <time>2012-08-07T10:38:01Z</time>
      </trkpt>
      <trkpt lat="45.79873" lon="5.88171">
        <ele>719.2</ele>
        <time>2012-08-07T10:38:02Z</time>
      </trkpt>
      <trkpt lat="45.79851" lon="5.88138">
        <ele>722.57</ele>
        <time>2012-08-07T10:38:05Z</time>
      </trkpt>
      <trkpt lat="45.7984" lon="5.88115">
        <ele>723.53</ele>
        <time>2012-08-07T10:38:07Z</time>
      </trkpt>
      <trkpt lat="45.79839" lon="5.88103">
        <ele>724.01</ele>
        <time>2012-08-07T10:38:08Z</time>
      </trkpt>
      <trkpt lat="45.7984" lon="5.88089">
        <ele>724.97</ele>
        <time>2012-08-07T10:38:09Z</time>
      </trkpt>
      <trkpt lat="45.79845" lon="5.88047">
        <ele>727.86</ele>
        <time>2012-08-07T10:38:12Z</time>
      </trkpt>
      <trkpt lat="45.79844" lon="5.88035">
        <ele>727.37</ele>
        <time>2012-08-07T10:38:13Z</time>
      </trkpt>
      <trkpt lat="45.79841" lon="5.88025">
        <ele>728.34</ele>
        <time>2012-08-07T10:38:14Z</time>
      </trkpt>
      <trkpt lat="45.79837" lon="5.88016">
        <ele>729.3</ele>
        <time>2012-08-07T10:38:15Z</time>
      </trkpt>
      <trkpt lat="45.79833" lon="5.88005">
        <ele>729.78</ele>
        <time>2012-08-07T10:38:16Z</time>
      </trkpt>
      <trkpt lat="45.79816" lon="5.8797">
        <ele>733.14</ele>
        <time>2012-08-07T10:38:19Z</time>
      </trkpt>
      <trkpt lat="45.79795" lon="5.87937">
        <ele>735.07</ele>
        <time>2012-08-07T10:38:22Z</time>
      </trkpt>
      <trkpt lat="45.79791" lon="5.8793">
        <ele>734.1</ele>
        <time>2012-08-07T10:38:23Z</time>
      </trkpt>
      <trkpt lat="45.79791" lon="5.87923">
        <ele>734.1</ele>
        <time>2012-08-07T10:38:24Z</time>
      </trkpt>
      <trkpt lat="45.79793" lon="5.87919">
        <ele>734.58</ele>
        <time>2012-08-07T10:38:25Z</time>
      </trkpt>
      <trkpt lat="45.79797" lon="5.87918">
        <ele>735.07</ele>
        <time>2012-08-07T10:38:26Z</time>
      </trkpt>
      <trkpt lat="45.798" lon="5.87921">
        <ele>736.03</ele>
        <time>2012-08-07T10:38:27Z</time>
      </trkpt>
      <trkpt lat="45.79804" lon="5.87928">
        <ele>736.51</ele>
        <time>2012-08-07T10:38:28Z</time>
      </trkpt>
      <trkpt lat="45.79811" lon="5.87934">
        <ele>737.95</ele>
        <time>2012-08-07T10:38:29Z</time>
      </trkpt>
      <trkpt lat="45.79821" lon="5.87937">
        <ele>738.91</ele>
        <time>2012-08-07T10:38:30Z</time>
      </trkpt>
      <trkpt lat="45.79832" lon="5.87938">
        <ele>740.83</ele>
        <time>2012-08-07T10:38:31Z</time>
      </trkpt>
      <trkpt lat="45.79844" lon="5.87936">
        <ele>742.28</ele>
        <time>2012-08-07T10:38:32Z</time>
      </trkpt>
      <trkpt lat="45.79857" lon="5.87933">
        <ele>743.72</ele>
        <time>2012-08-07T10:38:33Z</time>
      </trkpt>
      <trkpt lat="45.79869" lon="5.87927">
        <ele>745.16</ele>
        <time>2012-08-07T10:38:34Z</time>
      </trkpt>
      <trkpt lat="45.79881" lon="5.87921">
        <ele>745.64</ele>
        <time>2012-08-07T10:38:35Z</time>
      </trkpt>
      <trkpt lat="45.79892" lon="5.87917">
        <ele>747.08</ele>
        <time>2012-08-07T10:38:36Z</time>
      </trkpt>
      <trkpt lat="45.79902" lon="5.87916">
        <ele>748.04</ele>
        <time>2012-08-07T10:38:37Z</time>
      </trkpt>
      <trkpt lat="45.79911" lon="5.87919">
        <ele>748.52</ele>
        <time>2012-08-07T10:38:38Z</time>
      </trkpt>
      <trkpt lat="45.79918" lon="5.87923">
        <ele>749.49</ele>
        <time>2012-08-07T10:38:39Z</time>
      </trkpt>
      <trkpt lat="45.79923" lon="5.87923">
        <ele>750.45</ele>
        <time>2012-08-07T10:38:40Z</time>
      </trkpt>
      <trkpt lat="45.79926" lon="5.87919">
        <ele>749.97</ele>
        <time>2012-08-07T10:38:41Z</time>
      </trkpt>
      <trkpt lat="45.79927" lon="5.87913">
        <ele>750.45</ele>
        <time>2012-08-07T10:38:42Z</time>
      </trkpt>
      <trkpt lat="45.79923" lon="5.87906">
        <ele>751.89</ele>
        <time>2012-08-07T10:38:43Z</time>
      </trkpt>
      <trkpt lat="45.79916" lon="5.87899">
        <ele>752.85</ele>
        <time>2012-08-07T10:38:44Z</time>
      </trkpt>
      <trkpt lat="45.79907" lon="5.87892">
        <ele>754.29</ele>
        <time>2012-08-07T10:38:45Z</time>
      </trkpt>
      <trkpt lat="45.79897" lon="5.87885">
        <ele>755.73</ele>
        <time>2012-08-07T10:38:46Z</time>
      </trkpt>
      <trkpt lat="45.79882" lon="5.87874">
        <ele>756.69</ele>
        <time>2012-08-07T10:38:48Z</time>
      </trkpt>
      <trkpt lat="45.79878" lon="5.87868">
        <ele>756.69</ele>
        <time>2012-08-07T10:38:49Z</time>
      </trkpt>
      <trkpt lat="45.79878" lon="5.87861">
        <ele>757.66</ele>
        <time>2012-08-07T10:38:50Z</time>
      </trkpt>
      <trkpt lat="45.79881" lon="5.87856">
        <ele>758.62</ele>
        <time>2012-08-07T10:38:51Z</time>
      </trkpt>
      <trkpt lat="45.79886" lon="5.87855">
        <ele>759.58</ele>
        <time>2012-08-07T10:38:52Z</time>
      </trkpt>
      <trkpt lat="45.79894" lon="5.87856">
        <ele>761.5</ele>
        <time>2012-08-07T10:38:53Z</time>
      </trkpt>
      <trkpt lat="45.79904" lon="5.87858">
        <ele>762.94</ele>
        <time>2012-08-07T10:38:54Z</time>
      </trkpt>
      <trkpt lat="45.79928" lon="5.87864">
        <ele>764.87</ele>
        <time>2012-08-07T10:38:56Z</time>
      </trkpt>
      <trkpt lat="45.79947" lon="5.87867">
        <ele>765.83</ele>
        <time>2012-08-07T10:38:58Z</time>
      </trkpt>
      <trkpt lat="45.79953" lon="5.87866">
        <ele>766.31</ele>
        <time>2012-08-07T10:38:59Z</time>
      </trkpt>
      <trkpt lat="45.79957" lon="5.87861">
        <ele>767.27</ele>
        <time>2012-08-07T10:39:00Z</time>
      </trkpt>
      <trkpt lat="45.79958" lon="5.87855">
        <ele>767.75</ele>
        <time>2012-08-07T10:39:01Z</time>
      </trkpt>
      <trkpt lat="45.79955" lon="5.87849">
        <ele>769.19</ele>
        <time>2012-08-07T10:39:02Z</time>
      </trkpt>
      <trkpt lat="45.7995" lon="5.87843">
        <ele>771.11</ele>
        <time>2012-08-07T10:39:03Z</time>
      </trkpt>
      <trkpt lat="45.79942" lon="5.87835">
        <ele>772.08</ele>
        <time>2012-08-07T10:39:04Z</time>
      </trkpt>
      <trkpt lat="45.79931" lon="5.87822">
        <ele>774</ele>
        <time>2012-08-07T10:39:05Z</time>
      </trkpt>
      <trkpt lat="45.79921" lon="5.87807">
        <ele>776.88</ele>
        <time>2012-08-07T10:39:06Z</time>
      </trkpt>
      <trkpt lat="45.79911" lon="5.87789">
        <ele>778.81</ele>
        <time>2012-08-07T10:39:07Z</time>
      </trkpt>
      <trkpt lat="45.7989" lon="5.87755">
        <ele>782.65</ele>
        <time>2012-08-07T10:39:09Z</time>
      </trkpt>
      <trkpt lat="45.79878" lon="5.8774">
        <ele>782.65</ele>
        <time>2012-08-07T10:39:10Z</time>
      </trkpt>
      <trkpt lat="45.79861" lon="5.8772">
        <ele>784.09</ele>
        <time>2012-08-07T10:39:12Z</time>
      </trkpt>
      <trkpt lat="45.79855" lon="5.8771">
        <ele>784.09</ele>
        <time>2012-08-07T10:39:13Z</time>
      </trkpt>
      <trkpt lat="45.79851" lon="5.877">
        <ele>785.05</ele>
        <time>2012-08-07T10:39:14Z</time>
      </trkpt>
      <trkpt lat="45.79845" lon="5.87677">
        <ele>786.98</ele>
        <time>2012-08-07T10:39:16Z</time>
      </trkpt>
      <trkpt lat="45.79838" lon="5.87669">
        <ele>787.94</ele>
        <time>2012-08-07T10:39:17Z</time>
      </trkpt>
      <trkpt lat="45.79823" lon="5.87654">
        <ele>788.42</ele>
        <time>2012-08-07T10:39:19Z</time>
      </trkpt>
      <trkpt lat="45.79817" lon="5.87646">
        <ele>787.94</ele>
        <time>2012-08-07T10:39:20Z</time>
      </trkpt>
      <trkpt lat="45.79813" lon="5.87637">
        <ele>788.9</ele>
        <time>2012-08-07T10:39:21Z</time>
      </trkpt>
      <trkpt lat="45.7981" lon="5.87626">
        <ele>788.42</ele>
        <time>2012-08-07T10:39:22Z</time>
      </trkpt>
      <trkpt lat="45.79809" lon="5.87613">
        <ele>788.9</ele>
        <time>2012-08-07T10:39:23Z</time>
      </trkpt>
      <trkpt lat="45.79809" lon="5.87597">
        <ele>789.38</ele>
        <time>2012-08-07T10:39:24Z</time>
      </trkpt>
      <trkpt lat="45.7981" lon="5.8758">
        <ele>791.3</ele>
        <time>2012-08-07T10:39:25Z</time>
      </trkpt>
      <trkpt lat="45.79814" lon="5.87562">
        <ele>791.3</ele>
        <time>2012-08-07T10:39:26Z</time>
      </trkpt>
      <trkpt lat="45.7982" lon="5.87546">
        <ele>791.78</ele>
        <time>2012-08-07T10:39:27Z</time>
      </trkpt>
      <trkpt lat="45.79826" lon="5.87516">
        <ele>793.22</ele>
        <time>2012-08-07T10:39:29Z</time>
      </trkpt>
      <trkpt lat="45.79825" lon="5.87502">
        <ele>794.67</ele>
        <time>2012-08-07T10:39:30Z</time>
      </trkpt>
      <trkpt lat="45.79823" lon="5.87489">
        <ele>794.67</ele>
        <time>2012-08-07T10:39:31Z</time>
      </trkpt>
      <trkpt lat="45.79823" lon="5.87476">
        <ele>795.15</ele>
        <time>2012-08-07T10:39:32Z</time>
      </trkpt>
      <trkpt lat="45.79828" lon="5.87464">
        <ele>796.11</ele>
        <time>2012-08-07T10:39:33Z</time>
      </trkpt>
      <trkpt lat="45.79835" lon="5.87453">
        <ele>797.55</ele>
        <time>2012-08-07T10:39:34Z</time>
      </trkpt>
      <trkpt lat="45.79844" lon="5.87441">
        <ele>800.44</ele>
        <time>2012-08-07T10:39:35Z</time>
      </trkpt>
      <trkpt lat="45.79853" lon="5.87427">
        <ele>801.88</ele>
        <time>2012-08-07T10:39:36Z</time>
      </trkpt>
      <trkpt lat="45.79873" lon="5.87402">
        <ele>803.8</ele>
        <time>2012-08-07T10:39:38Z</time>
      </trkpt>
      <trkpt lat="45.79884" lon="5.87393">
        <ele>805.24</ele>
        <time>2012-08-07T10:39:39Z</time>
      </trkpt>
      <trkpt lat="45.799" lon="5.87382">
        <ele>805.72</ele>
        <time>2012-08-07T10:39:41Z</time>
      </trkpt>
      <trkpt lat="45.79906" lon="5.87375">
        <ele>806.68</ele>
        <time>2012-08-07T10:39:42Z</time>
      </trkpt>
      <trkpt lat="45.79923" lon="5.87344">
        <ele>808.61</ele>
        <time>2012-08-07T10:39:45Z</time>
      </trkpt>
      <trkpt lat="45.79934" lon="5.87317">
        <ele>808.61</ele>
        <time>2012-08-07T10:39:47Z</time>
      </trkpt>
      <trkpt lat="45.79963" lon="5.87278">
        <ele>810.53</ele>
        <time>2012-08-07T10:39:50Z</time>
      </trkpt>
      <trkpt lat="45.8004" lon="5.87167">
        <ele>809.57</ele>
        <time>2012-08-07T10:39:56Z</time>
      </trkpt>
      <trkpt lat="45.80125" lon="5.87071">
        <ele>811.49</ele>
        <time>2012-08-07T10:40:02Z</time>
      </trkpt>
      <trkpt lat="45.80169" lon="5.87037">
        <ele>815.34</ele>
        <time>2012-08-07T10:40:05Z</time>
      </trkpt>
      <trkpt lat="45.80198" lon="5.87016">
        <ele>816.78</ele>
        <time>2012-08-07T10:40:07Z</time>
      </trkpt>
      <trkpt lat="45.8021" lon="5.87004">
        <ele>817.26</ele>
        <time>2012-08-07T10:40:08Z</time>
      </trkpt>
      <trkpt lat="45.8022" lon="5.86989">
        <ele>818.22</ele>
        <time>2012-08-07T10:40:09Z</time>
      </trkpt>
      <trkpt lat="45.80227" lon="5.86969">
        <ele>819.66</ele>
        <time>2012-08-07T10:40:10Z</time>
      </trkpt>
      <trkpt lat="45.80233" lon="5.86948">
        <ele>821.1</ele>
        <time>2012-08-07T10:40:11Z</time>
      </trkpt>
      <trkpt lat="45.80239" lon="5.86931">
        <ele>821.1</ele>
        <time>2012-08-07T10:40:12Z</time>
      </trkpt>
      <trkpt lat="45.80246" lon="5.86917">
        <ele>821.1</ele>
        <time>2012-08-07T10:40:13Z</time>
      </trkpt>
      <trkpt lat="45.80255" lon="5.86907">
        <ele>823.03</ele>
        <time>2012-08-07T10:40:14Z</time>
      </trkpt>
      <trkpt lat="45.80267" lon="5.86899">
        <ele>824.95</ele>
        <time>2012-08-07T10:40:15Z</time>
      </trkpt>
      <trkpt lat="45.80279" lon="5.86891">
        <ele>826.87</ele>
        <time>2012-08-07T10:40:16Z</time>
      </trkpt>
      <trkpt lat="45.80293" lon="5.86883">
        <ele>828.79</ele>
        <time>2012-08-07T10:40:17Z</time>
      </trkpt>
      <trkpt lat="45.80324" lon="5.86867">
        <ele>832.16</ele>
        <time>2012-08-07T10:40:19Z</time>
      </trkpt>
      <trkpt lat="45.80355" lon="5.86851">
        <ele>835.52</ele>
        <time>2012-08-07T10:40:21Z</time>
      </trkpt>
      <trkpt lat="45.80388" lon="5.86837">
        <ele>838.89</ele>
        <time>2012-08-07T10:40:23Z</time>
      </trkpt>
      <trkpt lat="45.80424" lon="5.86826">
        <ele>842.25</ele>
        <time>2012-08-07T10:40:25Z</time>
      </trkpt>
      <trkpt lat="45.80469" lon="5.86816">
        <ele>844.18</ele>
        <time>2012-08-07T10:40:28Z</time>
      </trkpt>
      <trkpt lat="45.8048" lon="5.86814">
        <ele>844.18</ele>
        <time>2012-08-07T10:40:29Z</time>
      </trkpt>
      <trkpt lat="45.8049" lon="5.86815">
        <ele>845.62</ele>
        <time>2012-08-07T10:40:30Z</time>
      </trkpt>
      <trkpt lat="45.805" lon="5.86822">
        <ele>847.06</ele>
        <time>2012-08-07T10:40:31Z</time>
      </trkpt>
      <trkpt lat="45.8051" lon="5.86831">
        <ele>847.54</ele>
        <time>2012-08-07T10:40:32Z</time>
      </trkpt>
      <trkpt lat="45.80517" lon="5.86836">
        <ele>847.06</ele>
        <time>2012-08-07T10:40:33Z</time>
      </trkpt>
      <trkpt lat="45.80525" lon="5.86837">
        <ele>847.54</ele>
        <time>2012-08-07T10:40:34Z</time>
      </trkpt>
      <trkpt lat="45.80533" lon="5.86833">
        <ele>848.02</ele>
        <time>2012-08-07T10:40:35Z</time>
      </trkpt>
      <trkpt lat="45.80538" lon="5.86826">
        <ele>848.98</ele>
        <time>2012-08-07T10:40:36Z</time>
      </trkpt>
      <trkpt lat="45.80541" lon="5.86816">
        <ele>848.98</ele>
        <time>2012-08-07T10:40:37Z</time>
      </trkpt>
      <trkpt lat="45.8054" lon="5.86808">
        <ele>850.42</ele>
        <time>2012-08-07T10:40:38Z</time>
      </trkpt>
      <trkpt lat="45.80538" lon="5.868">
        <ele>851.87</ele>
        <time>2012-08-07T10:40:39Z</time>
      </trkpt>
      <trkpt lat="45.80534" lon="5.86794">
        <ele>852.83</ele>
        <time>2012-08-07T10:40:40Z</time>
      </trkpt>
      <trkpt lat="45.80527" lon="5.86787">
        <ele>853.31</ele>
        <time>2012-08-07T10:40:41Z</time>
      </trkpt>
      <trkpt lat="45.80522" lon="5.86778">
        <ele>852.35</ele>
        <time>2012-08-07T10:40:42Z</time>
      </trkpt>
      <trkpt lat="45.80517" lon="5.86766">
        <ele>853.31</ele>
        <time>2012-08-07T10:40:43Z</time>
      </trkpt>
      <trkpt lat="45.80524" lon="5.86746">
        <ele>856.67</ele>
        <time>2012-08-07T10:40:46Z</time>
      </trkpt>
      <trkpt lat="45.80528" lon="5.86747">
        <ele>858.59</ele>
        <time>2012-08-07T10:40:47Z</time>
      </trkpt>
      <trkpt lat="45.80532" lon="5.8675">
        <ele>860.04</ele>
        <time>2012-08-07T10:40:48Z</time>
      </trkpt>
      <trkpt lat="45.80543" lon="5.8676">
        <ele>862.44</ele>
        <time>2012-08-07T10:40:50Z</time>
      </trkpt>
      <trkpt lat="45.80549" lon="5.86763">
        <ele>862.92</ele>
        <time>2012-08-07T10:40:51Z</time>
      </trkpt>
      <trkpt lat="45.80569" lon="5.8677">
        <ele>864.84</ele>
        <time>2012-08-07T10:40:53Z</time>
      </trkpt>
      <trkpt lat="45.80579" lon="5.8678">
        <ele>866.29</ele>
        <time>2012-08-07T10:40:54Z</time>
      </trkpt>
      <trkpt lat="45.80586" lon="5.8679">
        <ele>867.73</ele>
        <time>2012-08-07T10:40:55Z</time>
      </trkpt>
      <trkpt lat="45.80591" lon="5.86804">
        <ele>869.65</ele>
        <time>2012-08-07T10:40:56Z</time>
      </trkpt>
      <trkpt lat="45.80594" lon="5.86819">
        <ele>871.09</ele>
        <time>2012-08-07T10:40:57Z</time>
      </trkpt>
      <trkpt lat="45.80594" lon="5.86836">
        <ele>873.98</ele>
        <time>2012-08-07T10:40:58Z</time>
      </trkpt>
      <trkpt lat="45.80593" lon="5.86856">
        <ele>873.5</ele>
        <time>2012-08-07T10:40:59Z</time>
      </trkpt>
      <trkpt lat="45.80591" lon="5.86873">
        <ele>873.98</ele>
        <time>2012-08-07T10:41:00Z</time>
      </trkpt>
      <trkpt lat="45.8059" lon="5.86884">
        <ele>874.46</ele>
        <time>2012-08-07T10:41:01Z</time>
      </trkpt>
      <trkpt lat="45.8059" lon="5.86895">
        <ele>874.94</ele>
        <time>2012-08-07T10:41:02Z</time>
      </trkpt>
      <trkpt lat="45.8059" lon="5.86904">
        <ele>875.42</ele>
        <time>2012-08-07T10:41:03Z</time>
      </trkpt>
      <trkpt lat="45.80591" lon="5.86912">
        <ele>875.9</ele>
        <time>2012-08-07T10:41:04Z</time>
      </trkpt>
      <trkpt lat="45.80594" lon="5.86915">
        <ele>876.86</ele>
        <time>2012-08-07T10:41:05Z</time>
      </trkpt>
      <trkpt lat="45.80598" lon="5.86915">
        <ele>877.82</ele>
        <time>2012-08-07T10:41:06Z</time>
      </trkpt>
      <trkpt lat="45.80604" lon="5.86905">
        <ele>881.19</ele>
        <time>2012-08-07T10:41:08Z</time>
      </trkpt>
      <trkpt lat="45.80606" lon="5.869">
        <ele>882.63</ele>
        <time>2012-08-07T10:41:09Z</time>
      </trkpt>
      <trkpt lat="45.80625" lon="5.86872">
        <ele>886.47</ele>
        <time>2012-08-07T10:41:12Z</time>
      </trkpt>
      <trkpt lat="45.80643" lon="5.86838">
        <ele>890.32</ele>
        <time>2012-08-07T10:41:14Z</time>
      </trkpt>
      <trkpt lat="45.80655" lon="5.86802">
        <ele>890.8</ele>
        <time>2012-08-07T10:41:15Z</time>
      </trkpt>
      <trkpt lat="45.80671" lon="5.8675">
        <ele>889.36</ele>
        <time>2012-08-07T10:41:17Z</time>
      </trkpt>
      <trkpt lat="45.80678" lon="5.86723">
        <ele>888.88</ele>
        <time>2012-08-07T10:41:18Z</time>
      </trkpt>
      <trkpt lat="45.80685" lon="5.86706">
        <ele>889.36</ele>
        <time>2012-08-07T10:41:19Z</time>
      </trkpt>
      <trkpt lat="45.80693" lon="5.86694">
        <ele>891.28</ele>
        <time>2012-08-07T10:41:20Z</time>
      </trkpt>
      <trkpt lat="45.80701" lon="5.86688">
        <ele>892.72</ele>
        <time>2012-08-07T10:41:21Z</time>
      </trkpt>
      <trkpt lat="45.8071" lon="5.86681">
        <ele>893.2</ele>
        <time>2012-08-07T10:41:22Z</time>
      </trkpt>
      <trkpt lat="45.80722" lon="5.86675">
        <ele>896.09</ele>
        <time>2012-08-07T10:41:23Z</time>
      </trkpt>
      <trkpt lat="45.80736" lon="5.86671">
        <ele>898.01</ele>
        <time>2012-08-07T10:41:24Z</time>
      </trkpt>
      <trkpt lat="45.8075" lon="5.86668">
        <ele>899.45</ele>
        <time>2012-08-07T10:41:25Z</time>
      </trkpt>
      <trkpt lat="45.80766" lon="5.86663">
        <ele>899.93</ele>
        <time>2012-08-07T10:41:26Z</time>
      </trkpt>
      <trkpt lat="45.80781" lon="5.86658">
        <ele>899.93</ele>
        <time>2012-08-07T10:41:27Z</time>
      </trkpt>
      <trkpt lat="45.80795" lon="5.8665">
        <ele>901.37</ele>
        <time>2012-08-07T10:41:28Z</time>
      </trkpt>
      <trkpt lat="45.80806" lon="5.86642">
        <ele>903.3</ele>
        <time>2012-08-07T10:41:29Z</time>
      </trkpt>
      <trkpt lat="45.80813" lon="5.86636">
        <ele>904.26</ele>
        <time>2012-08-07T10:41:30Z</time>
      </trkpt>
      <trkpt lat="45.80839" lon="5.86615">
        <ele>904.26</ele>
        <time>2012-08-07T10:41:31Z</time>
      </trkpt>
      <trkpt lat="45.80896" lon="5.86581">
        <ele>907.62</ele>
        <time>2012-08-07T10:41:34Z</time>
      </trkpt>
      <trkpt lat="45.80922" lon="5.86577">
        <ele>910.03</ele>
        <time>2012-08-07T10:41:35Z</time>
      </trkpt>
      <trkpt lat="45.80943" lon="5.86569">
        <ele>910.03</ele>
        <time>2012-08-07T10:41:36Z</time>
      </trkpt>
      <trkpt lat="45.80975" lon="5.86557">
        <ele>910.51</ele>
        <time>2012-08-07T10:41:38Z</time>
      </trkpt>
      <trkpt lat="45.81006" lon="5.86548">
        <ele>910.51</ele>
        <time>2012-08-07T10:41:40Z</time>
      </trkpt>
      <trkpt lat="45.8102" lon="5.8654">
        <ele>910.51</ele>
        <time>2012-08-07T10:41:41Z</time>
      </trkpt>
      <trkpt lat="45.81032" lon="5.86532">
        <ele>909.54</ele>
        <time>2012-08-07T10:41:42Z</time>
      </trkpt>
      <trkpt lat="45.81045" lon="5.86527">
        <ele>908.58</ele>
        <time>2012-08-07T10:41:43Z</time>
      </trkpt>
      <trkpt lat="45.81059" lon="5.86527">
        <ele>909.54</ele>
        <time>2012-08-07T10:41:44Z</time>
      </trkpt>
      <trkpt lat="45.81075" lon="5.86528">
        <ele>909.54</ele>
        <time>2012-08-07T10:41:45Z</time>
      </trkpt>
      <trkpt lat="45.81092" lon="5.86532">
        <ele>910.03</ele>
        <time>2012-08-07T10:41:46Z</time>
      </trkpt>
      <trkpt lat="45.81144" lon="5.86537">
        <ele>910.99</ele>
        <time>2012-08-07T10:41:49Z</time>
      </trkpt>
      <trkpt lat="45.8129" lon="5.86539">
        <ele>909.54</ele>
        <time>2012-08-07T10:41:56Z</time>
      </trkpt>
      <trkpt lat="45.81307" lon="5.86543">
        <ele>908.1</ele>
        <time>2012-08-07T10:41:57Z</time>
      </trkpt>
      <trkpt lat="45.81323" lon="5.8655">
        <ele>907.62</ele>
        <time>2012-08-07T10:41:58Z</time>
      </trkpt>
      <trkpt lat="45.81338" lon="5.86561">
        <ele>907.14</ele>
        <time>2012-08-07T10:41:59Z</time>
      </trkpt>
      <trkpt lat="45.81351" lon="5.86572">
        <ele>906.18</ele>
        <time>2012-08-07T10:42:00Z</time>
      </trkpt>
      <trkpt lat="45.81362" lon="5.86583">
        <ele>905.7</ele>
        <time>2012-08-07T10:42:01Z</time>
      </trkpt>
      <trkpt lat="45.81371" lon="5.86592">
        <ele>904.26</ele>
        <time>2012-08-07T10:42:02Z</time>
      </trkpt>
      <trkpt lat="45.81382" lon="5.86598">
        <ele>904.26</ele>
        <time>2012-08-07T10:42:03Z</time>
      </trkpt>
      <trkpt lat="45.81392" lon="5.86601">
        <ele>904.74</ele>
        <time>2012-08-07T10:42:04Z</time>
      </trkpt>
      <trkpt lat="45.81404" lon="5.866">
        <ele>903.78</ele>
        <time>2012-08-07T10:42:05Z</time>
      </trkpt>
      <trkpt lat="45.81414" lon="5.86597">
        <ele>904.26</ele>
        <time>2012-08-07T10:42:06Z</time>
      </trkpt>
      <trkpt lat="45.81424" lon="5.86592">
        <ele>903.78</ele>
        <time>2012-08-07T10:42:07Z</time>
      </trkpt>
      <trkpt lat="45.81434" lon="5.86581">
        <ele>904.26</ele>
        <time>2012-08-07T10:42:08Z</time>
      </trkpt>
      <trkpt lat="45.81446" lon="5.86563">
        <ele>904.26</ele>
        <time>2012-08-07T10:42:09Z</time>
      </trkpt>
      <trkpt lat="45.81462" lon="5.86548">
        <ele>903.3</ele>
        <time>2012-08-07T10:42:10Z</time>
      </trkpt>
      <trkpt lat="45.81477" lon="5.86536">
        <ele>900.89</ele>
        <time>2012-08-07T10:42:11Z</time>
      </trkpt>
      <trkpt lat="45.81491" lon="5.86529">
        <ele>899.93</ele>
        <time>2012-08-07T10:42:12Z</time>
      </trkpt>
      <trkpt lat="45.81506" lon="5.86528">
        <ele>899.93</ele>
        <time>2012-08-07T10:42:13Z</time>
      </trkpt>
      <trkpt lat="45.81524" lon="5.8653">
        <ele>900.89</ele>
        <time>2012-08-07T10:42:14Z</time>
      </trkpt>
      <trkpt lat="45.81543" lon="5.86533">
        <ele>900.41</ele>
        <time>2012-08-07T10:42:15Z</time>
      </trkpt>
      <trkpt lat="45.81697" lon="5.86568">
        <ele>900.89</ele>
        <time>2012-08-07T10:42:22Z</time>
      </trkpt>
      <trkpt lat="45.81889" lon="5.86648">
        <ele>898.97</ele>
        <time>2012-08-07T10:42:30Z</time>
      </trkpt>
      <trkpt lat="45.81975" lon="5.86684">
        <ele>896.09</ele>
        <time>2012-08-07T10:42:34Z</time>
      </trkpt>
      <trkpt lat="45.82124" lon="5.86769">
        <ele>892.72</ele>
        <time>2012-08-07T10:42:42Z</time>
      </trkpt>
      <trkpt lat="45.8214" lon="5.86779">
        <ele>892.24</ele>
        <time>2012-08-07T10:42:43Z</time>
      </trkpt>
      <trkpt lat="45.82199" lon="5.8682">
        <ele>888.88</ele>
        <time>2012-08-07T10:42:48Z</time>
      </trkpt>
      <trkpt lat="45.82208" lon="5.86826">
        <ele>887.91</ele>
        <time>2012-08-07T10:42:50Z</time>
      </trkpt>
      <trkpt lat="45.82214" lon="5.86828">
        <ele>888.88</ele>
        <time>2012-08-07T10:42:54Z</time>
      </trkpt>
      <trkpt lat="45.82205" lon="5.86822">
        <ele>888.88</ele>
        <time>2012-08-07T10:42:56Z</time>
      </trkpt>
      <trkpt lat="45.82201" lon="5.86819">
        <ele>888.88</ele>
        <time>2012-08-07T10:42:57Z</time>
      </trkpt>
      <trkpt lat="45.82195" lon="5.86816">
        <ele>888.88</ele>
        <time>2012-08-07T10:42:58Z</time>
      </trkpt>
      <trkpt lat="45.82177" lon="5.86803">
        <ele>887.91</ele>
        <time>2012-08-07T10:43:02Z</time>
      </trkpt>
      <trkpt lat="45.82175" lon="5.868">
        <ele>887.91</ele>
        <time>2012-08-07T10:43:03Z</time>
      </trkpt>
      <trkpt lat="45.82173" lon="5.86796">
        <ele>887.43</ele>
        <time>2012-08-07T10:43:12Z</time>
      </trkpt>
      <trkpt lat="45.82172" lon="5.86796">
        <ele>887.91</ele>
        <time>2012-08-07T10:43:13Z</time>
      </trkpt>
      <trkpt lat="45.8217" lon="5.86796">
        <ele>887.91</ele>
        <time>2012-08-07T10:43:17Z</time>
      </trkpt>
      <trkpt lat="45.82171" lon="5.86797">
        <ele>887.43</ele>
        <time>2012-08-07T10:43:21Z</time>
      </trkpt>
      <trkpt lat="45.82173" lon="5.86798">
        <ele>888.4</ele>
        <time>2012-08-07T10:43:22Z</time>
      </trkpt>
      <trkpt lat="45.82216" lon="5.86824">
        <ele>891.76</ele>
        <time>2012-08-07T10:43:27Z</time>
      </trkpt>
      <trkpt lat="45.82277" lon="5.86851">
        <ele>894.64</ele>
        <time>2012-08-07T10:43:31Z</time>
      </trkpt>
      <trkpt lat="45.82438" lon="5.86919">
        <ele>894.16</ele>
        <time>2012-08-07T10:43:41Z</time>
      </trkpt>
      <trkpt lat="45.82459" lon="5.86923">
        <ele>893.68</ele>
        <time>2012-08-07T10:43:43Z</time>
      </trkpt>
      <trkpt lat="45.82469" lon="5.86923">
        <ele>892.72</ele>
        <time>2012-08-07T10:43:44Z</time>
      </trkpt>
      <trkpt lat="45.82479" lon="5.86921">
        <ele>893.2</ele>
        <time>2012-08-07T10:43:45Z</time>
      </trkpt>
      <trkpt lat="45.82498" lon="5.86913">
        <ele>893.2</ele>
        <time>2012-08-07T10:43:47Z</time>
      </trkpt>
      <trkpt lat="45.82536" lon="5.86879">
        <ele>891.28</ele>
        <time>2012-08-07T10:43:54Z</time>
      </trkpt>
      <trkpt lat="45.82539" lon="5.86873">
        <ele>890.8</ele>
        <time>2012-08-07T10:44:17Z</time>
      </trkpt>
      <trkpt lat="45.8254" lon="5.86871">
        <ele>890.8</ele>
        <time>2012-08-07T10:44:48Z</time>
      </trkpt>
      <trkpt lat="45.82554" lon="5.86843">
        <ele>890.32</ele>
        <time>2012-08-07T10:44:52Z</time>
      </trkpt>
      <trkpt lat="45.82559" lon="5.86835">
        <ele>890.32</ele>
        <time>2012-08-07T10:44:53Z</time>
      </trkpt>
      <trkpt lat="45.82565" lon="5.86832">
        <ele>888.88</ele>
        <time>2012-08-07T10:44:54Z</time>
      </trkpt>
      <trkpt lat="45.82572" lon="5.86832">
        <ele>889.36</ele>
        <time>2012-08-07T10:44:55Z</time>
      </trkpt>
      <trkpt lat="45.82579" lon="5.86834">
        <ele>889.36</ele>
        <time>2012-08-07T10:44:56Z</time>
      </trkpt>
      <trkpt lat="45.82586" lon="5.86837">
        <ele>889.36</ele>
        <time>2012-08-07T10:44:57Z</time>
      </trkpt>
      <trkpt lat="45.82606" lon="5.86843">
        <ele>889.36</ele>
        <time>2012-08-07T10:44:59Z</time>
      </trkpt>
      <trkpt lat="45.82619" lon="5.86844">
        <ele>889.84</ele>
        <time>2012-08-07T10:45:00Z</time>
      </trkpt>
      <trkpt lat="45.82656" lon="5.8684">
        <ele>887.91</ele>
        <time>2012-08-07T10:45:03Z</time>
      </trkpt>
      <trkpt lat="45.82669" lon="5.86836">
        <ele>885.99</ele>
        <time>2012-08-07T10:45:04Z</time>
      </trkpt>
      <trkpt lat="45.82716" lon="5.86826">
        <ele>883.11</ele>
        <time>2012-08-07T10:45:08Z</time>
      </trkpt>
      <trkpt lat="45.82727" lon="5.86819">
        <ele>881.67</ele>
        <time>2012-08-07T10:45:09Z</time>
      </trkpt>
      <trkpt lat="45.82739" lon="5.86808">
        <ele>880.71</ele>
        <time>2012-08-07T10:45:10Z</time>
      </trkpt>
      <trkpt lat="45.82749" lon="5.86791">
        <ele>880.22</ele>
        <time>2012-08-07T10:45:11Z</time>
      </trkpt>
      <trkpt lat="45.82764" lon="5.86756">
        <ele>878.3</ele>
        <time>2012-08-07T10:45:13Z</time>
      </trkpt>
      <trkpt lat="45.82771" lon="5.86736">
        <ele>877.82</ele>
        <time>2012-08-07T10:45:14Z</time>
      </trkpt>
      <trkpt lat="45.82779" lon="5.86706">
        <ele>873.98</ele>
        <time>2012-08-07T10:45:16Z</time>
      </trkpt>
      <trkpt lat="45.82784" lon="5.86695">
        <ele>873.01</ele>
        <time>2012-08-07T10:45:17Z</time>
      </trkpt>
      <trkpt lat="45.8279" lon="5.86686">
        <ele>872.05</ele>
        <time>2012-08-07T10:45:18Z</time>
      </trkpt>
      <trkpt lat="45.82826" lon="5.86658">
        <ele>871.57</ele>
        <time>2012-08-07T10:45:22Z</time>
      </trkpt>
      <trkpt lat="45.82843" lon="5.86655">
        <ele>871.09</ele>
        <time>2012-08-07T10:45:23Z</time>
      </trkpt>
      <trkpt lat="45.82876" lon="5.86653">
        <ele>867.25</ele>
        <time>2012-08-07T10:45:25Z</time>
      </trkpt>
      <trkpt lat="45.82908" lon="5.86652">
        <ele>865.32</ele>
        <time>2012-08-07T10:45:27Z</time>
      </trkpt>
      <trkpt lat="45.82921" lon="5.86645">
        <ele>863.4</ele>
        <time>2012-08-07T10:45:28Z</time>
      </trkpt>
      <trkpt lat="45.8293" lon="5.86637">
        <ele>861.96</ele>
        <time>2012-08-07T10:45:29Z</time>
      </trkpt>
      <trkpt lat="45.82937" lon="5.8663">
        <ele>861</ele>
        <time>2012-08-07T10:45:30Z</time>
      </trkpt>
      <trkpt lat="45.82944" lon="5.86625">
        <ele>860.52</ele>
        <time>2012-08-07T10:45:31Z</time>
      </trkpt>
      <trkpt lat="45.82954" lon="5.86621">
        <ele>859.56</ele>
        <time>2012-08-07T10:45:32Z</time>
      </trkpt>
      <trkpt lat="45.82963" lon="5.86617">
        <ele>860.04</ele>
        <time>2012-08-07T10:45:33Z</time>
      </trkpt>
      <trkpt lat="45.82972" lon="5.86613">
        <ele>858.59</ele>
        <time>2012-08-07T10:45:34Z</time>
      </trkpt>
      <trkpt lat="45.82992" lon="5.86603">
        <ele>855.23</ele>
        <time>2012-08-07T10:45:36Z</time>
      </trkpt>
      <trkpt lat="45.83022" lon="5.86594">
        <ele>853.79</ele>
        <time>2012-08-07T10:45:39Z</time>
      </trkpt>
      <trkpt lat="45.83053" lon="5.86599">
        <ele>851.38</ele>
        <time>2012-08-07T10:45:41Z</time>
      </trkpt>
      <trkpt lat="45.83148" lon="5.86634">
        <ele>849.94</ele>
        <time>2012-08-07T10:45:42Z</time>
      </trkpt>
      <trkpt lat="45.83158" lon="5.86631">
        <ele>847.06</ele>
        <time>2012-08-07T10:45:43Z</time>
      </trkpt>
      <trkpt lat="45.83169" lon="5.86628">
        <ele>846.1</ele>
        <time>2012-08-07T10:45:44Z</time>
      </trkpt>
      <trkpt lat="45.83181" lon="5.86622">
        <ele>846.58</ele>
        <time>2012-08-07T10:45:45Z</time>
      </trkpt>
      <trkpt lat="45.83202" lon="5.86611">
        <ele>843.21</ele>
        <time>2012-08-07T10:45:47Z</time>
      </trkpt>
      <trkpt lat="45.83216" lon="5.86584">
        <ele>843.21</ele>
        <time>2012-08-07T10:45:48Z</time>
      </trkpt>
      <trkpt lat="45.83232" lon="5.86571">
        <ele>842.25</ele>
        <time>2012-08-07T10:45:49Z</time>
      </trkpt>
      <trkpt lat="45.83261" lon="5.86552">
        <ele>837.93</ele>
        <time>2012-08-07T10:45:51Z</time>
      </trkpt>
      <trkpt lat="45.83284" lon="5.86532">
        <ele>835.04</ele>
        <time>2012-08-07T10:45:53Z</time>
      </trkpt>
      <trkpt lat="45.83293" lon="5.8652">
        <ele>834.56</ele>
        <time>2012-08-07T10:45:54Z</time>
      </trkpt>
      <trkpt lat="45.83321" lon="5.86489">
        <ele>831.2</ele>
        <time>2012-08-07T10:45:57Z</time>
      </trkpt>
      <trkpt lat="45.83331" lon="5.86474">
        <ele>830.72</ele>
        <time>2012-08-07T10:45:58Z</time>
      </trkpt>
      <trkpt lat="45.8334" lon="5.86455">
        <ele>829.76</ele>
        <time>2012-08-07T10:45:59Z</time>
      </trkpt>
      <trkpt lat="45.83348" lon="5.86436">
        <ele>827.83</ele>
        <time>2012-08-07T10:46:00Z</time>
      </trkpt>
      <trkpt lat="45.83355" lon="5.8642">
        <ele>824.47</ele>
        <time>2012-08-07T10:46:01Z</time>
      </trkpt>
      <trkpt lat="45.83362" lon="5.86408">
        <ele>823.51</ele>
        <time>2012-08-07T10:46:02Z</time>
      </trkpt>
      <trkpt lat="45.8337" lon="5.86399">
        <ele>822.55</ele>
        <time>2012-08-07T10:46:03Z</time>
      </trkpt>
      <trkpt lat="45.83381" lon="5.86393">
        <ele>821.58</ele>
        <time>2012-08-07T10:46:04Z</time>
      </trkpt>
      <trkpt lat="45.83395" lon="5.8639">
        <ele>821.58</ele>
        <time>2012-08-07T10:46:05Z</time>
      </trkpt>
      <trkpt lat="45.83409" lon="5.86386">
        <ele>821.58</ele>
        <time>2012-08-07T10:46:06Z</time>
      </trkpt>
      <trkpt lat="45.83424" lon="5.86385">
        <ele>820.14</ele>
        <time>2012-08-07T10:46:07Z</time>
      </trkpt>
      <trkpt lat="45.83437" lon="5.86383">
        <ele>818.22</ele>
        <time>2012-08-07T10:46:08Z</time>
      </trkpt>
      <trkpt lat="45.83451" lon="5.8638">
        <ele>817.74</ele>
        <time>2012-08-07T10:46:09Z</time>
      </trkpt>
      <trkpt lat="45.83466" lon="5.86375">
        <ele>817.74</ele>
        <time>2012-08-07T10:46:10Z</time>
      </trkpt>
      <trkpt lat="45.83479" lon="5.8637">
        <ele>815.82</ele>
        <time>2012-08-07T10:46:11Z</time>
      </trkpt>
      <trkpt lat="45.83547" lon="5.86344">
        <ele>810.53</ele>
        <time>2012-08-07T10:46:14Z</time>
      </trkpt>
      <trkpt lat="45.83587" lon="5.86332">
        <ele>805.24</ele>
        <time>2012-08-07T10:46:16Z</time>
      </trkpt>
      <trkpt lat="45.83621" lon="5.86318">
        <ele>800.92</ele>
        <time>2012-08-07T10:46:18Z</time>
      </trkpt>
      <trkpt lat="45.83634" lon="5.86309">
        <ele>798.99</ele>
        <time>2012-08-07T10:46:19Z</time>
      </trkpt>
      <trkpt lat="45.83646" lon="5.863">
        <ele>795.63</ele>
        <time>2012-08-07T10:46:20Z</time>
      </trkpt>
      <trkpt lat="45.83657" lon="5.8629">
        <ele>794.19</ele>
        <time>2012-08-07T10:46:21Z</time>
      </trkpt>
      <trkpt lat="45.83666" lon="5.86281">
        <ele>792.26</ele>
        <time>2012-08-07T10:46:22Z</time>
      </trkpt>
      <trkpt lat="45.83674" lon="5.86273">
        <ele>790.34</ele>
        <time>2012-08-07T10:46:23Z</time>
      </trkpt>
      <trkpt lat="45.83682" lon="5.8627">
        <ele>789.38</ele>
        <time>2012-08-07T10:46:24Z</time>
      </trkpt>
      <trkpt lat="45.8369" lon="5.86269">
        <ele>788.9</ele>
        <time>2012-08-07T10:46:25Z</time>
      </trkpt>
      <trkpt lat="45.83723" lon="5.86269">
        <ele>786.02</ele>
        <time>2012-08-07T10:46:29Z</time>
      </trkpt>
      <trkpt lat="45.83742" lon="5.86273">
        <ele>782.17</ele>
        <time>2012-08-07T10:46:31Z</time>
      </trkpt>
      <trkpt lat="45.8375" lon="5.86273">
        <ele>779.77</ele>
        <time>2012-08-07T10:46:32Z</time>
      </trkpt>
      <trkpt lat="45.83757" lon="5.86269">
        <ele>779.29</ele>
        <time>2012-08-07T10:46:33Z</time>
      </trkpt>
      <trkpt lat="45.83764" lon="5.86263">
        <ele>779.29</ele>
        <time>2012-08-07T10:46:34Z</time>
      </trkpt>
      <trkpt lat="45.83765" lon="5.86249">
        <ele>779.29</ele>
        <time>2012-08-07T10:46:36Z</time>
      </trkpt>
      <trkpt lat="45.83762" lon="5.86242">
        <ele>779.77</ele>
        <time>2012-08-07T10:46:37Z</time>
      </trkpt>
      <trkpt lat="45.83756" lon="5.86231">
        <ele>780.25</ele>
        <time>2012-08-07T10:46:38Z</time>
      </trkpt>
      <trkpt lat="45.83748" lon="5.8622">
        <ele>779.77</ele>
        <time>2012-08-07T10:46:39Z</time>
      </trkpt>
      <trkpt lat="45.83733" lon="5.86212">
        <ele>777.84</ele>
        <time>2012-08-07T10:46:40Z</time>
      </trkpt>
      <trkpt lat="45.83716" lon="5.86204">
        <ele>775.44</ele>
        <time>2012-08-07T10:46:41Z</time>
      </trkpt>
      <trkpt lat="45.83697" lon="5.86193">
        <ele>774.48</ele>
        <time>2012-08-07T10:46:42Z</time>
      </trkpt>
      <trkpt lat="45.83675" lon="5.86179">
        <ele>773.52</ele>
        <time>2012-08-07T10:46:43Z</time>
      </trkpt>
      <trkpt lat="45.83661" lon="5.86168">
        <ele>769.19</ele>
        <time>2012-08-07T10:46:44Z</time>
      </trkpt>
      <trkpt lat="45.83646" lon="5.86158">
        <ele>767.75</ele>
        <time>2012-08-07T10:46:45Z</time>
      </trkpt>
      <trkpt lat="45.83632" lon="5.86148">
        <ele>767.27</ele>
        <time>2012-08-07T10:46:46Z</time>
      </trkpt>
      <trkpt lat="45.83614" lon="5.86143">
        <ele>767.75</ele>
        <time>2012-08-07T10:46:47Z</time>
      </trkpt>
      <trkpt lat="45.83596" lon="5.86139">
        <ele>766.79</ele>
        <time>2012-08-07T10:46:48Z</time>
      </trkpt>
      <trkpt lat="45.83578" lon="5.86137">
        <ele>764.87</ele>
        <time>2012-08-07T10:46:49Z</time>
      </trkpt>
      <trkpt lat="45.83561" lon="5.86135">
        <ele>761.98</ele>
        <time>2012-08-07T10:46:50Z</time>
      </trkpt>
      <trkpt lat="45.83545" lon="5.8613">
        <ele>761.5</ele>
        <time>2012-08-07T10:46:51Z</time>
      </trkpt>
      <trkpt lat="45.83529" lon="5.86122">
        <ele>759.1</ele>
        <time>2012-08-07T10:46:52Z</time>
      </trkpt>
      <trkpt lat="45.83515" lon="5.86113">
        <ele>758.14</ele>
        <time>2012-08-07T10:46:53Z</time>
      </trkpt>
      <trkpt lat="45.835" lon="5.86104">
        <ele>758.14</ele>
        <time>2012-08-07T10:46:54Z</time>
      </trkpt>
      <trkpt lat="45.83482" lon="5.86097">
        <ele>756.69</ele>
        <time>2012-08-07T10:46:55Z</time>
      </trkpt>
      <trkpt lat="45.83463" lon="5.86094">
        <ele>755.73</ele>
        <time>2012-08-07T10:46:56Z</time>
      </trkpt>
      <trkpt lat="45.83447" lon="5.86092">
        <ele>752.37</ele>
        <time>2012-08-07T10:46:57Z</time>
      </trkpt>
      <trkpt lat="45.83433" lon="5.86093">
        <ele>749.97</ele>
        <time>2012-08-07T10:46:58Z</time>
      </trkpt>
      <trkpt lat="45.83422" lon="5.86094">
        <ele>746.6</ele>
        <time>2012-08-07T10:46:59Z</time>
      </trkpt>
      <trkpt lat="45.83408" lon="5.86094">
        <ele>743.24</ele>
        <time>2012-08-07T10:47:01Z</time>
      </trkpt>
      <trkpt lat="45.83404" lon="5.8609">
        <ele>742.76</ele>
        <time>2012-08-07T10:47:02Z</time>
      </trkpt>
      <trkpt lat="45.83404" lon="5.86083">
        <ele>742.28</ele>
        <time>2012-08-07T10:47:03Z</time>
      </trkpt>
      <trkpt lat="45.83407" lon="5.86076">
        <ele>742.28</ele>
        <time>2012-08-07T10:47:04Z</time>
      </trkpt>
      <trkpt lat="45.83425" lon="5.86068">
        <ele>743.24</ele>
        <time>2012-08-07T10:47:06Z</time>
      </trkpt>
      <trkpt lat="45.83437" lon="5.86066">
        <ele>744.68</ele>
        <time>2012-08-07T10:47:07Z</time>
      </trkpt>
      <trkpt lat="45.83453" lon="5.86062">
        <ele>744.2</ele>
        <time>2012-08-07T10:47:08Z</time>
      </trkpt>
      <trkpt lat="45.83514" lon="5.86047">
        <ele>739.87</ele>
        <time>2012-08-07T10:47:11Z</time>
      </trkpt>
      <trkpt lat="45.83553" lon="5.8604">
        <ele>735.07</ele>
        <time>2012-08-07T10:47:13Z</time>
      </trkpt>
      <trkpt lat="45.83591" lon="5.86034">
        <ele>731.7</ele>
        <time>2012-08-07T10:47:15Z</time>
      </trkpt>
      <trkpt lat="45.83628" lon="5.86027">
        <ele>727.86</ele>
        <time>2012-08-07T10:47:17Z</time>
      </trkpt>
      <trkpt lat="45.83684" lon="5.86021">
        <ele>724.97</ele>
        <time>2012-08-07T10:47:20Z</time>
      </trkpt>
      <trkpt lat="45.83719" lon="5.86018">
        <ele>720.16</ele>
        <time>2012-08-07T10:47:22Z</time>
      </trkpt>
      <trkpt lat="45.83736" lon="5.86015">
        <ele>716.8</ele>
        <time>2012-08-07T10:47:23Z</time>
      </trkpt>
      <trkpt lat="45.83763" lon="5.86013">
        <ele>712.95</ele>
        <time>2012-08-07T10:47:25Z</time>
      </trkpt>
      <trkpt lat="45.83775" lon="5.86015">
        <ele>711.51</ele>
        <time>2012-08-07T10:47:26Z</time>
      </trkpt>
      <trkpt lat="45.83788" lon="5.8602">
        <ele>711.51</ele>
        <time>2012-08-07T10:47:27Z</time>
      </trkpt>
      <trkpt lat="45.83801" lon="5.86029">
        <ele>710.07</ele>
        <time>2012-08-07T10:47:28Z</time>
      </trkpt>
      <trkpt lat="45.83812" lon="5.86036">
        <ele>709.11</ele>
        <time>2012-08-07T10:47:29Z</time>
      </trkpt>
      <trkpt lat="45.83825" lon="5.86039">
        <ele>709.59</ele>
        <time>2012-08-07T10:47:30Z</time>
      </trkpt>
      <trkpt lat="45.83854" lon="5.86038">
        <ele>707.67</ele>
        <time>2012-08-07T10:47:32Z</time>
      </trkpt>
      <trkpt lat="45.8387" lon="5.86036">
        <ele>705.26</ele>
        <time>2012-08-07T10:47:33Z</time>
      </trkpt>
      <trkpt lat="45.83899" lon="5.86037">
        <ele>700.94</ele>
        <time>2012-08-07T10:47:35Z</time>
      </trkpt>
      <trkpt lat="45.83909" lon="5.86037">
        <ele>698.05</ele>
        <time>2012-08-07T10:47:36Z</time>
      </trkpt>
      <trkpt lat="45.83917" lon="5.86035">
        <ele>697.09</ele>
        <time>2012-08-07T10:47:37Z</time>
      </trkpt>
      <trkpt lat="45.83922" lon="5.86029">
        <ele>696.61</ele>
        <time>2012-08-07T10:47:38Z</time>
      </trkpt>
      <trkpt lat="45.83923" lon="5.8602">
        <ele>696.13</ele>
        <time>2012-08-07T10:47:39Z</time>
      </trkpt>
      <trkpt lat="45.83919" lon="5.86015">
        <ele>696.13</ele>
        <time>2012-08-07T10:47:40Z</time>
      </trkpt>
      <trkpt lat="45.83915" lon="5.86008">
        <ele>696.61</ele>
        <time>2012-08-07T10:47:41Z</time>
      </trkpt>
      <trkpt lat="45.83907" lon="5.86002">
        <ele>697.09</ele>
        <time>2012-08-07T10:47:42Z</time>
      </trkpt>
      <trkpt lat="45.83899" lon="5.85996">
        <ele>697.09</ele>
        <time>2012-08-07T10:47:43Z</time>
      </trkpt>
      <trkpt lat="45.83888" lon="5.85988">
        <ele>694.69</ele>
        <time>2012-08-07T10:47:44Z</time>
      </trkpt>
      <trkpt lat="45.83876" lon="5.8598">
        <ele>693.25</ele>
        <time>2012-08-07T10:47:45Z</time>
      </trkpt>
      <trkpt lat="45.8386" lon="5.8597">
        <ele>691.81</ele>
        <time>2012-08-07T10:47:46Z</time>
      </trkpt>
      <trkpt lat="45.83845" lon="5.85959">
        <ele>689.4</ele>
        <time>2012-08-07T10:47:47Z</time>
      </trkpt>
      <trkpt lat="45.83825" lon="5.85949">
        <ele>688.44</ele>
        <time>2012-08-07T10:47:48Z</time>
      </trkpt>
      <trkpt lat="45.83805" lon="5.85941">
        <ele>688.92</ele>
        <time>2012-08-07T10:47:49Z</time>
      </trkpt>
      <trkpt lat="45.83764" lon="5.85931">
        <ele>685.08</ele>
        <time>2012-08-07T10:47:51Z</time>
      </trkpt>
      <trkpt lat="45.83731" lon="5.85923">
        <ele>680.27</ele>
        <time>2012-08-07T10:47:53Z</time>
      </trkpt>
      <trkpt lat="45.83717" lon="5.85917">
        <ele>678.83</ele>
        <time>2012-08-07T10:47:54Z</time>
      </trkpt>
      <trkpt lat="45.83704" lon="5.85909">
        <ele>676.91</ele>
        <time>2012-08-07T10:47:55Z</time>
      </trkpt>
      <trkpt lat="45.83694" lon="5.85901">
        <ele>675.46</ele>
        <time>2012-08-07T10:47:56Z</time>
      </trkpt>
      <trkpt lat="45.83686" lon="5.85891">
        <ele>674.5</ele>
        <time>2012-08-07T10:47:57Z</time>
      </trkpt>
      <trkpt lat="45.8367" lon="5.8586">
        <ele>672.1</ele>
        <time>2012-08-07T10:48:00Z</time>
      </trkpt>
      <trkpt lat="45.83667" lon="5.85847">
        <ele>670.18</ele>
        <time>2012-08-07T10:48:01Z</time>
      </trkpt>
      <trkpt lat="45.83658" lon="5.85825">
        <ele>669.22</ele>
        <time>2012-08-07T10:48:03Z</time>
      </trkpt>
      <trkpt lat="45.83652" lon="5.85816">
        <ele>669.22</ele>
        <time>2012-08-07T10:48:04Z</time>
      </trkpt>
      <trkpt lat="45.83645" lon="5.85807">
        <ele>669.22</ele>
        <time>2012-08-07T10:48:05Z</time>
      </trkpt>
      <trkpt lat="45.8363" lon="5.85786">
        <ele>668.25</ele>
        <time>2012-08-07T10:48:07Z</time>
      </trkpt>
      <trkpt lat="45.83615" lon="5.85761">
        <ele>663.93</ele>
        <time>2012-08-07T10:48:09Z</time>
      </trkpt>
      <trkpt lat="45.83603" lon="5.85752">
        <ele>663.45</ele>
        <time>2012-08-07T10:48:10Z</time>
      </trkpt>
      <trkpt lat="45.83583" lon="5.85745">
        <ele>660.56</ele>
        <time>2012-08-07T10:48:11Z</time>
      </trkpt>
      <trkpt lat="45.83553" lon="5.85737">
        <ele>655.76</ele>
        <time>2012-08-07T10:48:13Z</time>
      </trkpt>
      <trkpt lat="45.83515" lon="5.85737">
        <ele>654.8</ele>
        <time>2012-08-07T10:48:15Z</time>
      </trkpt>
      <trkpt lat="45.83496" lon="5.85742">
        <ele>655.76</ele>
        <time>2012-08-07T10:48:16Z</time>
      </trkpt>
      <trkpt lat="45.83479" lon="5.85747">
        <ele>653.83</ele>
        <time>2012-08-07T10:48:17Z</time>
      </trkpt>
      <trkpt lat="45.83465" lon="5.8575">
        <ele>651.91</ele>
        <time>2012-08-07T10:48:18Z</time>
      </trkpt>
      <trkpt lat="45.8345" lon="5.8575">
        <ele>649.99</ele>
        <time>2012-08-07T10:48:19Z</time>
      </trkpt>
      <trkpt lat="45.83433" lon="5.85745">
        <ele>649.99</ele>
        <time>2012-08-07T10:48:20Z</time>
      </trkpt>
      <trkpt lat="45.83419" lon="5.85736">
        <ele>648.55</ele>
        <time>2012-08-07T10:48:21Z</time>
      </trkpt>
      <trkpt lat="45.83394" lon="5.85716">
        <ele>645.18</ele>
        <time>2012-08-07T10:48:23Z</time>
      </trkpt>
      <trkpt lat="45.8338" lon="5.85712">
        <ele>644.7</ele>
        <time>2012-08-07T10:48:24Z</time>
      </trkpt>
      <trkpt lat="45.83365" lon="5.85712">
        <ele>644.22</ele>
        <time>2012-08-07T10:48:25Z</time>
      </trkpt>
      <trkpt lat="45.83348" lon="5.85716">
        <ele>644.7</ele>
        <time>2012-08-07T10:48:26Z</time>
      </trkpt>
      <trkpt lat="45.83331" lon="5.85722">
        <ele>643.26</ele>
        <time>2012-08-07T10:48:27Z</time>
      </trkpt>
      <trkpt lat="45.83316" lon="5.85726">
        <ele>641.34</ele>
        <time>2012-08-07T10:48:28Z</time>
      </trkpt>
      <trkpt lat="45.83303" lon="5.8573">
        <ele>639.41</ele>
        <time>2012-08-07T10:48:29Z</time>
      </trkpt>
      <trkpt lat="45.83291" lon="5.85735">
        <ele>638.93</ele>
        <time>2012-08-07T10:48:30Z</time>
      </trkpt>
      <trkpt lat="45.83277" lon="5.8574">
        <ele>639.41</ele>
        <time>2012-08-07T10:48:31Z</time>
      </trkpt>
      <trkpt lat="45.83259" lon="5.85755">
        <ele>638.45</ele>
        <time>2012-08-07T10:48:32Z</time>
      </trkpt>
      <trkpt lat="45.83247" lon="5.85768">
        <ele>636.53</ele>
        <time>2012-08-07T10:48:33Z</time>
      </trkpt>
      <trkpt lat="45.83237" lon="5.85782">
        <ele>634.61</ele>
        <time>2012-08-07T10:48:34Z</time>
      </trkpt>
      <trkpt lat="45.8323" lon="5.85791">
        <ele>633.17</ele>
        <time>2012-08-07T10:48:35Z</time>
      </trkpt>
      <trkpt lat="45.83224" lon="5.85801">
        <ele>631.24</ele>
        <time>2012-08-07T10:48:36Z</time>
      </trkpt>
      <trkpt lat="45.83219" lon="5.85802">
        <ele>630.28</ele>
        <time>2012-08-07T10:48:37Z</time>
      </trkpt>
      <trkpt lat="45.83215" lon="5.85801">
        <ele>629.8</ele>
        <time>2012-08-07T10:48:38Z</time>
      </trkpt>
      <trkpt lat="45.83212" lon="5.85801">
        <ele>629.32</ele>
        <time>2012-08-07T10:48:39Z</time>
      </trkpt>
      <trkpt lat="45.83214" lon="5.85789">
        <ele>630.76</ele>
        <time>2012-08-07T10:48:40Z</time>
      </trkpt>
      <trkpt lat="45.83217" lon="5.85777">
        <ele>630.76</ele>
        <time>2012-08-07T10:48:41Z</time>
      </trkpt>
      <trkpt lat="45.83221" lon="5.85765">
        <ele>629.8</ele>
        <time>2012-08-07T10:48:42Z</time>
      </trkpt>
      <trkpt lat="45.83227" lon="5.85751">
        <ele>628.84</ele>
        <time>2012-08-07T10:48:43Z</time>
      </trkpt>
      <trkpt lat="45.83236" lon="5.85736">
        <ele>627.88</ele>
        <time>2012-08-07T10:48:44Z</time>
      </trkpt>
      <trkpt lat="45.83246" lon="5.85724">
        <ele>626.92</ele>
        <time>2012-08-07T10:48:45Z</time>
      </trkpt>
      <trkpt lat="45.83261" lon="5.85715">
        <ele>627.88</ele>
        <time>2012-08-07T10:48:46Z</time>
      </trkpt>
      <trkpt lat="45.83277" lon="5.85708">
        <ele>626.92</ele>
        <time>2012-08-07T10:48:47Z</time>
      </trkpt>
      <trkpt lat="45.83292" lon="5.85698">
        <ele>624.99</ele>
        <time>2012-08-07T10:48:48Z</time>
      </trkpt>
      <trkpt lat="45.83307" lon="5.85685">
        <ele>624.03</ele>
        <time>2012-08-07T10:48:49Z</time>
      </trkpt>
      <trkpt lat="45.8332" lon="5.85674">
        <ele>623.07</ele>
        <time>2012-08-07T10:48:50Z</time>
      </trkpt>
      <trkpt lat="45.83334" lon="5.85666">
        <ele>621.15</ele>
        <time>2012-08-07T10:48:51Z</time>
      </trkpt>
      <trkpt lat="45.83361" lon="5.85655">
        <ele>619.23</ele>
        <time>2012-08-07T10:48:53Z</time>
      </trkpt>
      <trkpt lat="45.83375" lon="5.85654">
        <ele>617.3</ele>
        <time>2012-08-07T10:48:54Z</time>
      </trkpt>
      <trkpt lat="45.83403" lon="5.85646">
        <ele>615.86</ele>
        <time>2012-08-07T10:48:56Z</time>
      </trkpt>
      <trkpt lat="45.83415" lon="5.85637">
        <ele>613.46</ele>
        <time>2012-08-07T10:48:57Z</time>
      </trkpt>
      <trkpt lat="45.83425" lon="5.85627">
        <ele>612.02</ele>
        <time>2012-08-07T10:48:58Z</time>
      </trkpt>
      <trkpt lat="45.83437" lon="5.85618">
        <ele>610.57</ele>
        <time>2012-08-07T10:48:59Z</time>
      </trkpt>
      <trkpt lat="45.8345" lon="5.85613">
        <ele>610.09</ele>
        <time>2012-08-07T10:49:00Z</time>
      </trkpt>
      <trkpt lat="45.83463" lon="5.85609">
        <ele>611.06</ele>
        <time>2012-08-07T10:49:01Z</time>
      </trkpt>
      <trkpt lat="45.8349" lon="5.85602">
        <ele>609.13</ele>
        <time>2012-08-07T10:49:03Z</time>
      </trkpt>
      <trkpt lat="45.83509" lon="5.85599">
        <ele>605.77</ele>
        <time>2012-08-07T10:49:04Z</time>
      </trkpt>
      <trkpt lat="45.83588" lon="5.85588">
        <ele>601.92</ele>
        <time>2012-08-07T10:49:08Z</time>
      </trkpt>
      <trkpt lat="45.83629" lon="5.85584">
        <ele>596.64</ele>
        <time>2012-08-07T10:49:10Z</time>
      </trkpt>
      <trkpt lat="45.8365" lon="5.85584">
        <ele>593.27</ele>
        <time>2012-08-07T10:49:11Z</time>
      </trkpt>
      <trkpt lat="45.83686" lon="5.85587">
        <ele>589.91</ele>
        <time>2012-08-07T10:49:14Z</time>
      </trkpt>
      <trkpt lat="45.83701" lon="5.85594">
        <ele>588.95</ele>
        <time>2012-08-07T10:49:15Z</time>
      </trkpt>
      <trkpt lat="45.8372" lon="5.85607">
        <ele>585.1</ele>
        <time>2012-08-07T10:49:17Z</time>
      </trkpt>
      <trkpt lat="45.83728" lon="5.85608">
        <ele>584.62</ele>
        <time>2012-08-07T10:49:18Z</time>
      </trkpt>
      <trkpt lat="45.83734" lon="5.85605">
        <ele>583.66</ele>
        <time>2012-08-07T10:49:19Z</time>
      </trkpt>
      <trkpt lat="45.83737" lon="5.85601">
        <ele>583.66</ele>
        <time>2012-08-07T10:49:20Z</time>
      </trkpt>
      <trkpt lat="45.83736" lon="5.85595">
        <ele>584.14</ele>
        <time>2012-08-07T10:49:21Z</time>
      </trkpt>
      <trkpt lat="45.83732" lon="5.85587">
        <ele>585.1</ele>
        <time>2012-08-07T10:49:22Z</time>
      </trkpt>
      <trkpt lat="45.83727" lon="5.85576">
        <ele>585.1</ele>
        <time>2012-08-07T10:49:23Z</time>
      </trkpt>
      <trkpt lat="45.83708" lon="5.85548">
        <ele>582.7</ele>
        <time>2012-08-07T10:49:25Z</time>
      </trkpt>
      <trkpt lat="45.83696" lon="5.85531">
        <ele>581.25</ele>
        <time>2012-08-07T10:49:26Z</time>
      </trkpt>
      <trkpt lat="45.83682" lon="5.85491">
        <ele>577.89</ele>
        <time>2012-08-07T10:49:28Z</time>
      </trkpt>
      <trkpt lat="45.83675" lon="5.85474">
        <ele>575.97</ele>
        <time>2012-08-07T10:49:29Z</time>
      </trkpt>
      <trkpt lat="45.83669" lon="5.85458">
        <ele>574.53</ele>
        <time>2012-08-07T10:49:30Z</time>
      </trkpt>
      <trkpt lat="45.8366" lon="5.85449">
        <ele>574.53</ele>
        <time>2012-08-07T10:49:31Z</time>
      </trkpt>
      <trkpt lat="45.83649" lon="5.85441">
        <ele>573.56</ele>
        <time>2012-08-07T10:49:32Z</time>
      </trkpt>
      <trkpt lat="45.83632" lon="5.85439">
        <ele>570.2</ele>
        <time>2012-08-07T10:49:34Z</time>
      </trkpt>
      <trkpt lat="45.83625" lon="5.85438">
        <ele>568.76</ele>
        <time>2012-08-07T10:49:37Z</time>
      </trkpt>
      <trkpt lat="45.83632" lon="5.85442">
        <ele>569.24</ele>
        <time>2012-08-07T10:49:49Z</time>
      </trkpt>
      <trkpt lat="45.83642" lon="5.85448">
        <ele>570.2</ele>
        <time>2012-08-07T10:50:09Z</time>
      </trkpt>
      <trkpt lat="45.83617" lon="5.85455">
        <ele>570.2</ele>
        <time>2012-08-07T10:50:13Z</time>
      </trkpt>
      <trkpt lat="45.83538" lon="5.85482">
        <ele>569.24</ele>
        <time>2012-08-07T10:50:18Z</time>
      </trkpt>
      <trkpt lat="45.83503" lon="5.85492">
        <ele>565.87</ele>
        <time>2012-08-07T10:50:20Z</time>
      </trkpt>
      <trkpt lat="45.83434" lon="5.85503">
        <ele>561.55</ele>
        <time>2012-08-07T10:50:24Z</time>
      </trkpt>
      <trkpt lat="45.83417" lon="5.85503">
        <ele>560.59</ele>
        <time>2012-08-07T10:50:25Z</time>
      </trkpt>
      <trkpt lat="45.83401" lon="5.85502">
        <ele>559.62</ele>
        <time>2012-08-07T10:50:26Z</time>
      </trkpt>
      <trkpt lat="45.83386" lon="5.85498">
        <ele>557.7</ele>
        <time>2012-08-07T10:50:27Z</time>
      </trkpt>
      <trkpt lat="45.83362" lon="5.8549">
        <ele>554.34</ele>
        <time>2012-08-07T10:50:29Z</time>
      </trkpt>
      <trkpt lat="45.8335" lon="5.8549">
        <ele>553.38</ele>
        <time>2012-08-07T10:50:30Z</time>
      </trkpt>
      <trkpt lat="45.83338" lon="5.85493">
        <ele>552.9</ele>
        <time>2012-08-07T10:50:31Z</time>
      </trkpt>
      <trkpt lat="45.83325" lon="5.85499">
        <ele>553.38</ele>
        <time>2012-08-07T10:50:32Z</time>
      </trkpt>
      <trkpt lat="45.8331" lon="5.85505">
        <ele>551.45</ele>
        <time>2012-08-07T10:50:33Z</time>
      </trkpt>
      <trkpt lat="45.83273" lon="5.85527">
        <ele>548.09</ele>
        <time>2012-08-07T10:50:36Z</time>
      </trkpt>
      <trkpt lat="45.83264" lon="5.85534">
        <ele>546.65</ele>
        <time>2012-08-07T10:50:37Z</time>
      </trkpt>
      <trkpt lat="45.83257" lon="5.85541">
        <ele>546.17</ele>
        <time>2012-08-07T10:50:38Z</time>
      </trkpt>
      <trkpt lat="45.83251" lon="5.85546">
        <ele>544.24</ele>
        <time>2012-08-07T10:50:39Z</time>
      </trkpt>
      <trkpt lat="45.83246" lon="5.8555">
        <ele>544.24</ele>
        <time>2012-08-07T10:50:40Z</time>
      </trkpt>
      <trkpt lat="45.83241" lon="5.8555">
        <ele>543.76</ele>
        <time>2012-08-07T10:50:41Z</time>
      </trkpt>
      <trkpt lat="45.83239" lon="5.85545">
        <ele>542.8</ele>
        <time>2012-08-07T10:50:42Z</time>
      </trkpt>
      <trkpt lat="45.83237" lon="5.85539">
        <ele>542.8</ele>
        <time>2012-08-07T10:50:43Z</time>
      </trkpt>
      <trkpt lat="45.83243" lon="5.85522">
        <ele>542.32</ele>
        <time>2012-08-07T10:50:45Z</time>
      </trkpt>
      <trkpt lat="45.83249" lon="5.85512">
        <ele>543.28</ele>
        <time>2012-08-07T10:50:46Z</time>
      </trkpt>
      <trkpt lat="45.83257" lon="5.85501">
        <ele>542.8</ele>
        <time>2012-08-07T10:50:47Z</time>
      </trkpt>
      <trkpt lat="45.83266" lon="5.85489">
        <ele>543.28</ele>
        <time>2012-08-07T10:50:48Z</time>
      </trkpt>
      <trkpt lat="45.8331" lon="5.8542">
        <ele>539.44</ele>
        <time>2012-08-07T10:50:52Z</time>
      </trkpt>
      <trkpt lat="45.83346" lon="5.85376">
        <ele>535.59</ele>
        <time>2012-08-07T10:50:55Z</time>
      </trkpt>
      <trkpt lat="45.83367" lon="5.85353">
        <ele>532.71</ele>
        <time>2012-08-07T10:50:57Z</time>
      </trkpt>
      <trkpt lat="45.83377" lon="5.85346">
        <ele>531.75</ele>
        <time>2012-08-07T10:50:58Z</time>
      </trkpt>
      <trkpt lat="45.8339" lon="5.85338">
        <ele>529.82</ele>
        <time>2012-08-07T10:51:00Z</time>
      </trkpt>
      <trkpt lat="45.83392" lon="5.85332">
        <ele>529.34</ele>
        <time>2012-08-07T10:51:01Z</time>
      </trkpt>
      <trkpt lat="45.83388" lon="5.85322">
        <ele>528.86</ele>
        <time>2012-08-07T10:51:03Z</time>
      </trkpt>
      <trkpt lat="45.83382" lon="5.85319">
        <ele>528.86</ele>
        <time>2012-08-07T10:51:04Z</time>
      </trkpt>
      <trkpt lat="45.83372" lon="5.8532">
        <ele>529.34</ele>
        <time>2012-08-07T10:51:05Z</time>
      </trkpt>
      <trkpt lat="45.8336" lon="5.85322">
        <ele>528.38</ele>
        <time>2012-08-07T10:51:06Z</time>
      </trkpt>
      <trkpt lat="45.83348" lon="5.85326">
        <ele>527.9</ele>
        <time>2012-08-07T10:51:07Z</time>
      </trkpt>
      <trkpt lat="45.83327" lon="5.85336">
        <ele>525.5</ele>
        <time>2012-08-07T10:51:09Z</time>
      </trkpt>
      <trkpt lat="45.83311" lon="5.85349">
        <ele>523.58</ele>
        <time>2012-08-07T10:51:11Z</time>
      </trkpt>
      <trkpt lat="45.83297" lon="5.85365">
        <ele>522.61</ele>
        <time>2012-08-07T10:51:13Z</time>
      </trkpt>
      <trkpt lat="45.83287" lon="5.85373">
        <ele>521.65</ele>
        <time>2012-08-07T10:51:14Z</time>
      </trkpt>
      <trkpt lat="45.83279" lon="5.85378">
        <ele>521.65</ele>
        <time>2012-08-07T10:51:15Z</time>
      </trkpt>
      <trkpt lat="45.8327" lon="5.85382">
        <ele>520.69</ele>
        <time>2012-08-07T10:51:16Z</time>
      </trkpt>
      <trkpt lat="45.83261" lon="5.85387">
        <ele>519.73</ele>
        <time>2012-08-07T10:51:17Z</time>
      </trkpt>
      <trkpt lat="45.83253" lon="5.85394">
        <ele>518.77</ele>
        <time>2012-08-07T10:51:18Z</time>
      </trkpt>
      <trkpt lat="45.83246" lon="5.854">
        <ele>518.29</ele>
        <time>2012-08-07T10:51:19Z</time>
      </trkpt>
      <trkpt lat="45.83241" lon="5.85403">
        <ele>517.33</ele>
        <time>2012-08-07T10:51:20Z</time>
      </trkpt>
      <trkpt lat="45.83237" lon="5.85405">
        <ele>516.37</ele>
        <time>2012-08-07T10:51:21Z</time>
      </trkpt>
      <trkpt lat="45.83235" lon="5.85385">
        <ele>515.4</ele>
        <time>2012-08-07T10:51:23Z</time>
      </trkpt>
      <trkpt lat="45.8324" lon="5.85375">
        <ele>515.88</ele>
        <time>2012-08-07T10:51:24Z</time>
      </trkpt>
      <trkpt lat="45.83247" lon="5.85364">
        <ele>515.88</ele>
        <time>2012-08-07T10:51:25Z</time>
      </trkpt>
      <trkpt lat="45.83256" lon="5.85355">
        <ele>514.92</ele>
        <time>2012-08-07T10:51:26Z</time>
      </trkpt>
      <trkpt lat="45.83264" lon="5.85347">
        <ele>513</ele>
        <time>2012-08-07T10:51:27Z</time>
      </trkpt>
      <trkpt lat="45.83278" lon="5.85333">
        <ele>511.08</ele>
        <time>2012-08-07T10:51:29Z</time>
      </trkpt>
      <trkpt lat="45.8328" lon="5.85326">
        <ele>510.6</ele>
        <time>2012-08-07T10:51:30Z</time>
      </trkpt>
      <trkpt lat="45.83274" lon="5.85317">
        <ele>509.64</ele>
        <time>2012-08-07T10:51:32Z</time>
      </trkpt>
      <trkpt lat="45.83267" lon="5.85319">
        <ele>510.12</ele>
        <time>2012-08-07T10:51:33Z</time>
      </trkpt>
      <trkpt lat="45.83258" lon="5.85325">
        <ele>510.6</ele>
        <time>2012-08-07T10:51:34Z</time>
      </trkpt>
      <trkpt lat="45.83247" lon="5.85332">
        <ele>509.64</ele>
        <time>2012-08-07T10:51:35Z</time>
      </trkpt>
      <trkpt lat="45.83234" lon="5.85339">
        <ele>508.67</ele>
        <time>2012-08-07T10:51:36Z</time>
      </trkpt>
      <trkpt lat="45.83198" lon="5.85362">
        <ele>504.83</ele>
        <time>2012-08-07T10:51:39Z</time>
      </trkpt>
      <trkpt lat="45.83168" lon="5.85388">
        <ele>501.46</ele>
        <time>2012-08-07T10:51:42Z</time>
      </trkpt>
      <trkpt lat="45.83133" lon="5.85423">
        <ele>498.1</ele>
        <time>2012-08-07T10:51:46Z</time>
      </trkpt>
      <trkpt lat="45.83116" lon="5.85441">
        <ele>497.14</ele>
        <time>2012-08-07T10:51:48Z</time>
      </trkpt>
      <trkpt lat="45.83091" lon="5.85467">
        <ele>493.77</ele>
        <time>2012-08-07T10:51:51Z</time>
      </trkpt>
      <trkpt lat="45.83075" lon="5.85481">
        <ele>491.85</ele>
        <time>2012-08-07T10:51:53Z</time>
      </trkpt>
      <trkpt lat="45.83066" lon="5.85485">
        <ele>490.89</ele>
        <time>2012-08-07T10:51:54Z</time>
      </trkpt>
      <trkpt lat="45.83056" lon="5.85489">
        <ele>489.45</ele>
        <time>2012-08-07T10:51:55Z</time>
      </trkpt>
      <trkpt lat="45.83046" lon="5.85491">
        <ele>488.97</ele>
        <time>2012-08-07T10:51:56Z</time>
      </trkpt>
      <trkpt lat="45.83036" lon="5.85491">
        <ele>487.05</ele>
        <time>2012-08-07T10:51:57Z</time>
      </trkpt>
      <trkpt lat="45.83026" lon="5.85491">
        <ele>486.08</ele>
        <time>2012-08-07T10:51:58Z</time>
      </trkpt>
      <trkpt lat="45.83015" lon="5.85489">
        <ele>485.12</ele>
        <time>2012-08-07T10:51:59Z</time>
      </trkpt>
      <trkpt lat="45.83003" lon="5.85489">
        <ele>484.16</ele>
        <time>2012-08-07T10:52:00Z</time>
      </trkpt>
      <trkpt lat="45.82991" lon="5.85491">
        <ele>483.68</ele>
        <time>2012-08-07T10:52:01Z</time>
      </trkpt>
      <trkpt lat="45.82977" lon="5.85496">
        <ele>483.68</ele>
        <time>2012-08-07T10:52:02Z</time>
      </trkpt>
      <trkpt lat="45.82938" lon="5.8551">
        <ele>481.76</ele>
        <time>2012-08-07T10:52:05Z</time>
      </trkpt>
      <trkpt lat="45.82911" lon="5.85512">
        <ele>479.84</ele>
        <time>2012-08-07T10:52:07Z</time>
      </trkpt>
      <trkpt lat="45.82882" lon="5.85509">
        <ele>477.91</ele>
        <time>2012-08-07T10:52:09Z</time>
      </trkpt>
      <trkpt lat="45.82855" lon="5.85501">
        <ele>475.51</ele>
        <time>2012-08-07T10:52:11Z</time>
      </trkpt>
      <trkpt lat="45.8284" lon="5.855">
        <ele>475.03</ele>
        <time>2012-08-07T10:52:12Z</time>
      </trkpt>
      <trkpt lat="45.82824" lon="5.855">
        <ele>474.55</ele>
        <time>2012-08-07T10:52:13Z</time>
      </trkpt>
      <trkpt lat="45.82775" lon="5.85503">
        <ele>471.66</ele>
        <time>2012-08-07T10:52:16Z</time>
      </trkpt>
      <trkpt lat="45.82727" lon="5.85504">
        <ele>467.82</ele>
        <time>2012-08-07T10:52:19Z</time>
      </trkpt>
      <trkpt lat="45.8268" lon="5.85509">
        <ele>464.45</ele>
        <time>2012-08-07T10:52:22Z</time>
      </trkpt>
      <trkpt lat="45.82646" lon="5.85511">
        <ele>461.09</ele>
        <time>2012-08-07T10:52:24Z</time>
      </trkpt>
      <trkpt lat="45.82639" lon="5.85511">
        <ele>460.61</ele>
        <time>2012-08-07T10:52:25Z</time>
      </trkpt>
      <trkpt lat="45.82607" lon="5.85509">
        <ele>458.69</ele>
        <time>2012-08-07T10:52:27Z</time>
      </trkpt>
      <trkpt lat="45.82574" lon="5.85503">
        <ele>454.84</ele>
        <time>2012-08-07T10:52:29Z</time>
      </trkpt>
      <trkpt lat="45.82537" lon="5.85494">
        <ele>451.48</ele>
        <time>2012-08-07T10:52:32Z</time>
      </trkpt>
      <trkpt lat="45.82526" lon="5.85489">
        <ele>449.55</ele>
        <time>2012-08-07T10:52:33Z</time>
      </trkpt>
      <trkpt lat="45.82509" lon="5.85474">
        <ele>447.15</ele>
        <time>2012-08-07T10:52:35Z</time>
      </trkpt>
      <trkpt lat="45.82504" lon="5.85462">
        <ele>446.67</ele>
        <time>2012-08-07T10:52:36Z</time>
      </trkpt>
      <trkpt lat="45.825" lon="5.85449">
        <ele>445.71</ele>
        <time>2012-08-07T10:52:37Z</time>
      </trkpt>
      <trkpt lat="45.825" lon="5.85434">
        <ele>445.23</ele>
        <time>2012-08-07T10:52:38Z</time>
      </trkpt>
      <trkpt lat="45.82504" lon="5.85419">
        <ele>445.23</ele>
        <time>2012-08-07T10:52:39Z</time>
      </trkpt>
      <trkpt lat="45.82511" lon="5.85405">
        <ele>443.31</ele>
        <time>2012-08-07T10:52:40Z</time>
      </trkpt>
      <trkpt lat="45.8252" lon="5.85397">
        <ele>443.31</ele>
        <time>2012-08-07T10:52:41Z</time>
      </trkpt>
      <trkpt lat="45.82532" lon="5.85393">
        <ele>442.82</ele>
        <time>2012-08-07T10:52:42Z</time>
      </trkpt>
      <trkpt lat="45.82546" lon="5.85393">
        <ele>441.38</ele>
        <time>2012-08-07T10:52:43Z</time>
      </trkpt>
      <trkpt lat="45.82559" lon="5.85392">
        <ele>440.42</ele>
        <time>2012-08-07T10:52:44Z</time>
      </trkpt>
      <trkpt lat="45.8257" lon="5.85387">
        <ele>438.98</ele>
        <time>2012-08-07T10:52:45Z</time>
      </trkpt>
      <trkpt lat="45.82579" lon="5.85377">
        <ele>437.54</ele>
        <time>2012-08-07T10:52:46Z</time>
      </trkpt>
      <trkpt lat="45.82585" lon="5.85362">
        <ele>435.61</ele>
        <time>2012-08-07T10:52:47Z</time>
      </trkpt>
      <trkpt lat="45.8259" lon="5.85347">
        <ele>434.65</ele>
        <time>2012-08-07T10:52:48Z</time>
      </trkpt>
      <trkpt lat="45.82596" lon="5.85334">
        <ele>433.21</ele>
        <time>2012-08-07T10:52:49Z</time>
      </trkpt>
      <trkpt lat="45.82607" lon="5.85325">
        <ele>432.73</ele>
        <time>2012-08-07T10:52:50Z</time>
      </trkpt>
      <trkpt lat="45.82621" lon="5.8532">
        <ele>432.73</ele>
        <time>2012-08-07T10:52:51Z</time>
      </trkpt>
      <trkpt lat="45.82639" lon="5.85319">
        <ele>432.73</ele>
        <time>2012-08-07T10:52:52Z</time>
      </trkpt>
      <trkpt lat="45.8266" lon="5.85321">
        <ele>433.69</ele>
        <time>2012-08-07T10:52:53Z</time>
      </trkpt>
      <trkpt lat="45.82681" lon="5.85324">
        <ele>433.21</ele>
        <time>2012-08-07T10:52:54Z</time>
      </trkpt>
      <trkpt lat="45.82712" lon="5.85328">
        <ele>428.4</ele>
        <time>2012-08-07T10:52:56Z</time>
      </trkpt>
      <trkpt lat="45.82754" lon="5.85325">
        <ele>424.56</ele>
        <time>2012-08-07T10:52:58Z</time>
      </trkpt>
      <trkpt lat="45.82782" lon="5.85316">
        <ele>420.71</ele>
        <time>2012-08-07T10:53:00Z</time>
      </trkpt>
      <trkpt lat="45.82806" lon="5.85307">
        <ele>416.87</ele>
        <time>2012-08-07T10:53:02Z</time>
      </trkpt>
      <trkpt lat="45.82818" lon="5.85299">
        <ele>415.43</ele>
        <time>2012-08-07T10:53:03Z</time>
      </trkpt>
      <trkpt lat="45.82829" lon="5.85293">
        <ele>413.98</ele>
        <time>2012-08-07T10:53:04Z</time>
      </trkpt>
      <trkpt lat="45.82851" lon="5.85278">
        <ele>411.1</ele>
        <time>2012-08-07T10:53:06Z</time>
      </trkpt>
      <trkpt lat="45.82858" lon="5.85272">
        <ele>410.14</ele>
        <time>2012-08-07T10:53:07Z</time>
      </trkpt>
      <trkpt lat="45.82871" lon="5.85255">
        <ele>408.7</ele>
        <time>2012-08-07T10:53:08Z</time>
      </trkpt>
      <trkpt lat="45.82905" lon="5.85209">
        <ele>402.93</ele>
        <time>2012-08-07T10:53:12Z</time>
      </trkpt>
      <trkpt lat="45.82918" lon="5.85197">
        <ele>401.01</ele>
        <time>2012-08-07T10:53:14Z</time>
      </trkpt>
      <trkpt lat="45.82922" lon="5.85192">
        <ele>400.53</ele>
        <time>2012-08-07T10:53:15Z</time>
      </trkpt>
      <trkpt lat="45.82923" lon="5.85188">
        <ele>399.57</ele>
        <time>2012-08-07T10:53:16Z</time>
      </trkpt>
      <trkpt lat="45.82921" lon="5.85184">
        <ele>399.57</ele>
        <time>2012-08-07T10:53:17Z</time>
      </trkpt>
      <trkpt lat="45.82911" lon="5.85186">
        <ele>400.05</ele>
        <time>2012-08-07T10:53:19Z</time>
      </trkpt>
      <trkpt lat="45.82902" lon="5.85193">
        <ele>400.05</ele>
        <time>2012-08-07T10:53:20Z</time>
      </trkpt>
      <trkpt lat="45.82891" lon="5.85201">
        <ele>399.08</ele>
        <time>2012-08-07T10:53:21Z</time>
      </trkpt>
      <trkpt lat="45.8288" lon="5.85208">
        <ele>398.6</ele>
        <time>2012-08-07T10:53:22Z</time>
      </trkpt>
      <trkpt lat="45.8287" lon="5.85209">
        <ele>397.16</ele>
        <time>2012-08-07T10:53:23Z</time>
      </trkpt>
      <trkpt lat="45.82861" lon="5.85214">
        <ele>397.16</ele>
        <time>2012-08-07T10:53:24Z</time>
      </trkpt>
      <trkpt lat="45.82841" lon="5.85233">
        <ele>397.64</ele>
        <time>2012-08-07T10:53:26Z</time>
      </trkpt>
      <trkpt lat="45.82829" lon="5.85239">
        <ele>397.16</ele>
        <time>2012-08-07T10:53:27Z</time>
      </trkpt>
      <trkpt lat="45.82817" lon="5.85242">
        <ele>397.64</ele>
        <time>2012-08-07T10:53:28Z</time>
      </trkpt>
      <trkpt lat="45.82803" lon="5.85242">
        <ele>396.68</ele>
        <time>2012-08-07T10:53:29Z</time>
      </trkpt>
      <trkpt lat="45.82789" lon="5.85239">
        <ele>396.2</ele>
        <time>2012-08-07T10:53:30Z</time>
      </trkpt>
      <trkpt lat="45.82775" lon="5.85232">
        <ele>396.2</ele>
        <time>2012-08-07T10:53:31Z</time>
      </trkpt>
      <trkpt lat="45.82731" lon="5.85202">
        <ele>393.32</ele>
        <time>2012-08-07T10:53:34Z</time>
      </trkpt>
      <trkpt lat="45.82699" lon="5.85186">
        <ele>389.47</ele>
        <time>2012-08-07T10:53:36Z</time>
      </trkpt>
      <trkpt lat="45.82654" lon="5.85168">
        <ele>384.18</ele>
        <time>2012-08-07T10:53:39Z</time>
      </trkpt>
      <trkpt lat="45.82619" lon="5.85156">
        <ele>380.82</ele>
        <time>2012-08-07T10:53:42Z</time>
      </trkpt>
      <trkpt lat="45.82588" lon="5.85143">
        <ele>376.49</ele>
        <time>2012-08-07T10:53:46Z</time>
      </trkpt>
      <trkpt lat="45.82582" lon="5.85137">
        <ele>376.01</ele>
        <time>2012-08-07T10:53:47Z</time>
      </trkpt>
      <trkpt lat="45.82578" lon="5.85129">
        <ele>375.53</ele>
        <time>2012-08-07T10:53:48Z</time>
      </trkpt>
      <trkpt lat="45.8257" lon="5.85109">
        <ele>375.05</ele>
        <time>2012-08-07T10:53:50Z</time>
      </trkpt>
      <trkpt lat="45.82567" lon="5.85099">
        <ele>374.09</ele>
        <time>2012-08-07T10:53:51Z</time>
      </trkpt>
      <trkpt lat="45.82566" lon="5.85089">
        <ele>374.09</ele>
        <time>2012-08-07T10:53:52Z</time>
      </trkpt>
      <trkpt lat="45.82563" lon="5.85055">
        <ele>371.69</ele>
        <time>2012-08-07T10:53:56Z</time>
      </trkpt>
      <trkpt lat="45.82563" lon="5.85049">
        <ele>371.69</ele>
        <time>2012-08-07T10:53:57Z</time>
      </trkpt>
      <trkpt lat="45.82576" lon="5.85029">
        <ele>370.73</ele>
        <time>2012-08-07T10:54:01Z</time>
      </trkpt>
      <trkpt lat="45.82581" lon="5.85019">
        <ele>370.24</ele>
        <time>2012-08-07T10:54:02Z</time>
      </trkpt>
      <trkpt lat="45.8259" lon="5.85009">
        <ele>369.76</ele>
        <time>2012-08-07T10:54:03Z</time>
      </trkpt>
      <trkpt lat="45.82599" lon="5.85001">
        <ele>369.28</ele>
        <time>2012-08-07T10:54:04Z</time>
      </trkpt>
      <trkpt lat="45.82636" lon="5.84974">
        <ele>365.92</ele>
        <time>2012-08-07T10:54:08Z</time>
      </trkpt>
      <trkpt lat="45.82647" lon="5.8497">
        <ele>364</ele>
        <time>2012-08-07T10:54:09Z</time>
      </trkpt>
      <trkpt lat="45.82657" lon="5.84972">
        <ele>363.04</ele>
        <time>2012-08-07T10:54:10Z</time>
      </trkpt>
      <trkpt lat="45.82668" lon="5.84976">
        <ele>362.07</ele>
        <time>2012-08-07T10:54:11Z</time>
      </trkpt>
      <trkpt lat="45.82698" lon="5.84987">
        <ele>359.19</ele>
        <time>2012-08-07T10:54:14Z</time>
      </trkpt>
      <trkpt lat="45.82711" lon="5.84979">
        <ele>358.23</ele>
        <time>2012-08-07T10:54:15Z</time>
      </trkpt>
      <trkpt lat="45.82764" lon="5.84943">
        <ele>355.34</ele>
        <time>2012-08-07T10:54:19Z</time>
      </trkpt>
      <trkpt lat="45.82874" lon="5.84869">
        <ele>357.27</ele>
        <time>2012-08-07T10:54:26Z</time>
      </trkpt>
      <trkpt lat="45.82953" lon="5.84816">
        <ele>360.15</ele>
        <time>2012-08-07T10:54:31Z</time>
      </trkpt>
      <trkpt lat="45.83039" lon="5.84766">
        <ele>362.07</ele>
        <time>2012-08-07T10:54:37Z</time>
      </trkpt>
      <trkpt lat="45.83054" lon="5.84762">
        <ele>363.04</ele>
        <time>2012-08-07T10:54:38Z</time>
      </trkpt>
      <trkpt lat="45.83068" lon="5.84758">
        <ele>363.04</ele>
        <time>2012-08-07T10:54:39Z</time>
      </trkpt>
      <trkpt lat="45.83155" lon="5.84733">
        <ele>363.04</ele>
        <time>2012-08-07T10:54:45Z</time>
      </trkpt>
      <trkpt lat="45.83251" lon="5.84714">
        <ele>360.15</ele>
        <time>2012-08-07T10:54:53Z</time>
      </trkpt>
      <trkpt lat="45.83261" lon="5.8471">
        <ele>359.19</ele>
        <time>2012-08-07T10:54:54Z</time>
      </trkpt>
      <trkpt lat="45.83269" lon="5.84703">
        <ele>359.19</ele>
        <time>2012-08-07T10:54:55Z</time>
      </trkpt>
      <trkpt lat="45.83276" lon="5.84693">
        <ele>359.67</ele>
        <time>2012-08-07T10:54:56Z</time>
      </trkpt>
      <trkpt lat="45.83282" lon="5.84682">
        <ele>359.67</ele>
        <time>2012-08-07T10:54:57Z</time>
      </trkpt>
      <trkpt lat="45.83295" lon="5.8466">
        <ele>358.23</ele>
        <time>2012-08-07T10:54:59Z</time>
      </trkpt>
      <trkpt lat="45.83303" lon="5.84652">
        <ele>357.75</ele>
        <time>2012-08-07T10:55:00Z</time>
      </trkpt>
      <trkpt lat="45.83313" lon="5.84643">
        <ele>357.75</ele>
        <time>2012-08-07T10:55:01Z</time>
      </trkpt>
      <trkpt lat="45.8336" lon="5.84615">
        <ele>352.94</ele>
        <time>2012-08-07T10:55:05Z</time>
      </trkpt>
      <trkpt lat="45.83368" lon="5.84613">
        <ele>351.02</ele>
        <time>2012-08-07T10:55:06Z</time>
      </trkpt>
      <trkpt lat="45.83375" lon="5.8461">
        <ele>350.54</ele>
        <time>2012-08-07T10:55:07Z</time>
      </trkpt>
      <trkpt lat="45.83379" lon="5.84606">
        <ele>349.58</ele>
        <time>2012-08-07T10:55:08Z</time>
      </trkpt>
      <trkpt lat="45.83378" lon="5.84594">
        <ele>349.1</ele>
        <time>2012-08-07T10:55:10Z</time>
      </trkpt>
      <trkpt lat="45.83372" lon="5.8459">
        <ele>350.06</ele>
        <time>2012-08-07T10:55:11Z</time>
      </trkpt>
      <trkpt lat="45.83364" lon="5.84587">
        <ele>349.58</ele>
        <time>2012-08-07T10:55:12Z</time>
      </trkpt>
      <trkpt lat="45.83354" lon="5.84584">
        <ele>349.58</ele>
        <time>2012-08-07T10:55:13Z</time>
      </trkpt>
      <trkpt lat="45.8334" lon="5.84582">
        <ele>349.1</ele>
        <time>2012-08-07T10:55:14Z</time>
      </trkpt>
      <trkpt lat="45.83324" lon="5.84581">
        <ele>347.65</ele>
        <time>2012-08-07T10:55:15Z</time>
      </trkpt>
      <trkpt lat="45.83311" lon="5.84579">
        <ele>344.29</ele>
        <time>2012-08-07T10:55:16Z</time>
      </trkpt>
      <trkpt lat="45.83283" lon="5.84576">
        <ele>340.44</ele>
        <time>2012-08-07T10:55:19Z</time>
      </trkpt>
      <trkpt lat="45.83278" lon="5.84572">
        <ele>339.96</ele>
        <time>2012-08-07T10:55:20Z</time>
      </trkpt>
      <trkpt lat="45.83276" lon="5.84566">
        <ele>339.48</ele>
        <time>2012-08-07T10:55:21Z</time>
      </trkpt>
      <trkpt lat="45.83277" lon="5.8456">
        <ele>339.48</ele>
        <time>2012-08-07T10:55:22Z</time>
      </trkpt>
      <trkpt lat="45.83283" lon="5.84557">
        <ele>339.48</ele>
        <time>2012-08-07T10:55:23Z</time>
      </trkpt>
      <trkpt lat="45.83292" lon="5.84555">
        <ele>340.44</ele>
        <time>2012-08-07T10:55:24Z</time>
      </trkpt>
      <trkpt lat="45.83303" lon="5.84551">
        <ele>339.96</ele>
        <time>2012-08-07T10:55:25Z</time>
      </trkpt>
      <trkpt lat="45.8335" lon="5.84532">
        <ele>337.08</ele>
        <time>2012-08-07T10:55:28Z</time>
      </trkpt>
      <trkpt lat="45.83414" lon="5.84516">
        <ele>333.23</ele>
        <time>2012-08-07T10:55:32Z</time>
      </trkpt>
      <trkpt lat="45.83443" lon="5.84508">
        <ele>331.79</ele>
        <time>2012-08-07T10:55:34Z</time>
      </trkpt>
      <trkpt lat="45.83493" lon="5.8449">
        <ele>328.43</ele>
        <time>2012-08-07T10:55:38Z</time>
      </trkpt>
      <trkpt lat="45.8351" lon="5.84481">
        <ele>326.99</ele>
        <time>2012-08-07T10:55:40Z</time>
      </trkpt>
      <trkpt lat="45.83514" lon="5.84473">
        <ele>326.5</ele>
        <time>2012-08-07T10:55:41Z</time>
      </trkpt>
      <trkpt lat="45.83517" lon="5.84462">
        <ele>327.47</ele>
        <time>2012-08-07T10:55:42Z</time>
      </trkpt>
      <trkpt lat="45.83516" lon="5.84448">
        <ele>327.95</ele>
        <time>2012-08-07T10:55:43Z</time>
      </trkpt>
      <trkpt lat="45.83514" lon="5.84434">
        <ele>326.02</ele>
        <time>2012-08-07T10:55:44Z</time>
      </trkpt>
      <trkpt lat="45.8351" lon="5.84421">
        <ele>325.06</ele>
        <time>2012-08-07T10:55:45Z</time>
      </trkpt>
      <trkpt lat="45.83509" lon="5.8441">
        <ele>323.62</ele>
        <time>2012-08-07T10:55:46Z</time>
      </trkpt>
      <trkpt lat="45.83509" lon="5.844">
        <ele>323.14</ele>
        <time>2012-08-07T10:55:47Z</time>
      </trkpt>
      <trkpt lat="45.83514" lon="5.8439">
        <ele>322.66</ele>
        <time>2012-08-07T10:55:48Z</time>
      </trkpt>
      <trkpt lat="45.83521" lon="5.84378">
        <ele>322.66</ele>
        <time>2012-08-07T10:55:49Z</time>
      </trkpt>
      <trkpt lat="45.83532" lon="5.84367">
        <ele>322.18</ele>
        <time>2012-08-07T10:55:50Z</time>
      </trkpt>
      <trkpt lat="45.83545" lon="5.84354">
        <ele>322.66</ele>
        <time>2012-08-07T10:55:51Z</time>
      </trkpt>
      <trkpt lat="45.83573" lon="5.84326">
        <ele>318.33</ele>
        <time>2012-08-07T10:55:53Z</time>
      </trkpt>
      <trkpt lat="45.83598" lon="5.84299">
        <ele>314.97</ele>
        <time>2012-08-07T10:55:55Z</time>
      </trkpt>
      <trkpt lat="45.83623" lon="5.84274">
        <ele>311.6</ele>
        <time>2012-08-07T10:55:57Z</time>
      </trkpt>
      <trkpt lat="45.83656" lon="5.84245">
        <ele>307.76</ele>
        <time>2012-08-07T10:56:00Z</time>
      </trkpt>
      <trkpt lat="45.83667" lon="5.84237">
        <ele>306.8</ele>
        <time>2012-08-07T10:56:01Z</time>
      </trkpt>
      <trkpt lat="45.83677" lon="5.84231">
        <ele>305.36</ele>
        <time>2012-08-07T10:56:02Z</time>
      </trkpt>
      <trkpt lat="45.83688" lon="5.84227">
        <ele>303.91</ele>
        <time>2012-08-07T10:56:03Z</time>
      </trkpt>
      <trkpt lat="45.83699" lon="5.84224">
        <ele>302.95</ele>
        <time>2012-08-07T10:56:04Z</time>
      </trkpt>
      <trkpt lat="45.8371" lon="5.84224">
        <ele>300.55</ele>
        <time>2012-08-07T10:56:05Z</time>
      </trkpt>
      <trkpt lat="45.83721" lon="5.84225">
        <ele>299.11</ele>
        <time>2012-08-07T10:56:06Z</time>
      </trkpt>
      <trkpt lat="45.8373" lon="5.84227">
        <ele>298.63</ele>
        <time>2012-08-07T10:56:07Z</time>
      </trkpt>
      <trkpt lat="45.83737" lon="5.84227">
        <ele>297.67</ele>
        <time>2012-08-07T10:56:08Z</time>
      </trkpt>
      <trkpt lat="45.83743" lon="5.84227">
        <ele>296.7</ele>
        <time>2012-08-07T10:56:09Z</time>
      </trkpt>
      <trkpt lat="45.83748" lon="5.84223">
        <ele>295.74</ele>
        <time>2012-08-07T10:56:10Z</time>
      </trkpt>
      <trkpt lat="45.8375" lon="5.84215">
        <ele>296.22</ele>
        <time>2012-08-07T10:56:11Z</time>
      </trkpt>
      <trkpt lat="45.83751" lon="5.84203">
        <ele>296.22</ele>
        <time>2012-08-07T10:56:12Z</time>
      </trkpt>
      <trkpt lat="45.8375" lon="5.84187">
        <ele>295.74</ele>
        <time>2012-08-07T10:56:13Z</time>
      </trkpt>
      <trkpt lat="45.83748" lon="5.84144">
        <ele>291.42</ele>
        <time>2012-08-07T10:56:16Z</time>
      </trkpt>
      <trkpt lat="45.83745" lon="5.84126">
        <ele>289.01</ele>
        <time>2012-08-07T10:56:19Z</time>
      </trkpt>
      <trkpt lat="45.83748" lon="5.84124">
        <ele>288.53</ele>
        <time>2012-08-07T10:56:24Z</time>
      </trkpt>
      <trkpt lat="45.83747" lon="5.84117">
        <ele>288.53</ele>
        <time>2012-08-07T10:56:25Z</time>
      </trkpt>
      <trkpt lat="45.83747" lon="5.84074">
        <ele>288.05</ele>
        <time>2012-08-07T10:56:28Z</time>
      </trkpt>
      <trkpt lat="45.8374" lon="5.84019">
        <ele>284.69</ele>
        <time>2012-08-07T10:56:31Z</time>
      </trkpt>
      <trkpt lat="45.83737" lon="5.83972">
        <ele>281.32</ele>
        <time>2012-08-07T10:56:34Z</time>
      </trkpt>
      <trkpt lat="45.83739" lon="5.83949">
        <ele>279.4</ele>
        <time>2012-08-07T10:56:36Z</time>
      </trkpt>
      <trkpt lat="45.83744" lon="5.83943">
        <ele>278.92</ele>
        <time>2012-08-07T10:56:37Z</time>
      </trkpt>
      <trkpt lat="45.83752" lon="5.83942">
        <ele>278.92</ele>
        <time>2012-08-07T10:56:38Z</time>
      </trkpt>
      <trkpt lat="45.8376" lon="5.83944">
        <ele>279.4</ele>
        <time>2012-08-07T10:56:39Z</time>
      </trkpt>
      <trkpt lat="45.83769" lon="5.83949">
        <ele>279.4</ele>
        <time>2012-08-07T10:56:40Z</time>
      </trkpt>
      <trkpt lat="45.83778" lon="5.83955">
        <ele>279.4</ele>
        <time>2012-08-07T10:56:41Z</time>
      </trkpt>
      <trkpt lat="45.83787" lon="5.83964">
        <ele>280.36</ele>
        <time>2012-08-07T10:56:42Z</time>
      </trkpt>
      <trkpt lat="45.83796" lon="5.83975">
        <ele>281.32</ele>
        <time>2012-08-07T10:56:43Z</time>
      </trkpt>
      <trkpt lat="45.83807" lon="5.83987">
        <ele>281.8</ele>
        <time>2012-08-07T10:56:44Z</time>
      </trkpt>
      <trkpt lat="45.83853" lon="5.84046">
        <ele>282.77</ele>
        <time>2012-08-07T10:56:48Z</time>
      </trkpt>
      <trkpt lat="45.83867" lon="5.8406">
        <ele>284.21</ele>
        <time>2012-08-07T10:56:49Z</time>
      </trkpt>
      <trkpt lat="45.83883" lon="5.8407">
        <ele>285.17</ele>
        <time>2012-08-07T10:56:50Z</time>
      </trkpt>
      <trkpt lat="45.83901" lon="5.84075">
        <ele>285.17</ele>
        <time>2012-08-07T10:56:51Z</time>
      </trkpt>
      <trkpt lat="45.83919" lon="5.84077">
        <ele>287.57</ele>
        <time>2012-08-07T10:56:52Z</time>
      </trkpt>
      <trkpt lat="45.83938" lon="5.84077">
        <ele>289.01</ele>
        <time>2012-08-07T10:56:53Z</time>
      </trkpt>
      <trkpt lat="45.83977" lon="5.8408">
        <ele>291.9</ele>
        <time>2012-08-07T10:56:55Z</time>
      </trkpt>
      <trkpt lat="45.84033" lon="5.84092">
        <ele>295.74</ele>
        <time>2012-08-07T10:56:58Z</time>
      </trkpt>
      <trkpt lat="45.8405" lon="5.84093">
        <ele>296.22</ele>
        <time>2012-08-07T10:56:59Z</time>
      </trkpt>
      <trkpt lat="45.84084" lon="5.84094">
        <ele>299.11</ele>
        <time>2012-08-07T10:57:01Z</time>
      </trkpt>
      <trkpt lat="45.84101" lon="5.84099">
        <ele>299.59</ele>
        <time>2012-08-07T10:57:02Z</time>
      </trkpt>
      <trkpt lat="45.84117" lon="5.84105">
        <ele>301.51</ele>
        <time>2012-08-07T10:57:03Z</time>
      </trkpt>
      <trkpt lat="45.84135" lon="5.84111">
        <ele>302.47</ele>
        <time>2012-08-07T10:57:04Z</time>
      </trkpt>
      <trkpt lat="45.84152" lon="5.84113">
        <ele>303.91</ele>
        <time>2012-08-07T10:57:05Z</time>
      </trkpt>
      <trkpt lat="45.84171" lon="5.84115">
        <ele>305.36</ele>
        <time>2012-08-07T10:57:06Z</time>
      </trkpt>
      <trkpt lat="45.84227" lon="5.84121">
        <ele>309.2</ele>
        <time>2012-08-07T10:57:09Z</time>
      </trkpt>
      <trkpt lat="45.84279" lon="5.84124">
        <ele>311.12</ele>
        <time>2012-08-07T10:57:12Z</time>
      </trkpt>
      <trkpt lat="45.84323" lon="5.84133">
        <ele>312.57</ele>
        <time>2012-08-07T10:57:15Z</time>
      </trkpt>
      <trkpt lat="45.84336" lon="5.84141">
        <ele>313.53</ele>
        <time>2012-08-07T10:57:16Z</time>
      </trkpt>
      <trkpt lat="45.84349" lon="5.84152">
        <ele>314.49</ele>
        <time>2012-08-07T10:57:17Z</time>
      </trkpt>
      <trkpt lat="45.84389" lon="5.84189">
        <ele>318.33</ele>
        <time>2012-08-07T10:57:20Z</time>
      </trkpt>
      <trkpt lat="45.84419" lon="5.84216">
        <ele>322.66</ele>
        <time>2012-08-07T10:57:22Z</time>
      </trkpt>
      <trkpt lat="45.84489" lon="5.84277">
        <ele>326.5</ele>
        <time>2012-08-07T10:57:27Z</time>
      </trkpt>
      <trkpt lat="45.84503" lon="5.84283">
        <ele>326.5</ele>
        <time>2012-08-07T10:57:28Z</time>
      </trkpt>
      <trkpt lat="45.84518" lon="5.84287">
        <ele>327.47</ele>
        <time>2012-08-07T10:57:29Z</time>
      </trkpt>
      <trkpt lat="45.84591" lon="5.84303">
        <ele>328.91</ele>
        <time>2012-08-07T10:57:36Z</time>
      </trkpt>
      <trkpt lat="45.84597" lon="5.84306">
        <ele>328.91</ele>
        <time>2012-08-07T10:57:37Z</time>
      </trkpt>
      <trkpt lat="45.84602" lon="5.84313">
        <ele>329.87</ele>
        <time>2012-08-07T10:57:38Z</time>
      </trkpt>
      <trkpt lat="45.84609" lon="5.84322">
        <ele>330.83</ele>
        <time>2012-08-07T10:57:39Z</time>
      </trkpt>
      <trkpt lat="45.84614" lon="5.84332">
        <ele>330.83</ele>
        <time>2012-08-07T10:57:40Z</time>
      </trkpt>
      <trkpt lat="45.84618" lon="5.8434">
        <ele>331.31</ele>
        <time>2012-08-07T10:57:41Z</time>
      </trkpt>
      <trkpt lat="45.84625" lon="5.84353">
        <ele>331.31</ele>
        <time>2012-08-07T10:57:44Z</time>
      </trkpt>
      <trkpt lat="45.84631" lon="5.84355">
        <ele>331.79</ele>
        <time>2012-08-07T10:57:45Z</time>
      </trkpt>
      <trkpt lat="45.84638" lon="5.84355">
        <ele>331.31</ele>
        <time>2012-08-07T10:57:46Z</time>
      </trkpt>
      <trkpt lat="45.84645" lon="5.84355">
        <ele>330.83</ele>
        <time>2012-08-07T10:57:47Z</time>
      </trkpt>
      <trkpt lat="45.8465" lon="5.84357">
        <ele>330.35</ele>
        <time>2012-08-07T10:57:48Z</time>
      </trkpt>
      <trkpt lat="45.84654" lon="5.84358">
        <ele>329.87</ele>
        <time>2012-08-07T10:57:49Z</time>
      </trkpt>
      <trkpt lat="45.84654" lon="5.84357">
        <ele>329.87</ele>
        <time>2012-08-07T10:57:58Z</time>
      </trkpt>
      <trkpt lat="45.84654" lon="5.84359">
        <ele>330.35</ele>
        <time>2012-08-07T10:58:28Z</time>
      </trkpt>
      <trkpt lat="45.84653" lon="5.84358">
        <ele>326.99</ele>
        <time>2012-08-07T10:58:50Z</time>
      </trkpt>
      <trkpt lat="45.84653" lon="5.84358">
        <ele>329.87</ele>
        <time>2012-08-07T10:58:51Z</time>
      </trkpt>
    </trkseg>
  </trk>
</gpx>